<?xml version='1.0' encoding='UTF-8'?><gpx version="1.1" creator="JPX - https://github.com/jenetics/jpx" xmlns="http://www.topografix.com/GPX/1/1"><trk><trkseg><trkpt lat="43.2227163" lon="12.5436899"><ele>618.0</ele><time>2026-04-16T08:40:37.719Z</time></trkpt><trkpt lat="43.2226584" lon="12.5435974"><ele>618.0</ele><time>2026-04-16T08:40:39.72Z</time></trkpt><trkpt lat="43.2226439" lon="12.5435046"><ele>618.0</ele><time>2026-04-16T08:40:40.719Z</time></trkpt><trkpt lat="43.2225567" lon="12.5433556"><ele>618.0</ele><time>2026-04-16T08:40:42.72Z</time></trkpt><trkpt lat="43.2225505" lon="12.5432127"><ele>618.0</ele><time>2026-04-16T08:40:44.719Z</time></trkpt><trkpt lat="43.2225296" lon="12.5430851"><ele>618.0</ele><time>2026-04-16T08:40:46.719Z</time></trkpt><trkpt lat="43.2225042" lon="12.5429992"><ele>618.0</ele><time>2026-04-16T08:40:47.719Z</time></trkpt><trkpt lat="43.2224593" lon="12.5429078"><ele>618.0</ele><time>2026-04-16T08:40:48.719Z</time></trkpt><trkpt lat="43.2224159" lon="12.5428257"><ele>618.0</ele><time>2026-04-16T08:40:49.72Z</time></trkpt><trkpt lat="43.2223283" lon="12.5426879"><ele>618.0</ele><time>2026-04-16T08:40:51.72Z</time></trkpt><trkpt lat="43.2222787" lon="12.5426192"><ele>618.0</ele><time>2026-04-16T08:40:52.719Z</time></trkpt><trkpt lat="43.2222295" lon="12.5425645"><ele>617.4</ele><time>2026-04-16T08:40:53.72Z</time></trkpt><trkpt lat="43.2221393" lon="12.5424825"><ele>616.8</ele><time>2026-04-16T08:40:55.718Z</time></trkpt><trkpt lat="43.2220482" lon="12.5423803"><ele>616.2</ele><time>2026-04-16T08:40:57.72Z</time></trkpt><trkpt lat="43.2219633" lon="12.5423413"><ele>615.6</ele><time>2026-04-16T08:40:59.719Z</time></trkpt><trkpt lat="43.2219084" lon="12.5423927"><ele>615.0</ele><time>2026-04-16T08:41:05.719Z</time></trkpt><trkpt lat="43.2219481" lon="12.5425045"><ele>615.0</ele><time>2026-04-16T08:41:07.721Z</time></trkpt><trkpt lat="43.2220156" lon="12.5426528"><ele>615.0</ele><time>2026-04-16T08:41:09.718Z</time></trkpt><trkpt lat="43.2220723" lon="12.5427358"><ele>615.0</ele><time>2026-04-16T08:41:10.72Z</time></trkpt><trkpt lat="43.2221344" lon="12.5428473"><ele>615.0</ele><time>2026-04-16T08:41:11.719Z</time></trkpt><trkpt lat="43.2221958" lon="12.5429758"><ele>615.0</ele><time>2026-04-16T08:41:12.72Z</time></trkpt><trkpt lat="43.2222644" lon="12.5431056"><ele>615.75</ele><time>2026-04-16T08:41:13.718Z</time></trkpt><trkpt lat="43.2223371" lon="12.5432526"><ele>616.5</ele><time>2026-04-16T08:41:14.718Z</time></trkpt><trkpt lat="43.2224114" lon="12.5434081"><ele>617.25</ele><time>2026-04-16T08:41:15.719Z</time></trkpt><trkpt lat="43.2224941" lon="12.543583"><ele>618.0</ele><time>2026-04-16T08:41:16.72Z</time></trkpt><trkpt lat="43.2225673" lon="12.5437371"><ele>620.4</ele><time>2026-04-16T08:41:17.72Z</time></trkpt><trkpt lat="43.2226151" lon="12.543893"><ele>622.8</ele><time>2026-04-16T08:41:18.72Z</time></trkpt><trkpt lat="43.2226693" lon="12.5440408"><ele>625.2</ele><time>2026-04-16T08:41:19.72Z</time></trkpt><trkpt lat="43.222672" lon="12.5441845"><ele>627.6</ele><time>2026-04-16T08:41:20.721Z</time></trkpt><trkpt lat="43.2226592" lon="12.5442976"><ele>630.0</ele><time>2026-04-16T08:41:21.719Z</time></trkpt><trkpt lat="43.2226525" lon="12.5444275"><ele>630.0</ele><time>2026-04-16T08:41:22.719Z</time></trkpt><trkpt lat="43.222573" lon="12.5444678"><ele>630.0</ele><time>2026-04-16T08:41:23.718Z</time></trkpt><trkpt lat="43.2225574" lon="12.5445746"><ele>630.0</ele><time>2026-04-16T08:41:24.72Z</time></trkpt><trkpt lat="43.2225179" lon="12.5446726"><ele>630.0</ele><time>2026-04-16T08:41:25.718Z</time></trkpt><trkpt lat="43.2224804" lon="12.5447607"><ele>630.0</ele><time>2026-04-16T08:41:26.72Z</time></trkpt><trkpt lat="43.2224724" lon="12.5448587"><ele>630.0</ele><time>2026-04-16T08:41:27.719Z</time></trkpt><trkpt lat="43.2224468" lon="12.5449555"><ele>631.6666666666666</ele><time>2026-04-16T08:41:28.72Z</time></trkpt><trkpt lat="43.2224282" lon="12.5450503"><ele>633.3333333333334</ele><time>2026-04-16T08:41:29.72Z</time></trkpt><trkpt lat="43.2224294" lon="12.5451532"><ele>635.0</ele><time>2026-04-16T08:41:30.72Z</time></trkpt><trkpt lat="43.2224385" lon="12.5452627"><ele>636.6666666666667</ele><time>2026-04-16T08:41:31.719Z</time></trkpt><trkpt lat="43.2224491" lon="12.545376"><ele>638.3333333333334</ele><time>2026-04-16T08:41:32.72Z</time></trkpt><trkpt lat="43.2225063" lon="12.5455332"><ele>640.0</ele><time>2026-04-16T08:41:33.721Z</time></trkpt><trkpt lat="43.2225896" lon="12.5456969"><ele>640.6666666666667</ele><time>2026-04-16T08:41:34.719Z</time></trkpt><trkpt lat="43.2226789" lon="12.5458719"><ele>641.3333333333334</ele><time>2026-04-16T08:41:35.72Z</time></trkpt><trkpt lat="43.222764" lon="12.5460601"><ele>642.0</ele><time>2026-04-16T08:41:36.72Z</time></trkpt><trkpt lat="43.2228514" lon="12.546252"><ele>640.6666666666666</ele><time>2026-04-16T08:41:37.719Z</time></trkpt><trkpt lat="43.2229226" lon="12.5464365"><ele>639.3333333333333</ele><time>2026-04-16T08:41:38.719Z</time></trkpt><trkpt lat="43.222974" lon="12.5466242"><ele>638.0</ele><time>2026-04-16T08:41:39.719Z</time></trkpt><trkpt lat="43.2230006" lon="12.546837"><ele>640.3333333333333</ele><time>2026-04-16T08:41:40.719Z</time></trkpt><trkpt lat="43.2229977" lon="12.5470837"><ele>642.6666666666666</ele><time>2026-04-16T08:41:41.72Z</time></trkpt><trkpt lat="43.2229853" lon="12.5473443"><ele>645.0</ele><time>2026-04-16T08:41:42.719Z</time></trkpt><trkpt lat="43.2229632" lon="12.5476064"><ele>645.0</ele><time>2026-04-16T08:41:43.719Z</time></trkpt><trkpt lat="43.222956" lon="12.5478692"><ele>645.0</ele><time>2026-04-16T08:41:44.72Z</time></trkpt><trkpt lat="43.2229646" lon="12.5481478"><ele>645.0</ele><time>2026-04-16T08:41:45.72Z</time></trkpt><trkpt lat="43.2230002" lon="12.5484411"><ele>644.0</ele><time>2026-04-16T08:41:46.72Z</time></trkpt><trkpt lat="43.2230613" lon="12.5487396"><ele>643.0</ele><time>2026-04-16T08:41:47.719Z</time></trkpt><trkpt lat="43.2231551" lon="12.5490344"><ele>651.5</ele><time>2026-04-16T08:41:48.719Z</time></trkpt><trkpt lat="43.2232593" lon="12.5493232"><ele>660.0</ele><time>2026-04-16T08:41:49.718Z</time></trkpt><trkpt lat="43.2233672" lon="12.5495985"><ele>660.0</ele><time>2026-04-16T08:41:50.717Z</time></trkpt><trkpt lat="43.2234586" lon="12.5498362"><ele>660.0</ele><time>2026-04-16T08:41:51.719Z</time></trkpt><trkpt lat="43.2235181" lon="12.5500821"><ele>660.0</ele><time>2026-04-16T08:41:52.718Z</time></trkpt><trkpt lat="43.2235505" lon="12.5503426"><ele>659.6666666666666</ele><time>2026-04-16T08:41:53.718Z</time></trkpt><trkpt lat="43.2235687" lon="12.5505937"><ele>659.3333333333333</ele><time>2026-04-16T08:41:54.719Z</time></trkpt><trkpt lat="43.2235798" lon="12.5508288"><ele>659.0</ele><time>2026-04-16T08:41:55.719Z</time></trkpt><trkpt lat="43.2235946" lon="12.5510646"><ele>657.6666666666666</ele><time>2026-04-16T08:41:56.72Z</time></trkpt><trkpt lat="43.2236662" lon="12.5512761"><ele>656.3333333333334</ele><time>2026-04-16T08:41:57.721Z</time></trkpt><trkpt lat="43.2237562" lon="12.5514642"><ele>655.0</ele><time>2026-04-16T08:41:58.718Z</time></trkpt><trkpt lat="43.2238549" lon="12.5516545"><ele>652.3333333333334</ele><time>2026-04-16T08:41:59.72Z</time></trkpt><trkpt lat="43.2240357" lon="12.5517973"><ele>649.6666666666666</ele><time>2026-04-16T08:42:00.717Z</time></trkpt><trkpt lat="43.22422" lon="12.5519416"><ele>647.0</ele><time>2026-04-16T08:42:01.719Z</time></trkpt><trkpt lat="43.2244047" lon="12.5521116"><ele>647.0</ele><time>2026-04-16T08:42:02.719Z</time></trkpt><trkpt lat="43.2246022" lon="12.5522508"><ele>647.0</ele><time>2026-04-16T08:42:03.72Z</time></trkpt><trkpt lat="43.2248" lon="12.5524142"><ele>654.5</ele><time>2026-04-16T08:42:04.719Z</time></trkpt><trkpt lat="43.2250045" lon="12.5525683"><ele>662.0</ele><time>2026-04-16T08:42:05.719Z</time></trkpt><trkpt lat="43.2251956" lon="12.552727"><ele>662.0</ele><time>2026-04-16T08:42:06.719Z</time></trkpt><trkpt lat="43.2253774" lon="12.5528502"><ele>662.0</ele><time>2026-04-16T08:42:07.718Z</time></trkpt><trkpt lat="43.2255727" lon="12.5529321"><ele>662.0</ele><time>2026-04-16T08:42:08.718Z</time></trkpt><trkpt lat="43.2257686" lon="12.5529874"><ele>665.3333333333333</ele><time>2026-04-16T08:42:09.717Z</time></trkpt><trkpt lat="43.225978" lon="12.5529403"><ele>668.6666666666666</ele><time>2026-04-16T08:42:10.719Z</time></trkpt><trkpt lat="43.2261917" lon="12.5529165"><ele>672.0</ele><time>2026-04-16T08:42:11.719Z</time></trkpt><trkpt lat="43.2264407" lon="12.5528582"><ele>668.0</ele><time>2026-04-16T08:42:12.719Z</time></trkpt><trkpt lat="43.2266733" lon="12.5528366"><ele>664.0</ele><time>2026-04-16T08:42:13.719Z</time></trkpt><trkpt lat="43.2269126" lon="12.5528242"><ele>664.0</ele><time>2026-04-16T08:42:14.719Z</time></trkpt><trkpt lat="43.227152" lon="12.552817"><ele>664.0</ele><time>2026-04-16T08:42:15.718Z</time></trkpt><trkpt lat="43.2273884" lon="12.5528211"><ele>663.5</ele><time>2026-04-16T08:42:16.719Z</time></trkpt><trkpt lat="43.2276158" lon="12.5528318"><ele>663.0</ele><time>2026-04-16T08:42:17.72Z</time></trkpt><trkpt lat="43.2278407" lon="12.5528375"><ele>663.0</ele><time>2026-04-16T08:42:18.72Z</time></trkpt><trkpt lat="43.2280581" lon="12.5528418"><ele>663.0</ele><time>2026-04-16T08:42:19.72Z</time></trkpt><trkpt lat="43.2282602" lon="12.5528768"><ele>663.0</ele><time>2026-04-16T08:42:20.72Z</time></trkpt><trkpt lat="43.2284593" lon="12.5529502"><ele>664.6666666666666</ele><time>2026-04-16T08:42:21.719Z</time></trkpt><trkpt lat="43.2286437" lon="12.5530624"><ele>666.3333333333333</ele><time>2026-04-16T08:42:22.72Z</time></trkpt><trkpt lat="43.2288078" lon="12.5532243"><ele>668.0</ele><time>2026-04-16T08:42:23.719Z</time></trkpt><trkpt lat="43.2289777" lon="12.5533839"><ele>668.0</ele><time>2026-04-16T08:42:24.717Z</time></trkpt><trkpt lat="43.2291275" lon="12.5535516"><ele>668.0</ele><time>2026-04-16T08:42:25.72Z</time></trkpt><trkpt lat="43.2292707" lon="12.5537019"><ele>668.0</ele><time>2026-04-16T08:42:26.719Z</time></trkpt><trkpt lat="43.2294163" lon="12.5538525"><ele>665.25</ele><time>2026-04-16T08:42:27.718Z</time></trkpt><trkpt lat="43.2295357" lon="12.5539842"><ele>662.5</ele><time>2026-04-16T08:42:28.72Z</time></trkpt><trkpt lat="43.2296181" lon="12.5541399"><ele>659.75</ele><time>2026-04-16T08:42:29.719Z</time></trkpt><trkpt lat="43.2296864" lon="12.5543053"><ele>657.0</ele><time>2026-04-16T08:42:30.72Z</time></trkpt><trkpt lat="43.2297122" lon="12.554492"><ele>656.0</ele><time>2026-04-16T08:42:31.721Z</time></trkpt><trkpt lat="43.2297509" lon="12.5546743"><ele>655.0</ele><time>2026-04-16T08:42:32.718Z</time></trkpt><trkpt lat="43.2297296" lon="12.5548788"><ele>654.0</ele><time>2026-04-16T08:42:33.721Z</time></trkpt><trkpt lat="43.2297207" lon="12.5550693"><ele>653.0</ele><time>2026-04-16T08:42:34.719Z</time></trkpt><trkpt lat="43.229701" lon="12.5552384"><ele>653.75</ele><time>2026-04-16T08:42:35.719Z</time></trkpt><trkpt lat="43.2296844" lon="12.5554031"><ele>654.5</ele><time>2026-04-16T08:42:36.721Z</time></trkpt><trkpt lat="43.2296798" lon="12.5555555"><ele>655.25</ele><time>2026-04-16T08:42:37.719Z</time></trkpt><trkpt lat="43.2296613" lon="12.5557168"><ele>656.0</ele><time>2026-04-16T08:42:38.719Z</time></trkpt><trkpt lat="43.2295968" lon="12.5558355"><ele>656.0</ele><time>2026-04-16T08:42:39.721Z</time></trkpt><trkpt lat="43.2295302" lon="12.5559847"><ele>656.0</ele><time>2026-04-16T08:42:40.719Z</time></trkpt><trkpt lat="43.2294872" lon="12.5561055"><ele>656.0</ele><time>2026-04-16T08:42:41.719Z</time></trkpt><trkpt lat="43.2294385" lon="12.5562083"><ele>656.0</ele><time>2026-04-16T08:42:42.72Z</time></trkpt><trkpt lat="43.2293677" lon="12.5563172"><ele>656.0</ele><time>2026-04-16T08:42:43.719Z</time></trkpt><trkpt lat="43.2293085" lon="12.5564457"><ele>658.5</ele><time>2026-04-16T08:42:44.72Z</time></trkpt><trkpt lat="43.2292536" lon="12.556579"><ele>661.0</ele><time>2026-04-16T08:42:45.719Z</time></trkpt><trkpt lat="43.2292002" lon="12.5567215"><ele>663.5</ele><time>2026-04-16T08:42:46.719Z</time></trkpt><trkpt lat="43.2291959" lon="12.5568699"><ele>666.0</ele><time>2026-04-16T08:42:47.72Z</time></trkpt><trkpt lat="43.2291878" lon="12.5570346"><ele>665.0</ele><time>2026-04-16T08:42:48.718Z</time></trkpt><trkpt lat="43.2291878" lon="12.5572027"><ele>664.0</ele><time>2026-04-16T08:42:49.719Z</time></trkpt><trkpt lat="43.229206" lon="12.5573705"><ele>663.0</ele><time>2026-04-16T08:42:50.72Z</time></trkpt><trkpt lat="43.2292339" lon="12.5575211"><ele>662.0</ele><time>2026-04-16T08:42:51.719Z</time></trkpt><trkpt lat="43.2292824" lon="12.5576408"><ele>662.0</ele><time>2026-04-16T08:42:52.72Z</time></trkpt><trkpt lat="43.2293075" lon="12.5577629"><ele>662.0</ele><time>2026-04-16T08:42:53.72Z</time></trkpt><trkpt lat="43.2293308" lon="12.5578805"><ele>662.0</ele><time>2026-04-16T08:42:54.72Z</time></trkpt><trkpt lat="43.2293706" lon="12.5579986"><ele>662.0</ele><time>2026-04-16T08:42:55.719Z</time></trkpt><trkpt lat="43.2294215" lon="12.5580742"><ele>662.0</ele><time>2026-04-16T08:42:56.719Z</time></trkpt><trkpt lat="43.2294596" lon="12.5581648"><ele>662.0</ele><time>2026-04-16T08:42:57.718Z</time></trkpt><trkpt lat="43.2295128" lon="12.5582579"><ele>661.5</ele><time>2026-04-16T08:42:58.72Z</time></trkpt><trkpt lat="43.2295582" lon="12.5583516"><ele>661.0</ele><time>2026-04-16T08:42:59.718Z</time></trkpt><trkpt lat="43.2296567" lon="12.5584249"><ele>660.5</ele><time>2026-04-16T08:43:01.72Z</time></trkpt><trkpt lat="43.2297184" lon="12.5584831"><ele>660.0</ele><time>2026-04-16T08:43:02.719Z</time></trkpt><trkpt lat="43.2297815" lon="12.5585303"><ele>659.5</ele><time>2026-04-16T08:43:03.719Z</time></trkpt><trkpt lat="43.2298688" lon="12.5585808"><ele>659.0</ele><time>2026-04-16T08:43:04.721Z</time></trkpt><trkpt lat="43.2299541" lon="12.5586342"><ele>658.8333333333333</ele><time>2026-04-16T08:43:05.72Z</time></trkpt><trkpt lat="43.2300478" lon="12.5586863"><ele>658.6666666666666</ele><time>2026-04-16T08:43:06.72Z</time></trkpt><trkpt lat="43.2301398" lon="12.5587407"><ele>658.5</ele><time>2026-04-16T08:43:07.719Z</time></trkpt><trkpt lat="43.2302178" lon="12.5587737"><ele>658.3333333333334</ele><time>2026-04-16T08:43:08.719Z</time></trkpt><trkpt lat="43.2303006" lon="12.5588115"><ele>658.1666666666667</ele><time>2026-04-16T08:43:09.72Z</time></trkpt><trkpt lat="43.2303724" lon="12.5588499"><ele>658.0</ele><time>2026-04-16T08:43:10.721Z</time></trkpt><trkpt lat="43.2304514" lon="12.5588867"><ele>658.0</ele><time>2026-04-16T08:43:11.717Z</time></trkpt><trkpt lat="43.230538" lon="12.5589308"><ele>658.0</ele><time>2026-04-16T08:43:12.72Z</time></trkpt><trkpt lat="43.2306091" lon="12.5589654"><ele>658.0</ele><time>2026-04-16T08:43:13.719Z</time></trkpt><trkpt lat="43.2306768" lon="12.5590149"><ele>658.0</ele><time>2026-04-16T08:43:14.719Z</time></trkpt><trkpt lat="43.2307473" lon="12.5590491"><ele>658.0</ele><time>2026-04-16T08:43:15.72Z</time></trkpt><trkpt lat="43.2308348" lon="12.55906"><ele>658.0</ele><time>2026-04-16T08:43:16.72Z</time></trkpt><trkpt lat="43.2309159" lon="12.559091"><ele>657.4285714285714</ele><time>2026-04-16T08:43:17.72Z</time></trkpt><trkpt lat="43.2309949" lon="12.5591274"><ele>656.8571428571429</ele><time>2026-04-16T08:43:18.718Z</time></trkpt><trkpt lat="43.2310694" lon="12.5591615"><ele>656.2857142857142</ele><time>2026-04-16T08:43:19.72Z</time></trkpt><trkpt lat="43.23114" lon="12.5591768"><ele>655.7142857142858</ele><time>2026-04-16T08:43:20.72Z</time></trkpt><trkpt lat="43.2311989" lon="12.5592201"><ele>655.1428571428571</ele><time>2026-04-16T08:43:21.72Z</time></trkpt><trkpt lat="43.2312634" lon="12.5592467"><ele>654.5714285714286</ele><time>2026-04-16T08:43:22.72Z</time></trkpt><trkpt lat="43.2313343" lon="12.5592695"><ele>654.0</ele><time>2026-04-16T08:43:23.719Z</time></trkpt><trkpt lat="43.2314004" lon="12.559297"><ele>654.0</ele><time>2026-04-16T08:43:24.72Z</time></trkpt><trkpt lat="43.2315072" lon="12.5593437"><ele>654.0</ele><time>2026-04-16T08:43:26.72Z</time></trkpt><trkpt lat="43.2315427" lon="12.5594275"><ele>654.0</ele><time>2026-04-16T08:43:28.72Z</time></trkpt><trkpt lat="43.231475" lon="12.5594718"><ele>654.0</ele><time>2026-04-16T08:43:29.719Z</time></trkpt><trkpt lat="43.2313665" lon="12.559499"><ele>654.0</ele><time>2026-04-16T08:43:31.72Z</time></trkpt><trkpt lat="43.2313059" lon="12.5596272"><ele>652.3333333333334</ele><time>2026-04-16T08:43:33.718Z</time></trkpt><trkpt lat="43.2313908" lon="12.5596381"><ele>650.6666666666666</ele><time>2026-04-16T08:43:34.721Z</time></trkpt><trkpt lat="43.231449" lon="12.5597522"><ele>649.0</ele><time>2026-04-16T08:43:36.72Z</time></trkpt><trkpt lat="43.2315059" lon="12.5597944"><ele>647.3333333333333</ele><time>2026-04-16T08:43:37.721Z</time></trkpt><trkpt lat="43.23158" lon="12.5598384"><ele>645.6666666666666</ele><time>2026-04-16T08:43:38.72Z</time></trkpt><trkpt lat="43.2316289" lon="12.5599411"><ele>644.0</ele><time>2026-04-16T08:43:40.718Z</time></trkpt><trkpt lat="43.2316269" lon="12.5600659"><ele>644.0</ele><time>2026-04-16T08:43:42.719Z</time></trkpt><trkpt lat="43.2316051" lon="12.5601815"><ele>644.0</ele><time>2026-04-16T08:43:44.719Z</time></trkpt><trkpt lat="43.2315162" lon="12.5602221"><ele>644.0</ele><time>2026-04-16T08:43:46.719Z</time></trkpt><trkpt lat="43.2314555" lon="12.5601868"><ele>644.0</ele><time>2026-04-16T08:43:48.72Z</time></trkpt><trkpt lat="43.2313799" lon="12.560127"><ele>644.0</ele><time>2026-04-16T08:43:49.719Z</time></trkpt><trkpt lat="43.2313331" lon="12.5600685"><ele>644.0</ele><time>2026-04-16T08:43:50.72Z</time></trkpt><trkpt lat="43.2312632" lon="12.5600028"><ele>643.0</ele><time>2026-04-16T08:43:51.72Z</time></trkpt><trkpt lat="43.2312055" lon="12.5599489"><ele>642.0</ele><time>2026-04-16T08:43:52.719Z</time></trkpt><trkpt lat="43.2311297" lon="12.5599253"><ele>641.0</ele><time>2026-04-16T08:43:53.72Z</time></trkpt><trkpt lat="43.2310262" lon="12.5599036"><ele>640.0</ele><time>2026-04-16T08:43:55.719Z</time></trkpt><trkpt lat="43.2309186" lon="12.559891"><ele>639.0</ele><time>2026-04-16T08:43:57.72Z</time></trkpt><trkpt lat="43.230808" lon="12.5598969"><ele>639.0</ele><time>2026-04-16T08:43:59.72Z</time></trkpt><trkpt lat="43.2307124" lon="12.559937"><ele>639.0</ele><time>2026-04-16T08:44:01.719Z</time></trkpt><trkpt lat="43.2306344" lon="12.5600296"><ele>639.0</ele><time>2026-04-16T08:44:03.719Z</time></trkpt><trkpt lat="43.2305546" lon="12.5601086"><ele>639.0</ele><time>2026-04-16T08:44:05.719Z</time></trkpt><trkpt lat="43.2305107" lon="12.5601821"><ele>639.0</ele><time>2026-04-16T08:44:06.719Z</time></trkpt><trkpt lat="43.2304547" lon="12.5603402"><ele>637.5</ele><time>2026-04-16T08:44:08.719Z</time></trkpt><trkpt lat="43.23039" lon="12.5604764"><ele>636.0</ele><time>2026-04-16T08:44:10.719Z</time></trkpt><trkpt lat="43.230358" lon="12.5605565"><ele>634.5</ele><time>2026-04-16T08:44:11.72Z</time></trkpt><trkpt lat="43.2303405" lon="12.5606506"><ele>633.0</ele><time>2026-04-16T08:44:12.72Z</time></trkpt><trkpt lat="43.2303018" lon="12.5607377"><ele>631.5</ele><time>2026-04-16T08:44:13.72Z</time></trkpt><trkpt lat="43.2302748" lon="12.5608191"><ele>630.0</ele><time>2026-04-16T08:44:14.72Z</time></trkpt><trkpt lat="43.2302397" lon="12.5609295"><ele>630.0</ele><time>2026-04-16T08:44:15.72Z</time></trkpt><trkpt lat="43.2302193" lon="12.5610221"><ele>630.0</ele><time>2026-04-16T08:44:16.719Z</time></trkpt><trkpt lat="43.230181" lon="12.5611831"><ele>630.0</ele><time>2026-04-16T08:44:18.72Z</time></trkpt><trkpt lat="43.2301495" lon="12.5612814"><ele>630.0</ele><time>2026-04-16T08:44:19.72Z</time></trkpt><trkpt lat="43.2301192" lon="12.5614745"><ele>630.0</ele><time>2026-04-16T08:44:21.72Z</time></trkpt><trkpt lat="43.2300802" lon="12.5615479"><ele>629.3333333333334</ele><time>2026-04-16T08:44:22.72Z</time></trkpt><trkpt lat="43.2300445" lon="12.5616353"><ele>628.6666666666666</ele><time>2026-04-16T08:44:23.72Z</time></trkpt><trkpt lat="43.2300008" lon="12.5617041"><ele>628.0</ele><time>2026-04-16T08:44:24.719Z</time></trkpt><trkpt lat="43.2299576" lon="12.5617699"><ele>627.3333333333333</ele><time>2026-04-16T08:44:25.719Z</time></trkpt><trkpt lat="43.2298256" lon="12.5617809"><ele>626.6666666666666</ele><time>2026-04-16T08:44:26.719Z</time></trkpt><trkpt lat="43.2297333" lon="12.5618162"><ele>626.0</ele><time>2026-04-16T08:44:27.719Z</time></trkpt><trkpt lat="43.2296592" lon="12.5618469"><ele>626.0</ele><time>2026-04-16T08:44:28.718Z</time></trkpt><trkpt lat="43.2295392" lon="12.5618739"><ele>626.0</ele><time>2026-04-16T08:44:30.72Z</time></trkpt><trkpt lat="43.229505" lon="12.5619813"><ele>626.0</ele><time>2026-04-16T08:44:32.72Z</time></trkpt><trkpt lat="43.2295787" lon="12.5620926"><ele>626.0</ele><time>2026-04-16T08:44:34.72Z</time></trkpt><trkpt lat="43.2296585" lon="12.5621172"><ele>626.0</ele><time>2026-04-16T08:44:35.72Z</time></trkpt><trkpt lat="43.2297211" lon="12.5621535"><ele>621.5</ele><time>2026-04-16T08:44:36.719Z</time></trkpt><trkpt lat="43.2298498" lon="12.5621878"><ele>617.0</ele><time>2026-04-16T08:44:37.72Z</time></trkpt><trkpt lat="43.2299605" lon="12.5622354"><ele>612.5</ele><time>2026-04-16T08:44:38.72Z</time></trkpt><trkpt lat="43.2300543" lon="12.5622831"><ele>608.0</ele><time>2026-04-16T08:44:39.72Z</time></trkpt><trkpt lat="43.2301653" lon="12.5623036"><ele>608.0</ele><time>2026-04-16T08:44:40.72Z</time></trkpt><trkpt lat="43.2302581" lon="12.5623396"><ele>608.0</ele><time>2026-04-16T08:44:41.719Z</time></trkpt><trkpt lat="43.2303486" lon="12.562363"><ele>608.0</ele><time>2026-04-16T08:44:42.72Z</time></trkpt><trkpt lat="43.2304314" lon="12.5623963"><ele>608.0</ele><time>2026-04-16T08:44:43.72Z</time></trkpt><trkpt lat="43.2304871" lon="12.5624453"><ele>608.0</ele><time>2026-04-16T08:44:44.72Z</time></trkpt><trkpt lat="43.2305195" lon="12.5625292"><ele>608.0</ele><time>2026-04-16T08:44:45.72Z</time></trkpt><trkpt lat="43.2305507" lon="12.5627227"><ele>608.0</ele><time>2026-04-16T08:44:47.72Z</time></trkpt><trkpt lat="43.2305902" lon="12.5628282"><ele>608.0</ele><time>2026-04-16T08:44:48.72Z</time></trkpt><trkpt lat="43.2306823" lon="12.5629139"><ele>608.0</ele><time>2026-04-16T08:44:49.72Z</time></trkpt><trkpt lat="43.230755" lon="12.5630222"><ele>608.0</ele><time>2026-04-16T08:44:50.719Z</time></trkpt><trkpt lat="43.2308965" lon="12.563123"><ele>606.6666666666666</ele><time>2026-04-16T08:44:51.72Z</time></trkpt><trkpt lat="43.2310443" lon="12.5632369"><ele>605.3333333333334</ele><time>2026-04-16T08:44:52.72Z</time></trkpt><trkpt lat="43.231176" lon="12.563367"><ele>604.0</ele><time>2026-04-16T08:44:53.719Z</time></trkpt><trkpt lat="43.2313115" lon="12.5634853"><ele>604.0</ele><time>2026-04-16T08:44:54.72Z</time></trkpt><trkpt lat="43.2314496" lon="12.5635976"><ele>604.0</ele><time>2026-04-16T08:44:55.72Z</time></trkpt><trkpt lat="43.231504" lon="12.5636457"><ele>604.0</ele><time>2026-04-16T08:44:56.72Z</time></trkpt><trkpt lat="43.2315915" lon="12.5637381"><ele>604.0</ele><time>2026-04-16T08:44:57.72Z</time></trkpt><trkpt lat="43.231679" lon="12.5638131"><ele>604.0</ele><time>2026-04-16T08:44:58.72Z</time></trkpt><trkpt lat="43.2317532" lon="12.5638913"><ele>601.6</ele><time>2026-04-16T08:44:59.72Z</time></trkpt><trkpt lat="43.231844" lon="12.5639674"><ele>599.2</ele><time>2026-04-16T08:45:00.72Z</time></trkpt><trkpt lat="43.2318731" lon="12.5640919"><ele>596.8000000000001</ele><time>2026-04-16T08:45:01.719Z</time></trkpt><trkpt lat="43.2319433" lon="12.5641852"><ele>594.4</ele><time>2026-04-16T08:45:02.72Z</time></trkpt><trkpt lat="43.2320113" lon="12.5642584"><ele>592.0</ele><time>2026-04-16T08:45:03.719Z</time></trkpt><trkpt lat="43.232049" lon="12.564359"><ele>592.0</ele><time>2026-04-16T08:45:04.72Z</time></trkpt><trkpt lat="43.2320219" lon="12.5644513"><ele>592.0</ele><time>2026-04-16T08:45:05.72Z</time></trkpt><trkpt lat="43.2320361" lon="12.564542"><ele>592.0</ele><time>2026-04-16T08:45:06.72Z</time></trkpt><trkpt lat="43.232095" lon="12.5646039"><ele>592.0</ele><time>2026-04-16T08:45:07.72Z</time></trkpt><trkpt lat="43.2321821" lon="12.564695"><ele>592.0</ele><time>2026-04-16T08:45:09.72Z</time></trkpt><trkpt lat="43.2322688" lon="12.5647433"><ele>592.0</ele><time>2026-04-16T08:45:11.72Z</time></trkpt><trkpt lat="43.2322167" lon="12.5646819"><ele>589.6</ele><time>2026-04-16T08:45:21.719Z</time></trkpt><trkpt lat="43.2321518" lon="12.5646739"><ele>587.2</ele><time>2026-04-16T08:45:22.719Z</time></trkpt><trkpt lat="43.2320247" lon="12.5646354"><ele>584.8</ele><time>2026-04-16T08:45:24.719Z</time></trkpt><trkpt lat="43.2319566" lon="12.5646126"><ele>582.4</ele><time>2026-04-16T08:45:25.72Z</time></trkpt><trkpt lat="43.2318696" lon="12.5645924"><ele>580.0</ele><time>2026-04-16T08:45:26.72Z</time></trkpt><trkpt lat="43.2317502" lon="12.5645419"><ele>582.4</ele><time>2026-04-16T08:45:27.719Z</time></trkpt><trkpt lat="43.231657" lon="12.5645011"><ele>584.8</ele><time>2026-04-16T08:45:28.72Z</time></trkpt><trkpt lat="43.2315502" lon="12.564437"><ele>587.2</ele><time>2026-04-16T08:45:29.719Z</time></trkpt><trkpt lat="43.2314439" lon="12.5644046"><ele>589.6</ele><time>2026-04-16T08:45:30.719Z</time></trkpt><trkpt lat="43.2313423" lon="12.5643724"><ele>592.0</ele><time>2026-04-16T08:45:31.72Z</time></trkpt><trkpt lat="43.2312338" lon="12.5643239"><ele>592.0</ele><time>2026-04-16T08:45:33.719Z</time></trkpt><trkpt lat="43.2312676" lon="12.5642505"><ele>592.0</ele><time>2026-04-16T08:45:36.72Z</time></trkpt><trkpt lat="43.2313674" lon="12.5642558"><ele>592.0</ele><time>2026-04-16T08:45:38.718Z</time></trkpt><trkpt lat="43.2315065" lon="12.5642796"><ele>592.0</ele><time>2026-04-16T08:45:39.72Z</time></trkpt><trkpt lat="43.2316059" lon="12.5642913"><ele>592.0</ele><time>2026-04-16T08:45:40.72Z</time></trkpt><trkpt lat="43.2316665" lon="12.564253"><ele>592.0</ele><time>2026-04-16T08:45:41.72Z</time></trkpt><trkpt lat="43.2316689" lon="12.5641509"><ele>592.0</ele><time>2026-04-16T08:45:43.72Z</time></trkpt><trkpt lat="43.2315741" lon="12.5640128"><ele>592.0</ele><time>2026-04-16T08:45:45.718Z</time></trkpt><trkpt lat="43.2314897" lon="12.5639498"><ele>592.0</ele><time>2026-04-16T08:45:46.72Z</time></trkpt><trkpt lat="43.2314118" lon="12.5638661"><ele>592.0</ele><time>2026-04-16T08:45:47.719Z</time></trkpt><trkpt lat="43.2313122" lon="12.5637429"><ele>595.0</ele><time>2026-04-16T08:45:48.72Z</time></trkpt><trkpt lat="43.2311965" lon="12.5636728"><ele>598.0</ele><time>2026-04-16T08:45:49.719Z</time></trkpt><trkpt lat="43.2310817" lon="12.5636183"><ele>601.0</ele><time>2026-04-16T08:45:50.72Z</time></trkpt><trkpt lat="43.2309656" lon="12.563579"><ele>604.0</ele><time>2026-04-16T08:45:51.72Z</time></trkpt><trkpt lat="43.2308559" lon="12.5635853"><ele>604.0</ele><time>2026-04-16T08:45:52.72Z</time></trkpt><trkpt lat="43.2307367" lon="12.5636263"><ele>604.0</ele><time>2026-04-16T08:45:53.719Z</time></trkpt><trkpt lat="43.2306138" lon="12.5636917"><ele>604.0</ele><time>2026-04-16T08:45:54.719Z</time></trkpt><trkpt lat="43.2304909" lon="12.5637666"><ele>604.0</ele><time>2026-04-16T08:45:55.72Z</time></trkpt><trkpt lat="43.2303657" lon="12.5638255"><ele>606.4</ele><time>2026-04-16T08:45:56.719Z</time></trkpt><trkpt lat="43.2302572" lon="12.5638909"><ele>608.8</ele><time>2026-04-16T08:45:57.72Z</time></trkpt><trkpt lat="43.2301582" lon="12.563937"><ele>611.2</ele><time>2026-04-16T08:45:58.72Z</time></trkpt><trkpt lat="43.2300176" lon="12.5639762"><ele>613.6</ele><time>2026-04-16T08:46:00.72Z</time></trkpt><trkpt lat="43.2299359" lon="12.563989"><ele>616.0</ele><time>2026-04-16T08:46:01.72Z</time></trkpt><trkpt lat="43.2298237" lon="12.5639734"><ele>619.2</ele><time>2026-04-16T08:46:03.72Z</time></trkpt><trkpt lat="43.22975" lon="12.5639514"><ele>622.4000000000001</ele><time>2026-04-16T08:46:04.72Z</time></trkpt><trkpt lat="43.2296738" lon="12.5639465"><ele>625.6</ele><time>2026-04-16T08:46:05.72Z</time></trkpt><trkpt lat="43.2295707" lon="12.5639135"><ele>628.8000000000001</ele><time>2026-04-16T08:46:06.719Z</time></trkpt><trkpt lat="43.2294564" lon="12.5638752"><ele>632.0</ele><time>2026-04-16T08:46:07.72Z</time></trkpt><trkpt lat="43.2293417" lon="12.5638468"><ele>632.0</ele><time>2026-04-16T08:46:08.719Z</time></trkpt><trkpt lat="43.2292297" lon="12.5638114"><ele>632.0</ele><time>2026-04-16T08:46:09.719Z</time></trkpt><trkpt lat="43.2290922" lon="12.5637763"><ele>632.0</ele><time>2026-04-16T08:46:10.72Z</time></trkpt><trkpt lat="43.2289507" lon="12.5637136"><ele>632.0</ele><time>2026-04-16T08:46:11.72Z</time></trkpt><trkpt lat="43.2288235" lon="12.5636811"><ele>633.4</ele><time>2026-04-16T08:46:12.72Z</time></trkpt><trkpt lat="43.2286939" lon="12.563639"><ele>634.8000000000001</ele><time>2026-04-16T08:46:13.72Z</time></trkpt><trkpt lat="43.2285996" lon="12.5636163"><ele>636.2</ele><time>2026-04-16T08:46:14.719Z</time></trkpt><trkpt lat="43.2285115" lon="12.5636105"><ele>637.6</ele><time>2026-04-16T08:46:15.719Z</time></trkpt><trkpt lat="43.2284285" lon="12.5635363"><ele>639.0</ele><time>2026-04-16T08:46:18.72Z</time></trkpt><trkpt lat="43.2282962" lon="12.5634575"><ele>639.0</ele><time>2026-04-16T08:46:20.72Z</time></trkpt><trkpt lat="43.2282179" lon="12.5634221"><ele>639.0</ele><time>2026-04-16T08:46:21.72Z</time></trkpt><trkpt lat="43.2281335" lon="12.563391"><ele>639.0</ele><time>2026-04-16T08:46:22.72Z</time></trkpt><trkpt lat="43.2280529" lon="12.5633488"><ele>639.0</ele><time>2026-04-16T08:46:23.72Z</time></trkpt><trkpt lat="43.2279607" lon="12.5633147"><ele>639.0</ele><time>2026-04-16T08:46:24.72Z</time></trkpt><trkpt lat="43.2278327" lon="12.5632817"><ele>640.25</ele><time>2026-04-16T08:46:25.72Z</time></trkpt><trkpt lat="43.2276944" lon="12.5632303"><ele>641.5</ele><time>2026-04-16T08:46:26.72Z</time></trkpt><trkpt lat="43.2275632" lon="12.5631948"><ele>642.75</ele><time>2026-04-16T08:46:27.72Z</time></trkpt><trkpt lat="43.2274566" lon="12.5631594"><ele>644.0</ele><time>2026-04-16T08:46:28.719Z</time></trkpt><trkpt lat="43.2273669" lon="12.5631157"><ele>645.6666666666666</ele><time>2026-04-16T08:46:29.72Z</time></trkpt><trkpt lat="43.2272928" lon="12.5630781"><ele>647.3333333333333</ele><time>2026-04-16T08:46:30.72Z</time></trkpt><trkpt lat="43.2272214" lon="12.5630465"><ele>649.0</ele><time>2026-04-16T08:46:31.72Z</time></trkpt><trkpt lat="43.227144" lon="12.5631415"><ele>650.6666666666666</ele><time>2026-04-16T08:46:34.72Z</time></trkpt><trkpt lat="43.2270998" lon="12.563221"><ele>652.3333333333334</ele><time>2026-04-16T08:46:35.719Z</time></trkpt><trkpt lat="43.2270463" lon="12.5633248"><ele>654.0</ele><time>2026-04-16T08:46:36.72Z</time></trkpt><trkpt lat="43.2269832" lon="12.5634183"><ele>654.0</ele><time>2026-04-16T08:46:37.72Z</time></trkpt><trkpt lat="43.2269036" lon="12.5635916"><ele>654.0</ele><time>2026-04-16T08:46:38.72Z</time></trkpt><trkpt lat="43.2268157" lon="12.5637283"><ele>654.0</ele><time>2026-04-16T08:46:39.72Z</time></trkpt><trkpt lat="43.2267235" lon="12.5638739"><ele>654.0</ele><time>2026-04-16T08:46:40.719Z</time></trkpt><trkpt lat="43.2266258" lon="12.5640271"><ele>652.75</ele><time>2026-04-16T08:46:41.719Z</time></trkpt><trkpt lat="43.2265414" lon="12.5641695"><ele>651.5</ele><time>2026-04-16T08:46:42.72Z</time></trkpt><trkpt lat="43.2264574" lon="12.5643112"><ele>650.25</ele><time>2026-04-16T08:46:43.72Z</time></trkpt><trkpt lat="43.2263763" lon="12.5644504"><ele>649.0</ele><time>2026-04-16T08:46:44.719Z</time></trkpt><trkpt lat="43.2262903" lon="12.5645948"><ele>646.3333333333334</ele><time>2026-04-16T08:46:45.72Z</time></trkpt><trkpt lat="43.2262078" lon="12.5647211"><ele>643.6666666666666</ele><time>2026-04-16T08:46:46.72Z</time></trkpt><trkpt lat="43.2260771" lon="12.56487"><ele>641.0</ele><time>2026-04-16T08:46:47.72Z</time></trkpt><trkpt lat="43.2259438" lon="12.5649841"><ele>641.0</ele><time>2026-04-16T08:46:48.72Z</time></trkpt><trkpt lat="43.2258263" lon="12.565093"><ele>641.0</ele><time>2026-04-16T08:46:49.72Z</time></trkpt><trkpt lat="43.2257058" lon="12.5651979"><ele>641.0</ele><time>2026-04-16T08:46:50.72Z</time></trkpt><trkpt lat="43.2255953" lon="12.5652787"><ele>641.0</ele><time>2026-04-16T08:46:51.719Z</time></trkpt><trkpt lat="43.2254791" lon="12.5653427"><ele>640.25</ele><time>2026-04-16T08:46:52.72Z</time></trkpt><trkpt lat="43.2253638" lon="12.5653614"><ele>639.5</ele><time>2026-04-16T08:46:53.72Z</time></trkpt><trkpt lat="43.2252311" lon="12.5653277"><ele>638.75</ele><time>2026-04-16T08:46:54.72Z</time></trkpt><trkpt lat="43.2251229" lon="12.5652296"><ele>638.0</ele><time>2026-04-16T08:46:55.72Z</time></trkpt><trkpt lat="43.22496" lon="12.5651817"><ele>638.0</ele><time>2026-04-16T08:46:56.72Z</time></trkpt><trkpt lat="43.2248282" lon="12.5651274"><ele>638.0</ele><time>2026-04-16T08:46:57.72Z</time></trkpt><trkpt lat="43.2247659" lon="12.5649581"><ele>638.0</ele><time>2026-04-16T08:46:58.719Z</time></trkpt><trkpt lat="43.2246423" lon="12.5651059"><ele>638.0</ele><time>2026-04-16T08:46:59.72Z</time></trkpt><trkpt lat="43.22453" lon="12.5651366"><ele>636.0</ele><time>2026-04-16T08:47:00.72Z</time></trkpt><trkpt lat="43.2244182" lon="12.5652781"><ele>634.0</ele><time>2026-04-16T08:47:01.72Z</time></trkpt><trkpt lat="43.2243571" lon="12.5654027"><ele>632.0</ele><time>2026-04-16T08:47:02.72Z</time></trkpt><trkpt lat="43.2242775" lon="12.5655847"><ele>630.0</ele><time>2026-04-16T08:47:03.72Z</time></trkpt><trkpt lat="43.2241989" lon="12.5657721"><ele>628.5</ele><time>2026-04-16T08:47:04.719Z</time></trkpt><trkpt lat="43.2241401" lon="12.5659485"><ele>627.0</ele><time>2026-04-16T08:47:05.72Z</time></trkpt><trkpt lat="43.2240728" lon="12.5661065"><ele>625.5</ele><time>2026-04-16T08:47:06.72Z</time></trkpt><trkpt lat="43.2239933" lon="12.5662592"><ele>624.0</ele><time>2026-04-16T08:47:07.72Z</time></trkpt><trkpt lat="43.2239034" lon="12.5663961"><ele>624.0</ele><time>2026-04-16T08:47:08.718Z</time></trkpt><trkpt lat="43.223795" lon="12.5665339"><ele>624.0</ele><time>2026-04-16T08:47:09.72Z</time></trkpt><trkpt lat="43.2236967" lon="12.5666668"><ele>624.0</ele><time>2026-04-16T08:47:10.718Z</time></trkpt><trkpt lat="43.223592" lon="12.5668004"><ele>624.0</ele><time>2026-04-16T08:47:11.721Z</time></trkpt><trkpt lat="43.2234772" lon="12.5669297"><ele>622.0</ele><time>2026-04-16T08:47:12.72Z</time></trkpt><trkpt lat="43.2233639" lon="12.5670613"><ele>620.0</ele><time>2026-04-16T08:47:13.719Z</time></trkpt><trkpt lat="43.2232632" lon="12.5671809"><ele>618.0</ele><time>2026-04-16T08:47:14.721Z</time></trkpt><trkpt lat="43.2231561" lon="12.5672973"><ele>616.0</ele><time>2026-04-16T08:47:15.72Z</time></trkpt><trkpt lat="43.2230358" lon="12.5672715"><ele>614.5</ele><time>2026-04-16T08:47:16.72Z</time></trkpt><trkpt lat="43.222908" lon="12.5673"><ele>613.0</ele><time>2026-04-16T08:47:17.719Z</time></trkpt><trkpt lat="43.2227884" lon="12.5672253"><ele>611.5</ele><time>2026-04-16T08:47:18.719Z</time></trkpt><trkpt lat="43.2226529" lon="12.56717"><ele>610.0</ele><time>2026-04-16T08:47:19.719Z</time></trkpt><trkpt lat="43.2225216" lon="12.5671169"><ele>611.0</ele><time>2026-04-16T08:47:20.72Z</time></trkpt><trkpt lat="43.2224627" lon="12.5669927"><ele>612.0</ele><time>2026-04-16T08:47:21.721Z</time></trkpt><trkpt lat="43.2224266" lon="12.5668637"><ele>613.0</ele><time>2026-04-16T08:47:22.72Z</time></trkpt><trkpt lat="43.2223589" lon="12.5667958"><ele>614.0</ele><time>2026-04-16T08:47:23.719Z</time></trkpt><trkpt lat="43.2223012" lon="12.5667343"><ele>615.0</ele><time>2026-04-16T08:47:24.719Z</time></trkpt><trkpt lat="43.2223294" lon="12.5666245"><ele>615.0</ele><time>2026-04-16T08:47:26.72Z</time></trkpt><trkpt lat="43.2223452" lon="12.5665176"><ele>615.0</ele><time>2026-04-16T08:47:27.719Z</time></trkpt><trkpt lat="43.2223485" lon="12.5664278"><ele>615.0</ele><time>2026-04-16T08:47:28.719Z</time></trkpt><trkpt lat="43.2222969" lon="12.5663487"><ele>615.0</ele><time>2026-04-16T08:47:29.721Z</time></trkpt><trkpt lat="43.2221797" lon="12.5662795"><ele>615.0</ele><time>2026-04-16T08:47:31.72Z</time></trkpt><trkpt lat="43.2221114" lon="12.5662859"><ele>615.0</ele><time>2026-04-16T08:47:32.719Z</time></trkpt><trkpt lat="43.2220466" lon="12.566275"><ele>612.6</ele><time>2026-04-16T08:47:33.719Z</time></trkpt><trkpt lat="43.221971" lon="12.5662688"><ele>610.2</ele><time>2026-04-16T08:47:35.718Z</time></trkpt><trkpt lat="43.2218942" lon="12.5663103"><ele>607.8</ele><time>2026-04-16T08:47:38.719Z</time></trkpt><trkpt lat="43.2218883" lon="12.5664207"><ele>605.4</ele><time>2026-04-16T08:47:41.719Z</time></trkpt><trkpt lat="43.2219154" lon="12.5665369"><ele>603.0</ele><time>2026-04-16T08:47:43.72Z</time></trkpt><trkpt lat="43.2219319" lon="12.5667177"><ele>603.0</ele><time>2026-04-16T08:47:45.72Z</time></trkpt><trkpt lat="43.2219415" lon="12.5668132"><ele>603.0</ele><time>2026-04-16T08:47:46.72Z</time></trkpt><trkpt lat="43.2219223" lon="12.5669119"><ele>603.0</ele><time>2026-04-16T08:47:47.72Z</time></trkpt><trkpt lat="43.2219343" lon="12.5670303"><ele>603.0</ele><time>2026-04-16T08:47:48.72Z</time></trkpt><trkpt lat="43.2219191" lon="12.5671428"><ele>603.0</ele><time>2026-04-16T08:47:49.719Z</time></trkpt><trkpt lat="43.2219286" lon="12.5672457"><ele>603.0</ele><time>2026-04-16T08:47:50.721Z</time></trkpt><trkpt lat="43.2219273" lon="12.5673677"><ele>600.4</ele><time>2026-04-16T08:47:51.719Z</time></trkpt><trkpt lat="43.2219143" lon="12.5675046"><ele>597.8</ele><time>2026-04-16T08:47:53.72Z</time></trkpt><trkpt lat="43.2219274" lon="12.5676034"><ele>595.2</ele><time>2026-04-16T08:47:54.72Z</time></trkpt><trkpt lat="43.2220065" lon="12.5677366"><ele>592.6</ele><time>2026-04-16T08:47:56.72Z</time></trkpt><trkpt lat="43.2220613" lon="12.5677821"><ele>590.0</ele><time>2026-04-16T08:47:57.719Z</time></trkpt><trkpt lat="43.2221653" lon="12.5679074"><ele>590.6</ele><time>2026-04-16T08:47:59.719Z</time></trkpt><trkpt lat="43.2222594" lon="12.5680198"><ele>591.2</ele><time>2026-04-16T08:48:01.72Z</time></trkpt><trkpt lat="43.2222869" lon="12.5680995"><ele>591.8</ele><time>2026-04-16T08:48:02.719Z</time></trkpt><trkpt lat="43.2223713" lon="12.5682356"><ele>592.4</ele><time>2026-04-16T08:48:04.72Z</time></trkpt><trkpt lat="43.2224247" lon="12.5683101"><ele>593.0</ele><time>2026-04-16T08:48:05.72Z</time></trkpt><trkpt lat="43.2224677" lon="12.5683843"><ele>593.0</ele><time>2026-04-16T08:48:06.719Z</time></trkpt><trkpt lat="43.2225438" lon="12.5684418"><ele>593.0</ele><time>2026-04-16T08:48:07.72Z</time></trkpt><trkpt lat="43.2226188" lon="12.5685034"><ele>593.0</ele><time>2026-04-16T08:48:08.72Z</time></trkpt><trkpt lat="43.2226809" lon="12.5685679"><ele>593.0</ele><time>2026-04-16T08:48:09.719Z</time></trkpt><trkpt lat="43.222742" lon="12.5686326"><ele>593.0</ele><time>2026-04-16T08:48:10.719Z</time></trkpt><trkpt lat="43.2228063" lon="12.5686835"><ele>593.0</ele><time>2026-04-16T08:48:11.719Z</time></trkpt><trkpt lat="43.2228478" lon="12.5687668"><ele>588.6</ele><time>2026-04-16T08:48:12.72Z</time></trkpt><trkpt lat="43.2228961" lon="12.5688786"><ele>584.1999999999999</ele><time>2026-04-16T08:48:13.72Z</time></trkpt><trkpt lat="43.2229288" lon="12.5689984"><ele>579.8</ele><time>2026-04-16T08:48:14.719Z</time></trkpt><trkpt lat="43.2229623" lon="12.5691207"><ele>575.4</ele><time>2026-04-16T08:48:15.72Z</time></trkpt><trkpt lat="43.22298" lon="12.5692563"><ele>571.0</ele><time>2026-04-16T08:48:16.721Z</time></trkpt><trkpt lat="43.2230119" lon="12.569384"><ele>571.0</ele><time>2026-04-16T08:48:17.719Z</time></trkpt><trkpt lat="43.2230313" lon="12.5695069"><ele>571.0</ele><time>2026-04-16T08:48:18.72Z</time></trkpt><trkpt lat="43.2230909" lon="12.5695815"><ele>571.0</ele><time>2026-04-16T08:48:19.72Z</time></trkpt><trkpt lat="43.2231579" lon="12.5697347"><ele>571.0</ele><time>2026-04-16T08:48:21.72Z</time></trkpt><trkpt lat="43.223211" lon="12.5698244"><ele>571.0</ele><time>2026-04-16T08:48:22.72Z</time></trkpt><trkpt lat="43.2232555" lon="12.5699245"><ele>572.0</ele><time>2026-04-16T08:48:23.72Z</time></trkpt><trkpt lat="43.2233354" lon="12.5700156"><ele>573.0</ele><time>2026-04-16T08:48:24.72Z</time></trkpt><trkpt lat="43.2233962" lon="12.5701235"><ele>574.0</ele><time>2026-04-16T08:48:25.719Z</time></trkpt><trkpt lat="43.2234358" lon="12.5702271"><ele>575.0</ele><time>2026-04-16T08:48:26.72Z</time></trkpt><trkpt lat="43.2234838" lon="12.5703467"><ele>576.0</ele><time>2026-04-16T08:48:27.72Z</time></trkpt><trkpt lat="43.2235486" lon="12.5704043"><ele>573.3333333333334</ele><time>2026-04-16T08:48:28.72Z</time></trkpt><trkpt lat="43.2235764" lon="12.5704992"><ele>570.6666666666666</ele><time>2026-04-16T08:48:29.719Z</time></trkpt><trkpt lat="43.2236468" lon="12.5705824"><ele>568.0</ele><time>2026-04-16T08:48:31.719Z</time></trkpt><trkpt lat="43.2237042" lon="12.5706323"><ele>565.3333333333333</ele><time>2026-04-16T08:48:32.719Z</time></trkpt><trkpt lat="43.223763" lon="12.5706645"><ele>562.6666666666666</ele><time>2026-04-16T08:48:33.72Z</time></trkpt><trkpt lat="43.2238618" lon="12.5706859"><ele>560.0</ele><time>2026-04-16T08:48:34.72Z</time></trkpt><trkpt lat="43.223947" lon="12.5707124"><ele>560.6666666666666</ele><time>2026-04-16T08:48:35.72Z</time></trkpt><trkpt lat="43.2240192" lon="12.5707901"><ele>561.3333333333333</ele><time>2026-04-16T08:48:36.72Z</time></trkpt><trkpt lat="43.224113" lon="12.5708476"><ele>562.0</ele><time>2026-04-16T08:48:37.72Z</time></trkpt><trkpt lat="43.2241795" lon="12.5708826"><ele>562.6666666666666</ele><time>2026-04-16T08:48:38.719Z</time></trkpt><trkpt lat="43.2242877" lon="12.5708904"><ele>563.3333333333334</ele><time>2026-04-16T08:48:40.72Z</time></trkpt><trkpt lat="43.2243385" lon="12.5708234"><ele>564.0</ele><time>2026-04-16T08:48:41.72Z</time></trkpt><trkpt lat="43.2243953" lon="12.5706541"><ele>564.0</ele><time>2026-04-16T08:48:43.72Z</time></trkpt><trkpt lat="43.2244147" lon="12.5705416"><ele>564.0</ele><time>2026-04-16T08:48:44.72Z</time></trkpt><trkpt lat="43.2244385" lon="12.5704237"><ele>564.0</ele><time>2026-04-16T08:48:45.72Z</time></trkpt><trkpt lat="43.2244618" lon="12.5703161"><ele>564.0</ele><time>2026-04-16T08:48:46.721Z</time></trkpt><trkpt lat="43.2245549" lon="12.570468"><ele>564.0</ele><time>2026-04-16T08:48:53.719Z</time></trkpt><trkpt lat="43.2245726" lon="12.570613"><ele>564.0</ele><time>2026-04-16T08:48:54.72Z</time></trkpt><trkpt lat="43.2245913" lon="12.5707357"><ele>564.0</ele><time>2026-04-16T08:48:55.72Z</time></trkpt><trkpt lat="43.2246014" lon="12.570896"><ele>564.0</ele><time>2026-04-16T08:48:56.721Z</time></trkpt><trkpt lat="43.2246221" lon="12.5710345"><ele>564.0</ele><time>2026-04-16T08:48:57.721Z</time></trkpt><trkpt lat="43.2246559" lon="12.5711818"><ele>564.0</ele><time>2026-04-16T08:48:58.721Z</time></trkpt><trkpt lat="43.2246769" lon="12.5713043"><ele>561.0</ele><time>2026-04-16T08:48:59.719Z</time></trkpt><trkpt lat="43.2247211" lon="12.571427"><ele>558.0</ele><time>2026-04-16T08:49:00.721Z</time></trkpt><trkpt lat="43.2247582" lon="12.5715456"><ele>555.0</ele><time>2026-04-16T08:49:01.72Z</time></trkpt><trkpt lat="43.2248048" lon="12.5716534"><ele>552.0</ele><time>2026-04-16T08:49:02.719Z</time></trkpt><trkpt lat="43.2248818" lon="12.5717413"><ele>549.0</ele><time>2026-04-16T08:49:03.72Z</time></trkpt><trkpt lat="43.224966" lon="12.5718493"><ele>549.0</ele><time>2026-04-16T08:49:04.719Z</time></trkpt><trkpt lat="43.2250378" lon="12.5719594"><ele>549.0</ele><time>2026-04-16T08:49:05.719Z</time></trkpt><trkpt lat="43.2251275" lon="12.572063"><ele>549.0</ele><time>2026-04-16T08:49:06.721Z</time></trkpt><trkpt lat="43.2252103" lon="12.5721514"><ele>549.0</ele><time>2026-04-16T08:49:07.719Z</time></trkpt><trkpt lat="43.2252901" lon="12.5722582"><ele>549.0</ele><time>2026-04-16T08:49:08.72Z</time></trkpt><trkpt lat="43.2253756" lon="12.5724039"><ele>548.8</ele><time>2026-04-16T08:49:09.72Z</time></trkpt><trkpt lat="43.2254535" lon="12.5725294"><ele>548.5999999999999</ele><time>2026-04-16T08:49:10.72Z</time></trkpt><trkpt lat="43.2255309" lon="12.5726523"><ele>548.4</ele><time>2026-04-16T08:49:11.721Z</time></trkpt><trkpt lat="43.2255876" lon="12.5727559"><ele>548.1999999999999</ele><time>2026-04-16T08:49:12.72Z</time></trkpt><trkpt lat="43.2256464" lon="12.572876"><ele>548.0</ele><time>2026-04-16T08:49:13.721Z</time></trkpt><trkpt lat="43.2257204" lon="12.573004"><ele>548.0</ele><time>2026-04-16T08:49:15.72Z</time></trkpt><trkpt lat="43.2257585" lon="12.573103"><ele>548.0</ele><time>2026-04-16T08:49:16.719Z</time></trkpt><trkpt lat="43.2257404" lon="12.5731896"><ele>548.0</ele><time>2026-04-16T08:49:17.719Z</time></trkpt><trkpt lat="43.2257077" lon="12.5732673"><ele>548.0</ele><time>2026-04-16T08:49:18.72Z</time></trkpt><trkpt lat="43.2256603" lon="12.5735122"><ele>548.0</ele><time>2026-04-16T08:49:20.72Z</time></trkpt><trkpt lat="43.2256435" lon="12.57362"><ele>549.5</ele><time>2026-04-16T08:49:21.718Z</time></trkpt><trkpt lat="43.2256111" lon="12.5737324"><ele>551.0</ele><time>2026-04-16T08:49:22.719Z</time></trkpt><trkpt lat="43.2256024" lon="12.5738346"><ele>552.5</ele><time>2026-04-16T08:49:23.719Z</time></trkpt><trkpt lat="43.2255802" lon="12.5739562"><ele>554.0</ele><time>2026-04-16T08:49:24.72Z</time></trkpt><trkpt lat="43.2255859" lon="12.5740814"><ele>555.5</ele><time>2026-04-16T08:49:25.72Z</time></trkpt><trkpt lat="43.225596" lon="12.5742228"><ele>557.0</ele><time>2026-04-16T08:49:26.72Z</time></trkpt><trkpt lat="43.2256292" lon="12.5743345"><ele>555.1666666666666</ele><time>2026-04-16T08:49:27.719Z</time></trkpt><trkpt lat="43.2256705" lon="12.5744362"><ele>553.3333333333333</ele><time>2026-04-16T08:49:28.72Z</time></trkpt><trkpt lat="43.2257276" lon="12.5745243"><ele>551.5</ele><time>2026-04-16T08:49:29.72Z</time></trkpt><trkpt lat="43.2257946" lon="12.5746355"><ele>549.6666666666666</ele><time>2026-04-16T08:49:30.72Z</time></trkpt><trkpt lat="43.2258641" lon="12.574688"><ele>547.8333333333334</ele><time>2026-04-16T08:49:31.72Z</time></trkpt><trkpt lat="43.2259245" lon="12.5747509"><ele>546.0</ele><time>2026-04-16T08:49:32.719Z</time></trkpt><trkpt lat="43.2259899" lon="12.574825"><ele>546.0</ele><time>2026-04-16T08:49:33.719Z</time></trkpt><trkpt lat="43.2260601" lon="12.5748816"><ele>546.0</ele><time>2026-04-16T08:49:34.72Z</time></trkpt><trkpt lat="43.2261499" lon="12.5749449"><ele>546.0</ele><time>2026-04-16T08:49:35.72Z</time></trkpt><trkpt lat="43.2262167" lon="12.575115"><ele>546.0</ele><time>2026-04-16T08:49:37.72Z</time></trkpt><trkpt lat="43.2262217" lon="12.5752297"><ele>546.0</ele><time>2026-04-16T08:49:38.719Z</time></trkpt><trkpt lat="43.226222" lon="12.5753232"><ele>545.3333333333334</ele><time>2026-04-16T08:49:39.719Z</time></trkpt><trkpt lat="43.2262228" lon="12.5754203"><ele>544.6666666666666</ele><time>2026-04-16T08:49:40.72Z</time></trkpt><trkpt lat="43.2262098" lon="12.5755049"><ele>544.0</ele><time>2026-04-16T08:49:41.72Z</time></trkpt><trkpt lat="43.2261463" lon="12.5756626"><ele>543.3333333333333</ele><time>2026-04-16T08:49:43.72Z</time></trkpt><trkpt lat="43.2261139" lon="12.575758"><ele>542.6666666666666</ele><time>2026-04-16T08:49:44.72Z</time></trkpt><trkpt lat="43.2260909" lon="12.5758464"><ele>542.0</ele><time>2026-04-16T08:49:45.72Z</time></trkpt><trkpt lat="43.2260614" lon="12.5759501"><ele>542.0</ele><time>2026-04-16T08:49:46.719Z</time></trkpt><trkpt lat="43.2260459" lon="12.5760369"><ele>542.0</ele><time>2026-04-16T08:49:47.72Z</time></trkpt><trkpt lat="43.2260275" lon="12.576147"><ele>542.0</ele><time>2026-04-16T08:49:48.72Z</time></trkpt><trkpt lat="43.2260112" lon="12.5762662"><ele>542.0</ele><time>2026-04-16T08:49:49.719Z</time></trkpt><trkpt lat="43.2259776" lon="12.5763843"><ele>542.0</ele><time>2026-04-16T08:49:50.72Z</time></trkpt><trkpt lat="43.2259478" lon="12.5765082"><ele>542.0</ele><time>2026-04-16T08:49:51.719Z</time></trkpt><trkpt lat="43.2259289" lon="12.5766224"><ele>540.1666666666666</ele><time>2026-04-16T08:49:52.72Z</time></trkpt><trkpt lat="43.2259147" lon="12.5767149"><ele>538.3333333333333</ele><time>2026-04-16T08:49:53.72Z</time></trkpt><trkpt lat="43.2258984" lon="12.5768289"><ele>536.5</ele><time>2026-04-16T08:49:54.72Z</time></trkpt><trkpt lat="43.2258766" lon="12.5769446"><ele>534.6666666666666</ele><time>2026-04-16T08:49:55.719Z</time></trkpt><trkpt lat="43.2258601" lon="12.5770645"><ele>532.8333333333334</ele><time>2026-04-16T08:49:56.719Z</time></trkpt><trkpt lat="43.225855" lon="12.5771682"><ele>531.0</ele><time>2026-04-16T08:49:57.72Z</time></trkpt><trkpt lat="43.2258646" lon="12.5772728"><ele>529.0</ele><time>2026-04-16T08:49:58.718Z</time></trkpt><trkpt lat="43.2258688" lon="12.5773944"><ele>527.0</ele><time>2026-04-16T08:49:59.72Z</time></trkpt><trkpt lat="43.2258488" lon="12.577528"><ele>525.0</ele><time>2026-04-16T08:50:00.719Z</time></trkpt><trkpt lat="43.2258623" lon="12.5776379"><ele>523.0</ele><time>2026-04-16T08:50:01.72Z</time></trkpt><trkpt lat="43.2258345" lon="12.5777687"><ele>521.0</ele><time>2026-04-16T08:50:02.72Z</time></trkpt><trkpt lat="43.2258098" lon="12.5778879"><ele>518.8333333333333</ele><time>2026-04-16T08:50:03.72Z</time></trkpt><trkpt lat="43.2257813" lon="12.5780083"><ele>516.6666666666666</ele><time>2026-04-16T08:50:04.72Z</time></trkpt><trkpt lat="43.2257414" lon="12.5781082"><ele>514.5</ele><time>2026-04-16T08:50:05.72Z</time></trkpt><trkpt lat="43.2256977" lon="12.578182"><ele>512.3333333333334</ele><time>2026-04-16T08:50:06.719Z</time></trkpt><trkpt lat="43.225646" lon="12.5782497"><ele>510.1666666666667</ele><time>2026-04-16T08:50:07.718Z</time></trkpt><trkpt lat="43.225586" lon="12.5782947"><ele>508.0</ele><time>2026-04-16T08:50:08.719Z</time></trkpt><trkpt lat="43.225521" lon="12.5783201"><ele>507.83333333333337</ele><time>2026-04-16T08:50:09.719Z</time></trkpt><trkpt lat="43.2254364" lon="12.5783386"><ele>507.6666666666667</ele><time>2026-04-16T08:50:10.719Z</time></trkpt><trkpt lat="43.2253546" lon="12.5783519"><ele>507.5</ele><time>2026-04-16T08:50:11.72Z</time></trkpt><trkpt lat="43.2252724" lon="12.5783598"><ele>507.33333333333337</ele><time>2026-04-16T08:50:12.72Z</time></trkpt><trkpt lat="43.225201" lon="12.5783519"><ele>507.1666666666667</ele><time>2026-04-16T08:50:13.72Z</time></trkpt><trkpt lat="43.2251263" lon="12.5784352"><ele>507.0</ele><time>2026-04-16T08:50:15.72Z</time></trkpt><trkpt lat="43.2251151" lon="12.5785664"><ele>503.6</ele><time>2026-04-16T08:50:17.719Z</time></trkpt><trkpt lat="43.2251801" lon="12.5786863"><ele>500.20000000000005</ele><time>2026-04-16T08:50:19.721Z</time></trkpt><trkpt lat="43.2252453" lon="12.5787386"><ele>496.8</ele><time>2026-04-16T08:50:20.719Z</time></trkpt><trkpt lat="43.2253277" lon="12.5787818"><ele>493.4</ele><time>2026-04-16T08:50:21.72Z</time></trkpt><trkpt lat="43.2254154" lon="12.5788229"><ele>490.0</ele><time>2026-04-16T08:50:22.72Z</time></trkpt><trkpt lat="43.2255003" lon="12.5788651"><ele>490.00000000000006</ele><time>2026-04-16T08:50:23.72Z</time></trkpt><trkpt lat="43.2255819" lon="12.5789007"><ele>490.0</ele><time>2026-04-16T08:50:24.721Z</time></trkpt><trkpt lat="43.2256617" lon="12.5789342"><ele>490.0</ele><time>2026-04-16T08:50:25.719Z</time></trkpt><trkpt lat="43.2257416" lon="12.5789824"><ele>490.0</ele><time>2026-04-16T08:50:26.719Z</time></trkpt><trkpt lat="43.2258229" lon="12.5790228"><ele>490.00000000000006</ele><time>2026-04-16T08:50:27.72Z</time></trkpt><trkpt lat="43.2258892" lon="12.5790595"><ele>490.0</ele><time>2026-04-16T08:50:28.721Z</time></trkpt><trkpt lat="43.225976" lon="12.5790989"><ele>490.6666666666667</ele><time>2026-04-16T08:50:29.72Z</time></trkpt><trkpt lat="43.2260592" lon="12.5791205"><ele>491.33333333333337</ele><time>2026-04-16T08:50:30.721Z</time></trkpt><trkpt lat="43.226134" lon="12.5791671"><ele>492.0</ele><time>2026-04-16T08:50:31.72Z</time></trkpt><trkpt lat="43.2262162" lon="12.5792186"><ele>492.66666666666663</ele><time>2026-04-16T08:50:32.721Z</time></trkpt><trkpt lat="43.2262983" lon="12.5792583"><ele>493.3333333333333</ele><time>2026-04-16T08:50:33.72Z</time></trkpt><trkpt lat="43.2263765" lon="12.5792895"><ele>494.0</ele><time>2026-04-16T08:50:34.72Z</time></trkpt><trkpt lat="43.2264596" lon="12.5793278"><ele>492.99999999999994</ele><time>2026-04-16T08:50:35.719Z</time></trkpt><trkpt lat="43.2265303" lon="12.5793499"><ele>492.0</ele><time>2026-04-16T08:50:36.721Z</time></trkpt><trkpt lat="43.2266084" lon="12.5793687"><ele>491.0</ele><time>2026-04-16T08:50:37.72Z</time></trkpt><trkpt lat="43.2267056" lon="12.5793668"><ele>490.0</ele><time>2026-04-16T08:50:38.721Z</time></trkpt><trkpt lat="43.2267842" lon="12.57937"><ele>488.99999999999994</ele><time>2026-04-16T08:50:39.72Z</time></trkpt><trkpt lat="43.2268627" lon="12.5792882"><ele>488.0</ele><time>2026-04-16T08:50:40.72Z</time></trkpt><trkpt lat="43.2269301" lon="12.5792347"><ele>488.0</ele><time>2026-04-16T08:50:41.72Z</time></trkpt><trkpt lat="43.2269747" lon="12.5791406"><ele>487.99999999999994</ele><time>2026-04-16T08:50:42.721Z</time></trkpt><trkpt lat="43.2270295" lon="12.5790525"><ele>487.99999999999994</ele><time>2026-04-16T08:50:43.72Z</time></trkpt><trkpt lat="43.2271057" lon="12.5788835"><ele>488.0</ele><time>2026-04-16T08:50:45.721Z</time></trkpt><trkpt lat="43.227149" lon="12.5787789"><ele>488.0</ele><time>2026-04-16T08:50:46.719Z</time></trkpt><trkpt lat="43.2271464" lon="12.5786384"><ele>488.3333333333333</ele><time>2026-04-16T08:50:47.72Z</time></trkpt><trkpt lat="43.227172" lon="12.5785181"><ele>488.66666666666663</ele><time>2026-04-16T08:50:48.719Z</time></trkpt><trkpt lat="43.2271822" lon="12.5784054"><ele>489.0</ele><time>2026-04-16T08:50:49.722Z</time></trkpt><trkpt lat="43.2271891" lon="12.5782878"><ele>489.33333333333337</ele><time>2026-04-16T08:50:50.72Z</time></trkpt><trkpt lat="43.2271924" lon="12.578167"><ele>489.6666666666667</ele><time>2026-04-16T08:50:51.721Z</time></trkpt><trkpt lat="43.2272142" lon="12.5780453"><ele>490.0</ele><time>2026-04-16T08:50:52.72Z</time></trkpt><trkpt lat="43.2272306" lon="12.5779017"><ele>490.6666666666667</ele><time>2026-04-16T08:50:53.72Z</time></trkpt><trkpt lat="43.2272608" lon="12.577767"><ele>491.33333333333337</ele><time>2026-04-16T08:50:54.721Z</time></trkpt><trkpt lat="43.2273102" lon="12.5776983"><ele>492.0</ele><time>2026-04-16T08:50:55.719Z</time></trkpt><trkpt lat="43.2273352" lon="12.5775966"><ele>492.66666666666663</ele><time>2026-04-16T08:50:56.719Z</time></trkpt><trkpt lat="43.2273564" lon="12.5774843"><ele>493.3333333333333</ele><time>2026-04-16T08:50:57.72Z</time></trkpt><trkpt lat="43.2273872" lon="12.5773983"><ele>494.0</ele><time>2026-04-16T08:50:58.721Z</time></trkpt><trkpt lat="43.2274359" lon="12.5773103"><ele>491.6</ele><time>2026-04-16T08:50:59.721Z</time></trkpt><trkpt lat="43.2275388" lon="12.5771623"><ele>489.2</ele><time>2026-04-16T08:51:01.719Z</time></trkpt><trkpt lat="43.2276291" lon="12.5770654"><ele>486.80000000000007</ele><time>2026-04-16T08:51:03.72Z</time></trkpt><trkpt lat="43.2276752" lon="12.576993"><ele>484.40000000000003</ele><time>2026-04-16T08:51:04.719Z</time></trkpt><trkpt lat="43.2277412" lon="12.5769367"><ele>482.0</ele><time>2026-04-16T08:51:05.721Z</time></trkpt><trkpt lat="43.2277829" lon="12.5768534"><ele>481.99999999999994</ele><time>2026-04-16T08:51:06.719Z</time></trkpt><trkpt lat="43.2278214" lon="12.5767782"><ele>482.0</ele><time>2026-04-16T08:51:07.72Z</time></trkpt><trkpt lat="43.2278656" lon="12.5766634"><ele>482.0</ele><time>2026-04-16T08:51:08.72Z</time></trkpt><trkpt lat="43.2279036" lon="12.5765785"><ele>482.0</ele><time>2026-04-16T08:51:09.72Z</time></trkpt><trkpt lat="43.2279535" lon="12.5764962"><ele>481.99999999999994</ele><time>2026-04-16T08:51:10.72Z</time></trkpt><trkpt lat="43.2279887" lon="12.5764154"><ele>482.0</ele><time>2026-04-16T08:51:11.72Z</time></trkpt><trkpt lat="43.2280229" lon="12.5763283"><ele>481.99999999999994</ele><time>2026-04-16T08:51:12.72Z</time></trkpt><trkpt lat="43.2281011" lon="12.576229"><ele>482.0</ele><time>2026-04-16T08:51:14.719Z</time></trkpt><trkpt lat="43.2281785" lon="12.5762277"><ele>482.0</ele><time>2026-04-16T08:51:15.719Z</time></trkpt><trkpt lat="43.2282334" lon="12.5762797"><ele>482.0</ele><time>2026-04-16T08:51:16.719Z</time></trkpt><trkpt lat="43.2282698" lon="12.5764369"><ele>481.99999999999994</ele><time>2026-04-16T08:51:18.719Z</time></trkpt><trkpt lat="43.2282576" lon="12.5765367"><ele>482.0</ele><time>2026-04-16T08:51:19.72Z</time></trkpt><trkpt lat="43.2282425" lon="12.5766494"><ele>480.66666666666663</ele><time>2026-04-16T08:51:20.719Z</time></trkpt><trkpt lat="43.2282347" lon="12.5767816"><ele>479.3333333333333</ele><time>2026-04-16T08:51:21.72Z</time></trkpt><trkpt lat="43.2282177" lon="12.5769023"><ele>478.0</ele><time>2026-04-16T08:51:22.72Z</time></trkpt><trkpt lat="43.2281596" lon="12.5769672"><ele>476.66666666666663</ele><time>2026-04-16T08:51:23.72Z</time></trkpt><trkpt lat="43.2281254" lon="12.5770537"><ele>475.3333333333333</ele><time>2026-04-16T08:51:24.72Z</time></trkpt><trkpt lat="43.2281043" lon="12.577154"><ele>474.0</ele><time>2026-04-16T08:51:25.719Z</time></trkpt><trkpt lat="43.2281125" lon="12.5772482"><ele>474.0</ele><time>2026-04-16T08:51:26.72Z</time></trkpt><trkpt lat="43.2280954" lon="12.5773463"><ele>474.0</ele><time>2026-04-16T08:51:27.719Z</time></trkpt><trkpt lat="43.2280601" lon="12.5774472"><ele>474.0</ele><time>2026-04-16T08:51:28.72Z</time></trkpt><trkpt lat="43.2280475" lon="12.5775591"><ele>474.0</ele><time>2026-04-16T08:51:29.72Z</time></trkpt><trkpt lat="43.228045" lon="12.5776589"><ele>474.0</ele><time>2026-04-16T08:51:30.719Z</time></trkpt><trkpt lat="43.2280689" lon="12.5777397"><ele>474.0</ele><time>2026-04-16T08:51:31.72Z</time></trkpt><trkpt lat="43.2281407" lon="12.5778635"><ele>468.4</ele><time>2026-04-16T08:51:33.721Z</time></trkpt><trkpt lat="43.2281939" lon="12.5779164"><ele>462.79999999999995</ele><time>2026-04-16T08:51:34.72Z</time></trkpt><trkpt lat="43.2282626" lon="12.5780091"><ele>457.20000000000005</ele><time>2026-04-16T08:51:36.719Z</time></trkpt><trkpt lat="43.228252" lon="12.5781591"><ele>451.6</ele><time>2026-04-16T08:51:38.72Z</time></trkpt><trkpt lat="43.2282411" lon="12.5783348"><ele>446.0</ele><time>2026-04-16T08:51:40.72Z</time></trkpt><trkpt lat="43.2282206" lon="12.578477"><ele>445.99999999999994</ele><time>2026-04-16T08:51:42.72Z</time></trkpt><trkpt lat="43.2282242" lon="12.5786021"><ele>446.0</ele><time>2026-04-16T08:51:44.72Z</time></trkpt><trkpt lat="43.2282342" lon="12.578707"><ele>446.0</ele><time>2026-04-16T08:51:45.72Z</time></trkpt><trkpt lat="43.2282564" lon="12.5788028"><ele>446.0</ele><time>2026-04-16T08:51:46.719Z</time></trkpt><trkpt lat="43.2282694" lon="12.578897"><ele>445.99999999999994</ele><time>2026-04-16T08:51:47.72Z</time></trkpt><trkpt lat="43.2282962" lon="12.5789798"><ele>446.0</ele><time>2026-04-16T08:51:48.719Z</time></trkpt><trkpt lat="43.2283234" lon="12.5790818"><ele>445.8333333333333</ele><time>2026-04-16T08:51:49.72Z</time></trkpt><trkpt lat="43.2283686" lon="12.5791661"><ele>445.66666666666663</ele><time>2026-04-16T08:51:50.72Z</time></trkpt><trkpt lat="43.2284079" lon="12.5792522"><ele>445.5</ele><time>2026-04-16T08:51:51.72Z</time></trkpt><trkpt lat="43.2284604" lon="12.5793266"><ele>445.33333333333337</ele><time>2026-04-16T08:51:52.72Z</time></trkpt><trkpt lat="43.2285179" lon="12.5793927"><ele>445.1666666666667</ele><time>2026-04-16T08:51:53.719Z</time></trkpt><trkpt lat="43.2285862" lon="12.5794537"><ele>445.0</ele><time>2026-04-16T08:51:54.72Z</time></trkpt><trkpt lat="43.2286512" lon="12.5795031"><ele>446.2</ele><time>2026-04-16T08:51:55.719Z</time></trkpt><trkpt lat="43.2287146" lon="12.579542"><ele>447.4</ele><time>2026-04-16T08:51:56.72Z</time></trkpt><trkpt lat="43.2288322" lon="12.5796072"><ele>448.6</ele><time>2026-04-16T08:51:58.72Z</time></trkpt><trkpt lat="43.2289226" lon="12.5797164"><ele>449.8</ele><time>2026-04-16T08:52:00.72Z</time></trkpt><trkpt lat="43.2289176" lon="12.579804"><ele>451.0</ele><time>2026-04-16T08:52:01.72Z</time></trkpt><trkpt lat="43.2289184" lon="12.5799038"><ele>451.0</ele><time>2026-04-16T08:52:02.72Z</time></trkpt><trkpt lat="43.2289163" lon="12.5799996"><ele>451.0</ele><time>2026-04-16T08:52:03.721Z</time></trkpt><trkpt lat="43.2288935" lon="12.5800926"><ele>451.0</ele><time>2026-04-16T08:52:04.72Z</time></trkpt><trkpt lat="43.228871" lon="12.5801804"><ele>451.0</ele><time>2026-04-16T08:52:05.72Z</time></trkpt><trkpt lat="43.2287881" lon="12.5803345"><ele>451.0</ele><time>2026-04-16T08:52:07.72Z</time></trkpt><trkpt lat="43.2287221" lon="12.5804923"><ele>448.6</ele><time>2026-04-16T08:52:09.72Z</time></trkpt><trkpt lat="43.2287009" lon="12.5806143"><ele>446.20000000000005</ele><time>2026-04-16T08:52:10.72Z</time></trkpt><trkpt lat="43.2286889" lon="12.5807064"><ele>443.79999999999995</ele><time>2026-04-16T08:52:11.718Z</time></trkpt><trkpt lat="43.2287127" lon="12.5808266"><ele>441.4</ele><time>2026-04-16T08:52:12.719Z</time></trkpt><trkpt lat="43.228769" lon="12.5809829"><ele>439.0</ele><time>2026-04-16T08:52:14.72Z</time></trkpt><trkpt lat="43.2287813" lon="12.5811008"><ele>436.6666666666667</ele><time>2026-04-16T08:52:15.72Z</time></trkpt><trkpt lat="43.228787" lon="12.5812052"><ele>434.33333333333337</ele><time>2026-04-16T08:52:16.719Z</time></trkpt><trkpt lat="43.2288009" lon="12.5813299"><ele>432.0</ele><time>2026-04-16T08:52:17.72Z</time></trkpt><trkpt lat="43.2287957" lon="12.5814374"><ele>429.66666666666663</ele><time>2026-04-16T08:52:18.72Z</time></trkpt><trkpt lat="43.2288165" lon="12.5815383"><ele>427.3333333333333</ele><time>2026-04-16T08:52:19.719Z</time></trkpt><trkpt lat="43.2288297" lon="12.5816648"><ele>425.0</ele><time>2026-04-16T08:52:20.72Z</time></trkpt><trkpt lat="43.2288606" lon="12.5817688"><ele>425.0</ele><time>2026-04-16T08:52:21.719Z</time></trkpt><trkpt lat="43.2288846" lon="12.5818778"><ele>425.0</ele><time>2026-04-16T08:52:22.72Z</time></trkpt><trkpt lat="43.2288956" lon="12.5819987"><ele>425.0</ele><time>2026-04-16T08:52:23.72Z</time></trkpt><trkpt lat="43.2288965" lon="12.5821336"><ele>425.0</ele><time>2026-04-16T08:52:24.72Z</time></trkpt><trkpt lat="43.2288821" lon="12.5822606"><ele>425.0</ele><time>2026-04-16T08:52:25.719Z</time></trkpt><trkpt lat="43.2288776" lon="12.5823816"><ele>422.49999999999994</ele><time>2026-04-16T08:52:26.719Z</time></trkpt><trkpt lat="43.2288797" lon="12.582496"><ele>420.0</ele><time>2026-04-16T08:52:27.72Z</time></trkpt><trkpt lat="43.2288699" lon="12.5826054"><ele>417.5</ele><time>2026-04-16T08:52:28.72Z</time></trkpt><trkpt lat="43.2288494" lon="12.5827094"><ele>415.0</ele><time>2026-04-16T08:52:29.72Z</time></trkpt><trkpt lat="43.2288284" lon="12.5828141"><ele>412.49999999999994</ele><time>2026-04-16T08:52:30.72Z</time></trkpt><trkpt lat="43.2287899" lon="12.5828921"><ele>410.0</ele><time>2026-04-16T08:52:31.721Z</time></trkpt><trkpt lat="43.2287474" lon="12.5829602"><ele>407.3333333333333</ele><time>2026-04-16T08:52:32.72Z</time></trkpt><trkpt lat="43.22868" lon="12.5830154"><ele>404.66666666666663</ele><time>2026-04-16T08:52:33.72Z</time></trkpt><trkpt lat="43.228557" lon="12.5830815"><ele>402.0</ele><time>2026-04-16T08:52:35.72Z</time></trkpt><trkpt lat="43.2284929" lon="12.5830885"><ele>399.33333333333337</ele><time>2026-04-16T08:52:36.719Z</time></trkpt><trkpt lat="43.2283963" lon="12.5830953"><ele>396.6666666666667</ele><time>2026-04-16T08:52:38.719Z</time></trkpt><trkpt lat="43.2283265" lon="12.5830985"><ele>394.0</ele><time>2026-04-16T08:52:41.719Z</time></trkpt><trkpt lat="43.2282641" lon="12.5830228"><ele>394.0</ele><time>2026-04-16T08:52:51.72Z</time></trkpt><trkpt lat="43.2282155" lon="12.5829277"><ele>394.0</ele><time>2026-04-16T08:52:53.72Z</time></trkpt><trkpt lat="43.228183" lon="12.5827919"><ele>394.0</ele><time>2026-04-16T08:52:55.721Z</time></trkpt><trkpt lat="43.2281203" lon="12.5826529"><ele>394.0</ele><time>2026-04-16T08:52:57.719Z</time></trkpt><trkpt lat="43.2280443" lon="12.582541"><ele>394.0</ele><time>2026-04-16T08:52:59.72Z</time></trkpt><trkpt lat="43.2279819" lon="12.5824439"><ele>393.1666666666667</ele><time>2026-04-16T08:53:01.72Z</time></trkpt><trkpt lat="43.2279144" lon="12.5823551"><ele>392.33333333333337</ele><time>2026-04-16T08:53:02.719Z</time></trkpt><trkpt lat="43.2278596" lon="12.5822675"><ele>391.5</ele><time>2026-04-16T08:53:03.72Z</time></trkpt><trkpt lat="43.2277918" lon="12.5821935"><ele>390.66666666666663</ele><time>2026-04-16T08:53:04.72Z</time></trkpt><trkpt lat="43.2277344" lon="12.5821163"><ele>389.8333333333333</ele><time>2026-04-16T08:53:05.721Z</time></trkpt><trkpt lat="43.2276751" lon="12.5820412"><ele>389.0</ele><time>2026-04-16T08:53:06.719Z</time></trkpt><trkpt lat="43.2275844" lon="12.5820048"><ele>391.66666666666663</ele><time>2026-04-16T08:53:07.721Z</time></trkpt><trkpt lat="43.2275033" lon="12.5819508"><ele>394.3333333333333</ele><time>2026-04-16T08:53:08.721Z</time></trkpt><trkpt lat="43.2274244" lon="12.5818797"><ele>397.0</ele><time>2026-04-16T08:53:09.72Z</time></trkpt><trkpt lat="43.2273448" lon="12.5818756"><ele>399.66666666666663</ele><time>2026-04-16T08:53:10.72Z</time></trkpt><trkpt lat="43.2272502" lon="12.5818702"><ele>402.3333333333333</ele><time>2026-04-16T08:53:11.72Z</time></trkpt><trkpt lat="43.2271616" lon="12.581859"><ele>405.0</ele><time>2026-04-16T08:53:12.719Z</time></trkpt><trkpt lat="43.2270934" lon="12.5818539"><ele>405.0</ele><time>2026-04-16T08:53:13.719Z</time></trkpt><trkpt lat="43.2270266" lon="12.5818848"><ele>405.0</ele><time>2026-04-16T08:53:14.72Z</time></trkpt><trkpt lat="43.2269321" lon="12.5819859"><ele>405.0</ele><time>2026-04-16T08:53:16.72Z</time></trkpt><trkpt lat="43.2268806" lon="12.5820376"><ele>405.0</ele><time>2026-04-16T08:53:17.72Z</time></trkpt><trkpt lat="43.2268103" lon="12.5820907"><ele>405.0</ele><time>2026-04-16T08:53:18.72Z</time></trkpt><trkpt lat="43.2267149" lon="12.5821331"><ele>405.0</ele><time>2026-04-16T08:53:19.72Z</time></trkpt><trkpt lat="43.2266314" lon="12.5821862"><ele>400.6</ele><time>2026-04-16T08:53:20.72Z</time></trkpt><trkpt lat="43.226557" lon="12.5821316"><ele>396.2</ele><time>2026-04-16T08:53:21.72Z</time></trkpt><trkpt lat="43.2264751" lon="12.5821409"><ele>391.79999999999995</ele><time>2026-04-16T08:53:22.72Z</time></trkpt><trkpt lat="43.2263937" lon="12.5821485"><ele>387.4</ele><time>2026-04-16T08:53:23.72Z</time></trkpt><trkpt lat="43.2263154" lon="12.582146"><ele>383.0</ele><time>2026-04-16T08:53:24.719Z</time></trkpt><trkpt lat="43.2261737" lon="12.5821988"><ele>381.33333333333337</ele><time>2026-04-16T08:53:26.718Z</time></trkpt><trkpt lat="43.2260983" lon="12.5822441"><ele>379.6666666666667</ele><time>2026-04-16T08:53:27.719Z</time></trkpt><trkpt lat="43.2260295" lon="12.5822685"><ele>378.0</ele><time>2026-04-16T08:53:28.719Z</time></trkpt><trkpt lat="43.2259514" lon="12.5822734"><ele>376.3333333333333</ele><time>2026-04-16T08:53:29.718Z</time></trkpt><trkpt lat="43.2258589" lon="12.5823019"><ele>374.66666666666663</ele><time>2026-04-16T08:53:30.719Z</time></trkpt><trkpt lat="43.225758" lon="12.5823098"><ele>373.0</ele><time>2026-04-16T08:53:31.72Z</time></trkpt><trkpt lat="43.2256552" lon="12.5823289"><ele>373.7142857142857</ele><time>2026-04-16T08:53:32.72Z</time></trkpt><trkpt lat="43.2255774" lon="12.5823378"><ele>374.42857142857144</ele><time>2026-04-16T08:53:33.719Z</time></trkpt><trkpt lat="43.2254961" lon="12.5823728"><ele>375.1428571428571</ele><time>2026-04-16T08:53:34.72Z</time></trkpt><trkpt lat="43.2254299" lon="12.5824078"><ele>375.8571428571429</ele><time>2026-04-16T08:53:35.72Z</time></trkpt><trkpt lat="43.2253675" lon="12.5824366"><ele>376.57142857142856</ele><time>2026-04-16T08:53:36.719Z</time></trkpt><trkpt lat="43.2253035" lon="12.5824423"><ele>377.2857142857143</ele><time>2026-04-16T08:53:37.719Z</time></trkpt><trkpt lat="43.2252334" lon="12.5824799"><ele>378.0</ele><time>2026-04-16T08:53:38.719Z</time></trkpt><trkpt lat="43.2251632" lon="12.5825178"><ele>378.0</ele><time>2026-04-16T08:53:39.72Z</time></trkpt><trkpt lat="43.2250403" lon="12.5825677"><ele>378.0</ele><time>2026-04-16T08:53:41.72Z</time></trkpt><trkpt lat="43.2249612" lon="12.5825772"><ele>378.0</ele><time>2026-04-16T08:53:42.72Z</time></trkpt><trkpt lat="43.224843" lon="12.5825527"><ele>378.0</ele><time>2026-04-16T08:53:44.72Z</time></trkpt><trkpt lat="43.2247144" lon="12.5824732"><ele>376.8333333333333</ele><time>2026-04-16T08:53:46.719Z</time></trkpt><trkpt lat="43.224645" lon="12.5824324"><ele>375.6666666666667</ele><time>2026-04-16T08:53:47.719Z</time></trkpt><trkpt lat="43.224587" lon="12.5823874"><ele>374.5</ele><time>2026-04-16T08:53:48.719Z</time></trkpt><trkpt lat="43.224526" lon="12.5823576"><ele>373.33333333333337</ele><time>2026-04-16T08:53:49.719Z</time></trkpt><trkpt lat="43.2244521" lon="12.5822742"><ele>372.1666666666667</ele><time>2026-04-16T08:53:51.72Z</time></trkpt><trkpt lat="43.2243529" lon="12.5822085"><ele>371.0</ele><time>2026-04-16T08:53:53.72Z</time></trkpt><trkpt lat="43.2242892" lon="12.5821821"><ele>371.0</ele><time>2026-04-16T08:53:54.718Z</time></trkpt><trkpt lat="43.2241989" lon="12.5821255"><ele>371.0</ele><time>2026-04-16T08:53:55.72Z</time></trkpt><trkpt lat="43.2241241" lon="12.5820685"><ele>371.0</ele><time>2026-04-16T08:53:56.719Z</time></trkpt><trkpt lat="43.2240582" lon="12.5820273"><ele>371.0</ele><time>2026-04-16T08:53:57.72Z</time></trkpt><trkpt lat="43.223942" lon="12.581957"><ele>371.0</ele><time>2026-04-16T08:53:59.72Z</time></trkpt><trkpt lat="43.2238459" lon="12.5818932"><ele>374.5</ele><time>2026-04-16T08:54:01.719Z</time></trkpt><trkpt lat="43.2237674" lon="12.5818701"><ele>378.0</ele><time>2026-04-16T08:54:02.72Z</time></trkpt><trkpt lat="43.2236992" lon="12.5818567"><ele>381.5</ele><time>2026-04-16T08:54:03.719Z</time></trkpt><trkpt lat="43.2236318" lon="12.5818678"><ele>385.0</ele><time>2026-04-16T08:54:04.72Z</time></trkpt><trkpt lat="43.2235356" lon="12.5818782"><ele>388.49999999999994</ele><time>2026-04-16T08:54:05.72Z</time></trkpt><trkpt lat="43.2234002" lon="12.5818901"><ele>392.0</ele><time>2026-04-16T08:54:07.719Z</time></trkpt><trkpt lat="43.2233196" lon="12.5819121"><ele>391.99999999999994</ele><time>2026-04-16T08:54:08.72Z</time></trkpt><trkpt lat="43.2232368" lon="12.5819127"><ele>392.0</ele><time>2026-04-16T08:54:09.72Z</time></trkpt><trkpt lat="43.2231514" lon="12.5819406"><ele>392.0</ele><time>2026-04-16T08:54:10.719Z</time></trkpt><trkpt lat="43.2230805" lon="12.5819637"><ele>392.0</ele><time>2026-04-16T08:54:11.719Z</time></trkpt><trkpt lat="43.223007" lon="12.5819726"><ele>391.99999999999994</ele><time>2026-04-16T08:54:12.72Z</time></trkpt><trkpt lat="43.2229336" lon="12.5819754"><ele>392.0</ele><time>2026-04-16T08:54:13.719Z</time></trkpt><trkpt lat="43.222853" lon="12.5819991"><ele>389.49999999999994</ele><time>2026-04-16T08:54:14.72Z</time></trkpt><trkpt lat="43.2227734" lon="12.5820495"><ele>387.0</ele><time>2026-04-16T08:54:15.72Z</time></trkpt><trkpt lat="43.2227005" lon="12.5821256"><ele>384.5</ele><time>2026-04-16T08:54:16.718Z</time></trkpt><trkpt lat="43.2226207" lon="12.5821706"><ele>382.0</ele><time>2026-04-16T08:54:17.719Z</time></trkpt><trkpt lat="43.2225449" lon="12.5822409"><ele>379.5</ele><time>2026-04-16T08:54:18.719Z</time></trkpt><trkpt lat="43.2224706" lon="12.582301"><ele>377.0</ele><time>2026-04-16T08:54:19.719Z</time></trkpt><trkpt lat="43.2223873" lon="12.5823474"><ele>379.33333333333337</ele><time>2026-04-16T08:54:20.719Z</time></trkpt><trkpt lat="43.2223037" lon="12.582387"><ele>381.6666666666667</ele><time>2026-04-16T08:54:21.719Z</time></trkpt><trkpt lat="43.2222325" lon="12.5824323"><ele>384.0</ele><time>2026-04-16T08:54:22.72Z</time></trkpt><trkpt lat="43.2221672" lon="12.5824796"><ele>386.33333333333337</ele><time>2026-04-16T08:54:23.72Z</time></trkpt><trkpt lat="43.2220935" lon="12.5825309"><ele>388.6666666666667</ele><time>2026-04-16T08:54:24.719Z</time></trkpt><trkpt lat="43.2220178" lon="12.5825955"><ele>391.0</ele><time>2026-04-16T08:54:25.72Z</time></trkpt><trkpt lat="43.2219435" lon="12.5826417"><ele>391.0</ele><time>2026-04-16T08:54:26.72Z</time></trkpt><trkpt lat="43.2218711" lon="12.5827137"><ele>391.0</ele><time>2026-04-16T08:54:27.719Z</time></trkpt><trkpt lat="43.2218003" lon="12.5827993"><ele>391.0</ele><time>2026-04-16T08:54:28.719Z</time></trkpt><trkpt lat="43.221729" lon="12.5828991"><ele>391.0</ele><time>2026-04-16T08:54:29.72Z</time></trkpt><trkpt lat="43.2216543" lon="12.5830119"><ele>391.0</ele><time>2026-04-16T08:54:30.719Z</time></trkpt><trkpt lat="43.221585" lon="12.5831153"><ele>390.00000000000006</ele><time>2026-04-16T08:54:31.72Z</time></trkpt><trkpt lat="43.221511" lon="12.5832062"><ele>389.0</ele><time>2026-04-16T08:54:32.72Z</time></trkpt><trkpt lat="43.2214527" lon="12.5832871"><ele>388.0</ele><time>2026-04-16T08:54:33.719Z</time></trkpt><trkpt lat="43.2214014" lon="12.5833676"><ele>387.0</ele><time>2026-04-16T08:54:34.719Z</time></trkpt><trkpt lat="43.2213502" lon="12.5834197"><ele>386.00000000000006</ele><time>2026-04-16T08:54:35.719Z</time></trkpt><trkpt lat="43.2212795" lon="12.5834617"><ele>385.0</ele><time>2026-04-16T08:54:36.72Z</time></trkpt><trkpt lat="43.2212013" lon="12.5835071"><ele>385.00000000000006</ele><time>2026-04-16T08:54:37.72Z</time></trkpt><trkpt lat="43.2211181" lon="12.5835551"><ele>385.0</ele><time>2026-04-16T08:54:38.719Z</time></trkpt><trkpt lat="43.2210287" lon="12.5835944"><ele>385.0</ele><time>2026-04-16T08:54:39.72Z</time></trkpt><trkpt lat="43.2209479" lon="12.5836362"><ele>385.0</ele><time>2026-04-16T08:54:40.72Z</time></trkpt><trkpt lat="43.2208859" lon="12.5836627"><ele>385.00000000000006</ele><time>2026-04-16T08:54:41.719Z</time></trkpt><trkpt lat="43.2208182" lon="12.5836737"><ele>385.0</ele><time>2026-04-16T08:54:42.719Z</time></trkpt><trkpt lat="43.2207546" lon="12.5836738"><ele>382.0</ele><time>2026-04-16T08:54:43.719Z</time></trkpt><trkpt lat="43.2206893" lon="12.583683"><ele>379.0</ele><time>2026-04-16T08:54:44.72Z</time></trkpt><trkpt lat="43.2205834" lon="12.5836933"><ele>376.0</ele><time>2026-04-16T08:54:46.72Z</time></trkpt><trkpt lat="43.2205004" lon="12.5836917"><ele>373.0</ele><time>2026-04-16T08:54:48.72Z</time></trkpt><trkpt lat="43.2205543" lon="12.5837653"><ele>370.0</ele><time>2026-04-16T08:56:39.718Z</time></trkpt><trkpt lat="43.2206799" lon="12.5837259"><ele>370.0</ele><time>2026-04-16T08:56:41.719Z</time></trkpt><trkpt lat="43.2207451" lon="12.5837308"><ele>370.0</ele><time>2026-04-16T08:56:42.718Z</time></trkpt><trkpt lat="43.2208135" lon="12.5837192"><ele>370.0</ele><time>2026-04-16T08:56:43.72Z</time></trkpt><trkpt lat="43.2208858" lon="12.5836934"><ele>370.0</ele><time>2026-04-16T08:56:44.72Z</time></trkpt><trkpt lat="43.2209565" lon="12.58368"><ele>370.0</ele><time>2026-04-16T08:56:45.719Z</time></trkpt><trkpt lat="43.2210677" lon="12.5836059"><ele>370.0</ele><time>2026-04-16T08:56:47.718Z</time></trkpt><trkpt lat="43.2211633" lon="12.5835603"><ele>370.5</ele><time>2026-04-16T08:56:49.72Z</time></trkpt><trkpt lat="43.2212779" lon="12.5835004"><ele>371.0</ele><time>2026-04-16T08:56:51.718Z</time></trkpt><trkpt lat="43.2213412" lon="12.5834632"><ele>371.5</ele><time>2026-04-16T08:56:52.72Z</time></trkpt><trkpt lat="43.2214037" lon="12.5834168"><ele>372.0</ele><time>2026-04-16T08:56:53.72Z</time></trkpt><trkpt lat="43.2214583" lon="12.5833456"><ele>372.5</ele><time>2026-04-16T08:56:54.719Z</time></trkpt><trkpt lat="43.2215161" lon="12.5832554"><ele>373.0</ele><time>2026-04-16T08:56:55.719Z</time></trkpt><trkpt lat="43.2215873" lon="12.5831574"><ele>373.0</ele><time>2026-04-16T08:56:56.719Z</time></trkpt><trkpt lat="43.2216534" lon="12.5830661"><ele>373.0</ele><time>2026-04-16T08:56:57.721Z</time></trkpt><trkpt lat="43.2217245" lon="12.5829789"><ele>373.0</ele><time>2026-04-16T08:56:58.722Z</time></trkpt><trkpt lat="43.2217744" lon="12.582901"><ele>373.0</ele><time>2026-04-16T08:56:59.721Z</time></trkpt><trkpt lat="43.2218145" lon="12.5828248"><ele>373.0</ele><time>2026-04-16T08:57:00.719Z</time></trkpt><trkpt lat="43.2218781" lon="12.5827554"><ele>373.0</ele><time>2026-04-16T08:57:01.72Z</time></trkpt><trkpt lat="43.2219918" lon="12.5826556"><ele>373.79999999999995</ele><time>2026-04-16T08:57:02.722Z</time></trkpt><trkpt lat="43.2220859" lon="12.5825787"><ele>374.6</ele><time>2026-04-16T08:57:03.721Z</time></trkpt><trkpt lat="43.2221471" lon="12.5825177"><ele>375.4</ele><time>2026-04-16T08:57:04.72Z</time></trkpt><trkpt lat="43.222229" lon="12.5824646"><ele>376.20000000000005</ele><time>2026-04-16T08:57:05.719Z</time></trkpt><trkpt lat="43.2223118" lon="12.5823857"><ele>377.0</ele><time>2026-04-16T08:57:06.72Z</time></trkpt><trkpt lat="43.2223923" lon="12.5823352"><ele>377.0</ele><time>2026-04-16T08:57:07.72Z</time></trkpt><trkpt lat="43.2224676" lon="12.5822632"><ele>377.0</ele><time>2026-04-16T08:57:08.722Z</time></trkpt><trkpt lat="43.2225199" lon="12.5822132"><ele>377.0</ele><time>2026-04-16T08:57:09.72Z</time></trkpt><trkpt lat="43.2225881" lon="12.5821613"><ele>377.0</ele><time>2026-04-16T08:57:10.72Z</time></trkpt><trkpt lat="43.2226817" lon="12.5821239"><ele>377.0</ele><time>2026-04-16T08:57:11.72Z</time></trkpt><trkpt lat="43.2227746" lon="12.5820907"><ele>377.0</ele><time>2026-04-16T08:57:12.72Z</time></trkpt><trkpt lat="43.222862" lon="12.5820626"><ele>377.0</ele><time>2026-04-16T08:57:13.72Z</time></trkpt><trkpt lat="43.2229645" lon="12.5820396"><ele>377.0</ele><time>2026-04-16T08:57:14.719Z</time></trkpt><trkpt lat="43.2230611" lon="12.5820078"><ele>377.0</ele><time>2026-04-16T08:57:15.72Z</time></trkpt><trkpt lat="43.22316" lon="12.5819831"><ele>377.0</ele><time>2026-04-16T08:57:16.72Z</time></trkpt><trkpt lat="43.2232638" lon="12.5819422"><ele>377.0</ele><time>2026-04-16T08:57:17.72Z</time></trkpt><trkpt lat="43.2233402" lon="12.5819177"><ele>379.5</ele><time>2026-04-16T08:57:18.72Z</time></trkpt><trkpt lat="43.2234149" lon="12.5818957"><ele>382.0</ele><time>2026-04-16T08:57:19.719Z</time></trkpt><trkpt lat="43.2234976" lon="12.5818801"><ele>384.5</ele><time>2026-04-16T08:57:20.719Z</time></trkpt><trkpt lat="43.2235816" lon="12.5818758"><ele>387.0</ele><time>2026-04-16T08:57:21.719Z</time></trkpt><trkpt lat="43.2236671" lon="12.5818775"><ele>389.49999999999994</ele><time>2026-04-16T08:57:22.718Z</time></trkpt><trkpt lat="43.2237487" lon="12.5818982"><ele>392.0</ele><time>2026-04-16T08:57:23.72Z</time></trkpt><trkpt lat="43.2238318" lon="12.5819424"><ele>392.0</ele><time>2026-04-16T08:57:24.719Z</time></trkpt><trkpt lat="43.2239091" lon="12.581983"><ele>392.0</ele><time>2026-04-16T08:57:25.72Z</time></trkpt><trkpt lat="43.223991" lon="12.5820283"><ele>392.0</ele><time>2026-04-16T08:57:26.72Z</time></trkpt><trkpt lat="43.2240806" lon="12.58209"><ele>392.0</ele><time>2026-04-16T08:57:27.719Z</time></trkpt><trkpt lat="43.2241653" lon="12.5821237"><ele>392.0</ele><time>2026-04-16T08:57:28.72Z</time></trkpt><trkpt lat="43.2242566" lon="12.5821556"><ele>387.8</ele><time>2026-04-16T08:57:29.72Z</time></trkpt><trkpt lat="43.2243402" lon="12.5821974"><ele>383.6</ele><time>2026-04-16T08:57:30.72Z</time></trkpt><trkpt lat="43.2244618" lon="12.5822694"><ele>379.40000000000003</ele><time>2026-04-16T08:57:32.72Z</time></trkpt><trkpt lat="43.2245161" lon="12.5823186"><ele>375.20000000000005</ele><time>2026-04-16T08:57:33.72Z</time></trkpt><trkpt lat="43.2245788" lon="12.5823713"><ele>371.0</ele><time>2026-04-16T08:57:34.718Z</time></trkpt><trkpt lat="43.2246734" lon="12.5824192"><ele>371.0</ele><time>2026-04-16T08:57:35.72Z</time></trkpt><trkpt lat="43.2247549" lon="12.5824795"><ele>371.0</ele><time>2026-04-16T08:57:36.718Z</time></trkpt><trkpt lat="43.2248272" lon="12.5825305"><ele>371.0</ele><time>2026-04-16T08:57:37.72Z</time></trkpt><trkpt lat="43.2248873" lon="12.5825968"><ele>371.0</ele><time>2026-04-16T08:57:38.719Z</time></trkpt><trkpt lat="43.2250216" lon="12.582583"><ele>371.0</ele><time>2026-04-16T08:57:40.72Z</time></trkpt><trkpt lat="43.2251094" lon="12.5825478"><ele>372.4</ele><time>2026-04-16T08:57:41.72Z</time></trkpt><trkpt lat="43.2251938" lon="12.5824963"><ele>373.8</ele><time>2026-04-16T08:57:42.719Z</time></trkpt><trkpt lat="43.225281" lon="12.5824683"><ele>375.2</ele><time>2026-04-16T08:57:43.72Z</time></trkpt><trkpt lat="43.2253667" lon="12.5824192"><ele>376.59999999999997</ele><time>2026-04-16T08:57:44.719Z</time></trkpt><trkpt lat="43.2254568" lon="12.5823737"><ele>378.0</ele><time>2026-04-16T08:57:45.719Z</time></trkpt><trkpt lat="43.2255699" lon="12.5823424"><ele>377.0</ele><time>2026-04-16T08:57:46.72Z</time></trkpt><trkpt lat="43.2256871" lon="12.5823224"><ele>376.0</ele><time>2026-04-16T08:57:47.72Z</time></trkpt><trkpt lat="43.2258059" lon="12.5822946"><ele>375.0</ele><time>2026-04-16T08:57:48.718Z</time></trkpt><trkpt lat="43.2259107" lon="12.5822715"><ele>374.0</ele><time>2026-04-16T08:57:49.72Z</time></trkpt><trkpt lat="43.2259909" lon="12.5822338"><ele>373.0</ele><time>2026-04-16T08:57:50.72Z</time></trkpt><trkpt lat="43.226086" lon="12.5822097"><ele>373.0</ele><time>2026-04-16T08:57:51.719Z</time></trkpt><trkpt lat="43.2261697" lon="12.5821635"><ele>373.0</ele><time>2026-04-16T08:57:52.72Z</time></trkpt><trkpt lat="43.2262477" lon="12.5821207"><ele>373.0</ele><time>2026-04-16T08:57:53.721Z</time></trkpt><trkpt lat="43.2263256" lon="12.5821199"><ele>373.0</ele><time>2026-04-16T08:57:54.722Z</time></trkpt><trkpt lat="43.226391" lon="12.5821207"><ele>373.0</ele><time>2026-04-16T08:57:55.721Z</time></trkpt><trkpt lat="43.2264745" lon="12.5821063"><ele>373.0</ele><time>2026-04-16T08:57:56.721Z</time></trkpt><trkpt lat="43.2265508" lon="12.5820877"><ele>374.66666666666663</ele><time>2026-04-16T08:57:57.721Z</time></trkpt><trkpt lat="43.2266395" lon="12.5820767"><ele>376.3333333333333</ele><time>2026-04-16T08:57:58.721Z</time></trkpt><trkpt lat="43.2267145" lon="12.5820612"><ele>378.0</ele><time>2026-04-16T08:57:59.721Z</time></trkpt><trkpt lat="43.2267925" lon="12.5820284"><ele>379.6666666666667</ele><time>2026-04-16T08:58:00.721Z</time></trkpt><trkpt lat="43.2268585" lon="12.5819916"><ele>381.33333333333337</ele><time>2026-04-16T08:58:01.721Z</time></trkpt><trkpt lat="43.2269123" lon="12.5819229"><ele>383.0</ele><time>2026-04-16T08:58:02.721Z</time></trkpt><trkpt lat="43.2269755" lon="12.5819004"><ele>386.6666666666667</ele><time>2026-04-16T08:58:03.721Z</time></trkpt><trkpt lat="43.2270574" lon="12.5818664"><ele>390.33333333333337</ele><time>2026-04-16T08:58:04.721Z</time></trkpt><trkpt lat="43.2271256" lon="12.5818573"><ele>394.0</ele><time>2026-04-16T08:58:05.721Z</time></trkpt><trkpt lat="43.2272052" lon="12.581852"><ele>397.6666666666667</ele><time>2026-04-16T08:58:06.721Z</time></trkpt><trkpt lat="43.2272976" lon="12.5818668"><ele>401.3333333333333</ele><time>2026-04-16T08:58:07.721Z</time></trkpt><trkpt lat="43.227394" lon="12.5818781"><ele>405.0</ele><time>2026-04-16T08:58:08.72Z</time></trkpt><trkpt lat="43.2274786" lon="12.5819346"><ele>407.6</ele><time>2026-04-16T08:58:09.721Z</time></trkpt><trkpt lat="43.2275825" lon="12.5819928"><ele>410.2</ele><time>2026-04-16T08:58:10.72Z</time></trkpt><trkpt lat="43.2276707" lon="12.5820759"><ele>412.79999999999995</ele><time>2026-04-16T08:58:11.721Z</time></trkpt><trkpt lat="43.2277337" lon="12.5821888"><ele>415.4</ele><time>2026-04-16T08:58:12.72Z</time></trkpt><trkpt lat="43.227819" lon="12.5822889"><ele>418.0</ele><time>2026-04-16T08:58:13.721Z</time></trkpt><trkpt lat="43.2279037" lon="12.5823766"><ele>414.00000000000006</ele><time>2026-04-16T08:58:14.721Z</time></trkpt><trkpt lat="43.2279841" lon="12.5824827"><ele>410.0</ele><time>2026-04-16T08:58:15.721Z</time></trkpt><trkpt lat="43.2280333" lon="12.582568"><ele>406.0</ele><time>2026-04-16T08:58:16.721Z</time></trkpt><trkpt lat="43.2280836" lon="12.5826587"><ele>402.0</ele><time>2026-04-16T08:58:17.721Z</time></trkpt><trkpt lat="43.2281088" lon="12.5827714"><ele>398.00000000000006</ele><time>2026-04-16T08:58:18.72Z</time></trkpt><trkpt lat="43.2281399" lon="12.5828466"><ele>394.0</ele><time>2026-04-16T08:58:19.72Z</time></trkpt><trkpt lat="43.2281884" lon="12.5829881"><ele>394.0</ele><time>2026-04-16T08:58:21.72Z</time></trkpt><trkpt lat="43.2282472" lon="12.5830656"><ele>394.0</ele><time>2026-04-16T08:58:23.721Z</time></trkpt><trkpt lat="43.2283043" lon="12.5831048"><ele>394.0</ele><time>2026-04-16T08:58:26.72Z</time></trkpt><trkpt lat="43.2283907" lon="12.5830953"><ele>394.0</ele><time>2026-04-16T08:58:29.721Z</time></trkpt><trkpt lat="43.2284916" lon="12.5830892"><ele>394.0</ele><time>2026-04-16T08:58:31.721Z</time></trkpt><trkpt lat="43.2286093" lon="12.5830494"><ele>394.00000000000006</ele><time>2026-04-16T08:58:33.721Z</time></trkpt><trkpt lat="43.2286693" lon="12.5830146"><ele>394.0</ele><time>2026-04-16T08:58:34.72Z</time></trkpt><trkpt lat="43.2287381" lon="12.5829704"><ele>394.0</ele><time>2026-04-16T08:58:35.721Z</time></trkpt><trkpt lat="43.2287906" lon="12.5828802"><ele>394.0</ele><time>2026-04-16T08:58:36.72Z</time></trkpt><trkpt lat="43.2288358" lon="12.5827744"><ele>394.00000000000006</ele><time>2026-04-16T08:58:37.721Z</time></trkpt><trkpt lat="43.2288573" lon="12.5826527"><ele>394.0</ele><time>2026-04-16T08:58:38.72Z</time></trkpt><trkpt lat="43.2288762" lon="12.5825334"><ele>397.2</ele><time>2026-04-16T08:58:39.72Z</time></trkpt><trkpt lat="43.2288837" lon="12.5824027"><ele>400.4</ele><time>2026-04-16T08:58:40.721Z</time></trkpt><trkpt lat="43.2288881" lon="12.5822639"><ele>403.6</ele><time>2026-04-16T08:58:41.721Z</time></trkpt><trkpt lat="43.2288966" lon="12.5821246"><ele>406.8</ele><time>2026-04-16T08:58:42.719Z</time></trkpt><trkpt lat="43.2289037" lon="12.5819893"><ele>410.0</ele><time>2026-04-16T08:58:43.721Z</time></trkpt><trkpt lat="43.2288828" lon="12.5818299"><ele>413.0</ele><time>2026-04-16T08:58:44.722Z</time></trkpt><trkpt lat="43.2288536" lon="12.5816793"><ele>416.0</ele><time>2026-04-16T08:58:45.72Z</time></trkpt><trkpt lat="43.2288333" lon="12.5815235"><ele>419.0</ele><time>2026-04-16T08:58:46.72Z</time></trkpt><trkpt lat="43.2288119" lon="12.5813731"><ele>422.0</ele><time>2026-04-16T08:58:47.721Z</time></trkpt><trkpt lat="43.2288037" lon="12.5812357"><ele>425.0</ele><time>2026-04-16T08:58:48.72Z</time></trkpt><trkpt lat="43.2288101" lon="12.5811095"><ele>427.0</ele><time>2026-04-16T08:58:49.72Z</time></trkpt><trkpt lat="43.2287984" lon="12.581019"><ele>429.0</ele><time>2026-04-16T08:58:50.721Z</time></trkpt><trkpt lat="43.2287699" lon="12.5809231"><ele>431.0</ele><time>2026-04-16T08:58:51.721Z</time></trkpt><trkpt lat="43.2287513" lon="12.5808208"><ele>433.0</ele><time>2026-04-16T08:58:52.72Z</time></trkpt><trkpt lat="43.2287169" lon="12.5807445"><ele>435.0</ele><time>2026-04-16T08:58:53.721Z</time></trkpt><trkpt lat="43.2287015" lon="12.5806382"><ele>437.0</ele><time>2026-04-16T08:58:54.721Z</time></trkpt><trkpt lat="43.2287066" lon="12.5805267"><ele>439.0</ele><time>2026-04-16T08:58:55.72Z</time></trkpt><trkpt lat="43.228724" lon="12.5804321"><ele>441.00000000000006</ele><time>2026-04-16T08:58:56.721Z</time></trkpt><trkpt lat="43.228774" lon="12.5802836"><ele>443.0</ele><time>2026-04-16T08:58:58.721Z</time></trkpt><trkpt lat="43.2288174" lon="12.5801822"><ele>445.0</ele><time>2026-04-16T08:58:59.72Z</time></trkpt><trkpt lat="43.2288523" lon="12.5801102"><ele>447.0</ele><time>2026-04-16T08:59:00.721Z</time></trkpt><trkpt lat="43.2288958" lon="12.580029"><ele>449.00000000000006</ele><time>2026-04-16T08:59:01.721Z</time></trkpt><trkpt lat="43.2289334" lon="12.5799234"><ele>451.0</ele><time>2026-04-16T08:59:02.721Z</time></trkpt><trkpt lat="43.2289203" lon="12.579744"><ele>451.0</ele><time>2026-04-16T08:59:04.72Z</time></trkpt><trkpt lat="43.2288836" lon="12.5796645"><ele>451.0</ele><time>2026-04-16T08:59:05.721Z</time></trkpt><trkpt lat="43.2287959" lon="12.5795462"><ele>451.0</ele><time>2026-04-16T08:59:07.721Z</time></trkpt><trkpt lat="43.2287095" lon="12.5795332"><ele>451.0</ele><time>2026-04-16T08:59:08.721Z</time></trkpt><trkpt lat="43.2286424" lon="12.5795061"><ele>451.0</ele><time>2026-04-16T08:59:09.72Z</time></trkpt><trkpt lat="43.2285406" lon="12.5794574"><ele>449.8</ele><time>2026-04-16T08:59:10.719Z</time></trkpt><trkpt lat="43.2284598" lon="12.5793688"><ele>448.6</ele><time>2026-04-16T08:59:11.72Z</time></trkpt><trkpt lat="43.2284008" lon="12.579271"><ele>447.4</ele><time>2026-04-16T08:59:12.721Z</time></trkpt><trkpt lat="43.2283475" lon="12.579167"><ele>446.2</ele><time>2026-04-16T08:59:13.721Z</time></trkpt><trkpt lat="43.2283116" lon="12.5790481"><ele>445.0</ele><time>2026-04-16T08:59:14.72Z</time></trkpt><trkpt lat="43.2282698" lon="12.5789349"><ele>445.00000000000006</ele><time>2026-04-16T08:59:15.721Z</time></trkpt><trkpt lat="43.2282424" lon="12.5788193"><ele>445.0</ele><time>2026-04-16T08:59:16.721Z</time></trkpt><trkpt lat="43.2282222" lon="12.5787011"><ele>445.0</ele><time>2026-04-16T08:59:17.721Z</time></trkpt><trkpt lat="43.2281944" lon="12.5785802"><ele>445.0</ele><time>2026-04-16T08:59:18.721Z</time></trkpt><trkpt lat="43.2281871" lon="12.5784694"><ele>445.00000000000006</ele><time>2026-04-16T08:59:19.721Z</time></trkpt><trkpt lat="43.2282207" lon="12.5783642"><ele>445.0</ele><time>2026-04-16T08:59:20.72Z</time></trkpt><trkpt lat="43.2282303" lon="12.5782672"><ele>445.2</ele><time>2026-04-16T08:59:21.721Z</time></trkpt><trkpt lat="43.2282716" lon="12.5780819"><ele>445.4</ele><time>2026-04-16T08:59:23.72Z</time></trkpt><trkpt lat="43.2282271" lon="12.5779987"><ele>445.6</ele><time>2026-04-16T08:59:24.72Z</time></trkpt><trkpt lat="43.2281773" lon="12.5778771"><ele>445.8</ele><time>2026-04-16T08:59:26.72Z</time></trkpt><trkpt lat="43.2280971" lon="12.5777588"><ele>446.0</ele><time>2026-04-16T08:59:28.72Z</time></trkpt><trkpt lat="43.2280581" lon="12.5776749"><ele>447.8333333333333</ele><time>2026-04-16T08:59:29.72Z</time></trkpt><trkpt lat="43.2280388" lon="12.5775739"><ele>449.66666666666663</ele><time>2026-04-16T08:59:30.72Z</time></trkpt><trkpt lat="43.2280691" lon="12.5774927"><ele>451.5</ele><time>2026-04-16T08:59:31.719Z</time></trkpt><trkpt lat="43.2280785" lon="12.5773286"><ele>453.33333333333337</ele><time>2026-04-16T08:59:33.72Z</time></trkpt><trkpt lat="43.2281119" lon="12.5771972"><ele>455.1666666666667</ele><time>2026-04-16T08:59:34.72Z</time></trkpt><trkpt lat="43.2281307" lon="12.5770891"><ele>457.0</ele><time>2026-04-16T08:59:35.719Z</time></trkpt><trkpt lat="43.2281558" lon="12.5770041"><ele>457.00000000000006</ele><time>2026-04-16T08:59:36.719Z</time></trkpt><trkpt lat="43.2281894" lon="12.5769135"><ele>457.0</ele><time>2026-04-16T08:59:37.718Z</time></trkpt><trkpt lat="43.2282189" lon="12.5768242"><ele>457.0</ele><time>2026-04-16T08:59:38.72Z</time></trkpt><trkpt lat="43.2282532" lon="12.5767066"><ele>457.0</ele><time>2026-04-16T08:59:39.719Z</time></trkpt><trkpt lat="43.2282764" lon="12.5765756"><ele>457.00000000000006</ele><time>2026-04-16T08:59:40.72Z</time></trkpt><trkpt lat="43.2282789" lon="12.5764708"><ele>457.0</ele><time>2026-04-16T08:59:41.719Z</time></trkpt><trkpt lat="43.2282684" lon="12.5763848"><ele>457.0</ele><time>2026-04-16T08:59:42.72Z</time></trkpt><trkpt lat="43.2282178" lon="12.5762435"><ele>457.00000000000006</ele><time>2026-04-16T08:59:44.719Z</time></trkpt><trkpt lat="43.228122" lon="12.5761996"><ele>457.00000000000006</ele><time>2026-04-16T08:59:46.72Z</time></trkpt><trkpt lat="43.2280288" lon="12.576292"><ele>457.0</ele><time>2026-04-16T08:59:48.719Z</time></trkpt><trkpt lat="43.2279893" lon="12.576381"><ele>457.0</ele><time>2026-04-16T08:59:49.72Z</time></trkpt><trkpt lat="43.2279465" lon="12.5764828"><ele>459.83333333333337</ele><time>2026-04-16T08:59:50.719Z</time></trkpt><trkpt lat="43.227904" lon="12.5765836"><ele>462.6666666666667</ele><time>2026-04-16T08:59:51.72Z</time></trkpt><trkpt lat="43.2278582" lon="12.5766822"><ele>465.5</ele><time>2026-04-16T08:59:52.72Z</time></trkpt><trkpt lat="43.2278123" lon="12.5767793"><ele>468.33333333333337</ele><time>2026-04-16T08:59:53.719Z</time></trkpt><trkpt lat="43.2277501" lon="12.5768595"><ele>471.1666666666667</ele><time>2026-04-16T08:59:54.72Z</time></trkpt><trkpt lat="43.2276863" lon="12.5769554"><ele>474.0</ele><time>2026-04-16T08:59:55.72Z</time></trkpt><trkpt lat="43.2276214" lon="12.5770505"><ele>474.0</ele><time>2026-04-16T08:59:56.72Z</time></trkpt><trkpt lat="43.2275732" lon="12.5771526"><ele>474.0</ele><time>2026-04-16T08:59:57.72Z</time></trkpt><trkpt lat="43.2275321" lon="12.5772383"><ele>474.0</ele><time>2026-04-16T08:59:58.72Z</time></trkpt><trkpt lat="43.2274852" lon="12.5773069"><ele>474.0</ele><time>2026-04-16T08:59:59.72Z</time></trkpt><trkpt lat="43.2274267" lon="12.5773964"><ele>474.0</ele><time>2026-04-16T09:00:00.719Z</time></trkpt><trkpt lat="43.2273773" lon="12.5774577"><ele>474.0</ele><time>2026-04-16T09:00:01.72Z</time></trkpt><trkpt lat="43.227337" lon="12.5775407"><ele>474.0</ele><time>2026-04-16T09:00:02.72Z</time></trkpt><trkpt lat="43.2273167" lon="12.5776461"><ele>474.0</ele><time>2026-04-16T09:00:03.719Z</time></trkpt><trkpt lat="43.2272997" lon="12.5777495"><ele>474.0</ele><time>2026-04-16T09:00:04.719Z</time></trkpt><trkpt lat="43.2272899" lon="12.57786"><ele>474.0</ele><time>2026-04-16T09:00:05.719Z</time></trkpt><trkpt lat="43.2272711" lon="12.5779936"><ele>474.0</ele><time>2026-04-16T09:00:06.72Z</time></trkpt><trkpt lat="43.2272485" lon="12.5780934"><ele>474.0</ele><time>2026-04-16T09:00:07.72Z</time></trkpt><trkpt lat="43.227223" lon="12.5782322"><ele>476.79999999999995</ele><time>2026-04-16T09:00:08.719Z</time></trkpt><trkpt lat="43.2271984" lon="12.5783713"><ele>479.59999999999997</ele><time>2026-04-16T09:00:09.72Z</time></trkpt><trkpt lat="43.2271721" lon="12.5785272"><ele>482.4</ele><time>2026-04-16T09:00:10.72Z</time></trkpt><trkpt lat="43.2271398" lon="12.5786681"><ele>485.2</ele><time>2026-04-16T09:00:11.72Z</time></trkpt><trkpt lat="43.2270935" lon="12.5788094"><ele>488.0</ele><time>2026-04-16T09:00:12.719Z</time></trkpt><trkpt lat="43.2270522" lon="12.5789439"><ele>487.99999999999994</ele><time>2026-04-16T09:00:13.719Z</time></trkpt><trkpt lat="43.2270163" lon="12.5790672"><ele>488.0</ele><time>2026-04-16T09:00:14.72Z</time></trkpt><trkpt lat="43.2269739" lon="12.5791647"><ele>488.0</ele><time>2026-04-16T09:00:15.72Z</time></trkpt><trkpt lat="43.2269229" lon="12.5792374"><ele>488.0</ele><time>2026-04-16T09:00:16.72Z</time></trkpt><trkpt lat="43.2268836" lon="12.579308"><ele>487.99999999999994</ele><time>2026-04-16T09:00:17.72Z</time></trkpt><trkpt lat="43.2268222" lon="12.5793562"><ele>488.0</ele><time>2026-04-16T09:00:18.719Z</time></trkpt><trkpt lat="43.2267523" lon="12.5793966"><ele>487.99999999999994</ele><time>2026-04-16T09:00:19.719Z</time></trkpt><trkpt lat="43.2266846" lon="12.5794045"><ele>488.0</ele><time>2026-04-16T09:00:20.719Z</time></trkpt><trkpt lat="43.2266206" lon="12.5793758"><ele>488.0</ele><time>2026-04-16T09:00:21.72Z</time></trkpt><trkpt lat="43.2265594" lon="12.5793354"><ele>488.0</ele><time>2026-04-16T09:00:22.72Z</time></trkpt><trkpt lat="43.2264491" lon="12.5792823"><ele>487.99999999999994</ele><time>2026-04-16T09:00:23.72Z</time></trkpt><trkpt lat="43.2263587" lon="12.5792463"><ele>488.0</ele><time>2026-04-16T09:00:24.721Z</time></trkpt><trkpt lat="43.2262498" lon="12.5792112"><ele>489.2</ele><time>2026-04-16T09:00:25.72Z</time></trkpt><trkpt lat="43.2261455" lon="12.5791591"><ele>490.4</ele><time>2026-04-16T09:00:26.72Z</time></trkpt><trkpt lat="43.2260426" lon="12.5790914"><ele>491.59999999999997</ele><time>2026-04-16T09:00:27.721Z</time></trkpt><trkpt lat="43.2259424" lon="12.5790303"><ele>492.79999999999995</ele><time>2026-04-16T09:00:28.721Z</time></trkpt><trkpt lat="43.2258388" lon="12.5789789"><ele>494.0</ele><time>2026-04-16T09:00:29.72Z</time></trkpt><trkpt lat="43.2257477" lon="12.5789528"><ele>494.0</ele><time>2026-04-16T09:00:30.72Z</time></trkpt><trkpt lat="43.225653" lon="12.5789103"><ele>494.0</ele><time>2026-04-16T09:00:31.72Z</time></trkpt><trkpt lat="43.2255634" lon="12.5788664"><ele>494.0</ele><time>2026-04-16T09:00:32.721Z</time></trkpt><trkpt lat="43.2254713" lon="12.5788248"><ele>494.0</ele><time>2026-04-16T09:00:33.718Z</time></trkpt><trkpt lat="43.2253767" lon="12.5787682"><ele>494.0</ele><time>2026-04-16T09:00:34.721Z</time></trkpt><trkpt lat="43.2252989" lon="12.5787084"><ele>496.6</ele><time>2026-04-16T09:00:35.72Z</time></trkpt><trkpt lat="43.2252355" lon="12.5786533"><ele>499.2</ele><time>2026-04-16T09:00:36.718Z</time></trkpt><trkpt lat="43.2251841" lon="12.5785799"><ele>501.80000000000007</ele><time>2026-04-16T09:00:37.72Z</time></trkpt><trkpt lat="43.2251593" lon="12.578491"><ele>504.40000000000003</ele><time>2026-04-16T09:00:38.72Z</time></trkpt><trkpt lat="43.2251819" lon="12.5783389"><ele>507.0</ele><time>2026-04-16T09:00:40.72Z</time></trkpt><trkpt lat="43.2253038" lon="12.5783167"><ele>507.0</ele><time>2026-04-16T09:00:42.72Z</time></trkpt><trkpt lat="43.2253696" lon="12.5783024"><ele>507.0</ele><time>2026-04-16T09:00:43.72Z</time></trkpt><trkpt lat="43.2254538" lon="12.578321"><ele>507.0</ele><time>2026-04-16T09:00:44.721Z</time></trkpt><trkpt lat="43.2255257" lon="12.5783216"><ele>507.0</ele><time>2026-04-16T09:00:45.72Z</time></trkpt><trkpt lat="43.2256068" lon="12.5783155"><ele>507.0</ele><time>2026-04-16T09:00:46.72Z</time></trkpt><trkpt lat="43.2257166" lon="12.5782666"><ele>507.0</ele><time>2026-04-16T09:00:48.719Z</time></trkpt><trkpt lat="43.2257834" lon="12.5782382"><ele>507.20000000000005</ele><time>2026-04-16T09:00:49.719Z</time></trkpt><trkpt lat="43.225769" lon="12.5780527"><ele>507.40000000000003</ele><time>2026-04-16T09:00:50.721Z</time></trkpt><trkpt lat="43.2257963" lon="12.5779695"><ele>507.59999999999997</ele><time>2026-04-16T09:00:51.72Z</time></trkpt><trkpt lat="43.2258111" lon="12.5778325"><ele>507.79999999999995</ele><time>2026-04-16T09:00:52.721Z</time></trkpt><trkpt lat="43.2258369" lon="12.5777056"><ele>508.0</ele><time>2026-04-16T09:00:53.72Z</time></trkpt><trkpt lat="43.2258371" lon="12.5775697"><ele>510.1666666666667</ele><time>2026-04-16T09:00:54.721Z</time></trkpt><trkpt lat="43.2258319" lon="12.5774258"><ele>512.3333333333334</ele><time>2026-04-16T09:00:55.721Z</time></trkpt><trkpt lat="43.2258302" lon="12.5773101"><ele>514.5</ele><time>2026-04-16T09:00:56.72Z</time></trkpt><trkpt lat="43.2258279" lon="12.5771868"><ele>516.6666666666666</ele><time>2026-04-16T09:00:57.721Z</time></trkpt><trkpt lat="43.2258541" lon="12.5770671"><ele>518.8333333333333</ele><time>2026-04-16T09:00:58.721Z</time></trkpt><trkpt lat="43.225871" lon="12.5769653"><ele>521.0</ele><time>2026-04-16T09:00:59.72Z</time></trkpt><trkpt lat="43.2258901" lon="12.5768468"><ele>523.0</ele><time>2026-04-16T09:01:00.719Z</time></trkpt><trkpt lat="43.2259166" lon="12.5767044"><ele>525.0</ele><time>2026-04-16T09:01:01.721Z</time></trkpt><trkpt lat="43.225945" lon="12.5765782"><ele>527.0</ele><time>2026-04-16T09:01:02.721Z</time></trkpt><trkpt lat="43.2259682" lon="12.5764408"><ele>529.0</ele><time>2026-04-16T09:01:03.719Z</time></trkpt><trkpt lat="43.2260173" lon="12.5762802"><ele>531.0</ele><time>2026-04-16T09:01:04.721Z</time></trkpt><trkpt lat="43.2260467" lon="12.5761325"><ele>533.75</ele><time>2026-04-16T09:01:05.721Z</time></trkpt><trkpt lat="43.2260775" lon="12.5759686"><ele>536.5</ele><time>2026-04-16T09:01:06.721Z</time></trkpt><trkpt lat="43.2260995" lon="12.5758059"><ele>539.25</ele><time>2026-04-16T09:01:07.721Z</time></trkpt><trkpt lat="43.2261271" lon="12.5756903"><ele>542.0</ele><time>2026-04-16T09:01:08.72Z</time></trkpt><trkpt lat="43.2262029" lon="12.5755144"><ele>542.0</ele><time>2026-04-16T09:01:10.72Z</time></trkpt><trkpt lat="43.2262394" lon="12.5754129"><ele>542.0</ele><time>2026-04-16T09:01:11.721Z</time></trkpt><trkpt lat="43.2262255" lon="12.5752819"><ele>542.0</ele><time>2026-04-16T09:01:12.721Z</time></trkpt><trkpt lat="43.2262063" lon="12.5751788"><ele>542.0</ele><time>2026-04-16T09:01:13.721Z</time></trkpt><trkpt lat="43.2261873" lon="12.5750629"><ele>542.0</ele><time>2026-04-16T09:01:14.721Z</time></trkpt><trkpt lat="43.22615" lon="12.5749588"><ele>542.0</ele><time>2026-04-16T09:01:15.721Z</time></trkpt><trkpt lat="43.2260989" lon="12.5748645"><ele>542.4</ele><time>2026-04-16T09:01:16.72Z</time></trkpt><trkpt lat="43.2260369" lon="12.5747799"><ele>542.8000000000001</ele><time>2026-04-16T09:01:17.721Z</time></trkpt><trkpt lat="43.2259524" lon="12.5746985"><ele>543.2</ele><time>2026-04-16T09:01:18.721Z</time></trkpt><trkpt lat="43.2258774" lon="12.5746421"><ele>543.6</ele><time>2026-04-16T09:01:19.72Z</time></trkpt><trkpt lat="43.2258136" lon="12.5745705"><ele>544.0</ele><time>2026-04-16T09:01:20.72Z</time></trkpt><trkpt lat="43.2257225" lon="12.5744708"><ele>544.0</ele><time>2026-04-16T09:01:21.721Z</time></trkpt><trkpt lat="43.2256856" lon="12.5743428"><ele>544.0</ele><time>2026-04-16T09:01:22.721Z</time></trkpt><trkpt lat="43.2256412" lon="12.5742255"><ele>544.0</ele><time>2026-04-16T09:01:23.719Z</time></trkpt><trkpt lat="43.2255997" lon="12.5741132"><ele>544.0</ele><time>2026-04-16T09:01:24.719Z</time></trkpt><trkpt lat="43.2256067" lon="12.5739529"><ele>544.0</ele><time>2026-04-16T09:01:25.721Z</time></trkpt><trkpt lat="43.2256091" lon="12.5738186"><ele>544.8</ele><time>2026-04-16T09:01:26.72Z</time></trkpt><trkpt lat="43.2256412" lon="12.5736792"><ele>545.5999999999999</ele><time>2026-04-16T09:01:27.72Z</time></trkpt><trkpt lat="43.225675" lon="12.5735198"><ele>546.4</ele><time>2026-04-16T09:01:28.719Z</time></trkpt><trkpt lat="43.2257116" lon="12.5733796"><ele>547.1999999999999</ele><time>2026-04-16T09:01:29.72Z</time></trkpt><trkpt lat="43.2257242" lon="12.573268"><ele>548.0</ele><time>2026-04-16T09:01:30.721Z</time></trkpt><trkpt lat="43.2257431" lon="12.5731343"><ele>548.0</ele><time>2026-04-16T09:01:31.72Z</time></trkpt><trkpt lat="43.2257321" lon="12.5730249"><ele>548.0</ele><time>2026-04-16T09:01:32.72Z</time></trkpt><trkpt lat="43.2256839" lon="12.572881"><ele>548.0</ele><time>2026-04-16T09:01:34.72Z</time></trkpt><trkpt lat="43.225622" lon="12.5728273"><ele>548.0</ele><time>2026-04-16T09:01:35.721Z</time></trkpt><trkpt lat="43.2255787" lon="12.5727526"><ele>548.0</ele><time>2026-04-16T09:01:36.719Z</time></trkpt><trkpt lat="43.2255311" lon="12.5725914"><ele>548.6</ele><time>2026-04-16T09:01:37.72Z</time></trkpt><trkpt lat="43.2254674" lon="12.5725074"><ele>549.1999999999999</ele><time>2026-04-16T09:01:38.721Z</time></trkpt><trkpt lat="43.2253948" lon="12.5724227"><ele>549.8</ele><time>2026-04-16T09:01:39.719Z</time></trkpt><trkpt lat="43.2253327" lon="12.5723169"><ele>550.4</ele><time>2026-04-16T09:01:40.72Z</time></trkpt><trkpt lat="43.2252932" lon="12.5721906"><ele>551.0</ele><time>2026-04-16T09:01:41.722Z</time></trkpt><trkpt lat="43.2252127" lon="12.5720599"><ele>550.5</ele><time>2026-04-16T09:01:42.72Z</time></trkpt><trkpt lat="43.2251413" lon="12.57194"><ele>550.0</ele><time>2026-04-16T09:01:43.72Z</time></trkpt><trkpt lat="43.2249988" lon="12.5718353"><ele>549.5</ele><time>2026-04-16T09:01:44.722Z</time></trkpt><trkpt lat="43.2249297" lon="12.571733"><ele>549.0</ele><time>2026-04-16T09:01:45.72Z</time></trkpt><trkpt lat="43.2248771" lon="12.5716259"><ele>549.0</ele><time>2026-04-16T09:01:46.72Z</time></trkpt><trkpt lat="43.224813" lon="12.5715251"><ele>549.0</ele><time>2026-04-16T09:01:47.72Z</time></trkpt><trkpt lat="43.224766" lon="12.571422"><ele>549.0</ele><time>2026-04-16T09:01:48.721Z</time></trkpt><trkpt lat="43.2247038" lon="12.571299"><ele>549.0</ele><time>2026-04-16T09:01:49.72Z</time></trkpt><trkpt lat="43.2246865" lon="12.5711678"><ele>549.0</ele><time>2026-04-16T09:01:50.72Z</time></trkpt><trkpt lat="43.2246767" lon="12.5710028"><ele>552.0</ele><time>2026-04-16T09:01:51.719Z</time></trkpt><trkpt lat="43.2246733" lon="12.5708509"><ele>555.0</ele><time>2026-04-16T09:01:52.719Z</time></trkpt><trkpt lat="43.2246649" lon="12.5706953"><ele>558.0</ele><time>2026-04-16T09:01:53.72Z</time></trkpt><trkpt lat="43.2246431" lon="12.5705526"><ele>561.0</ele><time>2026-04-16T09:01:54.72Z</time></trkpt><trkpt lat="43.2246308" lon="12.57044"><ele>564.0</ele><time>2026-04-16T09:01:55.719Z</time></trkpt><trkpt lat="43.2246253" lon="12.5703273"><ele>564.0</ele><time>2026-04-16T09:01:56.72Z</time></trkpt><trkpt lat="43.2246095" lon="12.5702341"><ele>564.0</ele><time>2026-04-16T09:01:57.722Z</time></trkpt><trkpt lat="43.2245671" lon="12.5701462"><ele>564.0</ele><time>2026-04-16T09:01:59.721Z</time></trkpt><trkpt lat="43.2244911" lon="12.5702084"><ele>564.0</ele><time>2026-04-16T09:02:01.72Z</time></trkpt><trkpt lat="43.2244591" lon="12.5703066"><ele>564.0</ele><time>2026-04-16T09:02:03.72Z</time></trkpt><trkpt lat="43.224425" lon="12.5704211"><ele>564.0</ele><time>2026-04-16T09:02:04.722Z</time></trkpt><trkpt lat="43.2244204" lon="12.5706385"><ele>564.0</ele><time>2026-04-16T09:02:06.721Z</time></trkpt><trkpt lat="43.2243405" lon="12.5707385"><ele>564.0</ele><time>2026-04-16T09:02:07.721Z</time></trkpt><trkpt lat="43.2242919" lon="12.5708159"><ele>564.0</ele><time>2026-04-16T09:02:08.72Z</time></trkpt><trkpt lat="43.2242482" lon="12.5708877"><ele>564.0</ele><time>2026-04-16T09:02:09.72Z</time></trkpt><trkpt lat="43.2241834" lon="12.5708573"><ele>564.0</ele><time>2026-04-16T09:02:10.72Z</time></trkpt><trkpt lat="43.2240317" lon="12.5707975"><ele>563.3333333333334</ele><time>2026-04-16T09:02:12.72Z</time></trkpt><trkpt lat="43.2239792" lon="12.5707106"><ele>562.6666666666666</ele><time>2026-04-16T09:02:13.72Z</time></trkpt><trkpt lat="43.2238926" lon="12.5706745"><ele>562.0</ele><time>2026-04-16T09:02:14.719Z</time></trkpt><trkpt lat="43.223807" lon="12.5706256"><ele>561.3333333333333</ele><time>2026-04-16T09:02:15.72Z</time></trkpt><trkpt lat="43.2237371" lon="12.5705947"><ele>560.6666666666666</ele><time>2026-04-16T09:02:16.72Z</time></trkpt><trkpt lat="43.2236649" lon="12.5705716"><ele>560.0</ele><time>2026-04-16T09:02:17.72Z</time></trkpt><trkpt lat="43.2235957" lon="12.5705415"><ele>560.0</ele><time>2026-04-16T09:02:18.721Z</time></trkpt><trkpt lat="43.2235582" lon="12.5704402"><ele>560.0</ele><time>2026-04-16T09:02:19.721Z</time></trkpt><trkpt lat="43.2235083" lon="12.5703675"><ele>560.0</ele><time>2026-04-16T09:02:20.721Z</time></trkpt><trkpt lat="43.2234566" lon="12.5702911"><ele>560.0</ele><time>2026-04-16T09:02:21.72Z</time></trkpt><trkpt lat="43.2234605" lon="12.5701629"><ele>560.0</ele><time>2026-04-16T09:02:22.721Z</time></trkpt><trkpt lat="43.2233473" lon="12.5699674"><ele>562.2</ele><time>2026-04-16T09:02:23.721Z</time></trkpt><trkpt lat="43.2232743" lon="12.5698594"><ele>564.4</ele><time>2026-04-16T09:02:24.718Z</time></trkpt><trkpt lat="43.2232319" lon="12.5697469"><ele>566.6</ele><time>2026-04-16T09:02:25.72Z</time></trkpt><trkpt lat="43.2231695" lon="12.5696472"><ele>568.8</ele><time>2026-04-16T09:02:26.72Z</time></trkpt><trkpt lat="43.2231185" lon="12.5695234"><ele>571.0</ele><time>2026-04-16T09:02:27.719Z</time></trkpt><trkpt lat="43.2230606" lon="12.5694091"><ele>571.0</ele><time>2026-04-16T09:02:28.72Z</time></trkpt><trkpt lat="43.2230229" lon="12.5693023"><ele>571.0</ele><time>2026-04-16T09:02:29.72Z</time></trkpt><trkpt lat="43.2229907" lon="12.5691666"><ele>571.0</ele><time>2026-04-16T09:02:30.719Z</time></trkpt><trkpt lat="43.2229707" lon="12.5690432"><ele>571.0</ele><time>2026-04-16T09:02:31.719Z</time></trkpt><trkpt lat="43.2229226" lon="12.5689046"><ele>571.0</ele><time>2026-04-16T09:02:32.721Z</time></trkpt><trkpt lat="43.2228998" lon="12.5688122"><ele>571.0</ele><time>2026-04-16T09:02:33.72Z</time></trkpt><trkpt lat="43.2228538" lon="12.5687194"><ele>571.0</ele><time>2026-04-16T09:02:34.72Z</time></trkpt><trkpt lat="43.2227905" lon="12.5686397"><ele>571.0</ele><time>2026-04-16T09:02:35.719Z</time></trkpt><trkpt lat="43.2227101" lon="12.5685873"><ele>571.0</ele><time>2026-04-16T09:02:36.72Z</time></trkpt><trkpt lat="43.2226447" lon="12.5685195"><ele>571.0</ele><time>2026-04-16T09:02:37.72Z</time></trkpt><trkpt lat="43.2225628" lon="12.5684608"><ele>571.0</ele><time>2026-04-16T09:02:38.721Z</time></trkpt><trkpt lat="43.2224912" lon="12.568407"><ele>571.2</ele><time>2026-04-16T09:02:39.718Z</time></trkpt><trkpt lat="43.2224376" lon="12.5683201"><ele>571.4000000000001</ele><time>2026-04-16T09:02:40.72Z</time></trkpt><trkpt lat="43.222396" lon="12.5682266"><ele>571.6</ele><time>2026-04-16T09:02:41.72Z</time></trkpt><trkpt lat="43.2223357" lon="12.5681283"><ele>571.8000000000001</ele><time>2026-04-16T09:02:42.72Z</time></trkpt><trkpt lat="43.2222637" lon="12.5680262"><ele>572.0</ele><time>2026-04-16T09:02:43.72Z</time></trkpt><trkpt lat="43.2222102" lon="12.5679183"><ele>575.6</ele><time>2026-04-16T09:02:44.72Z</time></trkpt><trkpt lat="43.22215" lon="12.5678317"><ele>579.2</ele><time>2026-04-16T09:02:45.72Z</time></trkpt><trkpt lat="43.2220804" lon="12.5677754"><ele>582.8</ele><time>2026-04-16T09:02:46.72Z</time></trkpt><trkpt lat="43.2220134" lon="12.5677127"><ele>586.4</ele><time>2026-04-16T09:02:47.719Z</time></trkpt><trkpt lat="43.2219769" lon="12.567624"><ele>590.0</ele><time>2026-04-16T09:02:48.72Z</time></trkpt><trkpt lat="43.2219229" lon="12.5674611"><ele>590.0</ele><time>2026-04-16T09:02:50.72Z</time></trkpt><trkpt lat="43.221914" lon="12.5672979"><ele>590.0</ele><time>2026-04-16T09:02:52.719Z</time></trkpt><trkpt lat="43.2219226" lon="12.5671988"><ele>590.0</ele><time>2026-04-16T09:02:53.72Z</time></trkpt><trkpt lat="43.221923" lon="12.5671066"><ele>590.0</ele><time>2026-04-16T09:02:54.719Z</time></trkpt><trkpt lat="43.2219163" lon="12.5670059"><ele>590.0</ele><time>2026-04-16T09:02:55.719Z</time></trkpt><trkpt lat="43.2219226" lon="12.5669026"><ele>590.0</ele><time>2026-04-16T09:02:56.72Z</time></trkpt><trkpt lat="43.2219221" lon="12.5668014"><ele>592.1666666666666</ele><time>2026-04-16T09:02:57.72Z</time></trkpt><trkpt lat="43.2219181" lon="12.5667025"><ele>594.3333333333333</ele><time>2026-04-16T09:02:58.72Z</time></trkpt><trkpt lat="43.2219119" lon="12.5666154"><ele>596.5</ele><time>2026-04-16T09:02:59.72Z</time></trkpt><trkpt lat="43.2219003" lon="12.5664537"><ele>598.6666666666666</ele><time>2026-04-16T09:03:01.72Z</time></trkpt><trkpt lat="43.2218977" lon="12.5663653"><ele>600.8333333333334</ele><time>2026-04-16T09:03:03.72Z</time></trkpt><trkpt lat="43.2219696" lon="12.5663454"><ele>603.0</ele><time>2026-04-16T09:03:49.719Z</time></trkpt><trkpt lat="43.2220648" lon="12.5663542"><ele>603.0</ele><time>2026-04-16T09:03:51.72Z</time></trkpt><trkpt lat="43.2221375" lon="12.5663619"><ele>603.0</ele><time>2026-04-16T09:03:52.72Z</time></trkpt><trkpt lat="43.2222059" lon="12.5663696"><ele>603.0</ele><time>2026-04-16T09:03:53.721Z</time></trkpt><trkpt lat="43.2222737" lon="12.5664103"><ele>603.0</ele><time>2026-04-16T09:03:54.72Z</time></trkpt><trkpt lat="43.2223162" lon="12.5664867"><ele>603.0</ele><time>2026-04-16T09:03:55.721Z</time></trkpt><trkpt lat="43.2223292" lon="12.5665765"><ele>603.0</ele><time>2026-04-16T09:03:56.72Z</time></trkpt><trkpt lat="43.222365" lon="12.5666837"><ele>603.0</ele><time>2026-04-16T09:03:57.721Z</time></trkpt><trkpt lat="43.2223947" lon="12.5667659"><ele>604.1666666666666</ele><time>2026-04-16T09:03:58.72Z</time></trkpt><trkpt lat="43.2224133" lon="12.5668612"><ele>605.3333333333334</ele><time>2026-04-16T09:03:59.72Z</time></trkpt><trkpt lat="43.222476" lon="12.5669088"><ele>606.5</ele><time>2026-04-16T09:04:00.72Z</time></trkpt><trkpt lat="43.2225353" lon="12.5669873"><ele>607.6666666666667</ele><time>2026-04-16T09:04:01.719Z</time></trkpt><trkpt lat="43.2226212" lon="12.5670345"><ele>608.8333333333334</ele><time>2026-04-16T09:04:02.719Z</time></trkpt><trkpt lat="43.2227059" lon="12.5670979"><ele>610.0</ele><time>2026-04-16T09:04:03.721Z</time></trkpt><trkpt lat="43.2227836" lon="12.5671313"><ele>610.0</ele><time>2026-04-16T09:04:04.719Z</time></trkpt><trkpt lat="43.2228567" lon="12.5671532"><ele>610.0</ele><time>2026-04-16T09:04:05.72Z</time></trkpt><trkpt lat="43.2229338" lon="12.567191"><ele>610.0</ele><time>2026-04-16T09:04:06.72Z</time></trkpt><trkpt lat="43.2230385" lon="12.5672242"><ele>610.0</ele><time>2026-04-16T09:04:07.72Z</time></trkpt><trkpt lat="43.2231336" lon="12.5672272"><ele>610.0</ele><time>2026-04-16T09:04:08.721Z</time></trkpt><trkpt lat="43.2232329" lon="12.5672106"><ele>611.2</ele><time>2026-04-16T09:04:09.719Z</time></trkpt><trkpt lat="43.2233113" lon="12.5671271"><ele>612.4</ele><time>2026-04-16T09:04:10.72Z</time></trkpt><trkpt lat="43.2233886" lon="12.5670498"><ele>613.6</ele><time>2026-04-16T09:04:11.72Z</time></trkpt><trkpt lat="43.2234765" lon="12.5669497"><ele>614.8</ele><time>2026-04-16T09:04:12.72Z</time></trkpt><trkpt lat="43.223549" lon="12.5668586"><ele>616.0</ele><time>2026-04-16T09:04:13.721Z</time></trkpt><trkpt lat="43.2236405" lon="12.5667501"><ele>615.75</ele><time>2026-04-16T09:04:14.72Z</time></trkpt><trkpt lat="43.2237312" lon="12.5666367"><ele>615.5</ele><time>2026-04-16T09:04:15.721Z</time></trkpt><trkpt lat="43.2238278" lon="12.5665296"><ele>615.25</ele><time>2026-04-16T09:04:16.72Z</time></trkpt><trkpt lat="43.2239431" lon="12.566421"><ele>615.0</ele><time>2026-04-16T09:04:17.721Z</time></trkpt><trkpt lat="43.2240239" lon="12.5662899"><ele>617.25</ele><time>2026-04-16T09:04:18.721Z</time></trkpt><trkpt lat="43.2241019" lon="12.5661414"><ele>619.5</ele><time>2026-04-16T09:04:19.72Z</time></trkpt><trkpt lat="43.2241831" lon="12.5659715"><ele>621.75</ele><time>2026-04-16T09:04:20.72Z</time></trkpt><trkpt lat="43.2242635" lon="12.5657919"><ele>624.0</ele><time>2026-04-16T09:04:21.721Z</time></trkpt><trkpt lat="43.2243423" lon="12.5656125"><ele>624.0</ele><time>2026-04-16T09:04:22.72Z</time></trkpt><trkpt lat="43.224403" lon="12.5654505"><ele>624.0</ele><time>2026-04-16T09:04:23.72Z</time></trkpt><trkpt lat="43.2244833" lon="12.5653032"><ele>624.0</ele><time>2026-04-16T09:04:24.72Z</time></trkpt><trkpt lat="43.2245539" lon="12.5651727"><ele>624.0</ele><time>2026-04-16T09:04:25.72Z</time></trkpt><trkpt lat="43.2246376" lon="12.5650644"><ele>625.5</ele><time>2026-04-16T09:04:26.721Z</time></trkpt><trkpt lat="43.2247403" lon="12.5649917"><ele>627.0</ele><time>2026-04-16T09:04:27.72Z</time></trkpt><trkpt lat="43.2248603" lon="12.5649751"><ele>628.5</ele><time>2026-04-16T09:04:28.721Z</time></trkpt><trkpt lat="43.2249795" lon="12.5649878"><ele>630.0</ele><time>2026-04-16T09:04:29.721Z</time></trkpt><trkpt lat="43.2250773" lon="12.5650372"><ele>632.0</ele><time>2026-04-16T09:04:30.721Z</time></trkpt><trkpt lat="43.2251734" lon="12.5651261"><ele>634.0</ele><time>2026-04-16T09:04:31.721Z</time></trkpt><trkpt lat="43.2252769" lon="12.5652111"><ele>636.0</ele><time>2026-04-16T09:04:32.721Z</time></trkpt><trkpt lat="43.2253862" lon="12.5652689"><ele>638.0</ele><time>2026-04-16T09:04:33.72Z</time></trkpt><trkpt lat="43.2254933" lon="12.5652868"><ele>638.0</ele><time>2026-04-16T09:04:34.72Z</time></trkpt><trkpt lat="43.2256148" lon="12.565282"><ele>638.0</ele><time>2026-04-16T09:04:35.721Z</time></trkpt><trkpt lat="43.2257262" lon="12.5651898"><ele>638.0</ele><time>2026-04-16T09:04:36.72Z</time></trkpt><trkpt lat="43.2258374" lon="12.5651131"><ele>638.0</ele><time>2026-04-16T09:04:37.72Z</time></trkpt><trkpt lat="43.2259697" lon="12.5649786"><ele>638.75</ele><time>2026-04-16T09:04:38.721Z</time></trkpt><trkpt lat="43.2260773" lon="12.5648718"><ele>639.5</ele><time>2026-04-16T09:04:39.72Z</time></trkpt><trkpt lat="43.2261892" lon="12.5647638"><ele>640.25</ele><time>2026-04-16T09:04:40.719Z</time></trkpt><trkpt lat="43.2262856" lon="12.5646248"><ele>641.0</ele><time>2026-04-16T09:04:41.721Z</time></trkpt><trkpt lat="43.2263722" lon="12.5644578"><ele>642.6666666666666</ele><time>2026-04-16T09:04:42.72Z</time></trkpt><trkpt lat="43.2264877" lon="12.5642744"><ele>644.3333333333334</ele><time>2026-04-16T09:04:43.72Z</time></trkpt><trkpt lat="43.2265985" lon="12.5641145"><ele>646.0</ele><time>2026-04-16T09:04:44.72Z</time></trkpt><trkpt lat="43.2267025" lon="12.563948"><ele>646.0</ele><time>2026-04-16T09:04:45.719Z</time></trkpt><trkpt lat="43.2267817" lon="12.5637985"><ele>646.0</ele><time>2026-04-16T09:04:46.722Z</time></trkpt><trkpt lat="43.2268822" lon="12.5636534"><ele>646.0</ele><time>2026-04-16T09:04:47.72Z</time></trkpt><trkpt lat="43.2269784" lon="12.5634594"><ele>647.5999999999999</ele><time>2026-04-16T09:04:48.719Z</time></trkpt><trkpt lat="43.227054" lon="12.5633602"><ele>649.2</ele><time>2026-04-16T09:04:49.72Z</time></trkpt><trkpt lat="43.2271285" lon="12.5632368"><ele>650.8</ele><time>2026-04-16T09:04:50.719Z</time></trkpt><trkpt lat="43.2271681" lon="12.5631356"><ele>652.4000000000001</ele><time>2026-04-16T09:04:51.72Z</time></trkpt><trkpt lat="43.2272316" lon="12.5630161"><ele>654.0</ele><time>2026-04-16T09:04:52.72Z</time></trkpt><trkpt lat="43.227269" lon="12.5629082"><ele>655.0</ele><time>2026-04-16T09:04:53.721Z</time></trkpt><trkpt lat="43.2272919" lon="12.5627899"><ele>656.0</ele><time>2026-04-16T09:04:54.719Z</time></trkpt><trkpt lat="43.2273333" lon="12.5626714"><ele>657.0</ele><time>2026-04-16T09:04:55.721Z</time></trkpt><trkpt lat="43.2273689" lon="12.5625881"><ele>658.0</ele><time>2026-04-16T09:04:56.72Z</time></trkpt><trkpt lat="43.2273679" lon="12.5624529"><ele>659.0</ele><time>2026-04-16T09:04:57.721Z</time></trkpt><trkpt lat="43.227378" lon="12.5623222"><ele>656.6666666666666</ele><time>2026-04-16T09:04:58.72Z</time></trkpt><trkpt lat="43.2274046" lon="12.5621907"><ele>654.3333333333333</ele><time>2026-04-16T09:04:59.72Z</time></trkpt><trkpt lat="43.2274168" lon="12.5620698"><ele>652.0</ele><time>2026-04-16T09:05:00.72Z</time></trkpt><trkpt lat="43.2274299" lon="12.5619553"><ele>649.6666666666666</ele><time>2026-04-16T09:05:01.72Z</time></trkpt><trkpt lat="43.2274323" lon="12.5618379"><ele>647.3333333333334</ele><time>2026-04-16T09:05:02.72Z</time></trkpt><trkpt lat="43.2274368" lon="12.5617269"><ele>645.0</ele><time>2026-04-16T09:05:03.72Z</time></trkpt><trkpt lat="43.2274498" lon="12.5616156"><ele>645.0</ele><time>2026-04-16T09:05:04.719Z</time></trkpt><trkpt lat="43.227424" lon="12.5615326"><ele>645.0</ele><time>2026-04-16T09:05:05.72Z</time></trkpt><trkpt lat="43.2274312" lon="12.561432"><ele>645.0</ele><time>2026-04-16T09:05:06.719Z</time></trkpt><trkpt lat="43.2274354" lon="12.5613328"><ele>645.0</ele><time>2026-04-16T09:05:07.72Z</time></trkpt><trkpt lat="43.2274502" lon="12.5612337"><ele>645.0</ele><time>2026-04-16T09:05:08.721Z</time></trkpt><trkpt lat="43.2274857" lon="12.5610841"><ele>645.0</ele><time>2026-04-16T09:05:09.721Z</time></trkpt><trkpt lat="43.2275065" lon="12.5609523"><ele>646.25</ele><time>2026-04-16T09:05:10.72Z</time></trkpt><trkpt lat="43.2275322" lon="12.560731"><ele>647.5</ele><time>2026-04-16T09:05:11.72Z</time></trkpt><trkpt lat="43.2275645" lon="12.5605398"><ele>648.75</ele><time>2026-04-16T09:05:12.72Z</time></trkpt><trkpt lat="43.2276037" lon="12.5603513"><ele>650.0</ele><time>2026-04-16T09:05:13.719Z</time></trkpt><trkpt lat="43.2276698" lon="12.5601427"><ele>650.0</ele><time>2026-04-16T09:05:14.72Z</time></trkpt><trkpt lat="43.2277413" lon="12.5599574"><ele>650.0</ele><time>2026-04-16T09:05:15.719Z</time></trkpt><trkpt lat="43.2278205" lon="12.5598019"><ele>650.0</ele><time>2026-04-16T09:05:16.722Z</time></trkpt><trkpt lat="43.2279184" lon="12.5596441"><ele>650.0</ele><time>2026-04-16T09:05:17.72Z</time></trkpt><trkpt lat="43.2280321" lon="12.559496"><ele>649.75</ele><time>2026-04-16T09:05:18.721Z</time></trkpt><trkpt lat="43.2281036" lon="12.5594115"><ele>649.5</ele><time>2026-04-16T09:05:19.721Z</time></trkpt><trkpt lat="43.228213" lon="12.5592897"><ele>649.25</ele><time>2026-04-16T09:05:20.718Z</time></trkpt><trkpt lat="43.2283211" lon="12.5592066"><ele>649.0</ele><time>2026-04-16T09:05:21.719Z</time></trkpt><trkpt lat="43.2284137" lon="12.5591708"><ele>650.2</ele><time>2026-04-16T09:05:22.72Z</time></trkpt><trkpt lat="43.22852" lon="12.5591896"><ele>651.4000000000001</ele><time>2026-04-16T09:05:23.72Z</time></trkpt><trkpt lat="43.2286151" lon="12.5592039"><ele>652.6</ele><time>2026-04-16T09:05:24.72Z</time></trkpt><trkpt lat="43.2287333" lon="12.5592063"><ele>653.8</ele><time>2026-04-16T09:05:25.72Z</time></trkpt><trkpt lat="43.2288611" lon="12.5592009"><ele>655.0</ele><time>2026-04-16T09:05:26.72Z</time></trkpt><trkpt lat="43.2289872" lon="12.5591922"><ele>655.25</ele><time>2026-04-16T09:05:27.719Z</time></trkpt><trkpt lat="43.2291216" lon="12.5591513"><ele>655.5</ele><time>2026-04-16T09:05:28.719Z</time></trkpt><trkpt lat="43.229256" lon="12.559132"><ele>655.75</ele><time>2026-04-16T09:05:29.72Z</time></trkpt><trkpt lat="43.2293915" lon="12.5590805"><ele>656.0</ele><time>2026-04-16T09:05:30.719Z</time></trkpt><trkpt lat="43.2295122" lon="12.5590243"><ele>656.0</ele><time>2026-04-16T09:05:31.72Z</time></trkpt><trkpt lat="43.2296272" lon="12.5589673"><ele>656.0</ele><time>2026-04-16T09:05:32.72Z</time></trkpt><trkpt lat="43.2297236" lon="12.558917"><ele>656.0</ele><time>2026-04-16T09:05:33.72Z</time></trkpt><trkpt lat="43.2298281" lon="12.5588658"><ele>656.0</ele><time>2026-04-16T09:05:34.72Z</time></trkpt><trkpt lat="43.2299447" lon="12.5588283"><ele>656.4</ele><time>2026-04-16T09:05:36.72Z</time></trkpt><trkpt lat="43.2300157" lon="12.558782"><ele>656.8</ele><time>2026-04-16T09:05:38.719Z</time></trkpt><trkpt lat="43.2300998" lon="12.5587594"><ele>657.1999999999999</ele><time>2026-04-16T09:05:41.719Z</time></trkpt><trkpt lat="43.2302223" lon="12.5588057"><ele>657.5999999999999</ele><time>2026-04-16T09:05:43.719Z</time></trkpt><trkpt lat="43.2302995" lon="12.5588393"><ele>658.0</ele><time>2026-04-16T09:05:44.719Z</time></trkpt><trkpt lat="43.2303891" lon="12.5588852"><ele>658.0</ele><time>2026-04-16T09:05:45.72Z</time></trkpt><trkpt lat="43.2304845" lon="12.5589269"><ele>658.0</ele><time>2026-04-16T09:05:46.72Z</time></trkpt><trkpt lat="43.2306145" lon="12.5589994"><ele>658.0</ele><time>2026-04-16T09:05:47.721Z</time></trkpt><trkpt lat="43.2307421" lon="12.5590625"><ele>658.0</ele><time>2026-04-16T09:05:48.72Z</time></trkpt><trkpt lat="43.2308875" lon="12.5591376"><ele>656.6666666666667</ele><time>2026-04-16T09:05:49.72Z</time></trkpt><trkpt lat="43.231047" lon="12.5591956"><ele>655.3333333333334</ele><time>2026-04-16T09:05:50.72Z</time></trkpt><trkpt lat="43.231209" lon="12.5592694"><ele>654.0</ele><time>2026-04-16T09:05:51.72Z</time></trkpt><trkpt lat="43.2313874" lon="12.559343"><ele>655.0</ele><time>2026-04-16T09:05:52.72Z</time></trkpt><trkpt lat="43.2315559" lon="12.5594131"><ele>656.0</ele><time>2026-04-16T09:05:53.72Z</time></trkpt><trkpt lat="43.2317211" lon="12.5594931"><ele>657.0</ele><time>2026-04-16T09:05:54.72Z</time></trkpt><trkpt lat="43.2318783" lon="12.5595649"><ele>653.0</ele><time>2026-04-16T09:05:55.719Z</time></trkpt><trkpt lat="43.23205" lon="12.559623"><ele>649.0</ele><time>2026-04-16T09:05:56.72Z</time></trkpt><trkpt lat="43.2322481" lon="12.5596601"><ele>645.0</ele><time>2026-04-16T09:05:57.719Z</time></trkpt><trkpt lat="43.2324488" lon="12.5596744"><ele>645.0</ele><time>2026-04-16T09:05:58.719Z</time></trkpt><trkpt lat="43.232659" lon="12.5596848"><ele>645.0</ele><time>2026-04-16T09:05:59.72Z</time></trkpt><trkpt lat="43.232888" lon="12.5596936"><ele>645.0</ele><time>2026-04-16T09:06:00.721Z</time></trkpt><trkpt lat="43.2331004" lon="12.5596986"><ele>645.6666666666666</ele><time>2026-04-16T09:06:01.72Z</time></trkpt><trkpt lat="43.2333137" lon="12.5597229"><ele>646.3333333333333</ele><time>2026-04-16T09:06:02.72Z</time></trkpt><trkpt lat="43.2335088" lon="12.5597657"><ele>647.0</ele><time>2026-04-16T09:06:03.721Z</time></trkpt><trkpt lat="43.2337027" lon="12.5598449"><ele>647.0</ele><time>2026-04-16T09:06:04.72Z</time></trkpt><trkpt lat="43.2338845" lon="12.5599557"><ele>647.0</ele><time>2026-04-16T09:06:05.72Z</time></trkpt><trkpt lat="43.2340843" lon="12.5600953"><ele>647.0</ele><time>2026-04-16T09:06:06.721Z</time></trkpt><trkpt lat="43.2342748" lon="12.5601894"><ele>649.0</ele><time>2026-04-16T09:06:07.72Z</time></trkpt><trkpt lat="43.2344796" lon="12.5602517"><ele>651.0</ele><time>2026-04-16T09:06:08.719Z</time></trkpt><trkpt lat="43.2346768" lon="12.5602382"><ele>653.0</ele><time>2026-04-16T09:06:09.719Z</time></trkpt><trkpt lat="43.2348615" lon="12.5601898"><ele>653.0</ele><time>2026-04-16T09:06:10.721Z</time></trkpt><trkpt lat="43.2350457" lon="12.5601475"><ele>653.0</ele><time>2026-04-16T09:06:11.72Z</time></trkpt><trkpt lat="43.2352232" lon="12.5601028"><ele>653.0</ele><time>2026-04-16T09:06:12.72Z</time></trkpt><trkpt lat="43.2353978" lon="12.5600878"><ele>653.0</ele><time>2026-04-16T09:06:13.72Z</time></trkpt><trkpt lat="43.2355517" lon="12.5602392"><ele>653.0</ele><time>2026-04-16T09:06:14.72Z</time></trkpt><trkpt lat="43.2357378" lon="12.5602991"><ele>653.0</ele><time>2026-04-16T09:06:15.72Z</time></trkpt><trkpt lat="43.2359018" lon="12.5604131"><ele>651.0</ele><time>2026-04-16T09:06:16.719Z</time></trkpt><trkpt lat="43.2360124" lon="12.560443"><ele>649.0</ele><time>2026-04-16T09:06:17.721Z</time></trkpt><trkpt lat="43.2361411" lon="12.56049"><ele>647.0</ele><time>2026-04-16T09:06:18.719Z</time></trkpt><trkpt lat="43.2362526" lon="12.5604838"><ele>645.0</ele><time>2026-04-16T09:06:19.721Z</time></trkpt><trkpt lat="43.2363354" lon="12.5603356"><ele>645.0</ele><time>2026-04-16T09:06:20.721Z</time></trkpt><trkpt lat="43.2363878" lon="12.5601841"><ele>645.0</ele><time>2026-04-16T09:06:21.721Z</time></trkpt><trkpt lat="43.2364428" lon="12.5600362"><ele>645.0</ele><time>2026-04-16T09:06:22.72Z</time></trkpt><trkpt lat="43.2364809" lon="12.5598619"><ele>645.0</ele><time>2026-04-16T09:06:23.72Z</time></trkpt><trkpt lat="43.2364828" lon="12.5596369"><ele>646.6666666666666</ele><time>2026-04-16T09:06:24.72Z</time></trkpt><trkpt lat="43.2364669" lon="12.5593449"><ele>648.3333333333333</ele><time>2026-04-16T09:06:25.72Z</time></trkpt><trkpt lat="43.2364531" lon="12.5591029"><ele>650.0</ele><time>2026-04-16T09:06:26.72Z</time></trkpt><trkpt lat="43.2364778" lon="12.5588557"><ele>641.6666666666666</ele><time>2026-04-16T09:06:27.72Z</time></trkpt><trkpt lat="43.2364742" lon="12.5586195"><ele>633.3333333333334</ele><time>2026-04-16T09:06:28.72Z</time></trkpt><trkpt lat="43.2364915" lon="12.5583684"><ele>625.0</ele><time>2026-04-16T09:06:29.721Z</time></trkpt><trkpt lat="43.2364983" lon="12.5581474"><ele>625.0</ele><time>2026-04-16T09:06:30.72Z</time></trkpt><trkpt lat="43.2365104" lon="12.5579202"><ele>625.0</ele><time>2026-04-16T09:06:31.72Z</time></trkpt><trkpt lat="43.2365509" lon="12.5576834"><ele>625.0</ele><time>2026-04-16T09:06:32.721Z</time></trkpt><trkpt lat="43.2366667" lon="12.5574546"><ele>625.3333333333334</ele><time>2026-04-16T09:06:33.72Z</time></trkpt><trkpt lat="43.2367651" lon="12.5572414"><ele>625.6666666666666</ele><time>2026-04-16T09:06:34.72Z</time></trkpt><trkpt lat="43.2368808" lon="12.5570153"><ele>626.0</ele><time>2026-04-16T09:06:35.72Z</time></trkpt><trkpt lat="43.2370815" lon="12.5568909"><ele>628.3333333333333</ele><time>2026-04-16T09:06:36.72Z</time></trkpt><trkpt lat="43.2372228" lon="12.5566791"><ele>630.6666666666666</ele><time>2026-04-16T09:06:37.72Z</time></trkpt><trkpt lat="43.2373355" lon="12.5564211"><ele>633.0</ele><time>2026-04-16T09:06:38.72Z</time></trkpt><trkpt lat="43.2374377" lon="12.5561558"><ele>626.3333333333334</ele><time>2026-04-16T09:06:39.72Z</time></trkpt><trkpt lat="43.2375328" lon="12.555897"><ele>619.6666666666667</ele><time>2026-04-16T09:06:40.72Z</time></trkpt><trkpt lat="43.2376265" lon="12.5556527"><ele>613.0</ele><time>2026-04-16T09:06:41.72Z</time></trkpt><trkpt lat="43.2376258" lon="12.5554337"><ele>612.75</ele><time>2026-04-16T09:06:42.72Z</time></trkpt><trkpt lat="43.2376241" lon="12.5552384"><ele>612.5</ele><time>2026-04-16T09:06:43.72Z</time></trkpt><trkpt lat="43.2375617" lon="12.5550637"><ele>612.25</ele><time>2026-04-16T09:06:44.72Z</time></trkpt><trkpt lat="43.2374631" lon="12.554908"><ele>612.0</ele><time>2026-04-16T09:06:45.72Z</time></trkpt><trkpt lat="43.2373539" lon="12.5547655"><ele>612.0</ele><time>2026-04-16T09:06:46.72Z</time></trkpt><trkpt lat="43.2373271" lon="12.5546314"><ele>612.0</ele><time>2026-04-16T09:06:47.72Z</time></trkpt><trkpt lat="43.2372751" lon="12.5544903"><ele>612.0</ele><time>2026-04-16T09:06:48.718Z</time></trkpt><trkpt lat="43.2374173" lon="12.5543633"><ele>612.0</ele><time>2026-04-16T09:06:49.721Z</time></trkpt><trkpt lat="43.2375084" lon="12.5542965"><ele>612.0</ele><time>2026-04-16T09:06:50.72Z</time></trkpt><trkpt lat="43.2375796" lon="12.5542315"><ele>612.0</ele><time>2026-04-16T09:06:51.72Z</time></trkpt><trkpt lat="43.237685" lon="12.5544861"><ele>612.0</ele><time>2026-04-16T09:06:52.72Z</time></trkpt><trkpt lat="43.2377928" lon="12.5546271"><ele>612.0</ele><time>2026-04-16T09:06:53.72Z</time></trkpt><trkpt lat="43.2379215" lon="12.5547611"><ele>612.0</ele><time>2026-04-16T09:06:54.72Z</time></trkpt><trkpt lat="43.2380492" lon="12.5548932"><ele>612.0</ele><time>2026-04-16T09:06:55.721Z</time></trkpt><trkpt lat="43.238172" lon="12.555034"><ele>612.0</ele><time>2026-04-16T09:06:56.72Z</time></trkpt><trkpt lat="43.2382918" lon="12.5551726"><ele>608.0</ele><time>2026-04-16T09:06:57.719Z</time></trkpt><trkpt lat="43.2384124" lon="12.5552729"><ele>604.0</ele><time>2026-04-16T09:06:58.72Z</time></trkpt><trkpt lat="43.2385511" lon="12.5553571"><ele>600.0</ele><time>2026-04-16T09:06:59.72Z</time></trkpt><trkpt lat="43.2387037" lon="12.5554049"><ele>596.0</ele><time>2026-04-16T09:07:00.72Z</time></trkpt><trkpt lat="43.2388581" lon="12.5554093"><ele>594.3333333333333</ele><time>2026-04-16T09:07:01.72Z</time></trkpt><trkpt lat="43.2390232" lon="12.5554076"><ele>592.6666666666666</ele><time>2026-04-16T09:07:02.721Z</time></trkpt><trkpt lat="43.2392305" lon="12.5553733"><ele>591.0</ele><time>2026-04-16T09:07:03.72Z</time></trkpt><trkpt lat="43.2394109" lon="12.5553122"><ele>588.6666666666666</ele><time>2026-04-16T09:07:04.72Z</time></trkpt><trkpt lat="43.2395932" lon="12.5552088"><ele>586.3333333333333</ele><time>2026-04-16T09:07:05.719Z</time></trkpt><trkpt lat="43.2397599" lon="12.5550956"><ele>584.0</ele><time>2026-04-16T09:07:06.72Z</time></trkpt><trkpt lat="43.239944" lon="12.5550117"><ele>581.3333333333333</ele><time>2026-04-16T09:07:07.719Z</time></trkpt><trkpt lat="43.2401433" lon="12.554964"><ele>578.6666666666666</ele><time>2026-04-16T09:07:08.72Z</time></trkpt><trkpt lat="43.240353" lon="12.5549657"><ele>576.0</ele><time>2026-04-16T09:07:09.719Z</time></trkpt><trkpt lat="43.2405802" lon="12.5549876"><ele>572.5</ele><time>2026-04-16T09:07:10.72Z</time></trkpt><trkpt lat="43.2408258" lon="12.5550005"><ele>569.0</ele><time>2026-04-16T09:07:11.72Z</time></trkpt><trkpt lat="43.2410653" lon="12.5550138"><ele>569.0</ele><time>2026-04-16T09:07:12.719Z</time></trkpt><trkpt lat="43.2413223" lon="12.5550241"><ele>569.0</ele><time>2026-04-16T09:07:13.719Z</time></trkpt><trkpt lat="43.2415773" lon="12.5550553"><ele>567.0</ele><time>2026-04-16T09:07:14.72Z</time></trkpt><trkpt lat="43.2418423" lon="12.5550547"><ele>565.0</ele><time>2026-04-16T09:07:15.719Z</time></trkpt><trkpt lat="43.242107" lon="12.5550491"><ele>563.5</ele><time>2026-04-16T09:07:16.72Z</time></trkpt><trkpt lat="43.2423791" lon="12.5550253"><ele>562.0</ele><time>2026-04-16T09:07:17.72Z</time></trkpt><trkpt lat="43.2426511" lon="12.5549807"><ele>562.0</ele><time>2026-04-16T09:07:18.72Z</time></trkpt><trkpt lat="43.2429102" lon="12.5549219"><ele>562.0</ele><time>2026-04-16T09:07:19.719Z</time></trkpt><trkpt lat="43.2431615" lon="12.5548946"><ele>563.0</ele><time>2026-04-16T09:07:20.72Z</time></trkpt><trkpt lat="43.2434075" lon="12.5549097"><ele>564.0</ele><time>2026-04-16T09:07:21.72Z</time></trkpt><trkpt lat="43.2436584" lon="12.554954"><ele>564.0</ele><time>2026-04-16T09:07:22.719Z</time></trkpt><trkpt lat="43.2438945" lon="12.5550829"><ele>564.0</ele><time>2026-04-16T09:07:23.72Z</time></trkpt><trkpt lat="43.2441329" lon="12.5552261"><ele>566.5</ele><time>2026-04-16T09:07:24.72Z</time></trkpt><trkpt lat="43.24437" lon="12.555365"><ele>569.0</ele><time>2026-04-16T09:07:25.72Z</time></trkpt><trkpt lat="43.2446068" lon="12.5554867"><ele>572.0</ele><time>2026-04-16T09:07:26.72Z</time></trkpt><trkpt lat="43.2448502" lon="12.5555842"><ele>575.0</ele><time>2026-04-16T09:07:27.719Z</time></trkpt><trkpt lat="43.2451024" lon="12.5556363"><ele>575.0</ele><time>2026-04-16T09:07:28.72Z</time></trkpt><trkpt lat="43.2453525" lon="12.5556559"><ele>575.0</ele><time>2026-04-16T09:07:29.721Z</time></trkpt><trkpt lat="43.2456025" lon="12.555682"><ele>578.0</ele><time>2026-04-16T09:07:30.72Z</time></trkpt><trkpt lat="43.2458542" lon="12.5556984"><ele>581.0</ele><time>2026-04-16T09:07:31.719Z</time></trkpt><trkpt lat="43.2461079" lon="12.555718"><ele>581.0</ele><time>2026-04-16T09:07:32.718Z</time></trkpt><trkpt lat="43.2463603" lon="12.5557277"><ele>581.0</ele><time>2026-04-16T09:07:33.719Z</time></trkpt><trkpt lat="43.2466185" lon="12.5557509"><ele>581.5</ele><time>2026-04-16T09:07:34.72Z</time></trkpt><trkpt lat="43.2468791" lon="12.5557494"><ele>582.0</ele><time>2026-04-16T09:07:35.72Z</time></trkpt><trkpt lat="43.2471341" lon="12.5557726"><ele>582.0</ele><time>2026-04-16T09:07:36.719Z</time></trkpt><trkpt lat="43.2473989" lon="12.5557854"><ele>582.0</ele><time>2026-04-16T09:07:37.719Z</time></trkpt><trkpt lat="43.2476603" lon="12.5558131"><ele>582.0</ele><time>2026-04-16T09:07:38.72Z</time></trkpt><trkpt lat="43.2479261" lon="12.5558198"><ele>582.0</ele><time>2026-04-16T09:07:39.719Z</time></trkpt><trkpt lat="43.2481839" lon="12.5558443"><ele>584.0</ele><time>2026-04-16T09:07:40.719Z</time></trkpt><trkpt lat="43.2484431" lon="12.555863"><ele>586.0</ele><time>2026-04-16T09:07:41.719Z</time></trkpt><trkpt lat="43.2487023" lon="12.5558875"><ele>591.5</ele><time>2026-04-16T09:07:42.72Z</time></trkpt><trkpt lat="43.2489645" lon="12.5558888"><ele>597.0</ele><time>2026-04-16T09:07:43.72Z</time></trkpt><trkpt lat="43.2492157" lon="12.5559076"><ele>597.0</ele><time>2026-04-16T09:07:44.72Z</time></trkpt><trkpt lat="43.2494611" lon="12.5559194"><ele>597.0</ele><time>2026-04-16T09:07:45.721Z</time></trkpt><trkpt lat="43.2497075" lon="12.5559531"><ele>598.5</ele><time>2026-04-16T09:07:46.72Z</time></trkpt><trkpt lat="43.2499479" lon="12.5560214"><ele>600.0</ele><time>2026-04-16T09:07:47.72Z</time></trkpt><trkpt lat="43.2501717" lon="12.5561307"><ele>595.5</ele><time>2026-04-16T09:07:48.72Z</time></trkpt><trkpt lat="43.2503973" lon="12.5562813"><ele>591.0</ele><time>2026-04-16T09:07:49.719Z</time></trkpt><trkpt lat="43.2506104" lon="12.5564622"><ele>596.5</ele><time>2026-04-16T09:07:50.72Z</time></trkpt><trkpt lat="43.2508107" lon="12.5566532"><ele>602.0</ele><time>2026-04-16T09:07:51.72Z</time></trkpt><trkpt lat="43.2510051" lon="12.5568488"><ele>599.0</ele><time>2026-04-16T09:07:52.72Z</time></trkpt><trkpt lat="43.2511921" lon="12.5570477"><ele>596.0</ele><time>2026-04-16T09:07:53.72Z</time></trkpt><trkpt lat="43.2513812" lon="12.5572408"><ele>603.5</ele><time>2026-04-16T09:07:54.718Z</time></trkpt><trkpt lat="43.2515688" lon="12.5574504"><ele>611.0</ele><time>2026-04-16T09:07:55.719Z</time></trkpt><trkpt lat="43.2517305" lon="12.5576726"><ele>609.0</ele><time>2026-04-16T09:07:56.72Z</time></trkpt><trkpt lat="43.2518822" lon="12.5579129"><ele>607.0</ele><time>2026-04-16T09:07:57.72Z</time></trkpt><trkpt lat="43.2520343" lon="12.5581747"><ele>607.0</ele><time>2026-04-16T09:07:58.721Z</time></trkpt><trkpt lat="43.2521787" lon="12.5584336"><ele>607.0</ele><time>2026-04-16T09:07:59.72Z</time></trkpt><trkpt lat="43.2523199" lon="12.5587028"><ele>611.5</ele><time>2026-04-16T09:08:00.72Z</time></trkpt><trkpt lat="43.2524564" lon="12.5590014"><ele>616.0</ele><time>2026-04-16T09:08:01.721Z</time></trkpt><trkpt lat="43.25257" lon="12.5592957"><ele>615.0</ele><time>2026-04-16T09:08:02.72Z</time></trkpt><trkpt lat="43.2526678" lon="12.5595822"><ele>614.0</ele><time>2026-04-16T09:08:03.719Z</time></trkpt><trkpt lat="43.2527664" lon="12.5598502"><ele>613.0</ele><time>2026-04-16T09:08:04.72Z</time></trkpt><trkpt lat="43.2528713" lon="12.5600915"><ele>613.0</ele><time>2026-04-16T09:08:05.721Z</time></trkpt><trkpt lat="43.2529769" lon="12.5602842"><ele>613.0</ele><time>2026-04-16T09:08:06.72Z</time></trkpt><trkpt lat="43.2531071" lon="12.5604219"><ele>613.0</ele><time>2026-04-16T09:08:07.72Z</time></trkpt><trkpt lat="43.2532641" lon="12.5604966"><ele>613.0</ele><time>2026-04-16T09:08:08.719Z</time></trkpt><trkpt lat="43.2534433" lon="12.5605019"><ele>613.0</ele><time>2026-04-16T09:08:09.72Z</time></trkpt><trkpt lat="43.253639" lon="12.5604629"><ele>613.0</ele><time>2026-04-16T09:08:10.72Z</time></trkpt><trkpt lat="43.2538515" lon="12.5604218"><ele>615.5</ele><time>2026-04-16T09:08:11.72Z</time></trkpt><trkpt lat="43.254079" lon="12.5604148"><ele>618.0</ele><time>2026-04-16T09:08:12.72Z</time></trkpt><trkpt lat="43.254327" lon="12.5604257"><ele>618.0</ele><time>2026-04-16T09:08:13.72Z</time></trkpt><trkpt lat="43.2545714" lon="12.5604507"><ele>618.0</ele><time>2026-04-16T09:08:14.72Z</time></trkpt><trkpt lat="43.2548164" lon="12.5604904"><ele>619.5</ele><time>2026-04-16T09:08:15.72Z</time></trkpt><trkpt lat="43.2550637" lon="12.5604987"><ele>621.0</ele><time>2026-04-16T09:08:16.72Z</time></trkpt><trkpt lat="43.2553097" lon="12.5604949"><ele>621.0</ele><time>2026-04-16T09:08:17.72Z</time></trkpt><trkpt lat="43.2555519" lon="12.5604574"><ele>621.0</ele><time>2026-04-16T09:08:18.72Z</time></trkpt><trkpt lat="43.2557878" lon="12.560413"><ele>636.0</ele><time>2026-04-16T09:08:19.719Z</time></trkpt><trkpt lat="43.2560223" lon="12.5603652"><ele>651.0</ele><time>2026-04-16T09:08:20.72Z</time></trkpt><trkpt lat="43.2562396" lon="12.560365"><ele>645.5</ele><time>2026-04-16T09:08:21.72Z</time></trkpt><trkpt lat="43.2564041" lon="12.5607009"><ele>640.0</ele><time>2026-04-16T09:08:22.719Z</time></trkpt><trkpt lat="43.2565746" lon="12.5609064"><ele>640.0</ele><time>2026-04-16T09:08:23.72Z</time></trkpt><trkpt lat="43.256745" lon="12.561109"><ele>640.0</ele><time>2026-04-16T09:08:24.721Z</time></trkpt><trkpt lat="43.2568994" lon="12.5613231"><ele>640.0</ele><time>2026-04-16T09:08:25.72Z</time></trkpt><trkpt lat="43.2570323" lon="12.5615627"><ele>639.3333333333334</ele><time>2026-04-16T09:08:26.72Z</time></trkpt><trkpt lat="43.2571538" lon="12.5617854"><ele>638.6666666666666</ele><time>2026-04-16T09:08:27.72Z</time></trkpt><trkpt lat="43.2572915" lon="12.5619749"><ele>638.0</ele><time>2026-04-16T09:08:28.72Z</time></trkpt><trkpt lat="43.2574397" lon="12.5621568"><ele>638.0</ele><time>2026-04-16T09:08:29.719Z</time></trkpt><trkpt lat="43.2576268" lon="12.5622836"><ele>638.0</ele><time>2026-04-16T09:08:30.72Z</time></trkpt><trkpt lat="43.2578129" lon="12.5624005"><ele>638.0</ele><time>2026-04-16T09:08:31.72Z</time></trkpt><trkpt lat="43.2580096" lon="12.5624503"><ele>640.0</ele><time>2026-04-16T09:08:32.72Z</time></trkpt><trkpt lat="43.2582083" lon="12.5624108"><ele>642.0</ele><time>2026-04-16T09:08:33.72Z</time></trkpt><trkpt lat="43.2584137" lon="12.5623172"><ele>644.0</ele><time>2026-04-16T09:08:34.72Z</time></trkpt><trkpt lat="43.2586152" lon="12.5622081"><ele>644.0</ele><time>2026-04-16T09:08:35.72Z</time></trkpt><trkpt lat="43.2588182" lon="12.5620698"><ele>644.0</ele><time>2026-04-16T09:08:36.721Z</time></trkpt><trkpt lat="43.2590199" lon="12.5619647"><ele>644.0</ele><time>2026-04-16T09:08:37.72Z</time></trkpt><trkpt lat="43.2592171" lon="12.5618644"><ele>649.6666666666666</ele><time>2026-04-16T09:08:38.719Z</time></trkpt><trkpt lat="43.2594327" lon="12.5618624"><ele>655.3333333333334</ele><time>2026-04-16T09:08:39.721Z</time></trkpt><trkpt lat="43.2596469" lon="12.5618645"><ele>661.0</ele><time>2026-04-16T09:08:40.72Z</time></trkpt><trkpt lat="43.259849" lon="12.5619939"><ele>654.0</ele><time>2026-04-16T09:08:41.719Z</time></trkpt><trkpt lat="43.2600531" lon="12.5621005"><ele>647.0</ele><time>2026-04-16T09:08:42.721Z</time></trkpt><trkpt lat="43.2602658" lon="12.5622789"><ele>647.0</ele><time>2026-04-16T09:08:43.72Z</time></trkpt><trkpt lat="43.2604552" lon="12.5624319"><ele>647.0</ele><time>2026-04-16T09:08:44.72Z</time></trkpt><trkpt lat="43.2606245" lon="12.562589"><ele>647.0</ele><time>2026-04-16T09:08:45.719Z</time></trkpt><trkpt lat="43.2608068" lon="12.5627182"><ele>649.3333333333333</ele><time>2026-04-16T09:08:46.72Z</time></trkpt><trkpt lat="43.2609809" lon="12.5628484"><ele>651.6666666666666</ele><time>2026-04-16T09:08:47.72Z</time></trkpt><trkpt lat="43.2612054" lon="12.5628659"><ele>654.0</ele><time>2026-04-16T09:08:48.721Z</time></trkpt><trkpt lat="43.2614203" lon="12.5628838"><ele>654.5</ele><time>2026-04-16T09:08:49.719Z</time></trkpt><trkpt lat="43.2616634" lon="12.5629094"><ele>655.0</ele><time>2026-04-16T09:08:50.719Z</time></trkpt><trkpt lat="43.2618927" lon="12.5629851"><ele>655.0</ele><time>2026-04-16T09:08:51.721Z</time></trkpt><trkpt lat="43.2621371" lon="12.5630979"><ele>655.0</ele><time>2026-04-16T09:08:52.718Z</time></trkpt><trkpt lat="43.2623798" lon="12.5632115"><ele>651.5</ele><time>2026-04-16T09:08:53.72Z</time></trkpt><trkpt lat="43.262599" lon="12.5633843"><ele>648.0</ele><time>2026-04-16T09:08:54.721Z</time></trkpt><trkpt lat="43.2628265" lon="12.5634988"><ele>648.0</ele><time>2026-04-16T09:08:55.72Z</time></trkpt><trkpt lat="43.2630456" lon="12.5636278"><ele>648.0</ele><time>2026-04-16T09:08:56.719Z</time></trkpt><trkpt lat="43.263254" lon="12.5637611"><ele>644.3333333333334</ele><time>2026-04-16T09:08:57.72Z</time></trkpt><trkpt lat="43.263457" lon="12.563896"><ele>640.6666666666667</ele><time>2026-04-16T09:08:58.721Z</time></trkpt><trkpt lat="43.2636536" lon="12.564027"><ele>637.0</ele><time>2026-04-16T09:08:59.721Z</time></trkpt><trkpt lat="43.2638491" lon="12.5641216"><ele>638.0</ele><time>2026-04-16T09:09:00.721Z</time></trkpt><trkpt lat="43.2640675" lon="12.5641806"><ele>639.0</ele><time>2026-04-16T09:09:01.72Z</time></trkpt><trkpt lat="43.2642887" lon="12.564183"><ele>640.0</ele><time>2026-04-16T09:09:02.72Z</time></trkpt><trkpt lat="43.2645222" lon="12.5641566"><ele>640.0</ele><time>2026-04-16T09:09:03.72Z</time></trkpt><trkpt lat="43.2647665" lon="12.5641386"><ele>640.0</ele><time>2026-04-16T09:09:04.719Z</time></trkpt><trkpt lat="43.2650119" lon="12.5641517"><ele>642.0</ele><time>2026-04-16T09:09:05.72Z</time></trkpt><trkpt lat="43.2652413" lon="12.5641732"><ele>644.0</ele><time>2026-04-16T09:09:06.72Z</time></trkpt><trkpt lat="43.265469" lon="12.5642229"><ele>646.0</ele><time>2026-04-16T09:09:07.72Z</time></trkpt><trkpt lat="43.2656688" lon="12.5643751"><ele>648.0</ele><time>2026-04-16T09:09:08.721Z</time></trkpt><trkpt lat="43.2658819" lon="12.5645545"><ele>648.0</ele><time>2026-04-16T09:09:09.72Z</time></trkpt><trkpt lat="43.2660786" lon="12.5647612"><ele>648.0</ele><time>2026-04-16T09:09:10.721Z</time></trkpt><trkpt lat="43.2662856" lon="12.564964"><ele>643.0</ele><time>2026-04-16T09:09:11.72Z</time></trkpt><trkpt lat="43.2665146" lon="12.5651582"><ele>638.0</ele><time>2026-04-16T09:09:12.721Z</time></trkpt><trkpt lat="43.2667212" lon="12.5653369"><ele>642.0</ele><time>2026-04-16T09:09:13.72Z</time></trkpt><trkpt lat="43.2669337" lon="12.5654873"><ele>646.0</ele><time>2026-04-16T09:09:14.72Z</time></trkpt><trkpt lat="43.2671577" lon="12.5655652"><ele>646.0</ele><time>2026-04-16T09:09:15.72Z</time></trkpt><trkpt lat="43.2673729" lon="12.5655652"><ele>646.0</ele><time>2026-04-16T09:09:16.72Z</time></trkpt><trkpt lat="43.2675954" lon="12.5654712"><ele>646.0</ele><time>2026-04-16T09:09:17.72Z</time></trkpt><trkpt lat="43.2678106" lon="12.565313"><ele>643.0</ele><time>2026-04-16T09:09:18.721Z</time></trkpt><trkpt lat="43.2680328" lon="12.5651313"><ele>640.0</ele><time>2026-04-16T09:09:19.72Z</time></trkpt><trkpt lat="43.2682698" lon="12.5649227"><ele>640.0</ele><time>2026-04-16T09:09:20.72Z</time></trkpt><trkpt lat="43.2684807" lon="12.5647298"><ele>640.0</ele><time>2026-04-16T09:09:21.72Z</time></trkpt><trkpt lat="43.2686837" lon="12.5645567"><ele>641.3333333333334</ele><time>2026-04-16T09:09:22.72Z</time></trkpt><trkpt lat="43.2688658" lon="12.5643891"><ele>642.6666666666666</ele><time>2026-04-16T09:09:23.72Z</time></trkpt><trkpt lat="43.2690413" lon="12.5642451"><ele>644.0</ele><time>2026-04-16T09:09:24.718Z</time></trkpt><trkpt lat="43.2692213" lon="12.5641011"><ele>644.0</ele><time>2026-04-16T09:09:25.72Z</time></trkpt><trkpt lat="43.269418" lon="12.5640798"><ele>644.0</ele><time>2026-04-16T09:09:26.72Z</time></trkpt><trkpt lat="43.2696688" lon="12.5641397"><ele>644.3333333333333</ele><time>2026-04-16T09:09:27.721Z</time></trkpt><trkpt lat="43.2698752" lon="12.5641463"><ele>644.6666666666666</ele><time>2026-04-16T09:09:28.719Z</time></trkpt><trkpt lat="43.270093" lon="12.5641894"><ele>645.0</ele><time>2026-04-16T09:09:29.72Z</time></trkpt><trkpt lat="43.2703124" lon="12.5642366"><ele>645.0</ele><time>2026-04-16T09:09:30.721Z</time></trkpt><trkpt lat="43.2704829" lon="12.5643245"><ele>645.0</ele><time>2026-04-16T09:09:31.721Z</time></trkpt><trkpt lat="43.2706665" lon="12.5644726"><ele>645.0</ele><time>2026-04-16T09:09:32.72Z</time></trkpt><trkpt lat="43.2707233" lon="12.564726"><ele>644.5</ele><time>2026-04-16T09:09:33.72Z</time></trkpt><trkpt lat="43.2708563" lon="12.5649259"><ele>644.0</ele><time>2026-04-16T09:09:34.72Z</time></trkpt><trkpt lat="43.2709911" lon="12.5652418"><ele>648.3333333333333</ele><time>2026-04-16T09:09:35.72Z</time></trkpt><trkpt lat="43.2711021" lon="12.5655071"><ele>652.6666666666666</ele><time>2026-04-16T09:09:36.72Z</time></trkpt><trkpt lat="43.2712115" lon="12.5656978"><ele>657.0</ele><time>2026-04-16T09:09:37.72Z</time></trkpt><trkpt lat="43.2713723" lon="12.565808"><ele>652.0</ele><time>2026-04-16T09:09:38.719Z</time></trkpt><trkpt lat="43.2715724" lon="12.565845"><ele>647.0</ele><time>2026-04-16T09:09:39.719Z</time></trkpt><trkpt lat="43.2717784" lon="12.56581"><ele>642.0</ele><time>2026-04-16T09:09:40.719Z</time></trkpt><trkpt lat="43.2720129" lon="12.5657424"><ele>642.0</ele><time>2026-04-16T09:09:41.72Z</time></trkpt><trkpt lat="43.2722464" lon="12.5656648"><ele>642.0</ele><time>2026-04-16T09:09:42.721Z</time></trkpt><trkpt lat="43.2724597" lon="12.5655874"><ele>642.0</ele><time>2026-04-16T09:09:43.72Z</time></trkpt><trkpt lat="43.2726751" lon="12.5655414"><ele>642.0</ele><time>2026-04-16T09:09:44.719Z</time></trkpt><trkpt lat="43.272876" lon="12.5654925"><ele>642.0</ele><time>2026-04-16T09:09:45.721Z</time></trkpt><trkpt lat="43.2730553" lon="12.5654809"><ele>640.6666666666666</ele><time>2026-04-16T09:09:46.72Z</time></trkpt><trkpt lat="43.2732317" lon="12.5654879"><ele>639.3333333333333</ele><time>2026-04-16T09:09:47.719Z</time></trkpt><trkpt lat="43.2733852" lon="12.5655135"><ele>638.0</ele><time>2026-04-16T09:09:48.721Z</time></trkpt><trkpt lat="43.2735219" lon="12.5655814"><ele>638.0</ele><time>2026-04-16T09:09:49.721Z</time></trkpt><trkpt lat="43.2736578" lon="12.5656649"><ele>638.0</ele><time>2026-04-16T09:09:50.719Z</time></trkpt><trkpt lat="43.2738076" lon="12.565797"><ele>638.0</ele><time>2026-04-16T09:09:51.721Z</time></trkpt><trkpt lat="43.2739634" lon="12.565924"><ele>639.3333333333333</ele><time>2026-04-16T09:09:52.721Z</time></trkpt><trkpt lat="43.274162" lon="12.5660404"><ele>640.6666666666666</ele><time>2026-04-16T09:09:53.72Z</time></trkpt><trkpt lat="43.2743608" lon="12.5661682"><ele>642.0</ele><time>2026-04-16T09:09:54.72Z</time></trkpt><trkpt lat="43.2745518" lon="12.5662846"><ele>636.3333333333334</ele><time>2026-04-16T09:09:55.722Z</time></trkpt><trkpt lat="43.2747292" lon="12.5664106"><ele>630.6666666666667</ele><time>2026-04-16T09:09:56.72Z</time></trkpt><trkpt lat="43.2748996" lon="12.5665234"><ele>625.0</ele><time>2026-04-16T09:09:57.719Z</time></trkpt><trkpt lat="43.2750631" lon="12.5666029"><ele>625.0</ele><time>2026-04-16T09:09:58.72Z</time></trkpt><trkpt lat="43.2752098" lon="12.5666643"><ele>625.0</ele><time>2026-04-16T09:09:59.72Z</time></trkpt><trkpt lat="43.2753663" lon="12.5666817"><ele>625.0</ele><time>2026-04-16T09:10:00.721Z</time></trkpt><trkpt lat="43.2755367" lon="12.5666739"><ele>622.0</ele><time>2026-04-16T09:10:01.72Z</time></trkpt><trkpt lat="43.2757142" lon="12.5666409"><ele>619.0</ele><time>2026-04-16T09:10:02.72Z</time></trkpt><trkpt lat="43.2759106" lon="12.5666055"><ele>616.0</ele><time>2026-04-16T09:10:03.721Z</time></trkpt><trkpt lat="43.2761205" lon="12.5665608"><ele>616.0</ele><time>2026-04-16T09:10:04.719Z</time></trkpt><trkpt lat="43.2763391" lon="12.5665518"><ele>616.0</ele><time>2026-04-16T09:10:05.72Z</time></trkpt><trkpt lat="43.2765444" lon="12.5665565"><ele>616.0</ele><time>2026-04-16T09:10:06.72Z</time></trkpt><trkpt lat="43.2767415" lon="12.5665645"><ele>613.3333333333334</ele><time>2026-04-16T09:10:07.72Z</time></trkpt><trkpt lat="43.2768999" lon="12.5667395"><ele>610.6666666666666</ele><time>2026-04-16T09:10:08.722Z</time></trkpt><trkpt lat="43.2770489" lon="12.5668648"><ele>608.0</ele><time>2026-04-16T09:10:09.72Z</time></trkpt><trkpt lat="43.2771841" lon="12.5670226"><ele>604.0</ele><time>2026-04-16T09:10:10.721Z</time></trkpt><trkpt lat="43.2773441" lon="12.5671685"><ele>600.0</ele><time>2026-04-16T09:10:11.72Z</time></trkpt><trkpt lat="43.2774834" lon="12.5673207"><ele>596.0</ele><time>2026-04-16T09:10:12.72Z</time></trkpt><trkpt lat="43.2776456" lon="12.56747"><ele>596.0</ele><time>2026-04-16T09:10:13.719Z</time></trkpt><trkpt lat="43.2778173" lon="12.5676215"><ele>596.0</ele><time>2026-04-16T09:10:14.72Z</time></trkpt><trkpt lat="43.2779982" lon="12.5677779"><ele>596.0</ele><time>2026-04-16T09:10:15.72Z</time></trkpt><trkpt lat="43.2782014" lon="12.5679119"><ele>592.0</ele><time>2026-04-16T09:10:16.719Z</time></trkpt><trkpt lat="43.2783893" lon="12.5680524"><ele>588.0</ele><time>2026-04-16T09:10:17.721Z</time></trkpt><trkpt lat="43.2785711" lon="12.5681974"><ele>584.0</ele><time>2026-04-16T09:10:18.72Z</time></trkpt><trkpt lat="43.2787561" lon="12.568347"><ele>585.0</ele><time>2026-04-16T09:10:19.718Z</time></trkpt><trkpt lat="43.2789344" lon="12.568489"><ele>586.0</ele><time>2026-04-16T09:10:20.72Z</time></trkpt><trkpt lat="43.2791011" lon="12.5686238"><ele>587.0</ele><time>2026-04-16T09:10:21.72Z</time></trkpt><trkpt lat="43.2792658" lon="12.5687454"><ele>583.0</ele><time>2026-04-16T09:10:22.72Z</time></trkpt><trkpt lat="43.279444" lon="12.5688241"><ele>579.0</ele><time>2026-04-16T09:10:23.72Z</time></trkpt><trkpt lat="43.2796338" lon="12.5688953"><ele>575.0</ele><time>2026-04-16T09:10:24.721Z</time></trkpt><trkpt lat="43.2798344" lon="12.5689151"><ele>574.3333333333333</ele><time>2026-04-16T09:10:25.72Z</time></trkpt><trkpt lat="43.2800311" lon="12.5688953"><ele>573.6666666666666</ele><time>2026-04-16T09:10:26.72Z</time></trkpt><trkpt lat="43.2802392" lon="12.5688868"><ele>573.0</ele><time>2026-04-16T09:10:27.72Z</time></trkpt><trkpt lat="43.2804486" lon="12.5688802"><ele>571.0</ele><time>2026-04-16T09:10:28.72Z</time></trkpt><trkpt lat="43.2806385" lon="12.5689001"><ele>569.0</ele><time>2026-04-16T09:10:29.72Z</time></trkpt><trkpt lat="43.2808192" lon="12.5689249"><ele>567.0</ele><time>2026-04-16T09:10:30.72Z</time></trkpt><trkpt lat="43.2810171" lon="12.5690516"><ele>567.0</ele><time>2026-04-16T09:10:31.718Z</time></trkpt><trkpt lat="43.2812132" lon="12.5692305"><ele>567.0</ele><time>2026-04-16T09:10:32.719Z</time></trkpt><trkpt lat="43.2813733" lon="12.5694607"><ele>566.3333333333334</ele><time>2026-04-16T09:10:33.72Z</time></trkpt><trkpt lat="43.2815385" lon="12.5696819"><ele>565.6666666666667</ele><time>2026-04-16T09:10:34.72Z</time></trkpt><trkpt lat="43.281655" lon="12.5699268"><ele>565.0</ele><time>2026-04-16T09:10:35.72Z</time></trkpt><trkpt lat="43.2817597" lon="12.5701806"><ele>563.0</ele><time>2026-04-16T09:10:36.719Z</time></trkpt><trkpt lat="43.2818298" lon="12.5704378"><ele>561.0</ele><time>2026-04-16T09:10:37.72Z</time></trkpt><trkpt lat="43.2818805" lon="12.5706764"><ele>559.0</ele><time>2026-04-16T09:10:38.72Z</time></trkpt><trkpt lat="43.2819537" lon="12.570906"><ele>559.0</ele><time>2026-04-16T09:10:39.72Z</time></trkpt><trkpt lat="43.2820448" lon="12.5711379"><ele>559.0</ele><time>2026-04-16T09:10:40.719Z</time></trkpt><trkpt lat="43.2821789" lon="12.5713586"><ele>559.0</ele><time>2026-04-16T09:10:41.719Z</time></trkpt><trkpt lat="43.282345" lon="12.5715676"><ele>561.3333333333334</ele><time>2026-04-16T09:10:42.721Z</time></trkpt><trkpt lat="43.2825134" lon="12.5717731"><ele>563.6666666666666</ele><time>2026-04-16T09:10:43.719Z</time></trkpt><trkpt lat="43.2826831" lon="12.5719561"><ele>566.0</ele><time>2026-04-16T09:10:44.719Z</time></trkpt><trkpt lat="43.2828542" lon="12.572134"><ele>563.6666666666666</ele><time>2026-04-16T09:10:45.719Z</time></trkpt><trkpt lat="43.283031" lon="12.5722804"><ele>561.3333333333334</ele><time>2026-04-16T09:10:46.72Z</time></trkpt><trkpt lat="43.2832262" lon="12.5723939"><ele>559.0</ele><time>2026-04-16T09:10:47.721Z</time></trkpt><trkpt lat="43.2834279" lon="12.5724886"><ele>559.0</ele><time>2026-04-16T09:10:48.719Z</time></trkpt><trkpt lat="43.2836804" lon="12.5725287"><ele>559.0</ele><time>2026-04-16T09:10:49.721Z</time></trkpt><trkpt lat="43.2839412" lon="12.5725709"><ele>555.5</ele><time>2026-04-16T09:10:50.721Z</time></trkpt><trkpt lat="43.2841773" lon="12.5726228"><ele>552.0</ele><time>2026-04-16T09:10:51.72Z</time></trkpt><trkpt lat="43.2844273" lon="12.5726731"><ele>552.0</ele><time>2026-04-16T09:10:52.721Z</time></trkpt><trkpt lat="43.284655" lon="12.5727454"><ele>552.0</ele><time>2026-04-16T09:10:53.72Z</time></trkpt><trkpt lat="43.2848813" lon="12.5728491"><ele>545.0</ele><time>2026-04-16T09:10:54.719Z</time></trkpt><trkpt lat="43.2850949" lon="12.5729479"><ele>538.0</ele><time>2026-04-16T09:10:55.72Z</time></trkpt><trkpt lat="43.2852877" lon="12.5730665"><ele>531.0</ele><time>2026-04-16T09:10:56.72Z</time></trkpt><trkpt lat="43.2854553" lon="12.5732385"><ele>529.0</ele><time>2026-04-16T09:10:57.72Z</time></trkpt><trkpt lat="43.2856221" lon="12.5734201"><ele>527.0</ele><time>2026-04-16T09:10:58.719Z</time></trkpt><trkpt lat="43.2857586" lon="12.5737118"><ele>527.0</ele><time>2026-04-16T09:10:59.721Z</time></trkpt><trkpt lat="43.2859087" lon="12.5739496"><ele>527.0</ele><time>2026-04-16T09:11:00.721Z</time></trkpt><trkpt lat="43.2860293" lon="12.5741958"><ele>527.0</ele><time>2026-04-16T09:11:01.719Z</time></trkpt><trkpt lat="43.2861549" lon="12.5744421"><ele>523.6666666666666</ele><time>2026-04-16T09:11:02.72Z</time></trkpt><trkpt lat="43.28628" lon="12.5746423"><ele>520.3333333333334</ele><time>2026-04-16T09:11:03.721Z</time></trkpt><trkpt lat="43.2863927" lon="12.5748037"><ele>517.0</ele><time>2026-04-16T09:11:04.72Z</time></trkpt><trkpt lat="43.2865176" lon="12.5748971"><ele>517.0</ele><time>2026-04-16T09:11:05.72Z</time></trkpt><trkpt lat="43.2866435" lon="12.5749206"><ele>517.0</ele><time>2026-04-16T09:11:06.721Z</time></trkpt><trkpt lat="43.2867791" lon="12.574846"><ele>517.0</ele><time>2026-04-16T09:11:07.72Z</time></trkpt><trkpt lat="43.2869098" lon="12.5747613"><ele>517.0</ele><time>2026-04-16T09:11:08.72Z</time></trkpt><trkpt lat="43.2870222" lon="12.5745061"><ele>521.3333333333334</ele><time>2026-04-16T09:11:09.719Z</time></trkpt><trkpt lat="43.2871356" lon="12.5742753"><ele>525.6666666666666</ele><time>2026-04-16T09:11:10.72Z</time></trkpt><trkpt lat="43.2872155" lon="12.5739688"><ele>530.0</ele><time>2026-04-16T09:11:11.721Z</time></trkpt><trkpt lat="43.2873086" lon="12.5736982"><ele>522.3333333333333</ele><time>2026-04-16T09:11:12.718Z</time></trkpt><trkpt lat="43.2873885" lon="12.5734036"><ele>514.6666666666666</ele><time>2026-04-16T09:11:13.721Z</time></trkpt><trkpt lat="43.2873101" lon="12.5732336"><ele>507.0</ele><time>2026-04-16T09:11:14.722Z</time></trkpt><trkpt lat="43.2873961" lon="12.5730777"><ele>507.0</ele><time>2026-04-16T09:11:15.721Z</time></trkpt><trkpt lat="43.287465" lon="12.5729207"><ele>507.0</ele><time>2026-04-16T09:11:16.721Z</time></trkpt><trkpt lat="43.2875453" lon="12.5727713"><ele>507.0</ele><time>2026-04-16T09:11:17.719Z</time></trkpt><trkpt lat="43.28778" lon="12.5730117"><ele>507.0</ele><time>2026-04-16T09:11:18.721Z</time></trkpt><trkpt lat="43.2879667" lon="12.5730601"><ele>507.0</ele><time>2026-04-16T09:11:19.72Z</time></trkpt><trkpt lat="43.2881721" lon="12.5731267"><ele>507.0</ele><time>2026-04-16T09:11:20.719Z</time></trkpt><trkpt lat="43.2883886" lon="12.5732038"><ele>505.33333333333337</ele><time>2026-04-16T09:11:21.719Z</time></trkpt><trkpt lat="43.2886095" lon="12.5732676"><ele>503.6666666666667</ele><time>2026-04-16T09:11:22.721Z</time></trkpt><trkpt lat="43.2888147" lon="12.5733292"><ele>502.0</ele><time>2026-04-16T09:11:23.72Z</time></trkpt><trkpt lat="43.2890144" lon="12.5733933"><ele>499.0</ele><time>2026-04-16T09:11:24.72Z</time></trkpt><trkpt lat="43.2892006" lon="12.5735375"><ele>496.0</ele><time>2026-04-16T09:11:25.72Z</time></trkpt><trkpt lat="43.2893673" lon="12.5737244"><ele>493.0</ele><time>2026-04-16T09:11:26.72Z</time></trkpt><trkpt lat="43.2895369" lon="12.5739377"><ele>491.0</ele><time>2026-04-16T09:11:27.72Z</time></trkpt><trkpt lat="43.2896553" lon="12.5742143"><ele>489.0</ele><time>2026-04-16T09:11:28.72Z</time></trkpt><trkpt lat="43.289782" lon="12.5744208"><ele>487.0</ele><time>2026-04-16T09:11:29.719Z</time></trkpt><trkpt lat="43.2899178" lon="12.5746298"><ele>485.0</ele><time>2026-04-16T09:11:30.72Z</time></trkpt><trkpt lat="43.2900636" lon="12.574803"><ele>483.0</ele><time>2026-04-16T09:11:31.719Z</time></trkpt><trkpt lat="43.2902475" lon="12.5749418"><ele>481.0</ele><time>2026-04-16T09:11:32.721Z</time></trkpt><trkpt lat="43.2904497" lon="12.5750838"><ele>477.0</ele><time>2026-04-16T09:11:33.721Z</time></trkpt><trkpt lat="43.2906524" lon="12.5752415"><ele>473.0</ele><time>2026-04-16T09:11:34.72Z</time></trkpt><trkpt lat="43.290855" lon="12.5753943"><ele>473.0</ele><time>2026-04-16T09:11:35.721Z</time></trkpt><trkpt lat="43.2910564" lon="12.5755384"><ele>473.0</ele><time>2026-04-16T09:11:36.719Z</time></trkpt><trkpt lat="43.2912499" lon="12.5756959"><ele>468.66666666666663</ele><time>2026-04-16T09:11:37.72Z</time></trkpt><trkpt lat="43.2914366" lon="12.5758313"><ele>464.33333333333337</ele><time>2026-04-16T09:11:38.721Z</time></trkpt><trkpt lat="43.291626" lon="12.575968"><ele>460.0</ele><time>2026-04-16T09:11:39.72Z</time></trkpt><trkpt lat="43.2918103" lon="12.5761225"><ele>465.0</ele><time>2026-04-16T09:11:40.72Z</time></trkpt><trkpt lat="43.2919934" lon="12.5762777"><ele>470.0</ele><time>2026-04-16T09:11:41.719Z</time></trkpt><trkpt lat="43.2921908" lon="12.5764718"><ele>463.5</ele><time>2026-04-16T09:11:42.719Z</time></trkpt><trkpt lat="43.2924006" lon="12.5766484"><ele>457.0</ele><time>2026-04-16T09:11:43.719Z</time></trkpt><trkpt lat="43.2926049" lon="12.5768169"><ele>457.0</ele><time>2026-04-16T09:11:44.72Z</time></trkpt><trkpt lat="43.2928298" lon="12.576925"><ele>457.0</ele><time>2026-04-16T09:11:45.722Z</time></trkpt><trkpt lat="43.2930519" lon="12.5770556"><ele>455.0</ele><time>2026-04-16T09:11:46.719Z</time></trkpt><trkpt lat="43.2932656" lon="12.5771251"><ele>453.0</ele><time>2026-04-16T09:11:47.721Z</time></trkpt><trkpt lat="43.2934958" lon="12.5772019"><ele>453.0</ele><time>2026-04-16T09:11:48.719Z</time></trkpt><trkpt lat="43.2937458" lon="12.5772934"><ele>453.0</ele><time>2026-04-16T09:11:49.719Z</time></trkpt><trkpt lat="43.2940063" lon="12.5773492"><ele>444.0</ele><time>2026-04-16T09:11:50.72Z</time></trkpt><trkpt lat="43.2942468" lon="12.5774133"><ele>435.0</ele><time>2026-04-16T09:11:51.72Z</time></trkpt><trkpt lat="43.2944781" lon="12.5774544"><ele>435.0</ele><time>2026-04-16T09:11:52.721Z</time></trkpt><trkpt lat="43.2946997" lon="12.5775207"><ele>435.0</ele><time>2026-04-16T09:11:53.719Z</time></trkpt><trkpt lat="43.2949177" lon="12.5775808"><ele>435.0</ele><time>2026-04-16T09:11:54.719Z</time></trkpt><trkpt lat="43.2951408" lon="12.5776475"><ele>431.0</ele><time>2026-04-16T09:11:55.719Z</time></trkpt><trkpt lat="43.2953512" lon="12.5777335"><ele>427.0</ele><time>2026-04-16T09:11:56.72Z</time></trkpt><trkpt lat="43.2955757" lon="12.5778288"><ele>424.5</ele><time>2026-04-16T09:11:57.72Z</time></trkpt><trkpt lat="43.2958015" lon="12.5779504"><ele>422.0</ele><time>2026-04-16T09:11:58.72Z</time></trkpt><trkpt lat="43.2960328" lon="12.5781001"><ele>422.0</ele><time>2026-04-16T09:11:59.719Z</time></trkpt><trkpt lat="43.2962632" lon="12.5782471"><ele>422.0</ele><time>2026-04-16T09:12:00.72Z</time></trkpt><trkpt lat="43.2964828" lon="12.5783985"><ele>419.5</ele><time>2026-04-16T09:12:01.72Z</time></trkpt><trkpt lat="43.2967097" lon="12.5785555"><ele>417.0</ele><time>2026-04-16T09:12:02.721Z</time></trkpt><trkpt lat="43.2969253" lon="12.5787117"><ele>416.5</ele><time>2026-04-16T09:12:03.72Z</time></trkpt><trkpt lat="43.2971581" lon="12.5788675"><ele>416.0</ele><time>2026-04-16T09:12:04.719Z</time></trkpt><trkpt lat="43.2974019" lon="12.5790331"><ele>416.0</ele><time>2026-04-16T09:12:05.721Z</time></trkpt><trkpt lat="43.2976417" lon="12.5792176"><ele>416.0</ele><time>2026-04-16T09:12:06.719Z</time></trkpt><trkpt lat="43.2978619" lon="12.5794046"><ele>414.5</ele><time>2026-04-16T09:12:07.719Z</time></trkpt><trkpt lat="43.2980945" lon="12.5795904"><ele>413.0</ele><time>2026-04-16T09:12:08.72Z</time></trkpt><trkpt lat="43.2983256" lon="12.579768"><ele>413.0</ele><time>2026-04-16T09:12:09.72Z</time></trkpt><trkpt lat="43.2985435" lon="12.5799559"><ele>413.0</ele><time>2026-04-16T09:12:10.72Z</time></trkpt><trkpt lat="43.2987707" lon="12.5801288"><ele>413.5</ele><time>2026-04-16T09:12:11.72Z</time></trkpt><trkpt lat="43.2989857" lon="12.5803066"><ele>414.0</ele><time>2026-04-16T09:12:12.72Z</time></trkpt><trkpt lat="43.2992005" lon="12.5804739"><ele>414.0</ele><time>2026-04-16T09:12:13.719Z</time></trkpt><trkpt lat="43.2994029" lon="12.5806576"><ele>414.0</ele><time>2026-04-16T09:12:14.72Z</time></trkpt><trkpt lat="43.2996064" lon="12.5808274"><ele>417.5</ele><time>2026-04-16T09:12:15.72Z</time></trkpt><trkpt lat="43.2998144" lon="12.5809896"><ele>421.0</ele><time>2026-04-16T09:12:16.718Z</time></trkpt><trkpt lat="43.3000263" lon="12.5811637"><ele>420.6666666666667</ele><time>2026-04-16T09:12:17.72Z</time></trkpt><trkpt lat="43.3002195" lon="12.5813256"><ele>420.33333333333337</ele><time>2026-04-16T09:12:18.721Z</time></trkpt><trkpt lat="43.3004065" lon="12.581484"><ele>420.0</ele><time>2026-04-16T09:12:19.721Z</time></trkpt><trkpt lat="43.3006008" lon="12.5816112"><ele>420.0</ele><time>2026-04-16T09:12:20.72Z</time></trkpt><trkpt lat="43.3008016" lon="12.5817064"><ele>420.0</ele><time>2026-04-16T09:12:21.72Z</time></trkpt><trkpt lat="43.3010292" lon="12.5817383"><ele>420.0</ele><time>2026-04-16T09:12:22.721Z</time></trkpt><trkpt lat="43.3012582" lon="12.5816954"><ele>423.5</ele><time>2026-04-16T09:12:23.72Z</time></trkpt><trkpt lat="43.3014749" lon="12.5815778"><ele>427.0</ele><time>2026-04-16T09:12:24.719Z</time></trkpt><trkpt lat="43.3016747" lon="12.5813889"><ele>430.0</ele><time>2026-04-16T09:12:25.72Z</time></trkpt><trkpt lat="43.3018746" lon="12.5811623"><ele>433.0</ele><time>2026-04-16T09:12:26.719Z</time></trkpt><trkpt lat="43.302071" lon="12.5809205"><ele>433.5</ele><time>2026-04-16T09:12:27.72Z</time></trkpt><trkpt lat="43.3022797" lon="12.5806944"><ele>434.0</ele><time>2026-04-16T09:12:28.72Z</time></trkpt><trkpt lat="43.3024743" lon="12.5804621"><ele>435.0</ele><time>2026-04-16T09:12:29.719Z</time></trkpt><trkpt lat="43.3026108" lon="12.5802685"><ele>436.0</ele><time>2026-04-16T09:12:30.721Z</time></trkpt><trkpt lat="43.3027685" lon="12.580076"><ele>437.0</ele><time>2026-04-16T09:12:31.72Z</time></trkpt><trkpt lat="43.302942" lon="12.5798856"><ele>436.0</ele><time>2026-04-16T09:12:32.719Z</time></trkpt><trkpt lat="43.3031268" lon="12.5797129"><ele>435.0</ele><time>2026-04-16T09:12:33.72Z</time></trkpt><trkpt lat="43.3033125" lon="12.579566"><ele>434.0</ele><time>2026-04-16T09:12:34.719Z</time></trkpt><trkpt lat="43.3034952" lon="12.5794569"><ele>433.66666666666663</ele><time>2026-04-16T09:12:35.72Z</time></trkpt><trkpt lat="43.3036876" lon="12.5793613"><ele>433.33333333333337</ele><time>2026-04-16T09:12:36.72Z</time></trkpt><trkpt lat="43.3038761" lon="12.5792772"><ele>433.0</ele><time>2026-04-16T09:12:37.719Z</time></trkpt><trkpt lat="43.3040834" lon="12.5792001"><ele>431.0</ele><time>2026-04-16T09:12:38.719Z</time></trkpt><trkpt lat="43.3042853" lon="12.5791183"><ele>429.0</ele><time>2026-04-16T09:12:39.72Z</time></trkpt><trkpt lat="43.3045046" lon="12.5790318"><ele>427.0</ele><time>2026-04-16T09:12:40.719Z</time></trkpt><trkpt lat="43.3047283" lon="12.5789559"><ele>426.0</ele><time>2026-04-16T09:12:41.72Z</time></trkpt><trkpt lat="43.3049401" lon="12.5788778"><ele>425.0</ele><time>2026-04-16T09:12:42.719Z</time></trkpt><trkpt lat="43.3051488" lon="12.578812"><ele>424.0</ele><time>2026-04-16T09:12:43.721Z</time></trkpt><trkpt lat="43.3053518" lon="12.5787398"><ele>424.0</ele><time>2026-04-16T09:12:44.72Z</time></trkpt><trkpt lat="43.3055388" lon="12.5786617"><ele>424.0</ele><time>2026-04-16T09:12:45.719Z</time></trkpt><trkpt lat="43.3057193" lon="12.5785559"><ele>424.0</ele><time>2026-04-16T09:12:46.721Z</time></trkpt><trkpt lat="43.3058892" lon="12.5784348"><ele>423.33333333333337</ele><time>2026-04-16T09:12:47.721Z</time></trkpt><trkpt lat="43.3060352" lon="12.5783221"><ele>422.66666666666663</ele><time>2026-04-16T09:12:48.721Z</time></trkpt><trkpt lat="43.3061637" lon="12.5782173"><ele>422.0</ele><time>2026-04-16T09:12:49.72Z</time></trkpt><trkpt lat="43.3062963" lon="12.5781066"><ele>422.0</ele><time>2026-04-16T09:12:50.72Z</time></trkpt><trkpt lat="43.3064105" lon="12.5780226"><ele>422.0</ele><time>2026-04-16T09:12:51.72Z</time></trkpt><trkpt lat="43.3065505" lon="12.5779214"><ele>422.0</ele><time>2026-04-16T09:12:52.72Z</time></trkpt><trkpt lat="43.3066909" lon="12.577815"><ele>422.0</ele><time>2026-04-16T09:12:53.721Z</time></trkpt><trkpt lat="43.3068464" lon="12.5776961"><ele>420.3333333333333</ele><time>2026-04-16T09:12:54.72Z</time></trkpt><trkpt lat="43.3069943" lon="12.5775714"><ele>418.66666666666663</ele><time>2026-04-16T09:12:55.719Z</time></trkpt><trkpt lat="43.3071384" lon="12.5774574"><ele>417.0</ele><time>2026-04-16T09:12:56.72Z</time></trkpt><trkpt lat="43.3072548" lon="12.577347"><ele>417.0</ele><time>2026-04-16T09:12:57.722Z</time></trkpt><trkpt lat="43.3073659" lon="12.5772493"><ele>417.0</ele><time>2026-04-16T09:12:58.72Z</time></trkpt><trkpt lat="43.3074905" lon="12.5771516"><ele>417.0</ele><time>2026-04-16T09:12:59.72Z</time></trkpt><trkpt lat="43.3075794" lon="12.5770823"><ele>417.0</ele><time>2026-04-16T09:13:00.722Z</time></trkpt><trkpt lat="43.3076967" lon="12.5769937"><ele>417.0</ele><time>2026-04-16T09:13:01.72Z</time></trkpt><trkpt lat="43.3078084" lon="12.5769168"><ele>417.0</ele><time>2026-04-16T09:13:02.719Z</time></trkpt><trkpt lat="43.3078835" lon="12.5768367"><ele>417.0</ele><time>2026-04-16T09:13:03.719Z</time></trkpt><trkpt lat="43.3079841" lon="12.5767516"><ele>417.0</ele><time>2026-04-16T09:13:04.72Z</time></trkpt><trkpt lat="43.3080955" lon="12.576679"><ele>416.25</ele><time>2026-04-16T09:13:05.721Z</time></trkpt><trkpt lat="43.3082235" lon="12.5765659"><ele>415.5</ele><time>2026-04-16T09:13:06.72Z</time></trkpt><trkpt lat="43.3083149" lon="12.5764782"><ele>414.75</ele><time>2026-04-16T09:13:07.72Z</time></trkpt><trkpt lat="43.3084414" lon="12.576377"><ele>414.0</ele><time>2026-04-16T09:13:08.721Z</time></trkpt><trkpt lat="43.3085571" lon="12.5762904"><ele>414.0</ele><time>2026-04-16T09:13:09.719Z</time></trkpt><trkpt lat="43.3086761" lon="12.5762512"><ele>414.0</ele><time>2026-04-16T09:13:10.721Z</time></trkpt><trkpt lat="43.3087956" lon="12.5762168"><ele>414.0</ele><time>2026-04-16T09:13:11.72Z</time></trkpt><trkpt lat="43.308934" lon="12.5761926"><ele>414.0</ele><time>2026-04-16T09:13:12.721Z</time></trkpt><trkpt lat="43.3090724" lon="12.5761862"><ele>413.75</ele><time>2026-04-16T09:13:13.72Z</time></trkpt><trkpt lat="43.3092064" lon="12.5761738"><ele>413.5</ele><time>2026-04-16T09:13:14.72Z</time></trkpt><trkpt lat="43.3093444" lon="12.5761823"><ele>413.25</ele><time>2026-04-16T09:13:15.72Z</time></trkpt><trkpt lat="43.3094833" lon="12.576184"><ele>413.0</ele><time>2026-04-16T09:13:16.72Z</time></trkpt><trkpt lat="43.3095986" lon="12.5761792"><ele>413.0</ele><time>2026-04-16T09:13:17.72Z</time></trkpt><trkpt lat="43.3096969" lon="12.5761603"><ele>413.0</ele><time>2026-04-16T09:13:18.721Z</time></trkpt><trkpt lat="43.3097618" lon="12.5761391"><ele>413.0</ele><time>2026-04-16T09:13:19.72Z</time></trkpt><trkpt lat="43.309843" lon="12.5760227"><ele>413.0</ele><time>2026-04-16T09:13:21.72Z</time></trkpt><trkpt lat="43.3098712" lon="12.5759185"><ele>413.0</ele><time>2026-04-16T09:13:22.721Z</time></trkpt><trkpt lat="43.3098937" lon="12.5758028"><ele>413.5</ele><time>2026-04-16T09:13:23.72Z</time></trkpt><trkpt lat="43.3099251" lon="12.5756561"><ele>414.0</ele><time>2026-04-16T09:13:24.721Z</time></trkpt><trkpt lat="43.3099801" lon="12.5754766"><ele>414.5</ele><time>2026-04-16T09:13:25.721Z</time></trkpt><trkpt lat="43.3100387" lon="12.5752776"><ele>415.0</ele><time>2026-04-16T09:13:26.72Z</time></trkpt><trkpt lat="43.3100969" lon="12.5750558"><ele>415.0</ele><time>2026-04-16T09:13:27.72Z</time></trkpt><trkpt lat="43.3101468" lon="12.5748114"><ele>415.0</ele><time>2026-04-16T09:13:28.72Z</time></trkpt><trkpt lat="43.3102025" lon="12.5745703"><ele>415.0</ele><time>2026-04-16T09:13:29.72Z</time></trkpt><trkpt lat="43.3102513" lon="12.5743279"><ele>414.0</ele><time>2026-04-16T09:13:30.719Z</time></trkpt><trkpt lat="43.310302" lon="12.5740835"><ele>413.0</ele><time>2026-04-16T09:13:31.721Z</time></trkpt><trkpt lat="43.3103382" lon="12.5738277"><ele>412.0</ele><time>2026-04-16T09:13:32.72Z</time></trkpt><trkpt lat="43.3103846" lon="12.5735669"><ele>412.0</ele><time>2026-04-16T09:13:33.72Z</time></trkpt><trkpt lat="43.3104164" lon="12.5732878"><ele>412.0</ele><time>2026-04-16T09:13:34.721Z</time></trkpt><trkpt lat="43.3104325" lon="12.5729924"><ele>412.0</ele><time>2026-04-16T09:13:35.72Z</time></trkpt><trkpt lat="43.3104381" lon="12.5727135"><ele>412.6666666666667</ele><time>2026-04-16T09:13:36.72Z</time></trkpt><trkpt lat="43.3104353" lon="12.5724363"><ele>413.33333333333337</ele><time>2026-04-16T09:13:37.719Z</time></trkpt><trkpt lat="43.3104342" lon="12.5721897"><ele>414.0</ele><time>2026-04-16T09:13:38.719Z</time></trkpt><trkpt lat="43.3104415" lon="12.5719531"><ele>414.33333333333337</ele><time>2026-04-16T09:13:39.719Z</time></trkpt><trkpt lat="43.3105296" lon="12.5717551"><ele>414.6666666666667</ele><time>2026-04-16T09:13:40.72Z</time></trkpt><trkpt lat="43.3106344" lon="12.5715711"><ele>415.0</ele><time>2026-04-16T09:13:41.72Z</time></trkpt><trkpt lat="43.3107696" lon="12.5713882"><ele>415.33333333333337</ele><time>2026-04-16T09:13:42.72Z</time></trkpt><trkpt lat="43.3109306" lon="12.571213"><ele>415.66666666666663</ele><time>2026-04-16T09:13:43.719Z</time></trkpt><trkpt lat="43.311097" lon="12.5710343"><ele>416.0</ele><time>2026-04-16T09:13:44.719Z</time></trkpt><trkpt lat="43.3113063" lon="12.5708239"><ele>416.0</ele><time>2026-04-16T09:13:45.722Z</time></trkpt><trkpt lat="43.3114925" lon="12.5706392"><ele>416.0</ele><time>2026-04-16T09:13:46.719Z</time></trkpt><trkpt lat="43.3116662" lon="12.5704559"><ele>416.0</ele><time>2026-04-16T09:13:47.719Z</time></trkpt><trkpt lat="43.3118463" lon="12.5702614"><ele>416.0</ele><time>2026-04-16T09:13:48.72Z</time></trkpt><trkpt lat="43.3120382" lon="12.5700394"><ele>416.0</ele><time>2026-04-16T09:13:49.721Z</time></trkpt><trkpt lat="43.3122101" lon="12.5698464"><ele>416.0</ele><time>2026-04-16T09:13:50.718Z</time></trkpt><trkpt lat="43.3123861" lon="12.569621"><ele>416.0</ele><time>2026-04-16T09:13:51.721Z</time></trkpt><trkpt lat="43.312554" lon="12.5693739"><ele>416.0</ele><time>2026-04-16T09:13:52.72Z</time></trkpt><trkpt lat="43.3127031" lon="12.569092"><ele>416.0</ele><time>2026-04-16T09:13:53.721Z</time></trkpt><trkpt lat="43.3128107" lon="12.5688018"><ele>416.0</ele><time>2026-04-16T09:13:54.72Z</time></trkpt><trkpt lat="43.3129585" lon="12.5685037"><ele>416.0</ele><time>2026-04-16T09:13:55.721Z</time></trkpt><trkpt lat="43.3130845" lon="12.5682363"><ele>416.0</ele><time>2026-04-16T09:13:56.72Z</time></trkpt><trkpt lat="43.3131846" lon="12.567944"><ele>416.0</ele><time>2026-04-16T09:13:57.72Z</time></trkpt><trkpt lat="43.3132924" lon="12.5676553"><ele>416.5</ele><time>2026-04-16T09:13:58.721Z</time></trkpt><trkpt lat="43.3133823" lon="12.5673431"><ele>417.0</ele><time>2026-04-16T09:13:59.72Z</time></trkpt><trkpt lat="43.3134892" lon="12.5670473"><ele>418.0</ele><time>2026-04-16T09:14:00.72Z</time></trkpt><trkpt lat="43.3136367" lon="12.5667808"><ele>419.0</ele><time>2026-04-16T09:14:01.72Z</time></trkpt><trkpt lat="43.3137959" lon="12.5665233"><ele>417.5</ele><time>2026-04-16T09:14:02.721Z</time></trkpt><trkpt lat="43.3139546" lon="12.5662556"><ele>416.0</ele><time>2026-04-16T09:14:03.721Z</time></trkpt><trkpt lat="43.3141066" lon="12.5660006"><ele>416.0</ele><time>2026-04-16T09:14:04.72Z</time></trkpt><trkpt lat="43.314272" lon="12.5657593"><ele>416.0</ele><time>2026-04-16T09:14:05.721Z</time></trkpt><trkpt lat="43.3144491" lon="12.5655148"><ele>417.0</ele><time>2026-04-16T09:14:06.721Z</time></trkpt><trkpt lat="43.314618" lon="12.5652534"><ele>418.0</ele><time>2026-04-16T09:14:07.72Z</time></trkpt><trkpt lat="43.3147795" lon="12.5649875"><ele>418.0</ele><time>2026-04-16T09:14:08.718Z</time></trkpt><trkpt lat="43.3149348" lon="12.5647324"><ele>418.0</ele><time>2026-04-16T09:14:09.72Z</time></trkpt><trkpt lat="43.3150939" lon="12.5644852"><ele>419.0</ele><time>2026-04-16T09:14:10.721Z</time></trkpt><trkpt lat="43.3152381" lon="12.5642578"><ele>420.0</ele><time>2026-04-16T09:14:11.72Z</time></trkpt><trkpt lat="43.3153799" lon="12.5640254"><ele>421.0</ele><time>2026-04-16T09:14:12.72Z</time></trkpt><trkpt lat="43.3155271" lon="12.5638042"><ele>421.0</ele><time>2026-04-16T09:14:13.719Z</time></trkpt><trkpt lat="43.3156616" lon="12.5635893"><ele>421.0</ele><time>2026-04-16T09:14:14.72Z</time></trkpt><trkpt lat="43.3157761" lon="12.5633637"><ele>421.0</ele><time>2026-04-16T09:14:15.719Z</time></trkpt><trkpt lat="43.3158741" lon="12.5631147"><ele>422.0</ele><time>2026-04-16T09:14:16.72Z</time></trkpt><trkpt lat="43.3159583" lon="12.5628404"><ele>423.0</ele><time>2026-04-16T09:14:17.72Z</time></trkpt><trkpt lat="43.3160183" lon="12.562539"><ele>424.0</ele><time>2026-04-16T09:14:18.72Z</time></trkpt><trkpt lat="43.3160843" lon="12.5622352"><ele>424.0</ele><time>2026-04-16T09:14:19.72Z</time></trkpt><trkpt lat="43.3161527" lon="12.5619267"><ele>424.0</ele><time>2026-04-16T09:14:20.72Z</time></trkpt><trkpt lat="43.3162203" lon="12.5615997"><ele>424.0</ele><time>2026-04-16T09:14:21.72Z</time></trkpt><trkpt lat="43.3162899" lon="12.5612672"><ele>424.0</ele><time>2026-04-16T09:14:22.72Z</time></trkpt><trkpt lat="43.3163593" lon="12.5609369"><ele>424.0</ele><time>2026-04-16T09:14:23.72Z</time></trkpt><trkpt lat="43.3164308" lon="12.5606024"><ele>424.0</ele><time>2026-04-16T09:14:24.72Z</time></trkpt><trkpt lat="43.3165045" lon="12.5602655"><ele>426.0</ele><time>2026-04-16T09:14:25.72Z</time></trkpt><trkpt lat="43.3165778" lon="12.5599518"><ele>428.0</ele><time>2026-04-16T09:14:26.72Z</time></trkpt><trkpt lat="43.316653" lon="12.5596588"><ele>429.0</ele><time>2026-04-16T09:14:27.72Z</time></trkpt><trkpt lat="43.3167512" lon="12.5593868"><ele>430.0</ele><time>2026-04-16T09:14:28.72Z</time></trkpt><trkpt lat="43.3168504" lon="12.5591317"><ele>431.0</ele><time>2026-04-16T09:14:29.72Z</time></trkpt><trkpt lat="43.3169626" lon="12.5588703"><ele>432.0</ele><time>2026-04-16T09:14:30.72Z</time></trkpt><trkpt lat="43.317088" lon="12.5586029"><ele>433.0</ele><time>2026-04-16T09:14:31.719Z</time></trkpt><trkpt lat="43.3172257" lon="12.5583289"><ele>432.33333333333337</ele><time>2026-04-16T09:14:32.719Z</time></trkpt><trkpt lat="43.3173608" lon="12.5580717"><ele>431.66666666666663</ele><time>2026-04-16T09:14:33.72Z</time></trkpt><trkpt lat="43.3174691" lon="12.5578211"><ele>431.0</ele><time>2026-04-16T09:14:34.719Z</time></trkpt><trkpt lat="43.3175976" lon="12.5575972"><ele>431.0</ele><time>2026-04-16T09:14:35.72Z</time></trkpt><trkpt lat="43.3177304" lon="12.5574068"><ele>431.0</ele><time>2026-04-16T09:14:36.72Z</time></trkpt><trkpt lat="43.317877" lon="12.5572715"><ele>431.0</ele><time>2026-04-16T09:14:37.72Z</time></trkpt><trkpt lat="43.3180316" lon="12.557194"><ele>430.3333333333333</ele><time>2026-04-16T09:14:38.72Z</time></trkpt><trkpt lat="43.3181818" lon="12.557103"><ele>429.66666666666663</ele><time>2026-04-16T09:14:39.72Z</time></trkpt><trkpt lat="43.3183257" lon="12.5569589"><ele>429.0</ele><time>2026-04-16T09:14:40.721Z</time></trkpt><trkpt lat="43.3184694" lon="12.556806"><ele>436.0</ele><time>2026-04-16T09:14:41.721Z</time></trkpt><trkpt lat="43.3186043" lon="12.5565479"><ele>443.0</ele><time>2026-04-16T09:14:42.721Z</time></trkpt><trkpt lat="43.3187461" lon="12.5563011"><ele>439.0</ele><time>2026-04-16T09:14:43.721Z</time></trkpt><trkpt lat="43.3188816" lon="12.5560349"><ele>435.0</ele><time>2026-04-16T09:14:44.721Z</time></trkpt><trkpt lat="43.3190118" lon="12.555778"><ele>435.0</ele><time>2026-04-16T09:14:45.72Z</time></trkpt><trkpt lat="43.3190595" lon="12.5555262"><ele>435.0</ele><time>2026-04-16T09:14:46.72Z</time></trkpt><trkpt lat="43.3191225" lon="12.5552842"><ele>435.0</ele><time>2026-04-16T09:14:47.719Z</time></trkpt><trkpt lat="43.3192782" lon="12.555081"><ele>439.0</ele><time>2026-04-16T09:14:48.721Z</time></trkpt><trkpt lat="43.3194081" lon="12.5548706"><ele>443.0</ele><time>2026-04-16T09:14:49.719Z</time></trkpt><trkpt lat="43.3195705" lon="12.554778"><ele>447.0</ele><time>2026-04-16T09:14:50.722Z</time></trkpt><trkpt lat="43.3196866" lon="12.5546396"><ele>442.33333333333337</ele><time>2026-04-16T09:14:51.72Z</time></trkpt><trkpt lat="43.3198376" lon="12.5545258"><ele>437.6666666666667</ele><time>2026-04-16T09:14:52.72Z</time></trkpt><trkpt lat="43.3199789" lon="12.5543983"><ele>433.0</ele><time>2026-04-16T09:14:53.721Z</time></trkpt><trkpt lat="43.320127" lon="12.5544259"><ele>433.0</ele><time>2026-04-16T09:14:54.72Z</time></trkpt><trkpt lat="43.320246" lon="12.5543629"><ele>433.0</ele><time>2026-04-16T09:14:55.72Z</time></trkpt><trkpt lat="43.3203621" lon="12.5543042"><ele>433.0</ele><time>2026-04-16T09:14:56.72Z</time></trkpt><trkpt lat="43.3204668" lon="12.5542389"><ele>433.0</ele><time>2026-04-16T09:14:57.721Z</time></trkpt><trkpt lat="43.3205736" lon="12.5541279"><ele>432.6666666666667</ele><time>2026-04-16T09:14:58.721Z</time></trkpt><trkpt lat="43.3206986" lon="12.5540037"><ele>432.33333333333337</ele><time>2026-04-16T09:14:59.721Z</time></trkpt><trkpt lat="43.3208198" lon="12.5538496"><ele>432.0</ele><time>2026-04-16T09:15:00.721Z</time></trkpt><trkpt lat="43.3209487" lon="12.5536724"><ele>432.5</ele><time>2026-04-16T09:15:01.721Z</time></trkpt><trkpt lat="43.3210563" lon="12.5535127"><ele>433.0</ele><time>2026-04-16T09:15:02.72Z</time></trkpt><trkpt lat="43.3211566" lon="12.5533637"><ele>433.5</ele><time>2026-04-16T09:15:03.721Z</time></trkpt><trkpt lat="43.3212455" lon="12.5532566"><ele>434.0</ele><time>2026-04-16T09:15:04.721Z</time></trkpt><trkpt lat="43.3213472" lon="12.5531463"><ele>433.0</ele><time>2026-04-16T09:15:05.72Z</time></trkpt><trkpt lat="43.3214153" lon="12.553177"><ele>432.0</ele><time>2026-04-16T09:15:06.722Z</time></trkpt><trkpt lat="43.3215684" lon="12.5531157"><ele>431.0</ele><time>2026-04-16T09:15:07.721Z</time></trkpt><trkpt lat="43.3217097" lon="12.5530423"><ele>430.0</ele><time>2026-04-16T09:15:08.72Z</time></trkpt><trkpt lat="43.3218893" lon="12.5529091"><ele>431.0</ele><time>2026-04-16T09:15:09.719Z</time></trkpt><trkpt lat="43.3220222" lon="12.5527745"><ele>432.0</ele><time>2026-04-16T09:15:10.719Z</time></trkpt><trkpt lat="43.322165" lon="12.5526084"><ele>433.0</ele><time>2026-04-16T09:15:11.719Z</time></trkpt><trkpt lat="43.3222975" lon="12.5523921"><ele>433.0</ele><time>2026-04-16T09:15:12.72Z</time></trkpt><trkpt lat="43.3224235" lon="12.552204"><ele>433.0</ele><time>2026-04-16T09:15:13.719Z</time></trkpt><trkpt lat="43.3225655" lon="12.5520324"><ele>433.0</ele><time>2026-04-16T09:15:14.719Z</time></trkpt><trkpt lat="43.3227038" lon="12.5518591"><ele>434.33333333333337</ele><time>2026-04-16T09:15:15.719Z</time></trkpt><trkpt lat="43.3228849" lon="12.5517441"><ele>435.66666666666663</ele><time>2026-04-16T09:15:16.72Z</time></trkpt><trkpt lat="43.3230399" lon="12.5515917"><ele>437.0</ele><time>2026-04-16T09:15:17.72Z</time></trkpt><trkpt lat="43.3232601" lon="12.5517831"><ele>437.0</ele><time>2026-04-16T09:15:18.721Z</time></trkpt><trkpt lat="43.323427" lon="12.5518311"><ele>437.0</ele><time>2026-04-16T09:15:19.721Z</time></trkpt><trkpt lat="43.32361" lon="12.5518437"><ele>437.0</ele><time>2026-04-16T09:15:20.72Z</time></trkpt><trkpt lat="43.3237926" lon="12.5518216"><ele>434.66666666666663</ele><time>2026-04-16T09:15:21.72Z</time></trkpt><trkpt lat="43.3239816" lon="12.5517334"><ele>432.33333333333337</ele><time>2026-04-16T09:15:22.719Z</time></trkpt><trkpt lat="43.3241661" lon="12.551591"><ele>430.0</ele><time>2026-04-16T09:15:23.72Z</time></trkpt><trkpt lat="43.324348" lon="12.5514256"><ele>430.0</ele><time>2026-04-16T09:15:24.72Z</time></trkpt><trkpt lat="43.3245262" lon="12.5512247"><ele>430.0</ele><time>2026-04-16T09:15:25.72Z</time></trkpt><trkpt lat="43.3246911" lon="12.5510366"><ele>430.0</ele><time>2026-04-16T09:15:26.72Z</time></trkpt><trkpt lat="43.3248559" lon="12.5508409"><ele>430.6666666666667</ele><time>2026-04-16T09:15:27.72Z</time></trkpt><trkpt lat="43.3250032" lon="12.5506683"><ele>431.33333333333337</ele><time>2026-04-16T09:15:28.72Z</time></trkpt><trkpt lat="43.3250988" lon="12.5504708"><ele>432.0</ele><time>2026-04-16T09:15:29.722Z</time></trkpt><trkpt lat="43.3252128" lon="12.5502671"><ele>432.66666666666663</ele><time>2026-04-16T09:15:30.721Z</time></trkpt><trkpt lat="43.3253414" lon="12.5500134"><ele>433.3333333333333</ele><time>2026-04-16T09:15:31.721Z</time></trkpt><trkpt lat="43.3254509" lon="12.5497569"><ele>434.0</ele><time>2026-04-16T09:15:32.72Z</time></trkpt><trkpt lat="43.3255687" lon="12.5494826"><ele>434.0</ele><time>2026-04-16T09:15:33.72Z</time></trkpt><trkpt lat="43.3256809" lon="12.5492238"><ele>434.0</ele><time>2026-04-16T09:15:34.72Z</time></trkpt><trkpt lat="43.3257975" lon="12.5489662"><ele>434.0</ele><time>2026-04-16T09:15:35.719Z</time></trkpt><trkpt lat="43.325903" lon="12.5487136"><ele>435.0</ele><time>2026-04-16T09:15:36.718Z</time></trkpt><trkpt lat="43.3260056" lon="12.5484769"><ele>436.0</ele><time>2026-04-16T09:15:37.72Z</time></trkpt><trkpt lat="43.326101" lon="12.5482425"><ele>437.0</ele><time>2026-04-16T09:15:38.719Z</time></trkpt><trkpt lat="43.326195" lon="12.5480008"><ele>437.0</ele><time>2026-04-16T09:15:39.719Z</time></trkpt><trkpt lat="43.3262735" lon="12.5477649"><ele>437.0</ele><time>2026-04-16T09:15:40.72Z</time></trkpt><trkpt lat="43.3263794" lon="12.5475454"><ele>437.0</ele><time>2026-04-16T09:15:41.721Z</time></trkpt><trkpt lat="43.3265039" lon="12.5473296"><ele>437.0</ele><time>2026-04-16T09:15:42.72Z</time></trkpt><trkpt lat="43.3266326" lon="12.5471186"><ele>437.0</ele><time>2026-04-16T09:15:43.72Z</time></trkpt><trkpt lat="43.3267649" lon="12.5469156"><ele>437.0</ele><time>2026-04-16T09:15:44.721Z</time></trkpt><trkpt lat="43.3268754" lon="12.5467441"><ele>438.0</ele><time>2026-04-16T09:15:45.72Z</time></trkpt><trkpt lat="43.3269892" lon="12.5465488"><ele>439.0</ele><time>2026-04-16T09:15:46.72Z</time></trkpt><trkpt lat="43.3270716" lon="12.5463719"><ele>440.0</ele><time>2026-04-16T09:15:47.722Z</time></trkpt><trkpt lat="43.3271689" lon="12.5462432"><ele>439.5</ele><time>2026-04-16T09:15:48.72Z</time></trkpt><trkpt lat="43.3272639" lon="12.5461751"><ele>439.0</ele><time>2026-04-16T09:15:49.72Z</time></trkpt><trkpt lat="43.3273509" lon="12.5460661"><ele>438.5</ele><time>2026-04-16T09:15:50.721Z</time></trkpt><trkpt lat="43.3274494" lon="12.5459901"><ele>438.0</ele><time>2026-04-16T09:15:51.721Z</time></trkpt><trkpt lat="43.3275617" lon="12.5459206"><ele>438.0</ele><time>2026-04-16T09:15:52.72Z</time></trkpt><trkpt lat="43.3276714" lon="12.5458455"><ele>438.0</ele><time>2026-04-16T09:15:53.72Z</time></trkpt><trkpt lat="43.3277739" lon="12.545748"><ele>438.0</ele><time>2026-04-16T09:15:54.72Z</time></trkpt><trkpt lat="43.3278758" lon="12.5456373"><ele>438.0</ele><time>2026-04-16T09:15:55.719Z</time></trkpt><trkpt lat="43.3279665" lon="12.5455206"><ele>438.0</ele><time>2026-04-16T09:15:56.72Z</time></trkpt><trkpt lat="43.3280689" lon="12.5453897"><ele>438.0</ele><time>2026-04-16T09:15:57.719Z</time></trkpt><trkpt lat="43.3281753" lon="12.54526"><ele>438.0</ele><time>2026-04-16T09:15:58.72Z</time></trkpt><trkpt lat="43.3282867" lon="12.5451156"><ele>438.0</ele><time>2026-04-16T09:15:59.719Z</time></trkpt><trkpt lat="43.3283995" lon="12.5449825"><ele>438.0</ele><time>2026-04-16T09:16:00.72Z</time></trkpt><trkpt lat="43.3285173" lon="12.544849"><ele>438.0</ele><time>2026-04-16T09:16:01.721Z</time></trkpt><trkpt lat="43.32863" lon="12.5447117"><ele>438.0</ele><time>2026-04-16T09:16:02.719Z</time></trkpt><trkpt lat="43.3287696" lon="12.5445461"><ele>436.33333333333337</ele><time>2026-04-16T09:16:03.72Z</time></trkpt><trkpt lat="43.3288991" lon="12.5443855"><ele>434.6666666666667</ele><time>2026-04-16T09:16:04.719Z</time></trkpt><trkpt lat="43.3290307" lon="12.5442124"><ele>433.0</ele><time>2026-04-16T09:16:05.721Z</time></trkpt><trkpt lat="43.3291573" lon="12.5440457"><ele>433.0</ele><time>2026-04-16T09:16:06.719Z</time></trkpt><trkpt lat="43.3292902" lon="12.5438613"><ele>433.0</ele><time>2026-04-16T09:16:07.719Z</time></trkpt><trkpt lat="43.3294382" lon="12.5436753"><ele>433.0</ele><time>2026-04-16T09:16:08.72Z</time></trkpt><trkpt lat="43.329577" lon="12.543491"><ele>434.6666666666667</ele><time>2026-04-16T09:16:09.72Z</time></trkpt><trkpt lat="43.329732" lon="12.543288"><ele>436.33333333333337</ele><time>2026-04-16T09:16:10.72Z</time></trkpt><trkpt lat="43.3298916" lon="12.5430967"><ele>438.0</ele><time>2026-04-16T09:16:11.72Z</time></trkpt><trkpt lat="43.330051" lon="12.5428917"><ele>438.66666666666663</ele><time>2026-04-16T09:16:12.72Z</time></trkpt><trkpt lat="43.3302124" lon="12.5426911"><ele>439.3333333333333</ele><time>2026-04-16T09:16:13.719Z</time></trkpt><trkpt lat="43.3303838" lon="12.5425014"><ele>440.0</ele><time>2026-04-16T09:16:14.72Z</time></trkpt><trkpt lat="43.3305456" lon="12.5423001"><ele>439.66666666666663</ele><time>2026-04-16T09:16:15.719Z</time></trkpt><trkpt lat="43.3307139" lon="12.542105"><ele>439.33333333333337</ele><time>2026-04-16T09:16:16.72Z</time></trkpt><trkpt lat="43.3308706" lon="12.5419058"><ele>439.0</ele><time>2026-04-16T09:16:17.719Z</time></trkpt><trkpt lat="43.3310298" lon="12.541737"><ele>439.0</ele><time>2026-04-16T09:16:18.721Z</time></trkpt><trkpt lat="43.3311951" lon="12.5415557"><ele>439.0</ele><time>2026-04-16T09:16:19.72Z</time></trkpt><trkpt lat="43.3313635" lon="12.5413913"><ele>439.0</ele><time>2026-04-16T09:16:20.72Z</time></trkpt><trkpt lat="43.3315388" lon="12.5412058"><ele>439.0</ele><time>2026-04-16T09:16:21.72Z</time></trkpt><trkpt lat="43.3317281" lon="12.5410574"><ele>439.0</ele><time>2026-04-16T09:16:22.72Z</time></trkpt><trkpt lat="43.3319208" lon="12.5409031"><ele>439.0</ele><time>2026-04-16T09:16:23.719Z</time></trkpt><trkpt lat="43.3320982" lon="12.5407372"><ele>438.5</ele><time>2026-04-16T09:16:24.719Z</time></trkpt><trkpt lat="43.3322799" lon="12.5405673"><ele>438.0</ele><time>2026-04-16T09:16:25.72Z</time></trkpt><trkpt lat="43.3324632" lon="12.5403767"><ele>439.5</ele><time>2026-04-16T09:16:26.719Z</time></trkpt><trkpt lat="43.3326462" lon="12.5401703"><ele>441.0</ele><time>2026-04-16T09:16:27.721Z</time></trkpt><trkpt lat="43.3328199" lon="12.5399778"><ele>441.0</ele><time>2026-04-16T09:16:28.721Z</time></trkpt><trkpt lat="43.3329696" lon="12.5397836"><ele>441.0</ele><time>2026-04-16T09:16:29.719Z</time></trkpt><trkpt lat="43.3331205" lon="12.5396194"><ele>441.0</ele><time>2026-04-16T09:16:30.721Z</time></trkpt><trkpt lat="43.3332849" lon="12.5394399"><ele>441.66666666666663</ele><time>2026-04-16T09:16:31.721Z</time></trkpt><trkpt lat="43.333448" lon="12.5392768"><ele>442.3333333333333</ele><time>2026-04-16T09:16:32.721Z</time></trkpt><trkpt lat="43.333603" lon="12.5391516"><ele>443.0</ele><time>2026-04-16T09:16:33.721Z</time></trkpt><trkpt lat="43.3337601" lon="12.5390171"><ele>443.0</ele><time>2026-04-16T09:16:34.72Z</time></trkpt><trkpt lat="43.3338621" lon="12.5389419"><ele>442.99999999999994</ele><time>2026-04-16T09:16:35.721Z</time></trkpt><trkpt lat="43.3339534" lon="12.538877"><ele>442.99999999999994</ele><time>2026-04-16T09:16:36.721Z</time></trkpt><trkpt lat="43.3340345" lon="12.5388236"><ele>443.0</ele><time>2026-04-16T09:16:37.72Z</time></trkpt><trkpt lat="43.3341096" lon="12.5387531"><ele>443.0</ele><time>2026-04-16T09:16:39.72Z</time></trkpt><trkpt lat="43.3341849" lon="12.5385842"><ele>441.66666666666663</ele><time>2026-04-16T09:16:41.721Z</time></trkpt><trkpt lat="43.3342541" lon="12.5384075"><ele>440.33333333333337</ele><time>2026-04-16T09:16:42.719Z</time></trkpt><trkpt lat="43.3343598" lon="12.5382235"><ele>439.0</ele><time>2026-04-16T09:16:43.72Z</time></trkpt><trkpt lat="43.3344982" lon="12.5380338"><ele>440.0</ele><time>2026-04-16T09:16:44.721Z</time></trkpt><trkpt lat="43.3346561" lon="12.5378332"><ele>441.0</ele><time>2026-04-16T09:16:45.72Z</time></trkpt><trkpt lat="43.3348247" lon="12.5376566"><ele>442.0</ele><time>2026-04-16T09:16:46.719Z</time></trkpt><trkpt lat="43.3349926" lon="12.537463"><ele>442.0</ele><time>2026-04-16T09:16:47.721Z</time></trkpt><trkpt lat="43.3351581" lon="12.5372777"><ele>442.0</ele><time>2026-04-16T09:16:48.719Z</time></trkpt><trkpt lat="43.3352858" lon="12.5371392"><ele>442.0</ele><time>2026-04-16T09:16:49.721Z</time></trkpt><trkpt lat="43.3354303" lon="12.5369753"><ele>442.33333333333337</ele><time>2026-04-16T09:16:50.72Z</time></trkpt><trkpt lat="43.3355288" lon="12.5368124"><ele>442.66666666666663</ele><time>2026-04-16T09:16:51.721Z</time></trkpt><trkpt lat="43.3356" lon="12.5366374"><ele>443.0</ele><time>2026-04-16T09:16:52.72Z</time></trkpt><trkpt lat="43.3356777" lon="12.5364517"><ele>443.0</ele><time>2026-04-16T09:16:53.72Z</time></trkpt><trkpt lat="43.3357295" lon="12.5362705"><ele>443.0</ele><time>2026-04-16T09:16:54.719Z</time></trkpt><trkpt lat="43.3356762" lon="12.5361164"><ele>443.0</ele><time>2026-04-16T09:16:55.719Z</time></trkpt><trkpt lat="43.3356255" lon="12.5359367"><ele>443.0</ele><time>2026-04-16T09:16:56.719Z</time></trkpt><trkpt lat="43.3354935" lon="12.5358505"><ele>445.5</ele><time>2026-04-16T09:16:57.72Z</time></trkpt><trkpt lat="43.3353345" lon="12.5357818"><ele>448.0</ele><time>2026-04-16T09:16:58.72Z</time></trkpt><trkpt lat="43.3352443" lon="12.5356656"><ele>450.5</ele><time>2026-04-16T09:16:59.719Z</time></trkpt><trkpt lat="43.33516" lon="12.5355541"><ele>453.0</ele><time>2026-04-16T09:17:00.72Z</time></trkpt><trkpt lat="43.3350918" lon="12.5354331"><ele>450.66666666666663</ele><time>2026-04-16T09:17:01.72Z</time></trkpt><trkpt lat="43.3351318" lon="12.5352097"><ele>448.3333333333333</ele><time>2026-04-16T09:17:02.72Z</time></trkpt><trkpt lat="43.3351594" lon="12.5350008"><ele>446.0</ele><time>2026-04-16T09:17:03.721Z</time></trkpt><trkpt lat="43.3352155" lon="12.5347417"><ele>445.3333333333333</ele><time>2026-04-16T09:17:04.72Z</time></trkpt><trkpt lat="43.3352814" lon="12.5344631"><ele>444.66666666666663</ele><time>2026-04-16T09:17:05.72Z</time></trkpt><trkpt lat="43.3353468" lon="12.5341744"><ele>444.0</ele><time>2026-04-16T09:17:06.721Z</time></trkpt><trkpt lat="43.3354393" lon="12.5338822"><ele>443.66666666666663</ele><time>2026-04-16T09:17:07.72Z</time></trkpt><trkpt lat="43.3355159" lon="12.5335932"><ele>443.3333333333333</ele><time>2026-04-16T09:17:08.72Z</time></trkpt><trkpt lat="43.3355844" lon="12.5333111"><ele>443.0</ele><time>2026-04-16T09:17:09.721Z</time></trkpt><trkpt lat="43.3356688" lon="12.5330507"><ele>442.66666666666663</ele><time>2026-04-16T09:17:10.719Z</time></trkpt><trkpt lat="43.3357439" lon="12.5327866"><ele>442.33333333333337</ele><time>2026-04-16T09:17:11.721Z</time></trkpt><trkpt lat="43.3358087" lon="12.5325298"><ele>442.0</ele><time>2026-04-16T09:17:12.721Z</time></trkpt><trkpt lat="43.3358821" lon="12.5322735"><ele>444.0</ele><time>2026-04-16T09:17:13.72Z</time></trkpt><trkpt lat="43.3359561" lon="12.5320155"><ele>446.0</ele><time>2026-04-16T09:17:14.721Z</time></trkpt><trkpt lat="43.3360506" lon="12.5318226"><ele>448.0</ele><time>2026-04-16T09:17:15.722Z</time></trkpt><trkpt lat="43.3361517" lon="12.5316207"><ele>448.0</ele><time>2026-04-16T09:17:16.721Z</time></trkpt><trkpt lat="43.3362548" lon="12.5314109"><ele>448.0</ele><time>2026-04-16T09:17:17.722Z</time></trkpt><trkpt lat="43.3364124" lon="12.5312686"><ele>448.0</ele><time>2026-04-16T09:17:18.721Z</time></trkpt><trkpt lat="43.3365157" lon="12.5311009"><ele>446.0</ele><time>2026-04-16T09:17:19.721Z</time></trkpt><trkpt lat="43.3365995" lon="12.5308605"><ele>444.0</ele><time>2026-04-16T09:17:20.721Z</time></trkpt><trkpt lat="43.3366478" lon="12.5306045"><ele>442.0</ele><time>2026-04-16T09:17:21.721Z</time></trkpt><trkpt lat="43.3367308" lon="12.5303258"><ele>442.0</ele><time>2026-04-16T09:17:22.719Z</time></trkpt><trkpt lat="43.3368082" lon="12.5300561"><ele>442.0</ele><time>2026-04-16T09:17:23.72Z</time></trkpt><trkpt lat="43.3368851" lon="12.5298106"><ele>442.0</ele><time>2026-04-16T09:17:24.72Z</time></trkpt><trkpt lat="43.3369678" lon="12.5296043"><ele>441.75</ele><time>2026-04-16T09:17:25.721Z</time></trkpt><trkpt lat="43.3370561" lon="12.5294453"><ele>441.5</ele><time>2026-04-16T09:17:26.72Z</time></trkpt><trkpt lat="43.3371875" lon="12.5293201"><ele>441.25</ele><time>2026-04-16T09:17:27.719Z</time></trkpt><trkpt lat="43.3373223" lon="12.5292535"><ele>441.0</ele><time>2026-04-16T09:17:28.72Z</time></trkpt><trkpt lat="43.337498" lon="12.529232"><ele>439.0</ele><time>2026-04-16T09:17:29.718Z</time></trkpt><trkpt lat="43.3376708" lon="12.5291987"><ele>437.0</ele><time>2026-04-16T09:17:30.72Z</time></trkpt><trkpt lat="43.3378559" lon="12.5291446"><ele>435.0</ele><time>2026-04-16T09:17:31.72Z</time></trkpt><trkpt lat="43.3380502" lon="12.5290715"><ele>434.66666666666663</ele><time>2026-04-16T09:17:32.719Z</time></trkpt><trkpt lat="43.3382535" lon="12.5289511"><ele>434.3333333333333</ele><time>2026-04-16T09:17:33.72Z</time></trkpt><trkpt lat="43.3384604" lon="12.5288335"><ele>434.0</ele><time>2026-04-16T09:17:34.72Z</time></trkpt><trkpt lat="43.338687" lon="12.528709"><ele>434.5</ele><time>2026-04-16T09:17:35.719Z</time></trkpt><trkpt lat="43.3389203" lon="12.5285729"><ele>435.0</ele><time>2026-04-16T09:17:36.72Z</time></trkpt><trkpt lat="43.3391507" lon="12.5284433"><ele>435.0</ele><time>2026-04-16T09:17:37.719Z</time></trkpt><trkpt lat="43.3393652" lon="12.5283135"><ele>435.0</ele><time>2026-04-16T09:17:38.722Z</time></trkpt><trkpt lat="43.33958" lon="12.5281885"><ele>433.0</ele><time>2026-04-16T09:17:39.721Z</time></trkpt><trkpt lat="43.3397471" lon="12.5280952"><ele>431.0</ele><time>2026-04-16T09:17:40.722Z</time></trkpt><trkpt lat="43.339917" lon="12.5279967"><ele>429.0</ele><time>2026-04-16T09:17:41.721Z</time></trkpt><trkpt lat="43.3400144" lon="12.5279066"><ele>429.25</ele><time>2026-04-16T09:17:42.721Z</time></trkpt><trkpt lat="43.3401004" lon="12.5277673"><ele>429.5</ele><time>2026-04-16T09:17:43.721Z</time></trkpt><trkpt lat="43.3401827" lon="12.5276395"><ele>429.75</ele><time>2026-04-16T09:17:44.721Z</time></trkpt><trkpt lat="43.3402177" lon="12.5274067"><ele>430.0</ele><time>2026-04-16T09:17:45.721Z</time></trkpt><trkpt lat="43.3402548" lon="12.5271431"><ele>431.0</ele><time>2026-04-16T09:17:46.721Z</time></trkpt><trkpt lat="43.3403069" lon="12.5268697"><ele>432.0</ele><time>2026-04-16T09:17:47.721Z</time></trkpt><trkpt lat="43.3403622" lon="12.5265769"><ele>433.0</ele><time>2026-04-16T09:17:48.721Z</time></trkpt><trkpt lat="43.3404165" lon="12.5262622"><ele>434.5</ele><time>2026-04-16T09:17:49.72Z</time></trkpt><trkpt lat="43.3404847" lon="12.5259263"><ele>436.0</ele><time>2026-04-16T09:17:50.72Z</time></trkpt><trkpt lat="43.3405431" lon="12.5255782"><ele>432.5</ele><time>2026-04-16T09:17:51.72Z</time></trkpt><trkpt lat="43.3406091" lon="12.5252245"><ele>429.0</ele><time>2026-04-16T09:17:52.721Z</time></trkpt><trkpt lat="43.3406693" lon="12.5248702"><ele>432.0</ele><time>2026-04-16T09:17:53.721Z</time></trkpt><trkpt lat="43.3407297" lon="12.5245153"><ele>435.0</ele><time>2026-04-16T09:17:54.721Z</time></trkpt><trkpt lat="43.3407993" lon="12.5241689"><ele>435.0</ele><time>2026-04-16T09:17:55.721Z</time></trkpt><trkpt lat="43.3408565" lon="12.5238479"><ele>435.0</ele><time>2026-04-16T09:17:56.72Z</time></trkpt><trkpt lat="43.3409104" lon="12.5235567"><ele>436.0</ele><time>2026-04-16T09:17:57.721Z</time></trkpt><trkpt lat="43.340951" lon="12.5232922"><ele>437.0</ele><time>2026-04-16T09:17:58.72Z</time></trkpt><trkpt lat="43.3409955" lon="12.5230385"><ele>438.0</ele><time>2026-04-16T09:17:59.719Z</time></trkpt><trkpt lat="43.3410404" lon="12.5227724"><ele>438.0</ele><time>2026-04-16T09:18:00.72Z</time></trkpt><trkpt lat="43.3410856" lon="12.5224845"><ele>438.0</ele><time>2026-04-16T09:18:01.721Z</time></trkpt><trkpt lat="43.341135" lon="12.5221916"><ele>438.0</ele><time>2026-04-16T09:18:02.719Z</time></trkpt><trkpt lat="43.3411949" lon="12.5218893"><ele>437.33333333333337</ele><time>2026-04-16T09:18:03.719Z</time></trkpt><trkpt lat="43.3412476" lon="12.5215931"><ele>436.6666666666667</ele><time>2026-04-16T09:18:04.719Z</time></trkpt><trkpt lat="43.3412996" lon="12.5213076"><ele>436.0</ele><time>2026-04-16T09:18:05.721Z</time></trkpt><trkpt lat="43.3413428" lon="12.5210331"><ele>436.0</ele><time>2026-04-16T09:18:06.719Z</time></trkpt><trkpt lat="43.3413876" lon="12.5207751"><ele>436.0</ele><time>2026-04-16T09:18:07.721Z</time></trkpt><trkpt lat="43.3414282" lon="12.5205345"><ele>436.0</ele><time>2026-04-16T09:18:08.721Z</time></trkpt><trkpt lat="43.3414881" lon="12.5203083"><ele>436.0</ele><time>2026-04-16T09:18:09.72Z</time></trkpt><trkpt lat="43.3415643" lon="12.5200912"><ele>436.0</ele><time>2026-04-16T09:18:10.72Z</time></trkpt><trkpt lat="43.3416644" lon="12.5198892"><ele>436.0</ele><time>2026-04-16T09:18:11.72Z</time></trkpt><trkpt lat="43.3417737" lon="12.519699"><ele>436.0</ele><time>2026-04-16T09:18:12.721Z</time></trkpt><trkpt lat="43.3418879" lon="12.5195685"><ele>436.0</ele><time>2026-04-16T09:18:13.721Z</time></trkpt><trkpt lat="43.3420521" lon="12.5194267"><ele>436.0</ele><time>2026-04-16T09:18:14.721Z</time></trkpt><trkpt lat="43.3422165" lon="12.5192937"><ele>433.0</ele><time>2026-04-16T09:18:15.721Z</time></trkpt><trkpt lat="43.3424036" lon="12.5191563"><ele>430.0</ele><time>2026-04-16T09:18:16.72Z</time></trkpt><trkpt lat="43.3426186" lon="12.5189976"><ele>430.0</ele><time>2026-04-16T09:18:17.72Z</time></trkpt><trkpt lat="43.3428053" lon="12.5188417"><ele>430.0</ele><time>2026-04-16T09:18:18.719Z</time></trkpt><trkpt lat="43.3430451" lon="12.5186498"><ele>430.6666666666667</ele><time>2026-04-16T09:18:19.722Z</time></trkpt><trkpt lat="43.3432074" lon="12.5184552"><ele>431.33333333333337</ele><time>2026-04-16T09:18:20.72Z</time></trkpt><trkpt lat="43.3433731" lon="12.5182621"><ele>432.0</ele><time>2026-04-16T09:18:21.72Z</time></trkpt><trkpt lat="43.3435201" lon="12.5180797"><ele>431.66666666666663</ele><time>2026-04-16T09:18:22.721Z</time></trkpt><trkpt lat="43.3436698" lon="12.5178791"><ele>431.3333333333333</ele><time>2026-04-16T09:18:23.72Z</time></trkpt><trkpt lat="43.3437959" lon="12.5176588"><ele>431.0</ele><time>2026-04-16T09:18:24.721Z</time></trkpt><trkpt lat="43.343948" lon="12.5174413"><ele>431.0</ele><time>2026-04-16T09:18:25.72Z</time></trkpt><trkpt lat="43.344088" lon="12.5172294"><ele>431.0</ele><time>2026-04-16T09:18:26.72Z</time></trkpt><trkpt lat="43.3442189" lon="12.5170385"><ele>431.0</ele><time>2026-04-16T09:18:27.719Z</time></trkpt><trkpt lat="43.3443381" lon="12.5168478"><ele>431.5</ele><time>2026-04-16T09:18:28.72Z</time></trkpt><trkpt lat="43.3444244" lon="12.5167095"><ele>432.0</ele><time>2026-04-16T09:18:29.721Z</time></trkpt><trkpt lat="43.3445271" lon="12.5165535"><ele>432.5</ele><time>2026-04-16T09:18:30.72Z</time></trkpt><trkpt lat="43.3446608" lon="12.5164748"><ele>433.0</ele><time>2026-04-16T09:18:31.721Z</time></trkpt><trkpt lat="43.3448035" lon="12.5163918"><ele>433.0</ele><time>2026-04-16T09:18:32.721Z</time></trkpt><trkpt lat="43.3449557" lon="12.516321"><ele>433.0</ele><time>2026-04-16T09:18:33.719Z</time></trkpt><trkpt lat="43.345127" lon="12.516252"><ele>433.0</ele><time>2026-04-16T09:18:34.72Z</time></trkpt><trkpt lat="43.3453019" lon="12.5161881"><ele>434.5</ele><time>2026-04-16T09:18:35.721Z</time></trkpt><trkpt lat="43.3454614" lon="12.5161177"><ele>436.0</ele><time>2026-04-16T09:18:36.719Z</time></trkpt><trkpt lat="43.3455769" lon="12.5160315"><ele>437.5</ele><time>2026-04-16T09:18:37.72Z</time></trkpt><trkpt lat="43.3456934" lon="12.5159143"><ele>439.0</ele><time>2026-04-16T09:18:38.721Z</time></trkpt><trkpt lat="43.3458006" lon="12.5157845"><ele>439.0</ele><time>2026-04-16T09:18:39.72Z</time></trkpt><trkpt lat="43.3459059" lon="12.5156413"><ele>439.0</ele><time>2026-04-16T09:18:40.72Z</time></trkpt><trkpt lat="43.3460248" lon="12.5154463"><ele>439.0</ele><time>2026-04-16T09:18:41.72Z</time></trkpt><trkpt lat="43.3461394" lon="12.5152726"><ele>439.6666666666667</ele><time>2026-04-16T09:18:42.72Z</time></trkpt><trkpt lat="43.3462784" lon="12.5150675"><ele>440.33333333333337</ele><time>2026-04-16T09:18:43.721Z</time></trkpt><trkpt lat="43.3464176" lon="12.5148747"><ele>441.0</ele><time>2026-04-16T09:18:44.72Z</time></trkpt><trkpt lat="43.3465661" lon="12.5146824"><ele>439.33333333333337</ele><time>2026-04-16T09:18:45.72Z</time></trkpt><trkpt lat="43.3467045" lon="12.5145014"><ele>437.6666666666667</ele><time>2026-04-16T09:18:46.72Z</time></trkpt><trkpt lat="43.3468345" lon="12.5143219"><ele>436.0</ele><time>2026-04-16T09:18:47.721Z</time></trkpt><trkpt lat="43.3469334" lon="12.5141357"><ele>436.0</ele><time>2026-04-16T09:18:48.722Z</time></trkpt><trkpt lat="43.3470409" lon="12.5139538"><ele>436.0</ele><time>2026-04-16T09:18:49.721Z</time></trkpt><trkpt lat="43.3471506" lon="12.5138637"><ele>436.0</ele><time>2026-04-16T09:18:50.722Z</time></trkpt><trkpt lat="43.3472837" lon="12.5137926"><ele>436.0</ele><time>2026-04-16T09:18:51.72Z</time></trkpt><trkpt lat="43.3474025" lon="12.5138094"><ele>435.33333333333337</ele><time>2026-04-16T09:18:52.72Z</time></trkpt><trkpt lat="43.3475416" lon="12.5138282"><ele>434.66666666666663</ele><time>2026-04-16T09:18:53.72Z</time></trkpt><trkpt lat="43.3476885" lon="12.513956"><ele>434.0</ele><time>2026-04-16T09:18:54.72Z</time></trkpt><trkpt lat="43.3478334" lon="12.5140674"><ele>434.0</ele><time>2026-04-16T09:18:55.72Z</time></trkpt><trkpt lat="43.347932" lon="12.5142233"><ele>434.0</ele><time>2026-04-16T09:18:56.721Z</time></trkpt><trkpt lat="43.3480439" lon="12.5143593"><ele>434.0</ele><time>2026-04-16T09:18:57.721Z</time></trkpt><trkpt lat="43.3480948" lon="12.5144492"><ele>434.0</ele><time>2026-04-16T09:18:58.721Z</time></trkpt><trkpt lat="43.3481836" lon="12.5145271"><ele>435.0</ele><time>2026-04-16T09:18:59.72Z</time></trkpt><trkpt lat="43.3482943" lon="12.5145884"><ele>436.0</ele><time>2026-04-16T09:19:00.719Z</time></trkpt><trkpt lat="43.3483967" lon="12.5146219"><ele>437.0</ele><time>2026-04-16T09:19:01.72Z</time></trkpt><trkpt lat="43.3485668" lon="12.5144124"><ele>437.0</ele><time>2026-04-16T09:19:02.72Z</time></trkpt><trkpt lat="43.3486975" lon="12.5143374"><ele>437.0</ele><time>2026-04-16T09:19:03.72Z</time></trkpt><trkpt lat="43.3488225" lon="12.5142802"><ele>437.0</ele><time>2026-04-16T09:19:04.72Z</time></trkpt><trkpt lat="43.3490133" lon="12.5141161"><ele>436.3333333333333</ele><time>2026-04-16T09:19:05.72Z</time></trkpt><trkpt lat="43.3491759" lon="12.5140524"><ele>435.66666666666663</ele><time>2026-04-16T09:19:06.719Z</time></trkpt><trkpt lat="43.3493373" lon="12.5139259"><ele>435.0</ele><time>2026-04-16T09:19:07.719Z</time></trkpt><trkpt lat="43.3493913" lon="12.5137202"><ele>435.0</ele><time>2026-04-16T09:19:08.72Z</time></trkpt><trkpt lat="43.3494604" lon="12.5135214"><ele>435.0</ele><time>2026-04-16T09:19:09.72Z</time></trkpt><trkpt lat="43.349532" lon="12.5133305"><ele>435.0</ele><time>2026-04-16T09:19:10.719Z</time></trkpt><trkpt lat="43.3496037" lon="12.5131387"><ele>432.33333333333337</ele><time>2026-04-16T09:19:11.72Z</time></trkpt><trkpt lat="43.3498173" lon="12.5130227"><ele>429.6666666666667</ele><time>2026-04-16T09:19:12.72Z</time></trkpt><trkpt lat="43.3499767" lon="12.5129121"><ele>427.0</ele><time>2026-04-16T09:19:13.72Z</time></trkpt><trkpt lat="43.3501462" lon="12.5128484"><ele>427.0</ele><time>2026-04-16T09:19:14.72Z</time></trkpt><trkpt lat="43.3502768" lon="12.5127489"><ele>427.0</ele><time>2026-04-16T09:19:15.719Z</time></trkpt><trkpt lat="43.3503724" lon="12.5126003"><ele>427.0</ele><time>2026-04-16T09:19:16.72Z</time></trkpt><trkpt lat="43.3504543" lon="12.5124314"><ele>427.0</ele><time>2026-04-16T09:19:17.719Z</time></trkpt><trkpt lat="43.3505257" lon="12.5122359"><ele>426.6666666666667</ele><time>2026-04-16T09:19:18.719Z</time></trkpt><trkpt lat="43.3506114" lon="12.512057"><ele>426.33333333333337</ele><time>2026-04-16T09:19:19.721Z</time></trkpt><trkpt lat="43.3507142" lon="12.5118845"><ele>426.0</ele><time>2026-04-16T09:19:20.72Z</time></trkpt><trkpt lat="43.3508303" lon="12.5117363"><ele>426.0</ele><time>2026-04-16T09:19:21.721Z</time></trkpt><trkpt lat="43.350948" lon="12.5115889"><ele>426.0</ele><time>2026-04-16T09:19:22.721Z</time></trkpt><trkpt lat="43.3510906" lon="12.5114834"><ele>426.0</ele><time>2026-04-16T09:19:23.721Z</time></trkpt><trkpt lat="43.3512543" lon="12.5114271"><ele>416.0</ele><time>2026-04-16T09:19:24.721Z</time></trkpt><trkpt lat="43.3519369" lon="12.5113569"><ele>420.0</ele><time>2026-04-16T09:19:28.392Z</time></trkpt><trkpt lat="43.3518124" lon="12.5108899"><ele>424.0</ele><time>2026-04-16T09:19:29.393Z</time></trkpt><trkpt lat="43.3518236" lon="12.5106962"><ele>424.0</ele><time>2026-04-16T09:19:30.393Z</time></trkpt><trkpt lat="43.351842" lon="12.5104957"><ele>424.0</ele><time>2026-04-16T09:19:31.393Z</time></trkpt><trkpt lat="43.3518997" lon="12.5103694"><ele>424.0</ele><time>2026-04-16T09:19:32.392Z</time></trkpt><trkpt lat="43.3518301" lon="12.5103219"><ele>424.0</ele><time>2026-04-16T09:19:33.393Z</time></trkpt><trkpt lat="43.3521719" lon="12.5100616"><ele>424.0</ele><time>2026-04-16T09:19:34.72Z</time></trkpt><trkpt lat="43.3524005" lon="12.5099304"><ele>424.0</ele><time>2026-04-16T09:19:35.72Z</time></trkpt><trkpt lat="43.352587" lon="12.5097827"><ele>424.0</ele><time>2026-04-16T09:19:36.72Z</time></trkpt><trkpt lat="43.3527528" lon="12.5096243"><ele>424.0</ele><time>2026-04-16T09:19:37.72Z</time></trkpt><trkpt lat="43.3529122" lon="12.5094593"><ele>424.0</ele><time>2026-04-16T09:19:38.719Z</time></trkpt><trkpt lat="43.3530835" lon="12.5092642"><ele>423.6666666666667</ele><time>2026-04-16T09:19:39.72Z</time></trkpt><trkpt lat="43.3532569" lon="12.5091082"><ele>423.33333333333337</ele><time>2026-04-16T09:19:40.72Z</time></trkpt><trkpt lat="43.3534316" lon="12.5089502"><ele>423.0</ele><time>2026-04-16T09:19:41.719Z</time></trkpt><trkpt lat="43.3535593" lon="12.5087515"><ele>424.33333333333337</ele><time>2026-04-16T09:19:42.719Z</time></trkpt><trkpt lat="43.3537034" lon="12.5085449"><ele>425.6666666666667</ele><time>2026-04-16T09:19:43.719Z</time></trkpt><trkpt lat="43.3538368" lon="12.5082877"><ele>427.0</ele><time>2026-04-16T09:19:44.72Z</time></trkpt><trkpt lat="43.3539679" lon="12.5080508"><ele>424.33333333333337</ele><time>2026-04-16T09:19:45.72Z</time></trkpt><trkpt lat="43.3541096" lon="12.5078226"><ele>421.66666666666663</ele><time>2026-04-16T09:19:46.72Z</time></trkpt><trkpt lat="43.3542456" lon="12.5076174"><ele>419.0</ele><time>2026-04-16T09:19:47.719Z</time></trkpt><trkpt lat="43.3544013" lon="12.5074268"><ele>419.0</ele><time>2026-04-16T09:19:48.72Z</time></trkpt><trkpt lat="43.3545562" lon="12.5072512"><ele>419.0</ele><time>2026-04-16T09:19:49.72Z</time></trkpt><trkpt lat="43.3547037" lon="12.5070903"><ele>419.0</ele><time>2026-04-16T09:19:50.719Z</time></trkpt><trkpt lat="43.3548517" lon="12.5069339"><ele>418.66666666666663</ele><time>2026-04-16T09:19:51.72Z</time></trkpt><trkpt lat="43.3549847" lon="12.5068012"><ele>418.33333333333337</ele><time>2026-04-16T09:19:52.721Z</time></trkpt><trkpt lat="43.3551235" lon="12.5066704"><ele>418.0</ele><time>2026-04-16T09:19:53.72Z</time></trkpt><trkpt lat="43.355259" lon="12.5065349"><ele>418.0</ele><time>2026-04-16T09:19:54.72Z</time></trkpt><trkpt lat="43.3553965" lon="12.5064882"><ele>418.0</ele><time>2026-04-16T09:19:55.72Z</time></trkpt><trkpt lat="43.3555425" lon="12.5064199"><ele>418.0</ele><time>2026-04-16T09:19:56.719Z</time></trkpt><trkpt lat="43.35567" lon="12.5063235"><ele>418.0</ele><time>2026-04-16T09:19:57.718Z</time></trkpt><trkpt lat="43.3557972" lon="12.5062214"><ele>417.25</ele><time>2026-04-16T09:19:58.719Z</time></trkpt><trkpt lat="43.3559209" lon="12.5061244"><ele>416.5</ele><time>2026-04-16T09:19:59.721Z</time></trkpt><trkpt lat="43.3560394" lon="12.5060063"><ele>415.75</ele><time>2026-04-16T09:20:00.72Z</time></trkpt><trkpt lat="43.3561667" lon="12.5058914"><ele>415.0</ele><time>2026-04-16T09:20:01.721Z</time></trkpt><trkpt lat="43.3562837" lon="12.505775"><ele>414.33333333333337</ele><time>2026-04-16T09:20:02.719Z</time></trkpt><trkpt lat="43.3563939" lon="12.5056293"><ele>413.66666666666663</ele><time>2026-04-16T09:20:03.722Z</time></trkpt><trkpt lat="43.3565084" lon="12.505492"><ele>413.0</ele><time>2026-04-16T09:20:04.721Z</time></trkpt><trkpt lat="43.3566436" lon="12.5052951"><ele>413.0</ele><time>2026-04-16T09:20:05.721Z</time></trkpt><trkpt lat="43.3567775" lon="12.5050583"><ele>413.0</ele><time>2026-04-16T09:20:06.72Z</time></trkpt><trkpt lat="43.356914" lon="12.5048389"><ele>413.0</ele><time>2026-04-16T09:20:07.721Z</time></trkpt><trkpt lat="43.3570738" lon="12.5045987"><ele>413.3333333333333</ele><time>2026-04-16T09:20:08.721Z</time></trkpt><trkpt lat="43.3572023" lon="12.5044067"><ele>413.66666666666663</ele><time>2026-04-16T09:20:09.721Z</time></trkpt><trkpt lat="43.3573388" lon="12.5042101"><ele>414.0</ele><time>2026-04-16T09:20:10.72Z</time></trkpt><trkpt lat="43.3574288" lon="12.5041446"><ele>413.6</ele><time>2026-04-16T09:20:11.722Z</time></trkpt><trkpt lat="43.3575365" lon="12.5040978"><ele>413.2</ele><time>2026-04-16T09:20:12.721Z</time></trkpt><trkpt lat="43.3576335" lon="12.5041067"><ele>412.8</ele><time>2026-04-16T09:20:13.719Z</time></trkpt><trkpt lat="43.3577305" lon="12.504173"><ele>412.40000000000003</ele><time>2026-04-16T09:20:14.721Z</time></trkpt><trkpt lat="43.3578261" lon="12.5042433"><ele>412.0</ele><time>2026-04-16T09:20:15.721Z</time></trkpt><trkpt lat="43.3579317" lon="12.5044235"><ele>411.0</ele><time>2026-04-16T09:20:16.72Z</time></trkpt><trkpt lat="43.3580532" lon="12.5045842"><ele>410.0</ele><time>2026-04-16T09:20:17.72Z</time></trkpt><trkpt lat="43.3581621" lon="12.5047795"><ele>409.0</ele><time>2026-04-16T09:20:18.721Z</time></trkpt><trkpt lat="43.3582741" lon="12.5049757"><ele>409.0</ele><time>2026-04-16T09:20:19.72Z</time></trkpt><trkpt lat="43.3584421" lon="12.5052742"><ele>409.0</ele><time>2026-04-16T09:20:20.722Z</time></trkpt><trkpt lat="43.3585893" lon="12.505549"><ele>409.0</ele><time>2026-04-16T09:20:21.721Z</time></trkpt><trkpt lat="43.3587361" lon="12.5058133"><ele>409.0</ele><time>2026-04-16T09:20:22.72Z</time></trkpt><trkpt lat="43.3588634" lon="12.5060517"><ele>409.0</ele><time>2026-04-16T09:20:23.72Z</time></trkpt><trkpt lat="43.3590026" lon="12.5062847"><ele>409.0</ele><time>2026-04-16T09:20:24.721Z</time></trkpt><trkpt lat="43.3591417" lon="12.5065177"><ele>409.0</ele><time>2026-04-16T09:20:25.72Z</time></trkpt><trkpt lat="43.3592757" lon="12.5067465"><ele>409.0</ele><time>2026-04-16T09:20:26.721Z</time></trkpt><trkpt lat="43.3593942" lon="12.5069387"><ele>409.0</ele><time>2026-04-16T09:20:27.722Z</time></trkpt><trkpt lat="43.3595168" lon="12.5071239"><ele>409.0</ele><time>2026-04-16T09:20:28.721Z</time></trkpt><trkpt lat="43.3596387" lon="12.507268"><ele>408.5</ele><time>2026-04-16T09:20:29.72Z</time></trkpt><trkpt lat="43.3597539" lon="12.5073673"><ele>408.0</ele><time>2026-04-16T09:20:30.719Z</time></trkpt><trkpt lat="43.3598633" lon="12.5074108"><ele>407.5</ele><time>2026-04-16T09:20:31.72Z</time></trkpt><trkpt lat="43.3599638" lon="12.5074186"><ele>407.0</ele><time>2026-04-16T09:20:32.721Z</time></trkpt><trkpt lat="43.3600627" lon="12.5073729"><ele>407.0</ele><time>2026-04-16T09:20:33.72Z</time></trkpt><trkpt lat="43.3601702" lon="12.5072734"><ele>407.0</ele><time>2026-04-16T09:20:34.72Z</time></trkpt><trkpt lat="43.3602711" lon="12.5071433"><ele>407.0</ele><time>2026-04-16T09:20:35.719Z</time></trkpt><trkpt lat="43.3603838" lon="12.5070002"><ele>407.0</ele><time>2026-04-16T09:20:36.721Z</time></trkpt><trkpt lat="43.3605251" lon="12.5067746"><ele>407.0</ele><time>2026-04-16T09:20:37.72Z</time></trkpt><trkpt lat="43.3606604" lon="12.5065728"><ele>407.0</ele><time>2026-04-16T09:20:38.72Z</time></trkpt><trkpt lat="43.3607904" lon="12.5063582"><ele>407.0</ele><time>2026-04-16T09:20:39.72Z</time></trkpt><trkpt lat="43.3609193" lon="12.5061578"><ele>406.66666666666663</ele><time>2026-04-16T09:20:40.72Z</time></trkpt><trkpt lat="43.361031" lon="12.5059598"><ele>406.33333333333337</ele><time>2026-04-16T09:20:41.721Z</time></trkpt><trkpt lat="43.3611376" lon="12.5057538"><ele>406.0</ele><time>2026-04-16T09:20:42.721Z</time></trkpt><trkpt lat="43.3612345" lon="12.5055501"><ele>406.0</ele><time>2026-04-16T09:20:43.721Z</time></trkpt><trkpt lat="43.3613224" lon="12.505353"><ele>406.0</ele><time>2026-04-16T09:20:44.72Z</time></trkpt><trkpt lat="43.3613793" lon="12.5051356"><ele>406.0</ele><time>2026-04-16T09:20:45.72Z</time></trkpt><trkpt lat="43.3614298" lon="12.5049033"><ele>405.6666666666667</ele><time>2026-04-16T09:20:46.72Z</time></trkpt><trkpt lat="43.3614749" lon="12.5046588"><ele>405.33333333333337</ele><time>2026-04-16T09:20:47.72Z</time></trkpt><trkpt lat="43.3615096" lon="12.5043993"><ele>405.0</ele><time>2026-04-16T09:20:48.721Z</time></trkpt><trkpt lat="43.3615475" lon="12.5041324"><ele>405.0</ele><time>2026-04-16T09:20:49.721Z</time></trkpt><trkpt lat="43.3615919" lon="12.5038654"><ele>405.0</ele><time>2026-04-16T09:20:50.721Z</time></trkpt><trkpt lat="43.3616726" lon="12.5035872"><ele>405.0</ele><time>2026-04-16T09:20:51.722Z</time></trkpt><trkpt lat="43.3617444" lon="12.5033489"><ele>404.66666666666663</ele><time>2026-04-16T09:20:52.72Z</time></trkpt><trkpt lat="43.3618371" lon="12.5031097"><ele>404.3333333333333</ele><time>2026-04-16T09:20:53.721Z</time></trkpt><trkpt lat="43.3619324" lon="12.5029303"><ele>404.0</ele><time>2026-04-16T09:20:54.721Z</time></trkpt><trkpt lat="43.3620254" lon="12.5027335"><ele>404.0</ele><time>2026-04-16T09:20:55.719Z</time></trkpt><trkpt lat="43.3621049" lon="12.5025573"><ele>404.0</ele><time>2026-04-16T09:20:56.72Z</time></trkpt><trkpt lat="43.3621737" lon="12.5024095"><ele>404.0</ele><time>2026-04-16T09:20:57.72Z</time></trkpt><trkpt lat="43.3622377" lon="12.5022614"><ele>404.0</ele><time>2026-04-16T09:20:58.72Z</time></trkpt><trkpt lat="43.362268" lon="12.5021474"><ele>404.16666666666663</ele><time>2026-04-16T09:21:00.72Z</time></trkpt><trkpt lat="43.362303" lon="12.5020553"><ele>404.3333333333333</ele><time>2026-04-16T09:21:03.721Z</time></trkpt><trkpt lat="43.3623596" lon="12.5019939"><ele>404.5</ele><time>2026-04-16T09:22:49.721Z</time></trkpt><trkpt lat="43.3624032" lon="12.5019192"><ele>404.66666666666663</ele><time>2026-04-16T09:22:50.721Z</time></trkpt><trkpt lat="43.3624432" lon="12.5018362"><ele>404.8333333333333</ele><time>2026-04-16T09:22:51.721Z</time></trkpt><trkpt lat="43.3624882" lon="12.5017442"><ele>405.0</ele><time>2026-04-16T09:22:52.721Z</time></trkpt><trkpt lat="43.3625331" lon="12.5016334"><ele>405.0</ele><time>2026-04-16T09:22:53.72Z</time></trkpt><trkpt lat="43.3625875" lon="12.5015159"><ele>405.0</ele><time>2026-04-16T09:22:54.718Z</time></trkpt><trkpt lat="43.3626584" lon="12.5013692"><ele>405.0</ele><time>2026-04-16T09:22:55.722Z</time></trkpt><trkpt lat="43.3627363" lon="12.5012189"><ele>405.0</ele><time>2026-04-16T09:22:56.72Z</time></trkpt><trkpt lat="43.3628237" lon="12.5010594"><ele>405.0</ele><time>2026-04-16T09:22:57.72Z</time></trkpt><trkpt lat="43.3629211" lon="12.5008984"><ele>405.0</ele><time>2026-04-16T09:22:58.721Z</time></trkpt><trkpt lat="43.3630254" lon="12.5007274"><ele>405.0</ele><time>2026-04-16T09:22:59.721Z</time></trkpt><trkpt lat="43.3631277" lon="12.5005432"><ele>404.66666666666663</ele><time>2026-04-16T09:23:00.721Z</time></trkpt><trkpt lat="43.3632291" lon="12.5003617"><ele>404.3333333333333</ele><time>2026-04-16T09:23:01.719Z</time></trkpt><trkpt lat="43.3633278" lon="12.5001708"><ele>404.0</ele><time>2026-04-16T09:23:02.719Z</time></trkpt><trkpt lat="43.3634165" lon="12.4999674"><ele>404.0</ele><time>2026-04-16T09:23:03.72Z</time></trkpt><trkpt lat="43.363479" lon="12.4997602"><ele>404.0</ele><time>2026-04-16T09:23:04.72Z</time></trkpt><trkpt lat="43.363534" lon="12.4995327"><ele>404.0</ele><time>2026-04-16T09:23:05.72Z</time></trkpt><trkpt lat="43.3635508" lon="12.4992998"><ele>404.0</ele><time>2026-04-16T09:23:06.719Z</time></trkpt><trkpt lat="43.3635599" lon="12.4990388"><ele>404.0</ele><time>2026-04-16T09:23:07.721Z</time></trkpt><trkpt lat="43.3635668" lon="12.4987668"><ele>404.0</ele><time>2026-04-16T09:23:08.72Z</time></trkpt><trkpt lat="43.3635606" lon="12.4984882"><ele>404.0</ele><time>2026-04-16T09:23:09.72Z</time></trkpt><trkpt lat="43.3635341" lon="12.4982261"><ele>404.0</ele><time>2026-04-16T09:23:10.72Z</time></trkpt><trkpt lat="43.3634906" lon="12.4979813"><ele>404.0</ele><time>2026-04-16T09:23:11.719Z</time></trkpt><trkpt lat="43.363442" lon="12.4977533"><ele>403.66666666666663</ele><time>2026-04-16T09:23:12.721Z</time></trkpt><trkpt lat="43.3633972" lon="12.4975268"><ele>403.33333333333337</ele><time>2026-04-16T09:23:13.719Z</time></trkpt><trkpt lat="43.3633746" lon="12.497324"><ele>403.0</ele><time>2026-04-16T09:23:14.722Z</time></trkpt><trkpt lat="43.3633618" lon="12.497128"><ele>403.2</ele><time>2026-04-16T09:23:15.72Z</time></trkpt><trkpt lat="43.3633605" lon="12.4969368"><ele>403.4</ele><time>2026-04-16T09:23:16.719Z</time></trkpt><trkpt lat="43.3633892" lon="12.4968366"><ele>403.59999999999997</ele><time>2026-04-16T09:23:17.721Z</time></trkpt><trkpt lat="43.3634349" lon="12.4966998"><ele>403.79999999999995</ele><time>2026-04-16T09:23:18.72Z</time></trkpt><trkpt lat="43.363489" lon="12.496571"><ele>404.0</ele><time>2026-04-16T09:23:19.721Z</time></trkpt><trkpt lat="43.3635857" lon="12.4964406"><ele>404.0</ele><time>2026-04-16T09:23:20.72Z</time></trkpt><trkpt lat="43.3637044" lon="12.4963086"><ele>404.0</ele><time>2026-04-16T09:23:21.72Z</time></trkpt><trkpt lat="43.3638191" lon="12.4961662"><ele>404.0</ele><time>2026-04-16T09:23:22.721Z</time></trkpt><trkpt lat="43.3639656" lon="12.4960122"><ele>402.3333333333333</ele><time>2026-04-16T09:23:23.721Z</time></trkpt><trkpt lat="43.3641281" lon="12.4958698"><ele>400.66666666666663</ele><time>2026-04-16T09:23:24.721Z</time></trkpt><trkpt lat="43.3643053" lon="12.4957225"><ele>399.0</ele><time>2026-04-16T09:23:25.72Z</time></trkpt><trkpt lat="43.3644801" lon="12.4955759"><ele>399.0</ele><time>2026-04-16T09:23:26.72Z</time></trkpt><trkpt lat="43.364664" lon="12.4954139"><ele>399.0</ele><time>2026-04-16T09:23:27.721Z</time></trkpt><trkpt lat="43.3648395" lon="12.4952654"><ele>399.0</ele><time>2026-04-16T09:23:28.721Z</time></trkpt><trkpt lat="43.365023" lon="12.4951357"><ele>400.0</ele><time>2026-04-16T09:23:29.721Z</time></trkpt><trkpt lat="43.3651962" lon="12.4950079"><ele>401.0</ele><time>2026-04-16T09:23:30.72Z</time></trkpt><trkpt lat="43.3653617" lon="12.4949064"><ele>402.0</ele><time>2026-04-16T09:23:31.721Z</time></trkpt><trkpt lat="43.365511" lon="12.4948026"><ele>401.33333333333337</ele><time>2026-04-16T09:23:32.719Z</time></trkpt><trkpt lat="43.3656591" lon="12.494754"><ele>400.6666666666667</ele><time>2026-04-16T09:23:33.72Z</time></trkpt><trkpt lat="43.3658068" lon="12.4947426"><ele>400.0</ele><time>2026-04-16T09:23:34.72Z</time></trkpt><trkpt lat="43.3659681" lon="12.4947731"><ele>400.0</ele><time>2026-04-16T09:23:35.719Z</time></trkpt><trkpt lat="43.3661171" lon="12.4948179"><ele>400.0</ele><time>2026-04-16T09:23:36.721Z</time></trkpt><trkpt lat="43.3662715" lon="12.4948108"><ele>400.0</ele><time>2026-04-16T09:23:37.721Z</time></trkpt><trkpt lat="43.3664291" lon="12.49478"><ele>399.33333333333337</ele><time>2026-04-16T09:23:38.719Z</time></trkpt><trkpt lat="43.3665961" lon="12.4947039"><ele>398.66666666666663</ele><time>2026-04-16T09:23:39.721Z</time></trkpt><trkpt lat="43.3667588" lon="12.494599"><ele>398.0</ele><time>2026-04-16T09:23:40.72Z</time></trkpt><trkpt lat="43.3669255" lon="12.494494"><ele>398.0</ele><time>2026-04-16T09:23:41.72Z</time></trkpt><trkpt lat="43.3671008" lon="12.4943669"><ele>398.0</ele><time>2026-04-16T09:23:42.722Z</time></trkpt><trkpt lat="43.3672633" lon="12.4942438"><ele>398.0</ele><time>2026-04-16T09:23:43.721Z</time></trkpt><trkpt lat="43.3674054" lon="12.4941103"><ele>398.0</ele><time>2026-04-16T09:23:44.721Z</time></trkpt><trkpt lat="43.3675291" lon="12.4939647"><ele>398.0</ele><time>2026-04-16T09:23:45.72Z</time></trkpt><trkpt lat="43.3676506" lon="12.4938096"><ele>398.0</ele><time>2026-04-16T09:23:46.72Z</time></trkpt><trkpt lat="43.3677298" lon="12.4936525"><ele>398.0</ele><time>2026-04-16T09:23:47.721Z</time></trkpt><trkpt lat="43.3678022" lon="12.4934956"><ele>398.0</ele><time>2026-04-16T09:23:48.721Z</time></trkpt><trkpt lat="43.3678583" lon="12.4933677"><ele>398.0</ele><time>2026-04-16T09:23:49.719Z</time></trkpt><trkpt lat="43.3679125" lon="12.4932515"><ele>398.0</ele><time>2026-04-16T09:23:50.72Z</time></trkpt><trkpt lat="43.3679767" lon="12.4932087"><ele>398.0</ele><time>2026-04-16T09:23:51.721Z</time></trkpt><trkpt lat="43.3680357" lon="12.493151"><ele>399.3333333333333</ele><time>2026-04-16T09:23:52.721Z</time></trkpt><trkpt lat="43.3681295" lon="12.4931364"><ele>400.66666666666663</ele><time>2026-04-16T09:23:53.721Z</time></trkpt><trkpt lat="43.3682048" lon="12.4931042"><ele>402.0</ele><time>2026-04-16T09:23:54.72Z</time></trkpt><trkpt lat="43.3684762" lon="12.4934244"><ele>402.0</ele><time>2026-04-16T09:23:55.719Z</time></trkpt><trkpt lat="43.3686242" lon="12.4935068"><ele>402.0</ele><time>2026-04-16T09:23:56.719Z</time></trkpt><trkpt lat="43.3688047" lon="12.4936236"><ele>402.0</ele><time>2026-04-16T09:23:57.721Z</time></trkpt><trkpt lat="43.3689939" lon="12.4937605"><ele>403.66666666666663</ele><time>2026-04-16T09:23:58.72Z</time></trkpt><trkpt lat="43.3692199" lon="12.4938532"><ele>405.3333333333333</ele><time>2026-04-16T09:23:59.72Z</time></trkpt><trkpt lat="43.3694101" lon="12.4939438"><ele>407.0</ele><time>2026-04-16T09:24:00.721Z</time></trkpt><trkpt lat="43.3696001" lon="12.494034"><ele>407.66666666666663</ele><time>2026-04-16T09:24:01.721Z</time></trkpt><trkpt lat="43.3697919" lon="12.4941126"><ele>408.33333333333337</ele><time>2026-04-16T09:24:02.72Z</time></trkpt><trkpt lat="43.3699907" lon="12.4941692"><ele>409.0</ele><time>2026-04-16T09:24:03.72Z</time></trkpt><trkpt lat="43.3702038" lon="12.4941845"><ele>409.0</ele><time>2026-04-16T09:24:04.72Z</time></trkpt><trkpt lat="43.3703912" lon="12.4941589"><ele>409.0</ele><time>2026-04-16T09:24:05.72Z</time></trkpt><trkpt lat="43.3705793" lon="12.4940736"><ele>409.0</ele><time>2026-04-16T09:24:06.721Z</time></trkpt><trkpt lat="43.3707625" lon="12.4939826"><ele>409.33333333333337</ele><time>2026-04-16T09:24:07.72Z</time></trkpt><trkpt lat="43.3709691" lon="12.4939479"><ele>409.66666666666663</ele><time>2026-04-16T09:24:08.72Z</time></trkpt><trkpt lat="43.3711839" lon="12.4939422"><ele>410.0</ele><time>2026-04-16T09:24:09.72Z</time></trkpt><trkpt lat="43.3713797" lon="12.4939629"><ele>410.3333333333333</ele><time>2026-04-16T09:24:10.721Z</time></trkpt><trkpt lat="43.3715723" lon="12.4939936"><ele>410.66666666666663</ele><time>2026-04-16T09:24:11.721Z</time></trkpt><trkpt lat="43.3717631" lon="12.4940253"><ele>411.0</ele><time>2026-04-16T09:24:12.72Z</time></trkpt><trkpt lat="43.3718521" lon="12.4942032"><ele>411.0</ele><time>2026-04-16T09:24:13.72Z</time></trkpt><trkpt lat="43.3719757" lon="12.4943182"><ele>411.0</ele><time>2026-04-16T09:24:14.72Z</time></trkpt><trkpt lat="43.3720938" lon="12.4944532"><ele>411.0</ele><time>2026-04-16T09:24:15.721Z</time></trkpt><trkpt lat="43.3722177" lon="12.4945903"><ele>410.75</ele><time>2026-04-16T09:24:16.719Z</time></trkpt><trkpt lat="43.3723427" lon="12.4947138"><ele>410.5</ele><time>2026-04-16T09:24:17.72Z</time></trkpt><trkpt lat="43.3724594" lon="12.4947969"><ele>410.25</ele><time>2026-04-16T09:24:18.722Z</time></trkpt><trkpt lat="43.3725966" lon="12.4949073"><ele>410.0</ele><time>2026-04-16T09:24:19.719Z</time></trkpt><trkpt lat="43.3727342" lon="12.4950099"><ele>410.0</ele><time>2026-04-16T09:24:20.72Z</time></trkpt><trkpt lat="43.3729046" lon="12.4951216"><ele>410.0</ele><time>2026-04-16T09:24:21.72Z</time></trkpt><trkpt lat="43.3730892" lon="12.4952331"><ele>410.0</ele><time>2026-04-16T09:24:22.72Z</time></trkpt><trkpt lat="43.3733008" lon="12.4953331"><ele>409.66666666666663</ele><time>2026-04-16T09:24:23.721Z</time></trkpt><trkpt lat="43.3734926" lon="12.4954377"><ele>409.33333333333337</ele><time>2026-04-16T09:24:24.719Z</time></trkpt><trkpt lat="43.3736686" lon="12.4955504"><ele>409.0</ele><time>2026-04-16T09:24:25.72Z</time></trkpt><trkpt lat="43.373835" lon="12.4956641"><ele>409.33333333333337</ele><time>2026-04-16T09:24:26.718Z</time></trkpt><trkpt lat="43.3739959" lon="12.4957674"><ele>409.66666666666663</ele><time>2026-04-16T09:24:27.721Z</time></trkpt><trkpt lat="43.3741517" lon="12.4958675"><ele>410.0</ele><time>2026-04-16T09:24:28.72Z</time></trkpt><trkpt lat="43.3742776" lon="12.4959625"><ele>410.0</ele><time>2026-04-16T09:24:29.721Z</time></trkpt><trkpt lat="43.3743905" lon="12.4960401"><ele>410.0</ele><time>2026-04-16T09:24:30.72Z</time></trkpt><trkpt lat="43.374494" lon="12.4961174"><ele>410.0</ele><time>2026-04-16T09:24:31.721Z</time></trkpt><trkpt lat="43.3745926" lon="12.4961945"><ele>410.0</ele><time>2026-04-16T09:24:32.72Z</time></trkpt><trkpt lat="43.3746901" lon="12.4962762"><ele>410.25</ele><time>2026-04-16T09:24:33.721Z</time></trkpt><trkpt lat="43.3747942" lon="12.4963687"><ele>410.5</ele><time>2026-04-16T09:24:34.72Z</time></trkpt><trkpt lat="43.3749075" lon="12.4964653"><ele>410.75</ele><time>2026-04-16T09:24:35.72Z</time></trkpt><trkpt lat="43.3750182" lon="12.4965609"><ele>411.0</ele><time>2026-04-16T09:24:36.721Z</time></trkpt><trkpt lat="43.375131" lon="12.4966568"><ele>411.0</ele><time>2026-04-16T09:24:37.72Z</time></trkpt><trkpt lat="43.3752549" lon="12.4967696"><ele>411.0</ele><time>2026-04-16T09:24:38.722Z</time></trkpt><trkpt lat="43.3753817" lon="12.4968813"><ele>411.0</ele><time>2026-04-16T09:24:39.72Z</time></trkpt><trkpt lat="43.3755053" lon="12.4969936"><ele>411.0</ele><time>2026-04-16T09:24:40.72Z</time></trkpt><trkpt lat="43.3756132" lon="12.4971049"><ele>411.0</ele><time>2026-04-16T09:24:41.719Z</time></trkpt><trkpt lat="43.3757178" lon="12.4972077"><ele>411.0</ele><time>2026-04-16T09:24:42.72Z</time></trkpt><trkpt lat="43.3758262" lon="12.4973109"><ele>411.0</ele><time>2026-04-16T09:24:43.72Z</time></trkpt><trkpt lat="43.3759327" lon="12.4973886"><ele>411.0</ele><time>2026-04-16T09:24:44.72Z</time></trkpt><trkpt lat="43.3760475" lon="12.497466"><ele>411.0</ele><time>2026-04-16T09:24:45.721Z</time></trkpt><trkpt lat="43.3761801" lon="12.4975151"><ele>411.0</ele><time>2026-04-16T09:24:46.721Z</time></trkpt><trkpt lat="43.3763178" lon="12.4975528"><ele>411.0</ele><time>2026-04-16T09:24:47.721Z</time></trkpt><trkpt lat="43.3764537" lon="12.4975816"><ele>411.0</ele><time>2026-04-16T09:24:48.72Z</time></trkpt><trkpt lat="43.3765732" lon="12.4976025"><ele>410.75</ele><time>2026-04-16T09:24:49.722Z</time></trkpt><trkpt lat="43.3766961" lon="12.4976431"><ele>410.5</ele><time>2026-04-16T09:24:50.72Z</time></trkpt><trkpt lat="43.3768244" lon="12.4977379"><ele>410.25</ele><time>2026-04-16T09:24:51.722Z</time></trkpt><trkpt lat="43.3769531" lon="12.4978163"><ele>410.0</ele><time>2026-04-16T09:24:52.72Z</time></trkpt><trkpt lat="43.3770916" lon="12.497868"><ele>410.3333333333333</ele><time>2026-04-16T09:24:53.721Z</time></trkpt><trkpt lat="43.3772446" lon="12.4979171"><ele>410.66666666666663</ele><time>2026-04-16T09:24:54.721Z</time></trkpt><trkpt lat="43.3774046" lon="12.497948"><ele>411.0</ele><time>2026-04-16T09:24:55.72Z</time></trkpt><trkpt lat="43.3775724" lon="12.4979687"><ele>411.75</ele><time>2026-04-16T09:24:56.721Z</time></trkpt><trkpt lat="43.3777355" lon="12.4979724"><ele>412.5</ele><time>2026-04-16T09:24:57.72Z</time></trkpt><trkpt lat="43.3778845" lon="12.497978"><ele>413.25</ele><time>2026-04-16T09:24:58.721Z</time></trkpt><trkpt lat="43.3780141" lon="12.4980009"><ele>414.0</ele><time>2026-04-16T09:24:59.72Z</time></trkpt><trkpt lat="43.3781344" lon="12.4980271"><ele>414.75</ele><time>2026-04-16T09:25:00.72Z</time></trkpt><trkpt lat="43.3782593" lon="12.4980769"><ele>415.5</ele><time>2026-04-16T09:25:01.72Z</time></trkpt><trkpt lat="43.3783716" lon="12.4981111"><ele>416.25</ele><time>2026-04-16T09:25:02.72Z</time></trkpt><trkpt lat="43.3784842" lon="12.4981473"><ele>417.0</ele><time>2026-04-16T09:25:03.72Z</time></trkpt><trkpt lat="43.3785921" lon="12.4981922"><ele>417.0</ele><time>2026-04-16T09:25:04.721Z</time></trkpt><trkpt lat="43.378685" lon="12.4982337"><ele>417.0</ele><time>2026-04-16T09:25:05.721Z</time></trkpt><trkpt lat="43.3787869" lon="12.4982509"><ele>417.0</ele><time>2026-04-16T09:25:06.721Z</time></trkpt><trkpt lat="43.3788939" lon="12.4982508"><ele>417.0</ele><time>2026-04-16T09:25:07.72Z</time></trkpt><trkpt lat="43.3790002" lon="12.4982428"><ele>417.0</ele><time>2026-04-16T09:25:08.719Z</time></trkpt><trkpt lat="43.3790977" lon="12.4982277"><ele>417.1666666666667</ele><time>2026-04-16T09:25:09.719Z</time></trkpt><trkpt lat="43.3791846" lon="12.4982185"><ele>417.33333333333337</ele><time>2026-04-16T09:25:10.721Z</time></trkpt><trkpt lat="43.3792617" lon="12.4982021"><ele>417.5</ele><time>2026-04-16T09:25:11.721Z</time></trkpt><trkpt lat="43.3793329" lon="12.498197"><ele>417.6666666666667</ele><time>2026-04-16T09:25:12.721Z</time></trkpt><trkpt lat="43.3794217" lon="12.4982055"><ele>417.83333333333337</ele><time>2026-04-16T09:25:14.721Z</time></trkpt><trkpt lat="43.3794872" lon="12.4981914"><ele>418.0</ele><time>2026-04-16T09:25:20.721Z</time></trkpt><trkpt lat="43.3795761" lon="12.4981483"><ele>418.0</ele><time>2026-04-16T09:25:24.721Z</time></trkpt><trkpt lat="43.3796051" lon="12.498012"><ele>418.0</ele><time>2026-04-16T09:25:26.721Z</time></trkpt><trkpt lat="43.3796334" lon="12.4978888"><ele>418.0</ele><time>2026-04-16T09:25:28.721Z</time></trkpt><trkpt lat="43.3796927" lon="12.4978505"><ele>418.0</ele><time>2026-04-16T09:25:30.72Z</time></trkpt><trkpt lat="43.3797907" lon="12.497869"><ele>418.0</ele><time>2026-04-16T09:25:32.721Z</time></trkpt><trkpt lat="43.3798934" lon="12.4979188"><ele>418.59999999999997</ele><time>2026-04-16T09:25:34.719Z</time></trkpt><trkpt lat="43.3799718" lon="12.4979978"><ele>419.2</ele><time>2026-04-16T09:25:36.72Z</time></trkpt><trkpt lat="43.380057" lon="12.4980594"><ele>419.8</ele><time>2026-04-16T09:25:38.721Z</time></trkpt><trkpt lat="43.3801512" lon="12.4981132"><ele>420.4</ele><time>2026-04-16T09:25:40.72Z</time></trkpt><trkpt lat="43.3802688" lon="12.4982093"><ele>421.0</ele><time>2026-04-16T09:25:42.72Z</time></trkpt><trkpt lat="43.3803299" lon="12.4982567"><ele>421.00000000000006</ele><time>2026-04-16T09:25:43.72Z</time></trkpt><trkpt lat="43.3804158" lon="12.4983155"><ele>421.0</ele><time>2026-04-16T09:25:44.72Z</time></trkpt><trkpt lat="43.3804893" lon="12.4983577"><ele>421.0</ele><time>2026-04-16T09:25:45.72Z</time></trkpt><trkpt lat="43.3805454" lon="12.4984126"><ele>421.0</ele><time>2026-04-16T09:25:46.72Z</time></trkpt><trkpt lat="43.3806068" lon="12.4984606"><ele>421.00000000000006</ele><time>2026-04-16T09:25:47.72Z</time></trkpt><trkpt lat="43.3807069" lon="12.49855"><ele>421.0</ele><time>2026-04-16T09:25:49.719Z</time></trkpt><trkpt lat="43.3807786" lon="12.4986205"><ele>421.6</ele><time>2026-04-16T09:25:51.72Z</time></trkpt><trkpt lat="43.3808484" lon="12.4986477"><ele>422.20000000000005</ele><time>2026-04-16T09:27:17.72Z</time></trkpt><trkpt lat="43.3809333" lon="12.4987085"><ele>422.79999999999995</ele><time>2026-04-16T09:27:19.719Z</time></trkpt><trkpt lat="43.3809979" lon="12.4987661"><ele>423.4</ele><time>2026-04-16T09:27:20.719Z</time></trkpt><trkpt lat="43.3810935" lon="12.4988414"><ele>424.0</ele><time>2026-04-16T09:27:21.719Z</time></trkpt><trkpt lat="43.3811848" lon="12.4989202"><ele>424.0</ele><time>2026-04-16T09:27:22.72Z</time></trkpt><trkpt lat="43.3812639" lon="12.4989826"><ele>424.0</ele><time>2026-04-16T09:27:23.719Z</time></trkpt><trkpt lat="43.3813568" lon="12.4990796"><ele>424.0</ele><time>2026-04-16T09:27:24.72Z</time></trkpt><trkpt lat="43.3814412" lon="12.4991495"><ele>424.0</ele><time>2026-04-16T09:27:25.719Z</time></trkpt><trkpt lat="43.3815312" lon="12.4992586"><ele>424.0</ele><time>2026-04-16T09:27:26.72Z</time></trkpt><trkpt lat="43.3816221" lon="12.4993662"><ele>424.33333333333337</ele><time>2026-04-16T09:27:27.72Z</time></trkpt><trkpt lat="43.3817096" lon="12.4994739"><ele>424.66666666666663</ele><time>2026-04-16T09:27:28.72Z</time></trkpt><trkpt lat="43.3818892" lon="12.4997019"><ele>425.0</ele><time>2026-04-16T09:27:29.72Z</time></trkpt><trkpt lat="43.3820291" lon="12.4998705"><ele>426.0</ele><time>2026-04-16T09:27:30.719Z</time></trkpt><trkpt lat="43.3821899" lon="12.5000548"><ele>427.0</ele><time>2026-04-16T09:27:31.72Z</time></trkpt><trkpt lat="43.3823512" lon="12.5002403"><ele>428.0</ele><time>2026-04-16T09:27:32.719Z</time></trkpt><trkpt lat="43.3825223" lon="12.5004178"><ele>428.3333333333333</ele><time>2026-04-16T09:27:33.719Z</time></trkpt><trkpt lat="43.3826947" lon="12.500589"><ele>428.66666666666663</ele><time>2026-04-16T09:27:34.72Z</time></trkpt><trkpt lat="43.3828706" lon="12.5007575"><ele>429.0</ele><time>2026-04-16T09:27:35.72Z</time></trkpt><trkpt lat="43.3830566" lon="12.5009207"><ele>429.33333333333337</ele><time>2026-04-16T09:27:36.72Z</time></trkpt><trkpt lat="43.3832249" lon="12.50106"><ele>429.6666666666667</ele><time>2026-04-16T09:27:37.72Z</time></trkpt><trkpt lat="43.3833956" lon="12.5011955"><ele>430.0</ele><time>2026-04-16T09:27:38.719Z</time></trkpt><trkpt lat="43.3835538" lon="12.501316"><ele>430.6666666666667</ele><time>2026-04-16T09:27:39.719Z</time></trkpt><trkpt lat="43.3837112" lon="12.5014372"><ele>431.33333333333337</ele><time>2026-04-16T09:27:40.72Z</time></trkpt><trkpt lat="43.3838631" lon="12.5015514"><ele>432.0</ele><time>2026-04-16T09:27:41.72Z</time></trkpt><trkpt lat="43.383992" lon="12.501657"><ele>433.0</ele><time>2026-04-16T09:27:42.72Z</time></trkpt><trkpt lat="43.3841169" lon="12.5017627"><ele>434.0</ele><time>2026-04-16T09:27:43.719Z</time></trkpt><trkpt lat="43.3842376" lon="12.5018431"><ele>435.0</ele><time>2026-04-16T09:27:44.719Z</time></trkpt><trkpt lat="43.3843766" lon="12.5019467"><ele>436.0</ele><time>2026-04-16T09:27:45.719Z</time></trkpt><trkpt lat="43.384543" lon="12.5019854"><ele>436.0</ele><time>2026-04-16T09:27:46.72Z</time></trkpt><trkpt lat="43.3847226" lon="12.5019571"><ele>436.0</ele><time>2026-04-16T09:27:47.72Z</time></trkpt><trkpt lat="43.3848714" lon="12.501989"><ele>436.0</ele><time>2026-04-16T09:27:48.72Z</time></trkpt><trkpt lat="43.3850248" lon="12.5020147"><ele>436.0</ele><time>2026-04-16T09:27:49.72Z</time></trkpt><trkpt lat="43.3851707" lon="12.5020385"><ele>436.0</ele><time>2026-04-16T09:27:50.72Z</time></trkpt><trkpt lat="43.3853202" lon="12.502083"><ele>436.0</ele><time>2026-04-16T09:27:51.72Z</time></trkpt><trkpt lat="43.3854436" lon="12.5020626"><ele>436.0</ele><time>2026-04-16T09:27:52.72Z</time></trkpt><trkpt lat="43.3855672" lon="12.502055"><ele>436.0</ele><time>2026-04-16T09:27:53.72Z</time></trkpt><trkpt lat="43.3856827" lon="12.5020384"><ele>436.0</ele><time>2026-04-16T09:27:54.72Z</time></trkpt><trkpt lat="43.3857833" lon="12.5020183"><ele>436.0</ele><time>2026-04-16T09:27:55.72Z</time></trkpt><trkpt lat="43.3858836" lon="12.5019974"><ele>436.0</ele><time>2026-04-16T09:27:56.72Z</time></trkpt><trkpt lat="43.3859575" lon="12.5019913"><ele>436.0</ele><time>2026-04-16T09:27:57.719Z</time></trkpt><trkpt lat="43.3860563" lon="12.5020067"><ele>436.0</ele><time>2026-04-16T09:27:59.719Z</time></trkpt><trkpt lat="43.3861421" lon="12.5020466"><ele>436.0</ele><time>2026-04-16T09:28:01.721Z</time></trkpt><trkpt lat="43.3862255" lon="12.5021055"><ele>436.0</ele><time>2026-04-16T09:28:03.72Z</time></trkpt><trkpt lat="43.3863479" lon="12.5022177"><ele>436.0</ele><time>2026-04-16T09:28:05.722Z</time></trkpt><trkpt lat="43.386414" lon="12.5022651"><ele>436.0</ele><time>2026-04-16T09:28:06.72Z</time></trkpt><trkpt lat="43.386514" lon="12.5023248"><ele>437.5</ele><time>2026-04-16T09:28:07.721Z</time></trkpt><trkpt lat="43.3866199" lon="12.502386"><ele>439.0</ele><time>2026-04-16T09:28:08.721Z</time></trkpt><trkpt lat="43.3867176" lon="12.5024665"><ele>440.5</ele><time>2026-04-16T09:28:09.721Z</time></trkpt><trkpt lat="43.386802" lon="12.5025866"><ele>442.0</ele><time>2026-04-16T09:28:10.72Z</time></trkpt><trkpt lat="43.3868907" lon="12.5027438"><ele>442.33333333333337</ele><time>2026-04-16T09:28:11.721Z</time></trkpt><trkpt lat="43.3869872" lon="12.5029149"><ele>442.66666666666663</ele><time>2026-04-16T09:28:12.721Z</time></trkpt><trkpt lat="43.3870958" lon="12.5031112"><ele>443.0</ele><time>2026-04-16T09:28:13.721Z</time></trkpt><trkpt lat="43.3872148" lon="12.5033201"><ele>445.0</ele><time>2026-04-16T09:28:14.72Z</time></trkpt><trkpt lat="43.387336" lon="12.5035214"><ele>447.0</ele><time>2026-04-16T09:28:15.721Z</time></trkpt><trkpt lat="43.3874696" lon="12.5037391"><ele>449.0</ele><time>2026-04-16T09:28:16.721Z</time></trkpt><trkpt lat="43.3875909" lon="12.5039454"><ele>449.0</ele><time>2026-04-16T09:28:17.721Z</time></trkpt><trkpt lat="43.3876977" lon="12.5041335"><ele>449.0</ele><time>2026-04-16T09:28:18.72Z</time></trkpt><trkpt lat="43.3878018" lon="12.5042821"><ele>449.0</ele><time>2026-04-16T09:28:19.72Z</time></trkpt><trkpt lat="43.3879062" lon="12.50437"><ele>449.0</ele><time>2026-04-16T09:28:20.719Z</time></trkpt><trkpt lat="43.3880092" lon="12.5043926"><ele>453.6</ele><time>2026-04-16T09:28:21.72Z</time></trkpt><trkpt lat="43.3880862" lon="12.5043626"><ele>458.2</ele><time>2026-04-16T09:28:22.721Z</time></trkpt><trkpt lat="43.3881298" lon="12.5042813"><ele>462.80000000000007</ele><time>2026-04-16T09:28:23.721Z</time></trkpt><trkpt lat="43.3881401" lon="12.5041647"><ele>467.40000000000003</ele><time>2026-04-16T09:28:24.721Z</time></trkpt><trkpt lat="43.3881413" lon="12.5040353"><ele>472.0</ele><time>2026-04-16T09:28:25.721Z</time></trkpt><trkpt lat="43.3880373" lon="12.5039235"><ele>468.6666666666667</ele><time>2026-04-16T09:28:26.72Z</time></trkpt><trkpt lat="43.3879618" lon="12.5037827"><ele>465.33333333333337</ele><time>2026-04-16T09:28:27.721Z</time></trkpt><trkpt lat="43.3878191" lon="12.5036344"><ele>462.0</ele><time>2026-04-16T09:28:28.72Z</time></trkpt><trkpt lat="43.3876896" lon="12.5034913"><ele>462.0</ele><time>2026-04-16T09:28:29.721Z</time></trkpt><trkpt lat="43.3876366" lon="12.5033162"><ele>462.0</ele><time>2026-04-16T09:28:30.72Z</time></trkpt><trkpt lat="43.3875444" lon="12.5031754"><ele>462.0</ele><time>2026-04-16T09:28:31.719Z</time></trkpt><trkpt lat="43.387527" lon="12.5029827"><ele>462.0</ele><time>2026-04-16T09:28:32.72Z</time></trkpt><trkpt lat="43.3875395" lon="12.5027707"><ele>463.66666666666663</ele><time>2026-04-16T09:28:33.718Z</time></trkpt><trkpt lat="43.3875605" lon="12.5025419"><ele>465.3333333333333</ele><time>2026-04-16T09:28:34.72Z</time></trkpt><trkpt lat="43.3876349" lon="12.5022893"><ele>467.0</ele><time>2026-04-16T09:28:35.721Z</time></trkpt><trkpt lat="43.3876704" lon="12.5020522"><ele>467.0</ele><time>2026-04-16T09:28:36.72Z</time></trkpt><trkpt lat="43.3876928" lon="12.5017657"><ele>467.0</ele><time>2026-04-16T09:28:37.72Z</time></trkpt><trkpt lat="43.3877103" lon="12.5014902"><ele>467.0</ele><time>2026-04-16T09:28:38.721Z</time></trkpt><trkpt lat="43.3877416" lon="12.5011753"><ele>467.0</ele><time>2026-04-16T09:28:39.722Z</time></trkpt><trkpt lat="43.3877741" lon="12.5008601"><ele>467.0</ele><time>2026-04-16T09:28:40.72Z</time></trkpt><trkpt lat="43.3878115" lon="12.5005437"><ele>468.0</ele><time>2026-04-16T09:28:41.721Z</time></trkpt><trkpt lat="43.3878512" lon="12.5002345"><ele>469.0</ele><time>2026-04-16T09:28:42.72Z</time></trkpt><trkpt lat="43.3879901" lon="12.4998539"><ele>485.0</ele><time>2026-04-16T09:28:43.721Z</time></trkpt><trkpt lat="43.38807" lon="12.4995353"><ele>501.0</ele><time>2026-04-16T09:28:44.72Z</time></trkpt><trkpt lat="43.3881497" lon="12.4992506"><ele>501.0</ele><time>2026-04-16T09:28:45.72Z</time></trkpt><trkpt lat="43.3882246" lon="12.498992"><ele>501.0</ele><time>2026-04-16T09:28:46.72Z</time></trkpt><trkpt lat="43.3883095" lon="12.4987487"><ele>501.0</ele><time>2026-04-16T09:28:47.72Z</time></trkpt><trkpt lat="43.3884097" lon="12.4984992"><ele>497.66666666666663</ele><time>2026-04-16T09:28:48.72Z</time></trkpt><trkpt lat="43.3885122" lon="12.4982474"><ele>494.3333333333333</ele><time>2026-04-16T09:28:49.72Z</time></trkpt><trkpt lat="43.388626" lon="12.4979841"><ele>491.0</ele><time>2026-04-16T09:28:50.72Z</time></trkpt><trkpt lat="43.3887555" lon="12.4977255"><ele>494.0</ele><time>2026-04-16T09:28:51.72Z</time></trkpt><trkpt lat="43.3888769" lon="12.4974839"><ele>497.0</ele><time>2026-04-16T09:28:52.72Z</time></trkpt><trkpt lat="43.3889885" lon="12.4972716"><ele>500.0</ele><time>2026-04-16T09:28:53.72Z</time></trkpt><trkpt lat="43.3891061" lon="12.4970655"><ele>500.0</ele><time>2026-04-16T09:28:54.719Z</time></trkpt><trkpt lat="43.3892251" lon="12.4968759"><ele>500.0</ele><time>2026-04-16T09:28:55.72Z</time></trkpt><trkpt lat="43.3893493" lon="12.4967003"><ele>500.0</ele><time>2026-04-16T09:28:56.72Z</time></trkpt><trkpt lat="43.3894708" lon="12.4965596"><ele>500.0</ele><time>2026-04-16T09:28:57.72Z</time></trkpt><trkpt lat="43.3896025" lon="12.496417"><ele>500.0</ele><time>2026-04-16T09:28:58.719Z</time></trkpt><trkpt lat="43.3897065" lon="12.4962432"><ele>500.0</ele><time>2026-04-16T09:28:59.72Z</time></trkpt><trkpt lat="43.3897972" lon="12.496086"><ele>504.0</ele><time>2026-04-16T09:29:00.72Z</time></trkpt><trkpt lat="43.3898874" lon="12.4959725"><ele>508.0</ele><time>2026-04-16T09:29:01.719Z</time></trkpt><trkpt lat="43.3900035" lon="12.4958778"><ele>512.0</ele><time>2026-04-16T09:29:02.72Z</time></trkpt><trkpt lat="43.3901539" lon="12.4957901"><ele>516.0</ele><time>2026-04-16T09:29:03.72Z</time></trkpt><trkpt lat="43.3903171" lon="12.4957121"><ele>516.0</ele><time>2026-04-16T09:29:04.719Z</time></trkpt><trkpt lat="43.3905013" lon="12.4956225"><ele>516.0</ele><time>2026-04-16T09:29:05.719Z</time></trkpt><trkpt lat="43.3906821" lon="12.4955077"><ele>516.0</ele><time>2026-04-16T09:29:06.72Z</time></trkpt><trkpt lat="43.3908668" lon="12.4953681"><ele>519.0</ele><time>2026-04-16T09:29:07.719Z</time></trkpt><trkpt lat="43.3910494" lon="12.4952001"><ele>522.0</ele><time>2026-04-16T09:29:08.72Z</time></trkpt><trkpt lat="43.3912362" lon="12.4950249"><ele>525.0</ele><time>2026-04-16T09:29:09.72Z</time></trkpt><trkpt lat="43.3914266" lon="12.4948418"><ele>527.3333333333334</ele><time>2026-04-16T09:29:10.72Z</time></trkpt><trkpt lat="43.391618" lon="12.4946666"><ele>529.6666666666667</ele><time>2026-04-16T09:29:11.72Z</time></trkpt><trkpt lat="43.3917894" lon="12.4945068"><ele>532.0</ele><time>2026-04-16T09:29:12.719Z</time></trkpt><trkpt lat="43.3919642" lon="12.4943887"><ele>532.0</ele><time>2026-04-16T09:29:13.72Z</time></trkpt><trkpt lat="43.3921388" lon="12.4942628"><ele>532.0</ele><time>2026-04-16T09:29:14.72Z</time></trkpt><trkpt lat="43.3923085" lon="12.4941341"><ele>532.0</ele><time>2026-04-16T09:29:15.719Z</time></trkpt><trkpt lat="43.3924717" lon="12.4940009"><ele>531.6666666666667</ele><time>2026-04-16T09:29:16.72Z</time></trkpt><trkpt lat="43.392626" lon="12.4938616"><ele>531.3333333333334</ele><time>2026-04-16T09:29:17.72Z</time></trkpt><trkpt lat="43.3928044" lon="12.4937426"><ele>531.0</ele><time>2026-04-16T09:29:18.72Z</time></trkpt><trkpt lat="43.3929665" lon="12.4936146"><ele>543.3333333333334</ele><time>2026-04-16T09:29:19.72Z</time></trkpt><trkpt lat="43.3930939" lon="12.4934618"><ele>555.6666666666667</ele><time>2026-04-16T09:29:20.72Z</time></trkpt><trkpt lat="43.3932351" lon="12.4933235"><ele>568.0</ele><time>2026-04-16T09:29:21.72Z</time></trkpt><trkpt lat="43.3933652" lon="12.4931812"><ele>568.0</ele><time>2026-04-16T09:29:22.72Z</time></trkpt><trkpt lat="43.3934898" lon="12.493039"><ele>568.0</ele><time>2026-04-16T09:29:23.72Z</time></trkpt><trkpt lat="43.3936024" lon="12.4929008"><ele>568.0</ele><time>2026-04-16T09:29:24.719Z</time></trkpt><trkpt lat="43.3937042" lon="12.4927711"><ele>569.75</ele><time>2026-04-16T09:29:25.719Z</time></trkpt><trkpt lat="43.3938133" lon="12.492637"><ele>571.5</ele><time>2026-04-16T09:29:26.72Z</time></trkpt><trkpt lat="43.3939229" lon="12.4925078"><ele>573.25</ele><time>2026-04-16T09:29:27.72Z</time></trkpt><trkpt lat="43.3940373" lon="12.4923917"><ele>575.0</ele><time>2026-04-16T09:29:28.719Z</time></trkpt><trkpt lat="43.394157" lon="12.4923067"><ele>575.0</ele><time>2026-04-16T09:29:29.72Z</time></trkpt><trkpt lat="43.3942784" lon="12.4922667"><ele>575.0</ele><time>2026-04-16T09:29:30.72Z</time></trkpt><trkpt lat="43.3944178" lon="12.4922635"><ele>575.0</ele><time>2026-04-16T09:29:31.72Z</time></trkpt><trkpt lat="43.3945797" lon="12.4922845"><ele>575.0</ele><time>2026-04-16T09:29:32.72Z</time></trkpt><trkpt lat="43.3947551" lon="12.4922958"><ele>582.0</ele><time>2026-04-16T09:29:33.719Z</time></trkpt><trkpt lat="43.3949305" lon="12.4923125"><ele>589.0</ele><time>2026-04-16T09:29:34.719Z</time></trkpt><trkpt lat="43.3950953" lon="12.4923293"><ele>596.0</ele><time>2026-04-16T09:29:35.719Z</time></trkpt><trkpt lat="43.3952485" lon="12.4923371"><ele>596.0</ele><time>2026-04-16T09:29:36.72Z</time></trkpt><trkpt lat="43.3953948" lon="12.4923442"><ele>596.0</ele><time>2026-04-16T09:29:37.719Z</time></trkpt><trkpt lat="43.3955353" lon="12.4923717"><ele>596.0</ele><time>2026-04-16T09:29:38.719Z</time></trkpt><trkpt lat="43.395673" lon="12.4924063"><ele>596.0</ele><time>2026-04-16T09:29:39.719Z</time></trkpt><trkpt lat="43.3958369" lon="12.492359"><ele>600.0</ele><time>2026-04-16T09:29:40.72Z</time></trkpt><trkpt lat="43.3959827" lon="12.4923451"><ele>604.0</ele><time>2026-04-16T09:29:41.72Z</time></trkpt><trkpt lat="43.3961563" lon="12.4922712"><ele>608.0</ele><time>2026-04-16T09:29:42.72Z</time></trkpt><trkpt lat="43.3963368" lon="12.4922076"><ele>611.6666666666666</ele><time>2026-04-16T09:29:43.719Z</time></trkpt><trkpt lat="43.39651" lon="12.4921435"><ele>615.3333333333334</ele><time>2026-04-16T09:29:44.719Z</time></trkpt><trkpt lat="43.3966796" lon="12.4921059"><ele>619.0</ele><time>2026-04-16T09:29:45.72Z</time></trkpt><trkpt lat="43.3968573" lon="12.4921055"><ele>619.0</ele><time>2026-04-16T09:29:46.72Z</time></trkpt><trkpt lat="43.3970317" lon="12.4921326"><ele>619.0</ele><time>2026-04-16T09:29:47.72Z</time></trkpt><trkpt lat="43.3972037" lon="12.4921778"><ele>619.0</ele><time>2026-04-16T09:29:48.719Z</time></trkpt><trkpt lat="43.397377" lon="12.492202"><ele>620.3333333333334</ele><time>2026-04-16T09:29:49.718Z</time></trkpt><trkpt lat="43.397559" lon="12.4922044"><ele>621.6666666666666</ele><time>2026-04-16T09:29:50.719Z</time></trkpt><trkpt lat="43.397741" lon="12.4921901"><ele>623.0</ele><time>2026-04-16T09:29:51.719Z</time></trkpt><trkpt lat="43.3979284" lon="12.4921798"><ele>625.0</ele><time>2026-04-16T09:29:52.72Z</time></trkpt><trkpt lat="43.3981116" lon="12.492149"><ele>627.0</ele><time>2026-04-16T09:29:53.719Z</time></trkpt><trkpt lat="43.3982964" lon="12.492088"><ele>629.0</ele><time>2026-04-16T09:29:54.72Z</time></trkpt><trkpt lat="43.398464" lon="12.4919347"><ele>629.0</ele><time>2026-04-16T09:29:55.72Z</time></trkpt><trkpt lat="43.3986366" lon="12.4918146"><ele>629.0</ele><time>2026-04-16T09:29:56.718Z</time></trkpt><trkpt lat="43.398812" lon="12.4917073"><ele>629.0</ele><time>2026-04-16T09:29:57.721Z</time></trkpt><trkpt lat="43.3991497" lon="12.4915409"><ele>631.0</ele><time>2026-04-16T09:29:59.393Z</time></trkpt><trkpt lat="43.3992513" lon="12.491538"><ele>633.0</ele><time>2026-04-16T09:30:02.392Z</time></trkpt><trkpt lat="43.3997397" lon="12.4914328"><ele>634.6666666666666</ele><time>2026-04-16T09:30:03.392Z</time></trkpt><trkpt lat="43.3998498" lon="12.4914313"><ele>636.3333333333333</ele><time>2026-04-16T09:30:04.393Z</time></trkpt><trkpt lat="43.4000012" lon="12.491419"><ele>638.0</ele><time>2026-04-16T09:30:05.393Z</time></trkpt><trkpt lat="43.4003253" lon="12.4915474"><ele>638.0</ele><time>2026-04-16T09:30:07.719Z</time></trkpt><trkpt lat="43.400456" lon="12.4916835"><ele>638.0</ele><time>2026-04-16T09:30:08.719Z</time></trkpt><trkpt lat="43.4006029" lon="12.4918415"><ele>638.0</ele><time>2026-04-16T09:30:09.719Z</time></trkpt><trkpt lat="43.4007578" lon="12.49203"><ele>643.0</ele><time>2026-04-16T09:30:10.72Z</time></trkpt><trkpt lat="43.4009251" lon="12.4921992"><ele>648.0</ele><time>2026-04-16T09:30:11.719Z</time></trkpt><trkpt lat="43.4011074" lon="12.4923561"><ele>653.0</ele><time>2026-04-16T09:30:12.719Z</time></trkpt><trkpt lat="43.4013088" lon="12.4924725"><ele>652.3333333333333</ele><time>2026-04-16T09:30:13.72Z</time></trkpt><trkpt lat="43.4014936" lon="12.4925618"><ele>651.6666666666666</ele><time>2026-04-16T09:30:14.719Z</time></trkpt><trkpt lat="43.4016604" lon="12.4926862"><ele>651.0</ele><time>2026-04-16T09:30:15.719Z</time></trkpt><trkpt lat="43.4018053" lon="12.4928246"><ele>654.3333333333334</ele><time>2026-04-16T09:30:16.719Z</time></trkpt><trkpt lat="43.4019511" lon="12.4929544"><ele>657.6666666666667</ele><time>2026-04-16T09:30:17.72Z</time></trkpt><trkpt lat="43.402117" lon="12.4930547"><ele>661.0</ele><time>2026-04-16T09:30:18.72Z</time></trkpt><trkpt lat="43.4022818" lon="12.4931254"><ele>661.0</ele><time>2026-04-16T09:30:19.72Z</time></trkpt><trkpt lat="43.402437" lon="12.4931854"><ele>661.0</ele><time>2026-04-16T09:30:20.72Z</time></trkpt><trkpt lat="43.4025624" lon="12.4932673"><ele>661.0</ele><time>2026-04-16T09:30:21.72Z</time></trkpt><trkpt lat="43.402681" lon="12.4933521"><ele>661.0</ele><time>2026-04-16T09:30:22.721Z</time></trkpt><trkpt lat="43.402768" lon="12.4934535"><ele>661.0</ele><time>2026-04-16T09:30:23.721Z</time></trkpt><trkpt lat="43.4028559" lon="12.4935366"><ele>661.0</ele><time>2026-04-16T09:30:24.72Z</time></trkpt><trkpt lat="43.4029506" lon="12.4935855"><ele>661.0</ele><time>2026-04-16T09:30:25.721Z</time></trkpt><trkpt lat="43.4030615" lon="12.493631"><ele>661.0</ele><time>2026-04-16T09:30:26.719Z</time></trkpt><trkpt lat="43.4031613" lon="12.4936607"><ele>661.0</ele><time>2026-04-16T09:30:27.72Z</time></trkpt><trkpt lat="43.403257" lon="12.4936811"><ele>661.6666666666667</ele><time>2026-04-16T09:30:28.721Z</time></trkpt><trkpt lat="43.4033415" lon="12.4936703"><ele>662.3333333333334</ele><time>2026-04-16T09:30:29.72Z</time></trkpt><trkpt lat="43.4034138" lon="12.4936717"><ele>663.0</ele><time>2026-04-16T09:30:30.72Z</time></trkpt><trkpt lat="43.4034785" lon="12.493675"><ele>663.6666666666666</ele><time>2026-04-16T09:30:31.721Z</time></trkpt><trkpt lat="43.403575" lon="12.4936434"><ele>664.3333333333333</ele><time>2026-04-16T09:30:33.722Z</time></trkpt><trkpt lat="43.4036419" lon="12.4936316"><ele>665.0</ele><time>2026-04-16T09:30:35.721Z</time></trkpt><trkpt lat="43.4038048" lon="12.4936318"><ele>667.0</ele><time>2026-04-16T09:31:14.722Z</time></trkpt><trkpt lat="43.4039544" lon="12.4936495"><ele>669.0</ele><time>2026-04-16T09:31:16.72Z</time></trkpt><trkpt lat="43.4040454" lon="12.4936576"><ele>671.0</ele><time>2026-04-16T09:31:17.719Z</time></trkpt><trkpt lat="43.4041621" lon="12.4936489"><ele>673.0</ele><time>2026-04-16T09:31:18.721Z</time></trkpt><trkpt lat="43.4042828" lon="12.4936372"><ele>673.0</ele><time>2026-04-16T09:31:19.72Z</time></trkpt><trkpt lat="43.4043908" lon="12.493639"><ele>673.0</ele><time>2026-04-16T09:31:20.72Z</time></trkpt><trkpt lat="43.4044689" lon="12.4936183"><ele>673.0</ele><time>2026-04-16T09:31:21.72Z</time></trkpt><trkpt lat="43.4045331" lon="12.4935729"><ele>673.0</ele><time>2026-04-16T09:31:22.72Z</time></trkpt><trkpt lat="43.4045835" lon="12.4935019"><ele>673.0</ele><time>2026-04-16T09:31:23.72Z</time></trkpt><trkpt lat="43.4046213" lon="12.4934154"><ele>673.0</ele><time>2026-04-16T09:31:24.72Z</time></trkpt><trkpt lat="43.4046514" lon="12.4933117"><ele>677.25</ele><time>2026-04-16T09:31:25.721Z</time></trkpt><trkpt lat="43.4046798" lon="12.4931648"><ele>681.5</ele><time>2026-04-16T09:31:26.721Z</time></trkpt><trkpt lat="43.4047383" lon="12.4930377"><ele>685.75</ele><time>2026-04-16T09:31:27.721Z</time></trkpt><trkpt lat="43.4048212" lon="12.492929"><ele>690.0</ele><time>2026-04-16T09:31:28.72Z</time></trkpt><trkpt lat="43.404907" lon="12.4928166"><ele>690.75</ele><time>2026-04-16T09:31:29.719Z</time></trkpt><trkpt lat="43.405018" lon="12.4927157"><ele>691.5</ele><time>2026-04-16T09:31:30.72Z</time></trkpt><trkpt lat="43.4050947" lon="12.4926224"><ele>692.25</ele><time>2026-04-16T09:31:31.719Z</time></trkpt><trkpt lat="43.4051701" lon="12.4925235"><ele>693.0</ele><time>2026-04-16T09:31:32.72Z</time></trkpt><trkpt lat="43.4052892" lon="12.4924694"><ele>693.0</ele><time>2026-04-16T09:31:34.721Z</time></trkpt><trkpt lat="43.4053711" lon="12.4924498"><ele>693.0</ele><time>2026-04-16T09:31:35.719Z</time></trkpt><trkpt lat="43.4054474" lon="12.4924388"><ele>693.0</ele><time>2026-04-16T09:31:36.72Z</time></trkpt><trkpt lat="43.4055369" lon="12.492427"><ele>693.0</ele><time>2026-04-16T09:31:37.721Z</time></trkpt><trkpt lat="43.4056247" lon="12.4924162"><ele>693.0</ele><time>2026-04-16T09:31:38.719Z</time></trkpt><trkpt lat="43.405714" lon="12.492401"><ele>693.0</ele><time>2026-04-16T09:31:39.721Z</time></trkpt><trkpt lat="43.4058026" lon="12.4924028"><ele>693.2</ele><time>2026-04-16T09:31:40.72Z</time></trkpt><trkpt lat="43.4058892" lon="12.4923944"><ele>693.4</ele><time>2026-04-16T09:31:41.719Z</time></trkpt><trkpt lat="43.4059741" lon="12.4923881"><ele>693.6</ele><time>2026-04-16T09:31:42.72Z</time></trkpt><trkpt lat="43.4060681" lon="12.49237"><ele>693.8000000000001</ele><time>2026-04-16T09:31:43.72Z</time></trkpt><trkpt lat="43.4061646" lon="12.4923574"><ele>694.0</ele><time>2026-04-16T09:31:44.718Z</time></trkpt><trkpt lat="43.4062649" lon="12.4923356"><ele>692.4000000000001</ele><time>2026-04-16T09:31:45.721Z</time></trkpt><trkpt lat="43.406364" lon="12.4923264"><ele>690.8</ele><time>2026-04-16T09:31:46.719Z</time></trkpt><trkpt lat="43.4064607" lon="12.4923276"><ele>689.2</ele><time>2026-04-16T09:31:47.721Z</time></trkpt><trkpt lat="43.4065654" lon="12.4923156"><ele>687.5999999999999</ele><time>2026-04-16T09:31:48.719Z</time></trkpt><trkpt lat="43.4066683" lon="12.4922817"><ele>686.0</ele><time>2026-04-16T09:31:49.721Z</time></trkpt><trkpt lat="43.4067632" lon="12.4922335"><ele>686.0</ele><time>2026-04-16T09:31:50.721Z</time></trkpt><trkpt lat="43.4068553" lon="12.492187"><ele>686.0</ele><time>2026-04-16T09:31:51.72Z</time></trkpt><trkpt lat="43.4069454" lon="12.492147"><ele>686.0</ele><time>2026-04-16T09:31:52.721Z</time></trkpt><trkpt lat="43.4070401" lon="12.4921155"><ele>686.0</ele><time>2026-04-16T09:31:53.719Z</time></trkpt><trkpt lat="43.4071336" lon="12.4920913"><ele>686.0</ele><time>2026-04-16T09:31:54.719Z</time></trkpt><trkpt lat="43.4072325" lon="12.4920845"><ele>685.1666666666666</ele><time>2026-04-16T09:31:55.72Z</time></trkpt><trkpt lat="43.4073214" lon="12.4920956"><ele>684.3333333333333</ele><time>2026-04-16T09:31:56.719Z</time></trkpt><trkpt lat="43.4074148" lon="12.492112"><ele>683.5</ele><time>2026-04-16T09:31:57.719Z</time></trkpt><trkpt lat="43.4074965" lon="12.4921765"><ele>682.6666666666666</ele><time>2026-04-16T09:31:58.721Z</time></trkpt><trkpt lat="43.4075666" lon="12.492219"><ele>681.8333333333334</ele><time>2026-04-16T09:31:59.72Z</time></trkpt><trkpt lat="43.4076423" lon="12.4922597"><ele>681.0</ele><time>2026-04-16T09:32:00.72Z</time></trkpt><trkpt lat="43.4077143" lon="12.4922967"><ele>681.0</ele><time>2026-04-16T09:32:01.721Z</time></trkpt><trkpt lat="43.4077952" lon="12.492274"><ele>681.0</ele><time>2026-04-16T09:32:02.721Z</time></trkpt><trkpt lat="43.4078772" lon="12.4922727"><ele>681.0</ele><time>2026-04-16T09:32:03.72Z</time></trkpt><trkpt lat="43.4079837" lon="12.4922591"><ele>681.0</ele><time>2026-04-16T09:32:04.721Z</time></trkpt><trkpt lat="43.4080643" lon="12.4922587"><ele>681.0</ele><time>2026-04-16T09:32:05.72Z</time></trkpt><trkpt lat="43.4081276" lon="12.4922538"><ele>681.0</ele><time>2026-04-16T09:32:06.72Z</time></trkpt><trkpt lat="43.4082236" lon="12.492325"><ele>678.4</ele><time>2026-04-16T09:32:08.719Z</time></trkpt><trkpt lat="43.4083288" lon="12.4924265"><ele>675.8</ele><time>2026-04-16T09:32:10.72Z</time></trkpt><trkpt lat="43.4084071" lon="12.4924856"><ele>673.1999999999999</ele><time>2026-04-16T09:32:11.718Z</time></trkpt><trkpt lat="43.4084813" lon="12.4925446"><ele>670.5999999999999</ele><time>2026-04-16T09:32:12.719Z</time></trkpt><trkpt lat="43.4085789" lon="12.4925769"><ele>668.0</ele><time>2026-04-16T09:32:13.719Z</time></trkpt><trkpt lat="43.408671" lon="12.4926331"><ele>668.0</ele><time>2026-04-16T09:32:14.72Z</time></trkpt><trkpt lat="43.4087821" lon="12.4926461"><ele>668.0</ele><time>2026-04-16T09:32:15.72Z</time></trkpt><trkpt lat="43.4088774" lon="12.4926453"><ele>668.0</ele><time>2026-04-16T09:32:16.72Z</time></trkpt><trkpt lat="43.408972" lon="12.4926064"><ele>668.0</ele><time>2026-04-16T09:32:17.719Z</time></trkpt><trkpt lat="43.4090605" lon="12.4925399"><ele>668.0</ele><time>2026-04-16T09:32:18.72Z</time></trkpt><trkpt lat="43.4091642" lon="12.4924677"><ele>665.0</ele><time>2026-04-16T09:32:19.72Z</time></trkpt><trkpt lat="43.4092715" lon="12.4923861"><ele>662.0</ele><time>2026-04-16T09:32:20.72Z</time></trkpt><trkpt lat="43.4093887" lon="12.4922991"><ele>659.0</ele><time>2026-04-16T09:32:21.72Z</time></trkpt><trkpt lat="43.409509" lon="12.492207"><ele>656.0</ele><time>2026-04-16T09:32:22.72Z</time></trkpt><trkpt lat="43.4096323" lon="12.4921295"><ele>653.25</ele><time>2026-04-16T09:32:23.719Z</time></trkpt><trkpt lat="43.409751" lon="12.4920479"><ele>650.5</ele><time>2026-04-16T09:32:24.719Z</time></trkpt><trkpt lat="43.4098588" lon="12.49198"><ele>647.75</ele><time>2026-04-16T09:32:25.721Z</time></trkpt><trkpt lat="43.4099695" lon="12.4919248"><ele>645.0</ele><time>2026-04-16T09:32:26.719Z</time></trkpt><trkpt lat="43.4100666" lon="12.4918775"><ele>645.0</ele><time>2026-04-16T09:32:27.718Z</time></trkpt><trkpt lat="43.410166" lon="12.4918376"><ele>645.0</ele><time>2026-04-16T09:32:28.72Z</time></trkpt><trkpt lat="43.4102524" lon="12.4918101"><ele>645.0</ele><time>2026-04-16T09:32:29.72Z</time></trkpt><trkpt lat="43.4103525" lon="12.4917893"><ele>645.0</ele><time>2026-04-16T09:32:30.719Z</time></trkpt><trkpt lat="43.4104327" lon="12.4917643"><ele>645.0</ele><time>2026-04-16T09:32:32.72Z</time></trkpt><trkpt lat="43.4104943" lon="12.4916312"><ele>643.6</ele><time>2026-04-16T09:32:35.737Z</time></trkpt><trkpt lat="43.410541" lon="12.4915453"><ele>642.2</ele><time>2026-04-16T09:32:36.89Z</time></trkpt><trkpt lat="43.4106619" lon="12.4913842"><ele>640.8</ele><time>2026-04-16T09:32:38.721Z</time></trkpt><trkpt lat="43.4107193" lon="12.4912983"><ele>639.4</ele><time>2026-04-16T09:32:39.721Z</time></trkpt><trkpt lat="43.4107859" lon="12.4912061"><ele>638.0</ele><time>2026-04-16T09:32:40.72Z</time></trkpt><trkpt lat="43.4108341" lon="12.4911285"><ele>637.0</ele><time>2026-04-16T09:32:41.721Z</time></trkpt><trkpt lat="43.4108771" lon="12.4910611"><ele>636.0</ele><time>2026-04-16T09:32:42.721Z</time></trkpt><trkpt lat="43.4109386" lon="12.4909644"><ele>635.0</ele><time>2026-04-16T09:32:44.721Z</time></trkpt><trkpt lat="43.4109926" lon="12.49089"><ele>634.0</ele><time>2026-04-16T09:32:46.721Z</time></trkpt><trkpt lat="43.4110417" lon="12.4908344"><ele>633.0</ele><time>2026-04-16T09:32:48.72Z</time></trkpt><trkpt lat="43.4111019" lon="12.4907615"><ele>632.0</ele><time>2026-04-16T09:32:50.721Z</time></trkpt><trkpt lat="43.4111473" lon="12.4906923"><ele>631.0</ele><time>2026-04-16T09:32:51.72Z</time></trkpt><trkpt lat="43.4111927" lon="12.4906192"><ele>631.0</ele><time>2026-04-16T09:32:52.721Z</time></trkpt><trkpt lat="43.4112341" lon="12.4905174"><ele>631.0</ele><time>2026-04-16T09:32:53.72Z</time></trkpt><trkpt lat="43.4112787" lon="12.4904183"><ele>631.0</ele><time>2026-04-16T09:32:54.72Z</time></trkpt><trkpt lat="43.4113245" lon="12.4903285"><ele>631.0</ele><time>2026-04-16T09:32:55.72Z</time></trkpt><trkpt lat="43.4113692" lon="12.4902304"><ele>631.0</ele><time>2026-04-16T09:32:56.721Z</time></trkpt><trkpt lat="43.4114134" lon="12.4901084"><ele>631.0</ele><time>2026-04-16T09:32:57.721Z</time></trkpt><trkpt lat="43.4114629" lon="12.4900091"><ele>628.8333333333334</ele><time>2026-04-16T09:32:58.721Z</time></trkpt><trkpt lat="43.4115133" lon="12.4899107"><ele>626.6666666666667</ele><time>2026-04-16T09:32:59.721Z</time></trkpt><trkpt lat="43.4115559" lon="12.489823"><ele>624.5</ele><time>2026-04-16T09:33:00.72Z</time></trkpt><trkpt lat="43.4116021" lon="12.4897265"><ele>622.3333333333334</ele><time>2026-04-16T09:33:01.721Z</time></trkpt><trkpt lat="43.4116577" lon="12.4896393"><ele>620.1666666666666</ele><time>2026-04-16T09:33:02.72Z</time></trkpt><trkpt lat="43.411728" lon="12.4895466"><ele>618.0</ele><time>2026-04-16T09:33:03.72Z</time></trkpt><trkpt lat="43.4117851" lon="12.489472"><ele>615.25</ele><time>2026-04-16T09:33:04.718Z</time></trkpt><trkpt lat="43.4118605" lon="12.4894038"><ele>612.5</ele><time>2026-04-16T09:33:05.72Z</time></trkpt><trkpt lat="43.4119349" lon="12.4892795"><ele>609.75</ele><time>2026-04-16T09:33:07.72Z</time></trkpt><trkpt lat="43.4120305" lon="12.4891603"><ele>607.0</ele><time>2026-04-16T09:33:09.721Z</time></trkpt><trkpt lat="43.4121024" lon="12.4890253"><ele>607.0</ele><time>2026-04-16T09:33:11.72Z</time></trkpt><trkpt lat="43.412132" lon="12.4889418"><ele>607.0</ele><time>2026-04-16T09:33:12.72Z</time></trkpt><trkpt lat="43.4121476" lon="12.4888369"><ele>607.0</ele><time>2026-04-16T09:33:13.721Z</time></trkpt><trkpt lat="43.4121602" lon="12.4887048"><ele>607.0</ele><time>2026-04-16T09:33:14.721Z</time></trkpt><trkpt lat="43.4121554" lon="12.4885852"><ele>607.0</ele><time>2026-04-16T09:33:15.72Z</time></trkpt><trkpt lat="43.4121618" lon="12.4884564"><ele>607.0</ele><time>2026-04-16T09:33:16.72Z</time></trkpt><trkpt lat="43.4121796" lon="12.4883335"><ele>605.5714285714286</ele><time>2026-04-16T09:33:17.721Z</time></trkpt><trkpt lat="43.4121746" lon="12.4882175"><ele>604.1428571428571</ele><time>2026-04-16T09:33:18.721Z</time></trkpt><trkpt lat="43.4121789" lon="12.4881194"><ele>602.7142857142858</ele><time>2026-04-16T09:33:19.721Z</time></trkpt><trkpt lat="43.4121647" lon="12.4880243"><ele>601.2857142857142</ele><time>2026-04-16T09:33:20.721Z</time></trkpt><trkpt lat="43.4121534" lon="12.4879323"><ele>599.8571428571429</ele><time>2026-04-16T09:33:21.72Z</time></trkpt><trkpt lat="43.4121323" lon="12.4878406"><ele>598.4285714285714</ele><time>2026-04-16T09:33:22.722Z</time></trkpt><trkpt lat="43.4121535" lon="12.4877272"><ele>597.0</ele><time>2026-04-16T09:33:24.72Z</time></trkpt><trkpt lat="43.4121636" lon="12.487606"><ele>593.6</ele><time>2026-04-16T09:33:26.719Z</time></trkpt><trkpt lat="43.4122141" lon="12.4875059"><ele>590.2</ele><time>2026-04-16T09:33:28.719Z</time></trkpt><trkpt lat="43.4122757" lon="12.4874319"><ele>586.8</ele><time>2026-04-16T09:33:30.719Z</time></trkpt><trkpt lat="43.4123853" lon="12.4874243"><ele>583.4</ele><time>2026-04-16T09:33:32.722Z</time></trkpt><trkpt lat="43.41246" lon="12.4873754"><ele>580.0</ele><time>2026-04-16T09:33:34.72Z</time></trkpt><trkpt lat="43.4125612" lon="12.4872878"><ele>580.0</ele><time>2026-04-16T09:33:36.721Z</time></trkpt><trkpt lat="43.4125744" lon="12.4871863"><ele>580.0</ele><time>2026-04-16T09:33:37.721Z</time></trkpt><trkpt lat="43.4126093" lon="12.487092"><ele>580.0</ele><time>2026-04-16T09:33:38.72Z</time></trkpt><trkpt lat="43.4126213" lon="12.4869605"><ele>580.0</ele><time>2026-04-16T09:33:40.72Z</time></trkpt><trkpt lat="43.4126115" lon="12.4868637"><ele>580.0</ele><time>2026-04-16T09:33:42.72Z</time></trkpt><trkpt lat="43.4125998" lon="12.4867769"><ele>580.0</ele><time>2026-04-16T09:33:45.721Z</time></trkpt><trkpt lat="43.4125356" lon="12.4867162"><ele>577.4</ele><time>2026-04-16T09:33:49.721Z</time></trkpt><trkpt lat="43.4124564" lon="12.4866782"><ele>574.8</ele><time>2026-04-16T09:33:52.72Z</time></trkpt><trkpt lat="43.4123577" lon="12.4866266"><ele>572.2</ele><time>2026-04-16T09:33:54.72Z</time></trkpt><trkpt lat="43.4122499" lon="12.4865345"><ele>569.6</ele><time>2026-04-16T09:33:56.72Z</time></trkpt><trkpt lat="43.4121846" lon="12.4864902"><ele>567.0</ele><time>2026-04-16T09:33:57.72Z</time></trkpt><trkpt lat="43.4121161" lon="12.4864476"><ele>566.2</ele><time>2026-04-16T09:33:58.72Z</time></trkpt><trkpt lat="43.4120487" lon="12.4863896"><ele>565.4000000000001</ele><time>2026-04-16T09:33:59.721Z</time></trkpt><trkpt lat="43.4119659" lon="12.4863311"><ele>564.5999999999999</ele><time>2026-04-16T09:34:00.72Z</time></trkpt><trkpt lat="43.4118818" lon="12.486273"><ele>563.8</ele><time>2026-04-16T09:34:01.721Z</time></trkpt><trkpt lat="43.4117873" lon="12.4862175"><ele>563.0</ele><time>2026-04-16T09:34:02.72Z</time></trkpt><trkpt lat="43.4116964" lon="12.4861888"><ele>561.6666666666666</ele><time>2026-04-16T09:34:03.72Z</time></trkpt><trkpt lat="43.4115956" lon="12.4861595"><ele>560.3333333333333</ele><time>2026-04-16T09:34:04.721Z</time></trkpt><trkpt lat="43.4115122" lon="12.4861339"><ele>559.0</ele><time>2026-04-16T09:34:05.72Z</time></trkpt><trkpt lat="43.411419" lon="12.4861195"><ele>557.6666666666666</ele><time>2026-04-16T09:34:06.719Z</time></trkpt><trkpt lat="43.4113355" lon="12.4860973"><ele>556.3333333333334</ele><time>2026-04-16T09:34:07.72Z</time></trkpt><trkpt lat="43.4112548" lon="12.4860766"><ele>555.0</ele><time>2026-04-16T09:34:08.719Z</time></trkpt><trkpt lat="43.4111906" lon="12.4860545"><ele>555.0</ele><time>2026-04-16T09:34:09.72Z</time></trkpt><trkpt lat="43.4111141" lon="12.485999"><ele>555.0</ele><time>2026-04-16T09:34:11.721Z</time></trkpt><trkpt lat="43.4111209" lon="12.4859048"><ele>555.0</ele><time>2026-04-16T09:34:12.72Z</time></trkpt><trkpt lat="43.4111254" lon="12.4857382"><ele>555.0</ele><time>2026-04-16T09:34:14.719Z</time></trkpt><trkpt lat="43.4111758" lon="12.4856512"><ele>555.0</ele><time>2026-04-16T09:34:15.72Z</time></trkpt><trkpt lat="43.4112172" lon="12.4855634"><ele>555.0</ele><time>2026-04-16T09:34:16.72Z</time></trkpt><trkpt lat="43.4112473" lon="12.4854861"><ele>554.0</ele><time>2026-04-16T09:34:17.721Z</time></trkpt><trkpt lat="43.4113004" lon="12.4854243"><ele>553.0</ele><time>2026-04-16T09:34:18.721Z</time></trkpt><trkpt lat="43.4113322" lon="12.4853475"><ele>552.0</ele><time>2026-04-16T09:34:19.72Z</time></trkpt><trkpt lat="43.4113757" lon="12.4852637"><ele>551.0</ele><time>2026-04-16T09:34:20.721Z</time></trkpt><trkpt lat="43.41142" lon="12.4851802"><ele>550.0</ele><time>2026-04-16T09:34:21.719Z</time></trkpt><trkpt lat="43.4114664" lon="12.4850934"><ele>549.0</ele><time>2026-04-16T09:34:22.72Z</time></trkpt><trkpt lat="43.411524" lon="12.4850018"><ele>547.6666666666666</ele><time>2026-04-16T09:34:23.719Z</time></trkpt><trkpt lat="43.4115761" lon="12.4849173"><ele>546.3333333333334</ele><time>2026-04-16T09:34:24.72Z</time></trkpt><trkpt lat="43.4116295" lon="12.4848251"><ele>545.0</ele><time>2026-04-16T09:34:25.72Z</time></trkpt><trkpt lat="43.4116724" lon="12.4847364"><ele>543.6666666666667</ele><time>2026-04-16T09:34:26.72Z</time></trkpt><trkpt lat="43.411711" lon="12.4846513"><ele>542.3333333333334</ele><time>2026-04-16T09:34:27.718Z</time></trkpt><trkpt lat="43.4117344" lon="12.4845647"><ele>541.0</ele><time>2026-04-16T09:34:28.72Z</time></trkpt><trkpt lat="43.4117644" lon="12.4844825"><ele>540.2857142857143</ele><time>2026-04-16T09:34:29.721Z</time></trkpt><trkpt lat="43.4117942" lon="12.4843926"><ele>539.5714285714286</ele><time>2026-04-16T09:34:30.72Z</time></trkpt><trkpt lat="43.4118215" lon="12.4843009"><ele>538.8571428571429</ele><time>2026-04-16T09:34:31.719Z</time></trkpt><trkpt lat="43.4118442" lon="12.4842026"><ele>538.1428571428571</ele><time>2026-04-16T09:34:32.72Z</time></trkpt><trkpt lat="43.4118567" lon="12.4841009"><ele>537.4285714285714</ele><time>2026-04-16T09:34:33.72Z</time></trkpt><trkpt lat="43.4118594" lon="12.4840065"><ele>536.7142857142858</ele><time>2026-04-16T09:34:34.721Z</time></trkpt><trkpt lat="43.4118463" lon="12.483888"><ele>536.0</ele><time>2026-04-16T09:34:36.72Z</time></trkpt><trkpt lat="43.4119457" lon="12.483876"><ele>536.0</ele><time>2026-04-16T09:34:41.719Z</time></trkpt><trkpt lat="43.4120093" lon="12.4839748"><ele>536.0</ele><time>2026-04-16T09:34:43.72Z</time></trkpt><trkpt lat="43.4120591" lon="12.4840526"><ele>536.0</ele><time>2026-04-16T09:34:44.721Z</time></trkpt><trkpt lat="43.4121278" lon="12.4841562"><ele>536.0</ele><time>2026-04-16T09:34:45.719Z</time></trkpt><trkpt lat="43.4121938" lon="12.4842732"><ele>536.0</ele><time>2026-04-16T09:34:46.72Z</time></trkpt><trkpt lat="43.4122462" lon="12.4844529"><ele>535.4</ele><time>2026-04-16T09:34:47.722Z</time></trkpt><trkpt lat="43.4123064" lon="12.4846055"><ele>534.8</ele><time>2026-04-16T09:34:48.719Z</time></trkpt><trkpt lat="43.4123653" lon="12.4847118"><ele>534.1999999999999</ele><time>2026-04-16T09:34:49.722Z</time></trkpt><trkpt lat="43.4124408" lon="12.4848184"><ele>533.6</ele><time>2026-04-16T09:34:50.719Z</time></trkpt><trkpt lat="43.412513" lon="12.484913"><ele>533.0</ele><time>2026-04-16T09:34:51.72Z</time></trkpt><trkpt lat="43.4125832" lon="12.4849949"><ele>533.0</ele><time>2026-04-16T09:34:52.721Z</time></trkpt><trkpt lat="43.4127198" lon="12.484982"><ele>533.0</ele><time>2026-04-16T09:34:53.721Z</time></trkpt><trkpt lat="43.4128338" lon="12.4849669"><ele>533.0</ele><time>2026-04-16T09:34:54.721Z</time></trkpt><trkpt lat="43.4129471" lon="12.4849537"><ele>533.0</ele><time>2026-04-16T09:34:55.721Z</time></trkpt><trkpt lat="43.4130537" lon="12.4849558"><ele>531.75</ele><time>2026-04-16T09:34:56.721Z</time></trkpt><trkpt lat="43.4131729" lon="12.4849368"><ele>530.5</ele><time>2026-04-16T09:34:57.721Z</time></trkpt><trkpt lat="43.4132968" lon="12.4849061"><ele>529.25</ele><time>2026-04-16T09:34:58.72Z</time></trkpt><trkpt lat="43.4134391" lon="12.4848784"><ele>528.0</ele><time>2026-04-16T09:34:59.72Z</time></trkpt><trkpt lat="43.4135943" lon="12.484831"><ele>528.0</ele><time>2026-04-16T09:35:00.718Z</time></trkpt><trkpt lat="43.4137251" lon="12.484737"><ele>528.0</ele><time>2026-04-16T09:35:01.721Z</time></trkpt><trkpt lat="43.4138558" lon="12.4846592"><ele>528.0</ele><time>2026-04-16T09:35:02.72Z</time></trkpt><trkpt lat="43.4139771" lon="12.4845464"><ele>528.0</ele><time>2026-04-16T09:35:03.72Z</time></trkpt><trkpt lat="43.4141008" lon="12.4844561"><ele>523.75</ele><time>2026-04-16T09:35:04.719Z</time></trkpt><trkpt lat="43.4142268" lon="12.4843838"><ele>519.5</ele><time>2026-04-16T09:35:05.719Z</time></trkpt><trkpt lat="43.4143543" lon="12.4843278"><ele>515.25</ele><time>2026-04-16T09:35:06.72Z</time></trkpt><trkpt lat="43.4144792" lon="12.4843091"><ele>511.0</ele><time>2026-04-16T09:35:07.72Z</time></trkpt><trkpt lat="43.4146094" lon="12.4842993"><ele>509.25</ele><time>2026-04-16T09:35:08.72Z</time></trkpt><trkpt lat="43.414748" lon="12.4843591"><ele>507.5</ele><time>2026-04-16T09:35:09.719Z</time></trkpt><trkpt lat="43.4148736" lon="12.4844084"><ele>505.75</ele><time>2026-04-16T09:35:10.72Z</time></trkpt><trkpt lat="43.4149935" lon="12.4844515"><ele>504.0</ele><time>2026-04-16T09:35:11.72Z</time></trkpt><trkpt lat="43.4151123" lon="12.4844909"><ele>504.0</ele><time>2026-04-16T09:35:12.72Z</time></trkpt><trkpt lat="43.4152264" lon="12.4845089"><ele>504.0</ele><time>2026-04-16T09:35:13.718Z</time></trkpt><trkpt lat="43.4153489" lon="12.4845209"><ele>504.0</ele><time>2026-04-16T09:35:14.72Z</time></trkpt><trkpt lat="43.415462" lon="12.4845219"><ele>504.0</ele><time>2026-04-16T09:35:15.72Z</time></trkpt><trkpt lat="43.4155546" lon="12.4845499"><ele>504.0</ele><time>2026-04-16T09:35:16.72Z</time></trkpt><trkpt lat="43.4156293" lon="12.4846123"><ele>503.0</ele><time>2026-04-16T09:35:17.72Z</time></trkpt><trkpt lat="43.4157203" lon="12.4846826"><ele>502.0</ele><time>2026-04-16T09:35:18.719Z</time></trkpt><trkpt lat="43.4157744" lon="12.4847725"><ele>501.0</ele><time>2026-04-16T09:35:19.719Z</time></trkpt><trkpt lat="43.4157936" lon="12.4849197"><ele>500.0</ele><time>2026-04-16T09:35:20.719Z</time></trkpt><trkpt lat="43.4158383" lon="12.4850368"><ele>499.0</ele><time>2026-04-16T09:35:21.719Z</time></trkpt><trkpt lat="43.4158307" lon="12.4852036"><ele>499.0</ele><time>2026-04-16T09:35:22.718Z</time></trkpt><trkpt lat="43.4158275" lon="12.4853236"><ele>499.0</ele><time>2026-04-16T09:35:23.719Z</time></trkpt><trkpt lat="43.4158682" lon="12.4854441"><ele>499.0</ele><time>2026-04-16T09:35:24.72Z</time></trkpt><trkpt lat="43.4159526" lon="12.4855276"><ele>499.0</ele><time>2026-04-16T09:35:25.719Z</time></trkpt><trkpt lat="43.4160576" lon="12.4855958"><ele>499.0</ele><time>2026-04-16T09:35:26.72Z</time></trkpt><trkpt lat="43.4161754" lon="12.4856505"><ele>500.25</ele><time>2026-04-16T09:35:27.72Z</time></trkpt><trkpt lat="43.4163046" lon="12.4857101"><ele>501.5</ele><time>2026-04-16T09:35:28.72Z</time></trkpt><trkpt lat="43.4164289" lon="12.4857601"><ele>502.75</ele><time>2026-04-16T09:35:29.72Z</time></trkpt><trkpt lat="43.4165435" lon="12.4858124"><ele>504.0</ele><time>2026-04-16T09:35:30.719Z</time></trkpt><trkpt lat="43.4166572" lon="12.4858533"><ele>504.0</ele><time>2026-04-16T09:35:31.719Z</time></trkpt><trkpt lat="43.4167592" lon="12.485901"><ele>504.0</ele><time>2026-04-16T09:35:32.719Z</time></trkpt><trkpt lat="43.4168632" lon="12.4859452"><ele>504.0</ele><time>2026-04-16T09:35:33.72Z</time></trkpt><trkpt lat="43.4169615" lon="12.4859978"><ele>504.0</ele><time>2026-04-16T09:35:34.722Z</time></trkpt><trkpt lat="43.4170516" lon="12.4860935"><ele>504.0</ele><time>2026-04-16T09:35:35.721Z</time></trkpt><trkpt lat="43.4171181" lon="12.4862119"><ele>508.2</ele><time>2026-04-16T09:35:36.721Z</time></trkpt><trkpt lat="43.4171852" lon="12.4863508"><ele>512.4</ele><time>2026-04-16T09:35:37.72Z</time></trkpt><trkpt lat="43.4172262" lon="12.4864761"><ele>516.6</ele><time>2026-04-16T09:35:38.72Z</time></trkpt><trkpt lat="43.4172581" lon="12.4866211"><ele>520.8</ele><time>2026-04-16T09:35:39.719Z</time></trkpt><trkpt lat="43.4172803" lon="12.4867578"><ele>525.0</ele><time>2026-04-16T09:35:40.718Z</time></trkpt><trkpt lat="43.4172755" lon="12.4869716"><ele>527.0</ele><time>2026-04-16T09:35:41.722Z</time></trkpt><trkpt lat="43.4172859" lon="12.4871489"><ele>529.0</ele><time>2026-04-16T09:35:42.72Z</time></trkpt><trkpt lat="43.4173081" lon="12.4873878"><ele>531.0</ele><time>2026-04-16T09:35:43.721Z</time></trkpt><trkpt lat="43.4173264" lon="12.487603"><ele>531.0</ele><time>2026-04-16T09:35:44.721Z</time></trkpt><trkpt lat="43.417353" lon="12.4878248"><ele>531.0</ele><time>2026-04-16T09:35:45.721Z</time></trkpt><trkpt lat="43.4173682" lon="12.4880076"><ele>531.0</ele><time>2026-04-16T09:35:46.721Z</time></trkpt><trkpt lat="43.41739" lon="12.4881674"><ele>531.0</ele><time>2026-04-16T09:35:47.72Z</time></trkpt><trkpt lat="43.4174206" lon="12.4883395"><ele>533.0</ele><time>2026-04-16T09:35:48.72Z</time></trkpt><trkpt lat="43.4174499" lon="12.4885074"><ele>535.0</ele><time>2026-04-16T09:35:49.721Z</time></trkpt><trkpt lat="43.4175212" lon="12.4886895"><ele>537.0</ele><time>2026-04-16T09:35:50.722Z</time></trkpt><trkpt lat="43.4175674" lon="12.4888762"><ele>539.0</ele><time>2026-04-16T09:35:51.721Z</time></trkpt><trkpt lat="43.4176036" lon="12.4890399"><ele>539.2</ele><time>2026-04-16T09:35:52.721Z</time></trkpt><trkpt lat="43.4176337" lon="12.4892041"><ele>539.4</ele><time>2026-04-16T09:35:53.719Z</time></trkpt><trkpt lat="43.41765" lon="12.4893272"><ele>539.6</ele><time>2026-04-16T09:35:54.721Z</time></trkpt><trkpt lat="43.4176015" lon="12.4894614"><ele>539.8</ele><time>2026-04-16T09:35:55.722Z</time></trkpt><trkpt lat="43.4175492" lon="12.4896144"><ele>540.0</ele><time>2026-04-16T09:35:56.721Z</time></trkpt><trkpt lat="43.4174984" lon="12.489771"><ele>540.6</ele><time>2026-04-16T09:35:57.721Z</time></trkpt><trkpt lat="43.4174504" lon="12.4899074"><ele>541.2</ele><time>2026-04-16T09:35:58.72Z</time></trkpt><trkpt lat="43.4174219" lon="12.4900333"><ele>541.8</ele><time>2026-04-16T09:35:59.72Z</time></trkpt><trkpt lat="43.41741" lon="12.490166"><ele>542.4</ele><time>2026-04-16T09:36:00.721Z</time></trkpt><trkpt lat="43.4174005" lon="12.4902827"><ele>543.0</ele><time>2026-04-16T09:36:01.721Z</time></trkpt><trkpt lat="43.4174057" lon="12.4903782"><ele>542.6</ele><time>2026-04-16T09:36:02.721Z</time></trkpt><trkpt lat="43.4174709" lon="12.4905155"><ele>542.1999999999999</ele><time>2026-04-16T09:36:04.721Z</time></trkpt><trkpt lat="43.4175385" lon="12.4905453"><ele>541.8</ele><time>2026-04-16T09:36:05.721Z</time></trkpt><trkpt lat="43.4176167" lon="12.4905705"><ele>541.4</ele><time>2026-04-16T09:36:06.721Z</time></trkpt><trkpt lat="43.4177084" lon="12.4906039"><ele>541.0</ele><time>2026-04-16T09:36:07.72Z</time></trkpt><trkpt lat="43.4178127" lon="12.4906692"><ele>541.0</ele><time>2026-04-16T09:36:08.72Z</time></trkpt><trkpt lat="43.4179096" lon="12.4907372"><ele>541.0</ele><time>2026-04-16T09:36:09.72Z</time></trkpt><trkpt lat="43.418037" lon="12.4908545"><ele>541.0</ele><time>2026-04-16T09:36:10.721Z</time></trkpt><trkpt lat="43.4181822" lon="12.4909589"><ele>541.0</ele><time>2026-04-16T09:36:11.721Z</time></trkpt><trkpt lat="43.4183082" lon="12.4910686"><ele>545.2</ele><time>2026-04-16T09:36:12.719Z</time></trkpt><trkpt lat="43.4184197" lon="12.4911642"><ele>549.4000000000001</ele><time>2026-04-16T09:36:13.719Z</time></trkpt><trkpt lat="43.418532" lon="12.4912541"><ele>553.6</ele><time>2026-04-16T09:36:14.72Z</time></trkpt><trkpt lat="43.4185612" lon="12.4913321"><ele>557.8000000000001</ele><time>2026-04-16T09:36:15.721Z</time></trkpt><trkpt lat="43.4186013" lon="12.4914078"><ele>562.0</ele><time>2026-04-16T09:36:16.72Z</time></trkpt><trkpt lat="43.4186179" lon="12.491531"><ele>562.2</ele><time>2026-04-16T09:36:18.72Z</time></trkpt><trkpt lat="43.4185885" lon="12.4916149"><ele>562.4000000000001</ele><time>2026-04-16T09:36:19.72Z</time></trkpt><trkpt lat="43.4184497" lon="12.4916609"><ele>562.5999999999999</ele><time>2026-04-16T09:36:20.721Z</time></trkpt><trkpt lat="43.4183758" lon="12.4917162"><ele>562.8</ele><time>2026-04-16T09:36:21.72Z</time></trkpt><trkpt lat="43.4183114" lon="12.491804"><ele>563.0</ele><time>2026-04-16T09:36:22.721Z</time></trkpt><trkpt lat="43.4182881" lon="12.4919099"><ele>563.0</ele><time>2026-04-16T09:36:23.72Z</time></trkpt><trkpt lat="43.4182599" lon="12.4920431"><ele>563.0</ele><time>2026-04-16T09:36:24.719Z</time></trkpt><trkpt lat="43.4182508" lon="12.4921914"><ele>563.0</ele><time>2026-04-16T09:36:25.72Z</time></trkpt><trkpt lat="43.4182096" lon="12.4922598"><ele>563.0</ele><time>2026-04-16T09:36:26.721Z</time></trkpt><trkpt lat="43.4181153" lon="12.4923536"><ele>563.0</ele><time>2026-04-16T09:36:28.718Z</time></trkpt><trkpt lat="43.4180485" lon="12.4924041"><ele>564.0</ele><time>2026-04-16T09:36:29.72Z</time></trkpt><trkpt lat="43.4179624" lon="12.4924442"><ele>565.0</ele><time>2026-04-16T09:36:30.72Z</time></trkpt><trkpt lat="43.4178808" lon="12.4924907"><ele>566.0</ele><time>2026-04-16T09:36:31.72Z</time></trkpt><trkpt lat="43.4177766" lon="12.492522"><ele>567.0</ele><time>2026-04-16T09:36:32.72Z</time></trkpt><trkpt lat="43.41768" lon="12.4925466"><ele>568.0</ele><time>2026-04-16T09:36:33.72Z</time></trkpt><trkpt lat="43.4176031" lon="12.4925547"><ele>568.0</ele><time>2026-04-16T09:36:34.719Z</time></trkpt><trkpt lat="43.4175327" lon="12.4925888"><ele>568.0</ele><time>2026-04-16T09:36:35.72Z</time></trkpt><trkpt lat="43.4174782" lon="12.4926466"><ele>568.0</ele><time>2026-04-16T09:36:36.72Z</time></trkpt><trkpt lat="43.4174242" lon="12.4928221"><ele>568.0</ele><time>2026-04-16T09:36:38.72Z</time></trkpt><trkpt lat="43.4174183" lon="12.49293"><ele>568.0</ele><time>2026-04-16T09:36:39.72Z</time></trkpt><trkpt lat="43.4174406" lon="12.4930435"><ele>568.0</ele><time>2026-04-16T09:36:40.721Z</time></trkpt><trkpt lat="43.4174738" lon="12.4931544"><ele>569.8</ele><time>2026-04-16T09:36:41.72Z</time></trkpt><trkpt lat="43.4175297" lon="12.4932689"><ele>571.5999999999999</ele><time>2026-04-16T09:36:42.719Z</time></trkpt><trkpt lat="43.4175855" lon="12.4933877"><ele>573.4000000000001</ele><time>2026-04-16T09:36:43.719Z</time></trkpt><trkpt lat="43.417665" lon="12.4934686"><ele>575.2</ele><time>2026-04-16T09:36:44.721Z</time></trkpt><trkpt lat="43.4177405" lon="12.493579"><ele>577.0</ele><time>2026-04-16T09:36:45.72Z</time></trkpt><trkpt lat="43.4178202" lon="12.4937122"><ele>577.5</ele><time>2026-04-16T09:36:46.721Z</time></trkpt><trkpt lat="43.4178824" lon="12.4938558"><ele>578.0</ele><time>2026-04-16T09:36:47.719Z</time></trkpt><trkpt lat="43.4179444" lon="12.4939932"><ele>578.5</ele><time>2026-04-16T09:36:48.72Z</time></trkpt><trkpt lat="43.4180083" lon="12.4941255"><ele>579.0</ele><time>2026-04-16T09:36:49.721Z</time></trkpt><trkpt lat="43.418084" lon="12.4942588"><ele>584.25</ele><time>2026-04-16T09:36:50.719Z</time></trkpt><trkpt lat="43.4181762" lon="12.494381"><ele>589.5</ele><time>2026-04-16T09:36:51.719Z</time></trkpt><trkpt lat="43.4182734" lon="12.4945056"><ele>594.75</ele><time>2026-04-16T09:36:52.719Z</time></trkpt><trkpt lat="43.4183894" lon="12.4945877"><ele>600.0</ele><time>2026-04-16T09:36:53.721Z</time></trkpt><trkpt lat="43.4184733" lon="12.4946798"><ele>600.0</ele><time>2026-04-16T09:36:54.719Z</time></trkpt><trkpt lat="43.4185538" lon="12.4947623"><ele>600.0</ele><time>2026-04-16T09:36:55.72Z</time></trkpt><trkpt lat="43.4186538" lon="12.4948161"><ele>600.0</ele><time>2026-04-16T09:36:56.719Z</time></trkpt><trkpt lat="43.4187556" lon="12.4948477"><ele>600.0</ele><time>2026-04-16T09:36:57.719Z</time></trkpt><trkpt lat="43.4188519" lon="12.4948454"><ele>600.0</ele><time>2026-04-16T09:36:58.718Z</time></trkpt><trkpt lat="43.4189424" lon="12.4948098"><ele>600.2</ele><time>2026-04-16T09:36:59.72Z</time></trkpt><trkpt lat="43.4190246" lon="12.4947491"><ele>600.4</ele><time>2026-04-16T09:37:00.72Z</time></trkpt><trkpt lat="43.4190996" lon="12.4946556"><ele>600.6</ele><time>2026-04-16T09:37:01.719Z</time></trkpt><trkpt lat="43.4191724" lon="12.4945616"><ele>600.8</ele><time>2026-04-16T09:37:02.719Z</time></trkpt><trkpt lat="43.4192285" lon="12.4944629"><ele>601.0</ele><time>2026-04-16T09:37:03.719Z</time></trkpt><trkpt lat="43.4192941" lon="12.4943904"><ele>603.0</ele><time>2026-04-16T09:37:04.721Z</time></trkpt><trkpt lat="43.419377" lon="12.4943392"><ele>605.0</ele><time>2026-04-16T09:37:05.719Z</time></trkpt><trkpt lat="43.4194869" lon="12.4943008"><ele>607.0</ele><time>2026-04-16T09:37:06.72Z</time></trkpt><trkpt lat="43.4195978" lon="12.4942868"><ele>609.0</ele><time>2026-04-16T09:37:07.72Z</time></trkpt><trkpt lat="43.4197151" lon="12.4942843"><ele>611.0</ele><time>2026-04-16T09:37:08.719Z</time></trkpt><trkpt lat="43.4198512" lon="12.4943633"><ele>611.3333333333333</ele><time>2026-04-16T09:37:09.72Z</time></trkpt><trkpt lat="43.4199891" lon="12.4944795"><ele>611.6666666666666</ele><time>2026-04-16T09:37:10.719Z</time></trkpt><trkpt lat="43.4201187" lon="12.4946146"><ele>612.0</ele><time>2026-04-16T09:37:11.719Z</time></trkpt><trkpt lat="43.420228" lon="12.4947332"><ele>612.0</ele><time>2026-04-16T09:37:12.72Z</time></trkpt><trkpt lat="43.4203402" lon="12.4948155"><ele>612.0</ele><time>2026-04-16T09:37:13.72Z</time></trkpt><trkpt lat="43.4204472" lon="12.4948919"><ele>612.0</ele><time>2026-04-16T09:37:14.721Z</time></trkpt><trkpt lat="43.4205395" lon="12.494936"><ele>612.0</ele><time>2026-04-16T09:37:15.719Z</time></trkpt><trkpt lat="43.4206334" lon="12.4949574"><ele>612.0</ele><time>2026-04-16T09:37:16.72Z</time></trkpt><trkpt lat="43.420753" lon="12.4949428"><ele>616.5</ele><time>2026-04-16T09:37:17.72Z</time></trkpt><trkpt lat="43.4209007" lon="12.4949051"><ele>621.0</ele><time>2026-04-16T09:37:18.72Z</time></trkpt><trkpt lat="43.4210453" lon="12.4948677"><ele>625.5</ele><time>2026-04-16T09:37:19.72Z</time></trkpt><trkpt lat="43.4211897" lon="12.4948468"><ele>630.0</ele><time>2026-04-16T09:37:20.72Z</time></trkpt><trkpt lat="43.4213036" lon="12.4948882"><ele>633.5</ele><time>2026-04-16T09:37:21.72Z</time></trkpt><trkpt lat="43.421405" lon="12.4949546"><ele>637.0</ele><time>2026-04-16T09:37:22.721Z</time></trkpt><trkpt lat="43.4214788" lon="12.4950368"><ele>640.5</ele><time>2026-04-16T09:37:23.719Z</time></trkpt><trkpt lat="43.4215732" lon="12.4951563"><ele>644.0</ele><time>2026-04-16T09:37:24.72Z</time></trkpt><trkpt lat="43.4216924" lon="12.4952669"><ele>644.0</ele><time>2026-04-16T09:37:25.72Z</time></trkpt><trkpt lat="43.4218078" lon="12.4953705"><ele>644.0</ele><time>2026-04-16T09:37:26.72Z</time></trkpt><trkpt lat="43.4219371" lon="12.495473"><ele>644.0</ele><time>2026-04-16T09:37:27.719Z</time></trkpt><trkpt lat="43.4220578" lon="12.4955653"><ele>644.0</ele><time>2026-04-16T09:37:28.72Z</time></trkpt><trkpt lat="43.4222021" lon="12.4956402"><ele>645.5</ele><time>2026-04-16T09:37:29.721Z</time></trkpt><trkpt lat="43.4223398" lon="12.4957197"><ele>647.0</ele><time>2026-04-16T09:37:30.719Z</time></trkpt><trkpt lat="43.4224438" lon="12.4957686"><ele>648.5</ele><time>2026-04-16T09:37:31.722Z</time></trkpt><trkpt lat="43.4225554" lon="12.4958285"><ele>650.0</ele><time>2026-04-16T09:37:32.72Z</time></trkpt><trkpt lat="43.4226622" lon="12.4959066"><ele>650.0</ele><time>2026-04-16T09:37:33.722Z</time></trkpt><trkpt lat="43.4226804" lon="12.4961315"><ele>650.0</ele><time>2026-04-16T09:37:34.721Z</time></trkpt><trkpt lat="43.4227184" lon="12.4963045"><ele>650.0</ele><time>2026-04-16T09:37:35.72Z</time></trkpt><trkpt lat="43.4227485" lon="12.4965103"><ele>650.0</ele><time>2026-04-16T09:37:36.72Z</time></trkpt><trkpt lat="43.4227748" lon="12.496686"><ele>649.75</ele><time>2026-04-16T09:37:37.72Z</time></trkpt><trkpt lat="43.4227829" lon="12.496831"><ele>649.5</ele><time>2026-04-16T09:37:38.72Z</time></trkpt><trkpt lat="43.4227684" lon="12.4969908"><ele>649.25</ele><time>2026-04-16T09:37:39.721Z</time></trkpt><trkpt lat="43.4227001" lon="12.4971198"><ele>649.0</ele><time>2026-04-16T09:37:40.721Z</time></trkpt><trkpt lat="43.4226722" lon="12.4972758"><ele>649.0</ele><time>2026-04-16T09:37:41.721Z</time></trkpt><trkpt lat="43.4226567" lon="12.4974419"><ele>649.0</ele><time>2026-04-16T09:37:42.721Z</time></trkpt><trkpt lat="43.4226456" lon="12.4976002"><ele>649.0</ele><time>2026-04-16T09:37:43.721Z</time></trkpt><trkpt lat="43.4226398" lon="12.4977485"><ele>649.0</ele><time>2026-04-16T09:37:44.72Z</time></trkpt><trkpt lat="43.4226391" lon="12.4978683"><ele>649.0</ele><time>2026-04-16T09:37:45.72Z</time></trkpt><trkpt lat="43.4226464" lon="12.4979545"><ele>649.2</ele><time>2026-04-16T09:37:46.719Z</time></trkpt><trkpt lat="43.4227026" lon="12.4980555"><ele>649.4000000000001</ele><time>2026-04-16T09:37:48.719Z</time></trkpt><trkpt lat="43.4227905" lon="12.4980756"><ele>649.6</ele><time>2026-04-16T09:37:50.72Z</time></trkpt><trkpt lat="43.4228736" lon="12.4980527"><ele>649.8</ele><time>2026-04-16T09:37:52.719Z</time></trkpt><trkpt lat="43.4229739" lon="12.4980275"><ele>650.0</ele><time>2026-04-16T09:37:54.72Z</time></trkpt><trkpt lat="43.4230709" lon="12.4980021"><ele>651.4</ele><time>2026-04-16T09:37:56.72Z</time></trkpt><trkpt lat="43.4231691" lon="12.4979743"><ele>652.8</ele><time>2026-04-16T09:37:58.719Z</time></trkpt><trkpt lat="43.4232875" lon="12.4979377"><ele>654.2</ele><time>2026-04-16T09:38:00.72Z</time></trkpt><trkpt lat="43.4233597" lon="12.4979207"><ele>655.6</ele><time>2026-04-16T09:38:01.719Z</time></trkpt><trkpt lat="43.4234327" lon="12.4979118"><ele>657.0</ele><time>2026-04-16T09:38:02.719Z</time></trkpt><trkpt lat="43.4235205" lon="12.4979086"><ele>657.0</ele><time>2026-04-16T09:38:03.72Z</time></trkpt><trkpt lat="43.4236225" lon="12.4979239"><ele>657.0</ele><time>2026-04-16T09:38:04.72Z</time></trkpt><trkpt lat="43.4237108" lon="12.4979718"><ele>657.0</ele><time>2026-04-16T09:38:05.719Z</time></trkpt><trkpt lat="43.4237951" lon="12.4980364"><ele>657.0</ele><time>2026-04-16T09:38:06.719Z</time></trkpt><trkpt lat="43.4238735" lon="12.498113"><ele>657.0</ele><time>2026-04-16T09:38:07.72Z</time></trkpt><trkpt lat="43.4239469" lon="12.4982228"><ele>658.1666666666666</ele><time>2026-04-16T09:38:08.722Z</time></trkpt><trkpt lat="43.4240067" lon="12.4983063"><ele>659.3333333333334</ele><time>2026-04-16T09:38:09.719Z</time></trkpt><trkpt lat="43.4240786" lon="12.4983873"><ele>660.5</ele><time>2026-04-16T09:38:10.72Z</time></trkpt><trkpt lat="43.4241324" lon="12.4984532"><ele>661.6666666666667</ele><time>2026-04-16T09:38:11.721Z</time></trkpt><trkpt lat="43.4241757" lon="12.4985199"><ele>662.8333333333334</ele><time>2026-04-16T09:38:12.72Z</time></trkpt><trkpt lat="43.4242456" lon="12.4986502"><ele>664.0</ele><time>2026-04-16T09:38:14.719Z</time></trkpt><trkpt lat="43.4242774" lon="12.4987822"><ele>664.0</ele><time>2026-04-16T09:38:16.72Z</time></trkpt><trkpt lat="43.4242912" lon="12.498872"><ele>664.0</ele><time>2026-04-16T09:38:17.719Z</time></trkpt><trkpt lat="43.424305" lon="12.4989649"><ele>664.0</ele><time>2026-04-16T09:38:18.72Z</time></trkpt><trkpt lat="43.4243155" lon="12.4990729"><ele>664.0</ele><time>2026-04-16T09:38:19.72Z</time></trkpt><trkpt lat="43.4243185" lon="12.4991766"><ele>664.0</ele><time>2026-04-16T09:38:20.72Z</time></trkpt><trkpt lat="43.4243206" lon="12.499295"><ele>664.0</ele><time>2026-04-16T09:38:21.72Z</time></trkpt><trkpt lat="43.4243178" lon="12.4994201"><ele>664.25</ele><time>2026-04-16T09:38:22.719Z</time></trkpt><trkpt lat="43.4243083" lon="12.4995906"><ele>664.5</ele><time>2026-04-16T09:38:23.72Z</time></trkpt><trkpt lat="43.4242944" lon="12.499741"><ele>664.75</ele><time>2026-04-16T09:38:24.72Z</time></trkpt><trkpt lat="43.4242792" lon="12.4999206"><ele>665.0</ele><time>2026-04-16T09:38:25.72Z</time></trkpt><trkpt lat="43.4242677" lon="12.5000929"><ele>665.0</ele><time>2026-04-16T09:38:26.72Z</time></trkpt><trkpt lat="43.4242629" lon="12.5002478"><ele>665.0</ele><time>2026-04-16T09:38:27.72Z</time></trkpt><trkpt lat="43.4242548" lon="12.5003746"><ele>665.0</ele><time>2026-04-16T09:38:28.72Z</time></trkpt><trkpt lat="43.4242408" lon="12.5004887"><ele>665.0</ele><time>2026-04-16T09:38:29.72Z</time></trkpt><trkpt lat="43.4242326" lon="12.500598"><ele>665.0</ele><time>2026-04-16T09:38:30.72Z</time></trkpt><trkpt lat="43.4242257" lon="12.5007031"><ele>665.0</ele><time>2026-04-16T09:38:31.72Z</time></trkpt><trkpt lat="43.4242372" lon="12.5007891"><ele>664.8333333333333</ele><time>2026-04-16T09:38:32.72Z</time></trkpt><trkpt lat="43.4242712" lon="12.5008747"><ele>664.6666666666666</ele><time>2026-04-16T09:38:33.72Z</time></trkpt><trkpt lat="43.4243202" lon="12.5009514"><ele>664.5</ele><time>2026-04-16T09:38:34.72Z</time></trkpt><trkpt lat="43.4243799" lon="12.5010054"><ele>664.3333333333334</ele><time>2026-04-16T09:38:35.719Z</time></trkpt><trkpt lat="43.4244525" lon="12.5010378"><ele>664.1666666666667</ele><time>2026-04-16T09:38:36.719Z</time></trkpt><trkpt lat="43.4245281" lon="12.5010246"><ele>664.0</ele><time>2026-04-16T09:38:37.718Z</time></trkpt><trkpt lat="43.4246218" lon="12.5009702"><ele>664.3333333333334</ele><time>2026-04-16T09:38:38.72Z</time></trkpt><trkpt lat="43.4247073" lon="12.5009221"><ele>664.6666666666667</ele><time>2026-04-16T09:38:39.719Z</time></trkpt><trkpt lat="43.4247843" lon="12.500873"><ele>665.0</ele><time>2026-04-16T09:38:40.722Z</time></trkpt><trkpt lat="43.424861" lon="12.5008188"><ele>665.3333333333334</ele><time>2026-04-16T09:38:41.72Z</time></trkpt><trkpt lat="43.4249432" lon="12.5008239"><ele>665.6666666666666</ele><time>2026-04-16T09:38:42.72Z</time></trkpt><trkpt lat="43.4250285" lon="12.5008547"><ele>666.0</ele><time>2026-04-16T09:38:43.719Z</time></trkpt><trkpt lat="43.4251113" lon="12.5008901"><ele>666.0</ele><time>2026-04-16T09:38:44.72Z</time></trkpt><trkpt lat="43.4251771" lon="12.5009532"><ele>666.0</ele><time>2026-04-16T09:38:45.721Z</time></trkpt><trkpt lat="43.4252328" lon="12.5010217"><ele>666.0</ele><time>2026-04-16T09:38:46.719Z</time></trkpt><trkpt lat="43.4252809" lon="12.5011064"><ele>666.0</ele><time>2026-04-16T09:38:47.721Z</time></trkpt><trkpt lat="43.4253299" lon="12.5011962"><ele>666.0</ele><time>2026-04-16T09:38:48.719Z</time></trkpt><trkpt lat="43.4253688" lon="12.5013016"><ele>666.0</ele><time>2026-04-16T09:38:49.72Z</time></trkpt><trkpt lat="43.4253899" lon="12.5014442"><ele>662.8333333333334</ele><time>2026-04-16T09:38:50.721Z</time></trkpt><trkpt lat="43.4254104" lon="12.501566"><ele>659.6666666666666</ele><time>2026-04-16T09:38:51.72Z</time></trkpt><trkpt lat="43.4254416" lon="12.5016832"><ele>656.5</ele><time>2026-04-16T09:38:52.718Z</time></trkpt><trkpt lat="43.4254629" lon="12.5017925"><ele>653.3333333333333</ele><time>2026-04-16T09:38:53.719Z</time></trkpt><trkpt lat="43.425459" lon="12.501904"><ele>650.1666666666666</ele><time>2026-04-16T09:38:54.72Z</time></trkpt><trkpt lat="43.4254533" lon="12.5020073"><ele>647.0</ele><time>2026-04-16T09:38:55.719Z</time></trkpt><trkpt lat="43.4253906" lon="12.5020714"><ele>645.8333333333333</ele><time>2026-04-16T09:38:56.72Z</time></trkpt><trkpt lat="43.4253158" lon="12.5021243"><ele>644.6666666666666</ele><time>2026-04-16T09:38:57.719Z</time></trkpt><trkpt lat="43.4252479" lon="12.5021628"><ele>643.5</ele><time>2026-04-16T09:38:58.72Z</time></trkpt><trkpt lat="43.4251789" lon="12.50223"><ele>642.3333333333334</ele><time>2026-04-16T09:38:59.72Z</time></trkpt><trkpt lat="43.4251073" lon="12.5023054"><ele>641.1666666666667</ele><time>2026-04-16T09:39:00.72Z</time></trkpt><trkpt lat="43.4250413" lon="12.5023861"><ele>640.0</ele><time>2026-04-16T09:39:01.721Z</time></trkpt><trkpt lat="43.4249913" lon="12.502498"><ele>640.0</ele><time>2026-04-16T09:39:02.719Z</time></trkpt><trkpt lat="43.4249405" lon="12.5026071"><ele>640.0</ele><time>2026-04-16T09:39:03.72Z</time></trkpt><trkpt lat="43.4249047" lon="12.5027159"><ele>640.0</ele><time>2026-04-16T09:39:04.72Z</time></trkpt><trkpt lat="43.4248629" lon="12.5028429"><ele>640.0</ele><time>2026-04-16T09:39:05.718Z</time></trkpt><trkpt lat="43.4248298" lon="12.5029812"><ele>640.0</ele><time>2026-04-16T09:39:06.72Z</time></trkpt><trkpt lat="43.4247946" lon="12.5031084"><ele>638.8333333333334</ele><time>2026-04-16T09:39:07.72Z</time></trkpt><trkpt lat="43.4247663" lon="12.5032119"><ele>637.6666666666667</ele><time>2026-04-16T09:39:08.719Z</time></trkpt><trkpt lat="43.4247463" lon="12.5033258"><ele>636.5</ele><time>2026-04-16T09:39:09.721Z</time></trkpt><trkpt lat="43.4247502" lon="12.5034202"><ele>635.3333333333334</ele><time>2026-04-16T09:39:10.72Z</time></trkpt><trkpt lat="43.4247635" lon="12.503513"><ele>634.1666666666666</ele><time>2026-04-16T09:39:11.72Z</time></trkpt><trkpt lat="43.4247935" lon="12.5036093"><ele>633.0</ele><time>2026-04-16T09:39:12.72Z</time></trkpt><trkpt lat="43.4248273" lon="12.5037068"><ele>630.0</ele><time>2026-04-16T09:39:13.72Z</time></trkpt><trkpt lat="43.4248784" lon="12.5038095"><ele>627.0</ele><time>2026-04-16T09:39:14.721Z</time></trkpt><trkpt lat="43.4249196" lon="12.5039612"><ele>624.0</ele><time>2026-04-16T09:39:15.721Z</time></trkpt><trkpt lat="43.4249318" lon="12.5041134"><ele>621.0</ele><time>2026-04-16T09:39:16.72Z</time></trkpt><trkpt lat="43.4249357" lon="12.5042637"><ele>618.0</ele><time>2026-04-16T09:39:17.72Z</time></trkpt><trkpt lat="43.4249565" lon="12.5043771"><ele>618.0</ele><time>2026-04-16T09:39:18.719Z</time></trkpt><trkpt lat="43.4249644" lon="12.5045092"><ele>618.0</ele><time>2026-04-16T09:39:19.721Z</time></trkpt><trkpt lat="43.4249546" lon="12.5046366"><ele>618.0</ele><time>2026-04-16T09:39:20.72Z</time></trkpt><trkpt lat="43.4249707" lon="12.5047345"><ele>618.0</ele><time>2026-04-16T09:39:21.719Z</time></trkpt><trkpt lat="43.4250229" lon="12.5047952"><ele>618.0</ele><time>2026-04-16T09:39:22.721Z</time></trkpt><trkpt lat="43.425079" lon="12.5048373"><ele>618.0</ele><time>2026-04-16T09:39:23.719Z</time></trkpt><trkpt lat="43.4251428" lon="12.5048586"><ele>618.25</ele><time>2026-04-16T09:39:24.719Z</time></trkpt><trkpt lat="43.4252468" lon="12.5047933"><ele>618.5</ele><time>2026-04-16T09:39:25.72Z</time></trkpt><trkpt lat="43.4253542" lon="12.5047403"><ele>618.75</ele><time>2026-04-16T09:39:26.721Z</time></trkpt><trkpt lat="43.4254678" lon="12.5047018"><ele>619.0</ele><time>2026-04-16T09:39:27.72Z</time></trkpt><trkpt lat="43.4255783" lon="12.5046462"><ele>619.0</ele><time>2026-04-16T09:39:28.72Z</time></trkpt><trkpt lat="43.4256896" lon="12.5046024"><ele>619.0</ele><time>2026-04-16T09:39:29.719Z</time></trkpt><trkpt lat="43.4257973" lon="12.504565"><ele>619.0</ele><time>2026-04-16T09:39:30.72Z</time></trkpt><trkpt lat="43.4259129" lon="12.5045581"><ele>619.0</ele><time>2026-04-16T09:39:31.719Z</time></trkpt><trkpt lat="43.4260135" lon="12.5046114"><ele>619.0</ele><time>2026-04-16T09:39:33.72Z</time></trkpt><trkpt lat="43.4259663" lon="12.5047205"><ele>619.0</ele><time>2026-04-16T09:39:34.718Z</time></trkpt><trkpt lat="43.4259438" lon="12.5048481"><ele>619.0</ele><time>2026-04-16T09:39:35.719Z</time></trkpt><trkpt lat="43.4258665" lon="12.5049902"><ele>619.0</ele><time>2026-04-16T09:39:36.72Z</time></trkpt><trkpt lat="43.4258651" lon="12.5051137"><ele>619.0</ele><time>2026-04-16T09:39:37.72Z</time></trkpt><trkpt lat="43.4258894" lon="12.5052275"><ele>619.0</ele><time>2026-04-16T09:39:38.719Z</time></trkpt><trkpt lat="43.425927" lon="12.5053554"><ele>619.0</ele><time>2026-04-16T09:39:39.719Z</time></trkpt><trkpt lat="43.4259572" lon="12.5055136"><ele>619.0</ele><time>2026-04-16T09:39:40.72Z</time></trkpt><trkpt lat="43.4259924" lon="12.5056812"><ele>619.0</ele><time>2026-04-16T09:39:41.719Z</time></trkpt><trkpt lat="43.4260099" lon="12.5058631"><ele>617.75</ele><time>2026-04-16T09:39:42.72Z</time></trkpt><trkpt lat="43.4260146" lon="12.5060476"><ele>616.5</ele><time>2026-04-16T09:39:43.721Z</time></trkpt><trkpt lat="43.4260211" lon="12.5061969"><ele>615.25</ele><time>2026-04-16T09:39:44.719Z</time></trkpt><trkpt lat="43.426028" lon="12.506344"><ele>614.0</ele><time>2026-04-16T09:39:45.721Z</time></trkpt><trkpt lat="43.4260661" lon="12.5064739"><ele>611.8</ele><time>2026-04-16T09:39:46.721Z</time></trkpt><trkpt lat="43.4261262" lon="12.5065794"><ele>609.5999999999999</ele><time>2026-04-16T09:39:47.72Z</time></trkpt><trkpt lat="43.4262053" lon="12.5066719"><ele>607.4</ele><time>2026-04-16T09:39:48.719Z</time></trkpt><trkpt lat="43.426296" lon="12.5067562"><ele>605.1999999999999</ele><time>2026-04-16T09:39:49.718Z</time></trkpt><trkpt lat="43.4263905" lon="12.5068293"><ele>603.0</ele><time>2026-04-16T09:39:50.719Z</time></trkpt><trkpt lat="43.4264927" lon="12.5068763"><ele>608.4</ele><time>2026-04-16T09:39:51.721Z</time></trkpt><trkpt lat="43.4265949" lon="12.5069015"><ele>613.8</ele><time>2026-04-16T09:39:52.719Z</time></trkpt><trkpt lat="43.4266953" lon="12.5069402"><ele>619.2</ele><time>2026-04-16T09:39:53.72Z</time></trkpt><trkpt lat="43.4267896" lon="12.5069788"><ele>624.6</ele><time>2026-04-16T09:39:54.72Z</time></trkpt><trkpt lat="43.4268785" lon="12.5070229"><ele>630.0</ele><time>2026-04-16T09:39:55.72Z</time></trkpt><trkpt lat="43.4269633" lon="12.5070612"><ele>625.0</ele><time>2026-04-16T09:39:56.72Z</time></trkpt><trkpt lat="43.4270522" lon="12.5070866"><ele>620.0</ele><time>2026-04-16T09:39:57.721Z</time></trkpt><trkpt lat="43.4271543" lon="12.5070965"><ele>615.0</ele><time>2026-04-16T09:39:58.719Z</time></trkpt><trkpt lat="43.4272481" lon="12.5071071"><ele>610.0</ele><time>2026-04-16T09:39:59.721Z</time></trkpt><trkpt lat="43.427346" lon="12.5071138"><ele>605.0</ele><time>2026-04-16T09:40:00.72Z</time></trkpt><trkpt lat="43.4274503" lon="12.5071162"><ele>605.0</ele><time>2026-04-16T09:40:01.721Z</time></trkpt><trkpt lat="43.4275437" lon="12.5071263"><ele>605.0</ele><time>2026-04-16T09:40:02.719Z</time></trkpt><trkpt lat="43.4276128" lon="12.507123"><ele>605.0</ele><time>2026-04-16T09:40:03.72Z</time></trkpt><trkpt lat="43.4276783" lon="12.5071377"><ele>605.0</ele><time>2026-04-16T09:40:04.721Z</time></trkpt><trkpt lat="43.427755" lon="12.5071411"><ele>605.0</ele><time>2026-04-16T09:40:05.719Z</time></trkpt><trkpt lat="43.4278567" lon="12.5072209"><ele>605.0</ele><time>2026-04-16T09:40:07.72Z</time></trkpt><trkpt lat="43.4279095" lon="12.5072717"><ele>605.0</ele><time>2026-04-16T09:40:08.719Z</time></trkpt><trkpt lat="43.4279598" lon="12.5073796"><ele>605.0</ele><time>2026-04-16T09:40:09.721Z</time></trkpt><trkpt lat="43.4280101" lon="12.5075491"><ele>605.0</ele><time>2026-04-16T09:40:10.719Z</time></trkpt><trkpt lat="43.428045" lon="12.5077403"><ele>605.0</ele><time>2026-04-16T09:40:11.72Z</time></trkpt><trkpt lat="43.4280607" lon="12.5078877"><ele>608.5</ele><time>2026-04-16T09:40:12.72Z</time></trkpt><trkpt lat="43.4281018" lon="12.5080225"><ele>612.0</ele><time>2026-04-16T09:40:13.719Z</time></trkpt><trkpt lat="43.4281538" lon="12.5081774"><ele>615.5</ele><time>2026-04-16T09:40:14.72Z</time></trkpt><trkpt lat="43.4282212" lon="12.5083303"><ele>619.0</ele><time>2026-04-16T09:40:15.72Z</time></trkpt><trkpt lat="43.4283216" lon="12.5085091"><ele>619.0</ele><time>2026-04-16T09:40:16.721Z</time></trkpt><trkpt lat="43.4284168" lon="12.5086629"><ele>619.0</ele><time>2026-04-16T09:40:17.72Z</time></trkpt><trkpt lat="43.4285046" lon="12.5088068"><ele>619.0</ele><time>2026-04-16T09:40:18.72Z</time></trkpt><trkpt lat="43.4285841" lon="12.5089475"><ele>619.0</ele><time>2026-04-16T09:40:19.721Z</time></trkpt><trkpt lat="43.428622" lon="12.5090439"><ele>619.0</ele><time>2026-04-16T09:40:20.722Z</time></trkpt><trkpt lat="43.428687" lon="12.5091599"><ele>619.0</ele><time>2026-04-16T09:40:21.72Z</time></trkpt><trkpt lat="43.4287622" lon="12.5092324"><ele>619.0</ele><time>2026-04-16T09:40:22.721Z</time></trkpt><trkpt lat="43.4288455" lon="12.5093057"><ele>619.0</ele><time>2026-04-16T09:40:23.721Z</time></trkpt><trkpt lat="43.4289189" lon="12.5093852"><ele>619.0</ele><time>2026-04-16T09:40:24.72Z</time></trkpt><trkpt lat="43.4290086" lon="12.5094579"><ele>619.0</ele><time>2026-04-16T09:40:25.72Z</time></trkpt><trkpt lat="43.4290748" lon="12.509545"><ele>619.0</ele><time>2026-04-16T09:40:26.72Z</time></trkpt><trkpt lat="43.4291533" lon="12.5096202"><ele>619.0</ele><time>2026-04-16T09:40:27.72Z</time></trkpt><trkpt lat="43.4292184" lon="12.50969"><ele>619.0</ele><time>2026-04-16T09:40:28.72Z</time></trkpt><trkpt lat="43.4291742" lon="12.5097861"><ele>619.0</ele><time>2026-04-16T09:40:30.72Z</time></trkpt><trkpt lat="43.4290846" lon="12.5098953"><ele>618.25</ele><time>2026-04-16T09:40:33.72Z</time></trkpt><trkpt lat="43.4290075" lon="12.5099516"><ele>617.5</ele><time>2026-04-16T09:40:34.719Z</time></trkpt><trkpt lat="43.4289057" lon="12.5100458"><ele>616.75</ele><time>2026-04-16T09:40:35.72Z</time></trkpt><trkpt lat="43.4287424" lon="12.5100732"><ele>616.0</ele><time>2026-04-16T09:40:36.72Z</time></trkpt><trkpt lat="43.4286551" lon="12.510134"><ele>616.0</ele><time>2026-04-16T09:40:37.718Z</time></trkpt><trkpt lat="43.4285854" lon="12.5101727"><ele>616.0</ele><time>2026-04-16T09:40:38.719Z</time></trkpt><trkpt lat="43.4285158" lon="12.5102792"><ele>616.0</ele><time>2026-04-16T09:40:40.72Z</time></trkpt><trkpt lat="43.4285024" lon="12.510383"><ele>616.0</ele><time>2026-04-16T09:40:42.72Z</time></trkpt><trkpt lat="43.4285195" lon="12.5105014"><ele>616.0</ele><time>2026-04-16T09:40:44.719Z</time></trkpt><trkpt lat="43.4285469" lon="12.5105923"><ele>616.0</ele><time>2026-04-16T09:40:45.718Z</time></trkpt><trkpt lat="43.4285882" lon="12.510713"><ele>617.3333333333334</ele><time>2026-04-16T09:40:46.72Z</time></trkpt><trkpt lat="43.4286262" lon="12.5108333"><ele>618.6666666666667</ele><time>2026-04-16T09:40:47.72Z</time></trkpt><trkpt lat="43.4286597" lon="12.5109462"><ele>620.0</ele><time>2026-04-16T09:40:48.72Z</time></trkpt><trkpt lat="43.4286889" lon="12.5110646"><ele>621.3333333333334</ele><time>2026-04-16T09:40:49.719Z</time></trkpt><trkpt lat="43.4287019" lon="12.511183"><ele>622.6666666666666</ele><time>2026-04-16T09:40:50.72Z</time></trkpt><trkpt lat="43.4287005" lon="12.5113032"><ele>624.0</ele><time>2026-04-16T09:40:51.718Z</time></trkpt><trkpt lat="43.4287009" lon="12.5114104"><ele>624.8333333333334</ele><time>2026-04-16T09:40:53.72Z</time></trkpt><trkpt lat="43.4287429" lon="12.5114912"><ele>625.6666666666666</ele><time>2026-04-16T09:40:55.719Z</time></trkpt><trkpt lat="43.4287937" lon="12.5115729"><ele>626.5</ele><time>2026-04-16T09:40:56.721Z</time></trkpt><trkpt lat="43.4288422" lon="12.5116656"><ele>627.3333333333333</ele><time>2026-04-16T09:40:57.72Z</time></trkpt><trkpt lat="43.4288944" lon="12.5117626"><ele>628.1666666666666</ele><time>2026-04-16T09:40:58.72Z</time></trkpt><trkpt lat="43.428949" lon="12.5119134"><ele>629.0</ele><time>2026-04-16T09:40:59.718Z</time></trkpt><trkpt lat="43.4289944" lon="12.5120603"><ele>631.25</ele><time>2026-04-16T09:41:00.719Z</time></trkpt><trkpt lat="43.4290306" lon="12.5122202"><ele>633.5</ele><time>2026-04-16T09:41:01.72Z</time></trkpt><trkpt lat="43.4290466" lon="12.5123675"><ele>635.75</ele><time>2026-04-16T09:41:02.721Z</time></trkpt><trkpt lat="43.4290733" lon="12.5125091"><ele>638.0</ele><time>2026-04-16T09:41:03.718Z</time></trkpt><trkpt lat="43.4290982" lon="12.5126868"><ele>638.0</ele><time>2026-04-16T09:41:05.721Z</time></trkpt><trkpt lat="43.4290373" lon="12.5127746"><ele>638.0</ele><time>2026-04-16T09:41:07.72Z</time></trkpt><trkpt lat="43.4289315" lon="12.5128643"><ele>638.0</ele><time>2026-04-16T09:41:09.72Z</time></trkpt><trkpt lat="43.4288545" lon="12.5129106"><ele>638.0</ele><time>2026-04-16T09:41:10.721Z</time></trkpt><trkpt lat="43.4287944" lon="12.5129455"><ele>638.0</ele><time>2026-04-16T09:41:11.719Z</time></trkpt><trkpt lat="43.4287265" lon="12.5129273"><ele>638.0</ele><time>2026-04-16T09:41:12.719Z</time></trkpt><trkpt lat="43.4286189" lon="12.5128306"><ele>638.4</ele><time>2026-04-16T09:41:14.721Z</time></trkpt><trkpt lat="43.4285815" lon="12.5127467"><ele>638.8</ele><time>2026-04-16T09:41:15.72Z</time></trkpt><trkpt lat="43.4285214" lon="12.5126499"><ele>639.2</ele><time>2026-04-16T09:41:16.72Z</time></trkpt><trkpt lat="43.4284674" lon="12.5125553"><ele>639.6</ele><time>2026-04-16T09:41:17.72Z</time></trkpt><trkpt lat="43.4284007" lon="12.512472"><ele>640.0</ele><time>2026-04-16T09:41:18.72Z</time></trkpt><trkpt lat="43.4283109" lon="12.5123657"><ele>640.0</ele><time>2026-04-16T09:41:19.719Z</time></trkpt><trkpt lat="43.4282178" lon="12.5122928"><ele>640.0</ele><time>2026-04-16T09:41:20.719Z</time></trkpt><trkpt lat="43.4281215" lon="12.5122218"><ele>640.0</ele><time>2026-04-16T09:41:21.72Z</time></trkpt><trkpt lat="43.4280173" lon="12.5121278"><ele>640.0</ele><time>2026-04-16T09:41:22.72Z</time></trkpt><trkpt lat="43.4279167" lon="12.5120217"><ele>641.5</ele><time>2026-04-16T09:41:23.719Z</time></trkpt><trkpt lat="43.4278116" lon="12.5118707"><ele>643.0</ele><time>2026-04-16T09:41:24.72Z</time></trkpt><trkpt lat="43.4277304" lon="12.5117556"><ele>644.5</ele><time>2026-04-16T09:41:25.72Z</time></trkpt><trkpt lat="43.4276434" lon="12.5116633"><ele>646.0</ele><time>2026-04-16T09:41:26.719Z</time></trkpt><trkpt lat="43.4275535" lon="12.5115961"><ele>646.0</ele><time>2026-04-16T09:41:27.719Z</time></trkpt><trkpt lat="43.427475" lon="12.511534"><ele>646.0</ele><time>2026-04-16T09:41:28.719Z</time></trkpt><trkpt lat="43.4274013" lon="12.5115283"><ele>646.0</ele><time>2026-04-16T09:41:29.721Z</time></trkpt><trkpt lat="43.4273228" lon="12.5115638"><ele>646.0</ele><time>2026-04-16T09:41:30.72Z</time></trkpt><trkpt lat="43.4272444" lon="12.511613"><ele>646.0</ele><time>2026-04-16T09:41:31.719Z</time></trkpt><trkpt lat="43.4271727" lon="12.5116722"><ele>646.0</ele><time>2026-04-16T09:41:32.72Z</time></trkpt><trkpt lat="43.4271006" lon="12.511739"><ele>648.1999999999999</ele><time>2026-04-16T09:41:33.721Z</time></trkpt><trkpt lat="43.4270189" lon="12.5118087"><ele>650.4</ele><time>2026-04-16T09:41:34.72Z</time></trkpt><trkpt lat="43.4269316" lon="12.5118753"><ele>652.6</ele><time>2026-04-16T09:41:35.72Z</time></trkpt><trkpt lat="43.4268596" lon="12.5119261"><ele>654.8</ele><time>2026-04-16T09:41:36.721Z</time></trkpt><trkpt lat="43.4267696" lon="12.5119693"><ele>657.0</ele><time>2026-04-16T09:41:37.719Z</time></trkpt><trkpt lat="43.4267148" lon="12.5118514"><ele>657.0</ele><time>2026-04-16T09:41:38.719Z</time></trkpt><trkpt lat="43.4266477" lon="12.5117828"><ele>657.0</ele><time>2026-04-16T09:41:39.72Z</time></trkpt><trkpt lat="43.4265821" lon="12.5116982"><ele>657.0</ele><time>2026-04-16T09:41:40.72Z</time></trkpt><trkpt lat="43.4265402" lon="12.5115692"><ele>657.0</ele><time>2026-04-16T09:41:41.722Z</time></trkpt><trkpt lat="43.4265026" lon="12.5114287"><ele>657.0</ele><time>2026-04-16T09:41:42.72Z</time></trkpt><trkpt lat="43.4264645" lon="12.5112496"><ele>658.8</ele><time>2026-04-16T09:41:43.719Z</time></trkpt><trkpt lat="43.426452" lon="12.5111109"><ele>660.6</ele><time>2026-04-16T09:41:44.721Z</time></trkpt><trkpt lat="43.426447" lon="12.5109933"><ele>662.4</ele><time>2026-04-16T09:41:45.721Z</time></trkpt><trkpt lat="43.426386" lon="12.510931"><ele>664.1999999999999</ele><time>2026-04-16T09:41:46.72Z</time></trkpt><trkpt lat="43.4263361" lon="12.5108659"><ele>666.0</ele><time>2026-04-16T09:41:47.721Z</time></trkpt><trkpt lat="43.4261935" lon="12.5107724"><ele>666.0</ele><time>2026-04-16T09:41:49.72Z</time></trkpt><trkpt lat="43.4260893" lon="12.510758"><ele>666.0</ele><time>2026-04-16T09:41:50.721Z</time></trkpt><trkpt lat="43.4259827" lon="12.5107053"><ele>666.0</ele><time>2026-04-16T09:41:51.721Z</time></trkpt><trkpt lat="43.425871" lon="12.5106372"><ele>666.0</ele><time>2026-04-16T09:41:52.72Z</time></trkpt><trkpt lat="43.4257475" lon="12.5105749"><ele>666.0</ele><time>2026-04-16T09:41:53.721Z</time></trkpt><trkpt lat="43.4256524" lon="12.5105293"><ele>666.0</ele><time>2026-04-16T09:41:54.721Z</time></trkpt><trkpt lat="43.4255729" lon="12.5105082"><ele>666.0</ele><time>2026-04-16T09:41:55.721Z</time></trkpt><trkpt lat="43.4254927" lon="12.5104759"><ele>666.0</ele><time>2026-04-16T09:41:56.72Z</time></trkpt><trkpt lat="43.4254171" lon="12.5104844"><ele>666.0</ele><time>2026-04-16T09:41:57.72Z</time></trkpt><trkpt lat="43.4253197" lon="12.5105642"><ele>668.0</ele><time>2026-04-16T09:41:58.72Z</time></trkpt><trkpt lat="43.4252315" lon="12.5106263"><ele>670.0</ele><time>2026-04-16T09:41:59.72Z</time></trkpt><trkpt lat="43.4251323" lon="12.5106854"><ele>672.0</ele><time>2026-04-16T09:42:00.72Z</time></trkpt><trkpt lat="43.4250283" lon="12.5107254"><ele>674.0</ele><time>2026-04-16T09:42:01.72Z</time></trkpt><trkpt lat="43.4249132" lon="12.5107531"><ele>676.0</ele><time>2026-04-16T09:42:02.72Z</time></trkpt><trkpt lat="43.4247907" lon="12.510762"><ele>676.0</ele><time>2026-04-16T09:42:03.721Z</time></trkpt><trkpt lat="43.424658" lon="12.5107417"><ele>676.0</ele><time>2026-04-16T09:42:04.721Z</time></trkpt><trkpt lat="43.4245365" lon="12.5107033"><ele>676.0</ele><time>2026-04-16T09:42:05.72Z</time></trkpt><trkpt lat="43.4244238" lon="12.5106483"><ele>676.0</ele><time>2026-04-16T09:42:06.72Z</time></trkpt><trkpt lat="43.4243287" lon="12.5105879"><ele>676.1999999999999</ele><time>2026-04-16T09:42:07.721Z</time></trkpt><trkpt lat="43.4242589" lon="12.5105178"><ele>676.4</ele><time>2026-04-16T09:42:08.721Z</time></trkpt><trkpt lat="43.4241965" lon="12.5104737"><ele>676.6</ele><time>2026-04-16T09:42:09.72Z</time></trkpt><trkpt lat="43.4240718" lon="12.5104905"><ele>676.8</ele><time>2026-04-16T09:42:11.72Z</time></trkpt><trkpt lat="43.4240182" lon="12.510632"><ele>677.0</ele><time>2026-04-16T09:42:13.72Z</time></trkpt><trkpt lat="43.4240055" lon="12.510737"><ele>677.0</ele><time>2026-04-16T09:42:14.72Z</time></trkpt><trkpt lat="43.4240002" lon="12.510863"><ele>677.0</ele><time>2026-04-16T09:42:15.72Z</time></trkpt><trkpt lat="43.4239881" lon="12.5109941"><ele>677.0</ele><time>2026-04-16T09:42:16.719Z</time></trkpt><trkpt lat="43.4239718" lon="12.5111359"><ele>677.0</ele><time>2026-04-16T09:42:17.721Z</time></trkpt><trkpt lat="43.4239569" lon="12.5112869"><ele>677.0</ele><time>2026-04-16T09:42:18.72Z</time></trkpt><trkpt lat="43.4239413" lon="12.5114492"><ele>680.75</ele><time>2026-04-16T09:42:19.72Z</time></trkpt><trkpt lat="43.4239525" lon="12.5116371"><ele>684.5</ele><time>2026-04-16T09:42:20.721Z</time></trkpt><trkpt lat="43.4239341" lon="12.5117981"><ele>688.25</ele><time>2026-04-16T09:42:21.72Z</time></trkpt><trkpt lat="43.4239155" lon="12.5119541"><ele>692.0</ele><time>2026-04-16T09:42:22.72Z</time></trkpt><trkpt lat="43.4238977" lon="12.5120777"><ele>693.2</ele><time>2026-04-16T09:42:23.721Z</time></trkpt><trkpt lat="43.423893" lon="12.5122023"><ele>694.4000000000001</ele><time>2026-04-16T09:42:24.719Z</time></trkpt><trkpt lat="43.4238972" lon="12.5123373"><ele>695.5999999999999</ele><time>2026-04-16T09:42:25.72Z</time></trkpt><trkpt lat="43.4239324" lon="12.5124818"><ele>696.8</ele><time>2026-04-16T09:42:26.72Z</time></trkpt><trkpt lat="43.4239666" lon="12.5126469"><ele>698.0</ele><time>2026-04-16T09:42:27.72Z</time></trkpt><trkpt lat="43.4240064" lon="12.5128177"><ele>698.75</ele><time>2026-04-16T09:42:28.719Z</time></trkpt><trkpt lat="43.4240432" lon="12.5129991"><ele>699.5</ele><time>2026-04-16T09:42:29.721Z</time></trkpt><trkpt lat="43.4240006" lon="12.5131494"><ele>700.25</ele><time>2026-04-16T09:42:30.72Z</time></trkpt><trkpt lat="43.4239866" lon="12.5133177"><ele>701.0</ele><time>2026-04-16T09:42:31.719Z</time></trkpt><trkpt lat="43.4239181" lon="12.5134196"><ele>701.0</ele><time>2026-04-16T09:42:32.719Z</time></trkpt><trkpt lat="43.4238778" lon="12.5135509"><ele>701.0</ele><time>2026-04-16T09:42:33.719Z</time></trkpt><trkpt lat="43.4238331" lon="12.5136752"><ele>701.0</ele><time>2026-04-16T09:42:34.719Z</time></trkpt><trkpt lat="43.4238641" lon="12.5137541"><ele>701.0</ele><time>2026-04-16T09:42:35.72Z</time></trkpt><trkpt lat="43.4238946" lon="12.5138381"><ele>701.0</ele><time>2026-04-16T09:42:36.72Z</time></trkpt><trkpt lat="43.4239429" lon="12.513942"><ele>701.0</ele><time>2026-04-16T09:42:37.72Z</time></trkpt><trkpt lat="43.4240214" lon="12.5140365"><ele>699.4</ele><time>2026-04-16T09:42:38.719Z</time></trkpt><trkpt lat="43.4241082" lon="12.5141317"><ele>697.8</ele><time>2026-04-16T09:42:39.719Z</time></trkpt><trkpt lat="43.4241996" lon="12.5141934"><ele>696.1999999999999</ele><time>2026-04-16T09:42:40.719Z</time></trkpt><trkpt lat="43.4242988" lon="12.5142433"><ele>694.5999999999999</ele><time>2026-04-16T09:42:41.72Z</time></trkpt><trkpt lat="43.4244139" lon="12.5142831"><ele>693.0</ele><time>2026-04-16T09:42:42.719Z</time></trkpt><trkpt lat="43.4245346" lon="12.5143259"><ele>698.5</ele><time>2026-04-16T09:42:43.72Z</time></trkpt><trkpt lat="43.4246593" lon="12.5143596"><ele>704.0</ele><time>2026-04-16T09:42:44.719Z</time></trkpt><trkpt lat="43.4247908" lon="12.5143857"><ele>709.5</ele><time>2026-04-16T09:42:45.719Z</time></trkpt><trkpt lat="43.4249128" lon="12.5144139"><ele>715.0</ele><time>2026-04-16T09:42:46.72Z</time></trkpt><trkpt lat="43.4250313" lon="12.5144423"><ele>715.0</ele><time>2026-04-16T09:42:47.72Z</time></trkpt><trkpt lat="43.4250913" lon="12.5145252"><ele>715.0</ele><time>2026-04-16T09:42:48.72Z</time></trkpt><trkpt lat="43.425132" lon="12.5146207"><ele>715.0</ele><time>2026-04-16T09:42:49.72Z</time></trkpt><trkpt lat="43.4251739" lon="12.5147368"><ele>715.0</ele><time>2026-04-16T09:42:50.719Z</time></trkpt><trkpt lat="43.4252146" lon="12.5148523"><ele>715.0</ele><time>2026-04-16T09:42:51.719Z</time></trkpt><trkpt lat="43.4252136" lon="12.5149918"><ele>710.2</ele><time>2026-04-16T09:42:52.72Z</time></trkpt><trkpt lat="43.4252001" lon="12.5151769"><ele>705.4</ele><time>2026-04-16T09:42:53.72Z</time></trkpt><trkpt lat="43.4251989" lon="12.5153097"><ele>700.5999999999999</ele><time>2026-04-16T09:42:54.72Z</time></trkpt><trkpt lat="43.4252053" lon="12.5154193"><ele>695.8</ele><time>2026-04-16T09:42:55.72Z</time></trkpt><trkpt lat="43.4252471" lon="12.5155158"><ele>691.0</ele><time>2026-04-16T09:42:56.72Z</time></trkpt><trkpt lat="43.4252969" lon="12.5155885"><ele>693.0</ele><time>2026-04-16T09:42:57.72Z</time></trkpt><trkpt lat="43.4253544" lon="12.5156723"><ele>695.0</ele><time>2026-04-16T09:42:58.72Z</time></trkpt><trkpt lat="43.4254177" lon="12.5157776"><ele>697.0</ele><time>2026-04-16T09:42:59.72Z</time></trkpt><trkpt lat="43.4255556" lon="12.5158132"><ele>699.0</ele><time>2026-04-16T09:43:00.72Z</time></trkpt><trkpt lat="43.4256389" lon="12.5158533"><ele>701.0</ele><time>2026-04-16T09:43:01.72Z</time></trkpt><trkpt lat="43.4257162" lon="12.5158911"><ele>701.0</ele><time>2026-04-16T09:43:02.72Z</time></trkpt><trkpt lat="43.425785" lon="12.5159884"><ele>701.0</ele><time>2026-04-16T09:43:04.72Z</time></trkpt><trkpt lat="43.425806" lon="12.516136"><ele>701.0</ele><time>2026-04-16T09:43:06.72Z</time></trkpt><trkpt lat="43.4257625" lon="12.5162726"><ele>701.0</ele><time>2026-04-16T09:43:07.72Z</time></trkpt><trkpt lat="43.4257601" lon="12.5163999"><ele>701.0</ele><time>2026-04-16T09:43:08.719Z</time></trkpt><trkpt lat="43.4257448" lon="12.516515"><ele>700.5</ele><time>2026-04-16T09:43:09.72Z</time></trkpt><trkpt lat="43.4257071" lon="12.5166285"><ele>700.0</ele><time>2026-04-16T09:43:10.72Z</time></trkpt><trkpt lat="43.4256563" lon="12.5166983"><ele>699.5</ele><time>2026-04-16T09:43:11.719Z</time></trkpt><trkpt lat="43.4255884" lon="12.5167158"><ele>699.0</ele><time>2026-04-16T09:43:12.719Z</time></trkpt><trkpt lat="43.4255266" lon="12.5167594"><ele>698.5</ele><time>2026-04-16T09:43:13.72Z</time></trkpt><trkpt lat="43.4254535" lon="12.5168643"><ele>698.0</ele><time>2026-04-16T09:43:15.72Z</time></trkpt><trkpt lat="43.4254717" lon="12.5170363"><ele>697.75</ele><time>2026-04-16T09:43:17.72Z</time></trkpt><trkpt lat="43.4255252" lon="12.5171482"><ele>697.5</ele><time>2026-04-16T09:43:18.72Z</time></trkpt><trkpt lat="43.425572" lon="12.5172669"><ele>697.25</ele><time>2026-04-16T09:43:19.719Z</time></trkpt><trkpt lat="43.4256044" lon="12.5174367"><ele>697.0</ele><time>2026-04-16T09:43:20.719Z</time></trkpt><trkpt lat="43.4256458" lon="12.5176076"><ele>697.0</ele><time>2026-04-16T09:43:21.72Z</time></trkpt><trkpt lat="43.4256768" lon="12.5177653"><ele>697.0</ele><time>2026-04-16T09:43:22.72Z</time></trkpt><trkpt lat="43.4257115" lon="12.5179283"><ele>697.0</ele><time>2026-04-16T09:43:23.719Z</time></trkpt><trkpt lat="43.425711" lon="12.5180943"><ele>697.0</ele><time>2026-04-16T09:43:24.72Z</time></trkpt><trkpt lat="43.4257039" lon="12.5182781"><ele>697.4000000000001</ele><time>2026-04-16T09:43:25.72Z</time></trkpt><trkpt lat="43.4256836" lon="12.518442"><ele>697.8000000000001</ele><time>2026-04-16T09:43:26.721Z</time></trkpt><trkpt lat="43.4256626" lon="12.5185745"><ele>698.2</ele><time>2026-04-16T09:43:27.721Z</time></trkpt><trkpt lat="43.4256471" lon="12.5187074"><ele>698.6</ele><time>2026-04-16T09:43:28.72Z</time></trkpt><trkpt lat="43.4256095" lon="12.5188598"><ele>699.0</ele><time>2026-04-16T09:43:30.72Z</time></trkpt><trkpt lat="43.4255128" lon="12.5188488"><ele>696.8000000000001</ele><time>2026-04-16T09:43:31.721Z</time></trkpt><trkpt lat="43.4254079" lon="12.5187966"><ele>694.6</ele><time>2026-04-16T09:43:33.72Z</time></trkpt><trkpt lat="43.4253258" lon="12.5187633"><ele>692.4</ele><time>2026-04-16T09:43:34.719Z</time></trkpt><trkpt lat="43.4252294" lon="12.5187199"><ele>690.2</ele><time>2026-04-16T09:43:35.719Z</time></trkpt><trkpt lat="43.4251443" lon="12.518687"><ele>688.0</ele><time>2026-04-16T09:43:36.72Z</time></trkpt><trkpt lat="43.4250538" lon="12.5186556"><ele>688.0</ele><time>2026-04-16T09:43:37.719Z</time></trkpt><trkpt lat="43.4249459" lon="12.5185881"><ele>688.0</ele><time>2026-04-16T09:43:38.721Z</time></trkpt><trkpt lat="43.4248476" lon="12.5185139"><ele>688.0</ele><time>2026-04-16T09:43:39.72Z</time></trkpt><trkpt lat="43.4247556" lon="12.5183783"><ele>688.0</ele><time>2026-04-16T09:43:40.721Z</time></trkpt><trkpt lat="43.4246479" lon="12.5182665"><ele>687.75</ele><time>2026-04-16T09:43:41.721Z</time></trkpt><trkpt lat="43.4245203" lon="12.5181684"><ele>687.5</ele><time>2026-04-16T09:43:42.719Z</time></trkpt><trkpt lat="43.4243952" lon="12.5180699"><ele>687.25</ele><time>2026-04-16T09:43:43.718Z</time></trkpt><trkpt lat="43.424279" lon="12.5179679"><ele>687.0</ele><time>2026-04-16T09:43:44.72Z</time></trkpt><trkpt lat="43.4241573" lon="12.5178527"><ele>687.0</ele><time>2026-04-16T09:43:45.721Z</time></trkpt><trkpt lat="43.4240586" lon="12.5177476"><ele>687.0</ele><time>2026-04-16T09:43:46.721Z</time></trkpt><trkpt lat="43.4239691" lon="12.5176775"><ele>687.0</ele><time>2026-04-16T09:43:47.72Z</time></trkpt><trkpt lat="43.4238827" lon="12.5175762"><ele>687.0</ele><time>2026-04-16T09:43:48.72Z</time></trkpt><trkpt lat="43.4238" lon="12.5175082"><ele>687.0</ele><time>2026-04-16T09:43:49.719Z</time></trkpt><trkpt lat="43.4237005" lon="12.5174492"><ele>691.8</ele><time>2026-04-16T09:43:50.719Z</time></trkpt><trkpt lat="43.4236106" lon="12.5174468"><ele>696.6</ele><time>2026-04-16T09:43:51.72Z</time></trkpt><trkpt lat="43.4235152" lon="12.517449"><ele>701.4</ele><time>2026-04-16T09:43:52.72Z</time></trkpt><trkpt lat="43.4233966" lon="12.5174298"><ele>706.1999999999999</ele><time>2026-04-16T09:43:53.72Z</time></trkpt><trkpt lat="43.423317" lon="12.5173577"><ele>711.0</ele><time>2026-04-16T09:43:54.72Z</time></trkpt><trkpt lat="43.4232482" lon="12.5172931"><ele>711.0</ele><time>2026-04-16T09:43:55.719Z</time></trkpt><trkpt lat="43.4231846" lon="12.5172498"><ele>711.0</ele><time>2026-04-16T09:43:56.72Z</time></trkpt><trkpt lat="43.4231108" lon="12.5172058"><ele>711.0</ele><time>2026-04-16T09:43:57.719Z</time></trkpt><trkpt lat="43.4230443" lon="12.5171806"><ele>711.0</ele><time>2026-04-16T09:43:58.719Z</time></trkpt><trkpt lat="43.4229696" lon="12.5172023"><ele>711.0</ele><time>2026-04-16T09:43:59.72Z</time></trkpt><trkpt lat="43.4229007" lon="12.5172455"><ele>711.0</ele><time>2026-04-16T09:44:00.72Z</time></trkpt><trkpt lat="43.4228303" lon="12.5172941"><ele>707.4</ele><time>2026-04-16T09:44:01.719Z</time></trkpt><trkpt lat="43.4227828" lon="12.5173665"><ele>703.8</ele><time>2026-04-16T09:44:02.72Z</time></trkpt><trkpt lat="43.4227471" lon="12.5174704"><ele>700.1999999999999</ele><time>2026-04-16T09:44:03.719Z</time></trkpt><trkpt lat="43.4227132" lon="12.5175826"><ele>696.5999999999999</ele><time>2026-04-16T09:44:04.719Z</time></trkpt><trkpt lat="43.4226801" lon="12.5177128"><ele>693.0</ele><time>2026-04-16T09:44:05.72Z</time></trkpt><trkpt lat="43.4226424" lon="12.5178597"><ele>694.2</ele><time>2026-04-16T09:44:06.72Z</time></trkpt><trkpt lat="43.4225959" lon="12.5180011"><ele>695.4</ele><time>2026-04-16T09:44:07.72Z</time></trkpt><trkpt lat="43.4225671" lon="12.5181259"><ele>696.6</ele><time>2026-04-16T09:44:08.72Z</time></trkpt><trkpt lat="43.4225467" lon="12.5182615"><ele>697.8000000000001</ele><time>2026-04-16T09:44:09.72Z</time></trkpt><trkpt lat="43.4225315" lon="12.5184019"><ele>699.0</ele><time>2026-04-16T09:44:10.719Z</time></trkpt><trkpt lat="43.4225214" lon="12.5185522"><ele>699.0</ele><time>2026-04-16T09:44:11.72Z</time></trkpt><trkpt lat="43.4225115" lon="12.5187083"><ele>699.0</ele><time>2026-04-16T09:44:12.72Z</time></trkpt><trkpt lat="43.4224818" lon="12.5188184"><ele>699.0</ele><time>2026-04-16T09:44:13.719Z</time></trkpt><trkpt lat="43.4224894" lon="12.5189379"><ele>699.0</ele><time>2026-04-16T09:44:14.719Z</time></trkpt><trkpt lat="43.4224991" lon="12.5190493"><ele>699.0</ele><time>2026-04-16T09:44:15.721Z</time></trkpt><trkpt lat="43.4225242" lon="12.5191637"><ele>698.1666666666666</ele><time>2026-04-16T09:44:16.719Z</time></trkpt><trkpt lat="43.4225598" lon="12.5192746"><ele>697.3333333333334</ele><time>2026-04-16T09:44:17.721Z</time></trkpt><trkpt lat="43.4225917" lon="12.5193975"><ele>696.5</ele><time>2026-04-16T09:44:18.719Z</time></trkpt><trkpt lat="43.4226215" lon="12.5195092"><ele>695.6666666666667</ele><time>2026-04-16T09:44:19.719Z</time></trkpt><trkpt lat="43.4226545" lon="12.5196085"><ele>694.8333333333334</ele><time>2026-04-16T09:44:20.721Z</time></trkpt><trkpt lat="43.4227008" lon="12.5197188"><ele>694.0</ele><time>2026-04-16T09:44:21.72Z</time></trkpt><trkpt lat="43.422763" lon="12.5198136"><ele>691.0</ele><time>2026-04-16T09:44:22.721Z</time></trkpt><trkpt lat="43.4228439" lon="12.5199169"><ele>688.0</ele><time>2026-04-16T09:44:23.719Z</time></trkpt><trkpt lat="43.4229206" lon="12.5200215"><ele>685.0</ele><time>2026-04-16T09:44:24.72Z</time></trkpt><trkpt lat="43.4230014" lon="12.5201413"><ele>682.0</ele><time>2026-04-16T09:44:25.72Z</time></trkpt><trkpt lat="43.4230253" lon="12.5202292"><ele>679.0</ele><time>2026-04-16T09:44:26.72Z</time></trkpt><trkpt lat="43.4230579" lon="12.5203558"><ele>678.6</ele><time>2026-04-16T09:44:27.72Z</time></trkpt><trkpt lat="43.4229986" lon="12.5204569"><ele>678.2</ele><time>2026-04-16T09:44:28.721Z</time></trkpt><trkpt lat="43.4229859" lon="12.5206048"><ele>677.8000000000001</ele><time>2026-04-16T09:44:29.72Z</time></trkpt><trkpt lat="43.4229649" lon="12.5207188"><ele>677.4000000000001</ele><time>2026-04-16T09:44:30.72Z</time></trkpt><trkpt lat="43.422943" lon="12.5208394"><ele>677.0</ele><time>2026-04-16T09:44:31.719Z</time></trkpt><trkpt lat="43.4229408" lon="12.5209477"><ele>677.0</ele><time>2026-04-16T09:44:32.721Z</time></trkpt><trkpt lat="43.4228868" lon="12.5210361"><ele>677.0</ele><time>2026-04-16T09:44:33.72Z</time></trkpt><trkpt lat="43.4228556" lon="12.5211115"><ele>677.0</ele><time>2026-04-16T09:44:34.72Z</time></trkpt><trkpt lat="43.4228159" lon="12.5211966"><ele>677.0</ele><time>2026-04-16T09:44:35.719Z</time></trkpt><trkpt lat="43.4227816" lon="12.5212748"><ele>677.0</ele><time>2026-04-16T09:44:36.72Z</time></trkpt><trkpt lat="43.4227879" lon="12.5214051"><ele>677.0</ele><time>2026-04-16T09:44:37.721Z</time></trkpt><trkpt lat="43.4227778" lon="12.5215101"><ele>678.6</ele><time>2026-04-16T09:44:38.719Z</time></trkpt><trkpt lat="43.4227993" lon="12.5216538"><ele>680.2</ele><time>2026-04-16T09:44:39.721Z</time></trkpt><trkpt lat="43.4228062" lon="12.5217995"><ele>681.8</ele><time>2026-04-16T09:44:40.719Z</time></trkpt><trkpt lat="43.422823" lon="12.5219382"><ele>683.4</ele><time>2026-04-16T09:44:41.721Z</time></trkpt><trkpt lat="43.4228267" lon="12.5220835"><ele>685.0</ele><time>2026-04-16T09:44:42.719Z</time></trkpt><trkpt lat="43.4228149" lon="12.5221956"><ele>685.6666666666667</ele><time>2026-04-16T09:44:43.72Z</time></trkpt><trkpt lat="43.4228288" lon="12.5223227"><ele>686.3333333333334</ele><time>2026-04-16T09:44:44.72Z</time></trkpt><trkpt lat="43.4228469" lon="12.5224123"><ele>687.0</ele><time>2026-04-16T09:44:45.721Z</time></trkpt><trkpt lat="43.4228537" lon="12.5225097"><ele>687.6666666666666</ele><time>2026-04-16T09:44:46.72Z</time></trkpt><trkpt lat="43.422808" lon="12.5225857"><ele>688.3333333333333</ele><time>2026-04-16T09:44:48.72Z</time></trkpt><trkpt lat="43.422698" lon="12.5225655"><ele>689.0</ele><time>2026-04-16T09:44:51.721Z</time></trkpt><trkpt lat="43.4226262" lon="12.5224965"><ele>689.0</ele><time>2026-04-16T09:44:53.72Z</time></trkpt><trkpt lat="43.4225947" lon="12.5224109"><ele>689.0</ele><time>2026-04-16T09:44:54.718Z</time></trkpt><trkpt lat="43.4224735" lon="12.5223307"><ele>689.0</ele><time>2026-04-16T09:44:56.721Z</time></trkpt><trkpt lat="43.4224249" lon="12.5224184"><ele>689.0</ele><time>2026-04-16T09:44:58.72Z</time></trkpt><trkpt lat="43.4224309" lon="12.5225641"><ele>689.0</ele><time>2026-04-16T09:45:00.719Z</time></trkpt><trkpt lat="43.422476" lon="12.5226582"><ele>689.0</ele><time>2026-04-16T09:45:01.721Z</time></trkpt><trkpt lat="43.4225016" lon="12.5227695"><ele>689.0</ele><time>2026-04-16T09:45:02.72Z</time></trkpt><trkpt lat="43.4225363" lon="12.522938"><ele>689.0</ele><time>2026-04-16T09:45:04.72Z</time></trkpt><trkpt lat="43.4224391" lon="12.5229577"><ele>689.0</ele><time>2026-04-16T09:45:06.721Z</time></trkpt><trkpt lat="43.4223683" lon="12.5229144"><ele>689.0</ele><time>2026-04-16T09:45:07.72Z</time></trkpt><trkpt lat="43.4222914" lon="12.522865"><ele>689.0</ele><time>2026-04-16T09:45:08.721Z</time></trkpt><trkpt lat="43.422198" lon="12.5227764"><ele>689.0</ele><time>2026-04-16T09:45:09.72Z</time></trkpt><trkpt lat="43.4221047" lon="12.5226968"><ele>689.0</ele><time>2026-04-16T09:45:10.721Z</time></trkpt><trkpt lat="43.4220146" lon="12.5226106"><ele>689.0</ele><time>2026-04-16T09:45:11.721Z</time></trkpt><trkpt lat="43.4219486" lon="12.5225134"><ele>689.0</ele><time>2026-04-16T09:45:12.72Z</time></trkpt><trkpt lat="43.4219243" lon="12.522418"><ele>692.4000000000001</ele><time>2026-04-16T09:45:13.721Z</time></trkpt><trkpt lat="43.4219025" lon="12.5222964"><ele>695.8</ele><time>2026-04-16T09:45:14.721Z</time></trkpt><trkpt lat="43.4218941" lon="12.5221609"><ele>699.2</ele><time>2026-04-16T09:45:15.721Z</time></trkpt><trkpt lat="43.421888" lon="12.522028"><ele>702.5999999999999</ele><time>2026-04-16T09:45:16.721Z</time></trkpt><trkpt lat="43.4218954" lon="12.5218906"><ele>706.0</ele><time>2026-04-16T09:45:17.721Z</time></trkpt><trkpt lat="43.4218761" lon="12.5217691"><ele>706.0</ele><time>2026-04-16T09:45:18.721Z</time></trkpt><trkpt lat="43.4218504" lon="12.5216395"><ele>706.0</ele><time>2026-04-16T09:45:19.72Z</time></trkpt><trkpt lat="43.4218092" lon="12.5215053"><ele>706.0</ele><time>2026-04-16T09:45:20.721Z</time></trkpt><trkpt lat="43.4217526" lon="12.521405"><ele>706.0</ele><time>2026-04-16T09:45:21.72Z</time></trkpt><trkpt lat="43.4217107" lon="12.5213266"><ele>706.0</ele><time>2026-04-16T09:45:22.72Z</time></trkpt><trkpt lat="43.4216444" lon="12.5212882"><ele>706.0</ele><time>2026-04-16T09:45:23.719Z</time></trkpt><trkpt lat="43.4215768" lon="12.5212687"><ele>706.0</ele><time>2026-04-16T09:45:24.72Z</time></trkpt><trkpt lat="43.4215073" lon="12.5212471"><ele>706.0</ele><time>2026-04-16T09:45:25.72Z</time></trkpt><trkpt lat="43.4214209" lon="12.5212427"><ele>706.0</ele><time>2026-04-16T09:45:26.719Z</time></trkpt><trkpt lat="43.4213314" lon="12.5212485"><ele>706.0</ele><time>2026-04-16T09:45:27.72Z</time></trkpt><trkpt lat="43.4212245" lon="12.5212894"><ele>706.0</ele><time>2026-04-16T09:45:28.72Z</time></trkpt><trkpt lat="43.421131" lon="12.521311"><ele>706.5999999999999</ele><time>2026-04-16T09:45:29.72Z</time></trkpt><trkpt lat="43.4210286" lon="12.5213344"><ele>707.2</ele><time>2026-04-16T09:45:30.72Z</time></trkpt><trkpt lat="43.4209276" lon="12.5213396"><ele>707.8</ele><time>2026-04-16T09:45:31.72Z</time></trkpt><trkpt lat="43.4208325" lon="12.5213255"><ele>708.4000000000001</ele><time>2026-04-16T09:45:32.72Z</time></trkpt><trkpt lat="43.4207475" lon="12.5212594"><ele>709.0</ele><time>2026-04-16T09:45:33.719Z</time></trkpt><trkpt lat="43.4206628" lon="12.5211959"><ele>709.0</ele><time>2026-04-16T09:45:34.72Z</time></trkpt><trkpt lat="43.420633" lon="12.5210988"><ele>709.0</ele><time>2026-04-16T09:45:35.721Z</time></trkpt><trkpt lat="43.4205777" lon="12.5210055"><ele>709.0</ele><time>2026-04-16T09:45:36.721Z</time></trkpt><trkpt lat="43.4205932" lon="12.5208749"><ele>709.0</ele><time>2026-04-16T09:45:37.72Z</time></trkpt><trkpt lat="43.4205864" lon="12.5207585"><ele>709.0</ele><time>2026-04-16T09:45:38.72Z</time></trkpt><trkpt lat="43.4206069" lon="12.5206461"><ele>709.0</ele><time>2026-04-16T09:45:39.719Z</time></trkpt><trkpt lat="43.4205851" lon="12.5205514"><ele>709.0</ele><time>2026-04-16T09:45:40.72Z</time></trkpt><trkpt lat="43.4205215" lon="12.5204108"><ele>709.0</ele><time>2026-04-16T09:45:42.72Z</time></trkpt><trkpt lat="43.4204574" lon="12.5203845"><ele>709.0</ele><time>2026-04-16T09:45:43.72Z</time></trkpt><trkpt lat="43.4203723" lon="12.5203649"><ele>709.0</ele><time>2026-04-16T09:45:44.719Z</time></trkpt><trkpt lat="43.4202932" lon="12.5203184"><ele>709.0</ele><time>2026-04-16T09:45:45.72Z</time></trkpt><trkpt lat="43.4202427" lon="12.5202025"><ele>712.1666666666667</ele><time>2026-04-16T09:45:46.72Z</time></trkpt><trkpt lat="43.4201882" lon="12.5201244"><ele>715.3333333333334</ele><time>2026-04-16T09:45:47.719Z</time></trkpt><trkpt lat="43.4201379" lon="12.5200057"><ele>718.5</ele><time>2026-04-16T09:45:48.72Z</time></trkpt><trkpt lat="43.4200874" lon="12.519931"><ele>721.6666666666666</ele><time>2026-04-16T09:45:49.72Z</time></trkpt><trkpt lat="43.4200334" lon="12.5198814"><ele>724.8333333333333</ele><time>2026-04-16T09:45:50.719Z</time></trkpt><trkpt lat="43.4199042" lon="12.5198615"><ele>728.0</ele><time>2026-04-16T09:45:52.72Z</time></trkpt><trkpt lat="43.4198367" lon="12.5198616"><ele>728.0</ele><time>2026-04-16T09:45:53.719Z</time></trkpt><trkpt lat="43.4197454" lon="12.5198652"><ele>728.0</ele><time>2026-04-16T09:45:54.72Z</time></trkpt><trkpt lat="43.4196711" lon="12.5198321"><ele>728.0</ele><time>2026-04-16T09:45:55.72Z</time></trkpt><trkpt lat="43.4196058" lon="12.519775"><ele>728.0</ele><time>2026-04-16T09:45:56.719Z</time></trkpt><trkpt lat="43.4195478" lon="12.5197321"><ele>728.0</ele><time>2026-04-16T09:45:57.72Z</time></trkpt><trkpt lat="43.4195604" lon="12.5195926"><ele>728.0</ele><time>2026-04-16T09:45:59.72Z</time></trkpt><trkpt lat="43.4195638" lon="12.5193733"><ele>730.8333333333333</ele><time>2026-04-16T09:46:01.72Z</time></trkpt><trkpt lat="43.4195878" lon="12.5192337"><ele>733.6666666666666</ele><time>2026-04-16T09:46:02.72Z</time></trkpt><trkpt lat="43.4196068" lon="12.5191021"><ele>736.5</ele><time>2026-04-16T09:46:03.72Z</time></trkpt><trkpt lat="43.4196338" lon="12.5189957"><ele>739.3333333333334</ele><time>2026-04-16T09:46:04.719Z</time></trkpt><trkpt lat="43.419641" lon="12.518893"><ele>742.1666666666667</ele><time>2026-04-16T09:46:05.72Z</time></trkpt><trkpt lat="43.4196422" lon="12.5188001"><ele>745.0</ele><time>2026-04-16T09:46:06.72Z</time></trkpt><trkpt lat="43.4196284" lon="12.518683"><ele>745.0</ele><time>2026-04-16T09:46:07.719Z</time></trkpt><trkpt lat="43.4196047" lon="12.5185758"><ele>745.0</ele><time>2026-04-16T09:46:08.719Z</time></trkpt><trkpt lat="43.419576" lon="12.5184399"><ele>745.0</ele><time>2026-04-16T09:46:09.72Z</time></trkpt><trkpt lat="43.4195404" lon="12.5182929"><ele>745.0</ele><time>2026-04-16T09:46:10.72Z</time></trkpt><trkpt lat="43.4195132" lon="12.5181568"><ele>745.0</ele><time>2026-04-16T09:46:11.72Z</time></trkpt><trkpt lat="43.4194852" lon="12.518001"><ele>744.2</ele><time>2026-04-16T09:46:12.72Z</time></trkpt><trkpt lat="43.4194449" lon="12.517876"><ele>743.4</ele><time>2026-04-16T09:46:13.72Z</time></trkpt><trkpt lat="43.4194027" lon="12.5177633"><ele>742.5999999999999</ele><time>2026-04-16T09:46:14.72Z</time></trkpt><trkpt lat="43.419356" lon="12.517655"><ele>741.8</ele><time>2026-04-16T09:46:15.72Z</time></trkpt><trkpt lat="43.4192937" lon="12.5175539"><ele>741.0</ele><time>2026-04-16T09:46:16.72Z</time></trkpt><trkpt lat="43.4192086" lon="12.5174993"><ele>741.0</ele><time>2026-04-16T09:46:17.719Z</time></trkpt><trkpt lat="43.4191349" lon="12.5174367"><ele>741.0</ele><time>2026-04-16T09:46:18.72Z</time></trkpt><trkpt lat="43.4190588" lon="12.5173982"><ele>741.0</ele><time>2026-04-16T09:46:19.719Z</time></trkpt><trkpt lat="43.4189867" lon="12.5173815"><ele>741.0</ele><time>2026-04-16T09:46:20.72Z</time></trkpt><trkpt lat="43.4188658" lon="12.5174209"><ele>741.0</ele><time>2026-04-16T09:46:22.72Z</time></trkpt><trkpt lat="43.4187574" lon="12.5175345"><ele>741.1666666666666</ele><time>2026-04-16T09:46:24.722Z</time></trkpt><trkpt lat="43.4187083" lon="12.5176208"><ele>741.3333333333334</ele><time>2026-04-16T09:46:25.72Z</time></trkpt><trkpt lat="43.4186695" lon="12.5177014"><ele>741.5</ele><time>2026-04-16T09:46:26.72Z</time></trkpt><trkpt lat="43.4186261" lon="12.5177717"><ele>741.6666666666667</ele><time>2026-04-16T09:46:27.721Z</time></trkpt><trkpt lat="43.4185848" lon="12.5178436"><ele>741.8333333333334</ele><time>2026-04-16T09:46:28.72Z</time></trkpt><trkpt lat="43.4185076" lon="12.5179676"><ele>742.0</ele><time>2026-04-16T09:46:30.72Z</time></trkpt><trkpt lat="43.4184317" lon="12.5180613"><ele>743.5714285714286</ele><time>2026-04-16T09:46:32.72Z</time></trkpt><trkpt lat="43.4183584" lon="12.5181359"><ele>745.1428571428571</ele><time>2026-04-16T09:46:34.72Z</time></trkpt><trkpt lat="43.4183009" lon="12.5181915"><ele>746.7142857142858</ele><time>2026-04-16T09:46:36.719Z</time></trkpt><trkpt lat="43.4183531" lon="12.5182638"><ele>748.2857142857142</ele><time>2026-04-16T09:46:54.72Z</time></trkpt><trkpt lat="43.4183628" lon="12.5181658"><ele>749.8571428571429</ele><time>2026-04-16T09:51:02.72Z</time></trkpt><trkpt lat="43.4184148" lon="12.5181123"><ele>751.4285714285714</ele><time>2026-04-16T09:51:07.72Z</time></trkpt><trkpt lat="43.4184613" lon="12.5180526"><ele>753.0</ele><time>2026-04-16T09:51:12.719Z</time></trkpt><trkpt lat="43.4185164" lon="12.517985"><ele>753.0</ele><time>2026-04-16T09:51:18.665Z</time></trkpt><trkpt lat="43.4185537" lon="12.5179018"><ele>753.0</ele><time>2026-04-16T09:51:24.698Z</time></trkpt><trkpt lat="43.4185814" lon="12.517817"><ele>753.0</ele><time>2026-04-16T09:52:02.639Z</time></trkpt><trkpt lat="43.4186089" lon="12.5177376"><ele>753.0</ele><time>2026-04-16T09:54:03.719Z</time></trkpt><trkpt lat="43.4186027" lon="12.5178239"><ele>753.0</ele><time>2026-04-16T09:55:03.72Z</time></trkpt><trkpt lat="43.41856" lon="12.5178945"><ele>753.0</ele><time>2026-04-16T09:56:01.743Z</time></trkpt><trkpt lat="43.4185109" lon="12.5179577"><ele>753.0</ele><time>2026-04-16T09:56:10.741Z</time></trkpt><trkpt lat="43.4184891" lon="12.5180491"><ele>753.0</ele><time>2026-04-16T09:56:19.718Z</time></trkpt><trkpt lat="43.4184427" lon="12.5181159"><ele>753.0</ele><time>2026-04-16T09:56:28.72Z</time></trkpt><trkpt lat="43.4183939" lon="12.5181808"><ele>753.0</ele><time>2026-04-16T09:56:35.719Z</time></trkpt><trkpt lat="43.4183601" lon="12.5182566"><ele>753.0</ele><time>2026-04-16T09:56:45.72Z</time></trkpt><trkpt lat="43.418383" lon="12.5181623"><ele>753.0</ele><time>2026-04-16T10:00:35.718Z</time></trkpt><trkpt lat="43.4183188" lon="12.5181668"><ele>753.0</ele><time>2026-04-16T10:04:32.718Z</time></trkpt><trkpt lat="43.4182416" lon="12.5182218"><ele>753.0</ele><time>2026-04-16T10:04:35.717Z</time></trkpt><trkpt lat="43.418174" lon="12.5182548"><ele>753.0</ele><time>2026-04-16T10:04:37.717Z</time></trkpt><trkpt lat="43.4181046" lon="12.5182657"><ele>753.0</ele><time>2026-04-16T10:04:39.718Z</time></trkpt><trkpt lat="43.41804" lon="12.5182651"><ele>753.0</ele><time>2026-04-16T10:04:41.717Z</time></trkpt><trkpt lat="43.4179535" lon="12.5182417"><ele>753.0</ele><time>2026-04-16T10:04:43.717Z</time></trkpt><trkpt lat="43.4178479" lon="12.5181842"><ele>753.0</ele><time>2026-04-16T10:04:45.718Z</time></trkpt><trkpt lat="43.4177413" lon="12.5180925"><ele>751.0</ele><time>2026-04-16T10:04:47.718Z</time></trkpt><trkpt lat="43.4176832" lon="12.5180569"><ele>749.0</ele><time>2026-04-16T10:04:48.718Z</time></trkpt><trkpt lat="43.4175836" lon="12.517989"><ele>747.0</ele><time>2026-04-16T10:04:50.718Z</time></trkpt><trkpt lat="43.417514" lon="12.517974"><ele>745.0</ele><time>2026-04-16T10:04:52.718Z</time></trkpt><trkpt lat="43.4174611" lon="12.5180524"><ele>743.0</ele><time>2026-04-16T10:04:55.718Z</time></trkpt><trkpt lat="43.4174922" lon="12.5181805"><ele>741.0</ele><time>2026-04-16T10:04:57.718Z</time></trkpt><trkpt lat="43.4175523" lon="12.5183383"><ele>741.0</ele><time>2026-04-16T10:04:59.718Z</time></trkpt><trkpt lat="43.4175745" lon="12.518449"><ele>741.0</ele><time>2026-04-16T10:05:00.717Z</time></trkpt><trkpt lat="43.4175894" lon="12.5185818"><ele>741.0</ele><time>2026-04-16T10:05:01.718Z</time></trkpt><trkpt lat="43.4176001" lon="12.5187169"><ele>741.0</ele><time>2026-04-16T10:05:02.718Z</time></trkpt><trkpt lat="43.4176136" lon="12.5188645"><ele>741.0</ele><time>2026-04-16T10:05:03.718Z</time></trkpt><trkpt lat="43.4176282" lon="12.5190105"><ele>741.0</ele><time>2026-04-16T10:05:04.718Z</time></trkpt><trkpt lat="43.4176424" lon="12.5191616"><ele>741.0</ele><time>2026-04-16T10:05:05.717Z</time></trkpt><trkpt lat="43.4176511" lon="12.5193102"><ele>741.0</ele><time>2026-04-16T10:05:06.718Z</time></trkpt><trkpt lat="43.4176564" lon="12.519453"><ele>741.0</ele><time>2026-04-16T10:05:07.718Z</time></trkpt><trkpt lat="43.4176578" lon="12.5195953"><ele>741.0</ele><time>2026-04-16T10:05:08.717Z</time></trkpt><trkpt lat="43.4176766" lon="12.5197284"><ele>741.0</ele><time>2026-04-16T10:05:09.718Z</time></trkpt><trkpt lat="43.4177071" lon="12.5198664"><ele>741.0</ele><time>2026-04-16T10:05:10.718Z</time></trkpt><trkpt lat="43.4177655" lon="12.519991"><ele>741.0</ele><time>2026-04-16T10:05:11.718Z</time></trkpt><trkpt lat="43.4178455" lon="12.5200975"><ele>741.0</ele><time>2026-04-16T10:05:12.717Z</time></trkpt><trkpt lat="43.4179471" lon="12.5201929"><ele>741.0</ele><time>2026-04-16T10:05:13.717Z</time></trkpt><trkpt lat="43.4180566" lon="12.5203077"><ele>743.75</ele><time>2026-04-16T10:05:14.716Z</time></trkpt><trkpt lat="43.418153" lon="12.5204304"><ele>746.5</ele><time>2026-04-16T10:05:15.717Z</time></trkpt><trkpt lat="43.4182527" lon="12.5205638"><ele>749.25</ele><time>2026-04-16T10:05:16.718Z</time></trkpt><trkpt lat="43.4183571" lon="12.5207048"><ele>752.0</ele><time>2026-04-16T10:05:17.718Z</time></trkpt><trkpt lat="43.4184606" lon="12.5208626"><ele>752.0</ele><time>2026-04-16T10:05:18.717Z</time></trkpt><trkpt lat="43.4185614" lon="12.5210252"><ele>752.0</ele><time>2026-04-16T10:05:19.718Z</time></trkpt><trkpt lat="43.4186478" lon="12.5212024"><ele>752.0</ele><time>2026-04-16T10:05:20.718Z</time></trkpt><trkpt lat="43.418723" lon="12.5213835"><ele>750.25</ele><time>2026-04-16T10:05:21.717Z</time></trkpt><trkpt lat="43.4187686" lon="12.521579"><ele>748.5</ele><time>2026-04-16T10:05:22.718Z</time></trkpt><trkpt lat="43.4188019" lon="12.5217734"><ele>746.75</ele><time>2026-04-16T10:05:23.718Z</time></trkpt><trkpt lat="43.4188493" lon="12.521955"><ele>745.0</ele><time>2026-04-16T10:05:24.718Z</time></trkpt><trkpt lat="43.4188991" lon="12.5221358"><ele>754.0</ele><time>2026-04-16T10:05:25.717Z</time></trkpt><trkpt lat="43.4189568" lon="12.5222969"><ele>763.0</ele><time>2026-04-16T10:05:26.718Z</time></trkpt><trkpt lat="43.4190287" lon="12.5224403"><ele>772.0</ele><time>2026-04-16T10:05:27.718Z</time></trkpt><trkpt lat="43.4191254" lon="12.5225677"><ele>781.0</ele><time>2026-04-16T10:05:28.718Z</time></trkpt><trkpt lat="43.4192407" lon="12.5226698"><ele>781.0</ele><time>2026-04-16T10:05:29.718Z</time></trkpt><trkpt lat="43.4193685" lon="12.5227653"><ele>781.0</ele><time>2026-04-16T10:05:30.718Z</time></trkpt><trkpt lat="43.4194948" lon="12.5228509"><ele>781.0</ele><time>2026-04-16T10:05:31.718Z</time></trkpt><trkpt lat="43.4196095" lon="12.5229553"><ele>781.0</ele><time>2026-04-16T10:05:32.718Z</time></trkpt><trkpt lat="43.4196931" lon="12.5230789"><ele>781.4</ele><time>2026-04-16T10:05:33.717Z</time></trkpt><trkpt lat="43.419737" lon="12.5231918"><ele>781.8</ele><time>2026-04-16T10:05:34.718Z</time></trkpt><trkpt lat="43.4198173" lon="12.5232749"><ele>782.1999999999999</ele><time>2026-04-16T10:05:35.718Z</time></trkpt><trkpt lat="43.4199102" lon="12.5233321"><ele>782.5999999999999</ele><time>2026-04-16T10:05:36.717Z</time></trkpt><trkpt lat="43.4200139" lon="12.5233756"><ele>783.0</ele><time>2026-04-16T10:05:37.718Z</time></trkpt><trkpt lat="43.4201207" lon="12.5234168"><ele>783.0</ele><time>2026-04-16T10:05:38.718Z</time></trkpt><trkpt lat="43.420239" lon="12.5234682"><ele>783.0</ele><time>2026-04-16T10:05:39.718Z</time></trkpt><trkpt lat="43.4203613" lon="12.5235326"><ele>783.0</ele><time>2026-04-16T10:05:40.718Z</time></trkpt><trkpt lat="43.4204893" lon="12.5236126"><ele>783.0</ele><time>2026-04-16T10:05:41.717Z</time></trkpt><trkpt lat="43.4206078" lon="12.5237177"><ele>780.5</ele><time>2026-04-16T10:05:42.718Z</time></trkpt><trkpt lat="43.420724" lon="12.5238437"><ele>778.0</ele><time>2026-04-16T10:05:43.717Z</time></trkpt><trkpt lat="43.4208399" lon="12.5239709"><ele>775.5</ele><time>2026-04-16T10:05:44.718Z</time></trkpt><trkpt lat="43.4209233" lon="12.5241428"><ele>773.0</ele><time>2026-04-16T10:05:45.718Z</time></trkpt><trkpt lat="43.420992" lon="12.5243039"><ele>773.0</ele><time>2026-04-16T10:05:46.718Z</time></trkpt><trkpt lat="43.4210274" lon="12.5244655"><ele>773.0</ele><time>2026-04-16T10:05:47.718Z</time></trkpt><trkpt lat="43.4210311" lon="12.5246289"><ele>773.0</ele><time>2026-04-16T10:05:48.718Z</time></trkpt><trkpt lat="43.421006" lon="12.5247943"><ele>773.0</ele><time>2026-04-16T10:05:49.718Z</time></trkpt><trkpt lat="43.4209654" lon="12.5249695"><ele>774.0</ele><time>2026-04-16T10:05:50.718Z</time></trkpt><trkpt lat="43.420915" lon="12.5251417"><ele>775.0</ele><time>2026-04-16T10:05:51.718Z</time></trkpt><trkpt lat="43.4208652" lon="12.5252958"><ele>776.0</ele><time>2026-04-16T10:05:52.718Z</time></trkpt><trkpt lat="43.4208437" lon="12.5254372"><ele>777.0</ele><time>2026-04-16T10:05:53.718Z</time></trkpt><trkpt lat="43.420868" lon="12.5255746"><ele>777.0</ele><time>2026-04-16T10:05:54.718Z</time></trkpt><trkpt lat="43.4209251" lon="12.5256996"><ele>777.0</ele><time>2026-04-16T10:05:55.718Z</time></trkpt><trkpt lat="43.4209971" lon="12.5258178"><ele>777.0</ele><time>2026-04-16T10:05:56.718Z</time></trkpt><trkpt lat="43.4210661" lon="12.5259452"><ele>777.0</ele><time>2026-04-16T10:05:57.718Z</time></trkpt><trkpt lat="43.4210996" lon="12.5261227"><ele>776.75</ele><time>2026-04-16T10:05:58.717Z</time></trkpt><trkpt lat="43.4211037" lon="12.5262868"><ele>776.5</ele><time>2026-04-16T10:05:59.719Z</time></trkpt><trkpt lat="43.4210621" lon="12.5264676"><ele>776.25</ele><time>2026-04-16T10:06:00.718Z</time></trkpt><trkpt lat="43.4210189" lon="12.5266224"><ele>776.0</ele><time>2026-04-16T10:06:01.718Z</time></trkpt><trkpt lat="43.4209569" lon="12.5267974"><ele>776.0</ele><time>2026-04-16T10:06:02.718Z</time></trkpt><trkpt lat="43.4209281" lon="12.5269714"><ele>776.0</ele><time>2026-04-16T10:06:03.718Z</time></trkpt><trkpt lat="43.4209096" lon="12.5271305"><ele>776.0</ele><time>2026-04-16T10:06:04.717Z</time></trkpt><trkpt lat="43.4208794" lon="12.5272926"><ele>776.0</ele><time>2026-04-16T10:06:05.718Z</time></trkpt><trkpt lat="43.420831" lon="12.5274147"><ele>776.1999999999999</ele><time>2026-04-16T10:06:06.717Z</time></trkpt><trkpt lat="43.4208302" lon="12.5275553"><ele>776.4</ele><time>2026-04-16T10:06:07.717Z</time></trkpt><trkpt lat="43.4208654" lon="12.5276769"><ele>776.6</ele><time>2026-04-16T10:06:08.718Z</time></trkpt><trkpt lat="43.4209314" lon="12.5277746"><ele>776.8</ele><time>2026-04-16T10:06:09.717Z</time></trkpt><trkpt lat="43.4210041" lon="12.5278586"><ele>777.0</ele><time>2026-04-16T10:06:10.718Z</time></trkpt><trkpt lat="43.4210754" lon="12.5279629"><ele>776.4000000000001</ele><time>2026-04-16T10:06:11.718Z</time></trkpt><trkpt lat="43.4211427" lon="12.52807"><ele>775.8000000000001</ele><time>2026-04-16T10:06:12.718Z</time></trkpt><trkpt lat="43.4212157" lon="12.5281704"><ele>775.2</ele><time>2026-04-16T10:06:13.717Z</time></trkpt><trkpt lat="43.4213068" lon="12.5282583"><ele>774.6</ele><time>2026-04-16T10:06:14.717Z</time></trkpt><trkpt lat="43.4213963" lon="12.5283503"><ele>774.0</ele><time>2026-04-16T10:06:15.717Z</time></trkpt><trkpt lat="43.4215172" lon="12.5284633"><ele>774.0</ele><time>2026-04-16T10:06:16.718Z</time></trkpt><trkpt lat="43.4216261" lon="12.5285646"><ele>774.0</ele><time>2026-04-16T10:06:17.719Z</time></trkpt><trkpt lat="43.4217372" lon="12.5286987"><ele>774.0</ele><time>2026-04-16T10:06:18.719Z</time></trkpt><trkpt lat="43.4218558" lon="12.5288221"><ele>774.0</ele><time>2026-04-16T10:06:19.717Z</time></trkpt><trkpt lat="43.4219667" lon="12.5289406"><ele>777.5</ele><time>2026-04-16T10:06:20.718Z</time></trkpt><trkpt lat="43.422081" lon="12.5290737"><ele>781.0</ele><time>2026-04-16T10:06:21.718Z</time></trkpt><trkpt lat="43.4221902" lon="12.5292003"><ele>784.5</ele><time>2026-04-16T10:06:22.718Z</time></trkpt><trkpt lat="43.4223009" lon="12.5292927"><ele>788.0</ele><time>2026-04-16T10:06:23.719Z</time></trkpt><trkpt lat="43.4224325" lon="12.5293162"><ele>788.0</ele><time>2026-04-16T10:06:24.72Z</time></trkpt><trkpt lat="43.422536" lon="12.5292946"><ele>788.0</ele><time>2026-04-16T10:06:25.718Z</time></trkpt><trkpt lat="43.4226163" lon="12.5291859"><ele>788.0</ele><time>2026-04-16T10:06:26.718Z</time></trkpt><trkpt lat="43.4227093" lon="12.5291003"><ele>788.0</ele><time>2026-04-16T10:06:27.718Z</time></trkpt><trkpt lat="43.4227897" lon="12.5290098"><ele>788.0</ele><time>2026-04-16T10:06:28.72Z</time></trkpt><trkpt lat="43.4228639" lon="12.5288812"><ele>788.0</ele><time>2026-04-16T10:06:29.718Z</time></trkpt><trkpt lat="43.4229601" lon="12.5288122"><ele>788.0</ele><time>2026-04-16T10:06:30.716Z</time></trkpt><trkpt lat="43.4230517" lon="12.528731"><ele>788.0</ele><time>2026-04-16T10:06:31.718Z</time></trkpt><trkpt lat="43.4231143" lon="12.5288377"><ele>788.0</ele><time>2026-04-16T10:06:32.718Z</time></trkpt><trkpt lat="43.4231922" lon="12.5289046"><ele>788.0</ele><time>2026-04-16T10:06:33.718Z</time></trkpt><trkpt lat="43.4232411" lon="12.5290667"><ele>787.5</ele><time>2026-04-16T10:06:34.72Z</time></trkpt><trkpt lat="43.423307" lon="12.529218"><ele>787.0</ele><time>2026-04-16T10:06:35.718Z</time></trkpt><trkpt lat="43.4233823" lon="12.5293879"><ele>786.5</ele><time>2026-04-16T10:06:36.719Z</time></trkpt><trkpt lat="43.4234758" lon="12.5295409"><ele>786.0</ele><time>2026-04-16T10:06:37.718Z</time></trkpt><trkpt lat="43.4235658" lon="12.5297051"><ele>789.5</ele><time>2026-04-16T10:06:38.717Z</time></trkpt><trkpt lat="43.4236431" lon="12.5298632"><ele>793.0</ele><time>2026-04-16T10:06:39.719Z</time></trkpt><trkpt lat="43.4237356" lon="12.5299349"><ele>796.5</ele><time>2026-04-16T10:06:40.719Z</time></trkpt><trkpt lat="43.4238491" lon="12.5300351"><ele>800.0</ele><time>2026-04-16T10:06:41.718Z</time></trkpt><trkpt lat="43.423978" lon="12.5300657"><ele>800.0</ele><time>2026-04-16T10:06:42.719Z</time></trkpt><trkpt lat="43.4241016" lon="12.5301129"><ele>800.0</ele><time>2026-04-16T10:06:43.718Z</time></trkpt><trkpt lat="43.4242519" lon="12.5299865"><ele>800.0</ele><time>2026-04-16T10:06:44.719Z</time></trkpt><trkpt lat="43.4243834" lon="12.5299358"><ele>800.0</ele><time>2026-04-16T10:06:45.719Z</time></trkpt><trkpt lat="43.424537" lon="12.5298795"><ele>799.5</ele><time>2026-04-16T10:06:46.72Z</time></trkpt><trkpt lat="43.4246725" lon="12.5298392"><ele>799.0</ele><time>2026-04-16T10:06:47.718Z</time></trkpt><trkpt lat="43.4247891" lon="12.5297188"><ele>798.5</ele><time>2026-04-16T10:06:48.719Z</time></trkpt><trkpt lat="43.4249104" lon="12.5296088"><ele>798.0</ele><time>2026-04-16T10:06:49.718Z</time></trkpt><trkpt lat="43.4250289" lon="12.5294942"><ele>798.0</ele><time>2026-04-16T10:06:50.719Z</time></trkpt><trkpt lat="43.4250938" lon="12.5293257"><ele>798.0</ele><time>2026-04-16T10:06:51.72Z</time></trkpt><trkpt lat="43.4251628" lon="12.5291599"><ele>798.0</ele><time>2026-04-16T10:06:52.718Z</time></trkpt><trkpt lat="43.4252067" lon="12.5289875"><ele>798.0</ele><time>2026-04-16T10:06:53.718Z</time></trkpt><trkpt lat="43.4252088" lon="12.5288138"><ele>797.25</ele><time>2026-04-16T10:06:54.718Z</time></trkpt><trkpt lat="43.4251821" lon="12.5286377"><ele>796.5</ele><time>2026-04-16T10:06:55.718Z</time></trkpt><trkpt lat="43.4251327" lon="12.5284716"><ele>795.75</ele><time>2026-04-16T10:06:56.718Z</time></trkpt><trkpt lat="43.4250497" lon="12.5283184"><ele>795.0</ele><time>2026-04-16T10:06:57.718Z</time></trkpt><trkpt lat="43.4249631" lon="12.5281855"><ele>795.0</ele><time>2026-04-16T10:06:58.718Z</time></trkpt><trkpt lat="43.4248649" lon="12.5280579"><ele>795.0</ele><time>2026-04-16T10:06:59.718Z</time></trkpt><trkpt lat="43.4248005" lon="12.5279615"><ele>795.0</ele><time>2026-04-16T10:07:00.719Z</time></trkpt><trkpt lat="43.4247673" lon="12.5278449"><ele>795.0</ele><time>2026-04-16T10:07:01.719Z</time></trkpt><trkpt lat="43.4247468" lon="12.5277101"><ele>795.0</ele><time>2026-04-16T10:07:02.719Z</time></trkpt><trkpt lat="43.4247442" lon="12.5275733"><ele>794.0</ele><time>2026-04-16T10:07:03.718Z</time></trkpt><trkpt lat="43.4247462" lon="12.5274412"><ele>793.0</ele><time>2026-04-16T10:07:04.719Z</time></trkpt><trkpt lat="43.4248451" lon="12.5273097"><ele>792.0</ele><time>2026-04-16T10:07:05.72Z</time></trkpt><trkpt lat="43.4248901" lon="12.5271779"><ele>791.0</ele><time>2026-04-16T10:07:06.719Z</time></trkpt><trkpt lat="43.4249595" lon="12.5270305"><ele>788.25</ele><time>2026-04-16T10:07:07.719Z</time></trkpt><trkpt lat="43.4250234" lon="12.5268819"><ele>785.5</ele><time>2026-04-16T10:07:08.718Z</time></trkpt><trkpt lat="43.425094" lon="12.5267336"><ele>782.75</ele><time>2026-04-16T10:07:09.719Z</time></trkpt><trkpt lat="43.4251747" lon="12.5265852"><ele>780.0</ele><time>2026-04-16T10:07:10.718Z</time></trkpt><trkpt lat="43.4252675" lon="12.5264418"><ele>780.0</ele><time>2026-04-16T10:07:11.719Z</time></trkpt><trkpt lat="43.4253571" lon="12.5262938"><ele>780.0</ele><time>2026-04-16T10:07:12.719Z</time></trkpt><trkpt lat="43.4255037" lon="12.5261176"><ele>780.0</ele><time>2026-04-16T10:07:13.72Z</time></trkpt><trkpt lat="43.4256282" lon="12.5259362"><ele>779.6666666666667</ele><time>2026-04-16T10:07:14.719Z</time></trkpt><trkpt lat="43.4257432" lon="12.5257657"><ele>779.3333333333334</ele><time>2026-04-16T10:07:15.717Z</time></trkpt><trkpt lat="43.4258477" lon="12.5255672"><ele>779.0</ele><time>2026-04-16T10:07:16.72Z</time></trkpt><trkpt lat="43.4259691" lon="12.5253757"><ele>778.6666666666667</ele><time>2026-04-16T10:07:17.719Z</time></trkpt><trkpt lat="43.4260971" lon="12.5251962"><ele>778.3333333333333</ele><time>2026-04-16T10:07:18.718Z</time></trkpt><trkpt lat="43.4262316" lon="12.5250236"><ele>778.0</ele><time>2026-04-16T10:07:19.719Z</time></trkpt><trkpt lat="43.4263676" lon="12.5248577"><ele>778.0</ele><time>2026-04-16T10:07:20.717Z</time></trkpt><trkpt lat="43.4265025" lon="12.5246853"><ele>778.0</ele><time>2026-04-16T10:07:21.719Z</time></trkpt><trkpt lat="43.426621" lon="12.5245191"><ele>778.0</ele><time>2026-04-16T10:07:22.718Z</time></trkpt><trkpt lat="43.4267293" lon="12.5243554"><ele>780.5</ele><time>2026-04-16T10:07:23.719Z</time></trkpt><trkpt lat="43.4268096" lon="12.5241951"><ele>783.0</ele><time>2026-04-16T10:07:24.719Z</time></trkpt><trkpt lat="43.426887" lon="12.52403"><ele>785.5</ele><time>2026-04-16T10:07:25.718Z</time></trkpt><trkpt lat="43.4269668" lon="12.5239286"><ele>788.0</ele><time>2026-04-16T10:07:26.719Z</time></trkpt><trkpt lat="43.4270642" lon="12.5238592"><ele>787.4</ele><time>2026-04-16T10:07:27.719Z</time></trkpt><trkpt lat="43.4271702" lon="12.5238271"><ele>786.8</ele><time>2026-04-16T10:07:28.719Z</time></trkpt><trkpt lat="43.4272733" lon="12.5238296"><ele>786.2</ele><time>2026-04-16T10:07:29.718Z</time></trkpt><trkpt lat="43.4273748" lon="12.5238627"><ele>785.6</ele><time>2026-04-16T10:07:30.718Z</time></trkpt><trkpt lat="43.4274667" lon="12.5239314"><ele>785.0</ele><time>2026-04-16T10:07:31.718Z</time></trkpt><trkpt lat="43.4275702" lon="12.5239397"><ele>785.0</ele><time>2026-04-16T10:07:32.716Z</time></trkpt><trkpt lat="43.4276823" lon="12.5239572"><ele>785.0</ele><time>2026-04-16T10:07:33.718Z</time></trkpt><trkpt lat="43.4277866" lon="12.5239557"><ele>785.0</ele><time>2026-04-16T10:07:34.718Z</time></trkpt><trkpt lat="43.4279046" lon="12.5239605"><ele>785.0</ele><time>2026-04-16T10:07:35.718Z</time></trkpt><trkpt lat="43.4280083" lon="12.5239574"><ele>785.0</ele><time>2026-04-16T10:07:36.718Z</time></trkpt><trkpt lat="43.4281176" lon="12.5239364"><ele>785.0</ele><time>2026-04-16T10:07:37.719Z</time></trkpt><trkpt lat="43.4282114" lon="12.5239048"><ele>785.0</ele><time>2026-04-16T10:07:38.718Z</time></trkpt><trkpt lat="43.4282927" lon="12.5238374"><ele>785.0</ele><time>2026-04-16T10:07:39.717Z</time></trkpt><trkpt lat="43.4283594" lon="12.5237477"><ele>785.0</ele><time>2026-04-16T10:07:40.718Z</time></trkpt><trkpt lat="43.4284118" lon="12.5236329"><ele>785.0</ele><time>2026-04-16T10:07:41.717Z</time></trkpt><trkpt lat="43.4284483" lon="12.5235054"><ele>786.4</ele><time>2026-04-16T10:07:42.717Z</time></trkpt><trkpt lat="43.428475" lon="12.5233756"><ele>787.8</ele><time>2026-04-16T10:07:43.719Z</time></trkpt><trkpt lat="43.4285202" lon="12.5232601"><ele>789.2</ele><time>2026-04-16T10:07:44.719Z</time></trkpt><trkpt lat="43.4285756" lon="12.5231703"><ele>790.6</ele><time>2026-04-16T10:07:45.718Z</time></trkpt><trkpt lat="43.428644" lon="12.5231068"><ele>792.0</ele><time>2026-04-16T10:07:46.719Z</time></trkpt><trkpt lat="43.4287287" lon="12.5230528"><ele>790.5</ele><time>2026-04-16T10:07:47.717Z</time></trkpt><trkpt lat="43.42898" lon="12.5229662"><ele>789.0</ele><time>2026-04-16T10:07:50.719Z</time></trkpt><trkpt lat="43.4290715" lon="12.5229319"><ele>787.5</ele><time>2026-04-16T10:07:51.718Z</time></trkpt><trkpt lat="43.4291536" lon="12.5229132"><ele>786.0</ele><time>2026-04-16T10:07:52.718Z</time></trkpt><trkpt lat="43.429227" lon="12.5229379"><ele>786.0</ele><time>2026-04-16T10:07:53.719Z</time></trkpt><trkpt lat="43.4293171" lon="12.5229875"><ele>786.0</ele><time>2026-04-16T10:07:54.718Z</time></trkpt><trkpt lat="43.429396" lon="12.5230453"><ele>786.0</ele><time>2026-04-16T10:07:55.718Z</time></trkpt><trkpt lat="43.4294767" lon="12.5231446"><ele>786.0</ele><time>2026-04-16T10:07:56.719Z</time></trkpt><trkpt lat="43.4295513" lon="12.5232478"><ele>786.0</ele><time>2026-04-16T10:07:57.718Z</time></trkpt><trkpt lat="43.4296155" lon="12.5233528"><ele>785.8</ele><time>2026-04-16T10:07:58.718Z</time></trkpt><trkpt lat="43.4296956" lon="12.523456"><ele>785.5999999999999</ele><time>2026-04-16T10:07:59.718Z</time></trkpt><trkpt lat="43.4297583" lon="12.5235713"><ele>785.4</ele><time>2026-04-16T10:08:00.718Z</time></trkpt><trkpt lat="43.4298198" lon="12.5236784"><ele>785.2</ele><time>2026-04-16T10:08:01.718Z</time></trkpt><trkpt lat="43.429869" lon="12.5237487"><ele>785.0</ele><time>2026-04-16T10:08:02.719Z</time></trkpt><trkpt lat="43.4299307" lon="12.5238254"><ele>785.0</ele><time>2026-04-16T10:08:03.718Z</time></trkpt><trkpt lat="43.4299934" lon="12.5238617"><ele>785.0</ele><time>2026-04-16T10:08:04.719Z</time></trkpt><trkpt lat="43.430111" lon="12.5238711"><ele>785.0</ele><time>2026-04-16T10:08:06.719Z</time></trkpt><trkpt lat="43.4301974" lon="12.52375"><ele>785.0</ele><time>2026-04-16T10:08:08.717Z</time></trkpt><trkpt lat="43.4302392" lon="12.5236564"><ele>785.0</ele><time>2026-04-16T10:08:09.718Z</time></trkpt><trkpt lat="43.4302749" lon="12.5235532"><ele>784.6</ele><time>2026-04-16T10:08:10.717Z</time></trkpt><trkpt lat="43.4303117" lon="12.5234075"><ele>784.2</ele><time>2026-04-16T10:08:11.719Z</time></trkpt><trkpt lat="43.4303645" lon="12.5232841"><ele>783.8</ele><time>2026-04-16T10:08:12.719Z</time></trkpt><trkpt lat="43.4304187" lon="12.5231907"><ele>783.4</ele><time>2026-04-16T10:08:13.719Z</time></trkpt><trkpt lat="43.4304833" lon="12.5231082"><ele>783.0</ele><time>2026-04-16T10:08:14.719Z</time></trkpt><trkpt lat="43.4305588" lon="12.5230781"><ele>783.0</ele><time>2026-04-16T10:08:15.719Z</time></trkpt><trkpt lat="43.4306365" lon="12.5230449"><ele>783.0</ele><time>2026-04-16T10:08:16.718Z</time></trkpt><trkpt lat="43.4307333" lon="12.5230516"><ele>783.0</ele><time>2026-04-16T10:08:17.719Z</time></trkpt><trkpt lat="43.4308354" lon="12.5230668"><ele>783.0</ele><time>2026-04-16T10:08:18.718Z</time></trkpt><trkpt lat="43.4309377" lon="12.5231004"><ele>783.0</ele><time>2026-04-16T10:08:19.718Z</time></trkpt><trkpt lat="43.4310262" lon="12.5231302"><ele>783.0</ele><time>2026-04-16T10:08:20.718Z</time></trkpt><trkpt lat="43.4311262" lon="12.5231579"><ele>783.0</ele><time>2026-04-16T10:08:21.718Z</time></trkpt><trkpt lat="43.4312218" lon="12.5231994"><ele>783.0</ele><time>2026-04-16T10:08:22.717Z</time></trkpt><trkpt lat="43.4313287" lon="12.5232386"><ele>783.0</ele><time>2026-04-16T10:08:23.718Z</time></trkpt><trkpt lat="43.4314552" lon="12.5232957"><ele>783.0</ele><time>2026-04-16T10:08:24.718Z</time></trkpt><trkpt lat="43.43157" lon="12.523354"><ele>781.75</ele><time>2026-04-16T10:08:25.718Z</time></trkpt><trkpt lat="43.4316896" lon="12.5234124"><ele>780.5</ele><time>2026-04-16T10:08:26.718Z</time></trkpt><trkpt lat="43.4318016" lon="12.523473"><ele>779.25</ele><time>2026-04-16T10:08:27.718Z</time></trkpt><trkpt lat="43.4319212" lon="12.5235407"><ele>778.0</ele><time>2026-04-16T10:08:28.719Z</time></trkpt><trkpt lat="43.4320403" lon="12.5236177"><ele>779.5999999999999</ele><time>2026-04-16T10:08:29.719Z</time></trkpt><trkpt lat="43.4321515" lon="12.5236783"><ele>781.1999999999999</ele><time>2026-04-16T10:08:30.717Z</time></trkpt><trkpt lat="43.4322529" lon="12.5237352"><ele>782.8</ele><time>2026-04-16T10:08:31.717Z</time></trkpt><trkpt lat="43.4323541" lon="12.5237875"><ele>784.4</ele><time>2026-04-16T10:08:32.718Z</time></trkpt><trkpt lat="43.4324502" lon="12.5238066"><ele>786.0</ele><time>2026-04-16T10:08:33.72Z</time></trkpt><trkpt lat="43.4325536" lon="12.5238028"><ele>786.0</ele><time>2026-04-16T10:08:34.717Z</time></trkpt><trkpt lat="43.432649" lon="12.523793"><ele>786.0</ele><time>2026-04-16T10:08:35.719Z</time></trkpt><trkpt lat="43.4327512" lon="12.5237487"><ele>786.0</ele><time>2026-04-16T10:08:36.719Z</time></trkpt><trkpt lat="43.4328365" lon="12.5236914"><ele>786.0</ele><time>2026-04-16T10:08:37.719Z</time></trkpt><trkpt lat="43.4329166" lon="12.5236153"><ele>786.0</ele><time>2026-04-16T10:08:38.716Z</time></trkpt><trkpt lat="43.4329711" lon="12.5235321"><ele>786.0</ele><time>2026-04-16T10:08:39.719Z</time></trkpt><trkpt lat="43.4330044" lon="12.5234301"><ele>786.0</ele><time>2026-04-16T10:08:40.718Z</time></trkpt><trkpt lat="43.4330094" lon="12.5232969"><ele>786.0</ele><time>2026-04-16T10:08:41.718Z</time></trkpt><trkpt lat="43.4330055" lon="12.5231763"><ele>786.0</ele><time>2026-04-16T10:08:42.719Z</time></trkpt><trkpt lat="43.432992" lon="12.5230647"><ele>786.0</ele><time>2026-04-16T10:08:43.718Z</time></trkpt><trkpt lat="43.4330003" lon="12.5229715"><ele>786.0</ele><time>2026-04-16T10:08:44.718Z</time></trkpt><trkpt lat="43.4330727" lon="12.5228525"><ele>786.0</ele><time>2026-04-16T10:08:46.719Z</time></trkpt><trkpt lat="43.4331952" lon="12.5228921"><ele>786.0</ele><time>2026-04-16T10:08:48.719Z</time></trkpt><trkpt lat="43.4332686" lon="12.5229475"><ele>786.0</ele><time>2026-04-16T10:08:49.719Z</time></trkpt><trkpt lat="43.4333516" lon="12.5230042"><ele>786.0</ele><time>2026-04-16T10:08:50.719Z</time></trkpt><trkpt lat="43.4335001" lon="12.5230473"><ele>790.5</ele><time>2026-04-16T10:08:51.719Z</time></trkpt><trkpt lat="43.433622" lon="12.5230909"><ele>795.0</ele><time>2026-04-16T10:08:52.718Z</time></trkpt><trkpt lat="43.4337718" lon="12.5230829"><ele>799.5</ele><time>2026-04-16T10:08:53.719Z</time></trkpt><trkpt lat="43.4339046" lon="12.5230829"><ele>804.0</ele><time>2026-04-16T10:08:54.719Z</time></trkpt><trkpt lat="43.4340214" lon="12.523073"><ele>802.4000000000001</ele><time>2026-04-16T10:08:55.718Z</time></trkpt><trkpt lat="43.434136" lon="12.5230683"><ele>800.8</ele><time>2026-04-16T10:08:56.719Z</time></trkpt><trkpt lat="43.4342245" lon="12.523068"><ele>799.2</ele><time>2026-04-16T10:08:57.72Z</time></trkpt><trkpt lat="43.4343228" lon="12.5229998"><ele>797.5999999999999</ele><time>2026-04-16T10:08:58.718Z</time></trkpt><trkpt lat="43.4344291" lon="12.5229484"><ele>796.0</ele><time>2026-04-16T10:08:59.719Z</time></trkpt><trkpt lat="43.4345072" lon="12.5228726"><ele>795.9999999999999</ele><time>2026-04-16T10:09:00.718Z</time></trkpt><trkpt lat="43.4345771" lon="12.5227846"><ele>796.0</ele><time>2026-04-16T10:09:01.718Z</time></trkpt><trkpt lat="43.4346209" lon="12.522699"><ele>796.0</ele><time>2026-04-16T10:09:02.717Z</time></trkpt><trkpt lat="43.4346494" lon="12.5225822"><ele>796.0</ele><time>2026-04-16T10:09:03.718Z</time></trkpt><trkpt lat="43.4346857" lon="12.5224829"><ele>795.9999999999999</ele><time>2026-04-16T10:09:04.718Z</time></trkpt><trkpt lat="43.4346812" lon="12.5223866"><ele>796.0</ele><time>2026-04-16T10:09:05.72Z</time></trkpt><trkpt lat="43.4347044" lon="12.5222984"><ele>797.9999999999999</ele><time>2026-04-16T10:09:06.718Z</time></trkpt><trkpt lat="43.4347181" lon="12.5221906"><ele>800.0</ele><time>2026-04-16T10:09:07.719Z</time></trkpt><trkpt lat="43.4347789" lon="12.5221402"><ele>802.0</ele><time>2026-04-16T10:09:08.717Z</time></trkpt><trkpt lat="43.4348311" lon="12.5220906"><ele>804.0</ele><time>2026-04-16T10:09:09.719Z</time></trkpt><trkpt lat="43.4349042" lon="12.5220817"><ele>806.0</ele><time>2026-04-16T10:09:10.719Z</time></trkpt><trkpt lat="43.4349688" lon="12.5220975"><ele>807.9999999999999</ele><time>2026-04-16T10:09:11.718Z</time></trkpt><trkpt lat="43.4350511" lon="12.5221029"><ele>810.0</ele><time>2026-04-16T10:09:12.767Z</time></trkpt><trkpt lat="43.4352166" lon="12.5221016"><ele>810.0</ele><time>2026-04-16T10:09:14.719Z</time></trkpt><trkpt lat="43.4353003" lon="12.522066"><ele>810.0</ele><time>2026-04-16T10:09:15.718Z</time></trkpt><trkpt lat="43.4353855" lon="12.5219828"><ele>810.0</ele><time>2026-04-16T10:09:16.719Z</time></trkpt><trkpt lat="43.435475" lon="12.5218821"><ele>810.0</ele><time>2026-04-16T10:09:17.719Z</time></trkpt><trkpt lat="43.4355555" lon="12.5217679"><ele>810.0</ele><time>2026-04-16T10:09:18.718Z</time></trkpt><trkpt lat="43.4356307" lon="12.5216643"><ele>807.0</ele><time>2026-04-16T10:09:19.718Z</time></trkpt><trkpt lat="43.435708" lon="12.521568"><ele>804.0</ele><time>2026-04-16T10:09:20.718Z</time></trkpt><trkpt lat="43.4357882" lon="12.521458"><ele>801.0</ele><time>2026-04-16T10:09:21.719Z</time></trkpt><trkpt lat="43.435882" lon="12.5213462"><ele>798.0</ele><time>2026-04-16T10:09:22.719Z</time></trkpt><trkpt lat="43.4359923" lon="12.5212465"><ele>798.75</ele><time>2026-04-16T10:09:23.718Z</time></trkpt><trkpt lat="43.4361115" lon="12.5211502"><ele>799.5</ele><time>2026-04-16T10:09:24.719Z</time></trkpt><trkpt lat="43.4362327" lon="12.5210643"><ele>800.25</ele><time>2026-04-16T10:09:25.718Z</time></trkpt><trkpt lat="43.4363511" lon="12.5210041"><ele>801.0</ele><time>2026-04-16T10:09:26.719Z</time></trkpt><trkpt lat="43.4364626" lon="12.5209644"><ele>801.0</ele><time>2026-04-16T10:09:27.718Z</time></trkpt><trkpt lat="43.4365797" lon="12.5209416"><ele>801.0</ele><time>2026-04-16T10:09:28.719Z</time></trkpt><trkpt lat="43.4366891" lon="12.5209307"><ele>801.0</ele><time>2026-04-16T10:09:29.718Z</time></trkpt><trkpt lat="43.4367767" lon="12.520903"><ele>801.0</ele><time>2026-04-16T10:09:30.717Z</time></trkpt><trkpt lat="43.4368618" lon="12.5208525"><ele>801.0</ele><time>2026-04-16T10:09:31.717Z</time></trkpt><trkpt lat="43.4369446" lon="12.520776"><ele>801.0</ele><time>2026-04-16T10:09:32.719Z</time></trkpt><trkpt lat="43.4370232" lon="12.5206859"><ele>801.0</ele><time>2026-04-16T10:09:33.718Z</time></trkpt><trkpt lat="43.4371081" lon="12.5205965"><ele>801.0</ele><time>2026-04-16T10:09:34.717Z</time></trkpt><trkpt lat="43.4372116" lon="12.5205191"><ele>801.0</ele><time>2026-04-16T10:09:35.719Z</time></trkpt><trkpt lat="43.4373347" lon="12.5204373"><ele>796.6666666666667</ele><time>2026-04-16T10:09:36.719Z</time></trkpt><trkpt lat="43.437478" lon="12.5203584"><ele>792.3333333333334</ele><time>2026-04-16T10:09:37.718Z</time></trkpt><trkpt lat="43.4376258" lon="12.5202937"><ele>788.0</ele><time>2026-04-16T10:09:38.719Z</time></trkpt><trkpt lat="43.4377774" lon="12.5202257"><ele>788.0</ele><time>2026-04-16T10:09:39.718Z</time></trkpt><trkpt lat="43.437931" lon="12.5201665"><ele>788.0</ele><time>2026-04-16T10:09:40.718Z</time></trkpt><trkpt lat="43.4380737" lon="12.5201067"><ele>788.0</ele><time>2026-04-16T10:09:41.718Z</time></trkpt><trkpt lat="43.4382041" lon="12.5200168"><ele>789.0</ele><time>2026-04-16T10:09:42.718Z</time></trkpt><trkpt lat="43.4383267" lon="12.5199027"><ele>790.0</ele><time>2026-04-16T10:09:43.719Z</time></trkpt><trkpt lat="43.4384397" lon="12.5197749"><ele>791.0</ele><time>2026-04-16T10:09:44.717Z</time></trkpt><trkpt lat="43.4385488" lon="12.5196339"><ele>792.0</ele><time>2026-04-16T10:09:45.72Z</time></trkpt><trkpt lat="43.4386515" lon="12.5194896"><ele>792.0</ele><time>2026-04-16T10:09:46.718Z</time></trkpt><trkpt lat="43.4387447" lon="12.5193419"><ele>792.0</ele><time>2026-04-16T10:09:47.719Z</time></trkpt><trkpt lat="43.4388248" lon="12.5191817"><ele>792.0</ele><time>2026-04-16T10:09:48.719Z</time></trkpt><trkpt lat="43.4388859" lon="12.5190169"><ele>792.0</ele><time>2026-04-16T10:09:49.717Z</time></trkpt><trkpt lat="43.438937" lon="12.5188425"><ele>795.8</ele><time>2026-04-16T10:09:50.718Z</time></trkpt><trkpt lat="43.438921" lon="12.5186899"><ele>799.6</ele><time>2026-04-16T10:09:51.718Z</time></trkpt><trkpt lat="43.4389301" lon="12.5185389"><ele>803.4</ele><time>2026-04-16T10:09:52.719Z</time></trkpt><trkpt lat="43.4389465" lon="12.5184227"><ele>807.1999999999999</ele><time>2026-04-16T10:09:53.718Z</time></trkpt><trkpt lat="43.4389888" lon="12.5183508"><ele>811.0</ele><time>2026-04-16T10:09:54.718Z</time></trkpt><trkpt lat="43.4390942" lon="12.518269"><ele>811.0</ele><time>2026-04-16T10:09:56.718Z</time></trkpt><trkpt lat="43.4391698" lon="12.5182409"><ele>811.0</ele><time>2026-04-16T10:09:57.717Z</time></trkpt><trkpt lat="43.4392576" lon="12.5182267"><ele>811.0</ele><time>2026-04-16T10:09:58.719Z</time></trkpt><trkpt lat="43.439351" lon="12.5181807"><ele>811.0</ele><time>2026-04-16T10:09:59.719Z</time></trkpt><trkpt lat="43.4394677" lon="12.5181093"><ele>811.0</ele><time>2026-04-16T10:10:00.719Z</time></trkpt><trkpt lat="43.4395896" lon="12.5180311"><ele>811.0</ele><time>2026-04-16T10:10:01.717Z</time></trkpt><trkpt lat="43.4397042" lon="12.517921"><ele>811.0</ele><time>2026-04-16T10:10:02.718Z</time></trkpt><trkpt lat="43.4398155" lon="12.5177879"><ele>811.0</ele><time>2026-04-16T10:10:03.719Z</time></trkpt><trkpt lat="43.4399186" lon="12.5176456"><ele>811.0</ele><time>2026-04-16T10:10:04.718Z</time></trkpt><trkpt lat="43.4400454" lon="12.5175155"><ele>811.0</ele><time>2026-04-16T10:10:05.718Z</time></trkpt><trkpt lat="43.4401799" lon="12.5173981"><ele>811.0</ele><time>2026-04-16T10:10:06.718Z</time></trkpt><trkpt lat="43.4403277" lon="12.5173051"><ele>811.0</ele><time>2026-04-16T10:10:07.719Z</time></trkpt><trkpt lat="43.4404854" lon="12.5172064"><ele>812.0</ele><time>2026-04-16T10:10:08.718Z</time></trkpt><trkpt lat="43.4406352" lon="12.5171223"><ele>813.0</ele><time>2026-04-16T10:10:09.718Z</time></trkpt><trkpt lat="43.4407633" lon="12.5170478"><ele>814.0</ele><time>2026-04-16T10:10:10.718Z</time></trkpt><trkpt lat="43.4408981" lon="12.5169876"><ele>815.0</ele><time>2026-04-16T10:10:11.718Z</time></trkpt><trkpt lat="43.4410373" lon="12.5169588"><ele>816.5</ele><time>2026-04-16T10:10:12.718Z</time></trkpt><trkpt lat="43.4411739" lon="12.5169518"><ele>818.0</ele><time>2026-04-16T10:10:13.719Z</time></trkpt><trkpt lat="43.4413087" lon="12.5169512"><ele>819.5</ele><time>2026-04-16T10:10:14.719Z</time></trkpt><trkpt lat="43.441445" lon="12.5169515"><ele>821.0</ele><time>2026-04-16T10:10:15.717Z</time></trkpt><trkpt lat="43.4415599" lon="12.5169542"><ele>822.5000000000001</ele><time>2026-04-16T10:10:16.719Z</time></trkpt><trkpt lat="43.4416523" lon="12.516948"><ele>824.0</ele><time>2026-04-16T10:10:17.719Z</time></trkpt><trkpt lat="43.4417369" lon="12.5169356"><ele>825.5</ele><time>2026-04-16T10:10:18.719Z</time></trkpt><trkpt lat="43.4418139" lon="12.5169154"><ele>827.0</ele><time>2026-04-16T10:10:19.718Z</time></trkpt><trkpt lat="43.441894" lon="12.5168888"><ele>828.5000000000001</ele><time>2026-04-16T10:10:20.718Z</time></trkpt><trkpt lat="43.441957" lon="12.5168649"><ele>830.0</ele><time>2026-04-16T10:10:21.719Z</time></trkpt><trkpt lat="43.4420767" lon="12.5168204"><ele>831.5000000000001</ele><time>2026-04-16T10:10:23.718Z</time></trkpt><trkpt lat="43.4421373" lon="12.5167969"><ele>833.0</ele><time>2026-04-16T10:10:24.718Z</time></trkpt><trkpt lat="43.4422033" lon="12.5167876"><ele>834.5</ele><time>2026-04-16T10:10:25.719Z</time></trkpt><trkpt lat="43.4422769" lon="12.5167864"><ele>836.0</ele><time>2026-04-16T10:10:26.719Z</time></trkpt><trkpt lat="43.4423611" lon="12.5167914"><ele>837.5000000000001</ele><time>2026-04-16T10:10:27.717Z</time></trkpt><trkpt lat="43.4424422" lon="12.5168304"><ele>839.0</ele><time>2026-04-16T10:10:28.718Z</time></trkpt><trkpt lat="43.4425271" lon="12.516886"><ele>839.0</ele><time>2026-04-16T10:10:29.718Z</time></trkpt><trkpt lat="43.4426075" lon="12.516959"><ele>839.0</ele><time>2026-04-16T10:10:30.719Z</time></trkpt><trkpt lat="43.4426836" lon="12.5170416"><ele>839.0</ele><time>2026-04-16T10:10:31.717Z</time></trkpt><trkpt lat="43.4427764" lon="12.5171182"><ele>839.0</ele><time>2026-04-16T10:10:32.719Z</time></trkpt><trkpt lat="43.442868" lon="12.5172058"><ele>839.0</ele><time>2026-04-16T10:10:33.718Z</time></trkpt><trkpt lat="43.4429625" lon="12.5172939"><ele>839.2</ele><time>2026-04-16T10:10:34.719Z</time></trkpt><trkpt lat="43.4430511" lon="12.5173604"><ele>839.4000000000001</ele><time>2026-04-16T10:10:35.717Z</time></trkpt><trkpt lat="43.4431389" lon="12.5173809"><ele>839.6</ele><time>2026-04-16T10:10:36.718Z</time></trkpt><trkpt lat="43.4432202" lon="12.5173747"><ele>839.8</ele><time>2026-04-16T10:10:37.717Z</time></trkpt><trkpt lat="43.4433046" lon="12.517338"><ele>840.0</ele><time>2026-04-16T10:10:38.719Z</time></trkpt><trkpt lat="43.4433933" lon="12.5172898"><ele>840.0</ele><time>2026-04-16T10:10:39.717Z</time></trkpt><trkpt lat="43.443467" lon="12.5172309"><ele>840.0</ele><time>2026-04-16T10:10:40.719Z</time></trkpt><trkpt lat="43.4435627" lon="12.5171978"><ele>840.0</ele><time>2026-04-16T10:10:41.719Z</time></trkpt><trkpt lat="43.4436745" lon="12.5171747"><ele>840.0</ele><time>2026-04-16T10:10:42.719Z</time></trkpt><trkpt lat="43.4437955" lon="12.5171532"><ele>840.0</ele><time>2026-04-16T10:10:43.719Z</time></trkpt><trkpt lat="43.4439135" lon="12.5171472"><ele>841.4</ele><time>2026-04-16T10:10:44.718Z</time></trkpt><trkpt lat="43.4440101" lon="12.517147"><ele>842.8</ele><time>2026-04-16T10:10:45.717Z</time></trkpt><trkpt lat="43.4441015" lon="12.5171442"><ele>844.2</ele><time>2026-04-16T10:10:46.719Z</time></trkpt><trkpt lat="43.4441786" lon="12.5171359"><ele>845.6</ele><time>2026-04-16T10:10:47.718Z</time></trkpt><trkpt lat="43.4442446" lon="12.5171196"><ele>847.0</ele><time>2026-04-16T10:10:48.718Z</time></trkpt><trkpt lat="43.4443528" lon="12.5170398"><ele>846.9999999999999</ele><time>2026-04-16T10:10:50.719Z</time></trkpt><trkpt lat="43.444397" lon="12.5169751"><ele>847.0</ele><time>2026-04-16T10:10:51.718Z</time></trkpt><trkpt lat="43.4444427" lon="12.5168898"><ele>847.0</ele><time>2026-04-16T10:10:52.718Z</time></trkpt><trkpt lat="43.4444931" lon="12.5167905"><ele>847.0</ele><time>2026-04-16T10:10:53.719Z</time></trkpt><trkpt lat="43.4445511" lon="12.5166943"><ele>846.9999999999999</ele><time>2026-04-16T10:10:54.718Z</time></trkpt><trkpt lat="43.4446059" lon="12.5165961"><ele>847.0</ele><time>2026-04-16T10:10:55.717Z</time></trkpt><trkpt lat="43.4446848" lon="12.516514"><ele>842.75</ele><time>2026-04-16T10:10:56.719Z</time></trkpt><trkpt lat="43.4447637" lon="12.5164403"><ele>838.5</ele><time>2026-04-16T10:10:57.719Z</time></trkpt><trkpt lat="43.4449169" lon="12.5164096"><ele>834.25</ele><time>2026-04-16T10:10:58.718Z</time></trkpt><trkpt lat="43.4450382" lon="12.5164987"><ele>830.0</ele><time>2026-04-16T10:11:00.718Z</time></trkpt><trkpt lat="43.4451035" lon="12.5165358"><ele>830.0</ele><time>2026-04-16T10:11:01.719Z</time></trkpt><trkpt lat="43.445217" lon="12.5165743"><ele>830.0</ele><time>2026-04-16T10:11:02.718Z</time></trkpt><trkpt lat="43.4453204" lon="12.5166402"><ele>830.0</ele><time>2026-04-16T10:11:03.717Z</time></trkpt><trkpt lat="43.4454339" lon="12.5167099"><ele>830.0</ele><time>2026-04-16T10:11:04.719Z</time></trkpt><trkpt lat="43.4455099" lon="12.5167679"><ele>830.0</ele><time>2026-04-16T10:11:05.718Z</time></trkpt><trkpt lat="43.4455907" lon="12.5167472"><ele>829.0</ele><time>2026-04-16T10:11:06.718Z</time></trkpt><trkpt lat="43.4456672" lon="12.5167543"><ele>828.0</ele><time>2026-04-16T10:11:07.719Z</time></trkpt><trkpt lat="43.4457453" lon="12.5167476"><ele>827.0</ele><time>2026-04-16T10:11:08.719Z</time></trkpt><trkpt lat="43.4458103" lon="12.5167231"><ele>826.0</ele><time>2026-04-16T10:11:09.719Z</time></trkpt><trkpt lat="43.4459311" lon="12.5165662"><ele>825.0</ele><time>2026-04-16T10:11:11.719Z</time></trkpt><trkpt lat="43.4460003" lon="12.5164834"><ele>825.0</ele><time>2026-04-16T10:11:12.719Z</time></trkpt><trkpt lat="43.4460774" lon="12.5164004"><ele>825.0</ele><time>2026-04-16T10:11:13.718Z</time></trkpt><trkpt lat="43.4461583" lon="12.5162973"><ele>825.0</ele><time>2026-04-16T10:11:14.719Z</time></trkpt><trkpt lat="43.4462494" lon="12.5162284"><ele>825.0</ele><time>2026-04-16T10:11:15.719Z</time></trkpt><trkpt lat="43.4463279" lon="12.5161363"><ele>825.0</ele><time>2026-04-16T10:11:16.719Z</time></trkpt><trkpt lat="43.446389" lon="12.5161131"><ele>823.3333333333334</ele><time>2026-04-16T10:11:17.717Z</time></trkpt><trkpt lat="43.4464719" lon="12.516085"><ele>821.6666666666667</ele><time>2026-04-16T10:11:18.719Z</time></trkpt><trkpt lat="43.4465586" lon="12.5160273"><ele>820.0</ele><time>2026-04-16T10:11:19.719Z</time></trkpt><trkpt lat="43.4466242" lon="12.5159476"><ele>818.3333333333334</ele><time>2026-04-16T10:11:20.718Z</time></trkpt><trkpt lat="43.4466806" lon="12.5158671"><ele>816.6666666666667</ele><time>2026-04-16T10:11:21.717Z</time></trkpt><trkpt lat="43.4467351" lon="12.5157899"><ele>815.0</ele><time>2026-04-16T10:11:22.718Z</time></trkpt><trkpt lat="43.4468364" lon="12.515717"><ele>815.0</ele><time>2026-04-16T10:11:23.718Z</time></trkpt><trkpt lat="43.4469595" lon="12.5156665"><ele>815.0</ele><time>2026-04-16T10:11:24.719Z</time></trkpt><trkpt lat="43.4470819" lon="12.5156552"><ele>815.0</ele><time>2026-04-16T10:11:25.718Z</time></trkpt><trkpt lat="43.4471946" lon="12.5156733"><ele>815.0</ele><time>2026-04-16T10:11:26.719Z</time></trkpt><trkpt lat="43.4473195" lon="12.5156793"><ele>813.25</ele><time>2026-04-16T10:11:27.718Z</time></trkpt><trkpt lat="43.4474462" lon="12.5156876"><ele>811.5</ele><time>2026-04-16T10:11:28.717Z</time></trkpt><trkpt lat="43.4475664" lon="12.5156933"><ele>809.75</ele><time>2026-04-16T10:11:29.719Z</time></trkpt><trkpt lat="43.4476746" lon="12.5156854"><ele>808.0</ele><time>2026-04-16T10:11:30.718Z</time></trkpt><trkpt lat="43.4477757" lon="12.5156462"><ele>808.0</ele><time>2026-04-16T10:11:31.719Z</time></trkpt><trkpt lat="43.4478619" lon="12.5155758"><ele>808.0</ele><time>2026-04-16T10:11:32.719Z</time></trkpt><trkpt lat="43.4479241" lon="12.5154908"><ele>808.0</ele><time>2026-04-16T10:11:33.718Z</time></trkpt><trkpt lat="43.4479708" lon="12.5153875"><ele>808.0</ele><time>2026-04-16T10:11:34.718Z</time></trkpt><trkpt lat="43.4480343" lon="12.5152949"><ele>808.0</ele><time>2026-04-16T10:11:35.718Z</time></trkpt><trkpt lat="43.448106" lon="12.5152"><ele>806.8</ele><time>2026-04-16T10:11:36.718Z</time></trkpt><trkpt lat="43.4481755" lon="12.5151178"><ele>805.5999999999999</ele><time>2026-04-16T10:11:37.719Z</time></trkpt><trkpt lat="43.4482355" lon="12.515065"><ele>804.4000000000001</ele><time>2026-04-16T10:11:38.719Z</time></trkpt><trkpt lat="43.4483011" lon="12.5150145"><ele>803.2</ele><time>2026-04-16T10:11:39.717Z</time></trkpt><trkpt lat="43.4484199" lon="12.5150045"><ele>802.0</ele><time>2026-04-16T10:11:41.717Z</time></trkpt><trkpt lat="43.4485023" lon="12.5151501"><ele>802.0</ele><time>2026-04-16T10:11:43.718Z</time></trkpt><trkpt lat="43.4485935" lon="12.5152042"><ele>802.0</ele><time>2026-04-16T10:11:44.719Z</time></trkpt><trkpt lat="43.4486496" lon="12.5153147"><ele>802.0</ele><time>2026-04-16T10:11:45.717Z</time></trkpt><trkpt lat="43.448743" lon="12.5153947"><ele>802.0</ele><time>2026-04-16T10:11:46.717Z</time></trkpt><trkpt lat="43.4488354" lon="12.5154685"><ele>802.0</ele><time>2026-04-16T10:11:47.719Z</time></trkpt><trkpt lat="43.4489326" lon="12.5155323"><ele>800.8</ele><time>2026-04-16T10:11:48.719Z</time></trkpt><trkpt lat="43.449034" lon="12.5155777"><ele>799.6</ele><time>2026-04-16T10:11:49.719Z</time></trkpt><trkpt lat="43.4491214" lon="12.5156066"><ele>798.4</ele><time>2026-04-16T10:11:50.718Z</time></trkpt><trkpt lat="43.4492076" lon="12.5156413"><ele>797.1999999999999</ele><time>2026-04-16T10:11:51.718Z</time></trkpt><trkpt lat="43.4493138" lon="12.5156764"><ele>796.0</ele><time>2026-04-16T10:11:52.718Z</time></trkpt><trkpt lat="43.4494128" lon="12.5157139"><ele>795.9999999999999</ele><time>2026-04-16T10:11:53.716Z</time></trkpt><trkpt lat="43.4495084" lon="12.5157483"><ele>796.0</ele><time>2026-04-16T10:11:54.719Z</time></trkpt><trkpt lat="43.4495849" lon="12.5157865"><ele>796.0</ele><time>2026-04-16T10:11:55.718Z</time></trkpt><trkpt lat="43.4496574" lon="12.5158103"><ele>796.0</ele><time>2026-04-16T10:11:56.718Z</time></trkpt><trkpt lat="43.4497231" lon="12.51579"><ele>795.9999999999999</ele><time>2026-04-16T10:11:57.719Z</time></trkpt><trkpt lat="43.4497844" lon="12.5157302"><ele>796.0</ele><time>2026-04-16T10:11:58.719Z</time></trkpt><trkpt lat="43.4498225" lon="12.5156473"><ele>795.8</ele><time>2026-04-16T10:11:59.719Z</time></trkpt><trkpt lat="43.4498306" lon="12.5155263"><ele>795.5999999999999</ele><time>2026-04-16T10:12:00.719Z</time></trkpt><trkpt lat="43.4498224" lon="12.5153981"><ele>795.4</ele><time>2026-04-16T10:12:01.718Z</time></trkpt><trkpt lat="43.4498316" lon="12.5152686"><ele>795.2</ele><time>2026-04-16T10:12:02.718Z</time></trkpt><trkpt lat="43.4498524" lon="12.5151358"><ele>795.0</ele><time>2026-04-16T10:12:03.718Z</time></trkpt><trkpt lat="43.4498702" lon="12.5150055"><ele>795.0</ele><time>2026-04-16T10:12:04.719Z</time></trkpt><trkpt lat="43.4498829" lon="12.5148776"><ele>795.0</ele><time>2026-04-16T10:12:05.718Z</time></trkpt><trkpt lat="43.4498688" lon="12.5147515"><ele>795.0</ele><time>2026-04-16T10:12:06.719Z</time></trkpt><trkpt lat="43.449861" lon="12.514623"><ele>795.0</ele><time>2026-04-16T10:12:07.719Z</time></trkpt><trkpt lat="43.4498485" lon="12.5144907"><ele>795.0</ele><time>2026-04-16T10:12:08.717Z</time></trkpt><trkpt lat="43.4498293" lon="12.5143189"><ele>794.3333333333334</ele><time>2026-04-16T10:12:09.72Z</time></trkpt><trkpt lat="43.4498145" lon="12.5141784"><ele>793.6666666666667</ele><time>2026-04-16T10:12:10.718Z</time></trkpt><trkpt lat="43.4498137" lon="12.5140566"><ele>793.0</ele><time>2026-04-16T10:12:11.718Z</time></trkpt><trkpt lat="43.4498323" lon="12.5139444"><ele>792.3333333333334</ele><time>2026-04-16T10:12:12.718Z</time></trkpt><trkpt lat="43.4498392" lon="12.5138298"><ele>791.6666666666667</ele><time>2026-04-16T10:12:13.718Z</time></trkpt><trkpt lat="43.4499189" lon="12.5138888"><ele>791.0</ele><time>2026-04-16T10:12:14.719Z</time></trkpt><trkpt lat="43.450021" lon="12.5138545"><ele>791.0</ele><time>2026-04-16T10:12:15.718Z</time></trkpt><trkpt lat="43.4500902" lon="12.5138058"><ele>791.0</ele><time>2026-04-16T10:12:16.719Z</time></trkpt><trkpt lat="43.4501812" lon="12.5137917"><ele>791.0</ele><time>2026-04-16T10:12:17.718Z</time></trkpt><trkpt lat="43.4502944" lon="12.513759"><ele>791.0</ele><time>2026-04-16T10:12:18.717Z</time></trkpt><trkpt lat="43.4503999" lon="12.5137372"><ele>791.0</ele><time>2026-04-16T10:12:19.719Z</time></trkpt><trkpt lat="43.450518" lon="12.5137162"><ele>786.25</ele><time>2026-04-16T10:12:20.718Z</time></trkpt><trkpt lat="43.4506449" lon="12.5136935"><ele>781.5</ele><time>2026-04-16T10:12:21.716Z</time></trkpt><trkpt lat="43.4507527" lon="12.5136851"><ele>776.75</ele><time>2026-04-16T10:12:22.719Z</time></trkpt><trkpt lat="43.45087" lon="12.513657"><ele>772.0</ele><time>2026-04-16T10:12:23.719Z</time></trkpt><trkpt lat="43.4509992" lon="12.5136054"><ele>772.0</ele><time>2026-04-16T10:12:24.72Z</time></trkpt><trkpt lat="43.4510984" lon="12.5135419"><ele>772.0</ele><time>2026-04-16T10:12:25.718Z</time></trkpt><trkpt lat="43.4512026" lon="12.513481"><ele>772.0</ele><time>2026-04-16T10:12:26.718Z</time></trkpt><trkpt lat="43.4513094" lon="12.5133963"><ele>772.0</ele><time>2026-04-16T10:12:27.719Z</time></trkpt><trkpt lat="43.4514149" lon="12.5133044"><ele>771.75</ele><time>2026-04-16T10:12:28.719Z</time></trkpt><trkpt lat="43.4515063" lon="12.513201"><ele>771.5</ele><time>2026-04-16T10:12:29.718Z</time></trkpt><trkpt lat="43.4515998" lon="12.5131019"><ele>771.25</ele><time>2026-04-16T10:12:30.718Z</time></trkpt><trkpt lat="43.4516753" lon="12.512972"><ele>771.0</ele><time>2026-04-16T10:12:31.72Z</time></trkpt><trkpt lat="43.4517337" lon="12.5128607"><ele>771.0</ele><time>2026-04-16T10:12:32.719Z</time></trkpt><trkpt lat="43.451781" lon="12.5127252"><ele>771.0</ele><time>2026-04-16T10:12:33.719Z</time></trkpt><trkpt lat="43.45182" lon="12.5125822"><ele>771.0</ele><time>2026-04-16T10:12:34.718Z</time></trkpt><trkpt lat="43.4518496" lon="12.5124637"><ele>771.0</ele><time>2026-04-16T10:12:35.718Z</time></trkpt><trkpt lat="43.4518851" lon="12.5123685"><ele>771.0</ele><time>2026-04-16T10:12:36.719Z</time></trkpt><trkpt lat="43.4519366" lon="12.5122841"><ele>771.0</ele><time>2026-04-16T10:12:37.718Z</time></trkpt><trkpt lat="43.4519786" lon="12.5122173"><ele>771.0</ele><time>2026-04-16T10:12:38.717Z</time></trkpt><trkpt lat="43.4520641" lon="12.5121846"><ele>771.0</ele><time>2026-04-16T10:12:39.719Z</time></trkpt><trkpt lat="43.4521296" lon="12.5121611"><ele>771.0</ele><time>2026-04-16T10:12:40.719Z</time></trkpt><trkpt lat="43.4522959" lon="12.5122729"><ele>771.0</ele><time>2026-04-16T10:12:42.719Z</time></trkpt><trkpt lat="43.4523964" lon="12.5123268"><ele>770.25</ele><time>2026-04-16T10:12:43.719Z</time></trkpt><trkpt lat="43.4525137" lon="12.5123726"><ele>769.5</ele><time>2026-04-16T10:12:44.719Z</time></trkpt><trkpt lat="43.4526305" lon="12.5124469"><ele>768.75</ele><time>2026-04-16T10:12:45.719Z</time></trkpt><trkpt lat="43.4527237" lon="12.5125126"><ele>768.0</ele><time>2026-04-16T10:12:46.719Z</time></trkpt><trkpt lat="43.4528348" lon="12.5125937"><ele>768.0</ele><time>2026-04-16T10:12:47.719Z</time></trkpt><trkpt lat="43.4529237" lon="12.5126529"><ele>768.0</ele><time>2026-04-16T10:12:48.719Z</time></trkpt><trkpt lat="43.453026" lon="12.5127159"><ele>768.0</ele><time>2026-04-16T10:12:49.718Z</time></trkpt><trkpt lat="43.45311" lon="12.5127862"><ele>768.0</ele><time>2026-04-16T10:12:50.719Z</time></trkpt><trkpt lat="43.4532016" lon="12.5128352"><ele>768.0</ele><time>2026-04-16T10:12:51.718Z</time></trkpt><trkpt lat="43.4532937" lon="12.5128908"><ele>768.1666666666666</ele><time>2026-04-16T10:12:52.717Z</time></trkpt><trkpt lat="43.4533713" lon="12.5129418"><ele>768.3333333333333</ele><time>2026-04-16T10:12:53.718Z</time></trkpt><trkpt lat="43.4534703" lon="12.5129722"><ele>768.5</ele><time>2026-04-16T10:12:54.719Z</time></trkpt><trkpt lat="43.4535528" lon="12.5130375"><ele>768.6666666666666</ele><time>2026-04-16T10:12:55.719Z</time></trkpt><trkpt lat="43.4536253" lon="12.5130919"><ele>768.8333333333333</ele><time>2026-04-16T10:12:56.718Z</time></trkpt><trkpt lat="43.4537029" lon="12.5131317"><ele>769.0</ele><time>2026-04-16T10:12:57.719Z</time></trkpt><trkpt lat="43.453806" lon="12.5131495"><ele>766.3333333333333</ele><time>2026-04-16T10:12:58.718Z</time></trkpt><trkpt lat="43.4538971" lon="12.5131667"><ele>763.6666666666666</ele><time>2026-04-16T10:12:59.718Z</time></trkpt><trkpt lat="43.4539868" lon="12.5131806"><ele>761.0</ele><time>2026-04-16T10:13:00.717Z</time></trkpt><trkpt lat="43.4540464" lon="12.5132252"><ele>758.3333333333333</ele><time>2026-04-16T10:13:01.719Z</time></trkpt><trkpt lat="43.4541159" lon="12.5132753"><ele>755.6666666666666</ele><time>2026-04-16T10:13:02.718Z</time></trkpt><trkpt lat="43.4541836" lon="12.5133321"><ele>753.0</ele><time>2026-04-16T10:13:03.718Z</time></trkpt><trkpt lat="43.454263" lon="12.5133662"><ele>753.0</ele><time>2026-04-16T10:13:04.719Z</time></trkpt><trkpt lat="43.454343" lon="12.5134082"><ele>753.0</ele><time>2026-04-16T10:13:05.719Z</time></trkpt><trkpt lat="43.4544206" lon="12.5134378"><ele>753.0</ele><time>2026-04-16T10:13:06.718Z</time></trkpt><trkpt lat="43.4544915" lon="12.5134452"><ele>753.0</ele><time>2026-04-16T10:13:07.718Z</time></trkpt><trkpt lat="43.4545933" lon="12.5133813"><ele>753.0</ele><time>2026-04-16T10:13:09.719Z</time></trkpt><trkpt lat="43.4546363" lon="12.5132381"><ele>753.0</ele><time>2026-04-16T10:13:11.719Z</time></trkpt><trkpt lat="43.4545827" lon="12.5131141"><ele>753.0</ele><time>2026-04-16T10:13:13.718Z</time></trkpt><trkpt lat="43.4545151" lon="12.513076"><ele>753.0</ele><time>2026-04-16T10:13:14.72Z</time></trkpt><trkpt lat="43.4544376" lon="12.5130248"><ele>753.0</ele><time>2026-04-16T10:13:15.719Z</time></trkpt><trkpt lat="43.4543539" lon="12.5129624"><ele>753.0</ele><time>2026-04-16T10:13:16.719Z</time></trkpt><trkpt lat="43.4542663" lon="12.5128778"><ele>749.2</ele><time>2026-04-16T10:13:17.718Z</time></trkpt><trkpt lat="43.4541798" lon="12.5127849"><ele>745.4</ele><time>2026-04-16T10:13:18.719Z</time></trkpt><trkpt lat="43.4540961" lon="12.5126854"><ele>741.6</ele><time>2026-04-16T10:13:19.719Z</time></trkpt><trkpt lat="43.4540173" lon="12.5125752"><ele>737.8000000000001</ele><time>2026-04-16T10:13:20.717Z</time></trkpt><trkpt lat="43.453954" lon="12.5124879"><ele>734.0</ele><time>2026-04-16T10:13:21.719Z</time></trkpt><trkpt lat="43.4538884" lon="12.5123813"><ele>734.0</ele><time>2026-04-16T10:13:22.718Z</time></trkpt><trkpt lat="43.4538416" lon="12.5122574"><ele>734.0</ele><time>2026-04-16T10:13:23.72Z</time></trkpt><trkpt lat="43.4538156" lon="12.5121119"><ele>734.0</ele><time>2026-04-16T10:13:24.719Z</time></trkpt><trkpt lat="43.4538175" lon="12.5119639"><ele>734.0</ele><time>2026-04-16T10:13:25.717Z</time></trkpt><trkpt lat="43.4538195" lon="12.5118263"><ele>734.0</ele><time>2026-04-16T10:13:26.718Z</time></trkpt><trkpt lat="43.4538367" lon="12.5116718"><ele>731.6</ele><time>2026-04-16T10:13:27.719Z</time></trkpt><trkpt lat="43.4538529" lon="12.5115273"><ele>729.2</ele><time>2026-04-16T10:13:28.718Z</time></trkpt><trkpt lat="43.453878" lon="12.5113867"><ele>726.8000000000001</ele><time>2026-04-16T10:13:29.719Z</time></trkpt><trkpt lat="43.4538947" lon="12.5112657"><ele>724.4000000000001</ele><time>2026-04-16T10:13:30.719Z</time></trkpt><trkpt lat="43.4539112" lon="12.5111517"><ele>722.0</ele><time>2026-04-16T10:13:31.719Z</time></trkpt><trkpt lat="43.453939" lon="12.5110456"><ele>721.1666666666666</ele><time>2026-04-16T10:13:32.717Z</time></trkpt><trkpt lat="43.4539606" lon="12.5109394"><ele>720.3333333333333</ele><time>2026-04-16T10:13:33.719Z</time></trkpt><trkpt lat="43.4539654" lon="12.5107701"><ele>719.5</ele><time>2026-04-16T10:13:35.718Z</time></trkpt><trkpt lat="43.4539458" lon="12.5106762"><ele>718.6666666666666</ele><time>2026-04-16T10:13:36.719Z</time></trkpt><trkpt lat="43.4539259" lon="12.5105766"><ele>717.8333333333334</ele><time>2026-04-16T10:13:37.718Z</time></trkpt><trkpt lat="43.453907" lon="12.5104798"><ele>717.0</ele><time>2026-04-16T10:13:38.719Z</time></trkpt><trkpt lat="43.4538848" lon="12.5103815"><ele>718.0</ele><time>2026-04-16T10:13:39.718Z</time></trkpt><trkpt lat="43.4538529" lon="12.5102936"><ele>719.0</ele><time>2026-04-16T10:13:40.719Z</time></trkpt><trkpt lat="43.4538085" lon="12.5102141"><ele>720.0</ele><time>2026-04-16T10:13:41.719Z</time></trkpt><trkpt lat="43.4537445" lon="12.51016"><ele>721.0</ele><time>2026-04-16T10:13:42.719Z</time></trkpt><trkpt lat="43.4536655" lon="12.5101249"><ele>722.0</ele><time>2026-04-16T10:13:43.718Z</time></trkpt><trkpt lat="43.4535825" lon="12.5100974"><ele>723.0</ele><time>2026-04-16T10:13:44.719Z</time></trkpt><trkpt lat="43.4534803" lon="12.5100488"><ele>723.0</ele><time>2026-04-16T10:13:45.72Z</time></trkpt><trkpt lat="43.4533689" lon="12.5099776"><ele>723.0</ele><time>2026-04-16T10:13:46.719Z</time></trkpt><trkpt lat="43.453281" lon="12.509902"><ele>723.0</ele><time>2026-04-16T10:13:47.719Z</time></trkpt><trkpt lat="43.4531769" lon="12.5098218"><ele>723.0</ele><time>2026-04-16T10:13:48.719Z</time></trkpt><trkpt lat="43.4530918" lon="12.509754"><ele>723.0</ele><time>2026-04-16T10:13:49.719Z</time></trkpt><trkpt lat="43.4529428" lon="12.5096588"><ele>723.0</ele><time>2026-04-16T10:13:51.718Z</time></trkpt><trkpt lat="43.4528457" lon="12.5096037"><ele>723.0</ele><time>2026-04-16T10:13:52.719Z</time></trkpt><trkpt lat="43.452786" lon="12.5095527"><ele>723.0</ele><time>2026-04-16T10:13:53.717Z</time></trkpt><trkpt lat="43.4526982" lon="12.509501"><ele>723.0</ele><time>2026-04-16T10:13:54.718Z</time></trkpt><trkpt lat="43.4525839" lon="12.5094578"><ele>723.0</ele><time>2026-04-16T10:13:55.719Z</time></trkpt><trkpt lat="43.452496" lon="12.5094126"><ele>721.3333333333334</ele><time>2026-04-16T10:13:56.716Z</time></trkpt><trkpt lat="43.4524179" lon="12.5093911"><ele>719.6666666666666</ele><time>2026-04-16T10:13:57.719Z</time></trkpt><trkpt lat="43.4523507" lon="12.5094022"><ele>718.0</ele><time>2026-04-16T10:13:58.719Z</time></trkpt><trkpt lat="43.4522352" lon="12.5094492"><ele>716.3333333333333</ele><time>2026-04-16T10:14:00.719Z</time></trkpt><trkpt lat="43.4521599" lon="12.5094865"><ele>714.6666666666666</ele><time>2026-04-16T10:14:01.717Z</time></trkpt><trkpt lat="43.4520845" lon="12.5095338"><ele>713.0</ele><time>2026-04-16T10:14:02.718Z</time></trkpt><trkpt lat="43.4520028" lon="12.5096141"><ele>713.0</ele><time>2026-04-16T10:14:03.719Z</time></trkpt><trkpt lat="43.4519184" lon="12.5096836"><ele>713.0</ele><time>2026-04-16T10:14:04.719Z</time></trkpt><trkpt lat="43.451827" lon="12.5096732"><ele>713.0</ele><time>2026-04-16T10:14:05.719Z</time></trkpt><trkpt lat="43.4517327" lon="12.5096844"><ele>713.0</ele><time>2026-04-16T10:14:06.718Z</time></trkpt><trkpt lat="43.4516354" lon="12.509709"><ele>713.0</ele><time>2026-04-16T10:14:07.719Z</time></trkpt><trkpt lat="43.4515004" lon="12.5096826"><ele>713.0</ele><time>2026-04-16T10:14:08.719Z</time></trkpt><trkpt lat="43.4513865" lon="12.5096997"><ele>713.0</ele><time>2026-04-16T10:14:09.718Z</time></trkpt><trkpt lat="43.4512729" lon="12.5096797"><ele>713.0</ele><time>2026-04-16T10:14:10.719Z</time></trkpt><trkpt lat="43.4511862" lon="12.5095841"><ele>713.0</ele><time>2026-04-16T10:14:11.718Z</time></trkpt><trkpt lat="43.4510898" lon="12.5094873"><ele>707.4</ele><time>2026-04-16T10:14:13.719Z</time></trkpt><trkpt lat="43.4510252" lon="12.509503"><ele>701.8</ele><time>2026-04-16T10:14:14.718Z</time></trkpt><trkpt lat="43.4509203" lon="12.5095137"><ele>696.2</ele><time>2026-04-16T10:14:16.718Z</time></trkpt><trkpt lat="43.4508251" lon="12.5094762"><ele>690.6</ele><time>2026-04-16T10:14:18.718Z</time></trkpt><trkpt lat="43.4507414" lon="12.5094371"><ele>685.0</ele><time>2026-04-16T10:14:20.719Z</time></trkpt><trkpt lat="43.4506424" lon="12.5094151"><ele>685.0</ele><time>2026-04-16T10:14:22.717Z</time></trkpt><trkpt lat="43.4505593" lon="12.5093685"><ele>685.0</ele><time>2026-04-16T10:14:23.72Z</time></trkpt><trkpt lat="43.4503997" lon="12.5094001"><ele>685.0</ele><time>2026-04-16T10:14:25.719Z</time></trkpt><trkpt lat="43.4503273" lon="12.5094083"><ele>685.0</ele><time>2026-04-16T10:14:26.718Z</time></trkpt><trkpt lat="43.450247" lon="12.5094113"><ele>685.0</ele><time>2026-04-16T10:14:27.718Z</time></trkpt><trkpt lat="43.4501784" lon="12.5094081"><ele>685.2</ele><time>2026-04-16T10:14:28.718Z</time></trkpt><trkpt lat="43.4500658" lon="12.5093605"><ele>685.4</ele><time>2026-04-16T10:14:30.719Z</time></trkpt><trkpt lat="43.4499791" lon="12.5092225"><ele>685.5999999999999</ele><time>2026-04-16T10:14:32.719Z</time></trkpt><trkpt lat="43.4499598" lon="12.5090619"><ele>685.8</ele><time>2026-04-16T10:14:34.719Z</time></trkpt><trkpt lat="43.449977" lon="12.5089779"><ele>686.0</ele><time>2026-04-16T10:14:35.718Z</time></trkpt><trkpt lat="43.4500156" lon="12.508896"><ele>686.0</ele><time>2026-04-16T10:14:36.718Z</time></trkpt><trkpt lat="43.4500454" lon="12.5088088"><ele>686.0</ele><time>2026-04-16T10:14:37.719Z</time></trkpt><trkpt lat="43.4500779" lon="12.508733"><ele>686.0</ele><time>2026-04-16T10:14:38.719Z</time></trkpt><trkpt lat="43.4500497" lon="12.50859"><ele>686.0</ele><time>2026-04-16T10:14:40.718Z</time></trkpt><trkpt lat="43.4499757" lon="12.5085211"><ele>686.0</ele><time>2026-04-16T10:14:41.72Z</time></trkpt><trkpt lat="43.4498789" lon="12.5083741"><ele>685.5999999999999</ele><time>2026-04-16T10:14:43.719Z</time></trkpt><trkpt lat="43.4498309" lon="12.5083002"><ele>685.2</ele><time>2026-04-16T10:14:44.719Z</time></trkpt><trkpt lat="43.4497718" lon="12.508136"><ele>684.8</ele><time>2026-04-16T10:14:45.719Z</time></trkpt><trkpt lat="43.4497108" lon="12.5079937"><ele>684.4000000000001</ele><time>2026-04-16T10:14:46.718Z</time></trkpt><trkpt lat="43.4496582" lon="12.5078804"><ele>684.0</ele><time>2026-04-16T10:14:47.719Z</time></trkpt><trkpt lat="43.4495976" lon="12.5077739"><ele>686.0</ele><time>2026-04-16T10:14:48.718Z</time></trkpt><trkpt lat="43.4495483" lon="12.5076724"><ele>688.0</ele><time>2026-04-16T10:14:49.718Z</time></trkpt><trkpt lat="43.4494736" lon="12.507583"><ele>690.0</ele><time>2026-04-16T10:14:50.719Z</time></trkpt><trkpt lat="43.4493969" lon="12.5074979"><ele>692.0</ele><time>2026-04-16T10:14:51.719Z</time></trkpt><trkpt lat="43.4492914" lon="12.5074193"><ele>694.0</ele><time>2026-04-16T10:14:52.718Z</time></trkpt><trkpt lat="43.449196" lon="12.5073422"><ele>694.0</ele><time>2026-04-16T10:14:53.716Z</time></trkpt><trkpt lat="43.4490943" lon="12.507264"><ele>694.0</ele><time>2026-04-16T10:14:54.719Z</time></trkpt><trkpt lat="43.4490097" lon="12.5071886"><ele>694.0</ele><time>2026-04-16T10:14:55.719Z</time></trkpt><trkpt lat="43.4489291" lon="12.5071475"><ele>694.0</ele><time>2026-04-16T10:14:56.716Z</time></trkpt><trkpt lat="43.448855" lon="12.5070941"><ele>694.0</ele><time>2026-04-16T10:14:57.718Z</time></trkpt><trkpt lat="43.4487851" lon="12.5070595"><ele>691.8000000000001</ele><time>2026-04-16T10:14:58.719Z</time></trkpt><trkpt lat="43.4487114" lon="12.507051"><ele>689.6</ele><time>2026-04-16T10:14:59.719Z</time></trkpt><trkpt lat="43.4485642" lon="12.5070411"><ele>687.4</ele><time>2026-04-16T10:15:01.718Z</time></trkpt><trkpt lat="43.4484662" lon="12.5070178"><ele>685.2</ele><time>2026-04-16T10:15:02.717Z</time></trkpt><trkpt lat="43.4483763" lon="12.5070095"><ele>683.0</ele><time>2026-04-16T10:15:03.718Z</time></trkpt><trkpt lat="43.4482668" lon="12.5069764"><ele>683.0</ele><time>2026-04-16T10:15:04.718Z</time></trkpt><trkpt lat="43.4481631" lon="12.5069465"><ele>683.0</ele><time>2026-04-16T10:15:05.718Z</time></trkpt><trkpt lat="43.44807" lon="12.5068993"><ele>683.0</ele><time>2026-04-16T10:15:06.719Z</time></trkpt><trkpt lat="43.4479886" lon="12.5068175"><ele>683.0</ele><time>2026-04-16T10:15:07.718Z</time></trkpt><trkpt lat="43.4479261" lon="12.5067443"><ele>683.0</ele><time>2026-04-16T10:15:08.718Z</time></trkpt><trkpt lat="43.4478862" lon="12.5066546"><ele>683.5</ele><time>2026-04-16T10:15:09.719Z</time></trkpt><trkpt lat="43.4478423" lon="12.5065598"><ele>684.0</ele><time>2026-04-16T10:15:10.719Z</time></trkpt><trkpt lat="43.4478108" lon="12.5064449"><ele>684.5</ele><time>2026-04-16T10:15:11.719Z</time></trkpt><trkpt lat="43.4477787" lon="12.506322"><ele>685.0</ele><time>2026-04-16T10:15:12.717Z</time></trkpt><trkpt lat="43.4477554" lon="12.5062071"><ele>685.5</ele><time>2026-04-16T10:15:13.719Z</time></trkpt><trkpt lat="43.4477242" lon="12.5060943"><ele>686.0</ele><time>2026-04-16T10:15:14.719Z</time></trkpt><trkpt lat="43.4476909" lon="12.5059726"><ele>683.8</ele><time>2026-04-16T10:15:15.718Z</time></trkpt><trkpt lat="43.4476595" lon="12.5058497"><ele>681.5999999999999</ele><time>2026-04-16T10:15:16.717Z</time></trkpt><trkpt lat="43.4476285" lon="12.5057029"><ele>679.4</ele><time>2026-04-16T10:15:17.72Z</time></trkpt><trkpt lat="43.4476147" lon="12.5055716"><ele>677.2</ele><time>2026-04-16T10:15:18.718Z</time></trkpt><trkpt lat="43.4475773" lon="12.5054271"><ele>675.0</ele><time>2026-04-16T10:15:19.72Z</time></trkpt><trkpt lat="43.4475532" lon="12.5053402"><ele>675.0</ele><time>2026-04-16T10:15:20.719Z</time></trkpt><trkpt lat="43.447507" lon="12.5052461"><ele>675.0</ele><time>2026-04-16T10:15:21.718Z</time></trkpt><trkpt lat="43.4474209" lon="12.5052017"><ele>675.0</ele><time>2026-04-16T10:15:22.719Z</time></trkpt><trkpt lat="43.4473316" lon="12.5051182"><ele>675.0</ele><time>2026-04-16T10:15:23.718Z</time></trkpt><trkpt lat="43.4472439" lon="12.5050439"><ele>675.0</ele><time>2026-04-16T10:15:24.719Z</time></trkpt><trkpt lat="43.4471734" lon="12.5049701"><ele>675.75</ele><time>2026-04-16T10:15:25.719Z</time></trkpt><trkpt lat="43.4470508" lon="12.5049057"><ele>676.5</ele><time>2026-04-16T10:15:26.719Z</time></trkpt><trkpt lat="43.4468816" lon="12.5048414"><ele>677.25</ele><time>2026-04-16T10:15:27.719Z</time></trkpt><trkpt lat="43.4467695" lon="12.5048057"><ele>678.0</ele><time>2026-04-16T10:15:28.719Z</time></trkpt><trkpt lat="43.4466081" lon="12.5047429"><ele>678.0</ele><time>2026-04-16T10:15:29.718Z</time></trkpt><trkpt lat="43.446489" lon="12.5046857"><ele>678.0</ele><time>2026-04-16T10:15:30.719Z</time></trkpt><trkpt lat="43.4464069" lon="12.5046191"><ele>678.0</ele><time>2026-04-16T10:15:31.718Z</time></trkpt><trkpt lat="43.4463501" lon="12.5045591"><ele>678.0</ele><time>2026-04-16T10:15:32.719Z</time></trkpt><trkpt lat="43.446269" lon="12.5044714"><ele>678.0</ele><time>2026-04-16T10:15:33.719Z</time></trkpt><trkpt lat="43.4461434" lon="12.5042759"><ele>681.75</ele><time>2026-04-16T10:15:34.72Z</time></trkpt><trkpt lat="43.4460502" lon="12.5041521"><ele>685.5</ele><time>2026-04-16T10:15:35.717Z</time></trkpt><trkpt lat="43.4459596" lon="12.504053"><ele>689.25</ele><time>2026-04-16T10:15:36.719Z</time></trkpt><trkpt lat="43.4458823" lon="12.5039468"><ele>693.0</ele><time>2026-04-16T10:15:37.719Z</time></trkpt><trkpt lat="43.4458195" lon="12.5038459"><ele>693.0</ele><time>2026-04-16T10:15:38.718Z</time></trkpt><trkpt lat="43.4457946" lon="12.5037583"><ele>693.0</ele><time>2026-04-16T10:15:39.719Z</time></trkpt><trkpt lat="43.4457698" lon="12.5036349"><ele>693.0</ele><time>2026-04-16T10:15:40.719Z</time></trkpt><trkpt lat="43.4457543" lon="12.5034883"><ele>693.0</ele><time>2026-04-16T10:15:41.719Z</time></trkpt><trkpt lat="43.4457515" lon="12.5033591"><ele>693.0</ele><time>2026-04-16T10:15:42.719Z</time></trkpt><trkpt lat="43.4457716" lon="12.5032648"><ele>693.0</ele><time>2026-04-16T10:15:43.719Z</time></trkpt><trkpt lat="43.4458658" lon="12.503158"><ele>693.1666666666666</ele><time>2026-04-16T10:15:45.719Z</time></trkpt><trkpt lat="43.4459345" lon="12.5031303"><ele>693.3333333333334</ele><time>2026-04-16T10:15:46.718Z</time></trkpt><trkpt lat="43.4460082" lon="12.5031449"><ele>693.5</ele><time>2026-04-16T10:15:47.719Z</time></trkpt><trkpt lat="43.4460855" lon="12.5031893"><ele>693.6666666666667</ele><time>2026-04-16T10:15:48.719Z</time></trkpt><trkpt lat="43.4461639" lon="12.5032492"><ele>693.8333333333334</ele><time>2026-04-16T10:15:49.719Z</time></trkpt><trkpt lat="43.4462437" lon="12.5033086"><ele>694.0</ele><time>2026-04-16T10:15:50.719Z</time></trkpt><trkpt lat="43.4463052" lon="12.5033574"><ele>694.1666666666667</ele><time>2026-04-16T10:15:51.718Z</time></trkpt><trkpt lat="43.4463826" lon="12.5033994"><ele>694.3333333333334</ele><time>2026-04-16T10:15:52.718Z</time></trkpt><trkpt lat="43.4464523" lon="12.5034313"><ele>694.5</ele><time>2026-04-16T10:15:53.719Z</time></trkpt><trkpt lat="43.4465284" lon="12.5034509"><ele>694.6666666666666</ele><time>2026-04-16T10:15:54.719Z</time></trkpt><trkpt lat="43.4465976" lon="12.5034279"><ele>694.8333333333333</ele><time>2026-04-16T10:15:55.719Z</time></trkpt><trkpt lat="43.4467069" lon="12.5033345"><ele>695.0</ele><time>2026-04-16T10:15:57.719Z</time></trkpt><trkpt lat="43.446771" lon="12.5032674"><ele>695.0</ele><time>2026-04-16T10:15:58.718Z</time></trkpt><trkpt lat="43.4468348" lon="12.5032128"><ele>695.0</ele><time>2026-04-16T10:15:59.718Z</time></trkpt><trkpt lat="43.4468981" lon="12.5031493"><ele>695.0</ele><time>2026-04-16T10:16:00.719Z</time></trkpt><trkpt lat="43.4469491" lon="12.5030684"><ele>695.0</ele><time>2026-04-16T10:16:01.719Z</time></trkpt><trkpt lat="43.4469904" lon="12.5029898"><ele>695.0</ele><time>2026-04-16T10:16:02.718Z</time></trkpt><trkpt lat="43.4469875" lon="12.5028903"><ele>695.0</ele><time>2026-04-16T10:16:03.718Z</time></trkpt><trkpt lat="43.4469327" lon="12.5027595"><ele>697.6666666666666</ele><time>2026-04-16T10:16:05.719Z</time></trkpt><trkpt lat="43.4468724" lon="12.5027197"><ele>700.3333333333333</ele><time>2026-04-16T10:16:06.719Z</time></trkpt><trkpt lat="43.4468222" lon="12.5026566"><ele>703.0</ele><time>2026-04-16T10:16:07.718Z</time></trkpt><trkpt lat="43.4467763" lon="12.5025457"><ele>705.6666666666666</ele><time>2026-04-16T10:16:09.719Z</time></trkpt><trkpt lat="43.4467551" lon="12.5024573"><ele>708.3333333333334</ele><time>2026-04-16T10:16:11.719Z</time></trkpt><trkpt lat="43.4468617" lon="12.5025155"><ele>711.0</ele><time>2026-04-16T10:16:12.718Z</time></trkpt><trkpt lat="43.4469853" lon="12.50257"><ele>711.0</ele><time>2026-04-16T10:16:14.719Z</time></trkpt><trkpt lat="43.447061" lon="12.5025989"><ele>711.0</ele><time>2026-04-16T10:16:15.719Z</time></trkpt><trkpt lat="43.4472033" lon="12.502686"><ele>711.0</ele><time>2026-04-16T10:16:16.719Z</time></trkpt><trkpt lat="43.4473178" lon="12.5027349"><ele>711.0</ele><time>2026-04-16T10:16:17.719Z</time></trkpt><trkpt lat="43.4474461" lon="12.5028094"><ele>710.0</ele><time>2026-04-16T10:16:18.719Z</time></trkpt><trkpt lat="43.4475304" lon="12.5028874"><ele>709.0</ele><time>2026-04-16T10:16:19.719Z</time></trkpt><trkpt lat="43.4476322" lon="12.5029366"><ele>708.0</ele><time>2026-04-16T10:16:20.718Z</time></trkpt><trkpt lat="43.4477261" lon="12.5029644"><ele>707.0</ele><time>2026-04-16T10:16:21.719Z</time></trkpt><trkpt lat="43.4477906" lon="12.5029795"><ele>706.0</ele><time>2026-04-16T10:16:22.719Z</time></trkpt><trkpt lat="43.4478534" lon="12.502922"><ele>705.0</ele><time>2026-04-16T10:16:23.718Z</time></trkpt><trkpt lat="43.4479044" lon="12.5028602"><ele>708.5</ele><time>2026-04-16T10:16:24.719Z</time></trkpt><trkpt lat="43.4479205" lon="12.5026634"><ele>712.0</ele><time>2026-04-16T10:16:26.72Z</time></trkpt><trkpt lat="43.4479267" lon="12.5025589"><ele>715.5</ele><time>2026-04-16T10:16:27.719Z</time></trkpt><trkpt lat="43.4478666" lon="12.5023855"><ele>719.0</ele><time>2026-04-16T10:16:28.719Z</time></trkpt><trkpt lat="43.4478493" lon="12.5022102"><ele>720.0</ele><time>2026-04-16T10:16:29.719Z</time></trkpt><trkpt lat="43.4478137" lon="12.502031"><ele>721.0</ele><time>2026-04-16T10:16:30.719Z</time></trkpt><trkpt lat="43.4477729" lon="12.5018317"><ele>722.0</ele><time>2026-04-16T10:16:31.719Z</time></trkpt><trkpt lat="43.4477328" lon="12.5016153"><ele>723.0</ele><time>2026-04-16T10:16:32.718Z</time></trkpt><trkpt lat="43.4476879" lon="12.5013878"><ele>722.0</ele><time>2026-04-16T10:16:33.718Z</time></trkpt><trkpt lat="43.4476405" lon="12.5011704"><ele>721.0</ele><time>2026-04-16T10:16:34.719Z</time></trkpt><trkpt lat="43.4476038" lon="12.5009599"><ele>720.0</ele><time>2026-04-16T10:16:35.718Z</time></trkpt><trkpt lat="43.4475923" lon="12.5007792"><ele>720.0</ele><time>2026-04-16T10:16:36.719Z</time></trkpt><trkpt lat="43.4475924" lon="12.5006148"><ele>720.0</ele><time>2026-04-16T10:16:37.719Z</time></trkpt><trkpt lat="43.4476" lon="12.500459"><ele>720.0</ele><time>2026-04-16T10:16:38.718Z</time></trkpt><trkpt lat="43.4476177" lon="12.5003173"><ele>720.0</ele><time>2026-04-16T10:16:39.718Z</time></trkpt><trkpt lat="43.4476643" lon="12.5001894"><ele>720.0</ele><time>2026-04-16T10:16:40.72Z</time></trkpt><trkpt lat="43.4477226" lon="12.5000771"><ele>718.75</ele><time>2026-04-16T10:16:41.719Z</time></trkpt><trkpt lat="43.4478557" lon="12.4999376"><ele>717.5</ele><time>2026-04-16T10:16:42.718Z</time></trkpt><trkpt lat="43.4479577" lon="12.4998304"><ele>716.25</ele><time>2026-04-16T10:16:43.718Z</time></trkpt><trkpt lat="43.4480543" lon="12.4997587"><ele>715.0</ele><time>2026-04-16T10:16:44.718Z</time></trkpt><trkpt lat="43.4481319" lon="12.499698"><ele>714.2</ele><time>2026-04-16T10:16:45.719Z</time></trkpt><trkpt lat="43.4482203" lon="12.4996548"><ele>713.4</ele><time>2026-04-16T10:16:46.719Z</time></trkpt><trkpt lat="43.4483025" lon="12.4996156"><ele>712.5999999999999</ele><time>2026-04-16T10:16:47.719Z</time></trkpt><trkpt lat="43.448394" lon="12.4995765"><ele>711.8</ele><time>2026-04-16T10:16:48.72Z</time></trkpt><trkpt lat="43.4484794" lon="12.4995333"><ele>711.0</ele><time>2026-04-16T10:16:49.719Z</time></trkpt><trkpt lat="43.4485736" lon="12.4994594"><ele>709.6666666666666</ele><time>2026-04-16T10:16:50.719Z</time></trkpt><trkpt lat="43.4486521" lon="12.499356"><ele>708.3333333333334</ele><time>2026-04-16T10:16:51.719Z</time></trkpt><trkpt lat="43.4487378" lon="12.4992748"><ele>707.0</ele><time>2026-04-16T10:16:52.719Z</time></trkpt><trkpt lat="43.4488091" lon="12.4991847"><ele>705.6666666666667</ele><time>2026-04-16T10:16:53.719Z</time></trkpt><trkpt lat="43.4488427" lon="12.4991109"><ele>704.3333333333334</ele><time>2026-04-16T10:16:54.719Z</time></trkpt><trkpt lat="43.4488881" lon="12.4990423"><ele>703.0</ele><time>2026-04-16T10:16:55.719Z</time></trkpt><trkpt lat="43.4489525" lon="12.4989646"><ele>702.5999999999999</ele><time>2026-04-16T10:16:56.719Z</time></trkpt><trkpt lat="43.4490064" lon="12.4988914"><ele>702.1999999999999</ele><time>2026-04-16T10:16:57.719Z</time></trkpt><trkpt lat="43.4491491" lon="12.4988361"><ele>701.8</ele><time>2026-04-16T10:16:59.719Z</time></trkpt><trkpt lat="43.4492469" lon="12.4988234"><ele>701.4</ele><time>2026-04-16T10:17:00.719Z</time></trkpt><trkpt lat="43.4493456" lon="12.4988156"><ele>701.0</ele><time>2026-04-16T10:17:01.719Z</time></trkpt><trkpt lat="43.4494619" lon="12.4988188"><ele>701.0</ele><time>2026-04-16T10:17:02.719Z</time></trkpt><trkpt lat="43.4495782" lon="12.498825"><ele>701.0</ele><time>2026-04-16T10:17:03.718Z</time></trkpt><trkpt lat="43.4497066" lon="12.4988205"><ele>701.0</ele><time>2026-04-16T10:17:04.718Z</time></trkpt><trkpt lat="43.449844" lon="12.4988175"><ele>701.0</ele><time>2026-04-16T10:17:05.719Z</time></trkpt><trkpt lat="43.4499873" lon="12.4988151"><ele>700.0</ele><time>2026-04-16T10:17:06.719Z</time></trkpt><trkpt lat="43.4501314" lon="12.4988152"><ele>699.0</ele><time>2026-04-16T10:17:07.718Z</time></trkpt><trkpt lat="43.4502767" lon="12.4988011"><ele>698.0</ele><time>2026-04-16T10:17:08.719Z</time></trkpt><trkpt lat="43.4504143" lon="12.4987943"><ele>697.0</ele><time>2026-04-16T10:17:09.718Z</time></trkpt><trkpt lat="43.4505486" lon="12.4987702"><ele>697.75</ele><time>2026-04-16T10:17:10.718Z</time></trkpt><trkpt lat="43.4506737" lon="12.4987355"><ele>698.5</ele><time>2026-04-16T10:17:11.718Z</time></trkpt><trkpt lat="43.4508026" lon="12.4987062"><ele>699.25</ele><time>2026-04-16T10:17:12.719Z</time></trkpt><trkpt lat="43.4509106" lon="12.4986723"><ele>700.0</ele><time>2026-04-16T10:17:13.719Z</time></trkpt><trkpt lat="43.4510027" lon="12.4986311"><ele>700.0</ele><time>2026-04-16T10:17:14.719Z</time></trkpt><trkpt lat="43.4510672" lon="12.4986077"><ele>700.0</ele><time>2026-04-16T10:17:15.719Z</time></trkpt><trkpt lat="43.4511606" lon="12.4985778"><ele>700.0</ele><time>2026-04-16T10:17:17.719Z</time></trkpt><trkpt lat="43.4510975" lon="12.4986309"><ele>700.0</ele><time>2026-04-16T10:17:27.719Z</time></trkpt><trkpt lat="43.4510245" lon="12.4986714"><ele>700.0</ele><time>2026-04-16T10:17:30.719Z</time></trkpt><trkpt lat="43.4509563" lon="12.4987043"><ele>700.0</ele><time>2026-04-16T10:17:34.718Z</time></trkpt><trkpt lat="43.4508872" lon="12.4987199"><ele>700.0</ele><time>2026-04-16T10:17:45.718Z</time></trkpt><trkpt lat="43.4509613" lon="12.4987252"><ele>700.0</ele><time>2026-04-16T10:17:58.72Z</time></trkpt><trkpt lat="43.4510198" lon="12.4986666"><ele>700.0</ele><time>2026-04-16T10:34:59.718Z</time></trkpt><trkpt lat="43.451112" lon="12.4986219"><ele>700.0</ele><time>2026-04-16T10:35:01.718Z</time></trkpt><trkpt lat="43.451215" lon="12.498566"><ele>700.0</ele><time>2026-04-16T10:35:03.719Z</time></trkpt><trkpt lat="43.451329" lon="12.498504"><ele>701.5714285714286</ele><time>2026-04-16T10:35:05.717Z</time></trkpt><trkpt lat="43.4514013" lon="12.4984657"><ele>703.1428571428571</ele><time>2026-04-16T10:35:06.718Z</time></trkpt><trkpt lat="43.4514632" lon="12.4984881"><ele>704.7142857142858</ele><time>2026-04-16T10:35:07.718Z</time></trkpt><trkpt lat="43.4515343" lon="12.4985177"><ele>706.2857142857142</ele><time>2026-04-16T10:35:08.716Z</time></trkpt><trkpt lat="43.451601" lon="12.4985501"><ele>707.8571428571429</ele><time>2026-04-16T10:35:09.718Z</time></trkpt><trkpt lat="43.4516754" lon="12.4985999"><ele>709.4285714285714</ele><time>2026-04-16T10:35:10.719Z</time></trkpt><trkpt lat="43.4517388" lon="12.4986559"><ele>711.0</ele><time>2026-04-16T10:35:11.719Z</time></trkpt><trkpt lat="43.4518022" lon="12.498719"><ele>709.1666666666666</ele><time>2026-04-16T10:35:12.718Z</time></trkpt><trkpt lat="43.4518491" lon="12.498798"><ele>707.3333333333334</ele><time>2026-04-16T10:35:13.719Z</time></trkpt><trkpt lat="43.4518905" lon="12.4988912"><ele>705.5</ele><time>2026-04-16T10:35:14.719Z</time></trkpt><trkpt lat="43.4519292" lon="12.4989841"><ele>703.6666666666667</ele><time>2026-04-16T10:35:15.718Z</time></trkpt><trkpt lat="43.4519652" lon="12.4990924"><ele>701.8333333333334</ele><time>2026-04-16T10:35:16.718Z</time></trkpt><trkpt lat="43.4520174" lon="12.4992199"><ele>700.0</ele><time>2026-04-16T10:35:17.719Z</time></trkpt><trkpt lat="43.452103" lon="12.4993869"><ele>700.0</ele><time>2026-04-16T10:35:19.719Z</time></trkpt><trkpt lat="43.4521652" lon="12.4994693"><ele>700.0</ele><time>2026-04-16T10:35:20.718Z</time></trkpt><trkpt lat="43.4522312" lon="12.4995389"><ele>700.0</ele><time>2026-04-16T10:35:21.719Z</time></trkpt><trkpt lat="43.4523178" lon="12.4996099"><ele>700.0</ele><time>2026-04-16T10:35:22.718Z</time></trkpt><trkpt lat="43.4523973" lon="12.4996554"><ele>700.0</ele><time>2026-04-16T10:35:23.717Z</time></trkpt><trkpt lat="43.452484" lon="12.4996856"><ele>700.0</ele><time>2026-04-16T10:35:24.719Z</time></trkpt><trkpt lat="43.4525631" lon="12.499738"><ele>700.0</ele><time>2026-04-16T10:35:25.719Z</time></trkpt><trkpt lat="43.4526484" lon="12.4997787"><ele>700.0</ele><time>2026-04-16T10:35:26.719Z</time></trkpt><trkpt lat="43.4527194" lon="12.4997988"><ele>700.0</ele><time>2026-04-16T10:35:27.719Z</time></trkpt><trkpt lat="43.4527985" lon="12.4997916"><ele>700.0</ele><time>2026-04-16T10:35:28.718Z</time></trkpt><trkpt lat="43.452878" lon="12.4997733"><ele>700.0</ele><time>2026-04-16T10:35:29.719Z</time></trkpt><trkpt lat="43.4529444" lon="12.4997122"><ele>700.0</ele><time>2026-04-16T10:35:30.719Z</time></trkpt><trkpt lat="43.4530036" lon="12.4996263"><ele>702.5</ele><time>2026-04-16T10:35:31.719Z</time></trkpt><trkpt lat="43.4530527" lon="12.4995437"><ele>705.0</ele><time>2026-04-16T10:35:32.719Z</time></trkpt><trkpt lat="43.4530549" lon="12.4994289"><ele>707.5</ele><time>2026-04-16T10:35:33.718Z</time></trkpt><trkpt lat="43.4530888" lon="12.4993244"><ele>710.0</ele><time>2026-04-16T10:35:34.719Z</time></trkpt><trkpt lat="43.4531176" lon="12.4992185"><ele>712.5</ele><time>2026-04-16T10:35:35.719Z</time></trkpt><trkpt lat="43.4531667" lon="12.4990651"><ele>715.0</ele><time>2026-04-16T10:35:37.719Z</time></trkpt><trkpt lat="43.4532208" lon="12.4989472"><ele>715.0</ele><time>2026-04-16T10:35:38.718Z</time></trkpt><trkpt lat="43.4532599" lon="12.4988483"><ele>715.0</ele><time>2026-04-16T10:35:39.719Z</time></trkpt><trkpt lat="43.4533087" lon="12.4987566"><ele>715.0</ele><time>2026-04-16T10:35:40.72Z</time></trkpt><trkpt lat="43.4534271" lon="12.4986833"><ele>715.0</ele><time>2026-04-16T10:35:42.718Z</time></trkpt><trkpt lat="43.4534925" lon="12.4986628"><ele>715.0</ele><time>2026-04-16T10:35:43.717Z</time></trkpt><trkpt lat="43.4535817" lon="12.4986883"><ele>715.0</ele><time>2026-04-16T10:35:44.719Z</time></trkpt><trkpt lat="43.4536756" lon="12.4987269"><ele>715.0</ele><time>2026-04-16T10:35:45.719Z</time></trkpt><trkpt lat="43.4537538" lon="12.4987589"><ele>715.0</ele><time>2026-04-16T10:35:46.719Z</time></trkpt><trkpt lat="43.4538305" lon="12.4987888"><ele>715.0</ele><time>2026-04-16T10:35:47.718Z</time></trkpt><trkpt lat="43.4539035" lon="12.4988265"><ele>715.0</ele><time>2026-04-16T10:35:48.718Z</time></trkpt><trkpt lat="43.4539866" lon="12.4988753"><ele>715.0</ele><time>2026-04-16T10:35:49.719Z</time></trkpt><trkpt lat="43.4540564" lon="12.4989279"><ele>717.0</ele><time>2026-04-16T10:35:50.719Z</time></trkpt><trkpt lat="43.4541216" lon="12.4990122"><ele>719.0</ele><time>2026-04-16T10:35:51.719Z</time></trkpt><trkpt lat="43.4541687" lon="12.4991283"><ele>721.0</ele><time>2026-04-16T10:35:52.717Z</time></trkpt><trkpt lat="43.4542291" lon="12.4992064"><ele>723.0</ele><time>2026-04-16T10:35:53.719Z</time></trkpt><trkpt lat="43.4542899" lon="12.4992873"><ele>725.0</ele><time>2026-04-16T10:35:54.719Z</time></trkpt><trkpt lat="43.4543579" lon="12.4993415"><ele>727.0</ele><time>2026-04-16T10:35:55.719Z</time></trkpt><trkpt lat="43.45447" lon="12.4993966"><ele>727.0</ele><time>2026-04-16T10:35:57.719Z</time></trkpt><trkpt lat="43.4545306" lon="12.499362"><ele>727.0</ele><time>2026-04-16T10:35:58.719Z</time></trkpt><trkpt lat="43.4545953" lon="12.4993326"><ele>727.0</ele><time>2026-04-16T10:35:59.718Z</time></trkpt><trkpt lat="43.4546569" lon="12.4992608"><ele>727.0</ele><time>2026-04-16T10:36:00.719Z</time></trkpt><trkpt lat="43.4547387" lon="12.4992376"><ele>727.0</ele><time>2026-04-16T10:36:01.718Z</time></trkpt><trkpt lat="43.4548151" lon="12.4992006"><ele>727.0</ele><time>2026-04-16T10:36:02.718Z</time></trkpt><trkpt lat="43.4549245" lon="12.499254"><ele>726.5</ele><time>2026-04-16T10:36:04.718Z</time></trkpt><trkpt lat="43.4550036" lon="12.4992945"><ele>726.0</ele><time>2026-04-16T10:36:05.719Z</time></trkpt><trkpt lat="43.4550694" lon="12.4993339"><ele>725.5</ele><time>2026-04-16T10:36:06.716Z</time></trkpt><trkpt lat="43.4551306" lon="12.4993963"><ele>725.0</ele><time>2026-04-16T10:36:07.72Z</time></trkpt><trkpt lat="43.4551951" lon="12.4994438"><ele>724.5</ele><time>2026-04-16T10:36:08.719Z</time></trkpt><trkpt lat="43.4552546" lon="12.4995173"><ele>724.0</ele><time>2026-04-16T10:36:09.719Z</time></trkpt><trkpt lat="43.4553119" lon="12.4995873"><ele>724.0</ele><time>2026-04-16T10:36:10.717Z</time></trkpt><trkpt lat="43.455375" lon="12.4996233"><ele>724.0</ele><time>2026-04-16T10:36:11.718Z</time></trkpt><trkpt lat="43.4554491" lon="12.4996316"><ele>724.0</ele><time>2026-04-16T10:36:12.718Z</time></trkpt><trkpt lat="43.4555216" lon="12.4996375"><ele>724.0</ele><time>2026-04-16T10:36:13.717Z</time></trkpt><trkpt lat="43.4555932" lon="12.4996072"><ele>724.0</ele><time>2026-04-16T10:36:14.718Z</time></trkpt><trkpt lat="43.4556752" lon="12.4995722"><ele>724.0</ele><time>2026-04-16T10:36:15.719Z</time></trkpt><trkpt lat="43.4557438" lon="12.4995472"><ele>724.0</ele><time>2026-04-16T10:36:16.718Z</time></trkpt><trkpt lat="43.4558291" lon="12.4995544"><ele>728.2</ele><time>2026-04-16T10:36:17.718Z</time></trkpt><trkpt lat="43.4559068" lon="12.4996257"><ele>732.4000000000001</ele><time>2026-04-16T10:36:18.718Z</time></trkpt><trkpt lat="43.4559707" lon="12.4997694"><ele>736.6</ele><time>2026-04-16T10:36:20.718Z</time></trkpt><trkpt lat="43.4560236" lon="12.4998643"><ele>740.8</ele><time>2026-04-16T10:36:21.718Z</time></trkpt><trkpt lat="43.4560518" lon="12.4999565"><ele>745.0</ele><time>2026-04-16T10:36:22.718Z</time></trkpt><trkpt lat="43.4560989" lon="12.5000524"><ele>745.0</ele><time>2026-04-16T10:36:24.717Z</time></trkpt><trkpt lat="43.4561935" lon="12.5001053"><ele>745.0</ele><time>2026-04-16T10:37:13.718Z</time></trkpt><trkpt lat="43.4562578" lon="12.5001293"><ele>745.0</ele><time>2026-04-16T10:37:14.719Z</time></trkpt><trkpt lat="43.4563302" lon="12.5001462"><ele>745.0</ele><time>2026-04-16T10:37:15.718Z</time></trkpt><trkpt lat="43.4564015" lon="12.500164"><ele>745.0</ele><time>2026-04-16T10:37:16.718Z</time></trkpt><trkpt lat="43.4564835" lon="12.5001907"><ele>745.0</ele><time>2026-04-16T10:37:17.72Z</time></trkpt><trkpt lat="43.4565643" lon="12.5002133"><ele>749.0</ele><time>2026-04-16T10:37:18.718Z</time></trkpt><trkpt lat="43.4566418" lon="12.5002346"><ele>753.0</ele><time>2026-04-16T10:37:19.718Z</time></trkpt><trkpt lat="43.4567226" lon="12.5002443"><ele>757.0</ele><time>2026-04-16T10:37:20.719Z</time></trkpt><trkpt lat="43.4568089" lon="12.5002456"><ele>761.0</ele><time>2026-04-16T10:37:21.718Z</time></trkpt><trkpt lat="43.4569426" lon="12.500222"><ele>765.0</ele><time>2026-04-16T10:37:23.719Z</time></trkpt><trkpt lat="43.457011" lon="12.5002628"><ele>765.0</ele><time>2026-04-16T10:37:24.719Z</time></trkpt><trkpt lat="43.4570697" lon="12.5003183"><ele>765.0</ele><time>2026-04-16T10:37:25.719Z</time></trkpt><trkpt lat="43.4571283" lon="12.5003796"><ele>765.0</ele><time>2026-04-16T10:37:26.719Z</time></trkpt><trkpt lat="43.4571868" lon="12.5004669"><ele>765.0</ele><time>2026-04-16T10:37:27.719Z</time></trkpt><trkpt lat="43.4572457" lon="12.5005612"><ele>765.0</ele><time>2026-04-16T10:37:28.719Z</time></trkpt><trkpt lat="43.4572958" lon="12.5006594"><ele>765.0</ele><time>2026-04-16T10:37:29.719Z</time></trkpt><trkpt lat="43.457352" lon="12.5007787"><ele>765.0</ele><time>2026-04-16T10:37:30.719Z</time></trkpt><trkpt lat="43.4574097" lon="12.5009017"><ele>765.0</ele><time>2026-04-16T10:37:31.718Z</time></trkpt><trkpt lat="43.4574441" lon="12.5010258"><ele>765.0</ele><time>2026-04-16T10:37:32.719Z</time></trkpt><trkpt lat="43.4574679" lon="12.5011563"><ele>765.0</ele><time>2026-04-16T10:37:33.718Z</time></trkpt><trkpt lat="43.4574599" lon="12.5013126"><ele>765.0</ele><time>2026-04-16T10:37:34.719Z</time></trkpt><trkpt lat="43.4574376" lon="12.5014454"><ele>763.4285714285714</ele><time>2026-04-16T10:37:35.719Z</time></trkpt><trkpt lat="43.4574237" lon="12.501538"><ele>761.8571428571429</ele><time>2026-04-16T10:37:36.719Z</time></trkpt><trkpt lat="43.4574221" lon="12.5016359"><ele>760.2857142857142</ele><time>2026-04-16T10:37:37.719Z</time></trkpt><trkpt lat="43.4574396" lon="12.5017318"><ele>758.7142857142858</ele><time>2026-04-16T10:37:38.719Z</time></trkpt><trkpt lat="43.4574815" lon="12.5018122"><ele>757.1428571428571</ele><time>2026-04-16T10:37:39.717Z</time></trkpt><trkpt lat="43.4575391" lon="12.5018704"><ele>755.5714285714286</ele><time>2026-04-16T10:37:40.718Z</time></trkpt><trkpt lat="43.4576006" lon="12.5019157"><ele>754.0</ele><time>2026-04-16T10:37:41.718Z</time></trkpt><trkpt lat="43.4577047" lon="12.5019296"><ele>754.0</ele><time>2026-04-16T10:37:42.719Z</time></trkpt><trkpt lat="43.4578023" lon="12.5019793"><ele>754.0</ele><time>2026-04-16T10:37:43.718Z</time></trkpt><trkpt lat="43.4578885" lon="12.5020326"><ele>754.0</ele><time>2026-04-16T10:37:44.719Z</time></trkpt><trkpt lat="43.457981" lon="12.5021117"><ele>754.0</ele><time>2026-04-16T10:37:45.718Z</time></trkpt><trkpt lat="43.4580667" lon="12.5021949"><ele>754.0</ele><time>2026-04-16T10:37:46.718Z</time></trkpt><trkpt lat="43.4581395" lon="12.5022618"><ele>754.0</ele><time>2026-04-16T10:37:47.719Z</time></trkpt><trkpt lat="43.4582139" lon="12.5023335"><ele>754.0</ele><time>2026-04-16T10:37:48.718Z</time></trkpt><trkpt lat="43.4582906" lon="12.5023887"><ele>754.0</ele><time>2026-04-16T10:37:49.718Z</time></trkpt><trkpt lat="43.4583736" lon="12.5024007"><ele>754.0</ele><time>2026-04-16T10:37:50.719Z</time></trkpt><trkpt lat="43.458469" lon="12.5023955"><ele>754.0</ele><time>2026-04-16T10:37:51.718Z</time></trkpt><trkpt lat="43.4585611" lon="12.5023771"><ele>754.0</ele><time>2026-04-16T10:37:52.718Z</time></trkpt><trkpt lat="43.4586512" lon="12.502342"><ele>754.0</ele><time>2026-04-16T10:37:53.72Z</time></trkpt><trkpt lat="43.4587083" lon="12.5022975"><ele>754.0</ele><time>2026-04-16T10:37:54.719Z</time></trkpt><trkpt lat="43.4587902" lon="12.5022376"><ele>754.0</ele><time>2026-04-16T10:37:55.717Z</time></trkpt><trkpt lat="43.4588611" lon="12.5021579"><ele>754.0</ele><time>2026-04-16T10:37:56.719Z</time></trkpt><trkpt lat="43.4589202" lon="12.5020463"><ele>754.0</ele><time>2026-04-16T10:37:57.718Z</time></trkpt><trkpt lat="43.4589741" lon="12.5019242"><ele>754.2</ele><time>2026-04-16T10:37:58.719Z</time></trkpt><trkpt lat="43.4590336" lon="12.5017956"><ele>754.4000000000001</ele><time>2026-04-16T10:37:59.719Z</time></trkpt><trkpt lat="43.4590903" lon="12.5016943"><ele>754.6</ele><time>2026-04-16T10:38:00.719Z</time></trkpt><trkpt lat="43.4591497" lon="12.5015954"><ele>754.8</ele><time>2026-04-16T10:38:01.719Z</time></trkpt><trkpt lat="43.4592182" lon="12.501497"><ele>755.0</ele><time>2026-04-16T10:38:02.718Z</time></trkpt><trkpt lat="43.4593126" lon="12.5014092"><ele>755.0</ele><time>2026-04-16T10:38:03.719Z</time></trkpt><trkpt lat="43.459399" lon="12.5013302"><ele>755.0</ele><time>2026-04-16T10:38:04.719Z</time></trkpt><trkpt lat="43.459514" lon="12.5012525"><ele>755.0</ele><time>2026-04-16T10:38:05.718Z</time></trkpt><trkpt lat="43.4596225" lon="12.501184"><ele>755.0</ele><time>2026-04-16T10:38:06.719Z</time></trkpt><trkpt lat="43.4597176" lon="12.5011145"><ele>754.0</ele><time>2026-04-16T10:38:07.718Z</time></trkpt><trkpt lat="43.4598194" lon="12.5010104"><ele>753.0</ele><time>2026-04-16T10:38:08.719Z</time></trkpt><trkpt lat="43.459907" lon="12.500928"><ele>752.0</ele><time>2026-04-16T10:38:09.717Z</time></trkpt><trkpt lat="43.4599979" lon="12.5008502"><ele>751.0</ele><time>2026-04-16T10:38:10.717Z</time></trkpt><trkpt lat="43.4601025" lon="12.5007875"><ele>751.0</ele><time>2026-04-16T10:38:11.719Z</time></trkpt><trkpt lat="43.460213" lon="12.5007416"><ele>751.0</ele><time>2026-04-16T10:38:12.719Z</time></trkpt><trkpt lat="43.4603654" lon="12.5007264"><ele>751.0</ele><time>2026-04-16T10:38:13.719Z</time></trkpt><trkpt lat="43.4605038" lon="12.5007059"><ele>751.0</ele><time>2026-04-16T10:38:14.719Z</time></trkpt><trkpt lat="43.4606368" lon="12.5007285"><ele>752.25</ele><time>2026-04-16T10:38:15.717Z</time></trkpt><trkpt lat="43.4607674" lon="12.5007838"><ele>753.5</ele><time>2026-04-16T10:38:16.719Z</time></trkpt><trkpt lat="43.4608755" lon="12.5008541"><ele>754.75</ele><time>2026-04-16T10:38:17.718Z</time></trkpt><trkpt lat="43.4609734" lon="12.5009492"><ele>756.0</ele><time>2026-04-16T10:38:18.719Z</time></trkpt><trkpt lat="43.4610457" lon="12.5010515"><ele>756.0</ele><time>2026-04-16T10:38:19.719Z</time></trkpt><trkpt lat="43.461117" lon="12.5011437"><ele>756.0</ele><time>2026-04-16T10:38:20.718Z</time></trkpt><trkpt lat="43.4611875" lon="12.5012159"><ele>756.0</ele><time>2026-04-16T10:38:21.717Z</time></trkpt><trkpt lat="43.461278" lon="12.5012822"><ele>756.0</ele><time>2026-04-16T10:38:22.718Z</time></trkpt><trkpt lat="43.4613674" lon="12.5013403"><ele>756.0</ele><time>2026-04-16T10:38:23.719Z</time></trkpt><trkpt lat="43.4614604" lon="12.5013942"><ele>753.0</ele><time>2026-04-16T10:38:24.719Z</time></trkpt><trkpt lat="43.4615748" lon="12.5014383"><ele>750.0</ele><time>2026-04-16T10:38:25.717Z</time></trkpt><trkpt lat="43.4616927" lon="12.5014844"><ele>747.0</ele><time>2026-04-16T10:38:26.719Z</time></trkpt><trkpt lat="43.4617945" lon="12.5015328"><ele>744.0</ele><time>2026-04-16T10:38:27.718Z</time></trkpt><trkpt lat="43.4618958" lon="12.5015986"><ele>744.0</ele><time>2026-04-16T10:38:28.718Z</time></trkpt><trkpt lat="43.4619827" lon="12.501686"><ele>744.0</ele><time>2026-04-16T10:38:29.718Z</time></trkpt><trkpt lat="43.4620681" lon="12.5017703"><ele>744.0</ele><time>2026-04-16T10:38:30.717Z</time></trkpt><trkpt lat="43.4621378" lon="12.5018758"><ele>744.0</ele><time>2026-04-16T10:38:31.718Z</time></trkpt><trkpt lat="43.4621899" lon="12.501993"><ele>744.0</ele><time>2026-04-16T10:38:32.718Z</time></trkpt><trkpt lat="43.4622392" lon="12.5021133"><ele>745.6</ele><time>2026-04-16T10:38:33.718Z</time></trkpt><trkpt lat="43.4622586" lon="12.5022344"><ele>747.2</ele><time>2026-04-16T10:38:34.719Z</time></trkpt><trkpt lat="43.4622878" lon="12.5023579"><ele>748.8000000000001</ele><time>2026-04-16T10:38:35.718Z</time></trkpt><trkpt lat="43.4623438" lon="12.5024775"><ele>750.4000000000001</ele><time>2026-04-16T10:38:36.718Z</time></trkpt><trkpt lat="43.4624107" lon="12.5026058"><ele>752.0</ele><time>2026-04-16T10:38:37.719Z</time></trkpt><trkpt lat="43.4624738" lon="12.502719"><ele>752.0</ele><time>2026-04-16T10:38:38.719Z</time></trkpt><trkpt lat="43.4625652" lon="12.5028366"><ele>752.0</ele><time>2026-04-16T10:38:39.719Z</time></trkpt><trkpt lat="43.4626336" lon="12.5029463"><ele>752.0</ele><time>2026-04-16T10:38:40.718Z</time></trkpt><trkpt lat="43.46272" lon="12.5030355"><ele>752.0</ele><time>2026-04-16T10:38:41.718Z</time></trkpt><trkpt lat="43.4628153" lon="12.5030987"><ele>752.0</ele><time>2026-04-16T10:38:42.718Z</time></trkpt><trkpt lat="43.4629076" lon="12.5031511"><ele>751.5</ele><time>2026-04-16T10:38:43.718Z</time></trkpt><trkpt lat="43.4630156" lon="12.5031977"><ele>751.0</ele><time>2026-04-16T10:38:44.718Z</time></trkpt><trkpt lat="43.4631296" lon="12.5032581"><ele>750.5</ele><time>2026-04-16T10:38:45.719Z</time></trkpt><trkpt lat="43.4632528" lon="12.5032982"><ele>750.0</ele><time>2026-04-16T10:38:46.719Z</time></trkpt><trkpt lat="43.4633607" lon="12.5034146"><ele>750.0</ele><time>2026-04-16T10:38:47.718Z</time></trkpt><trkpt lat="43.4634743" lon="12.5035141"><ele>750.0</ele><time>2026-04-16T10:38:48.719Z</time></trkpt><trkpt lat="43.4635858" lon="12.5036083"><ele>750.0</ele><time>2026-04-16T10:38:49.719Z</time></trkpt><trkpt lat="43.4636972" lon="12.5037204"><ele>750.0</ele><time>2026-04-16T10:38:50.719Z</time></trkpt><trkpt lat="43.4638047" lon="12.5038266"><ele>749.75</ele><time>2026-04-16T10:38:51.719Z</time></trkpt><trkpt lat="43.4639235" lon="12.5039339"><ele>749.5</ele><time>2026-04-16T10:38:52.718Z</time></trkpt><trkpt lat="43.4640438" lon="12.5040317"><ele>749.25</ele><time>2026-04-16T10:38:53.717Z</time></trkpt><trkpt lat="43.464151" lon="12.5041549"><ele>749.0</ele><time>2026-04-16T10:38:54.718Z</time></trkpt><trkpt lat="43.4642338" lon="12.5042735"><ele>749.0</ele><time>2026-04-16T10:38:55.718Z</time></trkpt><trkpt lat="43.4642972" lon="12.5043774"><ele>749.0</ele><time>2026-04-16T10:38:56.718Z</time></trkpt><trkpt lat="43.4643611" lon="12.5044866"><ele>749.0</ele><time>2026-04-16T10:38:57.718Z</time></trkpt><trkpt lat="43.4644298" lon="12.504589"><ele>749.0</ele><time>2026-04-16T10:38:58.719Z</time></trkpt><trkpt lat="43.4644963" lon="12.5046701"><ele>749.0</ele><time>2026-04-16T10:38:59.718Z</time></trkpt><trkpt lat="43.4645785" lon="12.5047534"><ele>749.0</ele><time>2026-04-16T10:39:00.719Z</time></trkpt><trkpt lat="43.4646799" lon="12.5048074"><ele>749.0</ele><time>2026-04-16T10:39:01.72Z</time></trkpt><trkpt lat="43.4647663" lon="12.504857"><ele>749.0</ele><time>2026-04-16T10:39:02.719Z</time></trkpt><trkpt lat="43.4648656" lon="12.5048851"><ele>749.0</ele><time>2026-04-16T10:39:03.718Z</time></trkpt><trkpt lat="43.464975" lon="12.5048882"><ele>749.0</ele><time>2026-04-16T10:39:04.717Z</time></trkpt><trkpt lat="43.4650954" lon="12.504915"><ele>749.0</ele><time>2026-04-16T10:39:05.718Z</time></trkpt><trkpt lat="43.4652163" lon="12.5049071"><ele>749.0</ele><time>2026-04-16T10:39:06.718Z</time></trkpt><trkpt lat="43.4653283" lon="12.5049172"><ele>749.0</ele><time>2026-04-16T10:39:07.718Z</time></trkpt><trkpt lat="43.4654486" lon="12.50493"><ele>749.0</ele><time>2026-04-16T10:39:08.718Z</time></trkpt><trkpt lat="43.4655677" lon="12.5049392"><ele>748.25</ele><time>2026-04-16T10:39:09.719Z</time></trkpt><trkpt lat="43.4656932" lon="12.5049199"><ele>747.5</ele><time>2026-04-16T10:39:10.719Z</time></trkpt><trkpt lat="43.4658203" lon="12.504925"><ele>746.75</ele><time>2026-04-16T10:39:11.718Z</time></trkpt><trkpt lat="43.465956" lon="12.5049307"><ele>746.0</ele><time>2026-04-16T10:39:12.718Z</time></trkpt><trkpt lat="43.4660905" lon="12.5049353"><ele>746.0</ele><time>2026-04-16T10:39:13.717Z</time></trkpt><trkpt lat="43.4662159" lon="12.5049408"><ele>746.0</ele><time>2026-04-16T10:39:14.719Z</time></trkpt><trkpt lat="43.4663309" lon="12.5049428"><ele>746.0</ele><time>2026-04-16T10:39:15.717Z</time></trkpt><trkpt lat="43.4664361" lon="12.5049372"><ele>746.0</ele><time>2026-04-16T10:39:16.719Z</time></trkpt><trkpt lat="43.4665501" lon="12.5049324"><ele>746.5</ele><time>2026-04-16T10:39:17.718Z</time></trkpt><trkpt lat="43.4666788" lon="12.5049211"><ele>747.0</ele><time>2026-04-16T10:39:18.719Z</time></trkpt><trkpt lat="43.4668051" lon="12.5049086"><ele>747.5</ele><time>2026-04-16T10:39:19.719Z</time></trkpt><trkpt lat="43.4669296" lon="12.5048812"><ele>748.0</ele><time>2026-04-16T10:39:20.719Z</time></trkpt><trkpt lat="43.4670569" lon="12.5048331"><ele>748.25</ele><time>2026-04-16T10:39:21.719Z</time></trkpt><trkpt lat="43.4671931" lon="12.5047994"><ele>748.5</ele><time>2026-04-16T10:39:22.719Z</time></trkpt><trkpt lat="43.4673362" lon="12.5047755"><ele>748.75</ele><time>2026-04-16T10:39:23.718Z</time></trkpt><trkpt lat="43.4674953" lon="12.5047687"><ele>749.0</ele><time>2026-04-16T10:39:24.718Z</time></trkpt><trkpt lat="43.4676431" lon="12.5047694"><ele>749.0</ele><time>2026-04-16T10:39:25.718Z</time></trkpt><trkpt lat="43.4677839" lon="12.5047879"><ele>749.0</ele><time>2026-04-16T10:39:26.718Z</time></trkpt><trkpt lat="43.4679081" lon="12.5048154"><ele>749.0</ele><time>2026-04-16T10:39:27.717Z</time></trkpt><trkpt lat="43.4680372" lon="12.5048536"><ele>749.0</ele><time>2026-04-16T10:39:28.718Z</time></trkpt><trkpt lat="43.4681494" lon="12.5049123"><ele>749.5</ele><time>2026-04-16T10:39:29.719Z</time></trkpt><trkpt lat="43.4682521" lon="12.5050038"><ele>750.0</ele><time>2026-04-16T10:39:30.717Z</time></trkpt><trkpt lat="43.4683451" lon="12.505099"><ele>750.5</ele><time>2026-04-16T10:39:31.719Z</time></trkpt><trkpt lat="43.4684275" lon="12.5052193"><ele>751.0</ele><time>2026-04-16T10:39:32.72Z</time></trkpt><trkpt lat="43.4685157" lon="12.5053252"><ele>752.5</ele><time>2026-04-16T10:39:33.717Z</time></trkpt><trkpt lat="43.4686167" lon="12.5054221"><ele>754.0</ele><time>2026-04-16T10:39:34.718Z</time></trkpt><trkpt lat="43.468735" lon="12.5055097"><ele>755.5</ele><time>2026-04-16T10:39:35.717Z</time></trkpt><trkpt lat="43.4688608" lon="12.5055876"><ele>757.0</ele><time>2026-04-16T10:39:36.718Z</time></trkpt><trkpt lat="43.4689925" lon="12.505655"><ele>757.5</ele><time>2026-04-16T10:39:37.719Z</time></trkpt><trkpt lat="43.4691091" lon="12.505714"><ele>758.0</ele><time>2026-04-16T10:39:38.719Z</time></trkpt><trkpt lat="43.4692272" lon="12.5057694"><ele>758.5</ele><time>2026-04-16T10:39:39.719Z</time></trkpt><trkpt lat="43.4693548" lon="12.5058131"><ele>759.0</ele><time>2026-04-16T10:39:40.719Z</time></trkpt><trkpt lat="43.4694793" lon="12.5058621"><ele>759.0</ele><time>2026-04-16T10:39:41.719Z</time></trkpt><trkpt lat="43.4695885" lon="12.5059061"><ele>759.0</ele><time>2026-04-16T10:39:42.718Z</time></trkpt><trkpt lat="43.4697004" lon="12.5059484"><ele>759.0</ele><time>2026-04-16T10:39:43.718Z</time></trkpt><trkpt lat="43.4698164" lon="12.5059959"><ele>759.0</ele><time>2026-04-16T10:39:44.72Z</time></trkpt><trkpt lat="43.4699081" lon="12.5060273"><ele>759.0</ele><time>2026-04-16T10:39:45.718Z</time></trkpt><trkpt lat="43.4699907" lon="12.5060597"><ele>757.2</ele><time>2026-04-16T10:39:46.719Z</time></trkpt><trkpt lat="43.4700725" lon="12.5060992"><ele>755.4000000000001</ele><time>2026-04-16T10:39:47.718Z</time></trkpt><trkpt lat="43.4701507" lon="12.5062454"><ele>753.6</ele><time>2026-04-16T10:39:49.718Z</time></trkpt><trkpt lat="43.4701808" lon="12.5063441"><ele>751.8</ele><time>2026-04-16T10:39:50.718Z</time></trkpt><trkpt lat="43.470215" lon="12.5064497"><ele>750.0</ele><time>2026-04-16T10:39:51.718Z</time></trkpt><trkpt lat="43.470261" lon="12.5065469"><ele>750.0</ele><time>2026-04-16T10:39:52.718Z</time></trkpt><trkpt lat="43.4703144" lon="12.5066257"><ele>750.0</ele><time>2026-04-16T10:39:53.717Z</time></trkpt><trkpt lat="43.4704028" lon="12.5066746"><ele>750.0</ele><time>2026-04-16T10:39:54.719Z</time></trkpt><trkpt lat="43.4705022" lon="12.5067192"><ele>750.0</ele><time>2026-04-16T10:39:55.718Z</time></trkpt><trkpt lat="43.4705945" lon="12.5067453"><ele>750.0</ele><time>2026-04-16T10:39:56.718Z</time></trkpt><trkpt lat="43.4706905" lon="12.5067794"><ele>748.0</ele><time>2026-04-16T10:39:57.719Z</time></trkpt><trkpt lat="43.4707914" lon="12.5068174"><ele>746.0</ele><time>2026-04-16T10:39:58.718Z</time></trkpt><trkpt lat="43.4708883" lon="12.5068036"><ele>744.0</ele><time>2026-04-16T10:39:59.717Z</time></trkpt><trkpt lat="43.4709844" lon="12.5067893"><ele>742.0</ele><time>2026-04-16T10:40:00.719Z</time></trkpt><trkpt lat="43.4710806" lon="12.5067488"><ele>740.0</ele><time>2026-04-16T10:40:01.717Z</time></trkpt><trkpt lat="43.4711729" lon="12.5066853"><ele>740.0</ele><time>2026-04-16T10:40:02.718Z</time></trkpt><trkpt lat="43.4712727" lon="12.5066082"><ele>740.0</ele><time>2026-04-16T10:40:03.718Z</time></trkpt><trkpt lat="43.4713718" lon="12.506528"><ele>740.0</ele><time>2026-04-16T10:40:04.719Z</time></trkpt><trkpt lat="43.4714614" lon="12.5064103"><ele>740.0</ele><time>2026-04-16T10:40:05.717Z</time></trkpt><trkpt lat="43.4715344" lon="12.5062837"><ele>738.25</ele><time>2026-04-16T10:40:06.717Z</time></trkpt><trkpt lat="43.4716128" lon="12.5061537"><ele>736.5</ele><time>2026-04-16T10:40:07.719Z</time></trkpt><trkpt lat="43.4716815" lon="12.506006"><ele>734.75</ele><time>2026-04-16T10:40:08.719Z</time></trkpt><trkpt lat="43.4717363" lon="12.5058549"><ele>733.0</ele><time>2026-04-16T10:40:09.719Z</time></trkpt><trkpt lat="43.4717912" lon="12.5057047"><ele>733.0</ele><time>2026-04-16T10:40:10.719Z</time></trkpt><trkpt lat="43.4718721" lon="12.5055709"><ele>733.0</ele><time>2026-04-16T10:40:11.719Z</time></trkpt><trkpt lat="43.4719347" lon="12.5054258"><ele>733.0</ele><time>2026-04-16T10:40:12.718Z</time></trkpt><trkpt lat="43.4720035" lon="12.5052871"><ele>733.0</ele><time>2026-04-16T10:40:13.718Z</time></trkpt><trkpt lat="43.472078" lon="12.5051681"><ele>733.4</ele><time>2026-04-16T10:40:14.719Z</time></trkpt><trkpt lat="43.4721426" lon="12.5050464"><ele>733.8</ele><time>2026-04-16T10:40:15.719Z</time></trkpt><trkpt lat="43.4722079" lon="12.5049245"><ele>734.2</ele><time>2026-04-16T10:40:16.717Z</time></trkpt><trkpt lat="43.4722634" lon="12.5047896"><ele>734.6</ele><time>2026-04-16T10:40:17.72Z</time></trkpt><trkpt lat="43.472334" lon="12.5046701"><ele>735.0</ele><time>2026-04-16T10:40:18.719Z</time></trkpt><trkpt lat="43.4724017" lon="12.5045502"><ele>735.0</ele><time>2026-04-16T10:40:19.719Z</time></trkpt><trkpt lat="43.4724966" lon="12.5044697"><ele>735.0</ele><time>2026-04-16T10:40:20.72Z</time></trkpt><trkpt lat="43.4725933" lon="12.5044268"><ele>735.0</ele><time>2026-04-16T10:40:21.718Z</time></trkpt><trkpt lat="43.4726873" lon="12.5043883"><ele>735.0</ele><time>2026-04-16T10:40:22.718Z</time></trkpt><trkpt lat="43.4728101" lon="12.5043795"><ele>735.0</ele><time>2026-04-16T10:40:23.72Z</time></trkpt><trkpt lat="43.4729208" lon="12.5043916"><ele>732.2</ele><time>2026-04-16T10:40:24.718Z</time></trkpt><trkpt lat="43.4730095" lon="12.5044095"><ele>729.4</ele><time>2026-04-16T10:40:25.718Z</time></trkpt><trkpt lat="43.4731075" lon="12.5044391"><ele>726.5999999999999</ele><time>2026-04-16T10:40:26.717Z</time></trkpt><trkpt lat="43.4732084" lon="12.504464"><ele>723.8</ele><time>2026-04-16T10:40:27.718Z</time></trkpt><trkpt lat="43.4733185" lon="12.5044932"><ele>721.0</ele><time>2026-04-16T10:40:28.718Z</time></trkpt><trkpt lat="43.473441" lon="12.5045051"><ele>721.0</ele><time>2026-04-16T10:40:29.718Z</time></trkpt><trkpt lat="43.473563" lon="12.504517"><ele>721.0</ele><time>2026-04-16T10:40:30.718Z</time></trkpt><trkpt lat="43.4736889" lon="12.5045255"><ele>721.0</ele><time>2026-04-16T10:40:31.718Z</time></trkpt><trkpt lat="43.4738181" lon="12.5045348"><ele>721.0</ele><time>2026-04-16T10:40:32.719Z</time></trkpt><trkpt lat="43.4739481" lon="12.5045279"><ele>717.25</ele><time>2026-04-16T10:40:33.719Z</time></trkpt><trkpt lat="43.4740705" lon="12.5045171"><ele>713.5</ele><time>2026-04-16T10:40:34.718Z</time></trkpt><trkpt lat="43.4741838" lon="12.5045152"><ele>709.75</ele><time>2026-04-16T10:40:35.719Z</time></trkpt><trkpt lat="43.4742984" lon="12.5045255"><ele>706.0</ele><time>2026-04-16T10:40:36.719Z</time></trkpt><trkpt lat="43.4744095" lon="12.5045334"><ele>706.0</ele><time>2026-04-16T10:40:37.718Z</time></trkpt><trkpt lat="43.4745044" lon="12.504526"><ele>706.0</ele><time>2026-04-16T10:40:38.72Z</time></trkpt><trkpt lat="43.4746011" lon="12.5044849"><ele>706.0</ele><time>2026-04-16T10:40:39.718Z</time></trkpt><trkpt lat="43.4747031" lon="12.5044297"><ele>706.0</ele><time>2026-04-16T10:40:40.718Z</time></trkpt><trkpt lat="43.4747808" lon="12.504349"><ele>706.0</ele><time>2026-04-16T10:40:41.718Z</time></trkpt><trkpt lat="43.474847" lon="12.5042315"><ele>706.4</ele><time>2026-04-16T10:40:42.719Z</time></trkpt><trkpt lat="43.4749001" lon="12.5040937"><ele>706.8</ele><time>2026-04-16T10:40:43.718Z</time></trkpt><trkpt lat="43.4749477" lon="12.5039558"><ele>707.1999999999999</ele><time>2026-04-16T10:40:44.718Z</time></trkpt><trkpt lat="43.4749852" lon="12.5038258"><ele>707.5999999999999</ele><time>2026-04-16T10:40:45.72Z</time></trkpt><trkpt lat="43.4750324" lon="12.5036916"><ele>708.0</ele><time>2026-04-16T10:40:46.718Z</time></trkpt><trkpt lat="43.4750777" lon="12.5035986"><ele>708.0</ele><time>2026-04-16T10:40:47.718Z</time></trkpt><trkpt lat="43.475131" lon="12.5035243"><ele>708.0</ele><time>2026-04-16T10:40:48.719Z</time></trkpt><trkpt lat="43.4751949" lon="12.5034772"><ele>708.0</ele><time>2026-04-16T10:40:49.719Z</time></trkpt><trkpt lat="43.475267" lon="12.5034483"><ele>708.0</ele><time>2026-04-16T10:40:50.719Z</time></trkpt><trkpt lat="43.4753488" lon="12.5034346"><ele>708.0</ele><time>2026-04-16T10:40:51.718Z</time></trkpt><trkpt lat="43.4754536" lon="12.5034082"><ele>708.0</ele><time>2026-04-16T10:40:52.72Z</time></trkpt><trkpt lat="43.4755592" lon="12.5033797"><ele>711.25</ele><time>2026-04-16T10:40:53.719Z</time></trkpt><trkpt lat="43.4756588" lon="12.5033365"><ele>714.5</ele><time>2026-04-16T10:40:54.719Z</time></trkpt><trkpt lat="43.4757451" lon="12.5032216"><ele>717.75</ele><time>2026-04-16T10:40:55.72Z</time></trkpt><trkpt lat="43.475827" lon="12.5031306"><ele>721.0</ele><time>2026-04-16T10:40:56.718Z</time></trkpt><trkpt lat="43.4758916" lon="12.502974"><ele>719.4</ele><time>2026-04-16T10:40:57.719Z</time></trkpt><trkpt lat="43.4759565" lon="12.5028293"><ele>717.8</ele><time>2026-04-16T10:40:58.719Z</time></trkpt><trkpt lat="43.4760211" lon="12.5026844"><ele>716.1999999999999</ele><time>2026-04-16T10:40:59.719Z</time></trkpt><trkpt lat="43.4760686" lon="12.5025816"><ele>714.5999999999999</ele><time>2026-04-16T10:41:00.72Z</time></trkpt><trkpt lat="43.4761243" lon="12.502487"><ele>713.0</ele><time>2026-04-16T10:41:01.718Z</time></trkpt><trkpt lat="43.4761897" lon="12.502396"><ele>713.0</ele><time>2026-04-16T10:41:02.718Z</time></trkpt><trkpt lat="43.4762533" lon="12.502329"><ele>713.0</ele><time>2026-04-16T10:41:03.719Z</time></trkpt><trkpt lat="43.4763209" lon="12.5022703"><ele>713.0</ele><time>2026-04-16T10:41:04.719Z</time></trkpt><trkpt lat="43.4763954" lon="12.5022898"><ele>713.0</ele><time>2026-04-16T10:41:05.719Z</time></trkpt><trkpt lat="43.4765002" lon="12.5023459"><ele>713.0</ele><time>2026-04-16T10:41:06.718Z</time></trkpt><trkpt lat="43.4766054" lon="12.502374"><ele>713.0</ele><time>2026-04-16T10:41:07.718Z</time></trkpt><trkpt lat="43.4767176" lon="12.5024087"><ele>713.0</ele><time>2026-04-16T10:41:08.719Z</time></trkpt><trkpt lat="43.4768072" lon="12.5024075"><ele>713.0</ele><time>2026-04-16T10:41:09.719Z</time></trkpt><trkpt lat="43.4769216" lon="12.5024375"><ele>713.0</ele><time>2026-04-16T10:41:10.719Z</time></trkpt><trkpt lat="43.4770384" lon="12.5024836"><ele>713.0</ele><time>2026-04-16T10:41:11.719Z</time></trkpt><trkpt lat="43.4771419" lon="12.5024906"><ele>710.4</ele><time>2026-04-16T10:41:12.718Z</time></trkpt><trkpt lat="43.4772483" lon="12.5024963"><ele>707.8</ele><time>2026-04-16T10:41:13.718Z</time></trkpt><trkpt lat="43.4773428" lon="12.5024969"><ele>705.2</ele><time>2026-04-16T10:41:14.719Z</time></trkpt><trkpt lat="43.4774348" lon="12.5024854"><ele>702.6</ele><time>2026-04-16T10:41:15.718Z</time></trkpt><trkpt lat="43.4775188" lon="12.5024477"><ele>700.0</ele><time>2026-04-16T10:41:16.718Z</time></trkpt><trkpt lat="43.4775941" lon="12.5024016"><ele>700.0</ele><time>2026-04-16T10:41:17.718Z</time></trkpt><trkpt lat="43.4776623" lon="12.5023399"><ele>700.0</ele><time>2026-04-16T10:41:18.719Z</time></trkpt><trkpt lat="43.4777297" lon="12.5022719"><ele>700.0</ele><time>2026-04-16T10:41:19.718Z</time></trkpt><trkpt lat="43.4778277" lon="12.5022053"><ele>700.0</ele><time>2026-04-16T10:41:21.719Z</time></trkpt><trkpt lat="43.4779273" lon="12.502126"><ele>700.0</ele><time>2026-04-16T10:41:23.719Z</time></trkpt><trkpt lat="43.4779907" lon="12.5020857"><ele>700.8333333333334</ele><time>2026-04-16T10:41:24.718Z</time></trkpt><trkpt lat="43.4780507" lon="12.5020295"><ele>701.6666666666667</ele><time>2026-04-16T10:41:25.719Z</time></trkpt><trkpt lat="43.4781303" lon="12.5019657"><ele>702.5</ele><time>2026-04-16T10:41:26.719Z</time></trkpt><trkpt lat="43.4782121" lon="12.5019174"><ele>703.3333333333334</ele><time>2026-04-16T10:41:27.718Z</time></trkpt><trkpt lat="43.4782985" lon="12.5018791"><ele>704.1666666666666</ele><time>2026-04-16T10:41:28.718Z</time></trkpt><trkpt lat="43.4783876" lon="12.5018515"><ele>705.0</ele><time>2026-04-16T10:41:29.717Z</time></trkpt><trkpt lat="43.4784568" lon="12.5018267"><ele>705.0</ele><time>2026-04-16T10:41:30.718Z</time></trkpt><trkpt lat="43.4785421" lon="12.5018102"><ele>705.0</ele><time>2026-04-16T10:41:31.718Z</time></trkpt><trkpt lat="43.4786314" lon="12.501787"><ele>705.0</ele><time>2026-04-16T10:41:32.717Z</time></trkpt><trkpt lat="43.4787334" lon="12.501765"><ele>705.0</ele><time>2026-04-16T10:41:33.718Z</time></trkpt><trkpt lat="43.4788297" lon="12.5017136"><ele>705.0</ele><time>2026-04-16T10:41:34.718Z</time></trkpt><trkpt lat="43.4789474" lon="12.5016246"><ele>702.75</ele><time>2026-04-16T10:41:35.719Z</time></trkpt><trkpt lat="43.4790309" lon="12.5015077"><ele>700.5</ele><time>2026-04-16T10:41:36.718Z</time></trkpt><trkpt lat="43.4791224" lon="12.5014024"><ele>698.25</ele><time>2026-04-16T10:41:37.718Z</time></trkpt><trkpt lat="43.479213" lon="12.5013006"><ele>696.0</ele><time>2026-04-16T10:41:38.718Z</time></trkpt><trkpt lat="43.4793036" lon="12.5012019"><ele>696.0</ele><time>2026-04-16T10:41:39.718Z</time></trkpt><trkpt lat="43.4793985" lon="12.5011225"><ele>696.0</ele><time>2026-04-16T10:41:40.719Z</time></trkpt><trkpt lat="43.4794957" lon="12.5011311"><ele>696.0</ele><time>2026-04-16T10:41:41.718Z</time></trkpt><trkpt lat="43.4796088" lon="12.5011043"><ele>696.0</ele><time>2026-04-16T10:41:42.718Z</time></trkpt><trkpt lat="43.4797079" lon="12.5010965"><ele>696.0</ele><time>2026-04-16T10:41:43.719Z</time></trkpt><trkpt lat="43.4797961" lon="12.5010888"><ele>695.0</ele><time>2026-04-16T10:41:44.719Z</time></trkpt><trkpt lat="43.4798607" lon="12.5010707"><ele>694.0</ele><time>2026-04-16T10:41:45.718Z</time></trkpt><trkpt lat="43.4799329" lon="12.5010105"><ele>693.0</ele><time>2026-04-16T10:41:46.717Z</time></trkpt><trkpt lat="43.479983" lon="12.5009506"><ele>692.0</ele><time>2026-04-16T10:41:47.719Z</time></trkpt><trkpt lat="43.4800128" lon="12.5007786"><ele>691.0</ele><time>2026-04-16T10:41:49.718Z</time></trkpt><trkpt lat="43.4799853" lon="12.5006772"><ele>690.0</ele><time>2026-04-16T10:41:50.718Z</time></trkpt><trkpt lat="43.4799368" lon="12.5005889"><ele>690.0</ele><time>2026-04-16T10:41:51.719Z</time></trkpt><trkpt lat="43.4798801" lon="12.5005113"><ele>690.0</ele><time>2026-04-16T10:41:52.718Z</time></trkpt><trkpt lat="43.4798358" lon="12.5004403"><ele>690.0</ele><time>2026-04-16T10:41:53.718Z</time></trkpt><trkpt lat="43.4798519" lon="12.5003445"><ele>690.0</ele><time>2026-04-16T10:41:55.719Z</time></trkpt><trkpt lat="43.479958" lon="12.5003424"><ele>690.0</ele><time>2026-04-16T10:41:57.718Z</time></trkpt><trkpt lat="43.4800409" lon="12.5003596"><ele>690.0</ele><time>2026-04-16T10:41:58.719Z</time></trkpt><trkpt lat="43.480131" lon="12.5003921"><ele>687.0</ele><time>2026-04-16T10:41:59.718Z</time></trkpt><trkpt lat="43.480218" lon="12.5003947"><ele>684.0</ele><time>2026-04-16T10:42:00.718Z</time></trkpt><trkpt lat="43.4803136" lon="12.5003804"><ele>681.0</ele><time>2026-04-16T10:42:01.718Z</time></trkpt><trkpt lat="43.4804037" lon="12.5003539"><ele>678.0</ele><time>2026-04-16T10:42:02.718Z</time></trkpt><trkpt lat="43.4804896" lon="12.5002613"><ele>675.0</ele><time>2026-04-16T10:42:03.719Z</time></trkpt><trkpt lat="43.4805756" lon="12.5002016"><ele>675.0</ele><time>2026-04-16T10:42:04.718Z</time></trkpt><trkpt lat="43.4806516" lon="12.5001234"><ele>675.0</ele><time>2026-04-16T10:42:05.718Z</time></trkpt><trkpt lat="43.4807332" lon="12.5000454"><ele>675.0</ele><time>2026-04-16T10:42:06.719Z</time></trkpt><trkpt lat="43.4808088" lon="12.4999683"><ele>675.0</ele><time>2026-04-16T10:42:07.718Z</time></trkpt><trkpt lat="43.4808619" lon="12.4998856"><ele>675.0</ele><time>2026-04-16T10:42:08.719Z</time></trkpt><trkpt lat="43.4808699" lon="12.4997989"><ele>675.0</ele><time>2026-04-16T10:42:09.718Z</time></trkpt><trkpt lat="43.4808364" lon="12.4997246"><ele>675.0</ele><time>2026-04-16T10:42:10.718Z</time></trkpt><trkpt lat="43.4807905" lon="12.4996602"><ele>675.0</ele><time>2026-04-16T10:42:11.718Z</time></trkpt><trkpt lat="43.4807002" lon="12.4996635"><ele>675.0</ele><time>2026-04-16T10:42:12.719Z</time></trkpt><trkpt lat="43.4805921" lon="12.4996469"><ele>675.0</ele><time>2026-04-16T10:42:13.717Z</time></trkpt><trkpt lat="43.4804961" lon="12.4996485"><ele>675.0</ele><time>2026-04-16T10:42:14.719Z</time></trkpt><trkpt lat="43.4803951" lon="12.4996313"><ele>674.6</ele><time>2026-04-16T10:42:15.719Z</time></trkpt><trkpt lat="43.48029" lon="12.4996183"><ele>674.2</ele><time>2026-04-16T10:42:16.718Z</time></trkpt><trkpt lat="43.4801912" lon="12.4996016"><ele>673.8</ele><time>2026-04-16T10:42:17.718Z</time></trkpt><trkpt lat="43.4800918" lon="12.499562"><ele>673.4</ele><time>2026-04-16T10:42:18.718Z</time></trkpt><trkpt lat="43.479998" lon="12.499514"><ele>673.0</ele><time>2026-04-16T10:42:19.719Z</time></trkpt><trkpt lat="43.4799029" lon="12.49945"><ele>668.8</ele><time>2026-04-16T10:42:20.718Z</time></trkpt><trkpt lat="43.4798078" lon="12.4993827"><ele>664.5999999999999</ele><time>2026-04-16T10:42:21.718Z</time></trkpt><trkpt lat="43.4797048" lon="12.4993217"><ele>660.4000000000001</ele><time>2026-04-16T10:42:22.718Z</time></trkpt><trkpt lat="43.479606" lon="12.4992564"><ele>656.2</ele><time>2026-04-16T10:42:23.719Z</time></trkpt><trkpt lat="43.4794986" lon="12.4991971"><ele>652.0</ele><time>2026-04-16T10:42:24.719Z</time></trkpt><trkpt lat="43.4793943" lon="12.4991408"><ele>651.6</ele><time>2026-04-16T10:42:25.718Z</time></trkpt><trkpt lat="43.479292" lon="12.4990802"><ele>651.2</ele><time>2026-04-16T10:42:26.719Z</time></trkpt><trkpt lat="43.4791969" lon="12.4990403"><ele>650.8</ele><time>2026-04-16T10:42:27.718Z</time></trkpt><trkpt lat="43.4790973" lon="12.4989931"><ele>650.4</ele><time>2026-04-16T10:42:28.719Z</time></trkpt><trkpt lat="43.4789896" lon="12.4989282"><ele>650.0</ele><time>2026-04-16T10:42:29.719Z</time></trkpt><trkpt lat="43.478901" lon="12.4988361"><ele>646.4</ele><time>2026-04-16T10:42:30.719Z</time></trkpt><trkpt lat="43.4788195" lon="12.4987381"><ele>642.8</ele><time>2026-04-16T10:42:31.719Z</time></trkpt><trkpt lat="43.4787343" lon="12.4986511"><ele>639.2</ele><time>2026-04-16T10:42:32.719Z</time></trkpt><trkpt lat="43.4786442" lon="12.4985953"><ele>635.6</ele><time>2026-04-16T10:42:33.717Z</time></trkpt><trkpt lat="43.4785519" lon="12.4985943"><ele>632.0</ele><time>2026-04-16T10:42:34.718Z</time></trkpt><trkpt lat="43.4784647" lon="12.4986465"><ele>631.0</ele><time>2026-04-16T10:42:35.719Z</time></trkpt><trkpt lat="43.4783806" lon="12.498724"><ele>630.0</ele><time>2026-04-16T10:42:36.718Z</time></trkpt><trkpt lat="43.4783063" lon="12.4988097"><ele>629.0</ele><time>2026-04-16T10:42:37.719Z</time></trkpt><trkpt lat="43.4782227" lon="12.4988886"><ele>628.0</ele><time>2026-04-16T10:42:38.718Z</time></trkpt><trkpt lat="43.4781281" lon="12.4989331"><ele>627.0</ele><time>2026-04-16T10:42:39.718Z</time></trkpt><trkpt lat="43.4780256" lon="12.4989198"><ele>629.75</ele><time>2026-04-16T10:42:40.719Z</time></trkpt><trkpt lat="43.4779334" lon="12.4988937"><ele>632.5</ele><time>2026-04-16T10:42:41.718Z</time></trkpt><trkpt lat="43.4778297" lon="12.4988486"><ele>635.25</ele><time>2026-04-16T10:42:42.719Z</time></trkpt><trkpt lat="43.4777101" lon="12.4987984"><ele>638.0</ele><time>2026-04-16T10:42:43.719Z</time></trkpt><trkpt lat="43.4775714" lon="12.4987529"><ele>632.0</ele><time>2026-04-16T10:42:44.719Z</time></trkpt><trkpt lat="43.4774421" lon="12.4986973"><ele>626.0</ele><time>2026-04-16T10:42:45.718Z</time></trkpt><trkpt lat="43.4773251" lon="12.4986792"><ele>620.0</ele><time>2026-04-16T10:42:46.719Z</time></trkpt><trkpt lat="43.4772081" lon="12.4986912"><ele>614.0</ele><time>2026-04-16T10:42:47.719Z</time></trkpt><trkpt lat="43.4771101" lon="12.4987502"><ele>617.2</ele><time>2026-04-16T10:42:48.718Z</time></trkpt><trkpt lat="43.477035" lon="12.4988325"><ele>620.4</ele><time>2026-04-16T10:42:49.719Z</time></trkpt><trkpt lat="43.4769902" lon="12.4989429"><ele>623.6</ele><time>2026-04-16T10:42:50.717Z</time></trkpt><trkpt lat="43.4769697" lon="12.4990756"><ele>626.8</ele><time>2026-04-16T10:42:51.718Z</time></trkpt><trkpt lat="43.4769528" lon="12.4992093"><ele>630.0</ele><time>2026-04-16T10:42:52.719Z</time></trkpt><trkpt lat="43.476852" lon="12.4992906"><ele>630.0</ele><time>2026-04-16T10:42:53.72Z</time></trkpt><trkpt lat="43.4767827" lon="12.4993874"><ele>630.0</ele><time>2026-04-16T10:42:54.718Z</time></trkpt><trkpt lat="43.4766477" lon="12.4994165"><ele>630.0</ele><time>2026-04-16T10:42:55.719Z</time></trkpt><trkpt lat="43.4765491" lon="12.4994122"><ele>630.0</ele><time>2026-04-16T10:42:56.719Z</time></trkpt><trkpt lat="43.4764594" lon="12.4993637"><ele>630.0</ele><time>2026-04-16T10:42:57.717Z</time></trkpt><trkpt lat="43.4763905" lon="12.4992763"><ele>630.0</ele><time>2026-04-16T10:42:58.719Z</time></trkpt><trkpt lat="43.4763378" lon="12.4991841"><ele>630.0</ele><time>2026-04-16T10:42:59.717Z</time></trkpt><trkpt lat="43.4763023" lon="12.4990675"><ele>630.0</ele><time>2026-04-16T10:43:00.719Z</time></trkpt><trkpt lat="43.4762438" lon="12.4989929"><ele>630.0</ele><time>2026-04-16T10:43:01.719Z</time></trkpt><trkpt lat="43.4761833" lon="12.498956"><ele>630.0</ele><time>2026-04-16T10:43:02.717Z</time></trkpt><trkpt lat="43.476109" lon="12.4989579"><ele>630.0</ele><time>2026-04-16T10:43:03.718Z</time></trkpt><trkpt lat="43.4760294" lon="12.4989825"><ele>629.4</ele><time>2026-04-16T10:43:04.718Z</time></trkpt><trkpt lat="43.475942" lon="12.4990186"><ele>628.8</ele><time>2026-04-16T10:43:05.719Z</time></trkpt><trkpt lat="43.4758416" lon="12.4990624"><ele>628.2</ele><time>2026-04-16T10:43:06.719Z</time></trkpt><trkpt lat="43.4757373" lon="12.4991157"><ele>627.6</ele><time>2026-04-16T10:43:07.718Z</time></trkpt><trkpt lat="43.4756214" lon="12.4991841"><ele>627.0</ele><time>2026-04-16T10:43:08.718Z</time></trkpt><trkpt lat="43.4754984" lon="12.4992506"><ele>625.3333333333334</ele><time>2026-04-16T10:43:09.719Z</time></trkpt><trkpt lat="43.4753707" lon="12.4993292"><ele>623.6666666666667</ele><time>2026-04-16T10:43:10.719Z</time></trkpt><trkpt lat="43.4752279" lon="12.4994189"><ele>622.0</ele><time>2026-04-16T10:43:11.718Z</time></trkpt><trkpt lat="43.4750758" lon="12.4995066"><ele>622.0</ele><time>2026-04-16T10:43:12.718Z</time></trkpt><trkpt lat="43.474914" lon="12.4995802"><ele>622.0</ele><time>2026-04-16T10:43:13.719Z</time></trkpt><trkpt lat="43.4747575" lon="12.4996532"><ele>622.0</ele><time>2026-04-16T10:43:14.717Z</time></trkpt><trkpt lat="43.47461" lon="12.4997257"><ele>625.6</ele><time>2026-04-16T10:43:15.718Z</time></trkpt><trkpt lat="43.474495" lon="12.4997861"><ele>629.2</ele><time>2026-04-16T10:43:16.717Z</time></trkpt><trkpt lat="43.4743957" lon="12.4998209"><ele>632.8</ele><time>2026-04-16T10:43:17.718Z</time></trkpt><trkpt lat="43.4743127" lon="12.4998362"><ele>636.4</ele><time>2026-04-16T10:43:18.718Z</time></trkpt><trkpt lat="43.4742151" lon="12.49979"><ele>640.0</ele><time>2026-04-16T10:43:19.719Z</time></trkpt><trkpt lat="43.474143" lon="12.4997569"><ele>640.0</ele><time>2026-04-16T10:43:20.717Z</time></trkpt><trkpt lat="43.4741065" lon="12.4996142"><ele>640.0</ele><time>2026-04-16T10:43:21.719Z</time></trkpt><trkpt lat="43.4740502" lon="12.4994831"><ele>640.0</ele><time>2026-04-16T10:43:22.717Z</time></trkpt><trkpt lat="43.4739911" lon="12.4993502"><ele>640.0</ele><time>2026-04-16T10:43:23.718Z</time></trkpt><trkpt lat="43.4738816" lon="12.4991946"><ele>639.5</ele><time>2026-04-16T10:43:24.719Z</time></trkpt><trkpt lat="43.4737972" lon="12.4990534"><ele>639.0</ele><time>2026-04-16T10:43:25.718Z</time></trkpt><trkpt lat="43.4737177" lon="12.4989214"><ele>638.5</ele><time>2026-04-16T10:43:26.72Z</time></trkpt><trkpt lat="43.4736252" lon="12.4987959"><ele>638.0</ele><time>2026-04-16T10:43:27.719Z</time></trkpt><trkpt lat="43.4735439" lon="12.4986621"><ele>634.0</ele><time>2026-04-16T10:43:28.718Z</time></trkpt><trkpt lat="43.473473" lon="12.4985282"><ele>630.0</ele><time>2026-04-16T10:43:29.719Z</time></trkpt><trkpt lat="43.4734172" lon="12.4983975"><ele>626.0</ele><time>2026-04-16T10:43:30.717Z</time></trkpt><trkpt lat="43.4733308" lon="12.4983192"><ele>622.0</ele><time>2026-04-16T10:43:31.717Z</time></trkpt><trkpt lat="43.4732357" lon="12.4982685"><ele>618.0</ele><time>2026-04-16T10:43:32.718Z</time></trkpt><trkpt lat="43.4731292" lon="12.4982503"><ele>618.0</ele><time>2026-04-16T10:43:33.719Z</time></trkpt><trkpt lat="43.4730086" lon="12.4982695"><ele>618.0</ele><time>2026-04-16T10:43:34.718Z</time></trkpt><trkpt lat="43.4728758" lon="12.4982924"><ele>618.0</ele><time>2026-04-16T10:43:35.718Z</time></trkpt><trkpt lat="43.4727247" lon="12.4983211"><ele>618.0</ele><time>2026-04-16T10:43:36.718Z</time></trkpt><trkpt lat="43.4725755" lon="12.4983589"><ele>617.75</ele><time>2026-04-16T10:43:37.717Z</time></trkpt><trkpt lat="43.4724335" lon="12.4983943"><ele>617.5</ele><time>2026-04-16T10:43:38.719Z</time></trkpt><trkpt lat="43.4722932" lon="12.4984353"><ele>617.25</ele><time>2026-04-16T10:43:39.718Z</time></trkpt><trkpt lat="43.4721616" lon="12.4984661"><ele>617.0</ele><time>2026-04-16T10:43:40.719Z</time></trkpt><trkpt lat="43.4720572" lon="12.4984853"><ele>619.6666666666666</ele><time>2026-04-16T10:43:41.718Z</time></trkpt><trkpt lat="43.4719731" lon="12.4984912"><ele>622.3333333333333</ele><time>2026-04-16T10:43:42.718Z</time></trkpt><trkpt lat="43.4719092" lon="12.4984496"><ele>625.0</ele><time>2026-04-16T10:43:43.717Z</time></trkpt><trkpt lat="43.4718526" lon="12.4983992"><ele>627.6666666666666</ele><time>2026-04-16T10:43:44.719Z</time></trkpt><trkpt lat="43.4718245" lon="12.4982962"><ele>630.3333333333334</ele><time>2026-04-16T10:43:45.719Z</time></trkpt><trkpt lat="43.4718362" lon="12.4981758"><ele>633.0</ele><time>2026-04-16T10:43:46.718Z</time></trkpt><trkpt lat="43.4718318" lon="12.4980577"><ele>633.0</ele><time>2026-04-16T10:43:47.718Z</time></trkpt><trkpt lat="43.4718059" lon="12.4979248"><ele>633.0</ele><time>2026-04-16T10:43:48.718Z</time></trkpt><trkpt lat="43.4717688" lon="12.4977661"><ele>633.0</ele><time>2026-04-16T10:43:49.719Z</time></trkpt><trkpt lat="43.4717176" lon="12.4975998"><ele>633.0</ele><time>2026-04-16T10:43:50.718Z</time></trkpt><trkpt lat="43.4716676" lon="12.4974299"><ele>630.0</ele><time>2026-04-16T10:43:51.718Z</time></trkpt><trkpt lat="43.4716358" lon="12.4972465"><ele>627.0</ele><time>2026-04-16T10:43:52.719Z</time></trkpt><trkpt lat="43.4715973" lon="12.4970912"><ele>624.0</ele><time>2026-04-16T10:43:53.718Z</time></trkpt><trkpt lat="43.4715429" lon="12.4969478"><ele>621.0</ele><time>2026-04-16T10:43:54.719Z</time></trkpt><trkpt lat="43.4714899" lon="12.49684"><ele>620.6</ele><time>2026-04-16T10:43:55.719Z</time></trkpt><trkpt lat="43.4714295" lon="12.4967441"><ele>620.2</ele><time>2026-04-16T10:43:56.719Z</time></trkpt><trkpt lat="43.4713618" lon="12.4966982"><ele>619.8</ele><time>2026-04-16T10:43:57.717Z</time></trkpt><trkpt lat="43.4712829" lon="12.4966722"><ele>619.4</ele><time>2026-04-16T10:43:58.719Z</time></trkpt><trkpt lat="43.4711849" lon="12.4967053"><ele>619.0</ele><time>2026-04-16T10:43:59.717Z</time></trkpt><trkpt lat="43.4710862" lon="12.4967582"><ele>619.0</ele><time>2026-04-16T10:44:00.719Z</time></trkpt><trkpt lat="43.4709771" lon="12.4968217"><ele>619.0</ele><time>2026-04-16T10:44:01.718Z</time></trkpt><trkpt lat="43.470849" lon="12.4968749"><ele>619.0</ele><time>2026-04-16T10:44:02.719Z</time></trkpt><trkpt lat="43.4707123" lon="12.4969385"><ele>619.0</ele><time>2026-04-16T10:44:03.719Z</time></trkpt><trkpt lat="43.4705749" lon="12.4969959"><ele>619.0</ele><time>2026-04-16T10:44:04.719Z</time></trkpt><trkpt lat="43.4704506" lon="12.4970595"><ele>619.0</ele><time>2026-04-16T10:44:05.718Z</time></trkpt><trkpt lat="43.4703149" lon="12.4971087"><ele>619.0</ele><time>2026-04-16T10:44:06.718Z</time></trkpt><trkpt lat="43.4701777" lon="12.4970869"><ele>619.0</ele><time>2026-04-16T10:44:07.719Z</time></trkpt><trkpt lat="43.4700419" lon="12.4970656"><ele>619.0</ele><time>2026-04-16T10:44:08.719Z</time></trkpt><trkpt lat="43.4698957" lon="12.497012"><ele>619.0</ele><time>2026-04-16T10:44:09.718Z</time></trkpt><trkpt lat="43.4697573" lon="12.4969525"><ele>619.0</ele><time>2026-04-16T10:44:10.718Z</time></trkpt><trkpt lat="43.4696397" lon="12.4968706"><ele>619.0</ele><time>2026-04-16T10:44:11.72Z</time></trkpt><trkpt lat="43.4695419" lon="12.4967538"><ele>619.0</ele><time>2026-04-16T10:44:12.719Z</time></trkpt><trkpt lat="43.4694357" lon="12.4966399"><ele>619.0</ele><time>2026-04-16T10:44:13.719Z</time></trkpt><trkpt lat="43.4693689" lon="12.4964781"><ele>619.0</ele><time>2026-04-16T10:44:14.72Z</time></trkpt><trkpt lat="43.4693005" lon="12.4963367"><ele>619.0</ele><time>2026-04-16T10:44:15.719Z</time></trkpt><trkpt lat="43.4692349" lon="12.4961911"><ele>619.0</ele><time>2026-04-16T10:44:16.716Z</time></trkpt><trkpt lat="43.4692219" lon="12.4960135"><ele>619.0</ele><time>2026-04-16T10:44:17.719Z</time></trkpt><trkpt lat="43.4691924" lon="12.4958516"><ele>619.0</ele><time>2026-04-16T10:44:18.718Z</time></trkpt><trkpt lat="43.4691635" lon="12.4956889"><ele>619.0</ele><time>2026-04-16T10:44:19.718Z</time></trkpt><trkpt lat="43.4691166" lon="12.4955751"><ele>619.0</ele><time>2026-04-16T10:44:20.719Z</time></trkpt><trkpt lat="43.4691281" lon="12.4954761"><ele>619.0</ele><time>2026-04-16T10:44:21.717Z</time></trkpt><trkpt lat="43.469165" lon="12.4953979"><ele>619.0</ele><time>2026-04-16T10:44:22.717Z</time></trkpt><trkpt lat="43.4692259" lon="12.4953389"><ele>619.0</ele><time>2026-04-16T10:44:23.719Z</time></trkpt><trkpt lat="43.469299" lon="12.4953465"><ele>619.0</ele><time>2026-04-16T10:44:24.717Z</time></trkpt><trkpt lat="43.4693972" lon="12.4953884"><ele>619.0</ele><time>2026-04-16T10:44:25.719Z</time></trkpt><trkpt lat="43.4695079" lon="12.4954075"><ele>622.5</ele><time>2026-04-16T10:44:26.718Z</time></trkpt><trkpt lat="43.4696325" lon="12.4954075"><ele>626.0</ele><time>2026-04-16T10:44:27.719Z</time></trkpt><trkpt lat="43.4697776" lon="12.495399"><ele>629.5</ele><time>2026-04-16T10:44:28.718Z</time></trkpt><trkpt lat="43.4699302" lon="12.4953858"><ele>633.0</ele><time>2026-04-16T10:44:29.717Z</time></trkpt><trkpt lat="43.4700777" lon="12.4953748"><ele>633.0</ele><time>2026-04-16T10:44:30.719Z</time></trkpt><trkpt lat="43.4702031" lon="12.4953672"><ele>633.0</ele><time>2026-04-16T10:44:31.719Z</time></trkpt><trkpt lat="43.4703215" lon="12.4953469"><ele>633.0</ele><time>2026-04-16T10:44:32.719Z</time></trkpt><trkpt lat="43.4704295" lon="12.4952475"><ele>633.0</ele><time>2026-04-16T10:44:33.718Z</time></trkpt><trkpt lat="43.4705081" lon="12.495128"><ele>631.0</ele><time>2026-04-16T10:44:34.718Z</time></trkpt><trkpt lat="43.4705823" lon="12.4949712"><ele>629.0</ele><time>2026-04-16T10:44:35.719Z</time></trkpt><trkpt lat="43.4706561" lon="12.494793"><ele>627.0</ele><time>2026-04-16T10:44:36.719Z</time></trkpt><trkpt lat="43.4707543" lon="12.4946155"><ele>625.0</ele><time>2026-04-16T10:44:37.719Z</time></trkpt><trkpt lat="43.4708571" lon="12.4944471"><ele>630.3333333333334</ele><time>2026-04-16T10:44:38.719Z</time></trkpt><trkpt lat="43.4709911" lon="12.494304"><ele>635.6666666666666</ele><time>2026-04-16T10:44:39.72Z</time></trkpt><trkpt lat="43.4711292" lon="12.4941818"><ele>641.0</ele><time>2026-04-16T10:44:40.718Z</time></trkpt><trkpt lat="43.4712387" lon="12.4940229"><ele>642.6666666666666</ele><time>2026-04-16T10:44:41.717Z</time></trkpt><trkpt lat="43.4713674" lon="12.4938833"><ele>644.3333333333334</ele><time>2026-04-16T10:44:42.719Z</time></trkpt><trkpt lat="43.4714763" lon="12.4937227"><ele>646.0</ele><time>2026-04-16T10:44:43.718Z</time></trkpt><trkpt lat="43.4715676" lon="12.493558"><ele>646.0</ele><time>2026-04-16T10:44:44.718Z</time></trkpt><trkpt lat="43.4716525" lon="12.4934088"><ele>646.0</ele><time>2026-04-16T10:44:45.719Z</time></trkpt><trkpt lat="43.4717549" lon="12.4933"><ele>646.0</ele><time>2026-04-16T10:44:46.718Z</time></trkpt><trkpt lat="43.4718724" lon="12.4932159"><ele>646.0</ele><time>2026-04-16T10:44:47.719Z</time></trkpt><trkpt lat="43.4719897" lon="12.493203"><ele>646.4</ele><time>2026-04-16T10:44:48.718Z</time></trkpt><trkpt lat="43.4721101" lon="12.4931866"><ele>646.8</ele><time>2026-04-16T10:44:49.716Z</time></trkpt><trkpt lat="43.4721991" lon="12.4931486"><ele>647.1999999999999</ele><time>2026-04-16T10:44:50.719Z</time></trkpt><trkpt lat="43.4722661" lon="12.4930835"><ele>647.5999999999999</ele><time>2026-04-16T10:44:51.716Z</time></trkpt><trkpt lat="43.4722937" lon="12.4929805"><ele>648.0</ele><time>2026-04-16T10:44:52.719Z</time></trkpt><trkpt lat="43.4722849" lon="12.4928746"><ele>648.0</ele><time>2026-04-16T10:44:53.718Z</time></trkpt><trkpt lat="43.472282" lon="12.4927485"><ele>648.0</ele><time>2026-04-16T10:44:54.718Z</time></trkpt><trkpt lat="43.4722777" lon="12.4926188"><ele>648.0</ele><time>2026-04-16T10:44:55.717Z</time></trkpt><trkpt lat="43.4722966" lon="12.4924863"><ele>648.0</ele><time>2026-04-16T10:44:56.719Z</time></trkpt><trkpt lat="43.4723536" lon="12.4923585"><ele>648.0</ele><time>2026-04-16T10:44:57.719Z</time></trkpt><trkpt lat="43.4724373" lon="12.4922497"><ele>648.0</ele><time>2026-04-16T10:44:58.719Z</time></trkpt><trkpt lat="43.4725414" lon="12.4921601"><ele>648.0</ele><time>2026-04-16T10:44:59.719Z</time></trkpt><trkpt lat="43.472638" lon="12.4920798"><ele>648.0</ele><time>2026-04-16T10:45:00.719Z</time></trkpt><trkpt lat="43.4727242" lon="12.4919802"><ele>648.0</ele><time>2026-04-16T10:45:01.718Z</time></trkpt><trkpt lat="43.4727739" lon="12.4918531"><ele>649.8</ele><time>2026-04-16T10:45:02.718Z</time></trkpt><trkpt lat="43.4728108" lon="12.4916971"><ele>651.5999999999999</ele><time>2026-04-16T10:45:03.719Z</time></trkpt><trkpt lat="43.4728284" lon="12.4915453"><ele>653.4000000000001</ele><time>2026-04-16T10:45:04.718Z</time></trkpt><trkpt lat="43.4728426" lon="12.4914023"><ele>655.2</ele><time>2026-04-16T10:45:05.718Z</time></trkpt><trkpt lat="43.4728412" lon="12.491273"><ele>657.0</ele><time>2026-04-16T10:45:06.718Z</time></trkpt><trkpt lat="43.4728252" lon="12.4911623"><ele>659.0</ele><time>2026-04-16T10:45:07.718Z</time></trkpt><trkpt lat="43.4727755" lon="12.4910543"><ele>661.0</ele><time>2026-04-16T10:45:08.718Z</time></trkpt><trkpt lat="43.4726973" lon="12.4909463"><ele>663.0</ele><time>2026-04-16T10:45:09.718Z</time></trkpt><trkpt lat="43.4725965" lon="12.4908678"><ele>665.0</ele><time>2026-04-16T10:45:10.717Z</time></trkpt><trkpt lat="43.4724694" lon="12.4908206"><ele>665.0</ele><time>2026-04-16T10:45:11.718Z</time></trkpt><trkpt lat="43.4723241" lon="12.490821"><ele>665.0</ele><time>2026-04-16T10:45:12.718Z</time></trkpt><trkpt lat="43.4721766" lon="12.4908631"><ele>665.0</ele><time>2026-04-16T10:45:13.719Z</time></trkpt><trkpt lat="43.4720236" lon="12.4909181"><ele>672.0</ele><time>2026-04-16T10:45:14.718Z</time></trkpt><trkpt lat="43.4718578" lon="12.4909466"><ele>679.0</ele><time>2026-04-16T10:45:15.719Z</time></trkpt><trkpt lat="43.4716898" lon="12.4909777"><ele>686.0</ele><time>2026-04-16T10:45:16.718Z</time></trkpt><trkpt lat="43.4715274" lon="12.4909644"><ele>686.0</ele><time>2026-04-16T10:45:17.72Z</time></trkpt><trkpt lat="43.4713784" lon="12.4909793"><ele>686.0</ele><time>2026-04-16T10:45:18.719Z</time></trkpt><trkpt lat="43.4712267" lon="12.490999"><ele>686.0</ele><time>2026-04-16T10:45:19.719Z</time></trkpt><trkpt lat="43.4710767" lon="12.4910188"><ele>685.5</ele><time>2026-04-16T10:45:20.719Z</time></trkpt><trkpt lat="43.4709777" lon="12.4910151"><ele>685.0</ele><time>2026-04-16T10:45:21.72Z</time></trkpt><trkpt lat="43.4708278" lon="12.4910362"><ele>684.5</ele><time>2026-04-16T10:45:22.719Z</time></trkpt><trkpt lat="43.4706777" lon="12.4910349"><ele>684.0</ele><time>2026-04-16T10:45:23.719Z</time></trkpt><trkpt lat="43.4705113" lon="12.4910188"><ele>684.0</ele><time>2026-04-16T10:45:24.719Z</time></trkpt><trkpt lat="43.4703553" lon="12.4909842"><ele>684.0</ele><time>2026-04-16T10:45:25.719Z</time></trkpt><trkpt lat="43.4701932" lon="12.4909264"><ele>684.0</ele><time>2026-04-16T10:45:26.719Z</time></trkpt><trkpt lat="43.4700374" lon="12.4908706"><ele>684.0</ele><time>2026-04-16T10:45:27.719Z</time></trkpt><trkpt lat="43.4698849" lon="12.4908305"><ele>684.0</ele><time>2026-04-16T10:45:28.719Z</time></trkpt><trkpt lat="43.4697207" lon="12.4907821"><ele>684.0</ele><time>2026-04-16T10:45:29.718Z</time></trkpt><trkpt lat="43.4695595" lon="12.490744"><ele>683.25</ele><time>2026-04-16T10:45:30.719Z</time></trkpt><trkpt lat="43.4694079" lon="12.4907091"><ele>682.5</ele><time>2026-04-16T10:45:31.718Z</time></trkpt><trkpt lat="43.4693398" lon="12.490643"><ele>681.75</ele><time>2026-04-16T10:45:32.719Z</time></trkpt><trkpt lat="43.469251" lon="12.4905582"><ele>681.0</ele><time>2026-04-16T10:45:33.719Z</time></trkpt><trkpt lat="43.4691588" lon="12.4904574"><ele>681.75</ele><time>2026-04-16T10:45:34.718Z</time></trkpt><trkpt lat="43.4690432" lon="12.4903931"><ele>682.5</ele><time>2026-04-16T10:45:35.719Z</time></trkpt><trkpt lat="43.468916" lon="12.490355"><ele>683.25</ele><time>2026-04-16T10:45:36.719Z</time></trkpt><trkpt lat="43.4687845" lon="12.4903126"><ele>684.0</ele><time>2026-04-16T10:45:37.719Z</time></trkpt><trkpt lat="43.4686706" lon="12.4902394"><ele>684.0</ele><time>2026-04-16T10:45:38.719Z</time></trkpt><trkpt lat="43.468573" lon="12.4901443"><ele>684.0</ele><time>2026-04-16T10:45:39.719Z</time></trkpt><trkpt lat="43.4684932" lon="12.4900213"><ele>684.0</ele><time>2026-04-16T10:45:40.719Z</time></trkpt><trkpt lat="43.4684026" lon="12.4898832"><ele>684.0</ele><time>2026-04-16T10:45:41.718Z</time></trkpt><trkpt lat="43.4683033" lon="12.4897598"><ele>684.0</ele><time>2026-04-16T10:45:42.718Z</time></trkpt><trkpt lat="43.4681917" lon="12.4896414"><ele>684.0</ele><time>2026-04-16T10:45:43.718Z</time></trkpt><trkpt lat="43.4680707" lon="12.4895371"><ele>684.0</ele><time>2026-04-16T10:45:44.718Z</time></trkpt><trkpt lat="43.4679391" lon="12.489437"><ele>684.0</ele><time>2026-04-16T10:45:45.718Z</time></trkpt><trkpt lat="43.46781" lon="12.4893352"><ele>685.6666666666666</ele><time>2026-04-16T10:45:46.719Z</time></trkpt><trkpt lat="43.4676762" lon="12.4892208"><ele>687.3333333333333</ele><time>2026-04-16T10:45:47.718Z</time></trkpt><trkpt lat="43.4675428" lon="12.4891037"><ele>689.0</ele><time>2026-04-16T10:45:48.718Z</time></trkpt><trkpt lat="43.4674568" lon="12.4889212"><ele>691.0</ele><time>2026-04-16T10:45:49.719Z</time></trkpt><trkpt lat="43.4673463" lon="12.4887473"><ele>693.0</ele><time>2026-04-16T10:45:50.719Z</time></trkpt><trkpt lat="43.4672254" lon="12.4885926"><ele>695.0</ele><time>2026-04-16T10:45:51.718Z</time></trkpt><trkpt lat="43.4671067" lon="12.4884151"><ele>695.0</ele><time>2026-04-16T10:45:52.719Z</time></trkpt><trkpt lat="43.4669955" lon="12.4882111"><ele>695.0</ele><time>2026-04-16T10:45:53.718Z</time></trkpt><trkpt lat="43.4668691" lon="12.4879909"><ele>695.0</ele><time>2026-04-16T10:45:54.716Z</time></trkpt><trkpt lat="43.4667337" lon="12.4877897"><ele>698.3333333333333</ele><time>2026-04-16T10:45:55.719Z</time></trkpt><trkpt lat="43.4665955" lon="12.4875885"><ele>701.6666666666666</ele><time>2026-04-16T10:45:56.719Z</time></trkpt><trkpt lat="43.4664701" lon="12.4873896"><ele>705.0</ele><time>2026-04-16T10:45:57.719Z</time></trkpt><trkpt lat="43.4663418" lon="12.4871801"><ele>705.0</ele><time>2026-04-16T10:45:58.718Z</time></trkpt><trkpt lat="43.4662305" lon="12.486991"><ele>705.0</ele><time>2026-04-16T10:45:59.718Z</time></trkpt><trkpt lat="43.4661228" lon="12.4868176"><ele>705.0</ele><time>2026-04-16T10:46:00.719Z</time></trkpt><trkpt lat="43.4660144" lon="12.4866402"><ele>705.0</ele><time>2026-04-16T10:46:01.718Z</time></trkpt><trkpt lat="43.4659122" lon="12.4864463"><ele>705.0</ele><time>2026-04-16T10:46:02.718Z</time></trkpt><trkpt lat="43.4658216" lon="12.486299"><ele>705.0</ele><time>2026-04-16T10:46:03.719Z</time></trkpt><trkpt lat="43.4657842" lon="12.486172"><ele>705.0</ele><time>2026-04-16T10:46:04.719Z</time></trkpt><trkpt lat="43.4657757" lon="12.4860484"><ele>706.8</ele><time>2026-04-16T10:46:05.719Z</time></trkpt><trkpt lat="43.4657787" lon="12.4858815"><ele>708.6</ele><time>2026-04-16T10:46:06.718Z</time></trkpt><trkpt lat="43.4657886" lon="12.4857341"><ele>710.4000000000001</ele><time>2026-04-16T10:46:07.719Z</time></trkpt><trkpt lat="43.4658225" lon="12.485592"><ele>712.2</ele><time>2026-04-16T10:46:08.719Z</time></trkpt><trkpt lat="43.4658398" lon="12.4854423"><ele>714.0</ele><time>2026-04-16T10:46:09.718Z</time></trkpt><trkpt lat="43.4658413" lon="12.4852804"><ele>715.5</ele><time>2026-04-16T10:46:10.718Z</time></trkpt><trkpt lat="43.4658273" lon="12.4851226"><ele>717.0</ele><time>2026-04-16T10:46:11.719Z</time></trkpt><trkpt lat="43.4658285" lon="12.4849533"><ele>718.5</ele><time>2026-04-16T10:46:12.72Z</time></trkpt><trkpt lat="43.4658077" lon="12.4847994"><ele>720.0</ele><time>2026-04-16T10:46:13.719Z</time></trkpt><trkpt lat="43.4657694" lon="12.484642"><ele>721.5</ele><time>2026-04-16T10:46:14.719Z</time></trkpt><trkpt lat="43.465722" lon="12.4844936"><ele>723.0</ele><time>2026-04-16T10:46:15.718Z</time></trkpt><trkpt lat="43.4656387" lon="12.4843528"><ele>724.5</ele><time>2026-04-16T10:46:16.719Z</time></trkpt><trkpt lat="43.4655545" lon="12.484217"><ele>726.0</ele><time>2026-04-16T10:46:17.718Z</time></trkpt><trkpt lat="43.4654729" lon="12.4840752"><ele>726.25</ele><time>2026-04-16T10:46:18.718Z</time></trkpt><trkpt lat="43.4653934" lon="12.4839222"><ele>726.5</ele><time>2026-04-16T10:46:19.719Z</time></trkpt><trkpt lat="43.4653149" lon="12.4837613"><ele>726.75</ele><time>2026-04-16T10:46:20.718Z</time></trkpt><trkpt lat="43.4652542" lon="12.4835666"><ele>727.0</ele><time>2026-04-16T10:46:21.718Z</time></trkpt><trkpt lat="43.4651923" lon="12.4833773"><ele>727.0</ele><time>2026-04-16T10:46:22.719Z</time></trkpt><trkpt lat="43.4651841" lon="12.4831169"><ele>727.0</ele><time>2026-04-16T10:46:23.719Z</time></trkpt><trkpt lat="43.4651692" lon="12.4828644"><ele>727.0</ele><time>2026-04-16T10:46:24.719Z</time></trkpt><trkpt lat="43.4651717" lon="12.4826431"><ele>728.75</ele><time>2026-04-16T10:46:25.719Z</time></trkpt><trkpt lat="43.4651751" lon="12.4824361"><ele>730.5</ele><time>2026-04-16T10:46:26.718Z</time></trkpt><trkpt lat="43.4652006" lon="12.4822397"><ele>732.25</ele><time>2026-04-16T10:46:27.719Z</time></trkpt><trkpt lat="43.4652447" lon="12.4820406"><ele>734.0</ele><time>2026-04-16T10:46:28.72Z</time></trkpt><trkpt lat="43.4652728" lon="12.4818603"><ele>735.25</ele><time>2026-04-16T10:46:29.718Z</time></trkpt><trkpt lat="43.4652651" lon="12.4816765"><ele>736.5</ele><time>2026-04-16T10:46:30.719Z</time></trkpt><trkpt lat="43.4652337" lon="12.4814951"><ele>737.75</ele><time>2026-04-16T10:46:31.717Z</time></trkpt><trkpt lat="43.4651823" lon="12.4812877"><ele>739.0</ele><time>2026-04-16T10:46:32.718Z</time></trkpt><trkpt lat="43.4651262" lon="12.4810892"><ele>741.6666666666667</ele><time>2026-04-16T10:46:33.719Z</time></trkpt><trkpt lat="43.4650484" lon="12.4808512"><ele>744.3333333333334</ele><time>2026-04-16T10:46:34.72Z</time></trkpt><trkpt lat="43.4649843" lon="12.4806224"><ele>747.0</ele><time>2026-04-16T10:46:35.717Z</time></trkpt><trkpt lat="43.4649241" lon="12.480398"><ele>748.3333333333334</ele><time>2026-04-16T10:46:36.719Z</time></trkpt><trkpt lat="43.4649011" lon="12.4801175"><ele>749.6666666666667</ele><time>2026-04-16T10:46:37.72Z</time></trkpt><trkpt lat="43.4648728" lon="12.4798692"><ele>751.0</ele><time>2026-04-16T10:46:38.719Z</time></trkpt><trkpt lat="43.4648981" lon="12.4796675"><ele>752.0</ele><time>2026-04-16T10:46:39.72Z</time></trkpt><trkpt lat="43.4648755" lon="12.4794616"><ele>753.0</ele><time>2026-04-16T10:46:40.719Z</time></trkpt><trkpt lat="43.4648335" lon="12.4792569"><ele>754.0</ele><time>2026-04-16T10:46:41.718Z</time></trkpt><trkpt lat="43.4647699" lon="12.4790731"><ele>754.0</ele><time>2026-04-16T10:46:42.719Z</time></trkpt><trkpt lat="43.4646901" lon="12.4788892"><ele>754.0</ele><time>2026-04-16T10:46:43.719Z</time></trkpt><trkpt lat="43.4646229" lon="12.4787314"><ele>754.0</ele><time>2026-04-16T10:46:44.72Z</time></trkpt><trkpt lat="43.4646052" lon="12.4784957"><ele>755.3333333333334</ele><time>2026-04-16T10:46:45.718Z</time></trkpt><trkpt lat="43.4645778" lon="12.4782606"><ele>756.6666666666666</ele><time>2026-04-16T10:46:46.719Z</time></trkpt><trkpt lat="43.4645225" lon="12.4780251"><ele>758.0</ele><time>2026-04-16T10:46:47.718Z</time></trkpt><trkpt lat="43.4644774" lon="12.477808"><ele>760.3333333333333</ele><time>2026-04-16T10:46:48.718Z</time></trkpt><trkpt lat="43.4644476" lon="12.4776095"><ele>762.6666666666666</ele><time>2026-04-16T10:46:49.72Z</time></trkpt><trkpt lat="43.4644306" lon="12.4773467"><ele>765.0</ele><time>2026-04-16T10:46:50.718Z</time></trkpt><trkpt lat="43.4643848" lon="12.4771052"><ele>764.3333333333334</ele><time>2026-04-16T10:46:51.718Z</time></trkpt><trkpt lat="43.4643336" lon="12.4768592"><ele>763.6666666666667</ele><time>2026-04-16T10:46:52.719Z</time></trkpt><trkpt lat="43.4642132" lon="12.4765945"><ele>763.0</ele><time>2026-04-16T10:46:53.72Z</time></trkpt><trkpt lat="43.4641248" lon="12.4763425"><ele>763.0</ele><time>2026-04-16T10:46:54.719Z</time></trkpt><trkpt lat="43.4640123" lon="12.4760799"><ele>763.0</ele><time>2026-04-16T10:46:55.72Z</time></trkpt><trkpt lat="43.4638839" lon="12.4758373"><ele>763.0</ele><time>2026-04-16T10:46:56.718Z</time></trkpt><trkpt lat="43.4637581" lon="12.4756079"><ele>766.6666666666667</ele><time>2026-04-16T10:46:57.718Z</time></trkpt><trkpt lat="43.4636294" lon="12.4754087"><ele>770.3333333333334</ele><time>2026-04-16T10:46:58.719Z</time></trkpt><trkpt lat="43.4634951" lon="12.4752393"><ele>774.0</ele><time>2026-04-16T10:46:59.718Z</time></trkpt><trkpt lat="43.463345" lon="12.4751097"><ele>774.0</ele><time>2026-04-16T10:47:00.718Z</time></trkpt><trkpt lat="43.4631826" lon="12.4750348"><ele>774.0</ele><time>2026-04-16T10:47:01.719Z</time></trkpt><trkpt lat="43.4630235" lon="12.4750245"><ele>774.0</ele><time>2026-04-16T10:47:02.717Z</time></trkpt><trkpt lat="43.4628604" lon="12.4750435"><ele>776.0</ele><time>2026-04-16T10:47:03.718Z</time></trkpt><trkpt lat="43.4626998" lon="12.4750915"><ele>778.0</ele><time>2026-04-16T10:47:04.718Z</time></trkpt><trkpt lat="43.4625481" lon="12.4751312"><ele>780.0</ele><time>2026-04-16T10:47:05.717Z</time></trkpt><trkpt lat="43.4624361" lon="12.4751886"><ele>782.0</ele><time>2026-04-16T10:47:06.719Z</time></trkpt><trkpt lat="43.462341" lon="12.4752046"><ele>782.0</ele><time>2026-04-16T10:47:07.719Z</time></trkpt><trkpt lat="43.4622864" lon="12.4750441"><ele>782.0</ele><time>2026-04-16T10:47:08.719Z</time></trkpt><trkpt lat="43.4622022" lon="12.474917"><ele>782.0</ele><time>2026-04-16T10:47:10.719Z</time></trkpt><trkpt lat="43.4621834" lon="12.4748227"><ele>782.0</ele><time>2026-04-16T10:47:11.72Z</time></trkpt><trkpt lat="43.4621649" lon="12.4747232"><ele>782.0</ele><time>2026-04-16T10:47:12.718Z</time></trkpt><trkpt lat="43.4622994" lon="12.4745626"><ele>782.25</ele><time>2026-04-16T10:47:13.719Z</time></trkpt><trkpt lat="43.4623658" lon="12.4744413"><ele>782.5</ele><time>2026-04-16T10:47:14.719Z</time></trkpt><trkpt lat="43.4624285" lon="12.4742162"><ele>782.75</ele><time>2026-04-16T10:47:15.718Z</time></trkpt><trkpt lat="43.4624823" lon="12.4740266"><ele>783.0</ele><time>2026-04-16T10:47:16.718Z</time></trkpt><trkpt lat="43.4625534" lon="12.4738042"><ele>781.6666666666667</ele><time>2026-04-16T10:47:17.72Z</time></trkpt><trkpt lat="43.4626139" lon="12.4735847"><ele>780.3333333333334</ele><time>2026-04-16T10:47:18.718Z</time></trkpt><trkpt lat="43.4626782" lon="12.4733117"><ele>779.0</ele><time>2026-04-16T10:47:19.719Z</time></trkpt><trkpt lat="43.4627426" lon="12.4730789"><ele>777.0</ele><time>2026-04-16T10:47:20.719Z</time></trkpt><trkpt lat="43.4627936" lon="12.4728764"><ele>775.0</ele><time>2026-04-16T10:47:21.72Z</time></trkpt><trkpt lat="43.4628538" lon="12.4726635"><ele>773.0</ele><time>2026-04-16T10:47:22.718Z</time></trkpt><trkpt lat="43.4629318" lon="12.4724689"><ele>773.75</ele><time>2026-04-16T10:47:23.719Z</time></trkpt><trkpt lat="43.4629803" lon="12.4722494"><ele>774.5</ele><time>2026-04-16T10:47:24.719Z</time></trkpt><trkpt lat="43.4630781" lon="12.4721317"><ele>775.25</ele><time>2026-04-16T10:47:25.719Z</time></trkpt><trkpt lat="43.4631627" lon="12.4719807"><ele>776.0</ele><time>2026-04-16T10:47:26.719Z</time></trkpt><trkpt lat="43.4632692" lon="12.4718299"><ele>776.0</ele><time>2026-04-16T10:47:27.719Z</time></trkpt><trkpt lat="43.4633649" lon="12.4716805"><ele>776.0</ele><time>2026-04-16T10:47:28.718Z</time></trkpt><trkpt lat="43.4635433" lon="12.4717079"><ele>776.0</ele><time>2026-04-16T10:47:29.719Z</time></trkpt><trkpt lat="43.4636609" lon="12.4716039"><ele>776.0</ele><time>2026-04-16T10:47:30.718Z</time></trkpt><trkpt lat="43.4637344" lon="12.4714003"><ele>776.0</ele><time>2026-04-16T10:47:31.718Z</time></trkpt><trkpt lat="43.4638029" lon="12.4712159"><ele>776.0</ele><time>2026-04-16T10:47:32.719Z</time></trkpt><trkpt lat="43.4638479" lon="12.4710434"><ele>776.0</ele><time>2026-04-16T10:47:33.719Z</time></trkpt><trkpt lat="43.4638785" lon="12.4708663"><ele>776.75</ele><time>2026-04-16T10:47:34.719Z</time></trkpt><trkpt lat="43.4638989" lon="12.4706897"><ele>777.5</ele><time>2026-04-16T10:47:35.719Z</time></trkpt><trkpt lat="43.4638882" lon="12.4705473"><ele>778.25</ele><time>2026-04-16T10:47:36.719Z</time></trkpt><trkpt lat="43.4638777" lon="12.4703966"><ele>779.0</ele><time>2026-04-16T10:47:37.719Z</time></trkpt><trkpt lat="43.4638027" lon="12.4702493"><ele>776.0</ele><time>2026-04-16T10:47:38.718Z</time></trkpt><trkpt lat="43.463748" lon="12.4701269"><ele>773.0</ele><time>2026-04-16T10:47:39.719Z</time></trkpt><trkpt lat="43.4636987" lon="12.4699993"><ele>770.0</ele><time>2026-04-16T10:47:40.718Z</time></trkpt><trkpt lat="43.46365" lon="12.4698497"><ele>767.0</ele><time>2026-04-16T10:47:41.719Z</time></trkpt><trkpt lat="43.4636302" lon="12.4696625"><ele>766.6666666666666</ele><time>2026-04-16T10:47:42.719Z</time></trkpt><trkpt lat="43.4635969" lon="12.4695071"><ele>766.3333333333334</ele><time>2026-04-16T10:47:43.719Z</time></trkpt><trkpt lat="43.4635851" lon="12.4691839"><ele>766.0</ele><time>2026-04-16T10:47:44.72Z</time></trkpt><trkpt lat="43.4635594" lon="12.468987"><ele>767.0</ele><time>2026-04-16T10:47:45.719Z</time></trkpt><trkpt lat="43.4635969" lon="12.4687666"><ele>768.0</ele><time>2026-04-16T10:47:46.719Z</time></trkpt><trkpt lat="43.4636409" lon="12.4686705"><ele>769.0</ele><time>2026-04-16T10:47:47.718Z</time></trkpt><trkpt lat="43.4636392" lon="12.4685211"><ele>770.0</ele><time>2026-04-16T10:47:48.719Z</time></trkpt><trkpt lat="43.4635849" lon="12.4684026"><ele>770.0</ele><time>2026-04-16T10:47:49.719Z</time></trkpt><trkpt lat="43.4635453" lon="12.4682946"><ele>770.0</ele><time>2026-04-16T10:47:50.719Z</time></trkpt><trkpt lat="43.4634594" lon="12.4682258"><ele>770.0</ele><time>2026-04-16T10:47:51.719Z</time></trkpt><trkpt lat="43.4633686" lon="12.4681451"><ele>770.0</ele><time>2026-04-16T10:47:52.719Z</time></trkpt><trkpt lat="43.4632709" lon="12.4680442"><ele>770.0</ele><time>2026-04-16T10:47:53.719Z</time></trkpt><trkpt lat="43.4631786" lon="12.4679294"><ele>769.5</ele><time>2026-04-16T10:47:54.718Z</time></trkpt><trkpt lat="43.4631059" lon="12.4677694"><ele>769.0</ele><time>2026-04-16T10:47:55.719Z</time></trkpt><trkpt lat="43.4630155" lon="12.4676235"><ele>768.5</ele><time>2026-04-16T10:47:56.719Z</time></trkpt><trkpt lat="43.4629232" lon="12.4674422"><ele>768.0</ele><time>2026-04-16T10:47:57.718Z</time></trkpt><trkpt lat="43.4628156" lon="12.4672725"><ele>771.6666666666667</ele><time>2026-04-16T10:47:58.719Z</time></trkpt><trkpt lat="43.4627215" lon="12.4670932"><ele>775.3333333333334</ele><time>2026-04-16T10:47:59.719Z</time></trkpt><trkpt lat="43.4625828" lon="12.4669563"><ele>779.0</ele><time>2026-04-16T10:48:00.718Z</time></trkpt><trkpt lat="43.4624232" lon="12.4669024"><ele>779.0</ele><time>2026-04-16T10:48:01.719Z</time></trkpt><trkpt lat="43.4622723" lon="12.4669033"><ele>779.0</ele><time>2026-04-16T10:48:02.719Z</time></trkpt><trkpt lat="43.4621347" lon="12.4668382"><ele>779.0</ele><time>2026-04-16T10:48:03.718Z</time></trkpt><trkpt lat="43.462039" lon="12.4668093"><ele>779.0</ele><time>2026-04-16T10:48:04.72Z</time></trkpt><trkpt lat="43.4619119" lon="12.466682"><ele>779.75</ele><time>2026-04-16T10:48:05.72Z</time></trkpt><trkpt lat="43.4618129" lon="12.4665723"><ele>780.5</ele><time>2026-04-16T10:48:06.719Z</time></trkpt><trkpt lat="43.4617161" lon="12.4664381"><ele>781.25</ele><time>2026-04-16T10:48:07.72Z</time></trkpt><trkpt lat="43.461646" lon="12.4663026"><ele>782.0</ele><time>2026-04-16T10:48:08.72Z</time></trkpt><trkpt lat="43.461573" lon="12.4661773"><ele>782.0</ele><time>2026-04-16T10:48:09.719Z</time></trkpt><trkpt lat="43.4614989" lon="12.4660622"><ele>782.0</ele><time>2026-04-16T10:48:10.719Z</time></trkpt><trkpt lat="43.4613854" lon="12.4660881"><ele>782.0</ele><time>2026-04-16T10:48:11.72Z</time></trkpt><trkpt lat="43.4612736" lon="12.4660757"><ele>782.0</ele><time>2026-04-16T10:48:12.72Z</time></trkpt><trkpt lat="43.4611386" lon="12.4660645"><ele>778.0</ele><time>2026-04-16T10:48:13.719Z</time></trkpt><trkpt lat="43.4609896" lon="12.4660802"><ele>774.0</ele><time>2026-04-16T10:48:14.72Z</time></trkpt><trkpt lat="43.4608764" lon="12.4660495"><ele>770.0</ele><time>2026-04-16T10:48:15.72Z</time></trkpt><trkpt lat="43.4607535" lon="12.4660131"><ele>766.0</ele><time>2026-04-16T10:48:16.719Z</time></trkpt><trkpt lat="43.4606551" lon="12.4659528"><ele>766.0</ele><time>2026-04-16T10:48:17.72Z</time></trkpt><trkpt lat="43.4605847" lon="12.4658913"><ele>766.0</ele><time>2026-04-16T10:48:18.72Z</time></trkpt><trkpt lat="43.4605562" lon="12.4657985"><ele>766.0</ele><time>2026-04-16T10:48:19.719Z</time></trkpt><trkpt lat="43.4605366" lon="12.465692"><ele>766.0</ele><time>2026-04-16T10:48:20.72Z</time></trkpt><trkpt lat="43.4605283" lon="12.4655704"><ele>766.0</ele><time>2026-04-16T10:48:21.72Z</time></trkpt><trkpt lat="43.4605245" lon="12.4654559"><ele>766.0</ele><time>2026-04-16T10:48:22.72Z</time></trkpt><trkpt lat="43.4605691" lon="12.4652839"><ele>765.5</ele><time>2026-04-16T10:48:23.72Z</time></trkpt><trkpt lat="43.4606032" lon="12.465133"><ele>765.0</ele><time>2026-04-16T10:48:24.719Z</time></trkpt><trkpt lat="43.4606225" lon="12.4649787"><ele>764.5</ele><time>2026-04-16T10:48:25.72Z</time></trkpt><trkpt lat="43.4606397" lon="12.4648324"><ele>764.0</ele><time>2026-04-16T10:48:26.72Z</time></trkpt><trkpt lat="43.4606421" lon="12.4646673"><ele>765.0</ele><time>2026-04-16T10:48:27.719Z</time></trkpt><trkpt lat="43.4606428" lon="12.4645154"><ele>766.0</ele><time>2026-04-16T10:48:28.719Z</time></trkpt><trkpt lat="43.4605925" lon="12.464372"><ele>767.0</ele><time>2026-04-16T10:48:29.72Z</time></trkpt><trkpt lat="43.4605142" lon="12.4642497"><ele>768.0</ele><time>2026-04-16T10:48:30.72Z</time></trkpt><trkpt lat="43.4604013" lon="12.4641229"><ele>761.3333333333334</ele><time>2026-04-16T10:48:31.72Z</time></trkpt><trkpt lat="43.4602536" lon="12.4640236"><ele>754.6666666666667</ele><time>2026-04-16T10:48:32.72Z</time></trkpt><trkpt lat="43.4601103" lon="12.4639445"><ele>748.0</ele><time>2026-04-16T10:48:33.72Z</time></trkpt><trkpt lat="43.4599315" lon="12.4639588"><ele>748.0</ele><time>2026-04-16T10:48:34.72Z</time></trkpt><trkpt lat="43.459766" lon="12.4639636"><ele>748.0</ele><time>2026-04-16T10:48:35.72Z</time></trkpt><trkpt lat="43.4596112" lon="12.4639503"><ele>748.0</ele><time>2026-04-16T10:48:36.719Z</time></trkpt><trkpt lat="43.4594638" lon="12.4639237"><ele>746.25</ele><time>2026-04-16T10:48:37.719Z</time></trkpt><trkpt lat="43.4593145" lon="12.4638943"><ele>744.5</ele><time>2026-04-16T10:48:38.72Z</time></trkpt><trkpt lat="43.4591896" lon="12.4638545"><ele>742.75</ele><time>2026-04-16T10:48:39.72Z</time></trkpt><trkpt lat="43.4590541" lon="12.4638226"><ele>741.0</ele><time>2026-04-16T10:48:40.72Z</time></trkpt><trkpt lat="43.4589253" lon="12.4637926"><ele>739.1999999999999</ele><time>2026-04-16T10:48:41.72Z</time></trkpt><trkpt lat="43.4587961" lon="12.4637671"><ele>737.4</ele><time>2026-04-16T10:48:42.72Z</time></trkpt><trkpt lat="43.4586849" lon="12.4637573"><ele>735.6</ele><time>2026-04-16T10:48:43.72Z</time></trkpt><trkpt lat="43.4585937" lon="12.4637123"><ele>733.8</ele><time>2026-04-16T10:48:44.719Z</time></trkpt><trkpt lat="43.4585263" lon="12.463669"><ele>732.0</ele><time>2026-04-16T10:48:45.72Z</time></trkpt><trkpt lat="43.4584746" lon="12.4636055"><ele>732.0</ele><time>2026-04-16T10:48:46.719Z</time></trkpt><trkpt lat="43.4584383" lon="12.4635339"><ele>732.0</ele><time>2026-04-16T10:48:47.72Z</time></trkpt><trkpt lat="43.4585482" lon="12.4634866"><ele>732.0</ele><time>2026-04-16T10:48:49.72Z</time></trkpt><trkpt lat="43.4586883" lon="12.4635166"><ele>732.0</ele><time>2026-04-16T10:48:50.719Z</time></trkpt><trkpt lat="43.4587737" lon="12.4634636"><ele>732.0</ele><time>2026-04-16T10:48:51.719Z</time></trkpt><trkpt lat="43.4588584" lon="12.4634392"><ele>732.0</ele><time>2026-04-16T10:48:52.719Z</time></trkpt><trkpt lat="43.4589719" lon="12.4634147"><ele>732.0</ele><time>2026-04-16T10:48:53.719Z</time></trkpt><trkpt lat="43.4591059" lon="12.4633353"><ele>732.0</ele><time>2026-04-16T10:48:54.72Z</time></trkpt><trkpt lat="43.459145" lon="12.463158"><ele>732.0</ele><time>2026-04-16T10:48:55.72Z</time></trkpt><trkpt lat="43.4592054" lon="12.4630528"><ele>731.25</ele><time>2026-04-16T10:48:56.719Z</time></trkpt><trkpt lat="43.459245" lon="12.4629167"><ele>730.5</ele><time>2026-04-16T10:48:57.719Z</time></trkpt><trkpt lat="43.4592269" lon="12.4627539"><ele>729.75</ele><time>2026-04-16T10:48:58.72Z</time></trkpt><trkpt lat="43.459204" lon="12.4625385"><ele>729.0</ele><time>2026-04-16T10:48:59.719Z</time></trkpt><trkpt lat="43.4591325" lon="12.462351"><ele>729.0</ele><time>2026-04-16T10:49:00.72Z</time></trkpt><trkpt lat="43.4590067" lon="12.4621815"><ele>729.0</ele><time>2026-04-16T10:49:01.72Z</time></trkpt><trkpt lat="43.4588964" lon="12.462051"><ele>729.0</ele><time>2026-04-16T10:49:02.719Z</time></trkpt><trkpt lat="43.4587961" lon="12.4619706"><ele>729.0</ele><time>2026-04-16T10:49:03.719Z</time></trkpt><trkpt lat="43.4586726" lon="12.4619041"><ele>726.25</ele><time>2026-04-16T10:49:04.72Z</time></trkpt><trkpt lat="43.4585595" lon="12.461845"><ele>723.5</ele><time>2026-04-16T10:49:05.719Z</time></trkpt><trkpt lat="43.4584443" lon="12.4618099"><ele>720.75</ele><time>2026-04-16T10:49:06.719Z</time></trkpt><trkpt lat="43.4583313" lon="12.4617339"><ele>718.0</ele><time>2026-04-16T10:49:07.72Z</time></trkpt><trkpt lat="43.4582295" lon="12.461663"><ele>718.0</ele><time>2026-04-16T10:49:08.72Z</time></trkpt><trkpt lat="43.4581243" lon="12.4615784"><ele>718.0</ele><time>2026-04-16T10:49:09.719Z</time></trkpt><trkpt lat="43.4580879" lon="12.4614433"><ele>718.0</ele><time>2026-04-16T10:49:10.72Z</time></trkpt><trkpt lat="43.4580328" lon="12.4613219"><ele>718.0</ele><time>2026-04-16T10:49:11.72Z</time></trkpt><trkpt lat="43.4579998" lon="12.4611888"><ele>718.0</ele><time>2026-04-16T10:49:12.72Z</time></trkpt><trkpt lat="43.4579484" lon="12.4610398"><ele>717.2</ele><time>2026-04-16T10:49:13.719Z</time></trkpt><trkpt lat="43.4579361" lon="12.4608693"><ele>716.4</ele><time>2026-04-16T10:49:14.72Z</time></trkpt><trkpt lat="43.4578678" lon="12.4607492"><ele>715.6</ele><time>2026-04-16T10:49:15.719Z</time></trkpt><trkpt lat="43.4577839" lon="12.4606568"><ele>714.8000000000001</ele><time>2026-04-16T10:49:16.72Z</time></trkpt><trkpt lat="43.4577016" lon="12.4606098"><ele>714.0</ele><time>2026-04-16T10:49:17.72Z</time></trkpt><trkpt lat="43.4576073" lon="12.4606015"><ele>714.0</ele><time>2026-04-16T10:49:18.719Z</time></trkpt><trkpt lat="43.4575078" lon="12.4606482"><ele>714.0</ele><time>2026-04-16T10:49:19.72Z</time></trkpt><trkpt lat="43.4574491" lon="12.4607422"><ele>714.0</ele><time>2026-04-16T10:49:20.719Z</time></trkpt><trkpt lat="43.4573737" lon="12.4608028"><ele>714.0</ele><time>2026-04-16T10:49:21.72Z</time></trkpt><trkpt lat="43.4572649" lon="12.4608646"><ele>714.0</ele><time>2026-04-16T10:49:22.72Z</time></trkpt><trkpt lat="43.4571422" lon="12.460884"><ele>712.75</ele><time>2026-04-16T10:49:23.718Z</time></trkpt><trkpt lat="43.4570207" lon="12.4609248"><ele>711.5</ele><time>2026-04-16T10:49:24.719Z</time></trkpt><trkpt lat="43.4568834" lon="12.4609796"><ele>710.25</ele><time>2026-04-16T10:49:25.72Z</time></trkpt><trkpt lat="43.4567789" lon="12.4610314"><ele>709.0</ele><time>2026-04-16T10:49:26.719Z</time></trkpt><trkpt lat="43.4566592" lon="12.4610981"><ele>709.0</ele><time>2026-04-16T10:49:27.719Z</time></trkpt><trkpt lat="43.4565217" lon="12.4611494"><ele>709.0</ele><time>2026-04-16T10:49:28.72Z</time></trkpt><trkpt lat="43.4563863" lon="12.4611923"><ele>709.0</ele><time>2026-04-16T10:49:29.72Z</time></trkpt><trkpt lat="43.4562547" lon="12.4612194"><ele>709.0</ele><time>2026-04-16T10:49:30.72Z</time></trkpt><trkpt lat="43.4561018" lon="12.461247"><ele>706.75</ele><time>2026-04-16T10:49:31.719Z</time></trkpt><trkpt lat="43.4559553" lon="12.461233"><ele>704.5</ele><time>2026-04-16T10:49:32.719Z</time></trkpt><trkpt lat="43.4558081" lon="12.4612342"><ele>702.25</ele><time>2026-04-16T10:49:33.72Z</time></trkpt><trkpt lat="43.4556711" lon="12.4612615"><ele>700.0</ele><time>2026-04-16T10:49:34.72Z</time></trkpt><trkpt lat="43.4555244" lon="12.4613082"><ele>695.5</ele><time>2026-04-16T10:49:35.719Z</time></trkpt><trkpt lat="43.4553923" lon="12.461406"><ele>691.0</ele><time>2026-04-16T10:49:36.719Z</time></trkpt><trkpt lat="43.4552641" lon="12.461502"><ele>686.5</ele><time>2026-04-16T10:49:37.72Z</time></trkpt><trkpt lat="43.4551339" lon="12.4615828"><ele>682.0</ele><time>2026-04-16T10:49:38.719Z</time></trkpt><trkpt lat="43.4549856" lon="12.4616595"><ele>682.0</ele><time>2026-04-16T10:49:39.72Z</time></trkpt><trkpt lat="43.4548494" lon="12.4616761"><ele>682.0</ele><time>2026-04-16T10:49:40.72Z</time></trkpt><trkpt lat="43.4547045" lon="12.4617148"><ele>682.0</ele><time>2026-04-16T10:49:41.72Z</time></trkpt><trkpt lat="43.4545347" lon="12.4617138"><ele>679.0</ele><time>2026-04-16T10:49:42.72Z</time></trkpt><trkpt lat="43.4543594" lon="12.4617221"><ele>676.0</ele><time>2026-04-16T10:49:43.72Z</time></trkpt><trkpt lat="43.4541827" lon="12.4617505"><ele>673.0</ele><time>2026-04-16T10:49:44.72Z</time></trkpt><trkpt lat="43.4540101" lon="12.4617619"><ele>673.0</ele><time>2026-04-16T10:49:45.72Z</time></trkpt><trkpt lat="43.4538379" lon="12.4617714"><ele>673.0</ele><time>2026-04-16T10:49:46.72Z</time></trkpt><trkpt lat="43.4536875" lon="12.4617889"><ele>673.0</ele><time>2026-04-16T10:49:47.72Z</time></trkpt><trkpt lat="43.4535278" lon="12.4617766"><ele>672.0</ele><time>2026-04-16T10:49:48.72Z</time></trkpt><trkpt lat="43.45338" lon="12.4617519"><ele>671.0</ele><time>2026-04-16T10:49:49.719Z</time></trkpt><trkpt lat="43.453234" lon="12.4617117"><ele>670.0</ele><time>2026-04-16T10:49:50.72Z</time></trkpt><trkpt lat="43.4530986" lon="12.4616602"><ele>669.0</ele><time>2026-04-16T10:49:51.719Z</time></trkpt><trkpt lat="43.452961" lon="12.4615983"><ele>666.25</ele><time>2026-04-16T10:49:52.72Z</time></trkpt><trkpt lat="43.4527986" lon="12.4615435"><ele>663.5</ele><time>2026-04-16T10:49:53.72Z</time></trkpt><trkpt lat="43.4526685" lon="12.4615"><ele>660.75</ele><time>2026-04-16T10:49:54.719Z</time></trkpt><trkpt lat="43.4525576" lon="12.461492"><ele>658.0</ele><time>2026-04-16T10:49:55.718Z</time></trkpt><trkpt lat="43.4524798" lon="12.4615477"><ele>658.0</ele><time>2026-04-16T10:49:56.718Z</time></trkpt><trkpt lat="43.4524228" lon="12.46163"><ele>658.0</ele><time>2026-04-16T10:49:57.719Z</time></trkpt><trkpt lat="43.4523787" lon="12.4617334"><ele>658.0</ele><time>2026-04-16T10:49:58.718Z</time></trkpt><trkpt lat="43.4523545" lon="12.4618751"><ele>658.0</ele><time>2026-04-16T10:49:59.719Z</time></trkpt><trkpt lat="43.4523273" lon="12.4620223"><ele>658.0</ele><time>2026-04-16T10:50:00.719Z</time></trkpt><trkpt lat="43.452299" lon="12.4621728"><ele>658.0</ele><time>2026-04-16T10:50:01.72Z</time></trkpt><trkpt lat="43.4522919" lon="12.462347"><ele>658.0</ele><time>2026-04-16T10:50:02.72Z</time></trkpt><trkpt lat="43.4523074" lon="12.462482"><ele>658.0</ele><time>2026-04-16T10:50:03.719Z</time></trkpt><trkpt lat="43.4523356" lon="12.4625901"><ele>658.0</ele><time>2026-04-16T10:50:04.718Z</time></trkpt><trkpt lat="43.4523995" lon="12.4626801"><ele>658.0</ele><time>2026-04-16T10:50:05.719Z</time></trkpt><trkpt lat="43.4524732" lon="12.4627507"><ele>658.0</ele><time>2026-04-16T10:50:06.718Z</time></trkpt><trkpt lat="43.4525781" lon="12.4627958"><ele>658.0</ele><time>2026-04-16T10:50:07.72Z</time></trkpt><trkpt lat="43.4526616" lon="12.462859"><ele>658.0</ele><time>2026-04-16T10:50:08.718Z</time></trkpt><trkpt lat="43.4527432" lon="12.4629214"><ele>658.0</ele><time>2026-04-16T10:50:09.719Z</time></trkpt><trkpt lat="43.4528195" lon="12.4630931"><ele>658.0</ele><time>2026-04-16T10:50:10.719Z</time></trkpt><trkpt lat="43.4528829" lon="12.4632492"><ele>659.25</ele><time>2026-04-16T10:50:11.72Z</time></trkpt><trkpt lat="43.4529602" lon="12.4634116"><ele>660.5</ele><time>2026-04-16T10:50:12.719Z</time></trkpt><trkpt lat="43.4530404" lon="12.4635841"><ele>661.75</ele><time>2026-04-16T10:50:13.719Z</time></trkpt><trkpt lat="43.4531194" lon="12.4637458"><ele>663.0</ele><time>2026-04-16T10:50:14.72Z</time></trkpt><trkpt lat="43.4531925" lon="12.4639059"><ele>659.4</ele><time>2026-04-16T10:50:15.719Z</time></trkpt><trkpt lat="43.4532891" lon="12.4640177"><ele>655.8</ele><time>2026-04-16T10:50:16.72Z</time></trkpt><trkpt lat="43.4533739" lon="12.4641417"><ele>652.2</ele><time>2026-04-16T10:50:17.72Z</time></trkpt><trkpt lat="43.4534537" lon="12.4642451"><ele>648.6</ele><time>2026-04-16T10:50:18.719Z</time></trkpt><trkpt lat="43.4535242" lon="12.4642395"><ele>645.0</ele><time>2026-04-16T10:50:19.72Z</time></trkpt><trkpt lat="43.4535857" lon="12.4643098"><ele>645.0</ele><time>2026-04-16T10:50:20.72Z</time></trkpt><trkpt lat="43.4535261" lon="12.4644014"><ele>645.0</ele><time>2026-04-16T10:50:23.72Z</time></trkpt><trkpt lat="43.4534403" lon="12.46435"><ele>645.0</ele><time>2026-04-16T10:50:25.718Z</time></trkpt><trkpt lat="43.4532729" lon="12.4641886"><ele>645.0</ele><time>2026-04-16T10:50:27.72Z</time></trkpt><trkpt lat="43.4531264" lon="12.4641187"><ele>645.0</ele><time>2026-04-16T10:50:28.718Z</time></trkpt><trkpt lat="43.4530031" lon="12.4640788"><ele>645.0</ele><time>2026-04-16T10:50:29.719Z</time></trkpt><trkpt lat="43.4528797" lon="12.4641082"><ele>645.0</ele><time>2026-04-16T10:50:30.718Z</time></trkpt><trkpt lat="43.4527611" lon="12.4641128"><ele>645.0</ele><time>2026-04-16T10:50:31.718Z</time></trkpt><trkpt lat="43.4526523" lon="12.4641246"><ele>644.6</ele><time>2026-04-16T10:50:32.719Z</time></trkpt><trkpt lat="43.4525467" lon="12.4641253"><ele>644.2</ele><time>2026-04-16T10:50:33.719Z</time></trkpt><trkpt lat="43.4524915" lon="12.4640073"><ele>643.8</ele><time>2026-04-16T10:50:34.719Z</time></trkpt><trkpt lat="43.4524829" lon="12.4638946"><ele>643.4</ele><time>2026-04-16T10:50:35.719Z</time></trkpt><trkpt lat="43.4524435" lon="12.4637847"><ele>643.0</ele><time>2026-04-16T10:50:36.718Z</time></trkpt><trkpt lat="43.4523873" lon="12.4636566"><ele>643.0</ele><time>2026-04-16T10:50:37.719Z</time></trkpt><trkpt lat="43.4522886" lon="12.4635446"><ele>643.0</ele><time>2026-04-16T10:50:38.718Z</time></trkpt><trkpt lat="43.4521731" lon="12.4634996"><ele>643.0</ele><time>2026-04-16T10:50:39.718Z</time></trkpt><trkpt lat="43.4520699" lon="12.463431"><ele>643.0</ele><time>2026-04-16T10:50:40.719Z</time></trkpt><trkpt lat="43.4519502" lon="12.4634142"><ele>639.75</ele><time>2026-04-16T10:50:41.719Z</time></trkpt><trkpt lat="43.4518122" lon="12.463464"><ele>636.5</ele><time>2026-04-16T10:50:42.718Z</time></trkpt><trkpt lat="43.4516686" lon="12.4634909"><ele>633.25</ele><time>2026-04-16T10:50:43.719Z</time></trkpt><trkpt lat="43.4515439" lon="12.4634909"><ele>630.0</ele><time>2026-04-16T10:50:44.719Z</time></trkpt><trkpt lat="43.4514198" lon="12.4635186"><ele>630.0</ele><time>2026-04-16T10:50:45.719Z</time></trkpt><trkpt lat="43.451302" lon="12.4634272"><ele>630.0</ele><time>2026-04-16T10:50:46.719Z</time></trkpt><trkpt lat="43.4512273" lon="12.4633462"><ele>630.0</ele><time>2026-04-16T10:50:47.719Z</time></trkpt><trkpt lat="43.4511154" lon="12.4632971"><ele>630.0</ele><time>2026-04-16T10:50:48.72Z</time></trkpt><trkpt lat="43.4510045" lon="12.4632548"><ele>624.75</ele><time>2026-04-16T10:50:49.721Z</time></trkpt><trkpt lat="43.4508988" lon="12.4631841"><ele>619.5</ele><time>2026-04-16T10:50:50.719Z</time></trkpt><trkpt lat="43.4507932" lon="12.4631205"><ele>614.25</ele><time>2026-04-16T10:50:51.718Z</time></trkpt><trkpt lat="43.4507751" lon="12.462969"><ele>609.0</ele><time>2026-04-16T10:50:52.721Z</time></trkpt><trkpt lat="43.4507523" lon="12.4628232"><ele>608.5</ele><time>2026-04-16T10:50:53.719Z</time></trkpt><trkpt lat="43.4507016" lon="12.4627009"><ele>608.0</ele><time>2026-04-16T10:50:54.719Z</time></trkpt><trkpt lat="43.450912" lon="12.4625878"><ele>607.5</ele><time>2026-04-16T10:50:55.721Z</time></trkpt><trkpt lat="43.4509727" lon="12.4624721"><ele>607.0</ele><time>2026-04-16T10:50:56.72Z</time></trkpt><trkpt lat="43.4510436" lon="12.4623471"><ele>607.0</ele><time>2026-04-16T10:50:57.719Z</time></trkpt><trkpt lat="43.4511626" lon="12.4622725"><ele>607.0</ele><time>2026-04-16T10:50:58.718Z</time></trkpt><trkpt lat="43.451253" lon="12.4622037"><ele>607.0</ele><time>2026-04-16T10:50:59.719Z</time></trkpt><trkpt lat="43.4513164" lon="12.4620933"><ele>607.0</ele><time>2026-04-16T10:51:00.721Z</time></trkpt><trkpt lat="43.4513571" lon="12.4620032"><ele>607.0</ele><time>2026-04-16T10:51:01.719Z</time></trkpt><trkpt lat="43.4513042" lon="12.4618927"><ele>607.0</ele><time>2026-04-16T10:51:03.72Z</time></trkpt><trkpt lat="43.4511907" lon="12.461914"><ele>607.0</ele><time>2026-04-16T10:51:05.719Z</time></trkpt><trkpt lat="43.4511302" lon="12.4619795"><ele>607.0</ele><time>2026-04-16T10:51:06.72Z</time></trkpt><trkpt lat="43.451068" lon="12.4620364"><ele>607.0</ele><time>2026-04-16T10:51:07.719Z</time></trkpt><trkpt lat="43.4509647" lon="12.4621966"><ele>607.0</ele><time>2026-04-16T10:51:08.72Z</time></trkpt><trkpt lat="43.4508791" lon="12.4622836"><ele>607.0</ele><time>2026-04-16T10:51:09.72Z</time></trkpt><trkpt lat="43.4507808" lon="12.4624098"><ele>607.0</ele><time>2026-04-16T10:51:10.719Z</time></trkpt><trkpt lat="43.4506853" lon="12.4625119"><ele>607.0</ele><time>2026-04-16T10:51:11.72Z</time></trkpt><trkpt lat="43.4505847" lon="12.462606"><ele>607.0</ele><time>2026-04-16T10:51:12.72Z</time></trkpt><trkpt lat="43.4504877" lon="12.4626936"><ele>604.4</ele><time>2026-04-16T10:51:13.719Z</time></trkpt><trkpt lat="43.450397" lon="12.4627798"><ele>601.8000000000001</ele><time>2026-04-16T10:51:14.72Z</time></trkpt><trkpt lat="43.4503085" lon="12.46293"><ele>599.2</ele><time>2026-04-16T10:51:16.72Z</time></trkpt><trkpt lat="43.4502511" lon="12.4630251"><ele>596.6</ele><time>2026-04-16T10:51:17.72Z</time></trkpt><trkpt lat="43.4502541" lon="12.4631168"><ele>594.0</ele><time>2026-04-16T10:51:18.719Z</time></trkpt><trkpt lat="43.4502508" lon="12.463228"><ele>592.3333333333334</ele><time>2026-04-16T10:51:19.72Z</time></trkpt><trkpt lat="43.4502731" lon="12.463326"><ele>590.6666666666666</ele><time>2026-04-16T10:51:20.72Z</time></trkpt><trkpt lat="43.4503234" lon="12.4634137"><ele>589.0</ele><time>2026-04-16T10:51:21.72Z</time></trkpt><trkpt lat="43.4503669" lon="12.4634988"><ele>587.3333333333333</ele><time>2026-04-16T10:51:22.719Z</time></trkpt><trkpt lat="43.4504302" lon="12.4635946"><ele>585.6666666666666</ele><time>2026-04-16T10:51:23.719Z</time></trkpt><trkpt lat="43.4505305" lon="12.4636789"><ele>584.0</ele><time>2026-04-16T10:51:24.719Z</time></trkpt><trkpt lat="43.4506144" lon="12.463758"><ele>585.0</ele><time>2026-04-16T10:51:25.719Z</time></trkpt><trkpt lat="43.4507076" lon="12.4638276"><ele>586.0</ele><time>2026-04-16T10:51:26.72Z</time></trkpt><trkpt lat="43.4507819" lon="12.4638732"><ele>587.0</ele><time>2026-04-16T10:51:27.72Z</time></trkpt><trkpt lat="43.4508365" lon="12.4639444"><ele>588.0</ele><time>2026-04-16T10:51:28.719Z</time></trkpt><trkpt lat="43.4509038" lon="12.4640271"><ele>589.0</ele><time>2026-04-16T10:51:29.72Z</time></trkpt><trkpt lat="43.4509715" lon="12.4640994"><ele>590.0</ele><time>2026-04-16T10:51:30.718Z</time></trkpt><trkpt lat="43.4508408" lon="12.4641344"><ele>590.0</ele><time>2026-04-16T10:51:32.719Z</time></trkpt><trkpt lat="43.4506865" lon="12.4640584"><ele>590.0</ele><time>2026-04-16T10:51:34.72Z</time></trkpt><trkpt lat="43.4506014" lon="12.4639965"><ele>590.0</ele><time>2026-04-16T10:51:35.719Z</time></trkpt><trkpt lat="43.4504593" lon="12.4638833"><ele>590.0</ele><time>2026-04-16T10:51:36.719Z</time></trkpt><trkpt lat="43.4502899" lon="12.4637267"><ele>588.5</ele><time>2026-04-16T10:51:37.72Z</time></trkpt><trkpt lat="43.450151" lon="12.4636631"><ele>587.0</ele><time>2026-04-16T10:51:38.719Z</time></trkpt><trkpt lat="43.4500362" lon="12.4635657"><ele>585.5</ele><time>2026-04-16T10:51:39.72Z</time></trkpt><trkpt lat="43.4499344" lon="12.4634676"><ele>584.0</ele><time>2026-04-16T10:51:40.719Z</time></trkpt><trkpt lat="43.4498152" lon="12.4633486"><ele>584.0</ele><time>2026-04-16T10:51:41.72Z</time></trkpt><trkpt lat="43.4497068" lon="12.4632375"><ele>584.0</ele><time>2026-04-16T10:51:42.72Z</time></trkpt><trkpt lat="43.4496045" lon="12.4631169"><ele>584.0</ele><time>2026-04-16T10:51:43.719Z</time></trkpt><trkpt lat="43.4495039" lon="12.4630022"><ele>584.0</ele><time>2026-04-16T10:51:44.718Z</time></trkpt><trkpt lat="43.4494101" lon="12.4628759"><ele>582.0</ele><time>2026-04-16T10:51:45.72Z</time></trkpt><trkpt lat="43.4493194" lon="12.462722"><ele>580.0</ele><time>2026-04-16T10:51:46.719Z</time></trkpt><trkpt lat="43.4492184" lon="12.4625682"><ele>578.0</ele><time>2026-04-16T10:51:47.72Z</time></trkpt><trkpt lat="43.4491304" lon="12.4624198"><ele>576.0</ele><time>2026-04-16T10:51:48.72Z</time></trkpt><trkpt lat="43.4490441" lon="12.4622664"><ele>576.0</ele><time>2026-04-16T10:51:49.72Z</time></trkpt><trkpt lat="43.4489614" lon="12.4621328"><ele>576.0</ele><time>2026-04-16T10:51:50.719Z</time></trkpt><trkpt lat="43.4488822" lon="12.4619764"><ele>576.0</ele><time>2026-04-16T10:51:51.718Z</time></trkpt><trkpt lat="43.448818" lon="12.461802"><ele>576.0</ele><time>2026-04-16T10:51:52.72Z</time></trkpt><trkpt lat="43.4487525" lon="12.4616283"><ele>573.0</ele><time>2026-04-16T10:51:53.72Z</time></trkpt><trkpt lat="43.4487164" lon="12.4613908"><ele>570.0</ele><time>2026-04-16T10:51:54.72Z</time></trkpt><trkpt lat="43.4486688" lon="12.461189"><ele>567.0</ele><time>2026-04-16T10:51:55.72Z</time></trkpt><trkpt lat="43.4486143" lon="12.4609974"><ele>567.0</ele><time>2026-04-16T10:51:56.719Z</time></trkpt><trkpt lat="43.4485481" lon="12.4608057"><ele>567.0</ele><time>2026-04-16T10:51:57.719Z</time></trkpt><trkpt lat="43.4484744" lon="12.4606276"><ele>567.0</ele><time>2026-04-16T10:51:58.718Z</time></trkpt><trkpt lat="43.4483518" lon="12.4604705"><ele>568.6666666666666</ele><time>2026-04-16T10:51:59.719Z</time></trkpt><trkpt lat="43.4482485" lon="12.460299"><ele>570.3333333333333</ele><time>2026-04-16T10:52:00.719Z</time></trkpt><trkpt lat="43.4481108" lon="12.4601482"><ele>572.0</ele><time>2026-04-16T10:52:01.72Z</time></trkpt><trkpt lat="43.4479841" lon="12.4600216"><ele>568.75</ele><time>2026-04-16T10:52:02.719Z</time></trkpt><trkpt lat="43.4478816" lon="12.4599608"><ele>565.5</ele><time>2026-04-16T10:52:03.719Z</time></trkpt><trkpt lat="43.4477975" lon="12.4598802"><ele>562.25</ele><time>2026-04-16T10:52:04.718Z</time></trkpt><trkpt lat="43.4476679" lon="12.4597736"><ele>559.0</ele><time>2026-04-16T10:52:05.719Z</time></trkpt><trkpt lat="43.4475659" lon="12.4596782"><ele>558.25</ele><time>2026-04-16T10:52:06.719Z</time></trkpt><trkpt lat="43.4474491" lon="12.4595583"><ele>557.5</ele><time>2026-04-16T10:52:07.72Z</time></trkpt><trkpt lat="43.4473417" lon="12.459424"><ele>556.75</ele><time>2026-04-16T10:52:08.719Z</time></trkpt><trkpt lat="43.4472385" lon="12.4592919"><ele>556.0</ele><time>2026-04-16T10:52:09.72Z</time></trkpt><trkpt lat="43.447124" lon="12.4591753"><ele>556.0</ele><time>2026-04-16T10:52:10.72Z</time></trkpt><trkpt lat="43.4470018" lon="12.4590347"><ele>556.0</ele><time>2026-04-16T10:52:11.718Z</time></trkpt><trkpt lat="43.4468692" lon="12.458883"><ele>556.0</ele><time>2026-04-16T10:52:12.719Z</time></trkpt><trkpt lat="43.4467312" lon="12.4587104"><ele>556.3333333333334</ele><time>2026-04-16T10:52:13.717Z</time></trkpt><trkpt lat="43.4465848" lon="12.4585353"><ele>556.6666666666666</ele><time>2026-04-16T10:52:14.72Z</time></trkpt><trkpt lat="43.4464373" lon="12.4583464"><ele>557.0</ele><time>2026-04-16T10:52:15.72Z</time></trkpt><trkpt lat="43.4462889" lon="12.4581517"><ele>558.3333333333333</ele><time>2026-04-16T10:52:16.719Z</time></trkpt><trkpt lat="43.4461413" lon="12.457961"><ele>559.6666666666666</ele><time>2026-04-16T10:52:17.72Z</time></trkpt><trkpt lat="43.4459989" lon="12.4577645"><ele>561.0</ele><time>2026-04-16T10:52:18.719Z</time></trkpt><trkpt lat="43.4458583" lon="12.4575859"><ele>561.0</ele><time>2026-04-16T10:52:19.719Z</time></trkpt><trkpt lat="43.4457279" lon="12.4574157"><ele>561.0</ele><time>2026-04-16T10:52:20.72Z</time></trkpt><trkpt lat="43.4456197" lon="12.4572536"><ele>561.0</ele><time>2026-04-16T10:52:21.719Z</time></trkpt><trkpt lat="43.4454975" lon="12.4570908"><ele>557.3333333333334</ele><time>2026-04-16T10:52:22.72Z</time></trkpt><trkpt lat="43.4454039" lon="12.4569584"><ele>553.6666666666667</ele><time>2026-04-16T10:52:23.72Z</time></trkpt><trkpt lat="43.4453023" lon="12.456796"><ele>550.0</ele><time>2026-04-16T10:52:24.719Z</time></trkpt><trkpt lat="43.4452026" lon="12.4565855"><ele>550.0</ele><time>2026-04-16T10:52:25.719Z</time></trkpt><trkpt lat="43.4451196" lon="12.456411"><ele>550.0</ele><time>2026-04-16T10:52:26.719Z</time></trkpt><trkpt lat="43.4450121" lon="12.4562057"><ele>550.0</ele><time>2026-04-16T10:52:27.719Z</time></trkpt><trkpt lat="43.444901" lon="12.4559966"><ele>548.6666666666667</ele><time>2026-04-16T10:52:28.718Z</time></trkpt><trkpt lat="43.4447964" lon="12.4557856"><ele>547.3333333333334</ele><time>2026-04-16T10:52:29.718Z</time></trkpt><trkpt lat="43.4446835" lon="12.4555425"><ele>546.0</ele><time>2026-04-16T10:52:30.721Z</time></trkpt><trkpt lat="43.4445723" lon="12.4553118"><ele>546.0</ele><time>2026-04-16T10:52:31.72Z</time></trkpt><trkpt lat="43.444459" lon="12.4550792"><ele>546.0</ele><time>2026-04-16T10:52:32.719Z</time></trkpt><trkpt lat="43.444365" lon="12.4548618"><ele>546.0</ele><time>2026-04-16T10:52:33.72Z</time></trkpt><trkpt lat="43.4442604" lon="12.4546545"><ele>547.3333333333334</ele><time>2026-04-16T10:52:34.72Z</time></trkpt><trkpt lat="43.4441637" lon="12.4544519"><ele>548.6666666666667</ele><time>2026-04-16T10:52:35.718Z</time></trkpt><trkpt lat="43.4440674" lon="12.4542595"><ele>550.0</ele><time>2026-04-16T10:52:36.72Z</time></trkpt><trkpt lat="43.4439756" lon="12.4540711"><ele>550.0</ele><time>2026-04-16T10:52:37.718Z</time></trkpt><trkpt lat="43.4438866" lon="12.4538882"><ele>550.0</ele><time>2026-04-16T10:52:38.718Z</time></trkpt><trkpt lat="43.4438293" lon="12.4537409"><ele>550.0</ele><time>2026-04-16T10:52:39.72Z</time></trkpt><trkpt lat="43.4437505" lon="12.4535651"><ele>550.0</ele><time>2026-04-16T10:52:40.718Z</time></trkpt><trkpt lat="43.4437016" lon="12.4533798"><ele>545.0</ele><time>2026-04-16T10:52:41.72Z</time></trkpt><trkpt lat="43.443644" lon="12.4531629"><ele>540.0</ele><time>2026-04-16T10:52:42.72Z</time></trkpt><trkpt lat="43.443595" lon="12.4529404"><ele>535.0</ele><time>2026-04-16T10:52:43.718Z</time></trkpt><trkpt lat="43.4435536" lon="12.4527026"><ele>535.0</ele><time>2026-04-16T10:52:44.719Z</time></trkpt><trkpt lat="43.4435136" lon="12.4524516"><ele>535.0</ele><time>2026-04-16T10:52:45.72Z</time></trkpt><trkpt lat="43.4434605" lon="12.4521925"><ele>535.0</ele><time>2026-04-16T10:52:46.72Z</time></trkpt><trkpt lat="43.4434143" lon="12.4519321"><ele>535.0</ele><time>2026-04-16T10:52:47.719Z</time></trkpt><trkpt lat="43.4433661" lon="12.4516623"><ele>535.0</ele><time>2026-04-16T10:52:48.718Z</time></trkpt><trkpt lat="43.4433235" lon="12.4513942"><ele>535.0</ele><time>2026-04-16T10:52:49.719Z</time></trkpt><trkpt lat="43.4432768" lon="12.4511158"><ele>534.6666666666667</ele><time>2026-04-16T10:52:50.718Z</time></trkpt><trkpt lat="43.4432264" lon="12.4508401"><ele>534.3333333333334</ele><time>2026-04-16T10:52:51.719Z</time></trkpt><trkpt lat="43.4431697" lon="12.4505716"><ele>534.0</ele><time>2026-04-16T10:52:52.719Z</time></trkpt><trkpt lat="43.4431238" lon="12.450319"><ele>533.6666666666666</ele><time>2026-04-16T10:52:53.72Z</time></trkpt><trkpt lat="43.4430811" lon="12.4500964"><ele>533.3333333333333</ele><time>2026-04-16T10:52:54.719Z</time></trkpt><trkpt lat="43.443037" lon="12.4498741"><ele>533.0</ele><time>2026-04-16T10:52:55.716Z</time></trkpt><trkpt lat="43.4429892" lon="12.4496649"><ele>531.25</ele><time>2026-04-16T10:52:56.719Z</time></trkpt><trkpt lat="43.4429514" lon="12.4494648"><ele>529.5</ele><time>2026-04-16T10:52:57.719Z</time></trkpt><trkpt lat="43.4429144" lon="12.4492733"><ele>527.75</ele><time>2026-04-16T10:52:58.719Z</time></trkpt><trkpt lat="43.4428812" lon="12.4490916"><ele>526.0</ele><time>2026-04-16T10:52:59.719Z</time></trkpt><trkpt lat="43.4428667" lon="12.4489121"><ele>527.25</ele><time>2026-04-16T10:53:00.72Z</time></trkpt><trkpt lat="43.4428677" lon="12.4487362"><ele>528.5</ele><time>2026-04-16T10:53:01.719Z</time></trkpt><trkpt lat="43.4428706" lon="12.4485566"><ele>529.75</ele><time>2026-04-16T10:53:02.72Z</time></trkpt><trkpt lat="43.4428832" lon="12.4483742"><ele>531.0</ele><time>2026-04-16T10:53:03.718Z</time></trkpt><trkpt lat="43.4428776" lon="12.4481729"><ele>531.0</ele><time>2026-04-16T10:53:04.72Z</time></trkpt><trkpt lat="43.4428701" lon="12.4479607"><ele>531.0</ele><time>2026-04-16T10:53:05.72Z</time></trkpt><trkpt lat="43.4428553" lon="12.4477454"><ele>531.0</ele><time>2026-04-16T10:53:06.72Z</time></trkpt><trkpt lat="43.4428472" lon="12.4475026"><ele>531.3333333333334</ele><time>2026-04-16T10:53:07.721Z</time></trkpt><trkpt lat="43.4428361" lon="12.4472655"><ele>531.6666666666667</ele><time>2026-04-16T10:53:08.72Z</time></trkpt><trkpt lat="43.4428237" lon="12.4470225"><ele>532.0</ele><time>2026-04-16T10:53:09.721Z</time></trkpt><trkpt lat="43.442824" lon="12.4468103"><ele>532.6666666666667</ele><time>2026-04-16T10:53:10.719Z</time></trkpt><trkpt lat="43.442824" lon="12.4466027"><ele>533.3333333333334</ele><time>2026-04-16T10:53:11.72Z</time></trkpt><trkpt lat="43.4428239" lon="12.4463884"><ele>534.0</ele><time>2026-04-16T10:53:12.72Z</time></trkpt><trkpt lat="43.4428222" lon="12.4461702"><ele>534.3333333333334</ele><time>2026-04-16T10:53:13.719Z</time></trkpt><trkpt lat="43.4428326" lon="12.4459538"><ele>534.6666666666667</ele><time>2026-04-16T10:53:14.719Z</time></trkpt><trkpt lat="43.4428449" lon="12.445754"><ele>535.0</ele><time>2026-04-16T10:53:15.719Z</time></trkpt><trkpt lat="43.4428539" lon="12.4455463"><ele>534.0</ele><time>2026-04-16T10:53:16.718Z</time></trkpt><trkpt lat="43.4428793" lon="12.4453871"><ele>533.0</ele><time>2026-04-16T10:53:17.72Z</time></trkpt><trkpt lat="43.4429189" lon="12.4452488"><ele>532.0</ele><time>2026-04-16T10:53:18.72Z</time></trkpt><trkpt lat="43.4429792" lon="12.4451421"><ele>531.0</ele><time>2026-04-16T10:53:19.72Z</time></trkpt><trkpt lat="43.4430548" lon="12.445066"><ele>530.0</ele><time>2026-04-16T10:53:20.719Z</time></trkpt><trkpt lat="43.4431776" lon="12.4450382"><ele>534.0</ele><time>2026-04-16T10:53:21.72Z</time></trkpt><trkpt lat="43.4432887" lon="12.4449895"><ele>538.0</ele><time>2026-04-16T10:53:22.719Z</time></trkpt><trkpt lat="43.4433807" lon="12.4449136"><ele>542.0</ele><time>2026-04-16T10:53:23.719Z</time></trkpt><trkpt lat="43.4434422" lon="12.4448057"><ele>546.0</ele><time>2026-04-16T10:53:24.719Z</time></trkpt><trkpt lat="43.4435139" lon="12.4446885"><ele>550.0</ele><time>2026-04-16T10:53:25.719Z</time></trkpt><trkpt lat="43.4434763" lon="12.4445157"><ele>550.0</ele><time>2026-04-16T10:53:26.719Z</time></trkpt><trkpt lat="43.4434592" lon="12.444353"><ele>550.0</ele><time>2026-04-16T10:53:27.719Z</time></trkpt><trkpt lat="43.4434201" lon="12.444154"><ele>550.0</ele><time>2026-04-16T10:53:28.718Z</time></trkpt><trkpt lat="43.4433762" lon="12.4439611"><ele>550.0</ele><time>2026-04-16T10:53:29.72Z</time></trkpt><trkpt lat="43.443336" lon="12.4437632"><ele>552.5</ele><time>2026-04-16T10:53:30.72Z</time></trkpt><trkpt lat="43.4432885" lon="12.443568"><ele>555.0</ele><time>2026-04-16T10:53:31.72Z</time></trkpt><trkpt lat="43.4432275" lon="12.4433855"><ele>557.5</ele><time>2026-04-16T10:53:32.719Z</time></trkpt><trkpt lat="43.4431715" lon="12.4432007"><ele>560.0</ele><time>2026-04-16T10:53:33.72Z</time></trkpt><trkpt lat="43.4430824" lon="12.4429937"><ele>562.6666666666666</ele><time>2026-04-16T10:53:34.721Z</time></trkpt><trkpt lat="43.4430078" lon="12.4428005"><ele>565.3333333333334</ele><time>2026-04-16T10:53:35.719Z</time></trkpt><trkpt lat="43.4429449" lon="12.4426378"><ele>568.0</ele><time>2026-04-16T10:53:36.721Z</time></trkpt><trkpt lat="43.4429072" lon="12.4424258"><ele>560.3333333333334</ele><time>2026-04-16T10:53:37.72Z</time></trkpt><trkpt lat="43.4428561" lon="12.4422346"><ele>552.6666666666666</ele><time>2026-04-16T10:53:38.72Z</time></trkpt><trkpt lat="43.4428671" lon="12.4420262"><ele>545.0</ele><time>2026-04-16T10:53:39.72Z</time></trkpt><trkpt lat="43.4429329" lon="12.441792"><ele>545.0</ele><time>2026-04-16T10:53:40.719Z</time></trkpt><trkpt lat="43.442938" lon="12.4415801"><ele>545.0</ele><time>2026-04-16T10:53:41.719Z</time></trkpt><trkpt lat="43.4429403" lon="12.4413585"><ele>545.0</ele><time>2026-04-16T10:53:42.72Z</time></trkpt><trkpt lat="43.4428892" lon="12.4411393"><ele>546.25</ele><time>2026-04-16T10:53:43.721Z</time></trkpt><trkpt lat="43.4428498" lon="12.4409126"><ele>547.5</ele><time>2026-04-16T10:53:44.72Z</time></trkpt><trkpt lat="43.4428091" lon="12.440752"><ele>548.75</ele><time>2026-04-16T10:53:45.721Z</time></trkpt><trkpt lat="43.4427696" lon="12.4405634"><ele>550.0</ele><time>2026-04-16T10:53:46.719Z</time></trkpt><trkpt lat="43.4427257" lon="12.440389"><ele>551.2</ele><time>2026-04-16T10:53:47.72Z</time></trkpt><trkpt lat="43.4427004" lon="12.4402366"><ele>552.4</ele><time>2026-04-16T10:53:48.719Z</time></trkpt><trkpt lat="43.4426762" lon="12.4400959"><ele>553.6</ele><time>2026-04-16T10:53:49.72Z</time></trkpt><trkpt lat="43.4426654" lon="12.4399703"><ele>554.8</ele><time>2026-04-16T10:53:50.72Z</time></trkpt><trkpt lat="43.4426452" lon="12.4398401"><ele>556.0</ele><time>2026-04-16T10:53:51.719Z</time></trkpt><trkpt lat="43.4426236" lon="12.4397181"><ele>557.4</ele><time>2026-04-16T10:53:52.718Z</time></trkpt><trkpt lat="43.4426028" lon="12.4396183"><ele>558.8</ele><time>2026-04-16T10:53:53.72Z</time></trkpt><trkpt lat="43.4425893" lon="12.4395182"><ele>560.1999999999999</ele><time>2026-04-16T10:53:54.72Z</time></trkpt><trkpt lat="43.4425658" lon="12.4393669"><ele>561.6</ele><time>2026-04-16T10:53:56.719Z</time></trkpt><trkpt lat="43.4425416" lon="12.4391856"><ele>563.0</ele><time>2026-04-16T10:53:58.721Z</time></trkpt><trkpt lat="43.4425113" lon="12.4390389"><ele>563.0</ele><time>2026-04-16T10:54:00.718Z</time></trkpt><trkpt lat="43.44249" lon="12.4389431"><ele>563.0</ele><time>2026-04-16T10:54:01.719Z</time></trkpt><trkpt lat="43.4424708" lon="12.4388448"><ele>563.0</ele><time>2026-04-16T10:54:02.72Z</time></trkpt><trkpt lat="43.4424549" lon="12.4387414"><ele>563.0</ele><time>2026-04-16T10:54:03.72Z</time></trkpt><trkpt lat="43.4424326" lon="12.4386489"><ele>563.0</ele><time>2026-04-16T10:54:04.719Z</time></trkpt><trkpt lat="43.4424001" lon="12.4385532"><ele>563.0</ele><time>2026-04-16T10:54:05.72Z</time></trkpt><trkpt lat="43.4423799" lon="12.4384377"><ele>563.6</ele><time>2026-04-16T10:54:06.719Z</time></trkpt><trkpt lat="43.442363" lon="12.43832"><ele>564.1999999999999</ele><time>2026-04-16T10:54:07.72Z</time></trkpt><trkpt lat="43.4423432" lon="12.4381862"><ele>564.8</ele><time>2026-04-16T10:54:08.72Z</time></trkpt><trkpt lat="43.4423285" lon="12.4380296"><ele>565.4</ele><time>2026-04-16T10:54:09.72Z</time></trkpt><trkpt lat="43.4423081" lon="12.437873"><ele>566.0</ele><time>2026-04-16T10:54:10.72Z</time></trkpt><trkpt lat="43.4422918" lon="12.4377151"><ele>566.0</ele><time>2026-04-16T10:54:11.72Z</time></trkpt><trkpt lat="43.4422769" lon="12.4375864"><ele>566.0</ele><time>2026-04-16T10:54:12.719Z</time></trkpt><trkpt lat="43.4422716" lon="12.4374688"><ele>566.0</ele><time>2026-04-16T10:54:13.718Z</time></trkpt><trkpt lat="43.4422873" lon="12.437372"><ele>566.0</ele><time>2026-04-16T10:54:14.72Z</time></trkpt><trkpt lat="43.4423545" lon="12.4372719"><ele>566.0</ele><time>2026-04-16T10:54:16.719Z</time></trkpt><trkpt lat="43.4424014" lon="12.437214"><ele>566.0</ele><time>2026-04-16T10:54:17.719Z</time></trkpt><trkpt lat="43.4424901" lon="12.437218"><ele>566.0</ele><time>2026-04-16T10:54:19.721Z</time></trkpt><trkpt lat="43.4426198" lon="12.4372641"><ele>566.0</ele><time>2026-04-16T10:54:21.721Z</time></trkpt><trkpt lat="43.4426901" lon="12.4372799"><ele>566.0</ele><time>2026-04-16T10:54:22.72Z</time></trkpt><trkpt lat="43.4427931" lon="12.4373336"><ele>566.0</ele><time>2026-04-16T10:54:23.72Z</time></trkpt><trkpt lat="43.442881" lon="12.43735"><ele>566.0</ele><time>2026-04-16T10:54:24.72Z</time></trkpt><trkpt lat="43.4429631" lon="12.43738"><ele>566.0</ele><time>2026-04-16T10:54:25.719Z</time></trkpt><trkpt lat="43.4430257" lon="12.4374097"><ele>566.0</ele><time>2026-04-16T10:54:26.72Z</time></trkpt><trkpt lat="43.443097" lon="12.4374186"><ele>566.0</ele><time>2026-04-16T10:54:27.72Z</time></trkpt><trkpt lat="43.4431553" lon="12.4373757"><ele>566.0</ele><time>2026-04-16T10:54:28.72Z</time></trkpt><trkpt lat="43.4432204" lon="12.437329"><ele>566.0</ele><time>2026-04-16T10:54:29.719Z</time></trkpt><trkpt lat="43.4433084" lon="12.4372278"><ele>566.0</ele><time>2026-04-16T10:54:31.72Z</time></trkpt><trkpt lat="43.4433569" lon="12.4371601"><ele>563.0</ele><time>2026-04-16T10:54:32.72Z</time></trkpt><trkpt lat="43.4434498" lon="12.4369096"><ele>560.0</ele><time>2026-04-16T10:54:35.721Z</time></trkpt><trkpt lat="43.4434822" lon="12.4366795"><ele>557.0</ele><time>2026-04-16T10:54:37.719Z</time></trkpt><trkpt lat="43.4434921" lon="12.4365318"><ele>557.0</ele><time>2026-04-16T10:54:38.719Z</time></trkpt><trkpt lat="43.4434959" lon="12.4363932"><ele>557.0</ele><time>2026-04-16T10:54:39.719Z</time></trkpt><trkpt lat="43.4435042" lon="12.4362551"><ele>557.0</ele><time>2026-04-16T10:54:40.719Z</time></trkpt><trkpt lat="43.4435185" lon="12.4361207"><ele>557.0</ele><time>2026-04-16T10:54:41.719Z</time></trkpt><trkpt lat="43.4435371" lon="12.4359939"><ele>557.0</ele><time>2026-04-16T10:54:42.718Z</time></trkpt><trkpt lat="43.4435919" lon="12.4358833"><ele>554.0</ele><time>2026-04-16T10:54:43.717Z</time></trkpt><trkpt lat="43.443627" lon="12.4357643"><ele>551.0</ele><time>2026-04-16T10:54:44.717Z</time></trkpt><trkpt lat="43.443705" lon="12.4357396"><ele>548.0</ele><time>2026-04-16T10:54:45.719Z</time></trkpt><trkpt lat="43.4438325" lon="12.435922"><ele>545.0</ele><time>2026-04-16T10:54:46.718Z</time></trkpt><trkpt lat="43.443932" lon="12.4359559"><ele>544.25</ele><time>2026-04-16T10:54:47.719Z</time></trkpt><trkpt lat="43.4440361" lon="12.4360248"><ele>543.5</ele><time>2026-04-16T10:54:48.719Z</time></trkpt><trkpt lat="43.4441517" lon="12.4360828"><ele>542.75</ele><time>2026-04-16T10:54:49.719Z</time></trkpt><trkpt lat="43.4442645" lon="12.4361459"><ele>542.0</ele><time>2026-04-16T10:54:50.719Z</time></trkpt><trkpt lat="43.4443688" lon="12.4362171"><ele>542.0</ele><time>2026-04-16T10:54:51.719Z</time></trkpt><trkpt lat="43.4444647" lon="12.4363008"><ele>542.0</ele><time>2026-04-16T10:54:52.719Z</time></trkpt><trkpt lat="43.444556" lon="12.4364101"><ele>542.0</ele><time>2026-04-16T10:54:53.718Z</time></trkpt><trkpt lat="43.4446403" lon="12.4365356"><ele>542.0</ele><time>2026-04-16T10:54:54.719Z</time></trkpt><trkpt lat="43.4447121" lon="12.4366609"><ele>541.0</ele><time>2026-04-16T10:54:55.719Z</time></trkpt><trkpt lat="43.4447965" lon="12.4367837"><ele>540.0</ele><time>2026-04-16T10:54:56.719Z</time></trkpt><trkpt lat="43.4448912" lon="12.4369041"><ele>539.0</ele><time>2026-04-16T10:54:57.719Z</time></trkpt><trkpt lat="43.4449868" lon="12.436995"><ele>538.0</ele><time>2026-04-16T10:54:58.719Z</time></trkpt><trkpt lat="43.4450916" lon="12.437054"><ele>538.0</ele><time>2026-04-16T10:54:59.719Z</time></trkpt><trkpt lat="43.4451708" lon="12.4370687"><ele>538.0</ele><time>2026-04-16T10:55:00.719Z</time></trkpt><trkpt lat="43.4452335" lon="12.4370264"><ele>538.0</ele><time>2026-04-16T10:55:01.718Z</time></trkpt><trkpt lat="43.4452631" lon="12.4369458"><ele>538.0</ele><time>2026-04-16T10:55:02.719Z</time></trkpt><trkpt lat="43.4452503" lon="12.4368506"><ele>538.0</ele><time>2026-04-16T10:55:03.718Z</time></trkpt><trkpt lat="43.4452" lon="12.4367688"><ele>538.0</ele><time>2026-04-16T10:55:04.719Z</time></trkpt><trkpt lat="43.445133" lon="12.4366814"><ele>538.0</ele><time>2026-04-16T10:55:05.718Z</time></trkpt><trkpt lat="43.4450665" lon="12.4365581"><ele>538.0</ele><time>2026-04-16T10:55:06.718Z</time></trkpt><trkpt lat="43.4450189" lon="12.436408"><ele>538.0</ele><time>2026-04-16T10:55:07.719Z</time></trkpt><trkpt lat="43.4449976" lon="12.4362375"><ele>538.0</ele><time>2026-04-16T10:55:08.718Z</time></trkpt><trkpt lat="43.4449987" lon="12.4360717"><ele>535.6</ele><time>2026-04-16T10:55:09.719Z</time></trkpt><trkpt lat="43.4449849" lon="12.435923"><ele>533.1999999999999</ele><time>2026-04-16T10:55:10.719Z</time></trkpt><trkpt lat="43.444933" lon="12.435792"><ele>530.8</ele><time>2026-04-16T10:55:11.718Z</time></trkpt><trkpt lat="43.4448504" lon="12.4356866"><ele>528.4</ele><time>2026-04-16T10:55:12.719Z</time></trkpt><trkpt lat="43.4447503" lon="12.4356254"><ele>526.0</ele><time>2026-04-16T10:55:13.718Z</time></trkpt><trkpt lat="43.4446576" lon="12.4355687"><ele>526.0</ele><time>2026-04-16T10:55:14.719Z</time></trkpt><trkpt lat="43.4445721" lon="12.4355034"><ele>526.0</ele><time>2026-04-16T10:55:15.719Z</time></trkpt><trkpt lat="43.4444922" lon="12.4354359"><ele>526.0</ele><time>2026-04-16T10:55:16.718Z</time></trkpt><trkpt lat="43.4444227" lon="12.4353725"><ele>526.0</ele><time>2026-04-16T10:55:17.718Z</time></trkpt><trkpt lat="43.4443704" lon="12.435308"><ele>526.0</ele><time>2026-04-16T10:55:18.719Z</time></trkpt><trkpt lat="43.4443354" lon="12.4351635"><ele>526.0</ele><time>2026-04-16T10:55:20.718Z</time></trkpt><trkpt lat="43.4444063" lon="12.4351685"><ele>526.0</ele><time>2026-04-16T10:55:22.718Z</time></trkpt><trkpt lat="43.4445224" lon="12.435225"><ele>526.0</ele><time>2026-04-16T10:55:23.718Z</time></trkpt><trkpt lat="43.4446123" lon="12.435258"><ele>526.0</ele><time>2026-04-16T10:55:24.719Z</time></trkpt><trkpt lat="43.4447385" lon="12.4353038"><ele>526.0</ele><time>2026-04-16T10:55:25.719Z</time></trkpt><trkpt lat="43.444886" lon="12.4353492"><ele>526.0</ele><time>2026-04-16T10:55:26.719Z</time></trkpt><trkpt lat="43.4450454" lon="12.4354046"><ele>526.0</ele><time>2026-04-16T10:55:27.719Z</time></trkpt><trkpt lat="43.4452296" lon="12.4354499"><ele>526.0</ele><time>2026-04-16T10:55:28.719Z</time></trkpt><trkpt lat="43.4453957" lon="12.4355057"><ele>525.6666666666667</ele><time>2026-04-16T10:55:29.718Z</time></trkpt><trkpt lat="43.4455563" lon="12.4355473"><ele>525.3333333333334</ele><time>2026-04-16T10:55:30.718Z</time></trkpt><trkpt lat="43.4457078" lon="12.4355952"><ele>525.0</ele><time>2026-04-16T10:55:31.719Z</time></trkpt><trkpt lat="43.445848" lon="12.4356325"><ele>525.0</ele><time>2026-04-16T10:55:32.718Z</time></trkpt><trkpt lat="43.4459775" lon="12.4356561"><ele>525.0</ele><time>2026-04-16T10:55:33.719Z</time></trkpt><trkpt lat="43.4460939" lon="12.435663"><ele>525.0</ele><time>2026-04-16T10:55:34.719Z</time></trkpt><trkpt lat="43.4461944" lon="12.4356698"><ele>525.0</ele><time>2026-04-16T10:55:35.719Z</time></trkpt><trkpt lat="43.4462734" lon="12.4356592"><ele>525.0</ele><time>2026-04-16T10:55:36.719Z</time></trkpt><trkpt lat="43.4463356" lon="12.4356002"><ele>524.25</ele><time>2026-04-16T10:55:37.72Z</time></trkpt><trkpt lat="43.4463887" lon="12.4355173"><ele>523.5</ele><time>2026-04-16T10:55:38.719Z</time></trkpt><trkpt lat="43.4463961" lon="12.4353671"><ele>522.75</ele><time>2026-04-16T10:55:39.717Z</time></trkpt><trkpt lat="43.4464033" lon="12.435199"><ele>522.0</ele><time>2026-04-16T10:55:40.719Z</time></trkpt><trkpt lat="43.4464229" lon="12.4349881"><ele>519.3333333333334</ele><time>2026-04-16T10:55:41.719Z</time></trkpt><trkpt lat="43.4464477" lon="12.4347495"><ele>516.6666666666667</ele><time>2026-04-16T10:55:42.718Z</time></trkpt><trkpt lat="43.4464816" lon="12.4344883"><ele>514.0</ele><time>2026-04-16T10:55:43.718Z</time></trkpt><trkpt lat="43.4465368" lon="12.4342045"><ele>513.0</ele><time>2026-04-16T10:55:44.718Z</time></trkpt><trkpt lat="43.4466226" lon="12.4339226"><ele>512.0</ele><time>2026-04-16T10:55:45.718Z</time></trkpt><trkpt lat="43.4467337" lon="12.4336421"><ele>512.0</ele><time>2026-04-16T10:55:46.719Z</time></trkpt><trkpt lat="43.446847" lon="12.4333624"><ele>512.0</ele><time>2026-04-16T10:55:47.719Z</time></trkpt><trkpt lat="43.446994" lon="12.4330808"><ele>514.5</ele><time>2026-04-16T10:55:48.719Z</time></trkpt><trkpt lat="43.4471501" lon="12.4327831"><ele>517.0</ele><time>2026-04-16T10:55:49.719Z</time></trkpt><trkpt lat="43.4473076" lon="12.4324928"><ele>517.0</ele><time>2026-04-16T10:55:50.718Z</time></trkpt><trkpt lat="43.4474614" lon="12.4322022"><ele>517.0</ele><time>2026-04-16T10:55:51.719Z</time></trkpt><trkpt lat="43.4476067" lon="12.4319087"><ele>519.0</ele><time>2026-04-16T10:55:52.719Z</time></trkpt><trkpt lat="43.4477355" lon="12.4316191"><ele>521.0</ele><time>2026-04-16T10:55:53.719Z</time></trkpt><trkpt lat="43.4478471" lon="12.4313317"><ele>523.0</ele><time>2026-04-16T10:55:54.719Z</time></trkpt><trkpt lat="43.4479521" lon="12.4310428"><ele>525.0</ele><time>2026-04-16T10:55:55.72Z</time></trkpt><trkpt lat="43.4480491" lon="12.4307567"><ele>533.5</ele><time>2026-04-16T10:55:56.72Z</time></trkpt><trkpt lat="43.4481444" lon="12.4304653"><ele>542.0</ele><time>2026-04-16T10:55:57.72Z</time></trkpt><trkpt lat="43.4482373" lon="12.4301784"><ele>542.0</ele><time>2026-04-16T10:55:58.72Z</time></trkpt><trkpt lat="43.4483651" lon="12.4299131"><ele>542.0</ele><time>2026-04-16T10:55:59.721Z</time></trkpt><trkpt lat="43.4484759" lon="12.429638"><ele>540.3333333333333</ele><time>2026-04-16T10:56:00.72Z</time></trkpt><trkpt lat="43.4485737" lon="12.4293593"><ele>538.6666666666666</ele><time>2026-04-16T10:56:01.72Z</time></trkpt><trkpt lat="43.4486798" lon="12.4291069"><ele>537.0</ele><time>2026-04-16T10:56:02.72Z</time></trkpt><trkpt lat="43.4487725" lon="12.4288468"><ele>542.0</ele><time>2026-04-16T10:56:03.719Z</time></trkpt><trkpt lat="43.4488708" lon="12.4285814"><ele>547.0</ele><time>2026-04-16T10:56:04.72Z</time></trkpt><trkpt lat="43.4489722" lon="12.4283384"><ele>552.0</ele><time>2026-04-16T10:56:05.721Z</time></trkpt><trkpt lat="43.449097" lon="12.4281176"><ele>551.6666666666666</ele><time>2026-04-16T10:56:06.72Z</time></trkpt><trkpt lat="43.4492249" lon="12.427915"><ele>551.3333333333333</ele><time>2026-04-16T10:56:07.719Z</time></trkpt><trkpt lat="43.4493671" lon="12.4277289"><ele>551.0</ele><time>2026-04-16T10:56:08.718Z</time></trkpt><trkpt lat="43.4495129" lon="12.4275623"><ele>555.6666666666666</ele><time>2026-04-16T10:56:09.72Z</time></trkpt><trkpt lat="43.4496617" lon="12.4274099"><ele>560.3333333333334</ele><time>2026-04-16T10:56:10.72Z</time></trkpt><trkpt lat="43.4498047" lon="12.4272667"><ele>565.0</ele><time>2026-04-16T10:56:11.72Z</time></trkpt><trkpt lat="43.4499205" lon="12.4271241"><ele>566.25</ele><time>2026-04-16T10:56:12.719Z</time></trkpt><trkpt lat="43.4499985" lon="12.4269773"><ele>567.5</ele><time>2026-04-16T10:56:13.719Z</time></trkpt><trkpt lat="43.4500229" lon="12.4268396"><ele>568.75</ele><time>2026-04-16T10:56:14.72Z</time></trkpt><trkpt lat="43.4500047" lon="12.4266895"><ele>570.0</ele><time>2026-04-16T10:56:15.72Z</time></trkpt><trkpt lat="43.4499428" lon="12.4265401"><ele>570.0</ele><time>2026-04-16T10:56:16.719Z</time></trkpt><trkpt lat="43.4498476" lon="12.4264087"><ele>570.0</ele><time>2026-04-16T10:56:17.72Z</time></trkpt><trkpt lat="43.4497177" lon="12.4263052"><ele>570.0</ele><time>2026-04-16T10:56:18.72Z</time></trkpt><trkpt lat="43.4495599" lon="12.4262051"><ele>573.3333333333334</ele><time>2026-04-16T10:56:19.719Z</time></trkpt><trkpt lat="43.4493865" lon="12.4261115"><ele>576.6666666666667</ele><time>2026-04-16T10:56:20.72Z</time></trkpt><trkpt lat="43.4491837" lon="12.426036"><ele>580.0</ele><time>2026-04-16T10:56:21.721Z</time></trkpt><trkpt lat="43.4489946" lon="12.425959"><ele>580.0</ele><time>2026-04-16T10:56:22.72Z</time></trkpt><trkpt lat="43.4488136" lon="12.4258718"><ele>580.0</ele><time>2026-04-16T10:56:23.72Z</time></trkpt><trkpt lat="43.4486246" lon="12.4258088"><ele>580.0</ele><time>2026-04-16T10:56:24.72Z</time></trkpt><trkpt lat="43.4484231" lon="12.4257925"><ele>579.6666666666667</ele><time>2026-04-16T10:56:25.719Z</time></trkpt><trkpt lat="43.4482277" lon="12.4258064"><ele>579.3333333333334</ele><time>2026-04-16T10:56:26.72Z</time></trkpt><trkpt lat="43.4480476" lon="12.4258503"><ele>579.0</ele><time>2026-04-16T10:56:27.719Z</time></trkpt><trkpt lat="43.4478866" lon="12.4259105"><ele>580.6666666666666</ele><time>2026-04-16T10:56:28.719Z</time></trkpt><trkpt lat="43.4477297" lon="12.4259738"><ele>582.3333333333333</ele><time>2026-04-16T10:56:29.719Z</time></trkpt><trkpt lat="43.447588" lon="12.4260381"><ele>584.0</ele><time>2026-04-16T10:56:30.719Z</time></trkpt><trkpt lat="43.4474478" lon="12.4260956"><ele>584.0</ele><time>2026-04-16T10:56:31.72Z</time></trkpt><trkpt lat="43.4473265" lon="12.4261549"><ele>584.0</ele><time>2026-04-16T10:56:32.72Z</time></trkpt><trkpt lat="43.4472087" lon="12.4261976"><ele>584.0</ele><time>2026-04-16T10:56:33.719Z</time></trkpt><trkpt lat="43.4470897" lon="12.4262122"><ele>584.0</ele><time>2026-04-16T10:56:34.719Z</time></trkpt><trkpt lat="43.4469798" lon="12.4262227"><ele>583.0</ele><time>2026-04-16T10:56:35.72Z</time></trkpt><trkpt lat="43.4468953" lon="12.4261365"><ele>582.0</ele><time>2026-04-16T10:56:36.72Z</time></trkpt><trkpt lat="43.446808" lon="12.4260534"><ele>581.0</ele><time>2026-04-16T10:56:37.719Z</time></trkpt><trkpt lat="43.4468108" lon="12.4258685"><ele>580.0</ele><time>2026-04-16T10:56:38.72Z</time></trkpt><trkpt lat="43.4468113" lon="12.4256996"><ele>580.0</ele><time>2026-04-16T10:56:39.72Z</time></trkpt><trkpt lat="43.446839" lon="12.4254996"><ele>580.0</ele><time>2026-04-16T10:56:40.719Z</time></trkpt><trkpt lat="43.4468745" lon="12.4252797"><ele>580.0</ele><time>2026-04-16T10:56:41.719Z</time></trkpt><trkpt lat="43.4469058" lon="12.4250499"><ele>577.3333333333334</ele><time>2026-04-16T10:56:42.719Z</time></trkpt><trkpt lat="43.4469316" lon="12.4248214"><ele>574.6666666666666</ele><time>2026-04-16T10:56:43.72Z</time></trkpt><trkpt lat="43.4469543" lon="12.4246132"><ele>572.0</ele><time>2026-04-16T10:56:44.719Z</time></trkpt><trkpt lat="43.4469918" lon="12.4244098"><ele>573.0</ele><time>2026-04-16T10:56:45.72Z</time></trkpt><trkpt lat="43.447058" lon="12.424221"><ele>574.0</ele><time>2026-04-16T10:56:46.719Z</time></trkpt><trkpt lat="43.4471544" lon="12.4240482"><ele>575.0</ele><time>2026-04-16T10:56:47.718Z</time></trkpt><trkpt lat="43.4472581" lon="12.4238885"><ele>570.0</ele><time>2026-04-16T10:56:48.72Z</time></trkpt><trkpt lat="43.4473706" lon="12.4237377"><ele>565.0</ele><time>2026-04-16T10:56:49.72Z</time></trkpt><trkpt lat="43.4474409" lon="12.4235477"><ele>560.0</ele><time>2026-04-16T10:56:50.721Z</time></trkpt><trkpt lat="43.4474819" lon="12.4233557"><ele>560.0</ele><time>2026-04-16T10:56:51.719Z</time></trkpt><trkpt lat="43.4474985" lon="12.4231469"><ele>560.0</ele><time>2026-04-16T10:56:52.72Z</time></trkpt><trkpt lat="43.447451" lon="12.4229276"><ele>560.0</ele><time>2026-04-16T10:56:53.72Z</time></trkpt><trkpt lat="43.4474076" lon="12.4227161"><ele>558.6666666666666</ele><time>2026-04-16T10:56:54.718Z</time></trkpt><trkpt lat="43.447332" lon="12.4225229"><ele>557.3333333333334</ele><time>2026-04-16T10:56:55.72Z</time></trkpt><trkpt lat="43.4472609" lon="12.4223307"><ele>556.0</ele><time>2026-04-16T10:56:56.72Z</time></trkpt><trkpt lat="43.447209" lon="12.4221274"><ele>554.6666666666667</ele><time>2026-04-16T10:56:57.72Z</time></trkpt><trkpt lat="43.4471925" lon="12.4219183"><ele>553.3333333333334</ele><time>2026-04-16T10:56:58.72Z</time></trkpt><trkpt lat="43.4471625" lon="12.4216986"><ele>552.0</ele><time>2026-04-16T10:56:59.72Z</time></trkpt><trkpt lat="43.4471597" lon="12.4214766"><ele>547.0</ele><time>2026-04-16T10:57:00.72Z</time></trkpt><trkpt lat="43.4471879" lon="12.4212655"><ele>542.0</ele><time>2026-04-16T10:57:01.72Z</time></trkpt><trkpt lat="43.447215" lon="12.4210674"><ele>537.0</ele><time>2026-04-16T10:57:02.72Z</time></trkpt><trkpt lat="43.4473384" lon="12.4209536"><ele>537.0</ele><time>2026-04-16T10:57:03.72Z</time></trkpt><trkpt lat="43.4474424" lon="12.420834"><ele>537.0</ele><time>2026-04-16T10:57:04.72Z</time></trkpt><trkpt lat="43.4476145" lon="12.420842"><ele>537.0</ele><time>2026-04-16T10:57:05.721Z</time></trkpt><trkpt lat="43.4477736" lon="12.4208649"><ele>537.0</ele><time>2026-04-16T10:57:06.719Z</time></trkpt><trkpt lat="43.447959" lon="12.4209122"><ele>537.0</ele><time>2026-04-16T10:57:07.72Z</time></trkpt><trkpt lat="43.448163" lon="12.4209791"><ele>537.0</ele><time>2026-04-16T10:57:08.72Z</time></trkpt><trkpt lat="43.4483502" lon="12.4210561"><ele>535.3333333333334</ele><time>2026-04-16T10:57:09.72Z</time></trkpt><trkpt lat="43.4485676" lon="12.4211248"><ele>533.6666666666667</ele><time>2026-04-16T10:57:10.72Z</time></trkpt><trkpt lat="43.4487846" lon="12.421191"><ele>532.0</ele><time>2026-04-16T10:57:11.719Z</time></trkpt><trkpt lat="43.448985" lon="12.4212418"><ele>529.0</ele><time>2026-04-16T10:57:12.72Z</time></trkpt><trkpt lat="43.4491838" lon="12.4212823"><ele>526.0</ele><time>2026-04-16T10:57:13.719Z</time></trkpt><trkpt lat="43.449381" lon="12.4213174"><ele>523.0</ele><time>2026-04-16T10:57:14.72Z</time></trkpt><trkpt lat="43.4495874" lon="12.4212525"><ele>521.3333333333334</ele><time>2026-04-16T10:57:15.72Z</time></trkpt><trkpt lat="43.449795" lon="12.42118"><ele>519.6666666666666</ele><time>2026-04-16T10:57:16.719Z</time></trkpt><trkpt lat="43.4500068" lon="12.4210841"><ele>518.0</ele><time>2026-04-16T10:57:17.719Z</time></trkpt><trkpt lat="43.4502194" lon="12.4210042"><ele>518.0</ele><time>2026-04-16T10:57:18.72Z</time></trkpt><trkpt lat="43.4504232" lon="12.4209428"><ele>518.0</ele><time>2026-04-16T10:57:19.719Z</time></trkpt><trkpt lat="43.4506233" lon="12.4209017"><ele>518.0</ele><time>2026-04-16T10:57:20.72Z</time></trkpt><trkpt lat="43.4508215" lon="12.4208592"><ele>517.6666666666666</ele><time>2026-04-16T10:57:21.719Z</time></trkpt><trkpt lat="43.4510098" lon="12.4208751"><ele>517.3333333333334</ele><time>2026-04-16T10:57:22.721Z</time></trkpt><trkpt lat="43.4511859" lon="12.420861"><ele>517.0</ele><time>2026-04-16T10:57:23.72Z</time></trkpt><trkpt lat="43.4513659" lon="12.4208236"><ele>517.6666666666667</ele><time>2026-04-16T10:57:24.72Z</time></trkpt><trkpt lat="43.451535" lon="12.4207635"><ele>518.3333333333334</ele><time>2026-04-16T10:57:25.718Z</time></trkpt><trkpt lat="43.4516884" lon="12.4206353"><ele>519.0</ele><time>2026-04-16T10:57:26.719Z</time></trkpt><trkpt lat="43.4518436" lon="12.4205112"><ele>513.6666666666666</ele><time>2026-04-16T10:57:27.72Z</time></trkpt><trkpt lat="43.4519885" lon="12.4204401"><ele>508.3333333333333</ele><time>2026-04-16T10:57:28.719Z</time></trkpt><trkpt lat="43.4521576" lon="12.4203802"><ele>503.0</ele><time>2026-04-16T10:57:29.719Z</time></trkpt><trkpt lat="43.4523221" lon="12.4203358"><ele>503.0</ele><time>2026-04-16T10:57:30.72Z</time></trkpt><trkpt lat="43.4524868" lon="12.420303"><ele>503.0</ele><time>2026-04-16T10:57:31.72Z</time></trkpt><trkpt lat="43.4526107" lon="12.4201838"><ele>503.0</ele><time>2026-04-16T10:57:32.721Z</time></trkpt><trkpt lat="43.4527225" lon="12.4200409"><ele>503.0</ele><time>2026-04-16T10:57:33.72Z</time></trkpt><trkpt lat="43.4528275" lon="12.4198894"><ele>503.0</ele><time>2026-04-16T10:57:34.719Z</time></trkpt><trkpt lat="43.4528902" lon="12.4197065"><ele>503.0</ele><time>2026-04-16T10:57:35.72Z</time></trkpt><trkpt lat="43.4529819" lon="12.4195939"><ele>503.0</ele><time>2026-04-16T10:57:36.72Z</time></trkpt><trkpt lat="43.4531151" lon="12.419508"><ele>500.3333333333333</ele><time>2026-04-16T10:57:37.72Z</time></trkpt><trkpt lat="43.4532453" lon="12.4194324"><ele>497.66666666666663</ele><time>2026-04-16T10:57:38.719Z</time></trkpt><trkpt lat="43.4533858" lon="12.4193464"><ele>495.0</ele><time>2026-04-16T10:57:39.72Z</time></trkpt><trkpt lat="43.4535406" lon="12.4192593"><ele>495.0</ele><time>2026-04-16T10:57:40.72Z</time></trkpt><trkpt lat="43.4537129" lon="12.4191626"><ele>495.0</ele><time>2026-04-16T10:57:41.719Z</time></trkpt><trkpt lat="43.4538891" lon="12.4190916"><ele>495.0</ele><time>2026-04-16T10:57:42.719Z</time></trkpt><trkpt lat="43.4540711" lon="12.41902"><ele>499.0</ele><time>2026-04-16T10:57:43.72Z</time></trkpt><trkpt lat="43.4542595" lon="12.4189548"><ele>503.0</ele><time>2026-04-16T10:57:44.72Z</time></trkpt><trkpt lat="43.4544527" lon="12.4188782"><ele>507.0</ele><time>2026-04-16T10:57:45.72Z</time></trkpt><trkpt lat="43.4546474" lon="12.4188049"><ele>499.0</ele><time>2026-04-16T10:57:46.719Z</time></trkpt><trkpt lat="43.4548283" lon="12.4186919"><ele>491.0</ele><time>2026-04-16T10:57:47.721Z</time></trkpt><trkpt lat="43.4549973" lon="12.4185932"><ele>483.0</ele><time>2026-04-16T10:57:48.72Z</time></trkpt><trkpt lat="43.4551713" lon="12.4184809"><ele>483.0</ele><time>2026-04-16T10:57:49.719Z</time></trkpt><trkpt lat="43.455343" lon="12.4183733"><ele>483.0</ele><time>2026-04-16T10:57:50.72Z</time></trkpt><trkpt lat="43.4555149" lon="12.4182664"><ele>483.0</ele><time>2026-04-16T10:57:51.72Z</time></trkpt><trkpt lat="43.4556799" lon="12.4181696"><ele>484.66666666666663</ele><time>2026-04-16T10:57:52.72Z</time></trkpt><trkpt lat="43.4558347" lon="12.4180716"><ele>486.3333333333333</ele><time>2026-04-16T10:57:53.721Z</time></trkpt><trkpt lat="43.455966" lon="12.4179398"><ele>488.0</ele><time>2026-04-16T10:57:54.719Z</time></trkpt><trkpt lat="43.4560723" lon="12.417776"><ele>483.0</ele><time>2026-04-16T10:57:55.72Z</time></trkpt><trkpt lat="43.4561512" lon="12.4175867"><ele>478.0</ele><time>2026-04-16T10:57:56.72Z</time></trkpt><trkpt lat="43.4562148" lon="12.417376"><ele>473.0</ele><time>2026-04-16T10:57:57.72Z</time></trkpt><trkpt lat="43.4561836" lon="12.4171205"><ele>470.66666666666663</ele><time>2026-04-16T10:57:58.72Z</time></trkpt><trkpt lat="43.456137" lon="12.4168808"><ele>468.33333333333337</ele><time>2026-04-16T10:57:59.72Z</time></trkpt><trkpt lat="43.4560469" lon="12.4166576"><ele>466.0</ele><time>2026-04-16T10:58:00.72Z</time></trkpt><trkpt lat="43.4559179" lon="12.4164581"><ele>465.33333333333337</ele><time>2026-04-16T10:58:01.72Z</time></trkpt><trkpt lat="43.4557639" lon="12.4162757"><ele>464.66666666666663</ele><time>2026-04-16T10:58:02.72Z</time></trkpt><trkpt lat="43.4556056" lon="12.4160806"><ele>464.0</ele><time>2026-04-16T10:58:03.72Z</time></trkpt><trkpt lat="43.4554644" lon="12.4158796"><ele>464.0</ele><time>2026-04-16T10:58:04.719Z</time></trkpt><trkpt lat="43.4553231" lon="12.4156793"><ele>464.0</ele><time>2026-04-16T10:58:05.72Z</time></trkpt><trkpt lat="43.4551843" lon="12.4155099"><ele>464.0</ele><time>2026-04-16T10:58:06.72Z</time></trkpt><trkpt lat="43.4550449" lon="12.4153447"><ele>468.0</ele><time>2026-04-16T10:58:07.72Z</time></trkpt><trkpt lat="43.4548949" lon="12.4152353"><ele>472.0</ele><time>2026-04-16T10:58:08.72Z</time></trkpt><trkpt lat="43.4547214" lon="12.4151827"><ele>476.0</ele><time>2026-04-16T10:58:09.718Z</time></trkpt><trkpt lat="43.4545331" lon="12.4151859"><ele>476.66666666666663</ele><time>2026-04-16T10:58:10.719Z</time></trkpt><trkpt lat="43.4543423" lon="12.4152445"><ele>477.33333333333337</ele><time>2026-04-16T10:58:11.72Z</time></trkpt><trkpt lat="43.4541304" lon="12.4153011"><ele>478.0</ele><time>2026-04-16T10:58:12.72Z</time></trkpt><trkpt lat="43.4539303" lon="12.4153679"><ele>477.33333333333337</ele><time>2026-04-16T10:58:13.719Z</time></trkpt><trkpt lat="43.4537252" lon="12.4154369"><ele>476.66666666666663</ele><time>2026-04-16T10:58:14.721Z</time></trkpt><trkpt lat="43.4535211" lon="12.4154834"><ele>476.0</ele><time>2026-04-16T10:58:15.719Z</time></trkpt><trkpt lat="43.4533214" lon="12.4155237"><ele>481.66666666666663</ele><time>2026-04-16T10:58:16.72Z</time></trkpt><trkpt lat="43.4531516" lon="12.415432"><ele>487.33333333333337</ele><time>2026-04-16T10:58:17.722Z</time></trkpt><trkpt lat="43.4529594" lon="12.4153939"><ele>493.0</ele><time>2026-04-16T10:58:18.72Z</time></trkpt><trkpt lat="43.4527685" lon="12.4152759"><ele>493.0</ele><time>2026-04-16T10:58:19.72Z</time></trkpt><trkpt lat="43.4525809" lon="12.4151582"><ele>493.0</ele><time>2026-04-16T10:58:20.72Z</time></trkpt><trkpt lat="43.4523908" lon="12.4150344"><ele>493.0</ele><time>2026-04-16T10:58:21.72Z</time></trkpt><trkpt lat="43.4522399" lon="12.4149154"><ele>492.25</ele><time>2026-04-16T10:58:22.72Z</time></trkpt><trkpt lat="43.452116" lon="12.4147848"><ele>491.5</ele><time>2026-04-16T10:58:23.72Z</time></trkpt><trkpt lat="43.4521194" lon="12.4146513"><ele>490.75</ele><time>2026-04-16T10:58:24.721Z</time></trkpt><trkpt lat="43.45212" lon="12.4144887"><ele>490.0</ele><time>2026-04-16T10:58:25.72Z</time></trkpt><trkpt lat="43.4521895" lon="12.4143417"><ele>496.0</ele><time>2026-04-16T10:58:26.719Z</time></trkpt><trkpt lat="43.4522917" lon="12.4142115"><ele>502.0</ele><time>2026-04-16T10:58:27.72Z</time></trkpt><trkpt lat="43.45244" lon="12.4141038"><ele>508.0</ele><time>2026-04-16T10:58:28.72Z</time></trkpt><trkpt lat="43.452605" lon="12.4140301"><ele>508.0</ele><time>2026-04-16T10:58:29.721Z</time></trkpt><trkpt lat="43.4527481" lon="12.4140088"><ele>508.0</ele><time>2026-04-16T10:58:30.72Z</time></trkpt><trkpt lat="43.4528858" lon="12.4140299"><ele>508.0</ele><time>2026-04-16T10:58:31.72Z</time></trkpt><trkpt lat="43.4530027" lon="12.4141169"><ele>508.0</ele><time>2026-04-16T10:58:32.72Z</time></trkpt><trkpt lat="43.4531127" lon="12.4141666"><ele>508.0</ele><time>2026-04-16T10:58:33.72Z</time></trkpt><trkpt lat="43.4531996" lon="12.414166"><ele>507.99999999999994</ele><time>2026-04-16T10:58:34.719Z</time></trkpt><trkpt lat="43.4532893" lon="12.4140939"><ele>507.99999999999994</ele><time>2026-04-16T10:58:35.719Z</time></trkpt><trkpt lat="43.4533546" lon="12.4139717"><ele>508.0</ele><time>2026-04-16T10:58:36.72Z</time></trkpt><trkpt lat="43.4533926" lon="12.4137962"><ele>508.0</ele><time>2026-04-16T10:58:37.72Z</time></trkpt><trkpt lat="43.4534125" lon="12.4135947"><ele>511.33333333333337</ele><time>2026-04-16T10:58:38.72Z</time></trkpt><trkpt lat="43.4534322" lon="12.4133639"><ele>514.6666666666666</ele><time>2026-04-16T10:58:39.72Z</time></trkpt><trkpt lat="43.4534511" lon="12.4131356"><ele>518.0</ele><time>2026-04-16T10:58:40.72Z</time></trkpt><trkpt lat="43.4534533" lon="12.4129201"><ele>518.5</ele><time>2026-04-16T10:58:41.72Z</time></trkpt><trkpt lat="43.4534284" lon="12.4127312"><ele>519.0</ele><time>2026-04-16T10:58:42.72Z</time></trkpt><trkpt lat="43.4533726" lon="12.412541"><ele>519.5</ele><time>2026-04-16T10:58:43.72Z</time></trkpt><trkpt lat="43.4532478" lon="12.4124094"><ele>520.0</ele><time>2026-04-16T10:58:44.719Z</time></trkpt><trkpt lat="43.453135" lon="12.4122584"><ele>518.6666666666667</ele><time>2026-04-16T10:58:45.72Z</time></trkpt><trkpt lat="43.4530231" lon="12.4121121"><ele>517.3333333333334</ele><time>2026-04-16T10:58:46.72Z</time></trkpt><trkpt lat="43.4528817" lon="12.4118935"><ele>516.0</ele><time>2026-04-16T10:58:47.72Z</time></trkpt><trkpt lat="43.4529327" lon="12.4116079"><ele>524.3333333333334</ele><time>2026-04-16T10:58:48.72Z</time></trkpt><trkpt lat="43.4528768" lon="12.4113934"><ele>532.6666666666667</ele><time>2026-04-16T10:58:49.719Z</time></trkpt><trkpt lat="43.452804" lon="12.41119"><ele>541.0</ele><time>2026-04-16T10:58:50.72Z</time></trkpt><trkpt lat="43.4526932" lon="12.4110229"><ele>541.3333333333334</ele><time>2026-04-16T10:58:51.719Z</time></trkpt><trkpt lat="43.4525744" lon="12.4108546"><ele>541.6666666666666</ele><time>2026-04-16T10:58:52.72Z</time></trkpt><trkpt lat="43.4524236" lon="12.410738"><ele>542.0</ele><time>2026-04-16T10:58:53.72Z</time></trkpt><trkpt lat="43.4522588" lon="12.4106867"><ele>549.3333333333333</ele><time>2026-04-16T10:58:54.719Z</time></trkpt><trkpt lat="43.4520737" lon="12.4107152"><ele>556.6666666666666</ele><time>2026-04-16T10:58:55.721Z</time></trkpt><trkpt lat="43.4518786" lon="12.4107979"><ele>564.0</ele><time>2026-04-16T10:58:56.72Z</time></trkpt><trkpt lat="43.4516878" lon="12.410881"><ele>564.0</ele><time>2026-04-16T10:58:57.72Z</time></trkpt><trkpt lat="43.4514777" lon="12.4109777"><ele>564.0</ele><time>2026-04-16T10:58:58.72Z</time></trkpt><trkpt lat="43.4512825" lon="12.4110845"><ele>564.0</ele><time>2026-04-16T10:58:59.719Z</time></trkpt><trkpt lat="43.4510993" lon="12.4111855"><ele>562.6666666666666</ele><time>2026-04-16T10:59:00.719Z</time></trkpt><trkpt lat="43.4509468" lon="12.4112734"><ele>561.3333333333333</ele><time>2026-04-16T10:59:01.72Z</time></trkpt><trkpt lat="43.4507913" lon="12.4113547"><ele>560.0</ele><time>2026-04-16T10:59:02.72Z</time></trkpt><trkpt lat="43.4506267" lon="12.4114048"><ele>562.6666666666666</ele><time>2026-04-16T10:59:03.719Z</time></trkpt><trkpt lat="43.4504456" lon="12.4114059"><ele>565.3333333333334</ele><time>2026-04-16T10:59:04.721Z</time></trkpt><trkpt lat="43.4502644" lon="12.4113752"><ele>568.0</ele><time>2026-04-16T10:59:05.72Z</time></trkpt><trkpt lat="43.4500899" lon="12.4113364"><ele>575.3333333333334</ele><time>2026-04-16T10:59:06.719Z</time></trkpt><trkpt lat="43.4498773" lon="12.4111891"><ele>582.6666666666666</ele><time>2026-04-16T10:59:07.721Z</time></trkpt><trkpt lat="43.4496912" lon="12.4110895"><ele>590.0</ele><time>2026-04-16T10:59:08.72Z</time></trkpt><trkpt lat="43.4494909" lon="12.4109901"><ele>590.0</ele><time>2026-04-16T10:59:09.719Z</time></trkpt><trkpt lat="43.449291" lon="12.4109141"><ele>590.0</ele><time>2026-04-16T10:59:10.72Z</time></trkpt><trkpt lat="43.4490937" lon="12.4108909"><ele>590.0</ele><time>2026-04-16T10:59:11.719Z</time></trkpt><trkpt lat="43.4488988" lon="12.4108852"><ele>588.6666666666666</ele><time>2026-04-16T10:59:12.72Z</time></trkpt><trkpt lat="43.4487073" lon="12.4108771"><ele>587.3333333333334</ele><time>2026-04-16T10:59:13.72Z</time></trkpt><trkpt lat="43.4485527" lon="12.4108508"><ele>586.0</ele><time>2026-04-16T10:59:14.72Z</time></trkpt><trkpt lat="43.4484459" lon="12.4106915"><ele>586.0</ele><time>2026-04-16T10:59:15.72Z</time></trkpt><trkpt lat="43.448325" lon="12.4105321"><ele>586.0</ele><time>2026-04-16T10:59:16.72Z</time></trkpt><trkpt lat="43.4482096" lon="12.4103393"><ele>586.0</ele><time>2026-04-16T10:59:17.721Z</time></trkpt><trkpt lat="43.44807" lon="12.4101187"><ele>590.3333333333334</ele><time>2026-04-16T10:59:18.72Z</time></trkpt><trkpt lat="43.4479326" lon="12.4098921"><ele>594.6666666666666</ele><time>2026-04-16T10:59:19.72Z</time></trkpt><trkpt lat="43.4478526" lon="12.4096226"><ele>599.0</ele><time>2026-04-16T10:59:20.72Z</time></trkpt><trkpt lat="43.4477581" lon="12.4093716"><ele>601.6666666666666</ele><time>2026-04-16T10:59:21.72Z</time></trkpt><trkpt lat="43.447675" lon="12.4091265"><ele>604.3333333333334</ele><time>2026-04-16T10:59:22.721Z</time></trkpt><trkpt lat="43.4477669" lon="12.4089711"><ele>607.0</ele><time>2026-04-16T10:59:23.721Z</time></trkpt><trkpt lat="43.4478353" lon="12.4088262"><ele>606.0</ele><time>2026-04-16T10:59:24.72Z</time></trkpt><trkpt lat="43.44795" lon="12.4087488"><ele>605.0</ele><time>2026-04-16T10:59:25.72Z</time></trkpt><trkpt lat="43.4481032" lon="12.4087465"><ele>604.0</ele><time>2026-04-16T10:59:26.72Z</time></trkpt><trkpt lat="43.4482606" lon="12.4087622"><ele>603.0</ele><time>2026-04-16T10:59:27.72Z</time></trkpt><trkpt lat="43.4484103" lon="12.4088684"><ele>606.75</ele><time>2026-04-16T10:59:28.719Z</time></trkpt><trkpt lat="43.4485582" lon="12.4089103"><ele>610.5</ele><time>2026-04-16T10:59:29.72Z</time></trkpt><trkpt lat="43.4487079" lon="12.4089143"><ele>614.25</ele><time>2026-04-16T10:59:30.719Z</time></trkpt><trkpt lat="43.4488425" lon="12.4088505"><ele>618.0</ele><time>2026-04-16T10:59:31.72Z</time></trkpt><trkpt lat="43.4489681" lon="12.4087079"><ele>622.0</ele><time>2026-04-16T10:59:32.721Z</time></trkpt><trkpt lat="43.4490758" lon="12.4085093"><ele>626.0</ele><time>2026-04-16T10:59:33.72Z</time></trkpt><trkpt lat="43.4491875" lon="12.4082625"><ele>630.0</ele><time>2026-04-16T10:59:34.719Z</time></trkpt><trkpt lat="43.4493032" lon="12.4079971"><ele>629.0</ele><time>2026-04-16T10:59:35.721Z</time></trkpt><trkpt lat="43.4494274" lon="12.4077101"><ele>628.0</ele><time>2026-04-16T10:59:36.721Z</time></trkpt><trkpt lat="43.4495674" lon="12.4074127"><ele>634.0</ele><time>2026-04-16T10:59:37.72Z</time></trkpt><trkpt lat="43.4496925" lon="12.4071229"><ele>640.0</ele><time>2026-04-16T10:59:38.72Z</time></trkpt><trkpt lat="43.4498187" lon="12.4068424"><ele>640.0</ele><time>2026-04-16T10:59:39.719Z</time></trkpt><trkpt lat="43.4499431" lon="12.4065586"><ele>640.0</ele><time>2026-04-16T10:59:40.72Z</time></trkpt><trkpt lat="43.4500647" lon="12.4063251"><ele>640.0</ele><time>2026-04-16T10:59:41.72Z</time></trkpt><trkpt lat="43.4501808" lon="12.4060688"><ele>641.0</ele><time>2026-04-16T10:59:42.72Z</time></trkpt><trkpt lat="43.4503011" lon="12.4058212"><ele>642.0</ele><time>2026-04-16T10:59:43.721Z</time></trkpt><trkpt lat="43.4504153" lon="12.4055619"><ele>643.0</ele><time>2026-04-16T10:59:44.72Z</time></trkpt><trkpt lat="43.4505291" lon="12.4052992"><ele>646.0</ele><time>2026-04-16T10:59:45.719Z</time></trkpt><trkpt lat="43.4506466" lon="12.4050305"><ele>649.0</ele><time>2026-04-16T10:59:46.72Z</time></trkpt><trkpt lat="43.4507654" lon="12.4047649"><ele>653.5</ele><time>2026-04-16T10:59:47.721Z</time></trkpt><trkpt lat="43.4508842" lon="12.4044992"><ele>658.0</ele><time>2026-04-16T10:59:48.72Z</time></trkpt><trkpt lat="43.451012" lon="12.4042434"><ele>658.0</ele><time>2026-04-16T10:59:49.72Z</time></trkpt><trkpt lat="43.45113" lon="12.403971"><ele>658.0</ele><time>2026-04-16T10:59:50.721Z</time></trkpt><trkpt lat="43.4512481" lon="12.403691"><ele>658.0</ele><time>2026-04-16T10:59:51.72Z</time></trkpt><trkpt lat="43.4513685" lon="12.4034296"><ele>658.0</ele><time>2026-04-16T10:59:52.72Z</time></trkpt><trkpt lat="43.4514899" lon="12.4031618"><ele>665.5</ele><time>2026-04-16T10:59:53.72Z</time></trkpt><trkpt lat="43.4516139" lon="12.40291"><ele>673.0</ele><time>2026-04-16T10:59:54.72Z</time></trkpt><trkpt lat="43.4517401" lon="12.4026468"><ele>673.0</ele><time>2026-04-16T10:59:55.719Z</time></trkpt><trkpt lat="43.4519005" lon="12.4024265"><ele>673.0</ele><time>2026-04-16T10:59:56.721Z</time></trkpt><trkpt lat="43.4520497" lon="12.4022226"><ele>673.0</ele><time>2026-04-16T10:59:57.72Z</time></trkpt><trkpt lat="43.4521972" lon="12.4020303"><ele>673.3333333333334</ele><time>2026-04-16T10:59:58.72Z</time></trkpt><trkpt lat="43.4523254" lon="12.4018269"><ele>673.6666666666666</ele><time>2026-04-16T10:59:59.718Z</time></trkpt><trkpt lat="43.4524375" lon="12.4015869"><ele>674.0</ele><time>2026-04-16T11:00:00.718Z</time></trkpt><trkpt lat="43.4525326" lon="12.4013273"><ele>677.5</ele><time>2026-04-16T11:00:01.72Z</time></trkpt><trkpt lat="43.4526205" lon="12.4010453"><ele>681.0</ele><time>2026-04-16T11:00:02.72Z</time></trkpt><trkpt lat="43.4527316" lon="12.4007702"><ele>681.0</ele><time>2026-04-16T11:00:03.718Z</time></trkpt><trkpt lat="43.4528669" lon="12.4005398"><ele>681.0</ele><time>2026-04-16T11:00:04.72Z</time></trkpt><trkpt lat="43.4530458" lon="12.4003395"><ele>681.0</ele><time>2026-04-16T11:00:05.72Z</time></trkpt><trkpt lat="43.4532478" lon="12.4001756"><ele>681.0</ele><time>2026-04-16T11:00:06.72Z</time></trkpt><trkpt lat="43.4534569" lon="12.4000138"><ele>681.0</ele><time>2026-04-16T11:00:07.72Z</time></trkpt><trkpt lat="43.4536631" lon="12.3998278"><ele>684.5</ele><time>2026-04-16T11:00:08.718Z</time></trkpt><trkpt lat="43.453859" lon="12.3996273"><ele>688.0</ele><time>2026-04-16T11:00:09.72Z</time></trkpt><trkpt lat="43.4540376" lon="12.3994007"><ele>688.0</ele><time>2026-04-16T11:00:10.721Z</time></trkpt><trkpt lat="43.4541954" lon="12.3991546"><ele>688.0</ele><time>2026-04-16T11:00:11.72Z</time></trkpt><trkpt lat="43.4543366" lon="12.3988902"><ele>684.6666666666667</ele><time>2026-04-16T11:00:12.72Z</time></trkpt><trkpt lat="43.4544581" lon="12.3986145"><ele>681.3333333333334</ele><time>2026-04-16T11:00:13.72Z</time></trkpt><trkpt lat="43.4545615" lon="12.3983603"><ele>678.0</ele><time>2026-04-16T11:00:14.72Z</time></trkpt><trkpt lat="43.4546683" lon="12.3981202"><ele>685.0</ele><time>2026-04-16T11:00:15.72Z</time></trkpt><trkpt lat="43.4547899" lon="12.3979011"><ele>692.0</ele><time>2026-04-16T11:00:16.721Z</time></trkpt><trkpt lat="43.4549355" lon="12.3976835"><ele>699.0</ele><time>2026-04-16T11:00:17.719Z</time></trkpt><trkpt lat="43.4550961" lon="12.3974779"><ele>699.0</ele><time>2026-04-16T11:00:18.719Z</time></trkpt><trkpt lat="43.455275" lon="12.3972786"><ele>699.0</ele><time>2026-04-16T11:00:19.72Z</time></trkpt><trkpt lat="43.4554502" lon="12.3970616"><ele>701.5</ele><time>2026-04-16T11:00:20.719Z</time></trkpt><trkpt lat="43.45563" lon="12.3968311"><ele>704.0</ele><time>2026-04-16T11:00:21.72Z</time></trkpt><trkpt lat="43.4558133" lon="12.3966066"><ele>704.0</ele><time>2026-04-16T11:00:22.72Z</time></trkpt><trkpt lat="43.4559978" lon="12.3963807"><ele>704.0</ele><time>2026-04-16T11:00:23.72Z</time></trkpt><trkpt lat="43.4561791" lon="12.3961518"><ele>705.5</ele><time>2026-04-16T11:00:24.72Z</time></trkpt><trkpt lat="43.4563595" lon="12.3959366"><ele>707.0</ele><time>2026-04-16T11:00:25.72Z</time></trkpt><trkpt lat="43.4565477" lon="12.39573"><ele>707.0</ele><time>2026-04-16T11:00:26.721Z</time></trkpt><trkpt lat="43.4567509" lon="12.3955662"><ele>707.0</ele><time>2026-04-16T11:00:27.721Z</time></trkpt><trkpt lat="43.4569592" lon="12.3954489"><ele>714.6666666666666</ele><time>2026-04-16T11:00:28.72Z</time></trkpt><trkpt lat="43.4571648" lon="12.3953384"><ele>722.3333333333334</ele><time>2026-04-16T11:00:29.721Z</time></trkpt><trkpt lat="43.4573637" lon="12.3952485"><ele>730.0</ele><time>2026-04-16T11:00:30.72Z</time></trkpt><trkpt lat="43.4575557" lon="12.3951499"><ele>730.0</ele><time>2026-04-16T11:00:31.721Z</time></trkpt><trkpt lat="43.4577342" lon="12.3950564"><ele>730.0</ele><time>2026-04-16T11:00:32.721Z</time></trkpt><trkpt lat="43.457885" lon="12.3949417"><ele>730.0</ele><time>2026-04-16T11:00:33.721Z</time></trkpt><trkpt lat="43.4579986" lon="12.3947913"><ele>724.0</ele><time>2026-04-16T11:00:34.719Z</time></trkpt><trkpt lat="43.4580646" lon="12.3946151"><ele>718.0</ele><time>2026-04-16T11:00:35.72Z</time></trkpt><trkpt lat="43.4580815" lon="12.3944103"><ele>712.0</ele><time>2026-04-16T11:00:36.72Z</time></trkpt><trkpt lat="43.458055" lon="12.3941809"><ele>712.0</ele><time>2026-04-16T11:00:37.72Z</time></trkpt><trkpt lat="43.4580229" lon="12.3939419"><ele>712.0</ele><time>2026-04-16T11:00:38.72Z</time></trkpt><trkpt lat="43.4579551" lon="12.3936594"><ele>712.0</ele><time>2026-04-16T11:00:39.721Z</time></trkpt><trkpt lat="43.4579021" lon="12.3933929"><ele>714.3333333333334</ele><time>2026-04-16T11:00:40.72Z</time></trkpt><trkpt lat="43.4578593" lon="12.3931213"><ele>716.6666666666666</ele><time>2026-04-16T11:00:41.721Z</time></trkpt><trkpt lat="43.4579152" lon="12.3929532"><ele>719.0</ele><time>2026-04-16T11:00:42.72Z</time></trkpt><trkpt lat="43.4579167" lon="12.3927255"><ele>720.5</ele><time>2026-04-16T11:00:43.72Z</time></trkpt><trkpt lat="43.458214" lon="12.392606"><ele>722.0</ele><time>2026-04-16T11:00:44.722Z</time></trkpt><trkpt lat="43.458356" lon="12.3924436"><ele>722.0</ele><time>2026-04-16T11:00:45.72Z</time></trkpt><trkpt lat="43.4585162" lon="12.3922775"><ele>722.0</ele><time>2026-04-16T11:00:46.72Z</time></trkpt><trkpt lat="43.4587012" lon="12.3921096"><ele>722.0</ele><time>2026-04-16T11:00:47.722Z</time></trkpt><trkpt lat="43.4588778" lon="12.3919328"><ele>726.0</ele><time>2026-04-16T11:00:48.719Z</time></trkpt><trkpt lat="43.45905" lon="12.3917511"><ele>730.0</ele><time>2026-04-16T11:00:49.721Z</time></trkpt><trkpt lat="43.4592431" lon="12.3915956"><ele>734.0</ele><time>2026-04-16T11:00:50.719Z</time></trkpt><trkpt lat="43.4594308" lon="12.3914561"><ele>729.5</ele><time>2026-04-16T11:00:51.719Z</time></trkpt><trkpt lat="43.4596436" lon="12.3913265"><ele>725.0</ele><time>2026-04-16T11:00:52.72Z</time></trkpt><trkpt lat="43.4598633" lon="12.3911919"><ele>725.0</ele><time>2026-04-16T11:00:53.719Z</time></trkpt><trkpt lat="43.4600884" lon="12.391057"><ele>725.0</ele><time>2026-04-16T11:00:54.721Z</time></trkpt><trkpt lat="43.4603322" lon="12.3909093"><ele>720.5</ele><time>2026-04-16T11:00:55.722Z</time></trkpt><trkpt lat="43.4605565" lon="12.3907713"><ele>716.0</ele><time>2026-04-16T11:00:56.72Z</time></trkpt><trkpt lat="43.4607718" lon="12.3906506"><ele>716.0</ele><time>2026-04-16T11:00:57.719Z</time></trkpt><trkpt lat="43.4609706" lon="12.3905222"><ele>716.0</ele><time>2026-04-16T11:00:58.719Z</time></trkpt><trkpt lat="43.4611605" lon="12.3904084"><ele>716.0</ele><time>2026-04-16T11:00:59.721Z</time></trkpt><trkpt lat="43.4613392" lon="12.3902674"><ele>716.5</ele><time>2026-04-16T11:01:00.72Z</time></trkpt><trkpt lat="43.4615145" lon="12.3900917"><ele>717.0</ele><time>2026-04-16T11:01:01.719Z</time></trkpt><trkpt lat="43.4616837" lon="12.3898713"><ele>714.5</ele><time>2026-04-16T11:01:02.719Z</time></trkpt><trkpt lat="43.4618475" lon="12.3896332"><ele>712.0</ele><time>2026-04-16T11:01:03.72Z</time></trkpt><trkpt lat="43.4620037" lon="12.389372"><ele>718.0</ele><time>2026-04-16T11:01:04.719Z</time></trkpt><trkpt lat="43.4621588" lon="12.3891009"><ele>724.0</ele><time>2026-04-16T11:01:05.72Z</time></trkpt><trkpt lat="43.462312" lon="12.3888325"><ele>724.0</ele><time>2026-04-16T11:01:06.72Z</time></trkpt><trkpt lat="43.4624602" lon="12.3885657"><ele>724.0</ele><time>2026-04-16T11:01:07.72Z</time></trkpt><trkpt lat="43.4626113" lon="12.388294"><ele>724.0</ele><time>2026-04-16T11:01:08.721Z</time></trkpt><trkpt lat="43.4627451" lon="12.3880302"><ele>724.0</ele><time>2026-04-16T11:01:09.72Z</time></trkpt><trkpt lat="43.4628447" lon="12.3877256"><ele>724.5</ele><time>2026-04-16T11:01:10.719Z</time></trkpt><trkpt lat="43.4629245" lon="12.3874112"><ele>725.0</ele><time>2026-04-16T11:01:11.719Z</time></trkpt><trkpt lat="43.4629778" lon="12.3871035"><ele>725.0</ele><time>2026-04-16T11:01:12.72Z</time></trkpt><trkpt lat="43.4630258" lon="12.3867972"><ele>725.0</ele><time>2026-04-16T11:01:13.718Z</time></trkpt><trkpt lat="43.4630795" lon="12.3865381"><ele>725.0</ele><time>2026-04-16T11:01:14.722Z</time></trkpt><trkpt lat="43.4631582" lon="12.3862771"><ele>729.6666666666666</ele><time>2026-04-16T11:01:15.72Z</time></trkpt><trkpt lat="43.4632794" lon="12.3860885"><ele>734.3333333333334</ele><time>2026-04-16T11:01:16.721Z</time></trkpt><trkpt lat="43.4634162" lon="12.3859168"><ele>739.0</ele><time>2026-04-16T11:01:17.721Z</time></trkpt><trkpt lat="43.4635415" lon="12.3857241"><ele>739.6666666666667</ele><time>2026-04-16T11:01:18.72Z</time></trkpt><trkpt lat="43.4636529" lon="12.3854971"><ele>740.3333333333334</ele><time>2026-04-16T11:01:19.719Z</time></trkpt><trkpt lat="43.4637783" lon="12.385258"><ele>741.0</ele><time>2026-04-16T11:01:20.719Z</time></trkpt><trkpt lat="43.4639254" lon="12.3850227"><ele>738.6666666666666</ele><time>2026-04-16T11:01:21.72Z</time></trkpt><trkpt lat="43.4640872" lon="12.3847871"><ele>736.3333333333333</ele><time>2026-04-16T11:01:22.719Z</time></trkpt><trkpt lat="43.4642347" lon="12.3845767"><ele>734.0</ele><time>2026-04-16T11:01:23.72Z</time></trkpt><trkpt lat="43.4643554" lon="12.3843754"><ele>734.0</ele><time>2026-04-16T11:01:24.719Z</time></trkpt><trkpt lat="43.4644236" lon="12.3841496"><ele>734.0</ele><time>2026-04-16T11:01:25.72Z</time></trkpt><trkpt lat="43.4644463" lon="12.3839078"><ele>734.0</ele><time>2026-04-16T11:01:26.721Z</time></trkpt><trkpt lat="43.4644393" lon="12.3836508"><ele>735.0</ele><time>2026-04-16T11:01:27.721Z</time></trkpt><trkpt lat="43.4644274" lon="12.3833801"><ele>736.0</ele><time>2026-04-16T11:01:28.719Z</time></trkpt><trkpt lat="43.4644308" lon="12.3831263"><ele>737.0</ele><time>2026-04-16T11:01:29.72Z</time></trkpt><trkpt lat="43.4644698" lon="12.3828904"><ele>737.6666666666666</ele><time>2026-04-16T11:01:30.721Z</time></trkpt><trkpt lat="43.4645813" lon="12.3826958"><ele>738.3333333333334</ele><time>2026-04-16T11:01:31.719Z</time></trkpt><trkpt lat="43.4646992" lon="12.3825075"><ele>739.0</ele><time>2026-04-16T11:01:32.72Z</time></trkpt><trkpt lat="43.4648329" lon="12.3823262"><ele>746.6666666666667</ele><time>2026-04-16T11:01:33.72Z</time></trkpt><trkpt lat="43.4649567" lon="12.3821422"><ele>754.3333333333334</ele><time>2026-04-16T11:01:34.72Z</time></trkpt><trkpt lat="43.4650335" lon="12.3819347"><ele>762.0</ele><time>2026-04-16T11:01:35.721Z</time></trkpt><trkpt lat="43.4650626" lon="12.381709"><ele>762.0</ele><time>2026-04-16T11:01:36.719Z</time></trkpt><trkpt lat="43.465043" lon="12.3814854"><ele>762.0</ele><time>2026-04-16T11:01:37.719Z</time></trkpt><trkpt lat="43.4649747" lon="12.3812751"><ele>762.0</ele><time>2026-04-16T11:01:38.72Z</time></trkpt><trkpt lat="43.4648685" lon="12.381101"><ele>762.6666666666666</ele><time>2026-04-16T11:01:39.72Z</time></trkpt><trkpt lat="43.464726" lon="12.3809693"><ele>763.3333333333333</ele><time>2026-04-16T11:01:40.72Z</time></trkpt><trkpt lat="43.4645618" lon="12.3809138"><ele>764.0</ele><time>2026-04-16T11:01:41.72Z</time></trkpt><trkpt lat="43.4643775" lon="12.3808912"><ele>764.0</ele><time>2026-04-16T11:01:42.719Z</time></trkpt><trkpt lat="43.4642012" lon="12.3808463"><ele>764.0</ele><time>2026-04-16T11:01:43.72Z</time></trkpt><trkpt lat="43.4640449" lon="12.3807737"><ele>764.0</ele><time>2026-04-16T11:01:44.721Z</time></trkpt><trkpt lat="43.4638903" lon="12.3806969"><ele>764.0</ele><time>2026-04-16T11:01:45.721Z</time></trkpt><trkpt lat="43.4638462" lon="12.3805337"><ele>764.0</ele><time>2026-04-16T11:01:46.72Z</time></trkpt><trkpt lat="43.4639954" lon="12.3803257"><ele>764.0</ele><time>2026-04-16T11:01:47.72Z</time></trkpt><trkpt lat="43.4640891" lon="12.3801746"><ele>766.0</ele><time>2026-04-16T11:01:48.719Z</time></trkpt><trkpt lat="43.4642132" lon="12.3800344"><ele>768.0</ele><time>2026-04-16T11:01:49.72Z</time></trkpt><trkpt lat="43.4643459" lon="12.3798773"><ele>770.0</ele><time>2026-04-16T11:01:50.72Z</time></trkpt><trkpt lat="43.4644399" lon="12.3796887"><ele>769.6666666666667</ele><time>2026-04-16T11:01:51.72Z</time></trkpt><trkpt lat="43.464523" lon="12.3795032"><ele>769.3333333333333</ele><time>2026-04-16T11:01:52.72Z</time></trkpt><trkpt lat="43.4646086" lon="12.3792871"><ele>769.0</ele><time>2026-04-16T11:01:53.721Z</time></trkpt><trkpt lat="43.4645869" lon="12.3789731"><ele>769.0</ele><time>2026-04-16T11:01:54.72Z</time></trkpt><trkpt lat="43.4645992" lon="12.3787022"><ele>769.0</ele><time>2026-04-16T11:01:55.72Z</time></trkpt><trkpt lat="43.4646039" lon="12.3784224"><ele>769.0</ele><time>2026-04-16T11:01:56.721Z</time></trkpt><trkpt lat="43.4646068" lon="12.378162"><ele>772.6666666666666</ele><time>2026-04-16T11:01:57.72Z</time></trkpt><trkpt lat="43.464603" lon="12.3779089"><ele>776.3333333333333</ele><time>2026-04-16T11:01:58.721Z</time></trkpt><trkpt lat="43.4645776" lon="12.3776537"><ele>780.0</ele><time>2026-04-16T11:01:59.721Z</time></trkpt><trkpt lat="43.4645297" lon="12.377399"><ele>781.6666666666667</ele><time>2026-04-16T11:02:00.72Z</time></trkpt><trkpt lat="43.4644742" lon="12.3771477"><ele>783.3333333333334</ele><time>2026-04-16T11:02:01.72Z</time></trkpt><trkpt lat="43.4643873" lon="12.3769366"><ele>785.0</ele><time>2026-04-16T11:02:02.721Z</time></trkpt><trkpt lat="43.4643164" lon="12.3767279"><ele>785.0</ele><time>2026-04-16T11:02:03.72Z</time></trkpt><trkpt lat="43.464222" lon="12.3765307"><ele>785.0</ele><time>2026-04-16T11:02:04.721Z</time></trkpt><trkpt lat="43.4640875" lon="12.3763661"><ele>785.0</ele><time>2026-04-16T11:02:05.72Z</time></trkpt><trkpt lat="43.4639333" lon="12.3762616"><ele>784.25</ele><time>2026-04-16T11:02:06.719Z</time></trkpt><trkpt lat="43.4637814" lon="12.3761569"><ele>783.5</ele><time>2026-04-16T11:02:07.721Z</time></trkpt><trkpt lat="43.4636409" lon="12.3760595"><ele>782.75</ele><time>2026-04-16T11:02:08.719Z</time></trkpt><trkpt lat="43.4635524" lon="12.3759518"><ele>782.0</ele><time>2026-04-16T11:02:09.72Z</time></trkpt><trkpt lat="43.4634676" lon="12.375838"><ele>782.0</ele><time>2026-04-16T11:02:10.72Z</time></trkpt><trkpt lat="43.4635081" lon="12.375682"><ele>782.0</ele><time>2026-04-16T11:02:11.72Z</time></trkpt><trkpt lat="43.4635531" lon="12.3755543"><ele>782.0</ele><time>2026-04-16T11:02:12.718Z</time></trkpt><trkpt lat="43.4636236" lon="12.3754367"><ele>782.0</ele><time>2026-04-16T11:02:13.721Z</time></trkpt><trkpt lat="43.4637522" lon="12.3754626"><ele>779.0</ele><time>2026-04-16T11:02:14.72Z</time></trkpt><trkpt lat="43.463886" lon="12.3754985"><ele>776.0</ele><time>2026-04-16T11:02:15.72Z</time></trkpt><trkpt lat="43.4640251" lon="12.3755464"><ele>773.0</ele><time>2026-04-16T11:02:16.72Z</time></trkpt><trkpt lat="43.4642109" lon="12.3757044"><ele>773.0</ele><time>2026-04-16T11:02:17.722Z</time></trkpt><trkpt lat="43.4643806" lon="12.3757958"><ele>773.0</ele><time>2026-04-16T11:02:18.721Z</time></trkpt><trkpt lat="43.4645504" lon="12.3758304"><ele>773.0</ele><time>2026-04-16T11:02:19.721Z</time></trkpt><trkpt lat="43.4647218" lon="12.3758584"><ele>771.6666666666667</ele><time>2026-04-16T11:02:20.72Z</time></trkpt><trkpt lat="43.4648727" lon="12.37577"><ele>770.3333333333333</ele><time>2026-04-16T11:02:21.72Z</time></trkpt><trkpt lat="43.4650206" lon="12.3756376"><ele>769.0</ele><time>2026-04-16T11:02:22.719Z</time></trkpt><trkpt lat="43.4651711" lon="12.3754751"><ele>766.0</ele><time>2026-04-16T11:02:23.72Z</time></trkpt><trkpt lat="43.4653132" lon="12.3752927"><ele>763.0</ele><time>2026-04-16T11:02:24.719Z</time></trkpt><trkpt lat="43.4654354" lon="12.3750871"><ele>760.0</ele><time>2026-04-16T11:02:25.72Z</time></trkpt><trkpt lat="43.4655409" lon="12.3748763"><ele>754.6666666666667</ele><time>2026-04-16T11:02:26.72Z</time></trkpt><trkpt lat="43.4656096" lon="12.3746339"><ele>749.3333333333334</ele><time>2026-04-16T11:02:27.719Z</time></trkpt><trkpt lat="43.4656589" lon="12.3743783"><ele>744.0</ele><time>2026-04-16T11:02:28.721Z</time></trkpt><trkpt lat="43.4656756" lon="12.3741073"><ele>742.0</ele><time>2026-04-16T11:02:29.72Z</time></trkpt><trkpt lat="43.4656618" lon="12.3738095"><ele>740.0</ele><time>2026-04-16T11:02:30.719Z</time></trkpt><trkpt lat="43.4656459" lon="12.3735115"><ele>738.0</ele><time>2026-04-16T11:02:31.72Z</time></trkpt><trkpt lat="43.4656327" lon="12.3732375"><ele>738.3333333333334</ele><time>2026-04-16T11:02:32.721Z</time></trkpt><trkpt lat="43.4656111" lon="12.3729503"><ele>738.6666666666667</ele><time>2026-04-16T11:02:33.72Z</time></trkpt><trkpt lat="43.4655655" lon="12.3726688"><ele>739.0</ele><time>2026-04-16T11:02:34.721Z</time></trkpt><trkpt lat="43.4654927" lon="12.3724123"><ele>737.0</ele><time>2026-04-16T11:02:35.721Z</time></trkpt><trkpt lat="43.4654104" lon="12.3721632"><ele>735.0</ele><time>2026-04-16T11:02:36.719Z</time></trkpt><trkpt lat="43.4653175" lon="12.3719695"><ele>733.0</ele><time>2026-04-16T11:02:37.721Z</time></trkpt><trkpt lat="43.4652483" lon="12.3717808"><ele>733.0</ele><time>2026-04-16T11:02:38.719Z</time></trkpt><trkpt lat="43.4652109" lon="12.371628"><ele>733.0</ele><time>2026-04-16T11:02:39.721Z</time></trkpt><trkpt lat="43.4652244" lon="12.3714855"><ele>733.0</ele><time>2026-04-16T11:02:40.721Z</time></trkpt><trkpt lat="43.4652552" lon="12.3713587"><ele>733.0</ele><time>2026-04-16T11:02:41.72Z</time></trkpt><trkpt lat="43.465374" lon="12.3713588"><ele>733.0</ele><time>2026-04-16T11:02:42.722Z</time></trkpt><trkpt lat="43.4654976" lon="12.3713767"><ele>731.6666666666667</ele><time>2026-04-16T11:02:43.72Z</time></trkpt><trkpt lat="43.4656224" lon="12.3714455"><ele>730.3333333333334</ele><time>2026-04-16T11:02:44.719Z</time></trkpt><trkpt lat="43.4657673" lon="12.3715483"><ele>729.0</ele><time>2026-04-16T11:02:45.72Z</time></trkpt><trkpt lat="43.4659153" lon="12.3716442"><ele>729.0</ele><time>2026-04-16T11:02:46.721Z</time></trkpt><trkpt lat="43.4660743" lon="12.3716891"><ele>729.0</ele><time>2026-04-16T11:02:47.72Z</time></trkpt><trkpt lat="43.4662174" lon="12.3716968"><ele>729.0</ele><time>2026-04-16T11:02:48.721Z</time></trkpt><trkpt lat="43.4663607" lon="12.3716529"><ele>729.6666666666666</ele><time>2026-04-16T11:02:49.72Z</time></trkpt><trkpt lat="43.4664821" lon="12.3715415"><ele>730.3333333333333</ele><time>2026-04-16T11:02:50.721Z</time></trkpt><trkpt lat="43.466604" lon="12.3714039"><ele>731.0</ele><time>2026-04-16T11:02:51.72Z</time></trkpt><trkpt lat="43.4666919" lon="12.3711904"><ele>725.6666666666666</ele><time>2026-04-16T11:02:52.72Z</time></trkpt><trkpt lat="43.4667715" lon="12.3709641"><ele>720.3333333333334</ele><time>2026-04-16T11:02:53.721Z</time></trkpt><trkpt lat="43.4668272" lon="12.3706998"><ele>715.0</ele><time>2026-04-16T11:02:54.72Z</time></trkpt><trkpt lat="43.4668676" lon="12.3704216"><ele>711.6666666666667</ele><time>2026-04-16T11:02:55.72Z</time></trkpt><trkpt lat="43.4668932" lon="12.3701456"><ele>708.3333333333334</ele><time>2026-04-16T11:02:56.72Z</time></trkpt><trkpt lat="43.4669077" lon="12.369889"><ele>705.0</ele><time>2026-04-16T11:02:57.719Z</time></trkpt><trkpt lat="43.4668988" lon="12.3696476"><ele>705.0</ele><time>2026-04-16T11:02:58.721Z</time></trkpt><trkpt lat="43.4668554" lon="12.3694146"><ele>705.0</ele><time>2026-04-16T11:02:59.72Z</time></trkpt><trkpt lat="43.4667781" lon="12.3691866"><ele>705.0</ele><time>2026-04-16T11:03:00.719Z</time></trkpt><trkpt lat="43.4666608" lon="12.3689632"><ele>704.6666666666666</ele><time>2026-04-16T11:03:01.72Z</time></trkpt><trkpt lat="43.4665469" lon="12.3687368"><ele>704.3333333333333</ele><time>2026-04-16T11:03:02.721Z</time></trkpt><trkpt lat="43.4664442" lon="12.3685068"><ele>704.0</ele><time>2026-04-16T11:03:03.72Z</time></trkpt><trkpt lat="43.4663703" lon="12.3682698"><ele>702.0</ele><time>2026-04-16T11:03:04.72Z</time></trkpt><trkpt lat="43.466306" lon="12.3680168"><ele>700.0</ele><time>2026-04-16T11:03:05.721Z</time></trkpt><trkpt lat="43.466248" lon="12.3677527"><ele>698.0</ele><time>2026-04-16T11:03:06.72Z</time></trkpt><trkpt lat="43.4662118" lon="12.3674928"><ele>695.3333333333333</ele><time>2026-04-16T11:03:07.719Z</time></trkpt><trkpt lat="43.4661733" lon="12.3672348"><ele>692.6666666666666</ele><time>2026-04-16T11:03:08.721Z</time></trkpt><trkpt lat="43.4661495" lon="12.3669706"><ele>690.0</ele><time>2026-04-16T11:03:09.719Z</time></trkpt><trkpt lat="43.4661307" lon="12.3667039"><ele>689.25</ele><time>2026-04-16T11:03:10.72Z</time></trkpt><trkpt lat="43.4661525" lon="12.3665134"><ele>688.5</ele><time>2026-04-16T11:03:11.722Z</time></trkpt><trkpt lat="43.4661246" lon="12.366339"><ele>687.75</ele><time>2026-04-16T11:03:12.721Z</time></trkpt><trkpt lat="43.4660754" lon="12.3661924"><ele>687.0</ele><time>2026-04-16T11:03:13.72Z</time></trkpt><trkpt lat="43.4659959" lon="12.3660906"><ele>686.75</ele><time>2026-04-16T11:03:14.72Z</time></trkpt><trkpt lat="43.4659068" lon="12.365997"><ele>686.5</ele><time>2026-04-16T11:03:15.719Z</time></trkpt><trkpt lat="43.4657657" lon="12.3659984"><ele>686.25</ele><time>2026-04-16T11:03:16.72Z</time></trkpt><trkpt lat="43.4656189" lon="12.3659745"><ele>686.0</ele><time>2026-04-16T11:03:17.721Z</time></trkpt><trkpt lat="43.4654723" lon="12.3659096"><ele>679.6666666666666</ele><time>2026-04-16T11:03:18.72Z</time></trkpt><trkpt lat="43.4653411" lon="12.3658298"><ele>673.3333333333334</ele><time>2026-04-16T11:03:19.72Z</time></trkpt><trkpt lat="43.4652112" lon="12.3657282"><ele>667.0</ele><time>2026-04-16T11:03:20.72Z</time></trkpt><trkpt lat="43.4651287" lon="12.3655288"><ele>667.6666666666667</ele><time>2026-04-16T11:03:21.72Z</time></trkpt><trkpt lat="43.4650239" lon="12.3653721"><ele>668.3333333333334</ele><time>2026-04-16T11:03:22.721Z</time></trkpt><trkpt lat="43.4649845" lon="12.3651178"><ele>669.0</ele><time>2026-04-16T11:03:23.722Z</time></trkpt><trkpt lat="43.4649338" lon="12.3648781"><ele>665.6666666666666</ele><time>2026-04-16T11:03:24.719Z</time></trkpt><trkpt lat="43.4649168" lon="12.3646104"><ele>662.3333333333333</ele><time>2026-04-16T11:03:25.72Z</time></trkpt><trkpt lat="43.464958" lon="12.3643364"><ele>659.0</ele><time>2026-04-16T11:03:26.719Z</time></trkpt><trkpt lat="43.4649526" lon="12.3640565"><ele>656.3333333333333</ele><time>2026-04-16T11:03:27.72Z</time></trkpt><trkpt lat="43.4649403" lon="12.3637648"><ele>653.6666666666666</ele><time>2026-04-16T11:03:28.719Z</time></trkpt><trkpt lat="43.4649195" lon="12.3634961"><ele>651.0</ele><time>2026-04-16T11:03:29.72Z</time></trkpt><trkpt lat="43.4648972" lon="12.3632234"><ele>648.0</ele><time>2026-04-16T11:03:30.72Z</time></trkpt><trkpt lat="43.464844" lon="12.3629843"><ele>645.0</ele><time>2026-04-16T11:03:31.722Z</time></trkpt><trkpt lat="43.4647951" lon="12.3627482"><ele>642.0</ele><time>2026-04-16T11:03:32.721Z</time></trkpt><trkpt lat="43.4647291" lon="12.3625126"><ele>642.0</ele><time>2026-04-16T11:03:33.719Z</time></trkpt><trkpt lat="43.4646663" lon="12.3623049"><ele>642.0</ele><time>2026-04-16T11:03:34.722Z</time></trkpt><trkpt lat="43.4646031" lon="12.3620943"><ele>642.0</ele><time>2026-04-16T11:03:35.719Z</time></trkpt><trkpt lat="43.4645265" lon="12.3619229"><ele>638.25</ele><time>2026-04-16T11:03:36.72Z</time></trkpt><trkpt lat="43.4644748" lon="12.3617455"><ele>634.5</ele><time>2026-04-16T11:03:37.72Z</time></trkpt><trkpt lat="43.4644569" lon="12.3616052"><ele>630.75</ele><time>2026-04-16T11:03:38.719Z</time></trkpt><trkpt lat="43.4644291" lon="12.3614198"><ele>627.0</ele><time>2026-04-16T11:03:39.72Z</time></trkpt><trkpt lat="43.4645386" lon="12.3613413"><ele>626.8000000000001</ele><time>2026-04-16T11:03:40.721Z</time></trkpt><trkpt lat="43.4646192" lon="12.3612748"><ele>626.6</ele><time>2026-04-16T11:03:41.721Z</time></trkpt><trkpt lat="43.4647353" lon="12.3612433"><ele>626.4000000000001</ele><time>2026-04-16T11:03:42.72Z</time></trkpt><trkpt lat="43.464846" lon="12.361229"><ele>626.2</ele><time>2026-04-16T11:03:43.72Z</time></trkpt><trkpt lat="43.464943" lon="12.3611915"><ele>626.0</ele><time>2026-04-16T11:03:44.719Z</time></trkpt><trkpt lat="43.4650469" lon="12.3611231"><ele>626.0</ele><time>2026-04-16T11:03:45.72Z</time></trkpt><trkpt lat="43.4651269" lon="12.361064"><ele>626.0</ele><time>2026-04-16T11:03:46.719Z</time></trkpt><trkpt lat="43.4651792" lon="12.3609088"><ele>626.0</ele><time>2026-04-16T11:03:47.72Z</time></trkpt><trkpt lat="43.465201" lon="12.360724"><ele>626.0</ele><time>2026-04-16T11:03:48.72Z</time></trkpt><trkpt lat="43.4652092" lon="12.3605225"><ele>623.3333333333333</ele><time>2026-04-16T11:03:49.72Z</time></trkpt><trkpt lat="43.4652105" lon="12.3603236"><ele>620.6666666666666</ele><time>2026-04-16T11:03:50.72Z</time></trkpt><trkpt lat="43.465132" lon="12.3600826"><ele>618.0</ele><time>2026-04-16T11:03:51.72Z</time></trkpt><trkpt lat="43.4650443" lon="12.3598572"><ele>617.3333333333334</ele><time>2026-04-16T11:03:52.721Z</time></trkpt><trkpt lat="43.4649531" lon="12.359641"><ele>616.6666666666667</ele><time>2026-04-16T11:03:53.719Z</time></trkpt><trkpt lat="43.4648739" lon="12.3594238"><ele>616.0</ele><time>2026-04-16T11:03:54.719Z</time></trkpt><trkpt lat="43.4648131" lon="12.359244"><ele>616.0</ele><time>2026-04-16T11:03:55.721Z</time></trkpt><trkpt lat="43.4647705" lon="12.3590676"><ele>616.0</ele><time>2026-04-16T11:03:56.721Z</time></trkpt><trkpt lat="43.4647353" lon="12.3588954"><ele>616.0</ele><time>2026-04-16T11:03:57.721Z</time></trkpt><trkpt lat="43.4647969" lon="12.35876"><ele>616.0</ele><time>2026-04-16T11:03:58.721Z</time></trkpt><trkpt lat="43.4648519" lon="12.3585922"><ele>613.5</ele><time>2026-04-16T11:03:59.721Z</time></trkpt><trkpt lat="43.4649061" lon="12.3584208"><ele>611.0</ele><time>2026-04-16T11:04:00.72Z</time></trkpt><trkpt lat="43.4649613" lon="12.3583241"><ele>608.5</ele><time>2026-04-16T11:04:01.721Z</time></trkpt><trkpt lat="43.4650315" lon="12.3582961"><ele>606.0</ele><time>2026-04-16T11:04:02.719Z</time></trkpt><trkpt lat="43.4650973" lon="12.3583123"><ele>603.5</ele><time>2026-04-16T11:04:03.721Z</time></trkpt><trkpt lat="43.4651753" lon="12.358343"><ele>601.0</ele><time>2026-04-16T11:04:04.719Z</time></trkpt><trkpt lat="43.4652554" lon="12.3583452"><ele>601.0</ele><time>2026-04-16T11:04:05.721Z</time></trkpt><trkpt lat="43.4653258" lon="12.3582899"><ele>601.0</ele><time>2026-04-16T11:04:06.721Z</time></trkpt><trkpt lat="43.4653866" lon="12.3582273"><ele>601.0</ele><time>2026-04-16T11:04:07.72Z</time></trkpt><trkpt lat="43.4654067" lon="12.3581366"><ele>601.0</ele><time>2026-04-16T11:04:08.721Z</time></trkpt><trkpt lat="43.4653581" lon="12.3580561"><ele>601.0</ele><time>2026-04-16T11:04:09.721Z</time></trkpt><trkpt lat="43.4652368" lon="12.3578505"><ele>595.6666666666667</ele><time>2026-04-16T11:04:10.719Z</time></trkpt><trkpt lat="43.4651303" lon="12.3576927"><ele>590.3333333333334</ele><time>2026-04-16T11:04:11.72Z</time></trkpt><trkpt lat="43.4650112" lon="12.3574997"><ele>585.0</ele><time>2026-04-16T11:04:12.719Z</time></trkpt><trkpt lat="43.464895" lon="12.3572992"><ele>579.3333333333334</ele><time>2026-04-16T11:04:13.721Z</time></trkpt><trkpt lat="43.4647949" lon="12.3571167"><ele>573.6666666666667</ele><time>2026-04-16T11:04:14.72Z</time></trkpt><trkpt lat="43.4647089" lon="12.3569293"><ele>568.0</ele><time>2026-04-16T11:04:15.72Z</time></trkpt><trkpt lat="43.4646718" lon="12.3567255"><ele>568.0</ele><time>2026-04-16T11:04:16.721Z</time></trkpt><trkpt lat="43.4646272" lon="12.3565224"><ele>568.0</ele><time>2026-04-16T11:04:17.721Z</time></trkpt><trkpt lat="43.4646831" lon="12.3562951"><ele>568.0</ele><time>2026-04-16T11:04:18.722Z</time></trkpt><trkpt lat="43.4646934" lon="12.3560888"><ele>565.25</ele><time>2026-04-16T11:04:19.721Z</time></trkpt><trkpt lat="43.464673" lon="12.3558846"><ele>562.5</ele><time>2026-04-16T11:04:20.721Z</time></trkpt><trkpt lat="43.4646272" lon="12.3557113"><ele>559.75</ele><time>2026-04-16T11:04:21.719Z</time></trkpt><trkpt lat="43.4646014" lon="12.3555471"><ele>557.0</ele><time>2026-04-16T11:04:22.72Z</time></trkpt><trkpt lat="43.4646042" lon="12.3554016"><ele>555.25</ele><time>2026-04-16T11:04:23.721Z</time></trkpt><trkpt lat="43.4646087" lon="12.3552533"><ele>553.5</ele><time>2026-04-16T11:04:24.721Z</time></trkpt><trkpt lat="43.4647809" lon="12.3552986"><ele>551.75</ele><time>2026-04-16T11:04:25.722Z</time></trkpt><trkpt lat="43.4648637" lon="12.3553063"><ele>550.0</ele><time>2026-04-16T11:04:26.721Z</time></trkpt><trkpt lat="43.4649231" lon="12.3554065"><ele>550.0</ele><time>2026-04-16T11:04:27.721Z</time></trkpt><trkpt lat="43.4649659" lon="12.3555335"><ele>550.0</ele><time>2026-04-16T11:04:28.72Z</time></trkpt><trkpt lat="43.4650207" lon="12.355673"><ele>550.0</ele><time>2026-04-16T11:04:29.721Z</time></trkpt><trkpt lat="43.4651234" lon="12.3557988"><ele>550.0</ele><time>2026-04-16T11:04:30.719Z</time></trkpt><trkpt lat="43.4652686" lon="12.3558951"><ele>552.3333333333334</ele><time>2026-04-16T11:04:31.721Z</time></trkpt><trkpt lat="43.465425" lon="12.3559662"><ele>554.6666666666666</ele><time>2026-04-16T11:04:32.721Z</time></trkpt><trkpt lat="43.4655789" lon="12.3560471"><ele>557.0</ele><time>2026-04-16T11:04:33.72Z</time></trkpt><trkpt lat="43.4657141" lon="12.3561133"><ele>553.0</ele><time>2026-04-16T11:04:34.72Z</time></trkpt><trkpt lat="43.465844" lon="12.3561461"><ele>549.0</ele><time>2026-04-16T11:04:35.721Z</time></trkpt><trkpt lat="43.4659569" lon="12.3561351"><ele>545.0</ele><time>2026-04-16T11:04:36.721Z</time></trkpt><trkpt lat="43.466057" lon="12.3560494"><ele>541.0</ele><time>2026-04-16T11:04:37.721Z</time></trkpt><trkpt lat="43.4661164" lon="12.3559128"><ele>541.0</ele><time>2026-04-16T11:04:38.721Z</time></trkpt><trkpt lat="43.4661407" lon="12.3557696"><ele>541.0</ele><time>2026-04-16T11:04:39.72Z</time></trkpt><trkpt lat="43.4661313" lon="12.3556342"><ele>541.0</ele><time>2026-04-16T11:04:40.719Z</time></trkpt><trkpt lat="43.4660453" lon="12.3554899"><ele>541.0</ele><time>2026-04-16T11:04:41.72Z</time></trkpt><trkpt lat="43.4659245" lon="12.3553518"><ele>536.3333333333334</ele><time>2026-04-16T11:04:42.72Z</time></trkpt><trkpt lat="43.4658192" lon="12.3552357"><ele>531.6666666666666</ele><time>2026-04-16T11:04:43.72Z</time></trkpt><trkpt lat="43.4656783" lon="12.3549913"><ele>527.0</ele><time>2026-04-16T11:04:44.719Z</time></trkpt><trkpt lat="43.4655537" lon="12.354803"><ele>523.0</ele><time>2026-04-16T11:04:45.721Z</time></trkpt><trkpt lat="43.4654668" lon="12.3545616"><ele>519.0</ele><time>2026-04-16T11:04:46.722Z</time></trkpt><trkpt lat="43.4653642" lon="12.3544057"><ele>515.0</ele><time>2026-04-16T11:04:47.721Z</time></trkpt><trkpt lat="43.465271" lon="12.354216"><ele>516.0</ele><time>2026-04-16T11:04:48.719Z</time></trkpt><trkpt lat="43.465193" lon="12.3540463"><ele>517.0</ele><time>2026-04-16T11:04:49.72Z</time></trkpt><trkpt lat="43.4651159" lon="12.3538644"><ele>518.0</ele><time>2026-04-16T11:04:50.721Z</time></trkpt><trkpt lat="43.4651263" lon="12.3537607"><ele>519.0</ele><time>2026-04-16T11:04:51.722Z</time></trkpt><trkpt lat="43.4651437" lon="12.3536521"><ele>519.0</ele><time>2026-04-16T11:04:52.72Z</time></trkpt><trkpt lat="43.4652107" lon="12.3535923"><ele>519.0</ele><time>2026-04-16T11:04:53.721Z</time></trkpt><trkpt lat="43.4653142" lon="12.3536349"><ele>519.0</ele><time>2026-04-16T11:04:54.72Z</time></trkpt><trkpt lat="43.4654477" lon="12.3537578"><ele>519.0</ele><time>2026-04-16T11:04:55.721Z</time></trkpt><trkpt lat="43.4656263" lon="12.3538659"><ele>518.0</ele><time>2026-04-16T11:04:56.721Z</time></trkpt><trkpt lat="43.4657625" lon="12.3538468"><ele>517.0</ele><time>2026-04-16T11:04:57.72Z</time></trkpt><trkpt lat="43.4659092" lon="12.3538493"><ele>516.0</ele><time>2026-04-16T11:04:58.721Z</time></trkpt><trkpt lat="43.4660301" lon="12.3538992"><ele>515.0</ele><time>2026-04-16T11:04:59.721Z</time></trkpt><trkpt lat="43.4661365" lon="12.3539709"><ele>515.0</ele><time>2026-04-16T11:05:00.72Z</time></trkpt><trkpt lat="43.4662322" lon="12.3540443"><ele>515.0</ele><time>2026-04-16T11:05:01.721Z</time></trkpt><trkpt lat="43.4663156" lon="12.3540399"><ele>515.0</ele><time>2026-04-16T11:05:02.72Z</time></trkpt><trkpt lat="43.466399" lon="12.3540013"><ele>515.0</ele><time>2026-04-16T11:05:03.721Z</time></trkpt><trkpt lat="43.4664713" lon="12.3539504"><ele>515.0</ele><time>2026-04-16T11:05:04.721Z</time></trkpt><trkpt lat="43.4664911" lon="12.3538474"><ele>515.0</ele><time>2026-04-16T11:05:05.721Z</time></trkpt><trkpt lat="43.4663738" lon="12.3537712"><ele>511.5</ele><time>2026-04-16T11:05:06.719Z</time></trkpt><trkpt lat="43.4662997" lon="12.3536691"><ele>508.0</ele><time>2026-04-16T11:05:07.719Z</time></trkpt><trkpt lat="43.4662119" lon="12.3535921"><ele>504.5</ele><time>2026-04-16T11:05:08.721Z</time></trkpt><trkpt lat="43.4661105" lon="12.3534725"><ele>501.0</ele><time>2026-04-16T11:05:09.72Z</time></trkpt><trkpt lat="43.4660071" lon="12.3533635"><ele>499.33333333333337</ele><time>2026-04-16T11:05:10.721Z</time></trkpt><trkpt lat="43.4658787" lon="12.3532453"><ele>497.6666666666667</ele><time>2026-04-16T11:05:11.721Z</time></trkpt><trkpt lat="43.4657456" lon="12.3531335"><ele>496.0</ele><time>2026-04-16T11:05:12.721Z</time></trkpt><trkpt lat="43.4656162" lon="12.3530211"><ele>495.6666666666667</ele><time>2026-04-16T11:05:13.722Z</time></trkpt><trkpt lat="43.4654488" lon="12.3529019"><ele>495.33333333333337</ele><time>2026-04-16T11:05:14.72Z</time></trkpt><trkpt lat="43.465293" lon="12.3527793"><ele>495.0</ele><time>2026-04-16T11:05:15.72Z</time></trkpt><trkpt lat="43.4651462" lon="12.3526946"><ele>493.66666666666663</ele><time>2026-04-16T11:05:16.721Z</time></trkpt><trkpt lat="43.465015" lon="12.3526473"><ele>492.3333333333333</ele><time>2026-04-16T11:05:17.721Z</time></trkpt><trkpt lat="43.4648578" lon="12.3525499"><ele>491.0</ele><time>2026-04-16T11:05:18.721Z</time></trkpt><trkpt lat="43.464699" lon="12.3524136"><ele>489.3333333333333</ele><time>2026-04-16T11:05:19.721Z</time></trkpt><trkpt lat="43.4645475" lon="12.3523199"><ele>487.66666666666663</ele><time>2026-04-16T11:05:20.72Z</time></trkpt><trkpt lat="43.4643786" lon="12.352272"><ele>486.0</ele><time>2026-04-16T11:05:21.721Z</time></trkpt><trkpt lat="43.4642248" lon="12.3521816"><ele>481.0</ele><time>2026-04-16T11:05:22.721Z</time></trkpt><trkpt lat="43.4640851" lon="12.3520594"><ele>476.0</ele><time>2026-04-16T11:05:23.721Z</time></trkpt><trkpt lat="43.4639508" lon="12.3519602"><ele>471.0</ele><time>2026-04-16T11:05:24.72Z</time></trkpt><trkpt lat="43.463813" lon="12.3518717"><ele>469.0</ele><time>2026-04-16T11:05:25.721Z</time></trkpt><trkpt lat="43.4636714" lon="12.3518126"><ele>467.0</ele><time>2026-04-16T11:05:26.721Z</time></trkpt><trkpt lat="43.4635523" lon="12.3517253"><ele>465.0</ele><time>2026-04-16T11:05:27.72Z</time></trkpt><trkpt lat="43.4634533" lon="12.3516182"><ele>463.0</ele><time>2026-04-16T11:05:28.721Z</time></trkpt><trkpt lat="43.4633757" lon="12.3514781"><ele>461.75</ele><time>2026-04-16T11:05:29.721Z</time></trkpt><trkpt lat="43.4633407" lon="12.351293"><ele>460.5</ele><time>2026-04-16T11:05:30.72Z</time></trkpt><trkpt lat="43.4633334" lon="12.3510964"><ele>459.25</ele><time>2026-04-16T11:05:31.72Z</time></trkpt><trkpt lat="43.463373" lon="12.3509031"><ele>458.0</ele><time>2026-04-16T11:05:32.721Z</time></trkpt><trkpt lat="43.4633959" lon="12.3506865"><ele>459.3333333333333</ele><time>2026-04-16T11:05:33.72Z</time></trkpt><trkpt lat="43.463384" lon="12.3504518"><ele>460.66666666666663</ele><time>2026-04-16T11:05:34.721Z</time></trkpt><trkpt lat="43.4633502" lon="12.3502078"><ele>462.0</ele><time>2026-04-16T11:05:35.721Z</time></trkpt><trkpt lat="43.4632928" lon="12.3499591"><ele>462.66666666666663</ele><time>2026-04-16T11:05:36.72Z</time></trkpt><trkpt lat="43.4632381" lon="12.3497053"><ele>463.3333333333333</ele><time>2026-04-16T11:05:37.721Z</time></trkpt><trkpt lat="43.4631878" lon="12.3494341"><ele>464.0</ele><time>2026-04-16T11:05:38.719Z</time></trkpt><trkpt lat="43.4631542" lon="12.3491636"><ele>464.0</ele><time>2026-04-16T11:05:39.721Z</time></trkpt><trkpt lat="43.4631329" lon="12.3488922"><ele>464.0</ele><time>2026-04-16T11:05:40.721Z</time></trkpt><trkpt lat="43.4631379" lon="12.3486369"><ele>464.0</ele><time>2026-04-16T11:05:41.72Z</time></trkpt><trkpt lat="43.4631889" lon="12.3484149"><ele>464.0</ele><time>2026-04-16T11:05:42.721Z</time></trkpt><trkpt lat="43.4631926" lon="12.3482182"><ele>464.0</ele><time>2026-04-16T11:05:43.72Z</time></trkpt><trkpt lat="43.4631632" lon="12.3480149"><ele>464.0</ele><time>2026-04-16T11:05:44.72Z</time></trkpt><trkpt lat="43.4630978" lon="12.3478499"><ele>464.0</ele><time>2026-04-16T11:05:45.72Z</time></trkpt><trkpt lat="43.4630247" lon="12.3476963"><ele>464.0</ele><time>2026-04-16T11:05:46.721Z</time></trkpt><trkpt lat="43.4629536" lon="12.3475229"><ele>464.0</ele><time>2026-04-16T11:05:47.722Z</time></trkpt><trkpt lat="43.4628529" lon="12.3473446"><ele>464.0</ele><time>2026-04-16T11:05:48.72Z</time></trkpt><trkpt lat="43.4627554" lon="12.3471565"><ele>459.3333333333333</ele><time>2026-04-16T11:05:49.721Z</time></trkpt><trkpt lat="43.4626568" lon="12.3469673"><ele>454.66666666666663</ele><time>2026-04-16T11:05:50.719Z</time></trkpt><trkpt lat="43.4626216" lon="12.3467173"><ele>450.0</ele><time>2026-04-16T11:05:51.721Z</time></trkpt><trkpt lat="43.4625461" lon="12.3464802"><ele>451.66666666666663</ele><time>2026-04-16T11:05:52.721Z</time></trkpt><trkpt lat="43.4624446" lon="12.3462591"><ele>453.3333333333333</ele><time>2026-04-16T11:05:53.721Z</time></trkpt><trkpt lat="43.4623325" lon="12.346053"><ele>455.0</ele><time>2026-04-16T11:05:54.72Z</time></trkpt><trkpt lat="43.4622333" lon="12.3458873"><ele>455.0</ele><time>2026-04-16T11:05:55.722Z</time></trkpt><trkpt lat="43.4621845" lon="12.3456829"><ele>455.0</ele><time>2026-04-16T11:05:56.72Z</time></trkpt><trkpt lat="43.4621665" lon="12.3454857"><ele>455.0</ele><time>2026-04-16T11:05:57.719Z</time></trkpt><trkpt lat="43.462198" lon="12.3453203"><ele>455.0</ele><time>2026-04-16T11:05:58.721Z</time></trkpt><trkpt lat="43.4622691" lon="12.3451629"><ele>453.0</ele><time>2026-04-16T11:05:59.72Z</time></trkpt><trkpt lat="43.4623399" lon="12.3450109"><ele>451.0</ele><time>2026-04-16T11:06:00.72Z</time></trkpt><trkpt lat="43.4624498" lon="12.3448747"><ele>449.0</ele><time>2026-04-16T11:06:01.722Z</time></trkpt><trkpt lat="43.4625556" lon="12.3447297"><ele>447.0</ele><time>2026-04-16T11:06:02.72Z</time></trkpt><trkpt lat="43.4626719" lon="12.344573"><ele>448.33333333333337</ele><time>2026-04-16T11:06:03.721Z</time></trkpt><trkpt lat="43.4627907" lon="12.3444017"><ele>449.6666666666667</ele><time>2026-04-16T11:06:04.721Z</time></trkpt><trkpt lat="43.462909" lon="12.3442105"><ele>451.0</ele><time>2026-04-16T11:06:05.721Z</time></trkpt><trkpt lat="43.4630374" lon="12.3439336"><ele>444.6666666666667</ele><time>2026-04-16T11:06:06.722Z</time></trkpt><trkpt lat="43.4631568" lon="12.3437063"><ele>438.33333333333337</ele><time>2026-04-16T11:06:07.72Z</time></trkpt><trkpt lat="43.4632684" lon="12.3434549"><ele>432.0</ele><time>2026-04-16T11:06:08.721Z</time></trkpt><trkpt lat="43.4633799" lon="12.3432083"><ele>428.66666666666663</ele><time>2026-04-16T11:06:09.721Z</time></trkpt><trkpt lat="43.4634788" lon="12.34299"><ele>425.3333333333333</ele><time>2026-04-16T11:06:10.722Z</time></trkpt><trkpt lat="43.4635603" lon="12.3427687"><ele>422.0</ele><time>2026-04-16T11:06:11.721Z</time></trkpt><trkpt lat="43.4636498" lon="12.3425549"><ele>422.0</ele><time>2026-04-16T11:06:12.72Z</time></trkpt><trkpt lat="43.4636673" lon="12.3423742"><ele>422.0</ele><time>2026-04-16T11:06:13.721Z</time></trkpt><trkpt lat="43.4636508" lon="12.3421843"><ele>422.0</ele><time>2026-04-16T11:06:14.719Z</time></trkpt><trkpt lat="43.4636275" lon="12.3419979"><ele>422.0</ele><time>2026-04-16T11:06:15.721Z</time></trkpt><trkpt lat="43.4635874" lon="12.3417936"><ele>421.66666666666663</ele><time>2026-04-16T11:06:16.722Z</time></trkpt><trkpt lat="43.4635577" lon="12.3416014"><ele>421.33333333333337</ele><time>2026-04-16T11:06:17.721Z</time></trkpt><trkpt lat="43.4635745" lon="12.3413591"><ele>421.0</ele><time>2026-04-16T11:06:18.721Z</time></trkpt><trkpt lat="43.4635824" lon="12.3411092"><ele>421.0</ele><time>2026-04-16T11:06:19.721Z</time></trkpt><trkpt lat="43.4635853" lon="12.3408736"><ele>421.0</ele><time>2026-04-16T11:06:20.721Z</time></trkpt><trkpt lat="43.4635967" lon="12.3406396"><ele>421.0</ele><time>2026-04-16T11:06:21.72Z</time></trkpt><trkpt lat="43.4636536" lon="12.3404436"><ele>420.0</ele><time>2026-04-16T11:06:22.721Z</time></trkpt><trkpt lat="43.4637368" lon="12.3402294"><ele>419.0</ele><time>2026-04-16T11:06:23.72Z</time></trkpt><trkpt lat="43.4638235" lon="12.3400288"><ele>418.0</ele><time>2026-04-16T11:06:24.719Z</time></trkpt><trkpt lat="43.4639643" lon="12.3397804"><ele>417.0</ele><time>2026-04-16T11:06:25.722Z</time></trkpt><trkpt lat="43.4640952" lon="12.3395339"><ele>416.0</ele><time>2026-04-16T11:06:26.72Z</time></trkpt><trkpt lat="43.4642281" lon="12.3392863"><ele>415.0</ele><time>2026-04-16T11:06:27.72Z</time></trkpt><trkpt lat="43.464364" lon="12.3390094"><ele>410.5</ele><time>2026-04-16T11:06:28.722Z</time></trkpt><trkpt lat="43.4644922" lon="12.3387339"><ele>406.0</ele><time>2026-04-16T11:06:29.72Z</time></trkpt><trkpt lat="43.4646208" lon="12.338494"><ele>406.6666666666667</ele><time>2026-04-16T11:06:30.721Z</time></trkpt><trkpt lat="43.4647561" lon="12.3382627"><ele>407.33333333333337</ele><time>2026-04-16T11:06:31.72Z</time></trkpt><trkpt lat="43.4649033" lon="12.3380563"><ele>408.0</ele><time>2026-04-16T11:06:32.72Z</time></trkpt><trkpt lat="43.4650622" lon="12.3378641"><ele>408.0</ele><time>2026-04-16T11:06:33.721Z</time></trkpt><trkpt lat="43.4652219" lon="12.3376877"><ele>408.0</ele><time>2026-04-16T11:06:34.721Z</time></trkpt><trkpt lat="43.4653792" lon="12.3375252"><ele>408.0</ele><time>2026-04-16T11:06:35.72Z</time></trkpt><trkpt lat="43.4655431" lon="12.337383"><ele>407.25</ele><time>2026-04-16T11:06:36.721Z</time></trkpt><trkpt lat="43.4656635" lon="12.3373187"><ele>406.5</ele><time>2026-04-16T11:06:37.721Z</time></trkpt><trkpt lat="43.4657573" lon="12.3371647"><ele>405.75</ele><time>2026-04-16T11:06:38.721Z</time></trkpt><trkpt lat="43.4658191" lon="12.3370031"><ele>405.0</ele><time>2026-04-16T11:06:39.719Z</time></trkpt><trkpt lat="43.465806" lon="12.3368275"><ele>405.0</ele><time>2026-04-16T11:06:40.721Z</time></trkpt><trkpt lat="43.4658142" lon="12.3366335"><ele>405.0</ele><time>2026-04-16T11:06:41.72Z</time></trkpt><trkpt lat="43.4658457" lon="12.336422"><ele>405.0</ele><time>2026-04-16T11:06:42.72Z</time></trkpt><trkpt lat="43.4658767" lon="12.3361909"><ele>404.33333333333337</ele><time>2026-04-16T11:06:43.721Z</time></trkpt><trkpt lat="43.4659093" lon="12.3359598"><ele>403.6666666666667</ele><time>2026-04-16T11:06:44.72Z</time></trkpt><trkpt lat="43.4659604" lon="12.3356992"><ele>403.0</ele><time>2026-04-16T11:06:45.722Z</time></trkpt><trkpt lat="43.4660252" lon="12.3354443"><ele>403.0</ele><time>2026-04-16T11:06:46.721Z</time></trkpt><trkpt lat="43.4661023" lon="12.335195"><ele>403.0</ele><time>2026-04-16T11:06:47.721Z</time></trkpt><trkpt lat="43.4661826" lon="12.3349535"><ele>403.0</ele><time>2026-04-16T11:06:48.721Z</time></trkpt><trkpt lat="43.4662731" lon="12.3347144"><ele>399.0</ele><time>2026-04-16T11:06:49.72Z</time></trkpt><trkpt lat="43.4663704" lon="12.3345024"><ele>395.0</ele><time>2026-04-16T11:06:50.721Z</time></trkpt><trkpt lat="43.4664635" lon="12.3342905"><ele>391.0</ele><time>2026-04-16T11:06:51.721Z</time></trkpt><trkpt lat="43.4665324" lon="12.3340663"><ele>390.33333333333337</ele><time>2026-04-16T11:06:52.721Z</time></trkpt><trkpt lat="43.4665632" lon="12.3338495"><ele>389.66666666666663</ele><time>2026-04-16T11:06:53.72Z</time></trkpt><trkpt lat="43.4665501" lon="12.3336151"><ele>389.0</ele><time>2026-04-16T11:06:54.721Z</time></trkpt><trkpt lat="43.4665191" lon="12.3333875"><ele>389.0</ele><time>2026-04-16T11:06:55.72Z</time></trkpt><trkpt lat="43.4664445" lon="12.3331378"><ele>389.0</ele><time>2026-04-16T11:06:56.721Z</time></trkpt><trkpt lat="43.4663914" lon="12.3328835"><ele>389.0</ele><time>2026-04-16T11:06:57.72Z</time></trkpt><trkpt lat="43.4663365" lon="12.3325933"><ele>388.3333333333333</ele><time>2026-04-16T11:06:58.72Z</time></trkpt><trkpt lat="43.4662877" lon="12.3322903"><ele>387.66666666666663</ele><time>2026-04-16T11:06:59.721Z</time></trkpt><trkpt lat="43.4662802" lon="12.3319857"><ele>387.0</ele><time>2026-04-16T11:07:00.721Z</time></trkpt><trkpt lat="43.4662746" lon="12.3316605"><ele>389.0</ele><time>2026-04-16T11:07:01.72Z</time></trkpt><trkpt lat="43.4662833" lon="12.331325"><ele>391.0</ele><time>2026-04-16T11:07:02.719Z</time></trkpt><trkpt lat="43.4663146" lon="12.3310126"><ele>391.0</ele><time>2026-04-16T11:07:03.721Z</time></trkpt><trkpt lat="43.4663502" lon="12.3307166"><ele>391.0</ele><time>2026-04-16T11:07:04.719Z</time></trkpt><trkpt lat="43.4664011" lon="12.330426"><ele>391.0</ele><time>2026-04-16T11:07:05.721Z</time></trkpt><trkpt lat="43.4664425" lon="12.3301852"><ele>392.6666666666667</ele><time>2026-04-16T11:07:06.721Z</time></trkpt><trkpt lat="43.4664793" lon="12.3299511"><ele>394.33333333333337</ele><time>2026-04-16T11:07:07.721Z</time></trkpt><trkpt lat="43.4664914" lon="12.3296996"><ele>396.0</ele><time>2026-04-16T11:07:08.721Z</time></trkpt><trkpt lat="43.4664789" lon="12.3294353"><ele>397.66666666666663</ele><time>2026-04-16T11:07:09.719Z</time></trkpt><trkpt lat="43.4664552" lon="12.3291466"><ele>399.3333333333333</ele><time>2026-04-16T11:07:10.721Z</time></trkpt><trkpt lat="43.4664176" lon="12.3288724"><ele>401.0</ele><time>2026-04-16T11:07:11.721Z</time></trkpt><trkpt lat="43.4663601" lon="12.3285989"><ele>398.3333333333333</ele><time>2026-04-16T11:07:12.721Z</time></trkpt><trkpt lat="43.4662743" lon="12.3283315"><ele>395.66666666666663</ele><time>2026-04-16T11:07:13.721Z</time></trkpt><trkpt lat="43.4661641" lon="12.3280716"><ele>393.0</ele><time>2026-04-16T11:07:14.721Z</time></trkpt><trkpt lat="43.4660336" lon="12.3278141"><ele>393.0</ele><time>2026-04-16T11:07:15.721Z</time></trkpt><trkpt lat="43.4658979" lon="12.3275373"><ele>393.0</ele><time>2026-04-16T11:07:16.721Z</time></trkpt><trkpt lat="43.4657659" lon="12.3272512"><ele>398.5</ele><time>2026-04-16T11:07:17.721Z</time></trkpt><trkpt lat="43.4656221" lon="12.3269692"><ele>404.0</ele><time>2026-04-16T11:07:18.72Z</time></trkpt><trkpt lat="43.4654608" lon="12.3267179"><ele>400.0</ele><time>2026-04-16T11:07:19.721Z</time></trkpt><trkpt lat="43.4653087" lon="12.3264815"><ele>396.0</ele><time>2026-04-16T11:07:20.721Z</time></trkpt><trkpt lat="43.4651574" lon="12.326254"><ele>396.0</ele><time>2026-04-16T11:07:21.72Z</time></trkpt><trkpt lat="43.465009" lon="12.3260293"><ele>396.0</ele><time>2026-04-16T11:07:22.721Z</time></trkpt><trkpt lat="43.4648812" lon="12.3258221"><ele>396.0</ele><time>2026-04-16T11:07:23.721Z</time></trkpt><trkpt lat="43.4647545" lon="12.3256091"><ele>398.33333333333337</ele><time>2026-04-16T11:07:24.72Z</time></trkpt><trkpt lat="43.4646966" lon="12.3253771"><ele>400.6666666666667</ele><time>2026-04-16T11:07:25.72Z</time></trkpt><trkpt lat="43.4647679" lon="12.3250929"><ele>403.0</ele><time>2026-04-16T11:07:26.72Z</time></trkpt><trkpt lat="43.464737" lon="12.324836"><ele>404.33333333333337</ele><time>2026-04-16T11:07:27.721Z</time></trkpt><trkpt lat="43.4646915" lon="12.3245629"><ele>405.66666666666663</ele><time>2026-04-16T11:07:28.72Z</time></trkpt><trkpt lat="43.464607" lon="12.3242831"><ele>407.0</ele><time>2026-04-16T11:07:29.721Z</time></trkpt><trkpt lat="43.4645179" lon="12.3240043"><ele>395.0</ele><time>2026-04-16T11:07:30.72Z</time></trkpt><trkpt lat="43.464442" lon="12.3237127"><ele>383.0</ele><time>2026-04-16T11:07:31.72Z</time></trkpt><trkpt lat="43.46436" lon="12.3234077"><ele>383.0</ele><time>2026-04-16T11:07:32.722Z</time></trkpt><trkpt lat="43.4642702" lon="12.323088"><ele>383.0</ele><time>2026-04-16T11:07:33.721Z</time></trkpt><trkpt lat="43.4641798" lon="12.3227773"><ele>384.0</ele><time>2026-04-16T11:07:34.721Z</time></trkpt><trkpt lat="43.4641028" lon="12.3224808"><ele>385.0</ele><time>2026-04-16T11:07:35.721Z</time></trkpt><trkpt lat="43.4640321" lon="12.3221998"><ele>386.0</ele><time>2026-04-16T11:07:36.72Z</time></trkpt><trkpt lat="43.4640179" lon="12.3218954"><ele>387.5</ele><time>2026-04-16T11:07:37.72Z</time></trkpt><trkpt lat="43.4640258" lon="12.3215893"><ele>389.0</ele><time>2026-04-16T11:07:38.72Z</time></trkpt><trkpt lat="43.4640593" lon="12.3212736"><ele>389.0</ele><time>2026-04-16T11:07:39.721Z</time></trkpt><trkpt lat="43.4640891" lon="12.3209685"><ele>389.0</ele><time>2026-04-16T11:07:40.721Z</time></trkpt><trkpt lat="43.4640868" lon="12.3206685"><ele>389.0</ele><time>2026-04-16T11:07:41.721Z</time></trkpt><trkpt lat="43.4640531" lon="12.3203625"><ele>389.0</ele><time>2026-04-16T11:07:42.721Z</time></trkpt><trkpt lat="43.4639926" lon="12.320085"><ele>389.0</ele><time>2026-04-16T11:07:43.721Z</time></trkpt><trkpt lat="43.4639308" lon="12.319814"><ele>389.0</ele><time>2026-04-16T11:07:44.719Z</time></trkpt><trkpt lat="43.4639148" lon="12.3196251"><ele>386.0</ele><time>2026-04-16T11:07:45.722Z</time></trkpt><trkpt lat="43.4638789" lon="12.3193984"><ele>383.0</ele><time>2026-04-16T11:07:46.721Z</time></trkpt><trkpt lat="43.4639628" lon="12.3192245"><ele>380.0</ele><time>2026-04-16T11:07:47.722Z</time></trkpt><trkpt lat="43.4640099" lon="12.3190202"><ele>377.0</ele><time>2026-04-16T11:07:48.721Z</time></trkpt><trkpt lat="43.4640479" lon="12.3188045"><ele>374.0</ele><time>2026-04-16T11:07:49.721Z</time></trkpt><trkpt lat="43.4640719" lon="12.3186005"><ele>371.0</ele><time>2026-04-16T11:07:50.721Z</time></trkpt><trkpt lat="43.4640454" lon="12.3184052"><ele>371.0</ele><time>2026-04-16T11:07:51.719Z</time></trkpt><trkpt lat="43.4639848" lon="12.3182237"><ele>371.0</ele><time>2026-04-16T11:07:52.72Z</time></trkpt><trkpt lat="43.4639017" lon="12.3180287"><ele>371.0</ele><time>2026-04-16T11:07:53.721Z</time></trkpt><trkpt lat="43.4638161" lon="12.3178377"><ele>370.6666666666667</ele><time>2026-04-16T11:07:54.721Z</time></trkpt><trkpt lat="43.463724" lon="12.317629"><ele>370.3333333333333</ele><time>2026-04-16T11:07:55.721Z</time></trkpt><trkpt lat="43.4636146" lon="12.3173847"><ele>370.0</ele><time>2026-04-16T11:07:56.72Z</time></trkpt><trkpt lat="43.4635166" lon="12.317152"><ele>373.3333333333333</ele><time>2026-04-16T11:07:57.721Z</time></trkpt><trkpt lat="43.4634194" lon="12.3169154"><ele>376.6666666666667</ele><time>2026-04-16T11:07:58.721Z</time></trkpt><trkpt lat="43.4633924" lon="12.3166389"><ele>380.0</ele><time>2026-04-16T11:07:59.721Z</time></trkpt><trkpt lat="43.463344" lon="12.3163714"><ele>381.0</ele><time>2026-04-16T11:08:00.721Z</time></trkpt><trkpt lat="43.4633004" lon="12.316102"><ele>382.0</ele><time>2026-04-16T11:08:01.721Z</time></trkpt><trkpt lat="43.4632523" lon="12.3158219"><ele>383.0</ele><time>2026-04-16T11:08:02.721Z</time></trkpt><trkpt lat="43.4632097" lon="12.3155344"><ele>383.6666666666667</ele><time>2026-04-16T11:08:03.721Z</time></trkpt><trkpt lat="43.4631716" lon="12.315246"><ele>384.33333333333337</ele><time>2026-04-16T11:08:04.72Z</time></trkpt><trkpt lat="43.4631392" lon="12.3149583"><ele>385.0</ele><time>2026-04-16T11:08:05.721Z</time></trkpt><trkpt lat="43.46311" lon="12.3146657"><ele>385.0</ele><time>2026-04-16T11:08:06.721Z</time></trkpt><trkpt lat="43.4630818" lon="12.3143803"><ele>385.0</ele><time>2026-04-16T11:08:07.721Z</time></trkpt><trkpt lat="43.4630612" lon="12.3140902"><ele>385.0</ele><time>2026-04-16T11:08:08.72Z</time></trkpt><trkpt lat="43.4630435" lon="12.3137806"><ele>388.0</ele><time>2026-04-16T11:08:09.721Z</time></trkpt><trkpt lat="43.463027" lon="12.3134762"><ele>391.0</ele><time>2026-04-16T11:08:10.72Z</time></trkpt><trkpt lat="43.4629913" lon="12.3131726"><ele>394.0</ele><time>2026-04-16T11:08:11.721Z</time></trkpt><trkpt lat="43.4629374" lon="12.3128664"><ele>380.5</ele><time>2026-04-16T11:08:12.721Z</time></trkpt><trkpt lat="43.4628741" lon="12.312564"><ele>367.0</ele><time>2026-04-16T11:08:13.721Z</time></trkpt><trkpt lat="43.4628068" lon="12.3122581"><ele>366.66666666666663</ele><time>2026-04-16T11:08:14.721Z</time></trkpt><trkpt lat="43.4627459" lon="12.3119861"><ele>366.3333333333333</ele><time>2026-04-16T11:08:15.721Z</time></trkpt><trkpt lat="43.4626884" lon="12.3117014"><ele>366.0</ele><time>2026-04-16T11:08:16.721Z</time></trkpt><trkpt lat="43.4626847" lon="12.3115003"><ele>363.6666666666667</ele><time>2026-04-16T11:08:17.72Z</time></trkpt><trkpt lat="43.4626844" lon="12.3112465"><ele>361.33333333333337</ele><time>2026-04-16T11:08:18.721Z</time></trkpt><trkpt lat="43.4626992" lon="12.3110212"><ele>359.0</ele><time>2026-04-16T11:08:19.721Z</time></trkpt><trkpt lat="43.4628148" lon="12.3108473"><ele>359.0</ele><time>2026-04-16T11:08:20.72Z</time></trkpt><trkpt lat="43.4628961" lon="12.3106691"><ele>359.0</ele><time>2026-04-16T11:08:21.721Z</time></trkpt><trkpt lat="43.4628961" lon="12.3104692"><ele>359.0</ele><time>2026-04-16T11:08:22.72Z</time></trkpt><trkpt lat="43.4628876" lon="12.3102645"><ele>359.0</ele><time>2026-04-16T11:08:23.721Z</time></trkpt><trkpt lat="43.4628667" lon="12.3100438"><ele>359.0</ele><time>2026-04-16T11:08:24.721Z</time></trkpt><trkpt lat="43.4628306" lon="12.3097893"><ele>359.0</ele><time>2026-04-16T11:08:25.72Z</time></trkpt><trkpt lat="43.4627898" lon="12.3095312"><ele>359.0</ele><time>2026-04-16T11:08:26.721Z</time></trkpt><trkpt lat="43.4627519" lon="12.3092663"><ele>361.6666666666667</ele><time>2026-04-16T11:08:27.72Z</time></trkpt><trkpt lat="43.4627007" lon="12.308992"><ele>364.3333333333333</ele><time>2026-04-16T11:08:28.721Z</time></trkpt><trkpt lat="43.4626257" lon="12.308704"><ele>367.0</ele><time>2026-04-16T11:08:29.721Z</time></trkpt><trkpt lat="43.4625369" lon="12.3084224"><ele>369.0</ele><time>2026-04-16T11:08:30.721Z</time></trkpt><trkpt lat="43.4624289" lon="12.3081337"><ele>371.0</ele><time>2026-04-16T11:08:31.721Z</time></trkpt><trkpt lat="43.462318" lon="12.3078471"><ele>371.0</ele><time>2026-04-16T11:08:32.721Z</time></trkpt><trkpt lat="43.4622176" lon="12.3075597"><ele>371.0</ele><time>2026-04-16T11:08:33.721Z</time></trkpt><trkpt lat="43.4621238" lon="12.3072971"><ele>371.0</ele><time>2026-04-16T11:08:34.72Z</time></trkpt><trkpt lat="43.4620387" lon="12.3070667"><ele>370.0</ele><time>2026-04-16T11:08:35.721Z</time></trkpt><trkpt lat="43.4619433" lon="12.3068729"><ele>369.0</ele><time>2026-04-16T11:08:36.721Z</time></trkpt><trkpt lat="43.461812" lon="12.3067079"><ele>368.0</ele><time>2026-04-16T11:08:37.72Z</time></trkpt><trkpt lat="43.4616489" lon="12.3065328"><ele>365.0</ele><time>2026-04-16T11:08:38.721Z</time></trkpt><trkpt lat="43.4614579" lon="12.3063553"><ele>362.0</ele><time>2026-04-16T11:08:39.72Z</time></trkpt><trkpt lat="43.4612681" lon="12.306189"><ele>362.0</ele><time>2026-04-16T11:08:40.721Z</time></trkpt><trkpt lat="43.4610612" lon="12.3059942"><ele>362.0</ele><time>2026-04-16T11:08:41.721Z</time></trkpt><trkpt lat="43.460864" lon="12.3058174"><ele>362.0</ele><time>2026-04-16T11:08:42.72Z</time></trkpt><trkpt lat="43.4606678" lon="12.3056428"><ele>362.0</ele><time>2026-04-16T11:08:43.721Z</time></trkpt><trkpt lat="43.4604835" lon="12.3054581"><ele>362.6666666666667</ele><time>2026-04-16T11:08:44.72Z</time></trkpt><trkpt lat="43.4603111" lon="12.3052868"><ele>363.3333333333333</ele><time>2026-04-16T11:08:45.72Z</time></trkpt><trkpt lat="43.4601413" lon="12.3051278"><ele>364.0</ele><time>2026-04-16T11:08:46.721Z</time></trkpt><trkpt lat="43.4599704" lon="12.3049779"><ele>364.0</ele><time>2026-04-16T11:08:47.722Z</time></trkpt><trkpt lat="43.4598066" lon="12.3048779"><ele>364.0</ele><time>2026-04-16T11:08:48.72Z</time></trkpt><trkpt lat="43.4596278" lon="12.3048259"><ele>364.0</ele><time>2026-04-16T11:08:49.721Z</time></trkpt><trkpt lat="43.4594598" lon="12.3047754"><ele>362.66666666666663</ele><time>2026-04-16T11:08:50.72Z</time></trkpt><trkpt lat="43.4592675" lon="12.3047523"><ele>361.3333333333333</ele><time>2026-04-16T11:08:51.721Z</time></trkpt><trkpt lat="43.4590603" lon="12.3047648"><ele>360.0</ele><time>2026-04-16T11:08:52.721Z</time></trkpt><trkpt lat="43.4588503" lon="12.3048005"><ele>360.0</ele><time>2026-04-16T11:08:53.721Z</time></trkpt><trkpt lat="43.4586294" lon="12.3048441"><ele>360.0</ele><time>2026-04-16T11:08:54.72Z</time></trkpt><trkpt lat="43.4584064" lon="12.3048805"><ele>360.0</ele><time>2026-04-16T11:08:55.72Z</time></trkpt><trkpt lat="43.4581878" lon="12.3049158"><ele>360.0</ele><time>2026-04-16T11:08:56.721Z</time></trkpt><trkpt lat="43.4579683" lon="12.3049499"><ele>360.0</ele><time>2026-04-16T11:08:57.721Z</time></trkpt><trkpt lat="43.4577456" lon="12.3049856"><ele>360.0</ele><time>2026-04-16T11:08:58.721Z</time></trkpt><trkpt lat="43.4575217" lon="12.3050024"><ele>360.0</ele><time>2026-04-16T11:08:59.721Z</time></trkpt><trkpt lat="43.4572961" lon="12.3050161"><ele>360.0</ele><time>2026-04-16T11:09:00.721Z</time></trkpt><trkpt lat="43.4570635" lon="12.3050007"><ele>360.0</ele><time>2026-04-16T11:09:01.721Z</time></trkpt><trkpt lat="43.4568535" lon="12.3049825"><ele>360.0</ele><time>2026-04-16T11:09:02.721Z</time></trkpt><trkpt lat="43.456653" lon="12.304964"><ele>360.0</ele><time>2026-04-16T11:09:03.72Z</time></trkpt><trkpt lat="43.4564651" lon="12.3049093"><ele>357.0</ele><time>2026-04-16T11:09:04.721Z</time></trkpt><trkpt lat="43.4562744" lon="12.3048432"><ele>354.0</ele><time>2026-04-16T11:09:05.72Z</time></trkpt><trkpt lat="43.4560762" lon="12.3047281"><ele>351.0</ele><time>2026-04-16T11:09:06.721Z</time></trkpt><trkpt lat="43.455896" lon="12.3046255"><ele>351.6666666666667</ele><time>2026-04-16T11:09:07.72Z</time></trkpt><trkpt lat="43.45572" lon="12.3045251"><ele>352.33333333333337</ele><time>2026-04-16T11:09:08.719Z</time></trkpt><trkpt lat="43.4555392" lon="12.3044131"><ele>353.0</ele><time>2026-04-16T11:09:09.721Z</time></trkpt><trkpt lat="43.4553768" lon="12.3042593"><ele>353.0</ele><time>2026-04-16T11:09:10.721Z</time></trkpt><trkpt lat="43.4552126" lon="12.3041066"><ele>353.0</ele><time>2026-04-16T11:09:11.72Z</time></trkpt><trkpt lat="43.4550275" lon="12.3038833"><ele>353.0</ele><time>2026-04-16T11:09:12.721Z</time></trkpt><trkpt lat="43.4548547" lon="12.3036712"><ele>353.33333333333337</ele><time>2026-04-16T11:09:13.721Z</time></trkpt><trkpt lat="43.4546912" lon="12.3034548"><ele>353.6666666666667</ele><time>2026-04-16T11:09:14.721Z</time></trkpt><trkpt lat="43.454555" lon="12.3032363"><ele>354.0</ele><time>2026-04-16T11:09:15.722Z</time></trkpt><trkpt lat="43.4544399" lon="12.3029702"><ele>354.0</ele><time>2026-04-16T11:09:16.721Z</time></trkpt><trkpt lat="43.4543026" lon="12.3027124"><ele>354.0</ele><time>2026-04-16T11:09:17.72Z</time></trkpt><trkpt lat="43.4541503" lon="12.3024616"><ele>356.0</ele><time>2026-04-16T11:09:18.721Z</time></trkpt><trkpt lat="43.4539864" lon="12.3022228"><ele>358.0</ele><time>2026-04-16T11:09:19.72Z</time></trkpt><trkpt lat="43.4538052" lon="12.3020066"><ele>354.5</ele><time>2026-04-16T11:09:20.721Z</time></trkpt><trkpt lat="43.4536111" lon="12.3018141"><ele>351.0</ele><time>2026-04-16T11:09:21.722Z</time></trkpt><trkpt lat="43.453414" lon="12.3016357"><ele>351.0</ele><time>2026-04-16T11:09:22.72Z</time></trkpt><trkpt lat="43.4532322" lon="12.3014838"><ele>351.0</ele><time>2026-04-16T11:09:23.721Z</time></trkpt><trkpt lat="43.4530421" lon="12.301325"><ele>351.0</ele><time>2026-04-16T11:09:24.72Z</time></trkpt><trkpt lat="43.4528611" lon="12.3011331"><ele>351.0</ele><time>2026-04-16T11:09:25.722Z</time></trkpt><trkpt lat="43.4526832" lon="12.3009634"><ele>351.0</ele><time>2026-04-16T11:09:26.721Z</time></trkpt><trkpt lat="43.4525748" lon="12.3007776"><ele>351.0</ele><time>2026-04-16T11:09:27.722Z</time></trkpt><trkpt lat="43.4524203" lon="12.300585"><ele>359.5</ele><time>2026-04-16T11:09:28.72Z</time></trkpt><trkpt lat="43.4522691" lon="12.3003377"><ele>368.0</ele><time>2026-04-16T11:09:29.722Z</time></trkpt><trkpt lat="43.4521408" lon="12.3000773"><ele>365.33333333333337</ele><time>2026-04-16T11:09:30.721Z</time></trkpt><trkpt lat="43.4520385" lon="12.2998119"><ele>362.6666666666667</ele><time>2026-04-16T11:09:31.72Z</time></trkpt><trkpt lat="43.4518995" lon="12.2995668"><ele>360.0</ele><time>2026-04-16T11:09:32.721Z</time></trkpt><trkpt lat="43.4517383" lon="12.2993417"><ele>360.0</ele><time>2026-04-16T11:09:33.721Z</time></trkpt><trkpt lat="43.4515644" lon="12.2991155"><ele>360.0</ele><time>2026-04-16T11:09:34.721Z</time></trkpt><trkpt lat="43.4513909" lon="12.2988979"><ele>355.0</ele><time>2026-04-16T11:09:35.721Z</time></trkpt><trkpt lat="43.4511873" lon="12.2986809"><ele>350.0</ele><time>2026-04-16T11:09:36.72Z</time></trkpt><trkpt lat="43.4509991" lon="12.298469"><ele>350.0</ele><time>2026-04-16T11:09:37.721Z</time></trkpt><trkpt lat="43.450813" lon="12.2982499"><ele>350.0</ele><time>2026-04-16T11:09:38.72Z</time></trkpt><trkpt lat="43.450623" lon="12.2980042"><ele>345.0</ele><time>2026-04-16T11:09:39.722Z</time></trkpt><trkpt lat="43.4504392" lon="12.2977751"><ele>340.0</ele><time>2026-04-16T11:09:40.721Z</time></trkpt><trkpt lat="43.4502814" lon="12.2975326"><ele>340.0</ele><time>2026-04-16T11:09:41.722Z</time></trkpt><trkpt lat="43.4501379" lon="12.2973043"><ele>340.0</ele><time>2026-04-16T11:09:42.72Z</time></trkpt><trkpt lat="43.450006" lon="12.2970605"><ele>340.0</ele><time>2026-04-16T11:09:43.72Z</time></trkpt><trkpt lat="43.4498765" lon="12.29681"><ele>341.5</ele><time>2026-04-16T11:09:44.721Z</time></trkpt><trkpt lat="43.4497672" lon="12.2965338"><ele>343.0</ele><time>2026-04-16T11:09:45.72Z</time></trkpt><trkpt lat="43.44966" lon="12.29626"><ele>339.0</ele><time>2026-04-16T11:09:46.721Z</time></trkpt><trkpt lat="43.4495571" lon="12.2959655"><ele>335.0</ele><time>2026-04-16T11:09:47.722Z</time></trkpt><trkpt lat="43.4494534" lon="12.2956688"><ele>334.5</ele><time>2026-04-16T11:09:48.72Z</time></trkpt><trkpt lat="43.4493435" lon="12.2953678"><ele>334.0</ele><time>2026-04-16T11:09:49.72Z</time></trkpt><trkpt lat="43.4492372" lon="12.2950627"><ele>334.0</ele><time>2026-04-16T11:09:50.722Z</time></trkpt><trkpt lat="43.4491273" lon="12.2947605"><ele>334.0</ele><time>2026-04-16T11:09:51.722Z</time></trkpt><trkpt lat="43.4490204" lon="12.2944525"><ele>333.0</ele><time>2026-04-16T11:09:52.72Z</time></trkpt><trkpt lat="43.4489122" lon="12.2941328"><ele>332.0</ele><time>2026-04-16T11:09:53.721Z</time></trkpt><trkpt lat="43.4488132" lon="12.2938256"><ele>331.0</ele><time>2026-04-16T11:09:54.721Z</time></trkpt><trkpt lat="43.4487194" lon="12.2935259"><ele>330.0</ele><time>2026-04-16T11:09:55.72Z</time></trkpt><trkpt lat="43.4486239" lon="12.2932187"><ele>328.6666666666667</ele><time>2026-04-16T11:09:56.721Z</time></trkpt><trkpt lat="43.448532" lon="12.2929332"><ele>327.33333333333337</ele><time>2026-04-16T11:09:57.721Z</time></trkpt><trkpt lat="43.4484362" lon="12.2926641"><ele>326.0</ele><time>2026-04-16T11:09:58.721Z</time></trkpt><trkpt lat="43.4483487" lon="12.2923939"><ele>326.0</ele><time>2026-04-16T11:09:59.721Z</time></trkpt><trkpt lat="43.4482884" lon="12.2921218"><ele>326.0</ele><time>2026-04-16T11:10:00.721Z</time></trkpt><trkpt lat="43.4482537" lon="12.2918377"><ele>326.0</ele><time>2026-04-16T11:10:01.721Z</time></trkpt><trkpt lat="43.448238" lon="12.291544"><ele>326.33333333333337</ele><time>2026-04-16T11:10:02.722Z</time></trkpt><trkpt lat="43.4482119" lon="12.2912447"><ele>326.6666666666667</ele><time>2026-04-16T11:10:03.721Z</time></trkpt><trkpt lat="43.4481707" lon="12.2909495"><ele>327.0</ele><time>2026-04-16T11:10:04.721Z</time></trkpt><trkpt lat="43.4481145" lon="12.2906536"><ele>326.0</ele><time>2026-04-16T11:10:05.721Z</time></trkpt><trkpt lat="43.4480535" lon="12.2903591"><ele>325.0</ele><time>2026-04-16T11:10:06.722Z</time></trkpt><trkpt lat="43.4479929" lon="12.2900518"><ele>323.5</ele><time>2026-04-16T11:10:07.72Z</time></trkpt><trkpt lat="43.4479343" lon="12.2897436"><ele>322.0</ele><time>2026-04-16T11:10:08.722Z</time></trkpt><trkpt lat="43.4478787" lon="12.2894334"><ele>322.0</ele><time>2026-04-16T11:10:09.721Z</time></trkpt><trkpt lat="43.4478157" lon="12.2891203"><ele>322.0</ele><time>2026-04-16T11:10:10.72Z</time></trkpt><trkpt lat="43.4477488" lon="12.2888073"><ele>321.5</ele><time>2026-04-16T11:10:11.721Z</time></trkpt><trkpt lat="43.4476679" lon="12.2884947"><ele>321.0</ele><time>2026-04-16T11:10:12.721Z</time></trkpt><trkpt lat="43.4475934" lon="12.2881754"><ele>322.0</ele><time>2026-04-16T11:10:13.721Z</time></trkpt><trkpt lat="43.4475266" lon="12.2878522"><ele>323.0</ele><time>2026-04-16T11:10:14.72Z</time></trkpt><trkpt lat="43.4474647" lon="12.2875216"><ele>324.0</ele><time>2026-04-16T11:10:15.721Z</time></trkpt><trkpt lat="43.4473993" lon="12.2872119"><ele>325.0</ele><time>2026-04-16T11:10:16.72Z</time></trkpt><trkpt lat="43.4473331" lon="12.2868929"><ele>325.0</ele><time>2026-04-16T11:10:17.721Z</time></trkpt><trkpt lat="43.4472812" lon="12.2866088"><ele>325.0</ele><time>2026-04-16T11:10:18.721Z</time></trkpt><trkpt lat="43.4472182" lon="12.2863153"><ele>325.0</ele><time>2026-04-16T11:10:19.721Z</time></trkpt><trkpt lat="43.4471652" lon="12.2860513"><ele>324.66666666666663</ele><time>2026-04-16T11:10:20.721Z</time></trkpt><trkpt lat="43.4471085" lon="12.2857879"><ele>324.3333333333333</ele><time>2026-04-16T11:10:21.721Z</time></trkpt><trkpt lat="43.4470436" lon="12.2855488"><ele>324.0</ele><time>2026-04-16T11:10:22.722Z</time></trkpt><trkpt lat="43.446993" lon="12.2853098"><ele>324.0</ele><time>2026-04-16T11:10:23.721Z</time></trkpt><trkpt lat="43.4469379" lon="12.28507"><ele>324.0</ele><time>2026-04-16T11:10:24.72Z</time></trkpt><trkpt lat="43.4468955" lon="12.2848886"><ele>324.0</ele><time>2026-04-16T11:10:25.722Z</time></trkpt><trkpt lat="43.4468521" lon="12.2847032"><ele>324.5</ele><time>2026-04-16T11:10:26.721Z</time></trkpt><trkpt lat="43.4468079" lon="12.2845275"><ele>325.0</ele><time>2026-04-16T11:10:27.721Z</time></trkpt><trkpt lat="43.446749" lon="12.2843259"><ele>325.5</ele><time>2026-04-16T11:10:28.721Z</time></trkpt><trkpt lat="43.4467107" lon="12.2841727"><ele>326.0</ele><time>2026-04-16T11:10:29.72Z</time></trkpt><trkpt lat="43.4466863" lon="12.2839719"><ele>330.75</ele><time>2026-04-16T11:10:30.722Z</time></trkpt><trkpt lat="43.4466642" lon="12.2837694"><ele>335.5</ele><time>2026-04-16T11:10:31.721Z</time></trkpt><trkpt lat="43.4466368" lon="12.2835732"><ele>340.25</ele><time>2026-04-16T11:10:32.721Z</time></trkpt><trkpt lat="43.4466328" lon="12.2834091"><ele>345.0</ele><time>2026-04-16T11:10:33.721Z</time></trkpt><trkpt lat="43.446581" lon="12.283205"><ele>340.75</ele><time>2026-04-16T11:10:34.721Z</time></trkpt><trkpt lat="43.4465315" lon="12.2830494"><ele>336.5</ele><time>2026-04-16T11:10:35.72Z</time></trkpt><trkpt lat="43.4464678" lon="12.2829003"><ele>332.25</ele><time>2026-04-16T11:10:36.722Z</time></trkpt><trkpt lat="43.4463571" lon="12.2827996"><ele>328.0</ele><time>2026-04-16T11:10:37.721Z</time></trkpt><trkpt lat="43.4462465" lon="12.2827065"><ele>328.0</ele><time>2026-04-16T11:10:38.721Z</time></trkpt><trkpt lat="43.4461401" lon="12.2826272"><ele>328.0</ele><time>2026-04-16T11:10:39.721Z</time></trkpt><trkpt lat="43.4460426" lon="12.2825401"><ele>328.0</ele><time>2026-04-16T11:10:40.721Z</time></trkpt><trkpt lat="43.4459676" lon="12.2824564"><ele>328.0</ele><time>2026-04-16T11:10:41.721Z</time></trkpt><trkpt lat="43.4458861" lon="12.2823434"><ele>328.0</ele><time>2026-04-16T11:10:42.72Z</time></trkpt><trkpt lat="43.4458053" lon="12.2822276"><ele>333.3333333333333</ele><time>2026-04-16T11:10:43.721Z</time></trkpt><trkpt lat="43.4457145" lon="12.2819405"><ele>338.6666666666667</ele><time>2026-04-16T11:10:44.722Z</time></trkpt><trkpt lat="43.445607" lon="12.2817016"><ele>344.0</ele><time>2026-04-16T11:10:45.721Z</time></trkpt><trkpt lat="43.4455376" lon="12.2814394"><ele>335.33333333333337</ele><time>2026-04-16T11:10:46.72Z</time></trkpt><trkpt lat="43.4454559" lon="12.281188"><ele>326.6666666666667</ele><time>2026-04-16T11:10:47.721Z</time></trkpt><trkpt lat="43.4453745" lon="12.2809411"><ele>318.0</ele><time>2026-04-16T11:10:48.722Z</time></trkpt><trkpt lat="43.4453051" lon="12.2806895"><ele>317.0</ele><time>2026-04-16T11:10:49.72Z</time></trkpt><trkpt lat="43.4452475" lon="12.2804569"><ele>316.0</ele><time>2026-04-16T11:10:50.722Z</time></trkpt><trkpt lat="43.4452023" lon="12.280243"><ele>315.0</ele><time>2026-04-16T11:10:51.721Z</time></trkpt><trkpt lat="43.4451537" lon="12.2800183"><ele>315.0</ele><time>2026-04-16T11:10:52.719Z</time></trkpt><trkpt lat="43.4452042" lon="12.2797888"><ele>315.0</ele><time>2026-04-16T11:10:53.722Z</time></trkpt><trkpt lat="43.4452186" lon="12.2795489"><ele>315.0</ele><time>2026-04-16T11:10:54.72Z</time></trkpt><trkpt lat="43.4452403" lon="12.2793363"><ele>314.75</ele><time>2026-04-16T11:10:55.721Z</time></trkpt><trkpt lat="43.4452597" lon="12.2791567"><ele>314.5</ele><time>2026-04-16T11:10:56.72Z</time></trkpt><trkpt lat="43.4452467" lon="12.2789939"><ele>314.25</ele><time>2026-04-16T11:10:57.721Z</time></trkpt><trkpt lat="43.4452036" lon="12.278857"><ele>314.0</ele><time>2026-04-16T11:10:58.72Z</time></trkpt><trkpt lat="43.4451368" lon="12.2787596"><ele>317.0</ele><time>2026-04-16T11:10:59.721Z</time></trkpt><trkpt lat="43.4450673" lon="12.2786645"><ele>320.0</ele><time>2026-04-16T11:11:00.72Z</time></trkpt><trkpt lat="43.4448773" lon="12.2785813"><ele>323.0</ele><time>2026-04-16T11:11:01.721Z</time></trkpt><trkpt lat="43.4447721" lon="12.2785013"><ele>326.0</ele><time>2026-04-16T11:11:02.722Z</time></trkpt><trkpt lat="43.444673" lon="12.2783819"><ele>325.0</ele><time>2026-04-16T11:11:03.721Z</time></trkpt><trkpt lat="43.4445572" lon="12.2781832"><ele>324.0</ele><time>2026-04-16T11:11:04.722Z</time></trkpt><trkpt lat="43.4444567" lon="12.2780373"><ele>323.0</ele><time>2026-04-16T11:11:05.72Z</time></trkpt><trkpt lat="43.444362" lon="12.2778942"><ele>323.0</ele><time>2026-04-16T11:11:06.721Z</time></trkpt><trkpt lat="43.4442746" lon="12.2777507"><ele>323.0</ele><time>2026-04-16T11:11:07.721Z</time></trkpt><trkpt lat="43.4442021" lon="12.2777651"><ele>323.0</ele><time>2026-04-16T11:11:08.723Z</time></trkpt><trkpt lat="43.4441099" lon="12.2777686"><ele>323.0</ele><time>2026-04-16T11:11:09.722Z</time></trkpt><trkpt lat="43.444019" lon="12.2778315"><ele>323.0</ele><time>2026-04-16T11:11:10.721Z</time></trkpt><trkpt lat="43.4439223" lon="12.2779265"><ele>323.0</ele><time>2026-04-16T11:11:11.721Z</time></trkpt><trkpt lat="43.443809" lon="12.2779986"><ele>323.0</ele><time>2026-04-16T11:11:12.721Z</time></trkpt><trkpt lat="43.443682" lon="12.2780376"><ele>323.0</ele><time>2026-04-16T11:11:13.721Z</time></trkpt><trkpt lat="43.4435187" lon="12.277979"><ele>323.0</ele><time>2026-04-16T11:11:14.72Z</time></trkpt><trkpt lat="43.4433627" lon="12.2779451"><ele>321.0</ele><time>2026-04-16T11:11:15.72Z</time></trkpt><trkpt lat="43.4432446" lon="12.2778413"><ele>319.0</ele><time>2026-04-16T11:11:16.722Z</time></trkpt><trkpt lat="43.4431401" lon="12.2777063"><ele>317.0</ele><time>2026-04-16T11:11:17.721Z</time></trkpt><trkpt lat="43.4430357" lon="12.2775536"><ele>315.0</ele><time>2026-04-16T11:11:18.72Z</time></trkpt><trkpt lat="43.442943" lon="12.2773694"><ele>313.3333333333333</ele><time>2026-04-16T11:11:19.721Z</time></trkpt><trkpt lat="43.4428566" lon="12.2771545"><ele>311.66666666666663</ele><time>2026-04-16T11:11:20.721Z</time></trkpt><trkpt lat="43.442732" lon="12.2768894"><ele>310.0</ele><time>2026-04-16T11:11:21.72Z</time></trkpt><trkpt lat="43.4425992" lon="12.2766514"><ele>313.0</ele><time>2026-04-16T11:11:22.72Z</time></trkpt><trkpt lat="43.442467" lon="12.2764101"><ele>316.0</ele><time>2026-04-16T11:11:23.721Z</time></trkpt><trkpt lat="43.4423444" lon="12.2761603"><ele>319.0</ele><time>2026-04-16T11:11:24.721Z</time></trkpt><trkpt lat="43.4422284" lon="12.2759149"><ele>319.0</ele><time>2026-04-16T11:11:25.72Z</time></trkpt><trkpt lat="43.4421559" lon="12.2756824"><ele>319.0</ele><time>2026-04-16T11:11:26.722Z</time></trkpt><trkpt lat="43.4420631" lon="12.2754832"><ele>319.0</ele><time>2026-04-16T11:11:27.719Z</time></trkpt><trkpt lat="43.4419654" lon="12.2752918"><ele>317.3333333333333</ele><time>2026-04-16T11:11:28.722Z</time></trkpt><trkpt lat="43.4418239" lon="12.2751862"><ele>315.6666666666667</ele><time>2026-04-16T11:11:29.721Z</time></trkpt><trkpt lat="43.4416923" lon="12.275061"><ele>314.0</ele><time>2026-04-16T11:11:30.721Z</time></trkpt><trkpt lat="43.4415307" lon="12.2749439"><ele>314.0</ele><time>2026-04-16T11:11:31.722Z</time></trkpt><trkpt lat="43.4413805" lon="12.2748308"><ele>314.0</ele><time>2026-04-16T11:11:32.72Z</time></trkpt><trkpt lat="43.4412311" lon="12.2746189"><ele>314.0</ele><time>2026-04-16T11:11:33.723Z</time></trkpt><trkpt lat="43.4410962" lon="12.2744096"><ele>313.33333333333337</ele><time>2026-04-16T11:11:34.721Z</time></trkpt><trkpt lat="43.4409668" lon="12.2741652"><ele>312.6666666666667</ele><time>2026-04-16T11:11:35.721Z</time></trkpt><trkpt lat="43.4408415" lon="12.2739296"><ele>312.0</ele><time>2026-04-16T11:11:36.72Z</time></trkpt><trkpt lat="43.440787" lon="12.2735993"><ele>312.0</ele><time>2026-04-16T11:11:37.721Z</time></trkpt><trkpt lat="43.4407048" lon="12.2733059"><ele>312.0</ele><time>2026-04-16T11:11:38.721Z</time></trkpt><trkpt lat="43.4406244" lon="12.2730057"><ele>313.5</ele><time>2026-04-16T11:11:39.722Z</time></trkpt><trkpt lat="43.4405293" lon="12.2727083"><ele>315.0</ele><time>2026-04-16T11:11:40.72Z</time></trkpt><trkpt lat="43.4404245" lon="12.2724023"><ele>313.5</ele><time>2026-04-16T11:11:41.722Z</time></trkpt><trkpt lat="43.4403153" lon="12.2721173"><ele>312.0</ele><time>2026-04-16T11:11:42.721Z</time></trkpt><trkpt lat="43.4402193" lon="12.2718341"><ele>312.0</ele><time>2026-04-16T11:11:43.722Z</time></trkpt><trkpt lat="43.4401172" lon="12.2715635"><ele>312.0</ele><time>2026-04-16T11:11:44.722Z</time></trkpt><trkpt lat="43.4399985" lon="12.2713035"><ele>312.0</ele><time>2026-04-16T11:11:45.721Z</time></trkpt><trkpt lat="43.4398638" lon="12.2710481"><ele>311.0</ele><time>2026-04-16T11:11:46.721Z</time></trkpt><trkpt lat="43.4397201" lon="12.2707938"><ele>310.0</ele><time>2026-04-16T11:11:47.721Z</time></trkpt><trkpt lat="43.4395669" lon="12.2705289"><ele>310.0</ele><time>2026-04-16T11:11:48.721Z</time></trkpt><trkpt lat="43.4394462" lon="12.2702629"><ele>310.0</ele><time>2026-04-16T11:11:49.721Z</time></trkpt><trkpt lat="43.4393172" lon="12.2700258"><ele>310.0</ele><time>2026-04-16T11:11:50.721Z</time></trkpt><trkpt lat="43.4392004" lon="12.2697897"><ele>312.3333333333333</ele><time>2026-04-16T11:11:51.721Z</time></trkpt><trkpt lat="43.4390745" lon="12.2695518"><ele>314.6666666666667</ele><time>2026-04-16T11:11:52.722Z</time></trkpt><trkpt lat="43.4389834" lon="12.2693154"><ele>317.0</ele><time>2026-04-16T11:11:53.721Z</time></trkpt><trkpt lat="43.4388856" lon="12.2690687"><ele>321.0</ele><time>2026-04-16T11:11:54.722Z</time></trkpt><trkpt lat="43.4388059" lon="12.2688002"><ele>325.0</ele><time>2026-04-16T11:11:55.722Z</time></trkpt><trkpt lat="43.438746" lon="12.268529"><ele>329.0</ele><time>2026-04-16T11:11:56.721Z</time></trkpt><trkpt lat="43.4386956" lon="12.2682613"><ele>325.33333333333337</ele><time>2026-04-16T11:11:57.722Z</time></trkpt><trkpt lat="43.4386517" lon="12.2679991"><ele>321.6666666666667</ele><time>2026-04-16T11:11:58.721Z</time></trkpt><trkpt lat="43.4385794" lon="12.2677759"><ele>318.0</ele><time>2026-04-16T11:11:59.721Z</time></trkpt><trkpt lat="43.4385025" lon="12.2675344"><ele>318.0</ele><time>2026-04-16T11:12:00.721Z</time></trkpt><trkpt lat="43.4383749" lon="12.2673343"><ele>318.0</ele><time>2026-04-16T11:12:01.72Z</time></trkpt><trkpt lat="43.4382499" lon="12.2671445"><ele>318.0</ele><time>2026-04-16T11:12:02.72Z</time></trkpt><trkpt lat="43.4380979" lon="12.2669588"><ele>318.6666666666667</ele><time>2026-04-16T11:12:03.721Z</time></trkpt><trkpt lat="43.4379522" lon="12.2667534"><ele>319.33333333333337</ele><time>2026-04-16T11:12:04.72Z</time></trkpt><trkpt lat="43.4378088" lon="12.2665186"><ele>320.0</ele><time>2026-04-16T11:12:05.721Z</time></trkpt><trkpt lat="43.4376614" lon="12.2662919"><ele>320.0</ele><time>2026-04-16T11:12:06.721Z</time></trkpt><trkpt lat="43.4375134" lon="12.2660766"><ele>320.0</ele><time>2026-04-16T11:12:07.721Z</time></trkpt><trkpt lat="43.4373774" lon="12.2658657"><ele>320.0</ele><time>2026-04-16T11:12:08.721Z</time></trkpt><trkpt lat="43.4372461" lon="12.2656619"><ele>315.33333333333337</ele><time>2026-04-16T11:12:09.721Z</time></trkpt><trkpt lat="43.4371075" lon="12.2654731"><ele>310.6666666666667</ele><time>2026-04-16T11:12:10.721Z</time></trkpt><trkpt lat="43.4370066" lon="12.265283"><ele>306.0</ele><time>2026-04-16T11:12:11.722Z</time></trkpt><trkpt lat="43.4369054" lon="12.2651159"><ele>306.0</ele><time>2026-04-16T11:12:12.721Z</time></trkpt><trkpt lat="43.4367902" lon="12.2649717"><ele>306.0</ele><time>2026-04-16T11:12:13.721Z</time></trkpt><trkpt lat="43.4366778" lon="12.2648711"><ele>306.0</ele><time>2026-04-16T11:12:14.721Z</time></trkpt><trkpt lat="43.436558" lon="12.2647643"><ele>306.0</ele><time>2026-04-16T11:12:15.722Z</time></trkpt><trkpt lat="43.4365079" lon="12.2646908"><ele>304.75</ele><time>2026-04-16T11:12:16.722Z</time></trkpt><trkpt lat="43.4364078" lon="12.2645917"><ele>303.5</ele><time>2026-04-16T11:12:17.721Z</time></trkpt><trkpt lat="43.4363131" lon="12.2644898"><ele>302.25</ele><time>2026-04-16T11:12:18.72Z</time></trkpt><trkpt lat="43.4362195" lon="12.2643894"><ele>301.0</ele><time>2026-04-16T11:12:19.721Z</time></trkpt><trkpt lat="43.4361499" lon="12.2641869"><ele>301.0</ele><time>2026-04-16T11:12:20.722Z</time></trkpt><trkpt lat="43.4360602" lon="12.2640108"><ele>301.0</ele><time>2026-04-16T11:12:21.721Z</time></trkpt><trkpt lat="43.4359576" lon="12.2638575"><ele>301.0</ele><time>2026-04-16T11:12:22.721Z</time></trkpt><trkpt lat="43.43586" lon="12.2636939"><ele>302.3333333333333</ele><time>2026-04-16T11:12:23.72Z</time></trkpt><trkpt lat="43.4358114" lon="12.2635059"><ele>303.6666666666667</ele><time>2026-04-16T11:12:24.72Z</time></trkpt><trkpt lat="43.4357447" lon="12.263325"><ele>305.0</ele><time>2026-04-16T11:12:25.721Z</time></trkpt><trkpt lat="43.4356906" lon="12.2631058"><ele>305.33333333333337</ele><time>2026-04-16T11:12:26.72Z</time></trkpt><trkpt lat="43.4356276" lon="12.2628696"><ele>305.6666666666667</ele><time>2026-04-16T11:12:27.719Z</time></trkpt><trkpt lat="43.4355643" lon="12.2626488"><ele>306.0</ele><time>2026-04-16T11:12:28.721Z</time></trkpt><trkpt lat="43.4354959" lon="12.2623905"><ele>301.6666666666667</ele><time>2026-04-16T11:12:29.721Z</time></trkpt><trkpt lat="43.4354476" lon="12.262159"><ele>297.33333333333337</ele><time>2026-04-16T11:12:30.721Z</time></trkpt><trkpt lat="43.4354116" lon="12.2619205"><ele>293.0</ele><time>2026-04-16T11:12:31.721Z</time></trkpt><trkpt lat="43.4353738" lon="12.2616631"><ele>291.33333333333337</ele><time>2026-04-16T11:12:32.721Z</time></trkpt><trkpt lat="43.4353479" lon="12.2614079"><ele>289.6666666666667</ele><time>2026-04-16T11:12:33.721Z</time></trkpt><trkpt lat="43.4353338" lon="12.261153"><ele>288.0</ele><time>2026-04-16T11:12:34.72Z</time></trkpt><trkpt lat="43.4353168" lon="12.2608956"><ele>288.0</ele><time>2026-04-16T11:12:35.722Z</time></trkpt><trkpt lat="43.4353339" lon="12.2606402"><ele>288.0</ele><time>2026-04-16T11:12:36.722Z</time></trkpt><trkpt lat="43.4353463" lon="12.2603862"><ele>288.0</ele><time>2026-04-16T11:12:37.72Z</time></trkpt><trkpt lat="43.4353601" lon="12.2601303"><ele>287.3333333333333</ele><time>2026-04-16T11:12:38.72Z</time></trkpt><trkpt lat="43.4353489" lon="12.2598761"><ele>286.66666666666663</ele><time>2026-04-16T11:12:39.723Z</time></trkpt><trkpt lat="43.4353494" lon="12.2596042"><ele>286.0</ele><time>2026-04-16T11:12:40.721Z</time></trkpt><trkpt lat="43.435366" lon="12.2593421"><ele>285.66666666666663</ele><time>2026-04-16T11:12:41.721Z</time></trkpt><trkpt lat="43.4353882" lon="12.2590674"><ele>285.3333333333333</ele><time>2026-04-16T11:12:42.721Z</time></trkpt><trkpt lat="43.4354255" lon="12.2587838"><ele>285.0</ele><time>2026-04-16T11:12:43.722Z</time></trkpt><trkpt lat="43.4354675" lon="12.2585106"><ele>289.3333333333333</ele><time>2026-04-16T11:12:44.722Z</time></trkpt><trkpt lat="43.4355032" lon="12.2582399"><ele>293.66666666666663</ele><time>2026-04-16T11:12:45.721Z</time></trkpt><trkpt lat="43.4355283" lon="12.2579583"><ele>298.0</ele><time>2026-04-16T11:12:46.722Z</time></trkpt><trkpt lat="43.4355279" lon="12.2577019"><ele>298.0</ele><time>2026-04-16T11:12:47.721Z</time></trkpt><trkpt lat="43.4355262" lon="12.2574232"><ele>298.0</ele><time>2026-04-16T11:12:48.72Z</time></trkpt><trkpt lat="43.4355496" lon="12.2571704"><ele>298.0</ele><time>2026-04-16T11:12:49.723Z</time></trkpt><trkpt lat="43.4356078" lon="12.2569346"><ele>297.3333333333333</ele><time>2026-04-16T11:12:50.719Z</time></trkpt><trkpt lat="43.43568" lon="12.2567055"><ele>296.6666666666667</ele><time>2026-04-16T11:12:51.72Z</time></trkpt><trkpt lat="43.4357787" lon="12.2564635"><ele>296.0</ele><time>2026-04-16T11:12:52.721Z</time></trkpt><trkpt lat="43.4359114" lon="12.2562432"><ele>296.0</ele><time>2026-04-16T11:12:53.721Z</time></trkpt><trkpt lat="43.4360661" lon="12.2560143"><ele>296.0</ele><time>2026-04-16T11:12:54.721Z</time></trkpt><trkpt lat="43.4362354" lon="12.2557998"><ele>296.5</ele><time>2026-04-16T11:12:55.721Z</time></trkpt><trkpt lat="43.4364172" lon="12.2555771"><ele>297.0</ele><time>2026-04-16T11:12:56.72Z</time></trkpt><trkpt lat="43.4365926" lon="12.2553563"><ele>297.0</ele><time>2026-04-16T11:12:57.721Z</time></trkpt><trkpt lat="43.4367551" lon="12.2551553"><ele>297.0</ele><time>2026-04-16T11:12:58.721Z</time></trkpt><trkpt lat="43.4369231" lon="12.2549455"><ele>297.0</ele><time>2026-04-16T11:12:59.72Z</time></trkpt><trkpt lat="43.4371074" lon="12.2547555"><ele>297.0</ele><time>2026-04-16T11:13:00.722Z</time></trkpt><trkpt lat="43.4373126" lon="12.2545872"><ele>297.0</ele><time>2026-04-16T11:13:01.721Z</time></trkpt><trkpt lat="43.4375123" lon="12.2544057"><ele>297.0</ele><time>2026-04-16T11:13:02.721Z</time></trkpt><trkpt lat="43.4376937" lon="12.2542645"><ele>297.0</ele><time>2026-04-16T11:13:03.721Z</time></trkpt><trkpt lat="43.4378921" lon="12.2541088"><ele>297.0</ele><time>2026-04-16T11:13:04.721Z</time></trkpt><trkpt lat="43.4380785" lon="12.2539646"><ele>297.3333333333333</ele><time>2026-04-16T11:13:05.721Z</time></trkpt><trkpt lat="43.4382763" lon="12.2538469"><ele>297.66666666666663</ele><time>2026-04-16T11:13:06.721Z</time></trkpt><trkpt lat="43.4384794" lon="12.2537516"><ele>298.0</ele><time>2026-04-16T11:13:07.722Z</time></trkpt><trkpt lat="43.4386838" lon="12.253644"><ele>298.66666666666663</ele><time>2026-04-16T11:13:08.722Z</time></trkpt><trkpt lat="43.43889" lon="12.2535416"><ele>299.3333333333333</ele><time>2026-04-16T11:13:09.721Z</time></trkpt><trkpt lat="43.4391108" lon="12.2534665"><ele>300.0</ele><time>2026-04-16T11:13:10.722Z</time></trkpt><trkpt lat="43.4393245" lon="12.2533738"><ele>300.0</ele><time>2026-04-16T11:13:11.722Z</time></trkpt><trkpt lat="43.4395353" lon="12.2532962"><ele>300.0</ele><time>2026-04-16T11:13:12.722Z</time></trkpt><trkpt lat="43.4397391" lon="12.2532006"><ele>300.0</ele><time>2026-04-16T11:13:13.722Z</time></trkpt><trkpt lat="43.4399295" lon="12.253118"><ele>298.0</ele><time>2026-04-16T11:13:14.722Z</time></trkpt><trkpt lat="43.4401169" lon="12.2530239"><ele>296.0</ele><time>2026-04-16T11:13:15.721Z</time></trkpt><trkpt lat="43.4402916" lon="12.2529609"><ele>294.0</ele><time>2026-04-16T11:13:16.722Z</time></trkpt><trkpt lat="43.4404536" lon="12.2529042"><ele>293.5</ele><time>2026-04-16T11:13:17.722Z</time></trkpt><trkpt lat="43.4405911" lon="12.2528448"><ele>293.0</ele><time>2026-04-16T11:13:18.72Z</time></trkpt><trkpt lat="43.4407304" lon="12.252756"><ele>292.5</ele><time>2026-04-16T11:13:19.721Z</time></trkpt><trkpt lat="43.4408567" lon="12.2526468"><ele>292.0</ele><time>2026-04-16T11:13:20.721Z</time></trkpt><trkpt lat="43.4409771" lon="12.2525361"><ele>292.0</ele><time>2026-04-16T11:13:21.721Z</time></trkpt><trkpt lat="43.4410896" lon="12.2524139"><ele>292.0</ele><time>2026-04-16T11:13:22.72Z</time></trkpt><trkpt lat="43.4411952" lon="12.252289"><ele>292.0</ele><time>2026-04-16T11:13:23.721Z</time></trkpt><trkpt lat="43.4412802" lon="12.2521561"><ele>292.0</ele><time>2026-04-16T11:13:24.72Z</time></trkpt><trkpt lat="43.4413415" lon="12.2520022"><ele>291.5</ele><time>2026-04-16T11:13:25.722Z</time></trkpt><trkpt lat="43.4413816" lon="12.2518385"><ele>291.0</ele><time>2026-04-16T11:13:26.721Z</time></trkpt><trkpt lat="43.4414288" lon="12.2516602"><ele>290.5</ele><time>2026-04-16T11:13:27.72Z</time></trkpt><trkpt lat="43.4414673" lon="12.2514977"><ele>290.0</ele><time>2026-04-16T11:13:28.722Z</time></trkpt><trkpt lat="43.4415509" lon="12.2513371"><ele>289.33333333333337</ele><time>2026-04-16T11:13:29.722Z</time></trkpt><trkpt lat="43.4416549" lon="12.251188"><ele>288.6666666666667</ele><time>2026-04-16T11:13:30.722Z</time></trkpt><trkpt lat="43.4417765" lon="12.2510576"><ele>288.0</ele><time>2026-04-16T11:13:31.721Z</time></trkpt><trkpt lat="43.4419549" lon="12.2509515"><ele>287.0</ele><time>2026-04-16T11:13:32.721Z</time></trkpt><trkpt lat="43.4421485" lon="12.2508444"><ele>286.0</ele><time>2026-04-16T11:13:33.722Z</time></trkpt><trkpt lat="43.4423684" lon="12.2507488"><ele>285.0</ele><time>2026-04-16T11:13:34.721Z</time></trkpt><trkpt lat="43.442605" lon="12.25065"><ele>283.5</ele><time>2026-04-16T11:13:35.722Z</time></trkpt><trkpt lat="43.4428564" lon="12.2505566"><ele>282.0</ele><time>2026-04-16T11:13:36.721Z</time></trkpt><trkpt lat="43.4431137" lon="12.2504674"><ele>282.0</ele><time>2026-04-16T11:13:37.72Z</time></trkpt><trkpt lat="43.4434005" lon="12.2503897"><ele>282.0</ele><time>2026-04-16T11:13:38.723Z</time></trkpt><trkpt lat="43.4436823" lon="12.2503118"><ele>283.5</ele><time>2026-04-16T11:13:39.721Z</time></trkpt><trkpt lat="43.4439569" lon="12.2502408"><ele>285.0</ele><time>2026-04-16T11:13:40.722Z</time></trkpt><trkpt lat="43.4441809" lon="12.2501954"><ele>285.0</ele><time>2026-04-16T11:13:41.722Z</time></trkpt><trkpt lat="43.4444211" lon="12.2501296"><ele>285.0</ele><time>2026-04-16T11:13:42.722Z</time></trkpt><trkpt lat="43.44464" lon="12.2500711"><ele>286.0</ele><time>2026-04-16T11:13:43.722Z</time></trkpt><trkpt lat="43.444866" lon="12.2500152"><ele>287.0</ele><time>2026-04-16T11:13:44.722Z</time></trkpt><trkpt lat="43.4450636" lon="12.2499846"><ele>288.0</ele><time>2026-04-16T11:13:45.722Z</time></trkpt><trkpt lat="43.4452675" lon="12.2499702"><ele>286.3333333333333</ele><time>2026-04-16T11:13:46.722Z</time></trkpt><trkpt lat="43.4454704" lon="12.2499597"><ele>284.66666666666663</ele><time>2026-04-16T11:13:47.721Z</time></trkpt><trkpt lat="43.445649" lon="12.2500092"><ele>283.0</ele><time>2026-04-16T11:13:48.723Z</time></trkpt><trkpt lat="43.4458204" lon="12.2500604"><ele>283.0</ele><time>2026-04-16T11:13:49.721Z</time></trkpt><trkpt lat="43.4460056" lon="12.2500774"><ele>283.0</ele><time>2026-04-16T11:13:50.722Z</time></trkpt><trkpt lat="43.4461979" lon="12.2500786"><ele>283.0</ele><time>2026-04-16T11:13:51.721Z</time></trkpt><trkpt lat="43.4464087" lon="12.2500019"><ele>283.0</ele><time>2026-04-16T11:13:52.721Z</time></trkpt><trkpt lat="43.4466128" lon="12.2499506"><ele>283.0</ele><time>2026-04-16T11:13:53.721Z</time></trkpt><trkpt lat="43.4468142" lon="12.2498902"><ele>283.0</ele><time>2026-04-16T11:13:54.721Z</time></trkpt><trkpt lat="43.4470272" lon="12.2498318"><ele>283.0</ele><time>2026-04-16T11:13:55.721Z</time></trkpt><trkpt lat="43.4472479" lon="12.2497787"><ele>283.0</ele><time>2026-04-16T11:13:56.722Z</time></trkpt><trkpt lat="43.4474716" lon="12.2497255"><ele>283.0</ele><time>2026-04-16T11:13:57.722Z</time></trkpt><trkpt lat="43.4476995" lon="12.2496702"><ele>283.0</ele><time>2026-04-16T11:13:58.722Z</time></trkpt><trkpt lat="43.4479339" lon="12.2496"><ele>283.5</ele><time>2026-04-16T11:13:59.722Z</time></trkpt><trkpt lat="43.448165" lon="12.2495397"><ele>284.0</ele><time>2026-04-16T11:14:00.721Z</time></trkpt><trkpt lat="43.4483848" lon="12.2494935"><ele>284.0</ele><time>2026-04-16T11:14:01.721Z</time></trkpt><trkpt lat="43.4486034" lon="12.2494471"><ele>284.0</ele><time>2026-04-16T11:14:02.721Z</time></trkpt><trkpt lat="43.4487885" lon="12.2495305"><ele>284.0</ele><time>2026-04-16T11:14:03.722Z</time></trkpt><trkpt lat="43.4489684" lon="12.2496062"><ele>284.33333333333337</ele><time>2026-04-16T11:14:04.721Z</time></trkpt><trkpt lat="43.4491662" lon="12.2496802"><ele>284.6666666666667</ele><time>2026-04-16T11:14:05.72Z</time></trkpt><trkpt lat="43.4493566" lon="12.2497515"><ele>285.0</ele><time>2026-04-16T11:14:06.721Z</time></trkpt><trkpt lat="43.4495304" lon="12.24982"><ele>284.6666666666667</ele><time>2026-04-16T11:14:07.721Z</time></trkpt><trkpt lat="43.4497089" lon="12.2498678"><ele>284.33333333333337</ele><time>2026-04-16T11:14:08.721Z</time></trkpt><trkpt lat="43.449891" lon="12.2498708"><ele>284.0</ele><time>2026-04-16T11:14:09.721Z</time></trkpt><trkpt lat="43.450067" lon="12.2498438"><ele>284.0</ele><time>2026-04-16T11:14:10.721Z</time></trkpt><trkpt lat="43.4502266" lon="12.2498002"><ele>284.0</ele><time>2026-04-16T11:14:11.722Z</time></trkpt><trkpt lat="43.4503923" lon="12.249756"><ele>284.0</ele><time>2026-04-16T11:14:12.721Z</time></trkpt><trkpt lat="43.4505424" lon="12.2497182"><ele>284.0</ele><time>2026-04-16T11:14:13.722Z</time></trkpt><trkpt lat="43.4506874" lon="12.2496799"><ele>284.0</ele><time>2026-04-16T11:14:14.721Z</time></trkpt><trkpt lat="43.4508179" lon="12.2496461"><ele>284.0</ele><time>2026-04-16T11:14:15.721Z</time></trkpt><trkpt lat="43.4509472" lon="12.2496164"><ele>284.0</ele><time>2026-04-16T11:14:16.722Z</time></trkpt><trkpt lat="43.4510639" lon="12.2495826"><ele>284.0</ele><time>2026-04-16T11:14:17.721Z</time></trkpt><trkpt lat="43.4511844" lon="12.2495503"><ele>284.0</ele><time>2026-04-16T11:14:18.72Z</time></trkpt><trkpt lat="43.451307" lon="12.2495208"><ele>284.0</ele><time>2026-04-16T11:14:19.722Z</time></trkpt><trkpt lat="43.4514259" lon="12.249489"><ele>284.0</ele><time>2026-04-16T11:14:20.721Z</time></trkpt><trkpt lat="43.4515488" lon="12.2494642"><ele>283.5</ele><time>2026-04-16T11:14:21.72Z</time></trkpt><trkpt lat="43.4516685" lon="12.2494352"><ele>283.0</ele><time>2026-04-16T11:14:22.721Z</time></trkpt><trkpt lat="43.4517888" lon="12.2494006"><ele>282.5</ele><time>2026-04-16T11:14:23.72Z</time></trkpt><trkpt lat="43.4519078" lon="12.249367"><ele>282.0</ele><time>2026-04-16T11:14:24.721Z</time></trkpt><trkpt lat="43.4520326" lon="12.249338"><ele>282.5</ele><time>2026-04-16T11:14:25.721Z</time></trkpt><trkpt lat="43.4521505" lon="12.2493031"><ele>283.0</ele><time>2026-04-16T11:14:26.721Z</time></trkpt><trkpt lat="43.4523012" lon="12.2492518"><ele>283.5</ele><time>2026-04-16T11:14:27.721Z</time></trkpt><trkpt lat="43.4524574" lon="12.2492234"><ele>284.0</ele><time>2026-04-16T11:14:28.722Z</time></trkpt><trkpt lat="43.4526641" lon="12.249188"><ele>284.0</ele><time>2026-04-16T11:14:29.721Z</time></trkpt><trkpt lat="43.4528503" lon="12.2491517"><ele>284.0</ele><time>2026-04-16T11:14:30.722Z</time></trkpt><trkpt lat="43.4530268" lon="12.2491163"><ele>284.0</ele><time>2026-04-16T11:14:31.722Z</time></trkpt><trkpt lat="43.4531891" lon="12.2490728"><ele>284.0</ele><time>2026-04-16T11:14:32.722Z</time></trkpt><trkpt lat="43.4533404" lon="12.249026"><ele>284.0</ele><time>2026-04-16T11:14:33.721Z</time></trkpt><trkpt lat="43.4534861" lon="12.2489748"><ele>284.0</ele><time>2026-04-16T11:14:34.72Z</time></trkpt><trkpt lat="43.4536329" lon="12.248929"><ele>284.33333333333337</ele><time>2026-04-16T11:14:35.722Z</time></trkpt><trkpt lat="43.45379" lon="12.248864"><ele>284.6666666666667</ele><time>2026-04-16T11:14:36.721Z</time></trkpt><trkpt lat="43.4539514" lon="12.248789"><ele>285.0</ele><time>2026-04-16T11:14:37.722Z</time></trkpt><trkpt lat="43.4541244" lon="12.2487143"><ele>285.0</ele><time>2026-04-16T11:14:38.721Z</time></trkpt><trkpt lat="43.4542969" lon="12.2486364"><ele>285.0</ele><time>2026-04-16T11:14:39.721Z</time></trkpt><trkpt lat="43.4544613" lon="12.2485563"><ele>285.0</ele><time>2026-04-16T11:14:40.722Z</time></trkpt><trkpt lat="43.4546249" lon="12.2484922"><ele>285.3333333333333</ele><time>2026-04-16T11:14:41.722Z</time></trkpt><trkpt lat="43.4547741" lon="12.2484314"><ele>285.66666666666663</ele><time>2026-04-16T11:14:42.721Z</time></trkpt><trkpt lat="43.4549144" lon="12.2483636"><ele>286.0</ele><time>2026-04-16T11:14:43.721Z</time></trkpt><trkpt lat="43.4550545" lon="12.2483078"><ele>286.0</ele><time>2026-04-16T11:14:44.722Z</time></trkpt><trkpt lat="43.4551484" lon="12.2482883"><ele>286.0</ele><time>2026-04-16T11:14:45.722Z</time></trkpt><trkpt lat="43.4552603" lon="12.2482779"><ele>286.0</ele><time>2026-04-16T11:14:46.722Z</time></trkpt><trkpt lat="43.4553127" lon="12.2483566"><ele>286.0</ele><time>2026-04-16T11:14:47.72Z</time></trkpt><trkpt lat="43.4553738" lon="12.248443"><ele>286.0</ele><time>2026-04-16T11:14:48.722Z</time></trkpt><trkpt lat="43.4554063" lon="12.2486078"><ele>286.0</ele><time>2026-04-16T11:14:49.72Z</time></trkpt><trkpt lat="43.4554355" lon="12.2487712"><ele>286.0</ele><time>2026-04-16T11:14:50.722Z</time></trkpt><trkpt lat="43.4554692" lon="12.2489534"><ele>286.0</ele><time>2026-04-16T11:14:51.722Z</time></trkpt><trkpt lat="43.4555157" lon="12.2491347"><ele>286.0</ele><time>2026-04-16T11:14:52.721Z</time></trkpt><trkpt lat="43.4555621" lon="12.2493225"><ele>286.5</ele><time>2026-04-16T11:14:53.722Z</time></trkpt><trkpt lat="43.4556144" lon="12.2495008"><ele>287.0</ele><time>2026-04-16T11:14:54.721Z</time></trkpt><trkpt lat="43.4556533" lon="12.2496857"><ele>287.5</ele><time>2026-04-16T11:14:55.722Z</time></trkpt><trkpt lat="43.4556851" lon="12.2498732"><ele>288.0</ele><time>2026-04-16T11:14:56.722Z</time></trkpt><trkpt lat="43.455723" lon="12.2500346"><ele>288.6</ele><time>2026-04-16T11:14:57.721Z</time></trkpt><trkpt lat="43.4557497" lon="12.2501837"><ele>289.20000000000005</ele><time>2026-04-16T11:14:58.721Z</time></trkpt><trkpt lat="43.4557513" lon="12.2503146"><ele>289.8</ele><time>2026-04-16T11:14:59.721Z</time></trkpt><trkpt lat="43.455741" lon="12.2504298"><ele>290.40000000000003</ele><time>2026-04-16T11:15:00.721Z</time></trkpt><trkpt lat="43.4557623" lon="12.2505212"><ele>291.0</ele><time>2026-04-16T11:15:01.722Z</time></trkpt><trkpt lat="43.4558625" lon="12.2505501"><ele>291.0</ele><time>2026-04-16T11:15:03.721Z</time></trkpt><trkpt lat="43.4559554" lon="12.2504149"><ele>291.0</ele><time>2026-04-16T11:15:05.721Z</time></trkpt><trkpt lat="43.4560167" lon="12.2503457"><ele>291.0</ele><time>2026-04-16T11:15:06.721Z</time></trkpt><trkpt lat="43.4560851" lon="12.2502826"><ele>291.0</ele><time>2026-04-16T11:15:07.721Z</time></trkpt><trkpt lat="43.4561657" lon="12.2502243"><ele>291.0</ele><time>2026-04-16T11:15:08.721Z</time></trkpt><trkpt lat="43.4562502" lon="12.2501707"><ele>291.0</ele><time>2026-04-16T11:15:09.721Z</time></trkpt><trkpt lat="43.4563351" lon="12.2501561"><ele>291.0</ele><time>2026-04-16T11:15:10.722Z</time></trkpt><trkpt lat="43.4563966" lon="12.2501174"><ele>291.0</ele><time>2026-04-16T11:15:11.721Z</time></trkpt><trkpt lat="43.4564388" lon="12.2500401"><ele>291.0</ele><time>2026-04-16T11:15:12.721Z</time></trkpt><trkpt lat="43.4564697" lon="12.2499531"><ele>291.0</ele><time>2026-04-16T11:15:13.72Z</time></trkpt><trkpt lat="43.4564894" lon="12.2498364"><ele>291.0</ele><time>2026-04-16T11:15:14.722Z</time></trkpt><trkpt lat="43.4565096" lon="12.2497034"><ele>290.40000000000003</ele><time>2026-04-16T11:15:15.721Z</time></trkpt><trkpt lat="43.4565371" lon="12.2495637"><ele>289.8</ele><time>2026-04-16T11:15:16.721Z</time></trkpt><trkpt lat="43.4565661" lon="12.2494265"><ele>289.20000000000005</ele><time>2026-04-16T11:15:17.72Z</time></trkpt><trkpt lat="43.4566114" lon="12.249271"><ele>288.6</ele><time>2026-04-16T11:15:18.722Z</time></trkpt><trkpt lat="43.4566479" lon="12.2491371"><ele>288.0</ele><time>2026-04-16T11:15:19.72Z</time></trkpt><trkpt lat="43.45667" lon="12.2490123"><ele>287.6666666666667</ele><time>2026-04-16T11:15:20.721Z</time></trkpt><trkpt lat="43.4566927" lon="12.2488978"><ele>287.3333333333333</ele><time>2026-04-16T11:15:21.721Z</time></trkpt><trkpt lat="43.4567183" lon="12.2487809"><ele>287.0</ele><time>2026-04-16T11:15:22.722Z</time></trkpt><trkpt lat="43.4567306" lon="12.2486778"><ele>286.66666666666663</ele><time>2026-04-16T11:15:23.722Z</time></trkpt><trkpt lat="43.4567447" lon="12.2485849"><ele>286.3333333333333</ele><time>2026-04-16T11:15:24.719Z</time></trkpt><trkpt lat="43.4566959" lon="12.2484472"><ele>286.0</ele><time>2026-04-16T11:15:26.72Z</time></trkpt><trkpt lat="43.4566686" lon="12.2483601"><ele>286.0</ele><time>2026-04-16T11:15:27.721Z</time></trkpt><trkpt lat="43.4566471" lon="12.2482739"><ele>286.0</ele><time>2026-04-16T11:15:28.721Z</time></trkpt><trkpt lat="43.456626" lon="12.2481753"><ele>286.0</ele><time>2026-04-16T11:15:29.721Z</time></trkpt><trkpt lat="43.4566053" lon="12.248069"><ele>286.0</ele><time>2026-04-16T11:15:30.722Z</time></trkpt><trkpt lat="43.4565689" lon="12.2479587"><ele>286.0</ele><time>2026-04-16T11:15:31.721Z</time></trkpt><trkpt lat="43.4565521" lon="12.2478456"><ele>286.0</ele><time>2026-04-16T11:15:32.721Z</time></trkpt><trkpt lat="43.4565334" lon="12.2477606"><ele>285.8333333333333</ele><time>2026-04-16T11:15:33.721Z</time></trkpt><trkpt lat="43.4564834" lon="12.2476606"><ele>285.66666666666663</ele><time>2026-04-16T11:15:35.722Z</time></trkpt><trkpt lat="43.4563753" lon="12.2476973"><ele>285.5</ele><time>2026-04-16T11:15:37.722Z</time></trkpt><trkpt lat="43.4563042" lon="12.2477254"><ele>285.3333333333333</ele><time>2026-04-16T11:15:38.722Z</time></trkpt><trkpt lat="43.4562315" lon="12.2477545"><ele>285.1666666666667</ele><time>2026-04-16T11:15:39.721Z</time></trkpt><trkpt lat="43.4561683" lon="12.2477708"><ele>285.0</ele><time>2026-04-16T11:15:40.721Z</time></trkpt><trkpt lat="43.4560824" lon="12.2478322"><ele>285.0</ele><time>2026-04-16T11:15:42.72Z</time></trkpt><trkpt lat="43.4560863" lon="12.2479274"><ele>285.0</ele><time>2026-04-16T11:15:44.722Z</time></trkpt><trkpt lat="43.4561205" lon="12.2480519"><ele>285.0</ele><time>2026-04-16T11:15:46.72Z</time></trkpt><trkpt lat="43.4561559" lon="12.2481995"><ele>285.0</ele><time>2026-04-16T11:15:48.72Z</time></trkpt><trkpt lat="43.4561784" lon="12.2482815"><ele>285.0</ele><time>2026-04-16T11:15:49.72Z</time></trkpt><trkpt lat="43.4562266" lon="12.248442"><ele>285.0</ele><time>2026-04-16T11:15:51.721Z</time></trkpt><trkpt lat="43.4562693" lon="12.2485457"><ele>285.0</ele><time>2026-04-16T11:15:53.722Z</time></trkpt><trkpt lat="43.4563489" lon="12.2485689"><ele>286.0</ele><time>2026-04-16T11:15:56.721Z</time></trkpt></trkseg></trk></gpx>